<?xml version="1.0" encoding="UTF-8" standalone="no" ?>
<gpx xmlns="http://www.topografix.com/GPX/1/1" xmlns:xsi="http://www.w3.org/2001/XMLSchema-instance" xsi:schemaLocation="http://www.topografix.com/GPX/1/1 http://www.topografix.com/GPX/1/1/gpx.xsd" version="1.1" creator="VisuGPX - https://www.visugpx.com">
  <metadata>
    <name>trip 14/**dottignies -mont de l'enclus -dottignies</name>
    <desc><![CDATA[aussi bien roulant que boueux que grimpant  ]]></desc>
  </metadata>
  <trk>
    <name><![CDATA[trip 14/**dottignies -mont de l'enclus -dottignies_1]]></name>
    <extensions>
      <line xmlns="http://www.topografix.com/GPX/gpx_style/0/2">
        <color>0000FF</color>
        <width>4</width>
      </line>
    </extensions>
    <trkseg>
      <trkpt lat="50.73152" lon="3.32276">
        <ele>66.32</ele>
        <time>2021-06-20T06:50:03.000Z</time>
      </trkpt>
      <trkpt lat="50.73152" lon="3.32276">
        <ele>66.32</ele>
        <time>2021-06-20T06:50:03.001Z</time>
      </trkpt>
      <trkpt lat="50.73151" lon="3.32285">
        <ele>66.06</ele>
        <time>2021-06-20T06:51:20.000Z</time>
      </trkpt>
      <trkpt lat="50.73151" lon="3.32293">
        <ele>65.62</ele>
        <time>2021-06-20T06:51:22.000Z</time>
      </trkpt>
      <trkpt lat="50.73151" lon="3.32301">
        <ele>65.26</ele>
        <time>2021-06-20T06:51:24.000Z</time>
      </trkpt>
      <trkpt lat="50.7315" lon="3.3231">
        <ele>65.09</ele>
        <time>2021-06-20T06:51:26.000Z</time>
      </trkpt>
      <trkpt lat="50.7315" lon="3.3232">
        <ele>64.82</ele>
        <time>2021-06-20T06:51:28.000Z</time>
      </trkpt>
      <trkpt lat="50.73151" lon="3.3233">
        <ele>64.6</ele>
        <time>2021-06-20T06:51:30.000Z</time>
      </trkpt>
      <trkpt lat="50.73152" lon="3.32341">
        <ele>64.57</ele>
        <time>2021-06-20T06:51:32.000Z</time>
      </trkpt>
      <trkpt lat="50.73152" lon="3.32352">
        <ele>64.91</ele>
        <time>2021-06-20T06:51:34.000Z</time>
      </trkpt>
      <trkpt lat="50.73151" lon="3.32363">
        <ele>64.74</ele>
        <time>2021-06-20T06:51:36.000Z</time>
      </trkpt>
      <trkpt lat="50.73149" lon="3.32375">
        <ele>64.82</ele>
        <time>2021-06-20T06:51:38.000Z</time>
      </trkpt>
      <trkpt lat="50.73145" lon="3.32385">
        <ele>65.16</ele>
        <time>2021-06-20T06:51:40.000Z</time>
      </trkpt>
      <trkpt lat="50.73139" lon="3.32394">
        <ele>64.94</ele>
        <time>2021-06-20T06:51:42.000Z</time>
      </trkpt>
      <trkpt lat="50.73133" lon="3.32401">
        <ele>64.95</ele>
        <time>2021-06-20T06:51:44.000Z</time>
      </trkpt>
      <trkpt lat="50.73125" lon="3.32409">
        <ele>64.46</ele>
        <time>2021-06-20T06:51:46.000Z</time>
      </trkpt>
      <trkpt lat="50.73122" lon="3.32413">
        <ele>64.62</ele>
        <time>2021-06-20T06:51:47.000Z</time>
      </trkpt>
      <trkpt lat="50.73118" lon="3.32416">
        <ele>64.82</ele>
        <time>2021-06-20T06:51:48.000Z</time>
      </trkpt>
      <trkpt lat="50.7311" lon="3.32422">
        <ele>65.23</ele>
        <time>2021-06-20T06:51:50.000Z</time>
      </trkpt>
      <trkpt lat="50.73106" lon="3.32426">
        <ele>65.46</ele>
        <time>2021-06-20T06:51:51.000Z</time>
      </trkpt>
      <trkpt lat="50.73101" lon="3.32429">
        <ele>65.35</ele>
        <time>2021-06-20T06:51:52.000Z</time>
      </trkpt>
      <trkpt lat="50.73097" lon="3.32432">
        <ele>65.52</ele>
        <time>2021-06-20T06:51:53.000Z</time>
      </trkpt>
      <trkpt lat="50.73093" lon="3.32435">
        <ele>65.61</ele>
        <time>2021-06-20T06:51:54.000Z</time>
      </trkpt>
      <trkpt lat="50.73089" lon="3.32439">
        <ele>65.77</ele>
        <time>2021-06-20T06:51:55.000Z</time>
      </trkpt>
      <trkpt lat="50.73082" lon="3.32446">
        <ele>65.4</ele>
        <time>2021-06-20T06:51:57.000Z</time>
      </trkpt>
      <trkpt lat="50.73077" lon="3.32449">
        <ele>65.31</ele>
        <time>2021-06-20T06:51:58.000Z</time>
      </trkpt>
      <trkpt lat="50.73073" lon="3.32452">
        <ele>65.21</ele>
        <time>2021-06-20T06:51:59.000Z</time>
      </trkpt>
      <trkpt lat="50.73069" lon="3.32456">
        <ele>65.26</ele>
        <time>2021-06-20T06:52:00.000Z</time>
      </trkpt>
      <trkpt lat="50.73065" lon="3.3246">
        <ele>65.2</ele>
        <time>2021-06-20T06:52:01.000Z</time>
      </trkpt>
      <trkpt lat="50.7306" lon="3.32463">
        <ele>65.1</ele>
        <time>2021-06-20T06:52:02.000Z</time>
      </trkpt>
      <trkpt lat="50.73056" lon="3.32467">
        <ele>64.69</ele>
        <time>2021-06-20T06:52:03.000Z</time>
      </trkpt>
      <trkpt lat="50.73052" lon="3.32471">
        <ele>64.7</ele>
        <time>2021-06-20T06:52:04.000Z</time>
      </trkpt>
      <trkpt lat="50.73048" lon="3.32475">
        <ele>64.63</ele>
        <time>2021-06-20T06:52:05.000Z</time>
      </trkpt>
      <trkpt lat="50.73045" lon="3.3248">
        <ele>64.04</ele>
        <time>2021-06-20T06:52:06.000Z</time>
      </trkpt>
      <trkpt lat="50.73042" lon="3.32485">
        <ele>64.23</ele>
        <time>2021-06-20T06:52:07.000Z</time>
      </trkpt>
      <trkpt lat="50.73038" lon="3.32497">
        <ele>64.08</ele>
        <time>2021-06-20T06:52:09.000Z</time>
      </trkpt>
      <trkpt lat="50.73037" lon="3.32511">
        <ele>63.99</ele>
        <time>2021-06-20T06:52:11.000Z</time>
      </trkpt>
      <trkpt lat="50.73037" lon="3.32518">
        <ele>63.92</ele>
        <time>2021-06-20T06:52:12.000Z</time>
      </trkpt>
      <trkpt lat="50.73038" lon="3.32525">
        <ele>63.92</ele>
        <time>2021-06-20T06:52:13.000Z</time>
      </trkpt>
      <trkpt lat="50.73038" lon="3.32533">
        <ele>63.77</ele>
        <time>2021-06-20T06:52:14.000Z</time>
      </trkpt>
      <trkpt lat="50.73039" lon="3.32541">
        <ele>63.68</ele>
        <time>2021-06-20T06:52:15.000Z</time>
      </trkpt>
      <trkpt lat="50.73041" lon="3.32548">
        <ele>63.48</ele>
        <time>2021-06-20T06:52:16.000Z</time>
      </trkpt>
      <trkpt lat="50.73042" lon="3.32556">
        <ele>63.26</ele>
        <time>2021-06-20T06:52:17.000Z</time>
      </trkpt>
      <trkpt lat="50.73043" lon="3.32563">
        <ele>63.33</ele>
        <time>2021-06-20T06:52:18.000Z</time>
      </trkpt>
      <trkpt lat="50.73045" lon="3.32571">
        <ele>63.25</ele>
        <time>2021-06-20T06:52:19.000Z</time>
      </trkpt>
      <trkpt lat="50.73046" lon="3.32579">
        <ele>63.07</ele>
        <time>2021-06-20T06:52:20.000Z</time>
      </trkpt>
      <trkpt lat="50.73047" lon="3.32587">
        <ele>62.66</ele>
        <time>2021-06-20T06:52:21.000Z</time>
      </trkpt>
      <trkpt lat="50.73049" lon="3.32595">
        <ele>62.82</ele>
        <time>2021-06-20T06:52:22.000Z</time>
      </trkpt>
      <trkpt lat="50.7305" lon="3.32604">
        <ele>62.64</ele>
        <time>2021-06-20T06:52:23.000Z</time>
      </trkpt>
      <trkpt lat="50.73052" lon="3.32611">
        <ele>62.35</ele>
        <time>2021-06-20T06:52:24.000Z</time>
      </trkpt>
      <trkpt lat="50.73053" lon="3.32619">
        <ele>62.18</ele>
        <time>2021-06-20T06:52:25.000Z</time>
      </trkpt>
      <trkpt lat="50.73054" lon="3.32626">
        <ele>62.13</ele>
        <time>2021-06-20T06:52:26.000Z</time>
      </trkpt>
      <trkpt lat="50.73056" lon="3.32633">
        <ele>62.22</ele>
        <time>2021-06-20T06:52:27.000Z</time>
      </trkpt>
      <trkpt lat="50.73056" lon="3.32641">
        <ele>62.45</ele>
        <time>2021-06-20T06:52:28.000Z</time>
      </trkpt>
      <trkpt lat="50.73055" lon="3.32648">
        <ele>62.38</ele>
        <time>2021-06-20T06:52:29.000Z</time>
      </trkpt>
      <trkpt lat="50.73054" lon="3.32655">
        <ele>62.39</ele>
        <time>2021-06-20T06:52:30.000Z</time>
      </trkpt>
      <trkpt lat="50.73053" lon="3.32663">
        <ele>62.53</ele>
        <time>2021-06-20T06:52:31.000Z</time>
      </trkpt>
      <trkpt lat="50.73051" lon="3.3267">
        <ele>62.87</ele>
        <time>2021-06-20T06:52:32.000Z</time>
      </trkpt>
      <trkpt lat="50.73049" lon="3.32677">
        <ele>63.05</ele>
        <time>2021-06-20T06:52:33.000Z</time>
      </trkpt>
      <trkpt lat="50.73046" lon="3.32683">
        <ele>63.29</ele>
        <time>2021-06-20T06:52:34.000Z</time>
      </trkpt>
      <trkpt lat="50.73043" lon="3.32689">
        <ele>63.47</ele>
        <time>2021-06-20T06:52:35.000Z</time>
      </trkpt>
      <trkpt lat="50.73039" lon="3.32695">
        <ele>63.2</ele>
        <time>2021-06-20T06:52:36.000Z</time>
      </trkpt>
      <trkpt lat="50.73036" lon="3.32701">
        <ele>62.98</ele>
        <time>2021-06-20T06:52:37.000Z</time>
      </trkpt>
      <trkpt lat="50.73032" lon="3.32707">
        <ele>62.9</ele>
        <time>2021-06-20T06:52:38.000Z</time>
      </trkpt>
      <trkpt lat="50.73029" lon="3.32714">
        <ele>62.96</ele>
        <time>2021-06-20T06:52:39.000Z</time>
      </trkpt>
      <trkpt lat="50.73025" lon="3.32719">
        <ele>63.09</ele>
        <time>2021-06-20T06:52:40.000Z</time>
      </trkpt>
      <trkpt lat="50.73021" lon="3.32725">
        <ele>62.6</ele>
        <time>2021-06-20T06:52:41.000Z</time>
      </trkpt>
      <trkpt lat="50.73017" lon="3.32731">
        <ele>62.51</ele>
        <time>2021-06-20T06:52:42.000Z</time>
      </trkpt>
      <trkpt lat="50.73014" lon="3.32737">
        <ele>62.43</ele>
        <time>2021-06-20T06:52:43.000Z</time>
      </trkpt>
      <trkpt lat="50.73011" lon="3.32743">
        <ele>62.94</ele>
        <time>2021-06-20T06:52:44.000Z</time>
      </trkpt>
      <trkpt lat="50.73007" lon="3.32749">
        <ele>62.61</ele>
        <time>2021-06-20T06:52:45.000Z</time>
      </trkpt>
      <trkpt lat="50.73003" lon="3.32756">
        <ele>62.73</ele>
        <time>2021-06-20T06:52:46.000Z</time>
      </trkpt>
      <trkpt lat="50.73" lon="3.32762">
        <ele>62.46</ele>
        <time>2021-06-20T06:52:47.000Z</time>
      </trkpt>
      <trkpt lat="50.72996" lon="3.32768">
        <ele>62.42</ele>
        <time>2021-06-20T06:52:48.000Z</time>
      </trkpt>
      <trkpt lat="50.72992" lon="3.32774">
        <ele>62.48</ele>
        <time>2021-06-20T06:52:49.000Z</time>
      </trkpt>
      <trkpt lat="50.72989" lon="3.3278">
        <ele>62.1</ele>
        <time>2021-06-20T06:52:50.000Z</time>
      </trkpt>
      <trkpt lat="50.72985" lon="3.32786">
        <ele>62.58</ele>
        <time>2021-06-20T06:52:51.000Z</time>
      </trkpt>
      <trkpt lat="50.72981" lon="3.32791">
        <ele>62.73</ele>
        <time>2021-06-20T06:52:52.000Z</time>
      </trkpt>
      <trkpt lat="50.72976" lon="3.32793">
        <ele>61.95</ele>
        <time>2021-06-20T06:52:53.000Z</time>
      </trkpt>
      <trkpt lat="50.7297" lon="3.32795">
        <ele>61.31</ele>
        <time>2021-06-20T06:52:54.000Z</time>
      </trkpt>
      <trkpt lat="50.72965" lon="3.32797">
        <ele>60.82</ele>
        <time>2021-06-20T06:52:55.000Z</time>
      </trkpt>
      <trkpt lat="50.72961" lon="3.32798">
        <ele>60.81</ele>
        <time>2021-06-20T06:52:56.000Z</time>
      </trkpt>
      <trkpt lat="50.72956" lon="3.32799">
        <ele>61.1</ele>
        <time>2021-06-20T06:52:57.000Z</time>
      </trkpt>
      <trkpt lat="50.72949" lon="3.32801">
        <ele>61.22</ele>
        <time>2021-06-20T06:52:59.000Z</time>
      </trkpt>
      <trkpt lat="50.72944" lon="3.32811">
        <ele>61.66</ele>
        <time>2021-06-20T06:53:01.000Z</time>
      </trkpt>
      <trkpt lat="50.72941" lon="3.32823">
        <ele>61.46</ele>
        <time>2021-06-20T06:53:03.000Z</time>
      </trkpt>
      <trkpt lat="50.7294" lon="3.3283">
        <ele>61.35</ele>
        <time>2021-06-20T06:53:04.000Z</time>
      </trkpt>
      <trkpt lat="50.72939" lon="3.32837">
        <ele>61.25</ele>
        <time>2021-06-20T06:53:05.000Z</time>
      </trkpt>
      <trkpt lat="50.72938" lon="3.32845">
        <ele>61.39</ele>
        <time>2021-06-20T06:53:06.000Z</time>
      </trkpt>
      <trkpt lat="50.72937" lon="3.32852">
        <ele>61.32</ele>
        <time>2021-06-20T06:53:07.000Z</time>
      </trkpt>
      <trkpt lat="50.72937" lon="3.3286">
        <ele>61.58</ele>
        <time>2021-06-20T06:53:08.000Z</time>
      </trkpt>
      <trkpt lat="50.72936" lon="3.32867">
        <ele>62.2</ele>
        <time>2021-06-20T06:53:09.000Z</time>
      </trkpt>
      <trkpt lat="50.72935" lon="3.32875">
        <ele>62.28</ele>
        <time>2021-06-20T06:53:10.000Z</time>
      </trkpt>
      <trkpt lat="50.72934" lon="3.32883">
        <ele>62.11</ele>
        <time>2021-06-20T06:53:11.000Z</time>
      </trkpt>
      <trkpt lat="50.72933" lon="3.3289">
        <ele>62.07</ele>
        <time>2021-06-20T06:53:12.000Z</time>
      </trkpt>
      <trkpt lat="50.72932" lon="3.32904">
        <ele>62.82</ele>
        <time>2021-06-20T06:53:14.000Z</time>
      </trkpt>
      <trkpt lat="50.72931" lon="3.32911">
        <ele>62.93</ele>
        <time>2021-06-20T06:53:15.000Z</time>
      </trkpt>
      <trkpt lat="50.72929" lon="3.32923">
        <ele>63.16</ele>
        <time>2021-06-20T06:53:17.000Z</time>
      </trkpt>
      <trkpt lat="50.72926" lon="3.32935">
        <ele>63.61</ele>
        <time>2021-06-20T06:53:19.000Z</time>
      </trkpt>
      <trkpt lat="50.7292" lon="3.32941">
        <ele>63.5</ele>
        <time>2021-06-20T06:53:21.000Z</time>
      </trkpt>
      <trkpt lat="50.72914" lon="3.32944">
        <ele>63.28</ele>
        <time>2021-06-20T06:53:23.000Z</time>
      </trkpt>
      <trkpt lat="50.72911" lon="3.32953">
        <ele>63.37</ele>
        <time>2021-06-20T06:53:25.000Z</time>
      </trkpt>
      <trkpt lat="50.72909" lon="3.32961">
        <ele>63.43</ele>
        <time>2021-06-20T06:53:27.000Z</time>
      </trkpt>
      <trkpt lat="50.72911" lon="3.32969">
        <ele>63.03</ele>
        <time>2021-06-20T06:53:29.000Z</time>
      </trkpt>
      <trkpt lat="50.72915" lon="3.32977">
        <ele>63.33</ele>
        <time>2021-06-20T06:53:31.000Z</time>
      </trkpt>
      <trkpt lat="50.72918" lon="3.32987">
        <ele>63.21</ele>
        <time>2021-06-20T06:53:33.000Z</time>
      </trkpt>
      <trkpt lat="50.72918" lon="3.33">
        <ele>63.52</ele>
        <time>2021-06-20T06:53:35.000Z</time>
      </trkpt>
      <trkpt lat="50.72916" lon="3.33013">
        <ele>63.46</ele>
        <time>2021-06-20T06:53:37.000Z</time>
      </trkpt>
      <trkpt lat="50.72915" lon="3.33027">
        <ele>63.7</ele>
        <time>2021-06-20T06:53:39.000Z</time>
      </trkpt>
      <trkpt lat="50.72914" lon="3.33034">
        <ele>63.59</ele>
        <time>2021-06-20T06:53:40.000Z</time>
      </trkpt>
      <trkpt lat="50.72914" lon="3.33049">
        <ele>62.58</ele>
        <time>2021-06-20T06:53:42.000Z</time>
      </trkpt>
      <trkpt lat="50.72913" lon="3.33057">
        <ele>63.16</ele>
        <time>2021-06-20T06:53:43.000Z</time>
      </trkpt>
      <trkpt lat="50.72911" lon="3.33064">
        <ele>63.35</ele>
        <time>2021-06-20T06:53:44.000Z</time>
      </trkpt>
      <trkpt lat="50.7291" lon="3.33072">
        <ele>63.42</ele>
        <time>2021-06-20T06:53:45.000Z</time>
      </trkpt>
      <trkpt lat="50.72908" lon="3.33081">
        <ele>63.94</ele>
        <time>2021-06-20T06:53:46.000Z</time>
      </trkpt>
      <trkpt lat="50.72907" lon="3.33089">
        <ele>63.93</ele>
        <time>2021-06-20T06:53:47.000Z</time>
      </trkpt>
      <trkpt lat="50.72906" lon="3.33097">
        <ele>63.74</ele>
        <time>2021-06-20T06:53:48.000Z</time>
      </trkpt>
      <trkpt lat="50.72905" lon="3.33105">
        <ele>63.84</ele>
        <time>2021-06-20T06:53:49.000Z</time>
      </trkpt>
      <trkpt lat="50.72903" lon="3.33113">
        <ele>63.97</ele>
        <time>2021-06-20T06:53:50.000Z</time>
      </trkpt>
      <trkpt lat="50.72902" lon="3.33121">
        <ele>63.74</ele>
        <time>2021-06-20T06:53:51.000Z</time>
      </trkpt>
      <trkpt lat="50.72901" lon="3.33129">
        <ele>63.62</ele>
        <time>2021-06-20T06:53:52.000Z</time>
      </trkpt>
      <trkpt lat="50.729" lon="3.33137">
        <ele>63.48</ele>
        <time>2021-06-20T06:53:53.000Z</time>
      </trkpt>
      <trkpt lat="50.72899" lon="3.33145">
        <ele>63.44</ele>
        <time>2021-06-20T06:53:54.000Z</time>
      </trkpt>
      <trkpt lat="50.72897" lon="3.33154">
        <ele>63.67</ele>
        <time>2021-06-20T06:53:55.000Z</time>
      </trkpt>
      <trkpt lat="50.72896" lon="3.33162">
        <ele>63.58</ele>
        <time>2021-06-20T06:53:56.000Z</time>
      </trkpt>
      <trkpt lat="50.72894" lon="3.33171">
        <ele>63.63</ele>
        <time>2021-06-20T06:53:57.000Z</time>
      </trkpt>
      <trkpt lat="50.72891" lon="3.33179">
        <ele>63.67</ele>
        <time>2021-06-20T06:53:58.000Z</time>
      </trkpt>
      <trkpt lat="50.7289" lon="3.33187">
        <ele>63.67</ele>
        <time>2021-06-20T06:53:59.000Z</time>
      </trkpt>
      <trkpt lat="50.72888" lon="3.33196">
        <ele>63.8</ele>
        <time>2021-06-20T06:54:00.000Z</time>
      </trkpt>
      <trkpt lat="50.72887" lon="3.33204">
        <ele>63.88</ele>
        <time>2021-06-20T06:54:01.000Z</time>
      </trkpt>
      <trkpt lat="50.72886" lon="3.33212">
        <ele>63.81</ele>
        <time>2021-06-20T06:54:02.000Z</time>
      </trkpt>
      <trkpt lat="50.72884" lon="3.33221">
        <ele>63.64</ele>
        <time>2021-06-20T06:54:03.000Z</time>
      </trkpt>
      <trkpt lat="50.72883" lon="3.3323">
        <ele>63.47</ele>
        <time>2021-06-20T06:54:04.000Z</time>
      </trkpt>
      <trkpt lat="50.72882" lon="3.33239">
        <ele>63.57</ele>
        <time>2021-06-20T06:54:05.000Z</time>
      </trkpt>
      <trkpt lat="50.72883" lon="3.33249">
        <ele>63.57</ele>
        <time>2021-06-20T06:54:06.000Z</time>
      </trkpt>
      <trkpt lat="50.72882" lon="3.33259">
        <ele>63.77</ele>
        <time>2021-06-20T06:54:07.000Z</time>
      </trkpt>
      <trkpt lat="50.7288" lon="3.33268">
        <ele>63.78</ele>
        <time>2021-06-20T06:54:08.000Z</time>
      </trkpt>
      <trkpt lat="50.72879" lon="3.33278">
        <ele>63.82</ele>
        <time>2021-06-20T06:54:09.000Z</time>
      </trkpt>
      <trkpt lat="50.72877" lon="3.33288">
        <ele>63.58</ele>
        <time>2021-06-20T06:54:10.000Z</time>
      </trkpt>
      <trkpt lat="50.72876" lon="3.33297">
        <ele>63.76</ele>
        <time>2021-06-20T06:54:11.000Z</time>
      </trkpt>
      <trkpt lat="50.72874" lon="3.33307">
        <ele>63.57</ele>
        <time>2021-06-20T06:54:12.000Z</time>
      </trkpt>
      <trkpt lat="50.72873" lon="3.33317">
        <ele>63.34</ele>
        <time>2021-06-20T06:54:13.000Z</time>
      </trkpt>
      <trkpt lat="50.72871" lon="3.33327">
        <ele>63.4</ele>
        <time>2021-06-20T06:54:14.000Z</time>
      </trkpt>
      <trkpt lat="50.72869" lon="3.33337">
        <ele>63.43</ele>
        <time>2021-06-20T06:54:15.000Z</time>
      </trkpt>
      <trkpt lat="50.72867" lon="3.33347">
        <ele>63.42</ele>
        <time>2021-06-20T06:54:16.000Z</time>
      </trkpt>
      <trkpt lat="50.72866" lon="3.33357">
        <ele>63.38</ele>
        <time>2021-06-20T06:54:17.000Z</time>
      </trkpt>
      <trkpt lat="50.72864" lon="3.33366">
        <ele>63.43</ele>
        <time>2021-06-20T06:54:18.000Z</time>
      </trkpt>
      <trkpt lat="50.72862" lon="3.33376">
        <ele>63.29</ele>
        <time>2021-06-20T06:54:19.000Z</time>
      </trkpt>
      <trkpt lat="50.72859" lon="3.33385">
        <ele>63.3</ele>
        <time>2021-06-20T06:54:20.000Z</time>
      </trkpt>
      <trkpt lat="50.72857" lon="3.33395">
        <ele>63.29</ele>
        <time>2021-06-20T06:54:21.000Z</time>
      </trkpt>
      <trkpt lat="50.72854" lon="3.33405">
        <ele>63.4</ele>
        <time>2021-06-20T06:54:22.000Z</time>
      </trkpt>
      <trkpt lat="50.72851" lon="3.33414">
        <ele>63.35</ele>
        <time>2021-06-20T06:54:23.000Z</time>
      </trkpt>
      <trkpt lat="50.72849" lon="3.33424">
        <ele>63.34</ele>
        <time>2021-06-20T06:54:24.000Z</time>
      </trkpt>
      <trkpt lat="50.72846" lon="3.33432">
        <ele>63.38</ele>
        <time>2021-06-20T06:54:25.000Z</time>
      </trkpt>
      <trkpt lat="50.72844" lon="3.33441">
        <ele>63.31</ele>
        <time>2021-06-20T06:54:26.000Z</time>
      </trkpt>
      <trkpt lat="50.72842" lon="3.33449">
        <ele>63.32</ele>
        <time>2021-06-20T06:54:27.000Z</time>
      </trkpt>
      <trkpt lat="50.7284" lon="3.33456">
        <ele>63.23</ele>
        <time>2021-06-20T06:54:28.000Z</time>
      </trkpt>
      <trkpt lat="50.72839" lon="3.33465">
        <ele>63.51</ele>
        <time>2021-06-20T06:54:29.000Z</time>
      </trkpt>
      <trkpt lat="50.7284" lon="3.33472">
        <ele>63.4</ele>
        <time>2021-06-20T06:54:30.000Z</time>
      </trkpt>
      <trkpt lat="50.72843" lon="3.33479">
        <ele>63.19</ele>
        <time>2021-06-20T06:54:31.000Z</time>
      </trkpt>
      <trkpt lat="50.72845" lon="3.33486">
        <ele>63.36</ele>
        <time>2021-06-20T06:54:32.000Z</time>
      </trkpt>
      <trkpt lat="50.72848" lon="3.33494">
        <ele>63.53</ele>
        <time>2021-06-20T06:54:33.000Z</time>
      </trkpt>
      <trkpt lat="50.72851" lon="3.33503">
        <ele>63.33</ele>
        <time>2021-06-20T06:54:34.000Z</time>
      </trkpt>
      <trkpt lat="50.72854" lon="3.33511">
        <ele>63.01</ele>
        <time>2021-06-20T06:54:35.000Z</time>
      </trkpt>
      <trkpt lat="50.72857" lon="3.33518">
        <ele>63.43</ele>
        <time>2021-06-20T06:54:36.000Z</time>
      </trkpt>
      <trkpt lat="50.7286" lon="3.33526">
        <ele>63.59</ele>
        <time>2021-06-20T06:54:37.000Z</time>
      </trkpt>
      <trkpt lat="50.72864" lon="3.33534">
        <ele>63.66</ele>
        <time>2021-06-20T06:54:38.000Z</time>
      </trkpt>
      <trkpt lat="50.72867" lon="3.33541">
        <ele>63.56</ele>
        <time>2021-06-20T06:54:39.000Z</time>
      </trkpt>
      <trkpt lat="50.7287" lon="3.33549">
        <ele>63.47</ele>
        <time>2021-06-20T06:54:40.000Z</time>
      </trkpt>
      <trkpt lat="50.72873" lon="3.33556">
        <ele>63.46</ele>
        <time>2021-06-20T06:54:41.000Z</time>
      </trkpt>
      <trkpt lat="50.72876" lon="3.33564">
        <ele>63.35</ele>
        <time>2021-06-20T06:54:42.000Z</time>
      </trkpt>
      <trkpt lat="50.72879" lon="3.3357">
        <ele>63.2</ele>
        <time>2021-06-20T06:54:43.000Z</time>
      </trkpt>
      <trkpt lat="50.72882" lon="3.33577">
        <ele>63.24</ele>
        <time>2021-06-20T06:54:44.000Z</time>
      </trkpt>
      <trkpt lat="50.72886" lon="3.33584">
        <ele>63.21</ele>
        <time>2021-06-20T06:54:45.000Z</time>
      </trkpt>
      <trkpt lat="50.72889" lon="3.33592">
        <ele>63.28</ele>
        <time>2021-06-20T06:54:46.000Z</time>
      </trkpt>
      <trkpt lat="50.72892" lon="3.336">
        <ele>63.28</ele>
        <time>2021-06-20T06:54:47.000Z</time>
      </trkpt>
      <trkpt lat="50.72895" lon="3.33608">
        <ele>63.56</ele>
        <time>2021-06-20T06:54:48.000Z</time>
      </trkpt>
      <trkpt lat="50.72899" lon="3.33616">
        <ele>63.6</ele>
        <time>2021-06-20T06:54:49.000Z</time>
      </trkpt>
      <trkpt lat="50.72902" lon="3.33624">
        <ele>63.66</ele>
        <time>2021-06-20T06:54:50.000Z</time>
      </trkpt>
      <trkpt lat="50.72906" lon="3.33632">
        <ele>63.76</ele>
        <time>2021-06-20T06:54:51.000Z</time>
      </trkpt>
      <trkpt lat="50.72909" lon="3.3364">
        <ele>63.54</ele>
        <time>2021-06-20T06:54:52.000Z</time>
      </trkpt>
      <trkpt lat="50.72912" lon="3.33649">
        <ele>63.42</ele>
        <time>2021-06-20T06:54:53.000Z</time>
      </trkpt>
      <trkpt lat="50.72916" lon="3.33657">
        <ele>63.5</ele>
        <time>2021-06-20T06:54:54.000Z</time>
      </trkpt>
      <trkpt lat="50.7292" lon="3.33665">
        <ele>63.7</ele>
        <time>2021-06-20T06:54:55.000Z</time>
      </trkpt>
      <trkpt lat="50.72923" lon="3.33673">
        <ele>63.6</ele>
        <time>2021-06-20T06:54:56.000Z</time>
      </trkpt>
      <trkpt lat="50.72927" lon="3.33681">
        <ele>63.82</ele>
        <time>2021-06-20T06:54:57.000Z</time>
      </trkpt>
      <trkpt lat="50.7293" lon="3.33689">
        <ele>63.83</ele>
        <time>2021-06-20T06:54:58.000Z</time>
      </trkpt>
      <trkpt lat="50.72934" lon="3.33698">
        <ele>63.92</ele>
        <time>2021-06-20T06:54:59.000Z</time>
      </trkpt>
      <trkpt lat="50.72937" lon="3.33706">
        <ele>63.71</ele>
        <time>2021-06-20T06:55:00.000Z</time>
      </trkpt>
      <trkpt lat="50.7294" lon="3.33715">
        <ele>63.36</ele>
        <time>2021-06-20T06:55:01.000Z</time>
      </trkpt>
      <trkpt lat="50.72944" lon="3.33723">
        <ele>63.36</ele>
        <time>2021-06-20T06:55:02.000Z</time>
      </trkpt>
      <trkpt lat="50.72948" lon="3.33732">
        <ele>63.45</ele>
        <time>2021-06-20T06:55:03.000Z</time>
      </trkpt>
      <trkpt lat="50.72952" lon="3.3374">
        <ele>63.35</ele>
        <time>2021-06-20T06:55:04.000Z</time>
      </trkpt>
      <trkpt lat="50.72955" lon="3.33748">
        <ele>63.14</ele>
        <time>2021-06-20T06:55:05.000Z</time>
      </trkpt>
      <trkpt lat="50.72959" lon="3.33757">
        <ele>63.19</ele>
        <time>2021-06-20T06:55:06.000Z</time>
      </trkpt>
      <trkpt lat="50.72963" lon="3.33765">
        <ele>63.02</ele>
        <time>2021-06-20T06:55:07.000Z</time>
      </trkpt>
      <trkpt lat="50.72967" lon="3.33774">
        <ele>63.05</ele>
        <time>2021-06-20T06:55:08.000Z</time>
      </trkpt>
      <trkpt lat="50.72971" lon="3.33783">
        <ele>63.12</ele>
        <time>2021-06-20T06:55:09.000Z</time>
      </trkpt>
      <trkpt lat="50.72975" lon="3.33791">
        <ele>62.19</ele>
        <time>2021-06-20T06:55:10.000Z</time>
      </trkpt>
      <trkpt lat="50.72978" lon="3.33801">
        <ele>62.47</ele>
        <time>2021-06-20T06:55:11.000Z</time>
      </trkpt>
      <trkpt lat="50.72982" lon="3.33809">
        <ele>62.77</ele>
        <time>2021-06-20T06:55:12.000Z</time>
      </trkpt>
      <trkpt lat="50.72985" lon="3.33818">
        <ele>62.98</ele>
        <time>2021-06-20T06:55:13.000Z</time>
      </trkpt>
      <trkpt lat="50.72989" lon="3.33827">
        <ele>63.14</ele>
        <time>2021-06-20T06:55:14.000Z</time>
      </trkpt>
      <trkpt lat="50.72993" lon="3.33835">
        <ele>63.08</ele>
        <time>2021-06-20T06:55:15.000Z</time>
      </trkpt>
      <trkpt lat="50.72997" lon="3.33845">
        <ele>62.95</ele>
        <time>2021-06-20T06:55:16.000Z</time>
      </trkpt>
      <trkpt lat="50.73001" lon="3.33854">
        <ele>63.11</ele>
        <time>2021-06-20T06:55:17.000Z</time>
      </trkpt>
      <trkpt lat="50.73005" lon="3.33862">
        <ele>63.37</ele>
        <time>2021-06-20T06:55:18.000Z</time>
      </trkpt>
      <trkpt lat="50.73009" lon="3.33871">
        <ele>63.54</ele>
        <time>2021-06-20T06:55:19.000Z</time>
      </trkpt>
      <trkpt lat="50.73013" lon="3.33881">
        <ele>63.34</ele>
        <time>2021-06-20T06:55:20.000Z</time>
      </trkpt>
      <trkpt lat="50.73018" lon="3.3389">
        <ele>63.37</ele>
        <time>2021-06-20T06:55:21.000Z</time>
      </trkpt>
      <trkpt lat="50.73022" lon="3.33899">
        <ele>62.56</ele>
        <time>2021-06-20T06:55:22.000Z</time>
      </trkpt>
      <trkpt lat="50.73026" lon="3.33908">
        <ele>63.13</ele>
        <time>2021-06-20T06:55:23.000Z</time>
      </trkpt>
      <trkpt lat="50.7303" lon="3.33917">
        <ele>63.55</ele>
        <time>2021-06-20T06:55:24.000Z</time>
      </trkpt>
      <trkpt lat="50.73035" lon="3.33926">
        <ele>63.64</ele>
        <time>2021-06-20T06:55:25.000Z</time>
      </trkpt>
      <trkpt lat="50.73039" lon="3.33935">
        <ele>63.74</ele>
        <time>2021-06-20T06:55:26.000Z</time>
      </trkpt>
      <trkpt lat="50.73044" lon="3.33944">
        <ele>63.9</ele>
        <time>2021-06-20T06:55:27.000Z</time>
      </trkpt>
      <trkpt lat="50.73048" lon="3.33954">
        <ele>64.15</ele>
        <time>2021-06-20T06:55:28.000Z</time>
      </trkpt>
      <trkpt lat="50.73052" lon="3.33963">
        <ele>64.22</ele>
        <time>2021-06-20T06:55:29.000Z</time>
      </trkpt>
      <trkpt lat="50.73057" lon="3.33972">
        <ele>64.28</ele>
        <time>2021-06-20T06:55:30.000Z</time>
      </trkpt>
      <trkpt lat="50.73062" lon="3.33981">
        <ele>64.2</ele>
        <time>2021-06-20T06:55:31.000Z</time>
      </trkpt>
      <trkpt lat="50.73066" lon="3.3399">
        <ele>64.35</ele>
        <time>2021-06-20T06:55:32.000Z</time>
      </trkpt>
      <trkpt lat="50.7307" lon="3.34">
        <ele>64.47</ele>
        <time>2021-06-20T06:55:33.000Z</time>
      </trkpt>
      <trkpt lat="50.73074" lon="3.3401">
        <ele>64.4</ele>
        <time>2021-06-20T06:55:34.000Z</time>
      </trkpt>
      <trkpt lat="50.73079" lon="3.34019">
        <ele>64.36</ele>
        <time>2021-06-20T06:55:35.000Z</time>
      </trkpt>
      <trkpt lat="50.73083" lon="3.34028">
        <ele>64.2</ele>
        <time>2021-06-20T06:55:36.000Z</time>
      </trkpt>
      <trkpt lat="50.73088" lon="3.34038">
        <ele>63.76</ele>
        <time>2021-06-20T06:55:37.000Z</time>
      </trkpt>
      <trkpt lat="50.73093" lon="3.34047">
        <ele>63.75</ele>
        <time>2021-06-20T06:55:38.000Z</time>
      </trkpt>
      <trkpt lat="50.73097" lon="3.34056">
        <ele>63.74</ele>
        <time>2021-06-20T06:55:39.000Z</time>
      </trkpt>
      <trkpt lat="50.73102" lon="3.34066">
        <ele>63.86</ele>
        <time>2021-06-20T06:55:40.000Z</time>
      </trkpt>
      <trkpt lat="50.73107" lon="3.34075">
        <ele>63.91</ele>
        <time>2021-06-20T06:55:41.000Z</time>
      </trkpt>
      <trkpt lat="50.73111" lon="3.34085">
        <ele>63.83</ele>
        <time>2021-06-20T06:55:42.000Z</time>
      </trkpt>
      <trkpt lat="50.73116" lon="3.34094">
        <ele>63.97</ele>
        <time>2021-06-20T06:55:43.000Z</time>
      </trkpt>
      <trkpt lat="50.73121" lon="3.34103">
        <ele>63.86</ele>
        <time>2021-06-20T06:55:44.000Z</time>
      </trkpt>
      <trkpt lat="50.73125" lon="3.34113">
        <ele>63.84</ele>
        <time>2021-06-20T06:55:45.000Z</time>
      </trkpt>
      <trkpt lat="50.7313" lon="3.34122">
        <ele>63.68</ele>
        <time>2021-06-20T06:55:46.000Z</time>
      </trkpt>
      <trkpt lat="50.73134" lon="3.34131">
        <ele>63.69</ele>
        <time>2021-06-20T06:55:47.000Z</time>
      </trkpt>
      <trkpt lat="50.73139" lon="3.3414">
        <ele>63.91</ele>
        <time>2021-06-20T06:55:48.000Z</time>
      </trkpt>
      <trkpt lat="50.73144" lon="3.3415">
        <ele>63.22</ele>
        <time>2021-06-20T06:55:49.000Z</time>
      </trkpt>
      <trkpt lat="50.73148" lon="3.34159">
        <ele>63.46</ele>
        <time>2021-06-20T06:55:50.000Z</time>
      </trkpt>
      <trkpt lat="50.73153" lon="3.34168">
        <ele>63.84</ele>
        <time>2021-06-20T06:55:51.000Z</time>
      </trkpt>
      <trkpt lat="50.73158" lon="3.34177">
        <ele>64.09</ele>
        <time>2021-06-20T06:55:52.000Z</time>
      </trkpt>
      <trkpt lat="50.73163" lon="3.34187">
        <ele>64.28</ele>
        <time>2021-06-20T06:55:53.000Z</time>
      </trkpt>
      <trkpt lat="50.73167" lon="3.34197">
        <ele>64.41</ele>
        <time>2021-06-20T06:55:54.000Z</time>
      </trkpt>
      <trkpt lat="50.73172" lon="3.34206">
        <ele>64.5</ele>
        <time>2021-06-20T06:55:55.000Z</time>
      </trkpt>
      <trkpt lat="50.73177" lon="3.34215">
        <ele>64.65</ele>
        <time>2021-06-20T06:55:56.000Z</time>
      </trkpt>
      <trkpt lat="50.73182" lon="3.34225">
        <ele>64.86</ele>
        <time>2021-06-20T06:55:57.000Z</time>
      </trkpt>
      <trkpt lat="50.73187" lon="3.34234">
        <ele>64.94</ele>
        <time>2021-06-20T06:55:58.000Z</time>
      </trkpt>
      <trkpt lat="50.73192" lon="3.34244">
        <ele>64.76</ele>
        <time>2021-06-20T06:55:59.000Z</time>
      </trkpt>
      <trkpt lat="50.73196" lon="3.34254">
        <ele>64.96</ele>
        <time>2021-06-20T06:56:00.000Z</time>
      </trkpt>
      <trkpt lat="50.73201" lon="3.34264">
        <ele>64.56</ele>
        <time>2021-06-20T06:56:01.000Z</time>
      </trkpt>
      <trkpt lat="50.73206" lon="3.34274">
        <ele>64.26</ele>
        <time>2021-06-20T06:56:02.000Z</time>
      </trkpt>
      <trkpt lat="50.73211" lon="3.34284">
        <ele>63.76</ele>
        <time>2021-06-20T06:56:03.000Z</time>
      </trkpt>
      <trkpt lat="50.73216" lon="3.34294">
        <ele>63.6</ele>
        <time>2021-06-20T06:56:04.000Z</time>
      </trkpt>
      <trkpt lat="50.73221" lon="3.34305">
        <ele>63.47</ele>
        <time>2021-06-20T06:56:05.000Z</time>
      </trkpt>
      <trkpt lat="50.73226" lon="3.34315">
        <ele>63.16</ele>
        <time>2021-06-20T06:56:06.000Z</time>
      </trkpt>
      <trkpt lat="50.73231" lon="3.34326">
        <ele>63.28</ele>
        <time>2021-06-20T06:56:07.000Z</time>
      </trkpt>
      <trkpt lat="50.73236" lon="3.34336">
        <ele>63.18</ele>
        <time>2021-06-20T06:56:08.000Z</time>
      </trkpt>
      <trkpt lat="50.73241" lon="3.34346">
        <ele>62.95</ele>
        <time>2021-06-20T06:56:09.000Z</time>
      </trkpt>
      <trkpt lat="50.73246" lon="3.34357">
        <ele>63.06</ele>
        <time>2021-06-20T06:56:10.000Z</time>
      </trkpt>
      <trkpt lat="50.73251" lon="3.34367">
        <ele>63.53</ele>
        <time>2021-06-20T06:56:11.000Z</time>
      </trkpt>
      <trkpt lat="50.73256" lon="3.34376">
        <ele>63.95</ele>
        <time>2021-06-20T06:56:12.000Z</time>
      </trkpt>
      <trkpt lat="50.73261" lon="3.34386">
        <ele>64.14</ele>
        <time>2021-06-20T06:56:13.000Z</time>
      </trkpt>
      <trkpt lat="50.73266" lon="3.34396">
        <ele>63.82</ele>
        <time>2021-06-20T06:56:14.000Z</time>
      </trkpt>
      <trkpt lat="50.7327" lon="3.34405">
        <ele>64.11</ele>
        <time>2021-06-20T06:56:15.000Z</time>
      </trkpt>
      <trkpt lat="50.73275" lon="3.34415">
        <ele>64.07</ele>
        <time>2021-06-20T06:56:16.000Z</time>
      </trkpt>
      <trkpt lat="50.7328" lon="3.34425">
        <ele>64.21</ele>
        <time>2021-06-20T06:56:17.000Z</time>
      </trkpt>
      <trkpt lat="50.73285" lon="3.34435">
        <ele>64.44</ele>
        <time>2021-06-20T06:56:18.000Z</time>
      </trkpt>
      <trkpt lat="50.73289" lon="3.34444">
        <ele>64.49</ele>
        <time>2021-06-20T06:56:19.000Z</time>
      </trkpt>
      <trkpt lat="50.73294" lon="3.34454">
        <ele>64.6</ele>
        <time>2021-06-20T06:56:20.000Z</time>
      </trkpt>
      <trkpt lat="50.73299" lon="3.34463">
        <ele>64.48</ele>
        <time>2021-06-20T06:56:21.000Z</time>
      </trkpt>
      <trkpt lat="50.73304" lon="3.34473">
        <ele>64.41</ele>
        <time>2021-06-20T06:56:22.000Z</time>
      </trkpt>
      <trkpt lat="50.73309" lon="3.34482">
        <ele>64.28</ele>
        <time>2021-06-20T06:56:23.000Z</time>
      </trkpt>
      <trkpt lat="50.73313" lon="3.34492">
        <ele>64.06</ele>
        <time>2021-06-20T06:56:24.000Z</time>
      </trkpt>
      <trkpt lat="50.73318" lon="3.34501">
        <ele>64.05</ele>
        <time>2021-06-20T06:56:25.000Z</time>
      </trkpt>
      <trkpt lat="50.73323" lon="3.34511">
        <ele>64.17</ele>
        <time>2021-06-20T06:56:26.000Z</time>
      </trkpt>
      <trkpt lat="50.73327" lon="3.34521">
        <ele>64.06</ele>
        <time>2021-06-20T06:56:27.000Z</time>
      </trkpt>
      <trkpt lat="50.73332" lon="3.3453">
        <ele>64.22</ele>
        <time>2021-06-20T06:56:28.000Z</time>
      </trkpt>
      <trkpt lat="50.73336" lon="3.34539">
        <ele>64.21</ele>
        <time>2021-06-20T06:56:29.000Z</time>
      </trkpt>
      <trkpt lat="50.73341" lon="3.34548">
        <ele>64.25</ele>
        <time>2021-06-20T06:56:30.000Z</time>
      </trkpt>
      <trkpt lat="50.73346" lon="3.34557">
        <ele>64.13</ele>
        <time>2021-06-20T06:56:31.000Z</time>
      </trkpt>
      <trkpt lat="50.7335" lon="3.34566">
        <ele>64.2</ele>
        <time>2021-06-20T06:56:32.000Z</time>
      </trkpt>
      <trkpt lat="50.73355" lon="3.34576">
        <ele>63.95</ele>
        <time>2021-06-20T06:56:33.000Z</time>
      </trkpt>
      <trkpt lat="50.73359" lon="3.34585">
        <ele>63.9</ele>
        <time>2021-06-20T06:56:34.000Z</time>
      </trkpt>
      <trkpt lat="50.73364" lon="3.34594">
        <ele>63.83</ele>
        <time>2021-06-20T06:56:35.000Z</time>
      </trkpt>
      <trkpt lat="50.73368" lon="3.34603">
        <ele>63.63</ele>
        <time>2021-06-20T06:56:36.000Z</time>
      </trkpt>
      <trkpt lat="50.73373" lon="3.34612">
        <ele>63.81</ele>
        <time>2021-06-20T06:56:37.000Z</time>
      </trkpt>
      <trkpt lat="50.73377" lon="3.34621">
        <ele>63.6</ele>
        <time>2021-06-20T06:56:38.000Z</time>
      </trkpt>
      <trkpt lat="50.73382" lon="3.34629">
        <ele>63.7</ele>
        <time>2021-06-20T06:56:39.000Z</time>
      </trkpt>
      <trkpt lat="50.73386" lon="3.34637">
        <ele>63.83</ele>
        <time>2021-06-20T06:56:40.000Z</time>
      </trkpt>
      <trkpt lat="50.7339" lon="3.34645">
        <ele>63.88</ele>
        <time>2021-06-20T06:56:41.000Z</time>
      </trkpt>
      <trkpt lat="50.73394" lon="3.34653">
        <ele>64.37</ele>
        <time>2021-06-20T06:56:42.000Z</time>
      </trkpt>
      <trkpt lat="50.73398" lon="3.3466">
        <ele>64.56</ele>
        <time>2021-06-20T06:56:43.000Z</time>
      </trkpt>
      <trkpt lat="50.73402" lon="3.34668">
        <ele>64.71</ele>
        <time>2021-06-20T06:56:44.000Z</time>
      </trkpt>
      <trkpt lat="50.73405" lon="3.34675">
        <ele>64.92</ele>
        <time>2021-06-20T06:56:45.000Z</time>
      </trkpt>
      <trkpt lat="50.73407" lon="3.34681">
        <ele>64.94</ele>
        <time>2021-06-20T06:56:46.000Z</time>
      </trkpt>
      <trkpt lat="50.73411" lon="3.34687">
        <ele>65.08</ele>
        <time>2021-06-20T06:56:47.000Z</time>
      </trkpt>
      <trkpt lat="50.73414" lon="3.34693">
        <ele>64.76</ele>
        <time>2021-06-20T06:56:48.000Z</time>
      </trkpt>
      <trkpt lat="50.73417" lon="3.347">
        <ele>64.55</ele>
        <time>2021-06-20T06:56:49.000Z</time>
      </trkpt>
      <trkpt lat="50.73421" lon="3.34706">
        <ele>64.43</ele>
        <time>2021-06-20T06:56:50.000Z</time>
      </trkpt>
      <trkpt lat="50.73425" lon="3.34714">
        <ele>64.33</ele>
        <time>2021-06-20T06:56:51.000Z</time>
      </trkpt>
      <trkpt lat="50.73429" lon="3.34721">
        <ele>64.16</ele>
        <time>2021-06-20T06:56:52.000Z</time>
      </trkpt>
      <trkpt lat="50.73433" lon="3.34728">
        <ele>63.99</ele>
        <time>2021-06-20T06:56:53.000Z</time>
      </trkpt>
      <trkpt lat="50.73437" lon="3.34735">
        <ele>63.58</ele>
        <time>2021-06-20T06:56:54.000Z</time>
      </trkpt>
      <trkpt lat="50.73441" lon="3.34743">
        <ele>63.71</ele>
        <time>2021-06-20T06:56:55.000Z</time>
      </trkpt>
      <trkpt lat="50.73445" lon="3.34752">
        <ele>63.45</ele>
        <time>2021-06-20T06:56:56.000Z</time>
      </trkpt>
      <trkpt lat="50.7345" lon="3.3476">
        <ele>63.48</ele>
        <time>2021-06-20T06:56:57.000Z</time>
      </trkpt>
      <trkpt lat="50.73454" lon="3.34768">
        <ele>63.67</ele>
        <time>2021-06-20T06:56:58.000Z</time>
      </trkpt>
      <trkpt lat="50.73458" lon="3.34777">
        <ele>63.75</ele>
        <time>2021-06-20T06:56:59.000Z</time>
      </trkpt>
      <trkpt lat="50.73462" lon="3.34786">
        <ele>63.68</ele>
        <time>2021-06-20T06:57:00.000Z</time>
      </trkpt>
      <trkpt lat="50.73467" lon="3.34795">
        <ele>63.43</ele>
        <time>2021-06-20T06:57:01.000Z</time>
      </trkpt>
      <trkpt lat="50.73471" lon="3.34804">
        <ele>63.36</ele>
        <time>2021-06-20T06:57:02.000Z</time>
      </trkpt>
      <trkpt lat="50.73475" lon="3.34813">
        <ele>63.38</ele>
        <time>2021-06-20T06:57:03.000Z</time>
      </trkpt>
      <trkpt lat="50.7348" lon="3.34822">
        <ele>63.43</ele>
        <time>2021-06-20T06:57:04.000Z</time>
      </trkpt>
      <trkpt lat="50.73484" lon="3.34831">
        <ele>63.52</ele>
        <time>2021-06-20T06:57:05.000Z</time>
      </trkpt>
      <trkpt lat="50.73488" lon="3.3484">
        <ele>63.65</ele>
        <time>2021-06-20T06:57:06.000Z</time>
      </trkpt>
      <trkpt lat="50.73493" lon="3.34848">
        <ele>63.77</ele>
        <time>2021-06-20T06:57:07.000Z</time>
      </trkpt>
      <trkpt lat="50.73497" lon="3.34857">
        <ele>63.68</ele>
        <time>2021-06-20T06:57:08.000Z</time>
      </trkpt>
      <trkpt lat="50.73501" lon="3.34866">
        <ele>63.7</ele>
        <time>2021-06-20T06:57:09.000Z</time>
      </trkpt>
      <trkpt lat="50.73506" lon="3.34876">
        <ele>63.69</ele>
        <time>2021-06-20T06:57:10.000Z</time>
      </trkpt>
      <trkpt lat="50.73511" lon="3.34885">
        <ele>63.9</ele>
        <time>2021-06-20T06:57:11.000Z</time>
      </trkpt>
      <trkpt lat="50.73515" lon="3.34895">
        <ele>64</ele>
        <time>2021-06-20T06:57:12.000Z</time>
      </trkpt>
      <trkpt lat="50.7352" lon="3.34904">
        <ele>64.13</ele>
        <time>2021-06-20T06:57:13.000Z</time>
      </trkpt>
      <trkpt lat="50.73524" lon="3.34913">
        <ele>64.1</ele>
        <time>2021-06-20T06:57:14.000Z</time>
      </trkpt>
      <trkpt lat="50.73529" lon="3.34923">
        <ele>64.27</ele>
        <time>2021-06-20T06:57:15.000Z</time>
      </trkpt>
      <trkpt lat="50.73533" lon="3.34932">
        <ele>64.35</ele>
        <time>2021-06-20T06:57:16.000Z</time>
      </trkpt>
      <trkpt lat="50.73537" lon="3.34942">
        <ele>64.1</ele>
        <time>2021-06-20T06:57:17.000Z</time>
      </trkpt>
      <trkpt lat="50.73542" lon="3.34952">
        <ele>64.28</ele>
        <time>2021-06-20T06:57:18.000Z</time>
      </trkpt>
      <trkpt lat="50.73546" lon="3.34961">
        <ele>64.6</ele>
        <time>2021-06-20T06:57:19.000Z</time>
      </trkpt>
      <trkpt lat="50.73551" lon="3.34971">
        <ele>64.58</ele>
        <time>2021-06-20T06:57:20.000Z</time>
      </trkpt>
      <trkpt lat="50.73555" lon="3.3498">
        <ele>64.69</ele>
        <time>2021-06-20T06:57:21.000Z</time>
      </trkpt>
      <trkpt lat="50.7356" lon="3.3499">
        <ele>64.77</ele>
        <time>2021-06-20T06:57:22.000Z</time>
      </trkpt>
      <trkpt lat="50.73564" lon="3.34999">
        <ele>64.98</ele>
        <time>2021-06-20T06:57:23.000Z</time>
      </trkpt>
      <trkpt lat="50.73569" lon="3.35009">
        <ele>64.83</ele>
        <time>2021-06-20T06:57:24.000Z</time>
      </trkpt>
      <trkpt lat="50.73574" lon="3.35018">
        <ele>64.83</ele>
        <time>2021-06-20T06:57:25.000Z</time>
      </trkpt>
      <trkpt lat="50.73579" lon="3.35028">
        <ele>64.84</ele>
        <time>2021-06-20T06:57:26.000Z</time>
      </trkpt>
      <trkpt lat="50.73583" lon="3.35037">
        <ele>65.07</ele>
        <time>2021-06-20T06:57:27.000Z</time>
      </trkpt>
      <trkpt lat="50.73588" lon="3.35047">
        <ele>65.14</ele>
        <time>2021-06-20T06:57:28.000Z</time>
      </trkpt>
      <trkpt lat="50.73593" lon="3.35057">
        <ele>65.14</ele>
        <time>2021-06-20T06:57:29.000Z</time>
      </trkpt>
      <trkpt lat="50.73597" lon="3.35067">
        <ele>65.08</ele>
        <time>2021-06-20T06:57:30.000Z</time>
      </trkpt>
      <trkpt lat="50.73602" lon="3.35077">
        <ele>65.01</ele>
        <time>2021-06-20T06:57:31.000Z</time>
      </trkpt>
      <trkpt lat="50.73607" lon="3.35086">
        <ele>64.53</ele>
        <time>2021-06-20T06:57:32.000Z</time>
      </trkpt>
      <trkpt lat="50.73612" lon="3.35095">
        <ele>64.17</ele>
        <time>2021-06-20T06:57:33.000Z</time>
      </trkpt>
      <trkpt lat="50.73617" lon="3.35105">
        <ele>63.5</ele>
        <time>2021-06-20T06:57:34.000Z</time>
      </trkpt>
      <trkpt lat="50.73622" lon="3.35115">
        <ele>63.02</ele>
        <time>2021-06-20T06:57:35.000Z</time>
      </trkpt>
      <trkpt lat="50.73627" lon="3.35125">
        <ele>62.68</ele>
        <time>2021-06-20T06:57:36.000Z</time>
      </trkpt>
      <trkpt lat="50.73632" lon="3.35135">
        <ele>62.44</ele>
        <time>2021-06-20T06:57:37.000Z</time>
      </trkpt>
      <trkpt lat="50.73637" lon="3.35146">
        <ele>62.31</ele>
        <time>2021-06-20T06:57:38.000Z</time>
      </trkpt>
      <trkpt lat="50.73642" lon="3.35156">
        <ele>62.27</ele>
        <time>2021-06-20T06:57:39.000Z</time>
      </trkpt>
      <trkpt lat="50.73647" lon="3.35167">
        <ele>62.22</ele>
        <time>2021-06-20T06:57:40.000Z</time>
      </trkpt>
      <trkpt lat="50.73652" lon="3.35177">
        <ele>61.93</ele>
        <time>2021-06-20T06:57:41.000Z</time>
      </trkpt>
      <trkpt lat="50.73657" lon="3.35188">
        <ele>61.9</ele>
        <time>2021-06-20T06:57:42.000Z</time>
      </trkpt>
      <trkpt lat="50.73662" lon="3.35198">
        <ele>61.94</ele>
        <time>2021-06-20T06:57:43.000Z</time>
      </trkpt>
      <trkpt lat="50.73667" lon="3.35208">
        <ele>61.89</ele>
        <time>2021-06-20T06:57:44.000Z</time>
      </trkpt>
      <trkpt lat="50.73672" lon="3.35218">
        <ele>61.77</ele>
        <time>2021-06-20T06:57:45.000Z</time>
      </trkpt>
      <trkpt lat="50.73677" lon="3.35228">
        <ele>61.84</ele>
        <time>2021-06-20T06:57:46.000Z</time>
      </trkpt>
      <trkpt lat="50.73681" lon="3.35237">
        <ele>61.9</ele>
        <time>2021-06-20T06:57:47.000Z</time>
      </trkpt>
      <trkpt lat="50.73686" lon="3.35246">
        <ele>62.02</ele>
        <time>2021-06-20T06:57:48.000Z</time>
      </trkpt>
      <trkpt lat="50.7369" lon="3.35255">
        <ele>61.87</ele>
        <time>2021-06-20T06:57:49.000Z</time>
      </trkpt>
      <trkpt lat="50.73694" lon="3.35264">
        <ele>62.44</ele>
        <time>2021-06-20T06:57:50.000Z</time>
      </trkpt>
      <trkpt lat="50.73698" lon="3.35272">
        <ele>62.25</ele>
        <time>2021-06-20T06:57:51.000Z</time>
      </trkpt>
      <trkpt lat="50.73702" lon="3.3528">
        <ele>62.3</ele>
        <time>2021-06-20T06:57:52.000Z</time>
      </trkpt>
      <trkpt lat="50.73706" lon="3.35287">
        <ele>62.04</ele>
        <time>2021-06-20T06:57:53.000Z</time>
      </trkpt>
      <trkpt lat="50.73708" lon="3.35295">
        <ele>62.29</ele>
        <time>2021-06-20T06:57:54.000Z</time>
      </trkpt>
      <trkpt lat="50.73709" lon="3.35303">
        <ele>62.31</ele>
        <time>2021-06-20T06:57:55.000Z</time>
      </trkpt>
      <trkpt lat="50.73708" lon="3.3531">
        <ele>62.4</ele>
        <time>2021-06-20T06:57:56.000Z</time>
      </trkpt>
      <trkpt lat="50.73705" lon="3.35316">
        <ele>62.63</ele>
        <time>2021-06-20T06:57:57.000Z</time>
      </trkpt>
      <trkpt lat="50.73701" lon="3.35322">
        <ele>62.87</ele>
        <time>2021-06-20T06:57:58.000Z</time>
      </trkpt>
      <trkpt lat="50.73697" lon="3.35328">
        <ele>62.87</ele>
        <time>2021-06-20T06:57:59.000Z</time>
      </trkpt>
      <trkpt lat="50.73693" lon="3.35334">
        <ele>62.41</ele>
        <time>2021-06-20T06:58:00.000Z</time>
      </trkpt>
      <trkpt lat="50.73688" lon="3.3534">
        <ele>61.94</ele>
        <time>2021-06-20T06:58:01.000Z</time>
      </trkpt>
      <trkpt lat="50.73683" lon="3.35345">
        <ele>61.51</ele>
        <time>2021-06-20T06:58:02.000Z</time>
      </trkpt>
      <trkpt lat="50.73678" lon="3.35352">
        <ele>61.39</ele>
        <time>2021-06-20T06:58:03.000Z</time>
      </trkpt>
      <trkpt lat="50.73673" lon="3.35359">
        <ele>61.22</ele>
        <time>2021-06-20T06:58:04.000Z</time>
      </trkpt>
      <trkpt lat="50.73668" lon="3.35365">
        <ele>61.79</ele>
        <time>2021-06-20T06:58:05.000Z</time>
      </trkpt>
      <trkpt lat="50.73662" lon="3.35373">
        <ele>61.83</ele>
        <time>2021-06-20T06:58:06.000Z</time>
      </trkpt>
      <trkpt lat="50.73656" lon="3.3538">
        <ele>62.04</ele>
        <time>2021-06-20T06:58:07.000Z</time>
      </trkpt>
      <trkpt lat="50.7365" lon="3.35387">
        <ele>61.98</ele>
        <time>2021-06-20T06:58:08.000Z</time>
      </trkpt>
      <trkpt lat="50.73645" lon="3.35393">
        <ele>61.98</ele>
        <time>2021-06-20T06:58:09.000Z</time>
      </trkpt>
      <trkpt lat="50.73639" lon="3.354">
        <ele>61.88</ele>
        <time>2021-06-20T06:58:10.000Z</time>
      </trkpt>
      <trkpt lat="50.73633" lon="3.35406">
        <ele>61.8</ele>
        <time>2021-06-20T06:58:11.000Z</time>
      </trkpt>
      <trkpt lat="50.73627" lon="3.35412">
        <ele>61.48</ele>
        <time>2021-06-20T06:58:12.000Z</time>
      </trkpt>
      <trkpt lat="50.7362" lon="3.35417">
        <ele>61.46</ele>
        <time>2021-06-20T06:58:13.000Z</time>
      </trkpt>
      <trkpt lat="50.73613" lon="3.35423">
        <ele>61.51</ele>
        <time>2021-06-20T06:58:14.000Z</time>
      </trkpt>
      <trkpt lat="50.73606" lon="3.35427">
        <ele>61.51</ele>
        <time>2021-06-20T06:58:15.000Z</time>
      </trkpt>
      <trkpt lat="50.73599" lon="3.35432">
        <ele>61.71</ele>
        <time>2021-06-20T06:58:16.000Z</time>
      </trkpt>
      <trkpt lat="50.73592" lon="3.35437">
        <ele>62.2</ele>
        <time>2021-06-20T06:58:17.000Z</time>
      </trkpt>
      <trkpt lat="50.73585" lon="3.35441">
        <ele>62.17</ele>
        <time>2021-06-20T06:58:18.000Z</time>
      </trkpt>
      <trkpt lat="50.73578" lon="3.35444">
        <ele>61.96</ele>
        <time>2021-06-20T06:58:19.000Z</time>
      </trkpt>
      <trkpt lat="50.73571" lon="3.35447">
        <ele>61.65</ele>
        <time>2021-06-20T06:58:20.000Z</time>
      </trkpt>
      <trkpt lat="50.73563" lon="3.3545">
        <ele>61.71</ele>
        <time>2021-06-20T06:58:21.000Z</time>
      </trkpt>
      <trkpt lat="50.73555" lon="3.3545">
        <ele>61.68</ele>
        <time>2021-06-20T06:58:22.000Z</time>
      </trkpt>
      <trkpt lat="50.73547" lon="3.35449">
        <ele>61.4</ele>
        <time>2021-06-20T06:58:23.000Z</time>
      </trkpt>
      <trkpt lat="50.73539" lon="3.35447">
        <ele>61.61</ele>
        <time>2021-06-20T06:58:24.000Z</time>
      </trkpt>
      <trkpt lat="50.73532" lon="3.35445">
        <ele>61.28</ele>
        <time>2021-06-20T06:58:25.000Z</time>
      </trkpt>
      <trkpt lat="50.73524" lon="3.35443">
        <ele>61.3</ele>
        <time>2021-06-20T06:58:26.000Z</time>
      </trkpt>
      <trkpt lat="50.73516" lon="3.35442">
        <ele>61.15</ele>
        <time>2021-06-20T06:58:27.000Z</time>
      </trkpt>
      <trkpt lat="50.73508" lon="3.35443">
        <ele>61</ele>
        <time>2021-06-20T06:58:28.000Z</time>
      </trkpt>
      <trkpt lat="50.73501" lon="3.35446">
        <ele>61.1</ele>
        <time>2021-06-20T06:58:29.000Z</time>
      </trkpt>
      <trkpt lat="50.73494" lon="3.35451">
        <ele>61.25</ele>
        <time>2021-06-20T06:58:30.000Z</time>
      </trkpt>
      <trkpt lat="50.73487" lon="3.35459">
        <ele>61.61</ele>
        <time>2021-06-20T06:58:31.000Z</time>
      </trkpt>
      <trkpt lat="50.73481" lon="3.35468">
        <ele>61.79</ele>
        <time>2021-06-20T06:58:32.000Z</time>
      </trkpt>
      <trkpt lat="50.73476" lon="3.35476">
        <ele>61.84</ele>
        <time>2021-06-20T06:58:33.000Z</time>
      </trkpt>
      <trkpt lat="50.73471" lon="3.35485">
        <ele>62.08</ele>
        <time>2021-06-20T06:58:34.000Z</time>
      </trkpt>
      <trkpt lat="50.73465" lon="3.35494">
        <ele>62.3</ele>
        <time>2021-06-20T06:58:35.000Z</time>
      </trkpt>
      <trkpt lat="50.7346" lon="3.35503">
        <ele>62.28</ele>
        <time>2021-06-20T06:58:36.000Z</time>
      </trkpt>
      <trkpt lat="50.73454" lon="3.35513">
        <ele>62.46</ele>
        <time>2021-06-20T06:58:37.000Z</time>
      </trkpt>
      <trkpt lat="50.73449" lon="3.35522">
        <ele>62.29</ele>
        <time>2021-06-20T06:58:38.000Z</time>
      </trkpt>
      <trkpt lat="50.73443" lon="3.35531">
        <ele>62.32</ele>
        <time>2021-06-20T06:58:39.000Z</time>
      </trkpt>
      <trkpt lat="50.73437" lon="3.3554">
        <ele>62.54</ele>
        <time>2021-06-20T06:58:40.000Z</time>
      </trkpt>
      <trkpt lat="50.73432" lon="3.35549">
        <ele>62.36</ele>
        <time>2021-06-20T06:58:41.000Z</time>
      </trkpt>
      <trkpt lat="50.73426" lon="3.35558">
        <ele>62.29</ele>
        <time>2021-06-20T06:58:42.000Z</time>
      </trkpt>
      <trkpt lat="50.73421" lon="3.35568">
        <ele>62.29</ele>
        <time>2021-06-20T06:58:43.000Z</time>
      </trkpt>
      <trkpt lat="50.73415" lon="3.35577">
        <ele>62.62</ele>
        <time>2021-06-20T06:58:44.000Z</time>
      </trkpt>
      <trkpt lat="50.73409" lon="3.35586">
        <ele>62.43</ele>
        <time>2021-06-20T06:58:45.000Z</time>
      </trkpt>
      <trkpt lat="50.73403" lon="3.35595">
        <ele>62.55</ele>
        <time>2021-06-20T06:58:46.000Z</time>
      </trkpt>
      <trkpt lat="50.73398" lon="3.35604">
        <ele>62.49</ele>
        <time>2021-06-20T06:58:47.000Z</time>
      </trkpt>
      <trkpt lat="50.73392" lon="3.35612">
        <ele>62.52</ele>
        <time>2021-06-20T06:58:48.000Z</time>
      </trkpt>
      <trkpt lat="50.73386" lon="3.35621">
        <ele>62.47</ele>
        <time>2021-06-20T06:58:49.000Z</time>
      </trkpt>
      <trkpt lat="50.73379" lon="3.3563">
        <ele>62.59</ele>
        <time>2021-06-20T06:58:50.000Z</time>
      </trkpt>
      <trkpt lat="50.73374" lon="3.35639">
        <ele>62.86</ele>
        <time>2021-06-20T06:58:51.000Z</time>
      </trkpt>
      <trkpt lat="50.73367" lon="3.35647">
        <ele>63.21</ele>
        <time>2021-06-20T06:58:52.000Z</time>
      </trkpt>
      <trkpt lat="50.73361" lon="3.35656">
        <ele>63.32</ele>
        <time>2021-06-20T06:58:53.000Z</time>
      </trkpt>
      <trkpt lat="50.73355" lon="3.35665">
        <ele>63.33</ele>
        <time>2021-06-20T06:58:54.000Z</time>
      </trkpt>
      <trkpt lat="50.73349" lon="3.35673">
        <ele>63.39</ele>
        <time>2021-06-20T06:58:55.000Z</time>
      </trkpt>
      <trkpt lat="50.73343" lon="3.35681">
        <ele>63.69</ele>
        <time>2021-06-20T06:58:56.000Z</time>
      </trkpt>
      <trkpt lat="50.73337" lon="3.3569">
        <ele>63.75</ele>
        <time>2021-06-20T06:58:57.000Z</time>
      </trkpt>
      <trkpt lat="50.73331" lon="3.35698">
        <ele>63.58</ele>
        <time>2021-06-20T06:58:58.000Z</time>
      </trkpt>
      <trkpt lat="50.73325" lon="3.35707">
        <ele>63.62</ele>
        <time>2021-06-20T06:58:59.000Z</time>
      </trkpt>
      <trkpt lat="50.73319" lon="3.35715">
        <ele>63.63</ele>
        <time>2021-06-20T06:59:00.000Z</time>
      </trkpt>
      <trkpt lat="50.73314" lon="3.35724">
        <ele>63.49</ele>
        <time>2021-06-20T06:59:01.000Z</time>
      </trkpt>
      <trkpt lat="50.73307" lon="3.35732">
        <ele>63.5</ele>
        <time>2021-06-20T06:59:02.000Z</time>
      </trkpt>
      <trkpt lat="50.73301" lon="3.3574">
        <ele>63.53</ele>
        <time>2021-06-20T06:59:03.000Z</time>
      </trkpt>
      <trkpt lat="50.73295" lon="3.35748">
        <ele>63.46</ele>
        <time>2021-06-20T06:59:04.000Z</time>
      </trkpt>
      <trkpt lat="50.73289" lon="3.35756">
        <ele>63.31</ele>
        <time>2021-06-20T06:59:05.000Z</time>
      </trkpt>
      <trkpt lat="50.73283" lon="3.35765">
        <ele>63.45</ele>
        <time>2021-06-20T06:59:06.000Z</time>
      </trkpt>
      <trkpt lat="50.73277" lon="3.35773">
        <ele>63.6</ele>
        <time>2021-06-20T06:59:07.000Z</time>
      </trkpt>
      <trkpt lat="50.73272" lon="3.35781">
        <ele>63.72</ele>
        <time>2021-06-20T06:59:08.000Z</time>
      </trkpt>
      <trkpt lat="50.73265" lon="3.35789">
        <ele>63.49</ele>
        <time>2021-06-20T06:59:09.000Z</time>
      </trkpt>
      <trkpt lat="50.73259" lon="3.35797">
        <ele>63.43</ele>
        <time>2021-06-20T06:59:10.000Z</time>
      </trkpt>
      <trkpt lat="50.73253" lon="3.35806">
        <ele>63.58</ele>
        <time>2021-06-20T06:59:11.000Z</time>
      </trkpt>
      <trkpt lat="50.73248" lon="3.35815">
        <ele>63.58</ele>
        <time>2021-06-20T06:59:12.000Z</time>
      </trkpt>
      <trkpt lat="50.73242" lon="3.35823">
        <ele>63.48</ele>
        <time>2021-06-20T06:59:13.000Z</time>
      </trkpt>
      <trkpt lat="50.73237" lon="3.35831">
        <ele>63.19</ele>
        <time>2021-06-20T06:59:14.000Z</time>
      </trkpt>
      <trkpt lat="50.73231" lon="3.3584">
        <ele>63.25</ele>
        <time>2021-06-20T06:59:15.000Z</time>
      </trkpt>
      <trkpt lat="50.73226" lon="3.35849">
        <ele>63.33</ele>
        <time>2021-06-20T06:59:16.000Z</time>
      </trkpt>
      <trkpt lat="50.73221" lon="3.35857">
        <ele>63.11</ele>
        <time>2021-06-20T06:59:17.000Z</time>
      </trkpt>
      <trkpt lat="50.73216" lon="3.35865">
        <ele>63.05</ele>
        <time>2021-06-20T06:59:18.000Z</time>
      </trkpt>
      <trkpt lat="50.73212" lon="3.35874">
        <ele>63.07</ele>
        <time>2021-06-20T06:59:19.000Z</time>
      </trkpt>
      <trkpt lat="50.73207" lon="3.35881">
        <ele>62.92</ele>
        <time>2021-06-20T06:59:20.000Z</time>
      </trkpt>
      <trkpt lat="50.73202" lon="3.35889">
        <ele>62.79</ele>
        <time>2021-06-20T06:59:21.000Z</time>
      </trkpt>
      <trkpt lat="50.73197" lon="3.35896">
        <ele>62.84</ele>
        <time>2021-06-20T06:59:22.000Z</time>
      </trkpt>
      <trkpt lat="50.73193" lon="3.35903">
        <ele>62.85</ele>
        <time>2021-06-20T06:59:23.000Z</time>
      </trkpt>
      <trkpt lat="50.73188" lon="3.35911">
        <ele>62.95</ele>
        <time>2021-06-20T06:59:24.000Z</time>
      </trkpt>
      <trkpt lat="50.73184" lon="3.35918">
        <ele>62.79</ele>
        <time>2021-06-20T06:59:25.000Z</time>
      </trkpt>
      <trkpt lat="50.7318" lon="3.35924">
        <ele>62.79</ele>
        <time>2021-06-20T06:59:26.000Z</time>
      </trkpt>
      <trkpt lat="50.73176" lon="3.35929">
        <ele>62.36</ele>
        <time>2021-06-20T06:59:27.000Z</time>
      </trkpt>
      <trkpt lat="50.73172" lon="3.35935">
        <ele>62.23</ele>
        <time>2021-06-20T06:59:28.000Z</time>
      </trkpt>
      <trkpt lat="50.73168" lon="3.35942">
        <ele>62.26</ele>
        <time>2021-06-20T06:59:29.000Z</time>
      </trkpt>
      <trkpt lat="50.73166" lon="3.35951">
        <ele>62.33</ele>
        <time>2021-06-20T06:59:30.000Z</time>
      </trkpt>
      <trkpt lat="50.73167" lon="3.3596">
        <ele>62.52</ele>
        <time>2021-06-20T06:59:31.000Z</time>
      </trkpt>
      <trkpt lat="50.73169" lon="3.35969">
        <ele>62.97</ele>
        <time>2021-06-20T06:59:32.000Z</time>
      </trkpt>
      <trkpt lat="50.73173" lon="3.35977">
        <ele>62.6</ele>
        <time>2021-06-20T06:59:33.000Z</time>
      </trkpt>
      <trkpt lat="50.73176" lon="3.35986">
        <ele>62.48</ele>
        <time>2021-06-20T06:59:34.000Z</time>
      </trkpt>
      <trkpt lat="50.73178" lon="3.35995">
        <ele>62.7</ele>
        <time>2021-06-20T06:59:35.000Z</time>
      </trkpt>
      <trkpt lat="50.7318" lon="3.36005">
        <ele>62.64</ele>
        <time>2021-06-20T06:59:36.000Z</time>
      </trkpt>
      <trkpt lat="50.73181" lon="3.36015">
        <ele>62.87</ele>
        <time>2021-06-20T06:59:37.000Z</time>
      </trkpt>
      <trkpt lat="50.73182" lon="3.36025">
        <ele>63.02</ele>
        <time>2021-06-20T06:59:38.000Z</time>
      </trkpt>
      <trkpt lat="50.73183" lon="3.36035">
        <ele>62.87</ele>
        <time>2021-06-20T06:59:39.000Z</time>
      </trkpt>
      <trkpt lat="50.73185" lon="3.36046">
        <ele>63.06</ele>
        <time>2021-06-20T06:59:40.000Z</time>
      </trkpt>
      <trkpt lat="50.73186" lon="3.36056">
        <ele>63.13</ele>
        <time>2021-06-20T06:59:41.000Z</time>
      </trkpt>
      <trkpt lat="50.73188" lon="3.36067">
        <ele>63.26</ele>
        <time>2021-06-20T06:59:42.000Z</time>
      </trkpt>
      <trkpt lat="50.7319" lon="3.36078">
        <ele>63.2</ele>
        <time>2021-06-20T06:59:43.000Z</time>
      </trkpt>
      <trkpt lat="50.73193" lon="3.36088">
        <ele>63.31</ele>
        <time>2021-06-20T06:59:44.000Z</time>
      </trkpt>
      <trkpt lat="50.73197" lon="3.36099">
        <ele>62.96</ele>
        <time>2021-06-20T06:59:45.000Z</time>
      </trkpt>
      <trkpt lat="50.732" lon="3.36109">
        <ele>63.09</ele>
        <time>2021-06-20T06:59:46.000Z</time>
      </trkpt>
      <trkpt lat="50.73205" lon="3.36119">
        <ele>63.08</ele>
        <time>2021-06-20T06:59:47.000Z</time>
      </trkpt>
      <trkpt lat="50.73209" lon="3.36127">
        <ele>62.65</ele>
        <time>2021-06-20T06:59:48.000Z</time>
      </trkpt>
      <trkpt lat="50.73214" lon="3.36135">
        <ele>62.35</ele>
        <time>2021-06-20T06:59:49.000Z</time>
      </trkpt>
      <trkpt lat="50.73219" lon="3.36142">
        <ele>62.5</ele>
        <time>2021-06-20T06:59:50.000Z</time>
      </trkpt>
      <trkpt lat="50.73225" lon="3.3615">
        <ele>62.02</ele>
        <time>2021-06-20T06:59:51.000Z</time>
      </trkpt>
      <trkpt lat="50.7323" lon="3.36158">
        <ele>61.46</ele>
        <time>2021-06-20T06:59:52.000Z</time>
      </trkpt>
      <trkpt lat="50.73235" lon="3.36165">
        <ele>61.34</ele>
        <time>2021-06-20T06:59:53.000Z</time>
      </trkpt>
      <trkpt lat="50.73241" lon="3.36172">
        <ele>61.42</ele>
        <time>2021-06-20T06:59:54.000Z</time>
      </trkpt>
      <trkpt lat="50.73247" lon="3.3618">
        <ele>61.17</ele>
        <time>2021-06-20T06:59:55.000Z</time>
      </trkpt>
      <trkpt lat="50.73252" lon="3.36187">
        <ele>60.96</ele>
        <time>2021-06-20T06:59:56.000Z</time>
      </trkpt>
      <trkpt lat="50.73258" lon="3.36195">
        <ele>60.86</ele>
        <time>2021-06-20T06:59:57.000Z</time>
      </trkpt>
      <trkpt lat="50.73264" lon="3.36203">
        <ele>61.09</ele>
        <time>2021-06-20T06:59:58.000Z</time>
      </trkpt>
      <trkpt lat="50.7327" lon="3.36211">
        <ele>61.62</ele>
        <time>2021-06-20T06:59:59.000Z</time>
      </trkpt>
      <trkpt lat="50.73275" lon="3.36219">
        <ele>61.52</ele>
        <time>2021-06-20T07:00:00.000Z</time>
      </trkpt>
      <trkpt lat="50.73281" lon="3.36226">
        <ele>61.18</ele>
        <time>2021-06-20T07:00:01.000Z</time>
      </trkpt>
      <trkpt lat="50.73287" lon="3.36234">
        <ele>60.93</ele>
        <time>2021-06-20T07:00:02.000Z</time>
      </trkpt>
      <trkpt lat="50.73293" lon="3.36241">
        <ele>60.75</ele>
        <time>2021-06-20T07:00:03.000Z</time>
      </trkpt>
      <trkpt lat="50.73298" lon="3.3625">
        <ele>60.52</ele>
        <time>2021-06-20T07:00:04.000Z</time>
      </trkpt>
      <trkpt lat="50.73303" lon="3.36259">
        <ele>60.19</ele>
        <time>2021-06-20T07:00:05.000Z</time>
      </trkpt>
      <trkpt lat="50.73308" lon="3.36268">
        <ele>59.75</ele>
        <time>2021-06-20T07:00:06.000Z</time>
      </trkpt>
      <trkpt lat="50.73313" lon="3.36278">
        <ele>59.8</ele>
        <time>2021-06-20T07:00:07.000Z</time>
      </trkpt>
      <trkpt lat="50.73318" lon="3.36286">
        <ele>59.75</ele>
        <time>2021-06-20T07:00:08.000Z</time>
      </trkpt>
      <trkpt lat="50.73324" lon="3.36294">
        <ele>59.83</ele>
        <time>2021-06-20T07:00:09.000Z</time>
      </trkpt>
      <trkpt lat="50.7333" lon="3.36302">
        <ele>59.9</ele>
        <time>2021-06-20T07:00:10.000Z</time>
      </trkpt>
      <trkpt lat="50.73336" lon="3.36309">
        <ele>60.39</ele>
        <time>2021-06-20T07:00:11.000Z</time>
      </trkpt>
      <trkpt lat="50.73343" lon="3.36316">
        <ele>60.3</ele>
        <time>2021-06-20T07:00:12.000Z</time>
      </trkpt>
      <trkpt lat="50.73349" lon="3.36323">
        <ele>60.75</ele>
        <time>2021-06-20T07:00:13.000Z</time>
      </trkpt>
      <trkpt lat="50.73356" lon="3.36329">
        <ele>60.88</ele>
        <time>2021-06-20T07:00:14.000Z</time>
      </trkpt>
      <trkpt lat="50.73363" lon="3.36335">
        <ele>61.14</ele>
        <time>2021-06-20T07:00:15.000Z</time>
      </trkpt>
      <trkpt lat="50.73369" lon="3.36342">
        <ele>61.23</ele>
        <time>2021-06-20T07:00:16.000Z</time>
      </trkpt>
      <trkpt lat="50.73376" lon="3.36348">
        <ele>61.42</ele>
        <time>2021-06-20T07:00:17.000Z</time>
      </trkpt>
      <trkpt lat="50.73383" lon="3.36355">
        <ele>61.7</ele>
        <time>2021-06-20T07:00:18.000Z</time>
      </trkpt>
      <trkpt lat="50.73389" lon="3.36361">
        <ele>61.64</ele>
        <time>2021-06-20T07:00:19.000Z</time>
      </trkpt>
      <trkpt lat="50.73395" lon="3.36367">
        <ele>61.77</ele>
        <time>2021-06-20T07:00:20.000Z</time>
      </trkpt>
      <trkpt lat="50.73401" lon="3.36374">
        <ele>61.79</ele>
        <time>2021-06-20T07:00:21.000Z</time>
      </trkpt>
      <trkpt lat="50.73408" lon="3.3638">
        <ele>61.48</ele>
        <time>2021-06-20T07:00:22.000Z</time>
      </trkpt>
      <trkpt lat="50.73414" lon="3.36387">
        <ele>61.57</ele>
        <time>2021-06-20T07:00:23.000Z</time>
      </trkpt>
      <trkpt lat="50.7342" lon="3.36394">
        <ele>61.59</ele>
        <time>2021-06-20T07:00:24.000Z</time>
      </trkpt>
      <trkpt lat="50.73426" lon="3.36402">
        <ele>61.49</ele>
        <time>2021-06-20T07:00:25.000Z</time>
      </trkpt>
      <trkpt lat="50.7343" lon="3.36411">
        <ele>61.75</ele>
        <time>2021-06-20T07:00:26.000Z</time>
      </trkpt>
      <trkpt lat="50.73435" lon="3.36421">
        <ele>61.74</ele>
        <time>2021-06-20T07:00:27.000Z</time>
      </trkpt>
      <trkpt lat="50.73439" lon="3.3643">
        <ele>61.91</ele>
        <time>2021-06-20T07:00:28.000Z</time>
      </trkpt>
      <trkpt lat="50.73442" lon="3.3644">
        <ele>62.19</ele>
        <time>2021-06-20T07:00:29.000Z</time>
      </trkpt>
      <trkpt lat="50.73446" lon="3.36449">
        <ele>62.12</ele>
        <time>2021-06-20T07:00:30.000Z</time>
      </trkpt>
      <trkpt lat="50.7345" lon="3.36458">
        <ele>62.13</ele>
        <time>2021-06-20T07:00:31.000Z</time>
      </trkpt>
      <trkpt lat="50.73453" lon="3.36467">
        <ele>62.05</ele>
        <time>2021-06-20T07:00:32.000Z</time>
      </trkpt>
      <trkpt lat="50.73456" lon="3.36475">
        <ele>61.53</ele>
        <time>2021-06-20T07:00:33.000Z</time>
      </trkpt>
      <trkpt lat="50.73457" lon="3.36484">
        <ele>61.61</ele>
        <time>2021-06-20T07:00:34.000Z</time>
      </trkpt>
      <trkpt lat="50.73455" lon="3.36494">
        <ele>61.48</ele>
        <time>2021-06-20T07:00:35.000Z</time>
      </trkpt>
      <trkpt lat="50.73451" lon="3.36502">
        <ele>61.8</ele>
        <time>2021-06-20T07:00:36.000Z</time>
      </trkpt>
      <trkpt lat="50.73446" lon="3.36508">
        <ele>61.68</ele>
        <time>2021-06-20T07:00:37.000Z</time>
      </trkpt>
      <trkpt lat="50.7344" lon="3.36514">
        <ele>61.53</ele>
        <time>2021-06-20T07:00:38.000Z</time>
      </trkpt>
      <trkpt lat="50.73435" lon="3.3652">
        <ele>61.43</ele>
        <time>2021-06-20T07:00:39.000Z</time>
      </trkpt>
      <trkpt lat="50.73429" lon="3.36528">
        <ele>61.49</ele>
        <time>2021-06-20T07:00:40.000Z</time>
      </trkpt>
      <trkpt lat="50.73423" lon="3.36534">
        <ele>61.55</ele>
        <time>2021-06-20T07:00:41.000Z</time>
      </trkpt>
      <trkpt lat="50.73418" lon="3.36541">
        <ele>61.18</ele>
        <time>2021-06-20T07:00:42.000Z</time>
      </trkpt>
      <trkpt lat="50.73413" lon="3.36549">
        <ele>61.26</ele>
        <time>2021-06-20T07:00:43.000Z</time>
      </trkpt>
      <trkpt lat="50.73408" lon="3.36558">
        <ele>61.25</ele>
        <time>2021-06-20T07:00:44.000Z</time>
      </trkpt>
      <trkpt lat="50.73404" lon="3.36567">
        <ele>61.43</ele>
        <time>2021-06-20T07:00:45.000Z</time>
      </trkpt>
      <trkpt lat="50.73401" lon="3.36577">
        <ele>61.24</ele>
        <time>2021-06-20T07:00:46.000Z</time>
      </trkpt>
      <trkpt lat="50.73397" lon="3.36587">
        <ele>61.34</ele>
        <time>2021-06-20T07:00:47.000Z</time>
      </trkpt>
      <trkpt lat="50.73395" lon="3.36597">
        <ele>61.35</ele>
        <time>2021-06-20T07:00:48.000Z</time>
      </trkpt>
      <trkpt lat="50.73392" lon="3.36607">
        <ele>61.34</ele>
        <time>2021-06-20T07:00:49.000Z</time>
      </trkpt>
      <trkpt lat="50.73389" lon="3.36618">
        <ele>61.55</ele>
        <time>2021-06-20T07:00:50.000Z</time>
      </trkpt>
      <trkpt lat="50.73386" lon="3.36628">
        <ele>61.86</ele>
        <time>2021-06-20T07:00:51.000Z</time>
      </trkpt>
      <trkpt lat="50.73383" lon="3.36639">
        <ele>62.08</ele>
        <time>2021-06-20T07:00:52.000Z</time>
      </trkpt>
      <trkpt lat="50.73379" lon="3.36649">
        <ele>62.16</ele>
        <time>2021-06-20T07:00:53.000Z</time>
      </trkpt>
      <trkpt lat="50.73376" lon="3.3666">
        <ele>62.27</ele>
        <time>2021-06-20T07:00:54.000Z</time>
      </trkpt>
      <trkpt lat="50.73373" lon="3.36671">
        <ele>62.37</ele>
        <time>2021-06-20T07:00:55.000Z</time>
      </trkpt>
      <trkpt lat="50.73371" lon="3.36682">
        <ele>62.62</ele>
        <time>2021-06-20T07:00:56.000Z</time>
      </trkpt>
      <trkpt lat="50.73367" lon="3.36692">
        <ele>62.82</ele>
        <time>2021-06-20T07:00:57.000Z</time>
      </trkpt>
      <trkpt lat="50.73364" lon="3.36703">
        <ele>63.02</ele>
        <time>2021-06-20T07:00:58.000Z</time>
      </trkpt>
      <trkpt lat="50.73361" lon="3.36713">
        <ele>62.73</ele>
        <time>2021-06-20T07:00:59.000Z</time>
      </trkpt>
      <trkpt lat="50.73357" lon="3.36724">
        <ele>62.8</ele>
        <time>2021-06-20T07:01:00.000Z</time>
      </trkpt>
      <trkpt lat="50.73352" lon="3.36733">
        <ele>62.7</ele>
        <time>2021-06-20T07:01:01.000Z</time>
      </trkpt>
      <trkpt lat="50.73347" lon="3.36742">
        <ele>62.52</ele>
        <time>2021-06-20T07:01:02.000Z</time>
      </trkpt>
      <trkpt lat="50.73342" lon="3.3675">
        <ele>62.79</ele>
        <time>2021-06-20T07:01:03.000Z</time>
      </trkpt>
      <trkpt lat="50.73336" lon="3.36757">
        <ele>63.09</ele>
        <time>2021-06-20T07:01:04.000Z</time>
      </trkpt>
      <trkpt lat="50.7333" lon="3.36764">
        <ele>63.15</ele>
        <time>2021-06-20T07:01:05.000Z</time>
      </trkpt>
      <trkpt lat="50.73324" lon="3.36771">
        <ele>63.14</ele>
        <time>2021-06-20T07:01:06.000Z</time>
      </trkpt>
      <trkpt lat="50.73318" lon="3.36778">
        <ele>63.15</ele>
        <time>2021-06-20T07:01:07.000Z</time>
      </trkpt>
      <trkpt lat="50.73313" lon="3.36787">
        <ele>63.35</ele>
        <time>2021-06-20T07:01:08.000Z</time>
      </trkpt>
      <trkpt lat="50.73308" lon="3.36796">
        <ele>63.22</ele>
        <time>2021-06-20T07:01:09.000Z</time>
      </trkpt>
      <trkpt lat="50.73305" lon="3.36807">
        <ele>62.95</ele>
        <time>2021-06-20T07:01:10.000Z</time>
      </trkpt>
      <trkpt lat="50.73303" lon="3.3682">
        <ele>62.84</ele>
        <time>2021-06-20T07:01:11.000Z</time>
      </trkpt>
      <trkpt lat="50.73303" lon="3.36833">
        <ele>62.61</ele>
        <time>2021-06-20T07:01:12.000Z</time>
      </trkpt>
      <trkpt lat="50.73304" lon="3.36845">
        <ele>62.79</ele>
        <time>2021-06-20T07:01:13.000Z</time>
      </trkpt>
      <trkpt lat="50.73307" lon="3.36856">
        <ele>62.89</ele>
        <time>2021-06-20T07:01:14.000Z</time>
      </trkpt>
      <trkpt lat="50.73311" lon="3.36867">
        <ele>62.81</ele>
        <time>2021-06-20T07:01:15.000Z</time>
      </trkpt>
      <trkpt lat="50.73315" lon="3.36878">
        <ele>62.48</ele>
        <time>2021-06-20T07:01:16.000Z</time>
      </trkpt>
      <trkpt lat="50.73319" lon="3.36889">
        <ele>62.52</ele>
        <time>2021-06-20T07:01:17.000Z</time>
      </trkpt>
      <trkpt lat="50.73323" lon="3.36899">
        <ele>62.54</ele>
        <time>2021-06-20T07:01:18.000Z</time>
      </trkpt>
      <trkpt lat="50.73328" lon="3.3691">
        <ele>62.66</ele>
        <time>2021-06-20T07:01:19.000Z</time>
      </trkpt>
      <trkpt lat="50.73332" lon="3.3692">
        <ele>62.75</ele>
        <time>2021-06-20T07:01:20.000Z</time>
      </trkpt>
      <trkpt lat="50.73336" lon="3.36931">
        <ele>62.65</ele>
        <time>2021-06-20T07:01:21.000Z</time>
      </trkpt>
      <trkpt lat="50.7334" lon="3.36941">
        <ele>62.36</ele>
        <time>2021-06-20T07:01:22.000Z</time>
      </trkpt>
      <trkpt lat="50.73345" lon="3.36951">
        <ele>62.15</ele>
        <time>2021-06-20T07:01:23.000Z</time>
      </trkpt>
      <trkpt lat="50.73349" lon="3.36961">
        <ele>61.88</ele>
        <time>2021-06-20T07:01:24.000Z</time>
      </trkpt>
      <trkpt lat="50.73354" lon="3.36972">
        <ele>62.01</ele>
        <time>2021-06-20T07:01:25.000Z</time>
      </trkpt>
      <trkpt lat="50.73358" lon="3.36982">
        <ele>62</ele>
        <time>2021-06-20T07:01:26.000Z</time>
      </trkpt>
      <trkpt lat="50.73363" lon="3.36992">
        <ele>62.05</ele>
        <time>2021-06-20T07:01:27.000Z</time>
      </trkpt>
      <trkpt lat="50.73367" lon="3.37003">
        <ele>62.37</ele>
        <time>2021-06-20T07:01:28.000Z</time>
      </trkpt>
      <trkpt lat="50.73371" lon="3.37013">
        <ele>62.38</ele>
        <time>2021-06-20T07:01:29.000Z</time>
      </trkpt>
      <trkpt lat="50.73375" lon="3.37023">
        <ele>62.52</ele>
        <time>2021-06-20T07:01:30.000Z</time>
      </trkpt>
      <trkpt lat="50.7338" lon="3.37032">
        <ele>62.56</ele>
        <time>2021-06-20T07:01:31.000Z</time>
      </trkpt>
      <trkpt lat="50.73385" lon="3.3704">
        <ele>62.62</ele>
        <time>2021-06-20T07:01:32.000Z</time>
      </trkpt>
      <trkpt lat="50.7339" lon="3.37049">
        <ele>62.72</ele>
        <time>2021-06-20T07:01:33.000Z</time>
      </trkpt>
      <trkpt lat="50.73394" lon="3.37056">
        <ele>62.48</ele>
        <time>2021-06-20T07:01:34.000Z</time>
      </trkpt>
      <trkpt lat="50.73399" lon="3.37063">
        <ele>62.17</ele>
        <time>2021-06-20T07:01:35.000Z</time>
      </trkpt>
      <trkpt lat="50.73403" lon="3.3707">
        <ele>62.55</ele>
        <time>2021-06-20T07:01:36.000Z</time>
      </trkpt>
      <trkpt lat="50.73408" lon="3.37077">
        <ele>62.61</ele>
        <time>2021-06-20T07:01:37.000Z</time>
      </trkpt>
      <trkpt lat="50.73412" lon="3.37083">
        <ele>62.57</ele>
        <time>2021-06-20T07:01:38.000Z</time>
      </trkpt>
      <trkpt lat="50.73414" lon="3.37089">
        <ele>62.5</ele>
        <time>2021-06-20T07:01:39.000Z</time>
      </trkpt>
      <trkpt lat="50.7341" lon="3.37102">
        <ele>62.2</ele>
        <time>2021-06-20T07:01:41.000Z</time>
      </trkpt>
      <trkpt lat="50.73406" lon="3.37106">
        <ele>61.78</ele>
        <time>2021-06-20T07:01:42.000Z</time>
      </trkpt>
      <trkpt lat="50.73401" lon="3.37109">
        <ele>62.3</ele>
        <time>2021-06-20T07:01:43.000Z</time>
      </trkpt>
      <trkpt lat="50.73396" lon="3.37114">
        <ele>61.77</ele>
        <time>2021-06-20T07:01:44.000Z</time>
      </trkpt>
      <trkpt lat="50.73391" lon="3.3712">
        <ele>61.64</ele>
        <time>2021-06-20T07:01:45.000Z</time>
      </trkpt>
      <trkpt lat="50.73386" lon="3.37127">
        <ele>61.77</ele>
        <time>2021-06-20T07:01:46.000Z</time>
      </trkpt>
      <trkpt lat="50.73382" lon="3.37134">
        <ele>61.92</ele>
        <time>2021-06-20T07:01:47.000Z</time>
      </trkpt>
      <trkpt lat="50.73378" lon="3.37141">
        <ele>61.85</ele>
        <time>2021-06-20T07:01:48.000Z</time>
      </trkpt>
      <trkpt lat="50.73374" lon="3.37147">
        <ele>62.19</ele>
        <time>2021-06-20T07:01:49.000Z</time>
      </trkpt>
      <trkpt lat="50.73369" lon="3.37152">
        <ele>62.38</ele>
        <time>2021-06-20T07:01:50.000Z</time>
      </trkpt>
      <trkpt lat="50.73365" lon="3.37158">
        <ele>62.62</ele>
        <time>2021-06-20T07:01:51.000Z</time>
      </trkpt>
      <trkpt lat="50.73361" lon="3.37164">
        <ele>62.3</ele>
        <time>2021-06-20T07:01:52.000Z</time>
      </trkpt>
      <trkpt lat="50.73357" lon="3.37168">
        <ele>62.27</ele>
        <time>2021-06-20T07:01:53.000Z</time>
      </trkpt>
      <trkpt lat="50.73353" lon="3.37173">
        <ele>61.77</ele>
        <time>2021-06-20T07:01:54.000Z</time>
      </trkpt>
      <trkpt lat="50.73349" lon="3.37182">
        <ele>61.55</ele>
        <time>2021-06-20T07:01:56.000Z</time>
      </trkpt>
      <trkpt lat="50.73353" lon="3.37192">
        <ele>61.95</ele>
        <time>2021-06-20T07:01:58.000Z</time>
      </trkpt>
      <trkpt lat="50.73358" lon="3.37204">
        <ele>62.74</ele>
        <time>2021-06-20T07:02:00.000Z</time>
      </trkpt>
      <trkpt lat="50.73361" lon="3.37211">
        <ele>62.51</ele>
        <time>2021-06-20T07:02:01.000Z</time>
      </trkpt>
      <trkpt lat="50.73364" lon="3.37218">
        <ele>62.38</ele>
        <time>2021-06-20T07:02:02.000Z</time>
      </trkpt>
      <trkpt lat="50.73367" lon="3.37226">
        <ele>62.16</ele>
        <time>2021-06-20T07:02:03.000Z</time>
      </trkpt>
      <trkpt lat="50.73369" lon="3.37234">
        <ele>62.03</ele>
        <time>2021-06-20T07:02:04.000Z</time>
      </trkpt>
      <trkpt lat="50.7337" lon="3.37243">
        <ele>62.13</ele>
        <time>2021-06-20T07:02:05.000Z</time>
      </trkpt>
      <trkpt lat="50.73369" lon="3.37252">
        <ele>62.42</ele>
        <time>2021-06-20T07:02:06.000Z</time>
      </trkpt>
      <trkpt lat="50.73368" lon="3.37261">
        <ele>62.25</ele>
        <time>2021-06-20T07:02:07.000Z</time>
      </trkpt>
      <trkpt lat="50.73367" lon="3.37272">
        <ele>62.19</ele>
        <time>2021-06-20T07:02:08.000Z</time>
      </trkpt>
      <trkpt lat="50.73365" lon="3.37281">
        <ele>62.33</ele>
        <time>2021-06-20T07:02:09.000Z</time>
      </trkpt>
      <trkpt lat="50.73363" lon="3.37291">
        <ele>62.3</ele>
        <time>2021-06-20T07:02:10.000Z</time>
      </trkpt>
      <trkpt lat="50.73361" lon="3.37301">
        <ele>62.34</ele>
        <time>2021-06-20T07:02:11.000Z</time>
      </trkpt>
      <trkpt lat="50.73359" lon="3.37311">
        <ele>62.4</ele>
        <time>2021-06-20T07:02:12.000Z</time>
      </trkpt>
      <trkpt lat="50.73357" lon="3.37322">
        <ele>62.18</ele>
        <time>2021-06-20T07:02:13.000Z</time>
      </trkpt>
      <trkpt lat="50.73355" lon="3.37332">
        <ele>62.17</ele>
        <time>2021-06-20T07:02:14.000Z</time>
      </trkpt>
      <trkpt lat="50.73352" lon="3.37343">
        <ele>62.14</ele>
        <time>2021-06-20T07:02:15.000Z</time>
      </trkpt>
      <trkpt lat="50.7335" lon="3.37354">
        <ele>62.18</ele>
        <time>2021-06-20T07:02:16.000Z</time>
      </trkpt>
      <trkpt lat="50.73348" lon="3.37365">
        <ele>62.35</ele>
        <time>2021-06-20T07:02:17.000Z</time>
      </trkpt>
      <trkpt lat="50.73346" lon="3.37376">
        <ele>62.57</ele>
        <time>2021-06-20T07:02:18.000Z</time>
      </trkpt>
      <trkpt lat="50.73344" lon="3.37388">
        <ele>62.68</ele>
        <time>2021-06-20T07:02:19.000Z</time>
      </trkpt>
      <trkpt lat="50.73342" lon="3.37399">
        <ele>62.84</ele>
        <time>2021-06-20T07:02:20.000Z</time>
      </trkpt>
      <trkpt lat="50.7334" lon="3.37411">
        <ele>62.72</ele>
        <time>2021-06-20T07:02:21.000Z</time>
      </trkpt>
      <trkpt lat="50.73338" lon="3.37422">
        <ele>62.79</ele>
        <time>2021-06-20T07:02:22.000Z</time>
      </trkpt>
      <trkpt lat="50.73336" lon="3.37434">
        <ele>62.8</ele>
        <time>2021-06-20T07:02:23.000Z</time>
      </trkpt>
      <trkpt lat="50.73334" lon="3.37446">
        <ele>62.97</ele>
        <time>2021-06-20T07:02:24.000Z</time>
      </trkpt>
      <trkpt lat="50.73332" lon="3.37458">
        <ele>63.05</ele>
        <time>2021-06-20T07:02:25.000Z</time>
      </trkpt>
      <trkpt lat="50.73329" lon="3.37469">
        <ele>62.99</ele>
        <time>2021-06-20T07:02:26.000Z</time>
      </trkpt>
      <trkpt lat="50.73327" lon="3.3748">
        <ele>62.95</ele>
        <time>2021-06-20T07:02:27.000Z</time>
      </trkpt>
      <trkpt lat="50.73325" lon="3.37491">
        <ele>62.95</ele>
        <time>2021-06-20T07:02:28.000Z</time>
      </trkpt>
      <trkpt lat="50.73323" lon="3.37503">
        <ele>62.72</ele>
        <time>2021-06-20T07:02:29.000Z</time>
      </trkpt>
      <trkpt lat="50.7332" lon="3.37514">
        <ele>62.59</ele>
        <time>2021-06-20T07:02:30.000Z</time>
      </trkpt>
      <trkpt lat="50.73318" lon="3.37526">
        <ele>62.6</ele>
        <time>2021-06-20T07:02:31.000Z</time>
      </trkpt>
      <trkpt lat="50.73316" lon="3.37538">
        <ele>62.86</ele>
        <time>2021-06-20T07:02:32.000Z</time>
      </trkpt>
      <trkpt lat="50.73314" lon="3.37549">
        <ele>62.86</ele>
        <time>2021-06-20T07:02:33.000Z</time>
      </trkpt>
      <trkpt lat="50.73312" lon="3.37561">
        <ele>62.76</ele>
        <time>2021-06-20T07:02:34.000Z</time>
      </trkpt>
      <trkpt lat="50.7331" lon="3.37573">
        <ele>63</ele>
        <time>2021-06-20T07:02:35.000Z</time>
      </trkpt>
      <trkpt lat="50.73308" lon="3.37585">
        <ele>62.97</ele>
        <time>2021-06-20T07:02:36.000Z</time>
      </trkpt>
      <trkpt lat="50.73306" lon="3.37596">
        <ele>63.05</ele>
        <time>2021-06-20T07:02:37.000Z</time>
      </trkpt>
      <trkpt lat="50.73304" lon="3.37608">
        <ele>63.18</ele>
        <time>2021-06-20T07:02:38.000Z</time>
      </trkpt>
      <trkpt lat="50.73302" lon="3.37619">
        <ele>63.38</ele>
        <time>2021-06-20T07:02:39.000Z</time>
      </trkpt>
      <trkpt lat="50.733" lon="3.37631">
        <ele>63.47</ele>
        <time>2021-06-20T07:02:40.000Z</time>
      </trkpt>
      <trkpt lat="50.73298" lon="3.37642">
        <ele>63.48</ele>
        <time>2021-06-20T07:02:41.000Z</time>
      </trkpt>
      <trkpt lat="50.73296" lon="3.37653">
        <ele>63.31</ele>
        <time>2021-06-20T07:02:42.000Z</time>
      </trkpt>
      <trkpt lat="50.73294" lon="3.37665">
        <ele>63.29</ele>
        <time>2021-06-20T07:02:43.000Z</time>
      </trkpt>
      <trkpt lat="50.73292" lon="3.37676">
        <ele>63.33</ele>
        <time>2021-06-20T07:02:44.000Z</time>
      </trkpt>
      <trkpt lat="50.7329" lon="3.37688">
        <ele>63.12</ele>
        <time>2021-06-20T07:02:45.000Z</time>
      </trkpt>
      <trkpt lat="50.73288" lon="3.377">
        <ele>63.14</ele>
        <time>2021-06-20T07:02:46.000Z</time>
      </trkpt>
      <trkpt lat="50.73286" lon="3.37711">
        <ele>63.51</ele>
        <time>2021-06-20T07:02:47.000Z</time>
      </trkpt>
      <trkpt lat="50.73283" lon="3.37723">
        <ele>63.61</ele>
        <time>2021-06-20T07:02:48.000Z</time>
      </trkpt>
      <trkpt lat="50.73281" lon="3.37734">
        <ele>63.36</ele>
        <time>2021-06-20T07:02:49.000Z</time>
      </trkpt>
      <trkpt lat="50.73279" lon="3.37746">
        <ele>63.5</ele>
        <time>2021-06-20T07:02:50.000Z</time>
      </trkpt>
      <trkpt lat="50.73277" lon="3.37758">
        <ele>63.51</ele>
        <time>2021-06-20T07:02:51.000Z</time>
      </trkpt>
      <trkpt lat="50.73275" lon="3.3777">
        <ele>63.4</ele>
        <time>2021-06-20T07:02:52.000Z</time>
      </trkpt>
      <trkpt lat="50.73273" lon="3.37781">
        <ele>63.71</ele>
        <time>2021-06-20T07:02:53.000Z</time>
      </trkpt>
      <trkpt lat="50.73271" lon="3.37793">
        <ele>63.71</ele>
        <time>2021-06-20T07:02:54.000Z</time>
      </trkpt>
      <trkpt lat="50.73269" lon="3.37804">
        <ele>63.91</ele>
        <time>2021-06-20T07:02:55.000Z</time>
      </trkpt>
      <trkpt lat="50.73267" lon="3.37816">
        <ele>64.03</ele>
        <time>2021-06-20T07:02:56.000Z</time>
      </trkpt>
      <trkpt lat="50.73265" lon="3.37827">
        <ele>64.35</ele>
        <time>2021-06-20T07:02:57.000Z</time>
      </trkpt>
      <trkpt lat="50.73263" lon="3.37839">
        <ele>64.15</ele>
        <time>2021-06-20T07:02:58.000Z</time>
      </trkpt>
      <trkpt lat="50.7326" lon="3.3785">
        <ele>64.4</ele>
        <time>2021-06-20T07:02:59.000Z</time>
      </trkpt>
      <trkpt lat="50.73258" lon="3.37862">
        <ele>64.69</ele>
        <time>2021-06-20T07:03:00.000Z</time>
      </trkpt>
      <trkpt lat="50.73257" lon="3.37873">
        <ele>64.67</ele>
        <time>2021-06-20T07:03:01.000Z</time>
      </trkpt>
      <trkpt lat="50.73255" lon="3.37883">
        <ele>64.38</ele>
        <time>2021-06-20T07:03:02.000Z</time>
      </trkpt>
      <trkpt lat="50.73253" lon="3.37894">
        <ele>64.59</ele>
        <time>2021-06-20T07:03:03.000Z</time>
      </trkpt>
      <trkpt lat="50.73251" lon="3.37904">
        <ele>64.79</ele>
        <time>2021-06-20T07:03:04.000Z</time>
      </trkpt>
      <trkpt lat="50.73249" lon="3.37914">
        <ele>64.72</ele>
        <time>2021-06-20T07:03:05.000Z</time>
      </trkpt>
      <trkpt lat="50.73247" lon="3.37923">
        <ele>64.79</ele>
        <time>2021-06-20T07:03:06.000Z</time>
      </trkpt>
      <trkpt lat="50.73245" lon="3.37931">
        <ele>64.68</ele>
        <time>2021-06-20T07:03:07.000Z</time>
      </trkpt>
      <trkpt lat="50.73244" lon="3.3794">
        <ele>65.01</ele>
        <time>2021-06-20T07:03:08.000Z</time>
      </trkpt>
      <trkpt lat="50.73242" lon="3.37949">
        <ele>65.63</ele>
        <time>2021-06-20T07:03:09.000Z</time>
      </trkpt>
      <trkpt lat="50.73239" lon="3.37959">
        <ele>65.87</ele>
        <time>2021-06-20T07:03:10.000Z</time>
      </trkpt>
      <trkpt lat="50.73237" lon="3.37968">
        <ele>66.15</ele>
        <time>2021-06-20T07:03:11.000Z</time>
      </trkpt>
      <trkpt lat="50.73234" lon="3.37978">
        <ele>66.14</ele>
        <time>2021-06-20T07:03:12.000Z</time>
      </trkpt>
      <trkpt lat="50.73231" lon="3.37987">
        <ele>66.1</ele>
        <time>2021-06-20T07:03:13.000Z</time>
      </trkpt>
      <trkpt lat="50.73228" lon="3.37996">
        <ele>65.98</ele>
        <time>2021-06-20T07:03:14.000Z</time>
      </trkpt>
      <trkpt lat="50.73226" lon="3.38005">
        <ele>66.15</ele>
        <time>2021-06-20T07:03:15.000Z</time>
      </trkpt>
      <trkpt lat="50.73223" lon="3.38013">
        <ele>66.14</ele>
        <time>2021-06-20T07:03:16.000Z</time>
      </trkpt>
      <trkpt lat="50.73221" lon="3.38021">
        <ele>66.33</ele>
        <time>2021-06-20T07:03:17.000Z</time>
      </trkpt>
      <trkpt lat="50.73218" lon="3.38028">
        <ele>66.65</ele>
        <time>2021-06-20T07:03:18.000Z</time>
      </trkpt>
      <trkpt lat="50.73214" lon="3.38033">
        <ele>66.56</ele>
        <time>2021-06-20T07:03:19.000Z</time>
      </trkpt>
      <trkpt lat="50.73209" lon="3.38038">
        <ele>66.4</ele>
        <time>2021-06-20T07:03:20.000Z</time>
      </trkpt>
      <trkpt lat="50.73206" lon="3.38042">
        <ele>65.65</ele>
        <time>2021-06-20T07:03:21.000Z</time>
      </trkpt>
      <trkpt lat="50.73199" lon="3.3805">
        <ele>64.54</ele>
        <time>2021-06-20T07:03:23.000Z</time>
      </trkpt>
      <trkpt lat="50.73198" lon="3.3806">
        <ele>62.63</ele>
        <time>2021-06-20T07:03:25.000Z</time>
      </trkpt>
      <trkpt lat="50.73199" lon="3.38072">
        <ele>63.17</ele>
        <time>2021-06-20T07:03:27.000Z</time>
      </trkpt>
      <trkpt lat="50.73202" lon="3.38084">
        <ele>62.93</ele>
        <time>2021-06-20T07:03:29.000Z</time>
      </trkpt>
      <trkpt lat="50.73207" lon="3.38095">
        <ele>63.33</ele>
        <time>2021-06-20T07:03:31.000Z</time>
      </trkpt>
      <trkpt lat="50.73208" lon="3.38107">
        <ele>63.07</ele>
        <time>2021-06-20T07:03:33.000Z</time>
      </trkpt>
      <trkpt lat="50.73204" lon="3.38112">
        <ele>63.29</ele>
        <time>2021-06-20T07:03:34.000Z</time>
      </trkpt>
      <trkpt lat="50.732" lon="3.38117">
        <ele>63.36</ele>
        <time>2021-06-20T07:03:35.000Z</time>
      </trkpt>
      <trkpt lat="50.73196" lon="3.38121">
        <ele>63.18</ele>
        <time>2021-06-20T07:03:36.000Z</time>
      </trkpt>
      <trkpt lat="50.73191" lon="3.38126">
        <ele>63.1</ele>
        <time>2021-06-20T07:03:37.000Z</time>
      </trkpt>
      <trkpt lat="50.73186" lon="3.38131">
        <ele>62.98</ele>
        <time>2021-06-20T07:03:38.000Z</time>
      </trkpt>
      <trkpt lat="50.73181" lon="3.38136">
        <ele>62.7</ele>
        <time>2021-06-20T07:03:39.000Z</time>
      </trkpt>
      <trkpt lat="50.73175" lon="3.38142">
        <ele>62.52</ele>
        <time>2021-06-20T07:03:40.000Z</time>
      </trkpt>
      <trkpt lat="50.73169" lon="3.38148">
        <ele>62.32</ele>
        <time>2021-06-20T07:03:41.000Z</time>
      </trkpt>
      <trkpt lat="50.73163" lon="3.38154">
        <ele>62.31</ele>
        <time>2021-06-20T07:03:42.000Z</time>
      </trkpt>
      <trkpt lat="50.73157" lon="3.3816">
        <ele>61.8</ele>
        <time>2021-06-20T07:03:43.000Z</time>
      </trkpt>
      <trkpt lat="50.73151" lon="3.38166">
        <ele>61.24</ele>
        <time>2021-06-20T07:03:44.000Z</time>
      </trkpt>
      <trkpt lat="50.73145" lon="3.38173">
        <ele>61.57</ele>
        <time>2021-06-20T07:03:45.000Z</time>
      </trkpt>
      <trkpt lat="50.73139" lon="3.38179">
        <ele>61.84</ele>
        <time>2021-06-20T07:03:46.000Z</time>
      </trkpt>
      <trkpt lat="50.73133" lon="3.38186">
        <ele>61.54</ele>
        <time>2021-06-20T07:03:47.000Z</time>
      </trkpt>
      <trkpt lat="50.73126" lon="3.38193">
        <ele>62.23</ele>
        <time>2021-06-20T07:03:48.000Z</time>
      </trkpt>
      <trkpt lat="50.7312" lon="3.38199">
        <ele>62.02</ele>
        <time>2021-06-20T07:03:49.000Z</time>
      </trkpt>
      <trkpt lat="50.73113" lon="3.38206">
        <ele>61.66</ele>
        <time>2021-06-20T07:03:50.000Z</time>
      </trkpt>
      <trkpt lat="50.73107" lon="3.38213">
        <ele>61.47</ele>
        <time>2021-06-20T07:03:51.000Z</time>
      </trkpt>
      <trkpt lat="50.73101" lon="3.3822">
        <ele>61.67</ele>
        <time>2021-06-20T07:03:52.000Z</time>
      </trkpt>
      <trkpt lat="50.73094" lon="3.38227">
        <ele>60.92</ele>
        <time>2021-06-20T07:03:53.000Z</time>
      </trkpt>
      <trkpt lat="50.73088" lon="3.38233">
        <ele>60.8</ele>
        <time>2021-06-20T07:03:54.000Z</time>
      </trkpt>
      <trkpt lat="50.73082" lon="3.38241">
        <ele>60.39</ele>
        <time>2021-06-20T07:03:55.000Z</time>
      </trkpt>
      <trkpt lat="50.73075" lon="3.38248">
        <ele>60.38</ele>
        <time>2021-06-20T07:03:56.000Z</time>
      </trkpt>
      <trkpt lat="50.73069" lon="3.38255">
        <ele>59.93</ele>
        <time>2021-06-20T07:03:57.000Z</time>
      </trkpt>
      <trkpt lat="50.73062" lon="3.38262">
        <ele>59.99</ele>
        <time>2021-06-20T07:03:58.000Z</time>
      </trkpt>
      <trkpt lat="50.73055" lon="3.38268">
        <ele>60.81</ele>
        <time>2021-06-20T07:03:59.000Z</time>
      </trkpt>
      <trkpt lat="50.73049" lon="3.38275">
        <ele>60.99</ele>
        <time>2021-06-20T07:04:00.000Z</time>
      </trkpt>
      <trkpt lat="50.73043" lon="3.38282">
        <ele>61.85</ele>
        <time>2021-06-20T07:04:01.000Z</time>
      </trkpt>
      <trkpt lat="50.73037" lon="3.38289">
        <ele>61.4</ele>
        <time>2021-06-20T07:04:02.000Z</time>
      </trkpt>
      <trkpt lat="50.73031" lon="3.38295">
        <ele>61.54</ele>
        <time>2021-06-20T07:04:03.000Z</time>
      </trkpt>
      <trkpt lat="50.73026" lon="3.38302">
        <ele>62.07</ele>
        <time>2021-06-20T07:04:04.000Z</time>
      </trkpt>
      <trkpt lat="50.73021" lon="3.38307">
        <ele>62.29</ele>
        <time>2021-06-20T07:04:05.000Z</time>
      </trkpt>
      <trkpt lat="50.73018" lon="3.38315">
        <ele>61.89</ele>
        <time>2021-06-20T07:04:06.000Z</time>
      </trkpt>
      <trkpt lat="50.73018" lon="3.38324">
        <ele>61.82</ele>
        <time>2021-06-20T07:04:07.000Z</time>
      </trkpt>
      <trkpt lat="50.73021" lon="3.38332">
        <ele>61.47</ele>
        <time>2021-06-20T07:04:08.000Z</time>
      </trkpt>
      <trkpt lat="50.73024" lon="3.3834">
        <ele>61.09</ele>
        <time>2021-06-20T07:04:09.000Z</time>
      </trkpt>
      <trkpt lat="50.73028" lon="3.38349">
        <ele>60.9</ele>
        <time>2021-06-20T07:04:10.000Z</time>
      </trkpt>
      <trkpt lat="50.73032" lon="3.38358">
        <ele>60.83</ele>
        <time>2021-06-20T07:04:11.000Z</time>
      </trkpt>
      <trkpt lat="50.73035" lon="3.38367">
        <ele>61.51</ele>
        <time>2021-06-20T07:04:12.000Z</time>
      </trkpt>
      <trkpt lat="50.73036" lon="3.38377">
        <ele>61.73</ele>
        <time>2021-06-20T07:04:13.000Z</time>
      </trkpt>
      <trkpt lat="50.73034" lon="3.38387">
        <ele>61.87</ele>
        <time>2021-06-20T07:04:14.000Z</time>
      </trkpt>
      <trkpt lat="50.7303" lon="3.38395">
        <ele>62.11</ele>
        <time>2021-06-20T07:04:15.000Z</time>
      </trkpt>
      <trkpt lat="50.73026" lon="3.38404">
        <ele>62.34</ele>
        <time>2021-06-20T07:04:16.000Z</time>
      </trkpt>
      <trkpt lat="50.73022" lon="3.38413">
        <ele>62.46</ele>
        <time>2021-06-20T07:04:17.000Z</time>
      </trkpt>
      <trkpt lat="50.73018" lon="3.38423">
        <ele>62.63</ele>
        <time>2021-06-20T07:04:18.000Z</time>
      </trkpt>
      <trkpt lat="50.73015" lon="3.38434">
        <ele>62</ele>
        <time>2021-06-20T07:04:19.000Z</time>
      </trkpt>
      <trkpt lat="50.73011" lon="3.38445">
        <ele>62.13</ele>
        <time>2021-06-20T07:04:20.000Z</time>
      </trkpt>
      <trkpt lat="50.73008" lon="3.38455">
        <ele>62.26</ele>
        <time>2021-06-20T07:04:21.000Z</time>
      </trkpt>
      <trkpt lat="50.73005" lon="3.38467">
        <ele>62.46</ele>
        <time>2021-06-20T07:04:22.000Z</time>
      </trkpt>
      <trkpt lat="50.73002" lon="3.38478">
        <ele>62.9</ele>
        <time>2021-06-20T07:04:23.000Z</time>
      </trkpt>
      <trkpt lat="50.72999" lon="3.38488">
        <ele>62.48</ele>
        <time>2021-06-20T07:04:24.000Z</time>
      </trkpt>
      <trkpt lat="50.72996" lon="3.385">
        <ele>62.56</ele>
        <time>2021-06-20T07:04:25.000Z</time>
      </trkpt>
      <trkpt lat="50.72992" lon="3.38512">
        <ele>62.34</ele>
        <time>2021-06-20T07:04:26.000Z</time>
      </trkpt>
      <trkpt lat="50.72989" lon="3.38523">
        <ele>61.99</ele>
        <time>2021-06-20T07:04:27.000Z</time>
      </trkpt>
      <trkpt lat="50.72986" lon="3.38535">
        <ele>61.94</ele>
        <time>2021-06-20T07:04:28.000Z</time>
      </trkpt>
      <trkpt lat="50.72982" lon="3.38548">
        <ele>61.53</ele>
        <time>2021-06-20T07:04:29.000Z</time>
      </trkpt>
      <trkpt lat="50.72979" lon="3.3856">
        <ele>62.2</ele>
        <time>2021-06-20T07:04:30.000Z</time>
      </trkpt>
      <trkpt lat="50.72975" lon="3.38573">
        <ele>62.17</ele>
        <time>2021-06-20T07:04:31.000Z</time>
      </trkpt>
      <trkpt lat="50.72972" lon="3.38586">
        <ele>61.96</ele>
        <time>2021-06-20T07:04:32.000Z</time>
      </trkpt>
      <trkpt lat="50.72968" lon="3.386">
        <ele>61.82</ele>
        <time>2021-06-20T07:04:33.000Z</time>
      </trkpt>
      <trkpt lat="50.72964" lon="3.38612">
        <ele>61.29</ele>
        <time>2021-06-20T07:04:34.000Z</time>
      </trkpt>
      <trkpt lat="50.7296" lon="3.38626">
        <ele>60.99</ele>
        <time>2021-06-20T07:04:35.000Z</time>
      </trkpt>
      <trkpt lat="50.72956" lon="3.38639">
        <ele>61.43</ele>
        <time>2021-06-20T07:04:36.000Z</time>
      </trkpt>
      <trkpt lat="50.72952" lon="3.38653">
        <ele>61.47</ele>
        <time>2021-06-20T07:04:37.000Z</time>
      </trkpt>
      <trkpt lat="50.72949" lon="3.38666">
        <ele>61.62</ele>
        <time>2021-06-20T07:04:38.000Z</time>
      </trkpt>
      <trkpt lat="50.72945" lon="3.3868">
        <ele>61.87</ele>
        <time>2021-06-20T07:04:39.000Z</time>
      </trkpt>
      <trkpt lat="50.72941" lon="3.38693">
        <ele>62.01</ele>
        <time>2021-06-20T07:04:40.000Z</time>
      </trkpt>
      <trkpt lat="50.72937" lon="3.38706">
        <ele>62.4</ele>
        <time>2021-06-20T07:04:41.000Z</time>
      </trkpt>
      <trkpt lat="50.72933" lon="3.38719">
        <ele>62.6</ele>
        <time>2021-06-20T07:04:42.000Z</time>
      </trkpt>
      <trkpt lat="50.7293" lon="3.38732">
        <ele>63.15</ele>
        <time>2021-06-20T07:04:43.000Z</time>
      </trkpt>
      <trkpt lat="50.72926" lon="3.38745">
        <ele>63.48</ele>
        <time>2021-06-20T07:04:44.000Z</time>
      </trkpt>
      <trkpt lat="50.72922" lon="3.38756">
        <ele>63.95</ele>
        <time>2021-06-20T07:04:45.000Z</time>
      </trkpt>
      <trkpt lat="50.72917" lon="3.38767">
        <ele>64.45</ele>
        <time>2021-06-20T07:04:46.000Z</time>
      </trkpt>
      <trkpt lat="50.72911" lon="3.38777">
        <ele>64.91</ele>
        <time>2021-06-20T07:04:47.000Z</time>
      </trkpt>
      <trkpt lat="50.72906" lon="3.38785">
        <ele>65.25</ele>
        <time>2021-06-20T07:04:48.000Z</time>
      </trkpt>
      <trkpt lat="50.72899" lon="3.38793">
        <ele>65.28</ele>
        <time>2021-06-20T07:04:49.000Z</time>
      </trkpt>
      <trkpt lat="50.72892" lon="3.38798">
        <ele>65.64</ele>
        <time>2021-06-20T07:04:50.000Z</time>
      </trkpt>
      <trkpt lat="50.72884" lon="3.38804">
        <ele>65.98</ele>
        <time>2021-06-20T07:04:51.000Z</time>
      </trkpt>
      <trkpt lat="50.72877" lon="3.38809">
        <ele>66.08</ele>
        <time>2021-06-20T07:04:52.000Z</time>
      </trkpt>
      <trkpt lat="50.72869" lon="3.38814">
        <ele>66.26</ele>
        <time>2021-06-20T07:04:53.000Z</time>
      </trkpt>
      <trkpt lat="50.72862" lon="3.3882">
        <ele>65.31</ele>
        <time>2021-06-20T07:04:54.000Z</time>
      </trkpt>
      <trkpt lat="50.72855" lon="3.38824">
        <ele>65.5</ele>
        <time>2021-06-20T07:04:55.000Z</time>
      </trkpt>
      <trkpt lat="50.72848" lon="3.38829">
        <ele>65.66</ele>
        <time>2021-06-20T07:04:56.000Z</time>
      </trkpt>
      <trkpt lat="50.72841" lon="3.38834">
        <ele>65.72</ele>
        <time>2021-06-20T07:04:57.000Z</time>
      </trkpt>
      <trkpt lat="50.72834" lon="3.3884">
        <ele>65.7</ele>
        <time>2021-06-20T07:04:58.000Z</time>
      </trkpt>
      <trkpt lat="50.72827" lon="3.38845">
        <ele>65.75</ele>
        <time>2021-06-20T07:04:59.000Z</time>
      </trkpt>
      <trkpt lat="50.7282" lon="3.3885">
        <ele>65.34</ele>
        <time>2021-06-20T07:05:00.000Z</time>
      </trkpt>
      <trkpt lat="50.72813" lon="3.38855">
        <ele>64.68</ele>
        <time>2021-06-20T07:05:01.000Z</time>
      </trkpt>
      <trkpt lat="50.72806" lon="3.38861">
        <ele>64.18</ele>
        <time>2021-06-20T07:05:02.000Z</time>
      </trkpt>
      <trkpt lat="50.728" lon="3.38868">
        <ele>63.95</ele>
        <time>2021-06-20T07:05:03.000Z</time>
      </trkpt>
      <trkpt lat="50.72795" lon="3.38876">
        <ele>63.61</ele>
        <time>2021-06-20T07:05:04.000Z</time>
      </trkpt>
      <trkpt lat="50.72789" lon="3.38884">
        <ele>62.81</ele>
        <time>2021-06-20T07:05:05.000Z</time>
      </trkpt>
      <trkpt lat="50.72785" lon="3.38892">
        <ele>62.71</ele>
        <time>2021-06-20T07:05:06.000Z</time>
      </trkpt>
      <trkpt lat="50.72781" lon="3.38902">
        <ele>62.4</ele>
        <time>2021-06-20T07:05:07.000Z</time>
      </trkpt>
      <trkpt lat="50.72776" lon="3.38911">
        <ele>62.12</ele>
        <time>2021-06-20T07:05:08.000Z</time>
      </trkpt>
      <trkpt lat="50.72772" lon="3.3892">
        <ele>61.61</ele>
        <time>2021-06-20T07:05:09.000Z</time>
      </trkpt>
      <trkpt lat="50.72768" lon="3.38929">
        <ele>61.34</ele>
        <time>2021-06-20T07:05:10.000Z</time>
      </trkpt>
      <trkpt lat="50.72764" lon="3.38937">
        <ele>61.02</ele>
        <time>2021-06-20T07:05:11.000Z</time>
      </trkpt>
      <trkpt lat="50.72761" lon="3.38944">
        <ele>60.74</ele>
        <time>2021-06-20T07:05:12.000Z</time>
      </trkpt>
      <trkpt lat="50.72757" lon="3.38945">
        <ele>60.55</ele>
        <time>2021-06-20T07:05:14.000Z</time>
      </trkpt>
      <trkpt lat="50.72758" lon="3.38936">
        <ele>59.83</ele>
        <time>2021-06-20T07:05:17.000Z</time>
      </trkpt>
      <trkpt lat="50.7276" lon="3.38926">
        <ele>60.58</ele>
        <time>2021-06-20T07:05:19.000Z</time>
      </trkpt>
      <trkpt lat="50.72765" lon="3.38913">
        <ele>59.67</ele>
        <time>2021-06-20T07:05:21.000Z</time>
      </trkpt>
      <trkpt lat="50.72768" lon="3.38906">
        <ele>59.65</ele>
        <time>2021-06-20T07:05:22.000Z</time>
      </trkpt>
      <trkpt lat="50.7277" lon="3.38899">
        <ele>59.27</ele>
        <time>2021-06-20T07:05:23.000Z</time>
      </trkpt>
      <trkpt lat="50.72773" lon="3.38891">
        <ele>58.95</ele>
        <time>2021-06-20T07:05:24.000Z</time>
      </trkpt>
      <trkpt lat="50.72776" lon="3.38884">
        <ele>58.92</ele>
        <time>2021-06-20T07:05:25.000Z</time>
      </trkpt>
      <trkpt lat="50.72779" lon="3.38876">
        <ele>59.02</ele>
        <time>2021-06-20T07:05:26.000Z</time>
      </trkpt>
      <trkpt lat="50.72782" lon="3.38869">
        <ele>58.47</ele>
        <time>2021-06-20T07:05:27.000Z</time>
      </trkpt>
      <trkpt lat="50.72786" lon="3.38863">
        <ele>58.31</ele>
        <time>2021-06-20T07:05:28.000Z</time>
      </trkpt>
      <trkpt lat="50.7279" lon="3.38857">
        <ele>58.49</ele>
        <time>2021-06-20T07:05:29.000Z</time>
      </trkpt>
      <trkpt lat="50.72794" lon="3.3885">
        <ele>58.64</ele>
        <time>2021-06-20T07:05:30.000Z</time>
      </trkpt>
      <trkpt lat="50.72798" lon="3.38845">
        <ele>58.12</ele>
        <time>2021-06-20T07:05:31.000Z</time>
      </trkpt>
      <trkpt lat="50.72803" lon="3.38839">
        <ele>58.08</ele>
        <time>2021-06-20T07:05:32.000Z</time>
      </trkpt>
      <trkpt lat="50.72807" lon="3.38832">
        <ele>58.45</ele>
        <time>2021-06-20T07:05:33.000Z</time>
      </trkpt>
      <trkpt lat="50.72811" lon="3.38828">
        <ele>58.67</ele>
        <time>2021-06-20T07:05:34.000Z</time>
      </trkpt>
      <trkpt lat="50.72816" lon="3.38824">
        <ele>58.73</ele>
        <time>2021-06-20T07:05:35.000Z</time>
      </trkpt>
      <trkpt lat="50.7282" lon="3.38822">
        <ele>59.94</ele>
        <time>2021-06-20T07:05:36.000Z</time>
      </trkpt>
      <trkpt lat="50.72825" lon="3.38824">
        <ele>59.44</ele>
        <time>2021-06-20T07:05:37.000Z</time>
      </trkpt>
      <trkpt lat="50.7283" lon="3.38828">
        <ele>59.27</ele>
        <time>2021-06-20T07:05:38.000Z</time>
      </trkpt>
      <trkpt lat="50.72833" lon="3.38835">
        <ele>58.87</ele>
        <time>2021-06-20T07:05:39.000Z</time>
      </trkpt>
      <trkpt lat="50.72835" lon="3.38844">
        <ele>58.72</ele>
        <time>2021-06-20T07:05:40.000Z</time>
      </trkpt>
      <trkpt lat="50.72837" lon="3.38853">
        <ele>58.51</ele>
        <time>2021-06-20T07:05:41.000Z</time>
      </trkpt>
      <trkpt lat="50.72839" lon="3.38862">
        <ele>58.58</ele>
        <time>2021-06-20T07:05:42.000Z</time>
      </trkpt>
      <trkpt lat="50.7284" lon="3.38873">
        <ele>58.61</ele>
        <time>2021-06-20T07:05:43.000Z</time>
      </trkpt>
      <trkpt lat="50.72843" lon="3.38883">
        <ele>58.39</ele>
        <time>2021-06-20T07:05:44.000Z</time>
      </trkpt>
      <trkpt lat="50.72844" lon="3.38894">
        <ele>58.39</ele>
        <time>2021-06-20T07:05:45.000Z</time>
      </trkpt>
      <trkpt lat="50.72845" lon="3.38904">
        <ele>58.38</ele>
        <time>2021-06-20T07:05:46.000Z</time>
      </trkpt>
      <trkpt lat="50.72846" lon="3.38914">
        <ele>58.19</ele>
        <time>2021-06-20T07:05:47.000Z</time>
      </trkpt>
      <trkpt lat="50.72848" lon="3.38925">
        <ele>58.59</ele>
        <time>2021-06-20T07:05:48.000Z</time>
      </trkpt>
      <trkpt lat="50.7285" lon="3.38935">
        <ele>58.56</ele>
        <time>2021-06-20T07:05:49.000Z</time>
      </trkpt>
      <trkpt lat="50.72851" lon="3.38945">
        <ele>58.3</ele>
        <time>2021-06-20T07:05:50.000Z</time>
      </trkpt>
      <trkpt lat="50.72853" lon="3.38955">
        <ele>58.63</ele>
        <time>2021-06-20T07:05:51.000Z</time>
      </trkpt>
      <trkpt lat="50.72856" lon="3.38965">
        <ele>58.68</ele>
        <time>2021-06-20T07:05:52.000Z</time>
      </trkpt>
      <trkpt lat="50.72858" lon="3.38975">
        <ele>58.61</ele>
        <time>2021-06-20T07:05:53.000Z</time>
      </trkpt>
      <trkpt lat="50.7286" lon="3.38985">
        <ele>58.6</ele>
        <time>2021-06-20T07:05:54.000Z</time>
      </trkpt>
      <trkpt lat="50.72863" lon="3.38994">
        <ele>58.26</ele>
        <time>2021-06-20T07:05:55.000Z</time>
      </trkpt>
      <trkpt lat="50.72865" lon="3.39004">
        <ele>58.15</ele>
        <time>2021-06-20T07:05:56.000Z</time>
      </trkpt>
      <trkpt lat="50.72868" lon="3.39014">
        <ele>58.02</ele>
        <time>2021-06-20T07:05:57.000Z</time>
      </trkpt>
      <trkpt lat="50.7287" lon="3.39024">
        <ele>58.15</ele>
        <time>2021-06-20T07:05:58.000Z</time>
      </trkpt>
      <trkpt lat="50.72873" lon="3.39034">
        <ele>58.05</ele>
        <time>2021-06-20T07:05:59.000Z</time>
      </trkpt>
      <trkpt lat="50.72876" lon="3.39044">
        <ele>57.7</ele>
        <time>2021-06-20T07:06:00.000Z</time>
      </trkpt>
      <trkpt lat="50.72878" lon="3.39054">
        <ele>57.57</ele>
        <time>2021-06-20T07:06:01.000Z</time>
      </trkpt>
      <trkpt lat="50.72881" lon="3.39064">
        <ele>58.04</ele>
        <time>2021-06-20T07:06:02.000Z</time>
      </trkpt>
      <trkpt lat="50.72884" lon="3.39074">
        <ele>58.23</ele>
        <time>2021-06-20T07:06:03.000Z</time>
      </trkpt>
      <trkpt lat="50.72887" lon="3.39084">
        <ele>58.55</ele>
        <time>2021-06-20T07:06:04.000Z</time>
      </trkpt>
      <trkpt lat="50.7289" lon="3.39094">
        <ele>58.11</ele>
        <time>2021-06-20T07:06:05.000Z</time>
      </trkpt>
      <trkpt lat="50.72893" lon="3.39104">
        <ele>59.44</ele>
        <time>2021-06-20T07:06:06.000Z</time>
      </trkpt>
      <trkpt lat="50.72897" lon="3.39115">
        <ele>58.86</ele>
        <time>2021-06-20T07:06:07.000Z</time>
      </trkpt>
      <trkpt lat="50.729" lon="3.39125">
        <ele>58.62</ele>
        <time>2021-06-20T07:06:08.000Z</time>
      </trkpt>
      <trkpt lat="50.72903" lon="3.39136">
        <ele>58.4</ele>
        <time>2021-06-20T07:06:09.000Z</time>
      </trkpt>
      <trkpt lat="50.72907" lon="3.39147">
        <ele>58.56</ele>
        <time>2021-06-20T07:06:10.000Z</time>
      </trkpt>
      <trkpt lat="50.7291" lon="3.39157">
        <ele>58.58</ele>
        <time>2021-06-20T07:06:11.000Z</time>
      </trkpt>
      <trkpt lat="50.72914" lon="3.39167">
        <ele>58.68</ele>
        <time>2021-06-20T07:06:12.000Z</time>
      </trkpt>
      <trkpt lat="50.72917" lon="3.39179">
        <ele>58.69</ele>
        <time>2021-06-20T07:06:13.000Z</time>
      </trkpt>
      <trkpt lat="50.72921" lon="3.39189">
        <ele>58.5</ele>
        <time>2021-06-20T07:06:14.000Z</time>
      </trkpt>
      <trkpt lat="50.72925" lon="3.392">
        <ele>58.52</ele>
        <time>2021-06-20T07:06:15.000Z</time>
      </trkpt>
      <trkpt lat="50.72928" lon="3.3921">
        <ele>58.43</ele>
        <time>2021-06-20T07:06:16.000Z</time>
      </trkpt>
      <trkpt lat="50.72932" lon="3.3922">
        <ele>58.15</ele>
        <time>2021-06-20T07:06:17.000Z</time>
      </trkpt>
      <trkpt lat="50.72936" lon="3.3923">
        <ele>57.95</ele>
        <time>2021-06-20T07:06:18.000Z</time>
      </trkpt>
      <trkpt lat="50.7294" lon="3.39241">
        <ele>57.72</ele>
        <time>2021-06-20T07:06:19.000Z</time>
      </trkpt>
      <trkpt lat="50.72945" lon="3.3925">
        <ele>57.49</ele>
        <time>2021-06-20T07:06:20.000Z</time>
      </trkpt>
      <trkpt lat="50.72948" lon="3.39261">
        <ele>57.59</ele>
        <time>2021-06-20T07:06:21.000Z</time>
      </trkpt>
      <trkpt lat="50.72952" lon="3.39271">
        <ele>57.53</ele>
        <time>2021-06-20T07:06:22.000Z</time>
      </trkpt>
      <trkpt lat="50.72956" lon="3.3928">
        <ele>56.92</ele>
        <time>2021-06-20T07:06:23.000Z</time>
      </trkpt>
      <trkpt lat="50.7296" lon="3.3929">
        <ele>56.9</ele>
        <time>2021-06-20T07:06:24.000Z</time>
      </trkpt>
      <trkpt lat="50.72964" lon="3.39301">
        <ele>56.97</ele>
        <time>2021-06-20T07:06:25.000Z</time>
      </trkpt>
      <trkpt lat="50.72968" lon="3.39311">
        <ele>57.2</ele>
        <time>2021-06-20T07:06:26.000Z</time>
      </trkpt>
      <trkpt lat="50.72973" lon="3.39321">
        <ele>57.24</ele>
        <time>2021-06-20T07:06:27.000Z</time>
      </trkpt>
      <trkpt lat="50.72978" lon="3.39331">
        <ele>57.07</ele>
        <time>2021-06-20T07:06:28.000Z</time>
      </trkpt>
      <trkpt lat="50.72982" lon="3.39342">
        <ele>57.11</ele>
        <time>2021-06-20T07:06:29.000Z</time>
      </trkpt>
      <trkpt lat="50.72987" lon="3.39352">
        <ele>56.47</ele>
        <time>2021-06-20T07:06:30.000Z</time>
      </trkpt>
      <trkpt lat="50.72991" lon="3.39362">
        <ele>56.78</ele>
        <time>2021-06-20T07:06:31.000Z</time>
      </trkpt>
      <trkpt lat="50.72996" lon="3.39372">
        <ele>57.31</ele>
        <time>2021-06-20T07:06:32.000Z</time>
      </trkpt>
      <trkpt lat="50.73001" lon="3.39382">
        <ele>57.26</ele>
        <time>2021-06-20T07:06:33.000Z</time>
      </trkpt>
      <trkpt lat="50.73006" lon="3.39392">
        <ele>57.33</ele>
        <time>2021-06-20T07:06:34.000Z</time>
      </trkpt>
      <trkpt lat="50.73011" lon="3.39402">
        <ele>60.29</ele>
        <time>2021-06-20T07:06:35.000Z</time>
      </trkpt>
      <trkpt lat="50.73016" lon="3.39412">
        <ele>59.09</ele>
        <time>2021-06-20T07:06:36.000Z</time>
      </trkpt>
      <trkpt lat="50.73021" lon="3.39423">
        <ele>58.18</ele>
        <time>2021-06-20T07:06:37.000Z</time>
      </trkpt>
      <trkpt lat="50.73026" lon="3.39433">
        <ele>57.78</ele>
        <time>2021-06-20T07:06:38.000Z</time>
      </trkpt>
      <trkpt lat="50.73032" lon="3.39443">
        <ele>57.5</ele>
        <time>2021-06-20T07:06:39.000Z</time>
      </trkpt>
      <trkpt lat="50.73037" lon="3.39452">
        <ele>57.51</ele>
        <time>2021-06-20T07:06:40.000Z</time>
      </trkpt>
      <trkpt lat="50.73043" lon="3.39462">
        <ele>57.15</ele>
        <time>2021-06-20T07:06:41.000Z</time>
      </trkpt>
      <trkpt lat="50.73048" lon="3.39473">
        <ele>57.06</ele>
        <time>2021-06-20T07:06:42.000Z</time>
      </trkpt>
      <trkpt lat="50.73053" lon="3.39483">
        <ele>57.03</ele>
        <time>2021-06-20T07:06:43.000Z</time>
      </trkpt>
      <trkpt lat="50.73059" lon="3.39493">
        <ele>56.58</ele>
        <time>2021-06-20T07:06:44.000Z</time>
      </trkpt>
      <trkpt lat="50.73065" lon="3.39503">
        <ele>56.73</ele>
        <time>2021-06-20T07:06:45.000Z</time>
      </trkpt>
      <trkpt lat="50.7307" lon="3.39513">
        <ele>56.43</ele>
        <time>2021-06-20T07:06:46.000Z</time>
      </trkpt>
      <trkpt lat="50.73076" lon="3.39523">
        <ele>56.47</ele>
        <time>2021-06-20T07:06:47.000Z</time>
      </trkpt>
      <trkpt lat="50.73082" lon="3.39533">
        <ele>56.31</ele>
        <time>2021-06-20T07:06:48.000Z</time>
      </trkpt>
      <trkpt lat="50.73088" lon="3.39542">
        <ele>55.8</ele>
        <time>2021-06-20T07:06:49.000Z</time>
      </trkpt>
      <trkpt lat="50.73095" lon="3.39552">
        <ele>55.8</ele>
        <time>2021-06-20T07:06:50.000Z</time>
      </trkpt>
      <trkpt lat="50.73101" lon="3.39562">
        <ele>55.79</ele>
        <time>2021-06-20T07:06:51.000Z</time>
      </trkpt>
      <trkpt lat="50.73108" lon="3.39571">
        <ele>55.74</ele>
        <time>2021-06-20T07:06:52.000Z</time>
      </trkpt>
      <trkpt lat="50.73114" lon="3.39581">
        <ele>55.54</ele>
        <time>2021-06-20T07:06:53.000Z</time>
      </trkpt>
      <trkpt lat="50.73121" lon="3.39591">
        <ele>55.84</ele>
        <time>2021-06-20T07:06:54.000Z</time>
      </trkpt>
      <trkpt lat="50.73128" lon="3.396">
        <ele>55.8</ele>
        <time>2021-06-20T07:06:55.000Z</time>
      </trkpt>
      <trkpt lat="50.73134" lon="3.3961">
        <ele>55.58</ele>
        <time>2021-06-20T07:06:56.000Z</time>
      </trkpt>
      <trkpt lat="50.73141" lon="3.39619">
        <ele>55.88</ele>
        <time>2021-06-20T07:06:57.000Z</time>
      </trkpt>
      <trkpt lat="50.73148" lon="3.39628">
        <ele>56.17</ele>
        <time>2021-06-20T07:06:58.000Z</time>
      </trkpt>
      <trkpt lat="50.73154" lon="3.39638">
        <ele>57.38</ele>
        <time>2021-06-20T07:06:59.000Z</time>
      </trkpt>
      <trkpt lat="50.73161" lon="3.39647">
        <ele>56.82</ele>
        <time>2021-06-20T07:07:00.000Z</time>
      </trkpt>
      <trkpt lat="50.73168" lon="3.39655">
        <ele>56.67</ele>
        <time>2021-06-20T07:07:01.000Z</time>
      </trkpt>
      <trkpt lat="50.73175" lon="3.39664">
        <ele>56.3</ele>
        <time>2021-06-20T07:07:02.000Z</time>
      </trkpt>
      <trkpt lat="50.73182" lon="3.39672">
        <ele>56.05</ele>
        <time>2021-06-20T07:07:03.000Z</time>
      </trkpt>
      <trkpt lat="50.7319" lon="3.39681">
        <ele>56.3</ele>
        <time>2021-06-20T07:07:04.000Z</time>
      </trkpt>
      <trkpt lat="50.73196" lon="3.3969">
        <ele>55.58</ele>
        <time>2021-06-20T07:07:05.000Z</time>
      </trkpt>
      <trkpt lat="50.73204" lon="3.39699">
        <ele>55.34</ele>
        <time>2021-06-20T07:07:06.000Z</time>
      </trkpt>
      <trkpt lat="50.73211" lon="3.39707">
        <ele>55.42</ele>
        <time>2021-06-20T07:07:07.000Z</time>
      </trkpt>
      <trkpt lat="50.73218" lon="3.39715">
        <ele>55.19</ele>
        <time>2021-06-20T07:07:08.000Z</time>
      </trkpt>
      <trkpt lat="50.73226" lon="3.39723">
        <ele>56.56</ele>
        <time>2021-06-20T07:07:09.000Z</time>
      </trkpt>
      <trkpt lat="50.73233" lon="3.39731">
        <ele>56.15</ele>
        <time>2021-06-20T07:07:10.000Z</time>
      </trkpt>
      <trkpt lat="50.7324" lon="3.39739">
        <ele>55.7</ele>
        <time>2021-06-20T07:07:11.000Z</time>
      </trkpt>
      <trkpt lat="50.73248" lon="3.39747">
        <ele>55.58</ele>
        <time>2021-06-20T07:07:12.000Z</time>
      </trkpt>
      <trkpt lat="50.73256" lon="3.39755">
        <ele>55.42</ele>
        <time>2021-06-20T07:07:13.000Z</time>
      </trkpt>
      <trkpt lat="50.73264" lon="3.39762">
        <ele>55.28</ele>
        <time>2021-06-20T07:07:14.000Z</time>
      </trkpt>
      <trkpt lat="50.73271" lon="3.39769">
        <ele>55.43</ele>
        <time>2021-06-20T07:07:15.000Z</time>
      </trkpt>
      <trkpt lat="50.73279" lon="3.39776">
        <ele>55.44</ele>
        <time>2021-06-20T07:07:16.000Z</time>
      </trkpt>
      <trkpt lat="50.73287" lon="3.39784">
        <ele>55.63</ele>
        <time>2021-06-20T07:07:17.000Z</time>
      </trkpt>
      <trkpt lat="50.73295" lon="3.39791">
        <ele>55.8</ele>
        <time>2021-06-20T07:07:18.000Z</time>
      </trkpt>
      <trkpt lat="50.73303" lon="3.39798">
        <ele>56.12</ele>
        <time>2021-06-20T07:07:19.000Z</time>
      </trkpt>
      <trkpt lat="50.7331" lon="3.39805">
        <ele>56.6</ele>
        <time>2021-06-20T07:07:20.000Z</time>
      </trkpt>
      <trkpt lat="50.73318" lon="3.39812">
        <ele>56.99</ele>
        <time>2021-06-20T07:07:21.000Z</time>
      </trkpt>
      <trkpt lat="50.73327" lon="3.39819">
        <ele>57.11</ele>
        <time>2021-06-20T07:07:22.000Z</time>
      </trkpt>
      <trkpt lat="50.73335" lon="3.39826">
        <ele>57.24</ele>
        <time>2021-06-20T07:07:23.000Z</time>
      </trkpt>
      <trkpt lat="50.73343" lon="3.39832">
        <ele>57.06</ele>
        <time>2021-06-20T07:07:24.000Z</time>
      </trkpt>
      <trkpt lat="50.73351" lon="3.39839">
        <ele>57.39</ele>
        <time>2021-06-20T07:07:25.000Z</time>
      </trkpt>
      <trkpt lat="50.73359" lon="3.39845">
        <ele>57.1</ele>
        <time>2021-06-20T07:07:26.000Z</time>
      </trkpt>
      <trkpt lat="50.73367" lon="3.39851">
        <ele>57.13</ele>
        <time>2021-06-20T07:07:27.000Z</time>
      </trkpt>
      <trkpt lat="50.73375" lon="3.39857">
        <ele>57.45</ele>
        <time>2021-06-20T07:07:28.000Z</time>
      </trkpt>
      <trkpt lat="50.73383" lon="3.39864">
        <ele>57.12</ele>
        <time>2021-06-20T07:07:29.000Z</time>
      </trkpt>
      <trkpt lat="50.73391" lon="3.39869">
        <ele>56.93</ele>
        <time>2021-06-20T07:07:30.000Z</time>
      </trkpt>
      <trkpt lat="50.73399" lon="3.39874">
        <ele>56.8</ele>
        <time>2021-06-20T07:07:31.000Z</time>
      </trkpt>
      <trkpt lat="50.73406" lon="3.39879">
        <ele>57.37</ele>
        <time>2021-06-20T07:07:32.000Z</time>
      </trkpt>
      <trkpt lat="50.73414" lon="3.39884">
        <ele>57.72</ele>
        <time>2021-06-20T07:07:33.000Z</time>
      </trkpt>
      <trkpt lat="50.73421" lon="3.39889">
        <ele>57.92</ele>
        <time>2021-06-20T07:07:34.000Z</time>
      </trkpt>
      <trkpt lat="50.73428" lon="3.39894">
        <ele>58.02</ele>
        <time>2021-06-20T07:07:35.000Z</time>
      </trkpt>
      <trkpt lat="50.73435" lon="3.39898">
        <ele>58.13</ele>
        <time>2021-06-20T07:07:36.000Z</time>
      </trkpt>
      <trkpt lat="50.73441" lon="3.39902">
        <ele>58.35</ele>
        <time>2021-06-20T07:07:37.000Z</time>
      </trkpt>
      <trkpt lat="50.73448" lon="3.39906">
        <ele>58.03</ele>
        <time>2021-06-20T07:07:38.000Z</time>
      </trkpt>
      <trkpt lat="50.73454" lon="3.3991">
        <ele>57.84</ele>
        <time>2021-06-20T07:07:39.000Z</time>
      </trkpt>
      <trkpt lat="50.7346" lon="3.39913">
        <ele>57.8</ele>
        <time>2021-06-20T07:07:40.000Z</time>
      </trkpt>
      <trkpt lat="50.73464" lon="3.39917">
        <ele>57.87</ele>
        <time>2021-06-20T07:07:41.000Z</time>
      </trkpt>
      <trkpt lat="50.73467" lon="3.39922">
        <ele>57.71</ele>
        <time>2021-06-20T07:07:42.000Z</time>
      </trkpt>
      <trkpt lat="50.73467" lon="3.3993">
        <ele>58</ele>
        <time>2021-06-20T07:07:43.000Z</time>
      </trkpt>
      <trkpt lat="50.73465" lon="3.39937">
        <ele>57.89</ele>
        <time>2021-06-20T07:07:44.000Z</time>
      </trkpt>
      <trkpt lat="50.73462" lon="3.39943">
        <ele>58.12</ele>
        <time>2021-06-20T07:07:45.000Z</time>
      </trkpt>
      <trkpt lat="50.73457" lon="3.39947">
        <ele>57.84</ele>
        <time>2021-06-20T07:07:46.000Z</time>
      </trkpt>
      <trkpt lat="50.73453" lon="3.39954">
        <ele>57.99</ele>
        <time>2021-06-20T07:07:47.000Z</time>
      </trkpt>
      <trkpt lat="50.73448" lon="3.3996">
        <ele>58.4</ele>
        <time>2021-06-20T07:07:48.000Z</time>
      </trkpt>
      <trkpt lat="50.73443" lon="3.39967">
        <ele>58.49</ele>
        <time>2021-06-20T07:07:49.000Z</time>
      </trkpt>
      <trkpt lat="50.73439" lon="3.39973">
        <ele>58.3</ele>
        <time>2021-06-20T07:07:50.000Z</time>
      </trkpt>
      <trkpt lat="50.73434" lon="3.3998">
        <ele>58.44</ele>
        <time>2021-06-20T07:07:51.000Z</time>
      </trkpt>
      <trkpt lat="50.73429" lon="3.39986">
        <ele>58.52</ele>
        <time>2021-06-20T07:07:52.000Z</time>
      </trkpt>
      <trkpt lat="50.73424" lon="3.39993">
        <ele>58.47</ele>
        <time>2021-06-20T07:07:53.000Z</time>
      </trkpt>
      <trkpt lat="50.73418" lon="3.39999">
        <ele>58.18</ele>
        <time>2021-06-20T07:07:54.000Z</time>
      </trkpt>
      <trkpt lat="50.73413" lon="3.40006">
        <ele>58.22</ele>
        <time>2021-06-20T07:07:55.000Z</time>
      </trkpt>
      <trkpt lat="50.73408" lon="3.40013">
        <ele>58.22</ele>
        <time>2021-06-20T07:07:56.000Z</time>
      </trkpt>
      <trkpt lat="50.73403" lon="3.4002">
        <ele>58.32</ele>
        <time>2021-06-20T07:07:57.000Z</time>
      </trkpt>
      <trkpt lat="50.73398" lon="3.40027">
        <ele>58.21</ele>
        <time>2021-06-20T07:07:58.000Z</time>
      </trkpt>
      <trkpt lat="50.73392" lon="3.40034">
        <ele>58.33</ele>
        <time>2021-06-20T07:07:59.000Z</time>
      </trkpt>
      <trkpt lat="50.73387" lon="3.40042">
        <ele>58.34</ele>
        <time>2021-06-20T07:08:00.000Z</time>
      </trkpt>
      <trkpt lat="50.73381" lon="3.40049">
        <ele>58.39</ele>
        <time>2021-06-20T07:08:01.000Z</time>
      </trkpt>
      <trkpt lat="50.73376" lon="3.40057">
        <ele>58.52</ele>
        <time>2021-06-20T07:08:02.000Z</time>
      </trkpt>
      <trkpt lat="50.7337" lon="3.40064">
        <ele>58.91</ele>
        <time>2021-06-20T07:08:03.000Z</time>
      </trkpt>
      <trkpt lat="50.73364" lon="3.40071">
        <ele>58.66</ele>
        <time>2021-06-20T07:08:04.000Z</time>
      </trkpt>
      <trkpt lat="50.73359" lon="3.40079">
        <ele>58.75</ele>
        <time>2021-06-20T07:08:05.000Z</time>
      </trkpt>
      <trkpt lat="50.73353" lon="3.40086">
        <ele>58.48</ele>
        <time>2021-06-20T07:08:06.000Z</time>
      </trkpt>
      <trkpt lat="50.73348" lon="3.40093">
        <ele>58.32</ele>
        <time>2021-06-20T07:08:07.000Z</time>
      </trkpt>
      <trkpt lat="50.73342" lon="3.401">
        <ele>58.29</ele>
        <time>2021-06-20T07:08:08.000Z</time>
      </trkpt>
      <trkpt lat="50.73336" lon="3.40107">
        <ele>58.48</ele>
        <time>2021-06-20T07:08:09.000Z</time>
      </trkpt>
      <trkpt lat="50.7333" lon="3.40115">
        <ele>58.61</ele>
        <time>2021-06-20T07:08:10.000Z</time>
      </trkpt>
      <trkpt lat="50.73325" lon="3.40122">
        <ele>58.69</ele>
        <time>2021-06-20T07:08:11.000Z</time>
      </trkpt>
      <trkpt lat="50.73319" lon="3.4013">
        <ele>59.81</ele>
        <time>2021-06-20T07:08:12.000Z</time>
      </trkpt>
      <trkpt lat="50.73314" lon="3.40137">
        <ele>59.37</ele>
        <time>2021-06-20T07:08:13.000Z</time>
      </trkpt>
      <trkpt lat="50.73308" lon="3.40144">
        <ele>59.16</ele>
        <time>2021-06-20T07:08:14.000Z</time>
      </trkpt>
      <trkpt lat="50.73303" lon="3.40151">
        <ele>58.99</ele>
        <time>2021-06-20T07:08:15.000Z</time>
      </trkpt>
      <trkpt lat="50.73297" lon="3.40158">
        <ele>59.46</ele>
        <time>2021-06-20T07:08:16.000Z</time>
      </trkpt>
      <trkpt lat="50.73292" lon="3.40166">
        <ele>59.29</ele>
        <time>2021-06-20T07:08:17.000Z</time>
      </trkpt>
      <trkpt lat="50.73286" lon="3.40173">
        <ele>59.4</ele>
        <time>2021-06-20T07:08:18.000Z</time>
      </trkpt>
      <trkpt lat="50.73281" lon="3.4018">
        <ele>59.43</ele>
        <time>2021-06-20T07:08:19.000Z</time>
      </trkpt>
      <trkpt lat="50.73276" lon="3.40188">
        <ele>59.63</ele>
        <time>2021-06-20T07:08:20.000Z</time>
      </trkpt>
      <trkpt lat="50.7327" lon="3.40195">
        <ele>59.73</ele>
        <time>2021-06-20T07:08:21.000Z</time>
      </trkpt>
      <trkpt lat="50.73265" lon="3.40202">
        <ele>59.78</ele>
        <time>2021-06-20T07:08:22.000Z</time>
      </trkpt>
      <trkpt lat="50.73259" lon="3.40209">
        <ele>60.77</ele>
        <time>2021-06-20T07:08:23.000Z</time>
      </trkpt>
      <trkpt lat="50.73255" lon="3.40216">
        <ele>60.63</ele>
        <time>2021-06-20T07:08:24.000Z</time>
      </trkpt>
      <trkpt lat="50.73249" lon="3.40222">
        <ele>60.74</ele>
        <time>2021-06-20T07:08:25.000Z</time>
      </trkpt>
      <trkpt lat="50.73244" lon="3.40228">
        <ele>60.57</ele>
        <time>2021-06-20T07:08:26.000Z</time>
      </trkpt>
      <trkpt lat="50.7324" lon="3.40234">
        <ele>60.87</ele>
        <time>2021-06-20T07:08:27.000Z</time>
      </trkpt>
      <trkpt lat="50.73235" lon="3.4024">
        <ele>61.06</ele>
        <time>2021-06-20T07:08:28.000Z</time>
      </trkpt>
      <trkpt lat="50.7323" lon="3.40247">
        <ele>61.23</ele>
        <time>2021-06-20T07:08:29.000Z</time>
      </trkpt>
      <trkpt lat="50.73226" lon="3.40252">
        <ele>61.05</ele>
        <time>2021-06-20T07:08:30.000Z</time>
      </trkpt>
      <trkpt lat="50.73223" lon="3.40259">
        <ele>60.72</ele>
        <time>2021-06-20T07:08:31.000Z</time>
      </trkpt>
      <trkpt lat="50.73223" lon="3.40268">
        <ele>60.47</ele>
        <time>2021-06-20T07:08:32.000Z</time>
      </trkpt>
      <trkpt lat="50.73225" lon="3.40277">
        <ele>60.32</ele>
        <time>2021-06-20T07:08:33.000Z</time>
      </trkpt>
      <trkpt lat="50.73227" lon="3.40285">
        <ele>59.91</ele>
        <time>2021-06-20T07:08:34.000Z</time>
      </trkpt>
      <trkpt lat="50.73231" lon="3.40292">
        <ele>59.79</ele>
        <time>2021-06-20T07:08:35.000Z</time>
      </trkpt>
      <trkpt lat="50.73234" lon="3.403">
        <ele>59.9</ele>
        <time>2021-06-20T07:08:36.000Z</time>
      </trkpt>
      <trkpt lat="50.73238" lon="3.40308">
        <ele>59.82</ele>
        <time>2021-06-20T07:08:37.000Z</time>
      </trkpt>
      <trkpt lat="50.73242" lon="3.40316">
        <ele>59.59</ele>
        <time>2021-06-20T07:08:38.000Z</time>
      </trkpt>
      <trkpt lat="50.73246" lon="3.40324">
        <ele>59.61</ele>
        <time>2021-06-20T07:08:39.000Z</time>
      </trkpt>
      <trkpt lat="50.73249" lon="3.40332">
        <ele>59.51</ele>
        <time>2021-06-20T07:08:40.000Z</time>
      </trkpt>
      <trkpt lat="50.73253" lon="3.4034">
        <ele>59.07</ele>
        <time>2021-06-20T07:08:41.000Z</time>
      </trkpt>
      <trkpt lat="50.73257" lon="3.40348">
        <ele>58.74</ele>
        <time>2021-06-20T07:08:42.000Z</time>
      </trkpt>
      <trkpt lat="50.7326" lon="3.40356">
        <ele>58.74</ele>
        <time>2021-06-20T07:08:43.000Z</time>
      </trkpt>
      <trkpt lat="50.73264" lon="3.40363">
        <ele>58.69</ele>
        <time>2021-06-20T07:08:44.000Z</time>
      </trkpt>
      <trkpt lat="50.73268" lon="3.40371">
        <ele>58.01</ele>
        <time>2021-06-20T07:08:45.000Z</time>
      </trkpt>
      <trkpt lat="50.73272" lon="3.40379">
        <ele>58.41</ele>
        <time>2021-06-20T07:08:46.000Z</time>
      </trkpt>
      <trkpt lat="50.73289" lon="3.40417">
        <ele>58.82</ele>
        <time>2021-06-20T07:08:51.000Z</time>
      </trkpt>
      <trkpt lat="50.73292" lon="3.40424">
        <ele>58.54</ele>
        <time>2021-06-20T07:08:52.000Z</time>
      </trkpt>
      <trkpt lat="50.73293" lon="3.40432">
        <ele>58.62</ele>
        <time>2021-06-20T07:08:53.000Z</time>
      </trkpt>
      <trkpt lat="50.7329" lon="3.40442">
        <ele>59.87</ele>
        <time>2021-06-20T07:08:55.000Z</time>
      </trkpt>
      <trkpt lat="50.73284" lon="3.40445">
        <ele>59.93</ele>
        <time>2021-06-20T07:08:57.000Z</time>
      </trkpt>
      <trkpt lat="50.73285" lon="3.40453">
        <ele>59.68</ele>
        <time>2021-06-20T07:09:01.000Z</time>
      </trkpt>
      <trkpt lat="50.73291" lon="3.40453">
        <ele>59.37</ele>
        <time>2021-06-20T07:09:03.000Z</time>
      </trkpt>
      <trkpt lat="50.73297" lon="3.40457">
        <ele>59.04</ele>
        <time>2021-06-20T07:09:05.000Z</time>
      </trkpt>
      <trkpt lat="50.733" lon="3.40468">
        <ele>60.37</ele>
        <time>2021-06-20T07:09:07.000Z</time>
      </trkpt>
      <trkpt lat="50.73302" lon="3.40479">
        <ele>59.95</ele>
        <time>2021-06-20T07:09:09.000Z</time>
      </trkpt>
      <trkpt lat="50.73304" lon="3.40489">
        <ele>60.15</ele>
        <time>2021-06-20T07:09:11.000Z</time>
      </trkpt>
      <trkpt lat="50.73306" lon="3.40495">
        <ele>59.57</ele>
        <time>2021-06-20T07:09:14.000Z</time>
      </trkpt>
      <trkpt lat="50.73306" lon="3.40486">
        <ele>60.03</ele>
        <time>2021-06-20T07:09:17.000Z</time>
      </trkpt>
      <trkpt lat="50.73305" lon="3.40479">
        <ele>58.97</ele>
        <time>2021-06-20T07:09:19.000Z</time>
      </trkpt>
      <trkpt lat="50.73303" lon="3.4047">
        <ele>59.33</ele>
        <time>2021-06-20T07:09:21.000Z</time>
      </trkpt>
      <trkpt lat="50.73301" lon="3.4046">
        <ele>59.1</ele>
        <time>2021-06-20T07:09:23.000Z</time>
      </trkpt>
      <trkpt lat="50.73298" lon="3.40452">
        <ele>58.81</ele>
        <time>2021-06-20T07:09:25.000Z</time>
      </trkpt>
      <trkpt lat="50.73291" lon="3.40444">
        <ele>58.58</ele>
        <time>2021-06-20T07:09:27.000Z</time>
      </trkpt>
      <trkpt lat="50.73281" lon="3.40443">
        <ele>58.46</ele>
        <time>2021-06-20T07:09:29.000Z</time>
      </trkpt>
      <trkpt lat="50.73277" lon="3.40443">
        <ele>58.27</ele>
        <time>2021-06-20T07:09:30.000Z</time>
      </trkpt>
      <trkpt lat="50.73271" lon="3.40444">
        <ele>58.62</ele>
        <time>2021-06-20T07:09:31.000Z</time>
      </trkpt>
      <trkpt lat="50.73267" lon="3.40444">
        <ele>58.82</ele>
        <time>2021-06-20T07:09:32.000Z</time>
      </trkpt>
      <trkpt lat="50.73262" lon="3.40445">
        <ele>58.54</ele>
        <time>2021-06-20T07:09:33.000Z</time>
      </trkpt>
      <trkpt lat="50.73257" lon="3.40446">
        <ele>58.7</ele>
        <time>2021-06-20T07:09:34.000Z</time>
      </trkpt>
      <trkpt lat="50.73251" lon="3.40446">
        <ele>58.55</ele>
        <time>2021-06-20T07:09:35.000Z</time>
      </trkpt>
      <trkpt lat="50.73247" lon="3.40446">
        <ele>58.46</ele>
        <time>2021-06-20T07:09:36.000Z</time>
      </trkpt>
      <trkpt lat="50.73242" lon="3.40446">
        <ele>58.61</ele>
        <time>2021-06-20T07:09:37.000Z</time>
      </trkpt>
      <trkpt lat="50.73237" lon="3.40448">
        <ele>58.69</ele>
        <time>2021-06-20T07:09:38.000Z</time>
      </trkpt>
      <trkpt lat="50.73232" lon="3.40452">
        <ele>58.75</ele>
        <time>2021-06-20T07:09:39.000Z</time>
      </trkpt>
      <trkpt lat="50.73228" lon="3.40457">
        <ele>58.86</ele>
        <time>2021-06-20T07:09:40.000Z</time>
      </trkpt>
      <trkpt lat="50.73224" lon="3.40463">
        <ele>59</ele>
        <time>2021-06-20T07:09:41.000Z</time>
      </trkpt>
      <trkpt lat="50.7322" lon="3.40469">
        <ele>59.2</ele>
        <time>2021-06-20T07:09:42.000Z</time>
      </trkpt>
      <trkpt lat="50.73217" lon="3.40476">
        <ele>59.8</ele>
        <time>2021-06-20T07:09:43.000Z</time>
      </trkpt>
      <trkpt lat="50.73213" lon="3.40482">
        <ele>60.08</ele>
        <time>2021-06-20T07:09:44.000Z</time>
      </trkpt>
      <trkpt lat="50.7321" lon="3.40489">
        <ele>60.26</ele>
        <time>2021-06-20T07:09:45.000Z</time>
      </trkpt>
      <trkpt lat="50.73206" lon="3.40496">
        <ele>60.46</ele>
        <time>2021-06-20T07:09:46.000Z</time>
      </trkpt>
      <trkpt lat="50.73203" lon="3.40502">
        <ele>60.59</ele>
        <time>2021-06-20T07:09:47.000Z</time>
      </trkpt>
      <trkpt lat="50.73199" lon="3.40508">
        <ele>60.68</ele>
        <time>2021-06-20T07:09:48.000Z</time>
      </trkpt>
      <trkpt lat="50.73196" lon="3.40514">
        <ele>60.74</ele>
        <time>2021-06-20T07:09:49.000Z</time>
      </trkpt>
      <trkpt lat="50.73193" lon="3.40521">
        <ele>61.18</ele>
        <time>2021-06-20T07:09:50.000Z</time>
      </trkpt>
      <trkpt lat="50.73193" lon="3.40529">
        <ele>60.64</ele>
        <time>2021-06-20T07:09:51.000Z</time>
      </trkpt>
      <trkpt lat="50.73194" lon="3.40536">
        <ele>60.61</ele>
        <time>2021-06-20T07:09:52.000Z</time>
      </trkpt>
      <trkpt lat="50.73197" lon="3.40542">
        <ele>60.43</ele>
        <time>2021-06-20T07:09:53.000Z</time>
      </trkpt>
      <trkpt lat="50.73201" lon="3.40549">
        <ele>60.64</ele>
        <time>2021-06-20T07:09:54.000Z</time>
      </trkpt>
      <trkpt lat="50.73205" lon="3.40556">
        <ele>61.01</ele>
        <time>2021-06-20T07:09:55.000Z</time>
      </trkpt>
      <trkpt lat="50.7321" lon="3.40562">
        <ele>61.59</ele>
        <time>2021-06-20T07:09:56.000Z</time>
      </trkpt>
      <trkpt lat="50.73215" lon="3.40568">
        <ele>61.24</ele>
        <time>2021-06-20T07:09:57.000Z</time>
      </trkpt>
      <trkpt lat="50.7322" lon="3.40575">
        <ele>60.82</ele>
        <time>2021-06-20T07:09:58.000Z</time>
      </trkpt>
      <trkpt lat="50.73224" lon="3.40582">
        <ele>60.49</ele>
        <time>2021-06-20T07:09:59.000Z</time>
      </trkpt>
      <trkpt lat="50.73228" lon="3.40588">
        <ele>59.83</ele>
        <time>2021-06-20T07:10:00.000Z</time>
      </trkpt>
      <trkpt lat="50.73233" lon="3.40594">
        <ele>60.02</ele>
        <time>2021-06-20T07:10:01.000Z</time>
      </trkpt>
      <trkpt lat="50.73237" lon="3.40602">
        <ele>60.28</ele>
        <time>2021-06-20T07:10:02.000Z</time>
      </trkpt>
      <trkpt lat="50.73242" lon="3.40609">
        <ele>60.34</ele>
        <time>2021-06-20T07:10:03.000Z</time>
      </trkpt>
      <trkpt lat="50.73246" lon="3.40615">
        <ele>60.59</ele>
        <time>2021-06-20T07:10:04.000Z</time>
      </trkpt>
      <trkpt lat="50.73251" lon="3.40622">
        <ele>61.14</ele>
        <time>2021-06-20T07:10:05.000Z</time>
      </trkpt>
      <trkpt lat="50.73255" lon="3.40629">
        <ele>60.59</ele>
        <time>2021-06-20T07:10:06.000Z</time>
      </trkpt>
      <trkpt lat="50.73259" lon="3.40636">
        <ele>59.85</ele>
        <time>2021-06-20T07:10:07.000Z</time>
      </trkpt>
      <trkpt lat="50.73264" lon="3.40642">
        <ele>59.53</ele>
        <time>2021-06-20T07:10:08.000Z</time>
      </trkpt>
      <trkpt lat="50.73267" lon="3.40648">
        <ele>59.81</ele>
        <time>2021-06-20T07:10:09.000Z</time>
      </trkpt>
      <trkpt lat="50.73274" lon="3.4065">
        <ele>60.02</ele>
        <time>2021-06-20T07:10:11.000Z</time>
      </trkpt>
      <trkpt lat="50.73283" lon="3.40649">
        <ele>60.64</ele>
        <time>2021-06-20T07:10:13.000Z</time>
      </trkpt>
      <trkpt lat="50.7329" lon="3.40654">
        <ele>60.1</ele>
        <time>2021-06-20T07:10:15.000Z</time>
      </trkpt>
      <trkpt lat="50.73295" lon="3.40662">
        <ele>59.85</ele>
        <time>2021-06-20T07:10:17.000Z</time>
      </trkpt>
      <trkpt lat="50.73298" lon="3.40667">
        <ele>60.2</ele>
        <time>2021-06-20T07:10:18.000Z</time>
      </trkpt>
      <trkpt lat="50.73301" lon="3.40673">
        <ele>60.39</ele>
        <time>2021-06-20T07:10:19.000Z</time>
      </trkpt>
      <trkpt lat="50.73304" lon="3.40679">
        <ele>60.08</ele>
        <time>2021-06-20T07:10:20.000Z</time>
      </trkpt>
      <trkpt lat="50.73308" lon="3.40684">
        <ele>59.93</ele>
        <time>2021-06-20T07:10:21.000Z</time>
      </trkpt>
      <trkpt lat="50.73311" lon="3.4069">
        <ele>59.91</ele>
        <time>2021-06-20T07:10:22.000Z</time>
      </trkpt>
      <trkpt lat="50.73315" lon="3.40696">
        <ele>60.14</ele>
        <time>2021-06-20T07:10:23.000Z</time>
      </trkpt>
      <trkpt lat="50.73318" lon="3.40702">
        <ele>59.84</ele>
        <time>2021-06-20T07:10:24.000Z</time>
      </trkpt>
      <trkpt lat="50.73322" lon="3.40709">
        <ele>60.07</ele>
        <time>2021-06-20T07:10:25.000Z</time>
      </trkpt>
      <trkpt lat="50.73326" lon="3.40715">
        <ele>59.85</ele>
        <time>2021-06-20T07:10:26.000Z</time>
      </trkpt>
      <trkpt lat="50.73329" lon="3.40721">
        <ele>60.03</ele>
        <time>2021-06-20T07:10:27.000Z</time>
      </trkpt>
      <trkpt lat="50.73333" lon="3.40727">
        <ele>60.06</ele>
        <time>2021-06-20T07:10:28.000Z</time>
      </trkpt>
      <trkpt lat="50.73336" lon="3.40732">
        <ele>60.12</ele>
        <time>2021-06-20T07:10:29.000Z</time>
      </trkpt>
      <trkpt lat="50.73343" lon="3.40743">
        <ele>60.95</ele>
        <time>2021-06-20T07:10:31.000Z</time>
      </trkpt>
      <trkpt lat="50.73346" lon="3.40748">
        <ele>60.58</ele>
        <time>2021-06-20T07:10:32.000Z</time>
      </trkpt>
      <trkpt lat="50.7335" lon="3.40754">
        <ele>60.69</ele>
        <time>2021-06-20T07:10:33.000Z</time>
      </trkpt>
      <trkpt lat="50.73353" lon="3.40758">
        <ele>60.57</ele>
        <time>2021-06-20T07:10:34.000Z</time>
      </trkpt>
      <trkpt lat="50.73357" lon="3.40764">
        <ele>60.42</ele>
        <time>2021-06-20T07:10:35.000Z</time>
      </trkpt>
      <trkpt lat="50.73361" lon="3.40769">
        <ele>59.98</ele>
        <time>2021-06-20T07:10:36.000Z</time>
      </trkpt>
      <trkpt lat="50.73366" lon="3.40775">
        <ele>59.84</ele>
        <time>2021-06-20T07:10:37.000Z</time>
      </trkpt>
      <trkpt lat="50.7337" lon="3.40781">
        <ele>60.12</ele>
        <time>2021-06-20T07:10:38.000Z</time>
      </trkpt>
      <trkpt lat="50.73374" lon="3.40786">
        <ele>59.94</ele>
        <time>2021-06-20T07:10:39.000Z</time>
      </trkpt>
      <trkpt lat="50.73378" lon="3.40791">
        <ele>59.62</ele>
        <time>2021-06-20T07:10:40.000Z</time>
      </trkpt>
      <trkpt lat="50.73381" lon="3.40797">
        <ele>60.17</ele>
        <time>2021-06-20T07:10:41.000Z</time>
      </trkpt>
      <trkpt lat="50.73386" lon="3.40802">
        <ele>60.05</ele>
        <time>2021-06-20T07:10:42.000Z</time>
      </trkpt>
      <trkpt lat="50.7339" lon="3.40807">
        <ele>59.72</ele>
        <time>2021-06-20T07:10:43.000Z</time>
      </trkpt>
      <trkpt lat="50.73394" lon="3.40811">
        <ele>57.71</ele>
        <time>2021-06-20T07:10:44.000Z</time>
      </trkpt>
      <trkpt lat="50.73399" lon="3.40817">
        <ele>57.79</ele>
        <time>2021-06-20T07:10:45.000Z</time>
      </trkpt>
      <trkpt lat="50.73404" lon="3.40821">
        <ele>58.63</ele>
        <time>2021-06-20T07:10:46.000Z</time>
      </trkpt>
      <trkpt lat="50.73409" lon="3.40827">
        <ele>58.4</ele>
        <time>2021-06-20T07:10:47.000Z</time>
      </trkpt>
      <trkpt lat="50.73414" lon="3.40833">
        <ele>59.49</ele>
        <time>2021-06-20T07:10:48.000Z</time>
      </trkpt>
      <trkpt lat="50.73419" lon="3.40838">
        <ele>59.33</ele>
        <time>2021-06-20T07:10:49.000Z</time>
      </trkpt>
      <trkpt lat="50.73424" lon="3.40844">
        <ele>59.41</ele>
        <time>2021-06-20T07:10:50.000Z</time>
      </trkpt>
      <trkpt lat="50.7343" lon="3.40849">
        <ele>58.84</ele>
        <time>2021-06-20T07:10:51.000Z</time>
      </trkpt>
      <trkpt lat="50.73435" lon="3.40854">
        <ele>58.8</ele>
        <time>2021-06-20T07:10:52.000Z</time>
      </trkpt>
      <trkpt lat="50.7344" lon="3.4086">
        <ele>58.73</ele>
        <time>2021-06-20T07:10:53.000Z</time>
      </trkpt>
      <trkpt lat="50.73445" lon="3.40865">
        <ele>58.84</ele>
        <time>2021-06-20T07:10:54.000Z</time>
      </trkpt>
      <trkpt lat="50.73451" lon="3.4087">
        <ele>59</ele>
        <time>2021-06-20T07:10:55.000Z</time>
      </trkpt>
      <trkpt lat="50.73457" lon="3.40875">
        <ele>59.31</ele>
        <time>2021-06-20T07:10:56.000Z</time>
      </trkpt>
      <trkpt lat="50.73462" lon="3.4088">
        <ele>59.24</ele>
        <time>2021-06-20T07:10:57.000Z</time>
      </trkpt>
      <trkpt lat="50.73467" lon="3.40885">
        <ele>59.55</ele>
        <time>2021-06-20T07:10:58.000Z</time>
      </trkpt>
      <trkpt lat="50.73472" lon="3.40891">
        <ele>59.93</ele>
        <time>2021-06-20T07:10:59.000Z</time>
      </trkpt>
      <trkpt lat="50.73477" lon="3.40895">
        <ele>60.3</ele>
        <time>2021-06-20T07:11:00.000Z</time>
      </trkpt>
      <trkpt lat="50.73482" lon="3.409">
        <ele>60.34</ele>
        <time>2021-06-20T07:11:01.000Z</time>
      </trkpt>
      <trkpt lat="50.73486" lon="3.40906">
        <ele>60.47</ele>
        <time>2021-06-20T07:11:02.000Z</time>
      </trkpt>
      <trkpt lat="50.7349" lon="3.40911">
        <ele>60.59</ele>
        <time>2021-06-20T07:11:03.000Z</time>
      </trkpt>
      <trkpt lat="50.73495" lon="3.40917">
        <ele>60.83</ele>
        <time>2021-06-20T07:11:04.000Z</time>
      </trkpt>
      <trkpt lat="50.735" lon="3.40922">
        <ele>60.93</ele>
        <time>2021-06-20T07:11:05.000Z</time>
      </trkpt>
      <trkpt lat="50.73504" lon="3.40928">
        <ele>60.61</ele>
        <time>2021-06-20T07:11:06.000Z</time>
      </trkpt>
      <trkpt lat="50.7351" lon="3.40933">
        <ele>60.75</ele>
        <time>2021-06-20T07:11:07.000Z</time>
      </trkpt>
      <trkpt lat="50.73515" lon="3.40939">
        <ele>60.77</ele>
        <time>2021-06-20T07:11:08.000Z</time>
      </trkpt>
      <trkpt lat="50.7352" lon="3.40945">
        <ele>60.63</ele>
        <time>2021-06-20T07:11:09.000Z</time>
      </trkpt>
      <trkpt lat="50.73525" lon="3.40951">
        <ele>60.57</ele>
        <time>2021-06-20T07:11:10.000Z</time>
      </trkpt>
      <trkpt lat="50.7353" lon="3.40958">
        <ele>60.6</ele>
        <time>2021-06-20T07:11:11.000Z</time>
      </trkpt>
      <trkpt lat="50.73535" lon="3.40964">
        <ele>60.7</ele>
        <time>2021-06-20T07:11:12.000Z</time>
      </trkpt>
      <trkpt lat="50.73541" lon="3.40971">
        <ele>60.84</ele>
        <time>2021-06-20T07:11:13.000Z</time>
      </trkpt>
      <trkpt lat="50.73546" lon="3.40977">
        <ele>60.67</ele>
        <time>2021-06-20T07:11:14.000Z</time>
      </trkpt>
      <trkpt lat="50.73551" lon="3.40984">
        <ele>60.83</ele>
        <time>2021-06-20T07:11:15.000Z</time>
      </trkpt>
      <trkpt lat="50.73556" lon="3.4099">
        <ele>60.86</ele>
        <time>2021-06-20T07:11:16.000Z</time>
      </trkpt>
      <trkpt lat="50.73562" lon="3.40996">
        <ele>60.87</ele>
        <time>2021-06-20T07:11:17.000Z</time>
      </trkpt>
      <trkpt lat="50.73566" lon="3.41003">
        <ele>60.83</ele>
        <time>2021-06-20T07:11:18.000Z</time>
      </trkpt>
      <trkpt lat="50.73571" lon="3.41009">
        <ele>60.57</ele>
        <time>2021-06-20T07:11:19.000Z</time>
      </trkpt>
      <trkpt lat="50.73577" lon="3.41016">
        <ele>60.41</ele>
        <time>2021-06-20T07:11:20.000Z</time>
      </trkpt>
      <trkpt lat="50.73581" lon="3.41022">
        <ele>60.89</ele>
        <time>2021-06-20T07:11:21.000Z</time>
      </trkpt>
      <trkpt lat="50.73586" lon="3.41028">
        <ele>60.72</ele>
        <time>2021-06-20T07:11:22.000Z</time>
      </trkpt>
      <trkpt lat="50.7359" lon="3.41034">
        <ele>61.16</ele>
        <time>2021-06-20T07:11:23.000Z</time>
      </trkpt>
      <trkpt lat="50.73595" lon="3.4104">
        <ele>61.06</ele>
        <time>2021-06-20T07:11:24.000Z</time>
      </trkpt>
      <trkpt lat="50.736" lon="3.41045">
        <ele>60.77</ele>
        <time>2021-06-20T07:11:25.000Z</time>
      </trkpt>
      <trkpt lat="50.73604" lon="3.4105">
        <ele>60.27</ele>
        <time>2021-06-20T07:11:26.000Z</time>
      </trkpt>
      <trkpt lat="50.73608" lon="3.41055">
        <ele>59.83</ele>
        <time>2021-06-20T07:11:27.000Z</time>
      </trkpt>
      <trkpt lat="50.73613" lon="3.4106">
        <ele>59.74</ele>
        <time>2021-06-20T07:11:28.000Z</time>
      </trkpt>
      <trkpt lat="50.73617" lon="3.41065">
        <ele>59.55</ele>
        <time>2021-06-20T07:11:29.000Z</time>
      </trkpt>
      <trkpt lat="50.73622" lon="3.41072">
        <ele>59.81</ele>
        <time>2021-06-20T07:11:30.000Z</time>
      </trkpt>
      <trkpt lat="50.73626" lon="3.41079">
        <ele>59.93</ele>
        <time>2021-06-20T07:11:31.000Z</time>
      </trkpt>
      <trkpt lat="50.73631" lon="3.41086">
        <ele>60.83</ele>
        <time>2021-06-20T07:11:32.000Z</time>
      </trkpt>
      <trkpt lat="50.73635" lon="3.41093">
        <ele>60.3</ele>
        <time>2021-06-20T07:11:33.000Z</time>
      </trkpt>
      <trkpt lat="50.7364" lon="3.41101">
        <ele>60.28</ele>
        <time>2021-06-20T07:11:34.000Z</time>
      </trkpt>
      <trkpt lat="50.73644" lon="3.41109">
        <ele>60.66</ele>
        <time>2021-06-20T07:11:35.000Z</time>
      </trkpt>
      <trkpt lat="50.73648" lon="3.41117">
        <ele>61.03</ele>
        <time>2021-06-20T07:11:36.000Z</time>
      </trkpt>
      <trkpt lat="50.73653" lon="3.41125">
        <ele>60.71</ele>
        <time>2021-06-20T07:11:37.000Z</time>
      </trkpt>
      <trkpt lat="50.73657" lon="3.41132">
        <ele>61.01</ele>
        <time>2021-06-20T07:11:38.000Z</time>
      </trkpt>
      <trkpt lat="50.73662" lon="3.4114">
        <ele>61.14</ele>
        <time>2021-06-20T07:11:39.000Z</time>
      </trkpt>
      <trkpt lat="50.73666" lon="3.41147">
        <ele>61.08</ele>
        <time>2021-06-20T07:11:40.000Z</time>
      </trkpt>
      <trkpt lat="50.73671" lon="3.41155">
        <ele>60.93</ele>
        <time>2021-06-20T07:11:41.000Z</time>
      </trkpt>
      <trkpt lat="50.73675" lon="3.41163">
        <ele>61.08</ele>
        <time>2021-06-20T07:11:42.000Z</time>
      </trkpt>
      <trkpt lat="50.73679" lon="3.41171">
        <ele>60.82</ele>
        <time>2021-06-20T07:11:43.000Z</time>
      </trkpt>
      <trkpt lat="50.73684" lon="3.41178">
        <ele>60.48</ele>
        <time>2021-06-20T07:11:44.000Z</time>
      </trkpt>
      <trkpt lat="50.73688" lon="3.41185">
        <ele>60.14</ele>
        <time>2021-06-20T07:11:45.000Z</time>
      </trkpt>
      <trkpt lat="50.73692" lon="3.41193">
        <ele>60.21</ele>
        <time>2021-06-20T07:11:46.000Z</time>
      </trkpt>
      <trkpt lat="50.73697" lon="3.41201">
        <ele>60.67</ele>
        <time>2021-06-20T07:11:47.000Z</time>
      </trkpt>
      <trkpt lat="50.73701" lon="3.41209">
        <ele>60.82</ele>
        <time>2021-06-20T07:11:48.000Z</time>
      </trkpt>
      <trkpt lat="50.73706" lon="3.41217">
        <ele>60.86</ele>
        <time>2021-06-20T07:11:49.000Z</time>
      </trkpt>
      <trkpt lat="50.7371" lon="3.41225">
        <ele>60.82</ele>
        <time>2021-06-20T07:11:50.000Z</time>
      </trkpt>
      <trkpt lat="50.73715" lon="3.41234">
        <ele>60.86</ele>
        <time>2021-06-20T07:11:51.000Z</time>
      </trkpt>
      <trkpt lat="50.73719" lon="3.41242">
        <ele>60.83</ele>
        <time>2021-06-20T07:11:52.000Z</time>
      </trkpt>
      <trkpt lat="50.73723" lon="3.41251">
        <ele>60.75</ele>
        <time>2021-06-20T07:11:53.000Z</time>
      </trkpt>
      <trkpt lat="50.73727" lon="3.4126">
        <ele>60.7</ele>
        <time>2021-06-20T07:11:54.000Z</time>
      </trkpt>
      <trkpt lat="50.73732" lon="3.41269">
        <ele>60.84</ele>
        <time>2021-06-20T07:11:55.000Z</time>
      </trkpt>
      <trkpt lat="50.73737" lon="3.41278">
        <ele>60.91</ele>
        <time>2021-06-20T07:11:56.000Z</time>
      </trkpt>
      <trkpt lat="50.73741" lon="3.41287">
        <ele>60.69</ele>
        <time>2021-06-20T07:11:57.000Z</time>
      </trkpt>
      <trkpt lat="50.73746" lon="3.41295">
        <ele>60.96</ele>
        <time>2021-06-20T07:11:58.000Z</time>
      </trkpt>
      <trkpt lat="50.7375" lon="3.41304">
        <ele>61.45</ele>
        <time>2021-06-20T07:11:59.000Z</time>
      </trkpt>
      <trkpt lat="50.73755" lon="3.41313">
        <ele>61.47</ele>
        <time>2021-06-20T07:12:00.000Z</time>
      </trkpt>
      <trkpt lat="50.73759" lon="3.41321">
        <ele>61.12</ele>
        <time>2021-06-20T07:12:01.000Z</time>
      </trkpt>
      <trkpt lat="50.73764" lon="3.4133">
        <ele>61.17</ele>
        <time>2021-06-20T07:12:02.000Z</time>
      </trkpt>
      <trkpt lat="50.73768" lon="3.41339">
        <ele>61.3</ele>
        <time>2021-06-20T07:12:03.000Z</time>
      </trkpt>
      <trkpt lat="50.73772" lon="3.41348">
        <ele>61.54</ele>
        <time>2021-06-20T07:12:04.000Z</time>
      </trkpt>
      <trkpt lat="50.73777" lon="3.41357">
        <ele>61.75</ele>
        <time>2021-06-20T07:12:05.000Z</time>
      </trkpt>
      <trkpt lat="50.73781" lon="3.41367">
        <ele>61.8</ele>
        <time>2021-06-20T07:12:06.000Z</time>
      </trkpt>
      <trkpt lat="50.73785" lon="3.41376">
        <ele>61.73</ele>
        <time>2021-06-20T07:12:07.000Z</time>
      </trkpt>
      <trkpt lat="50.73789" lon="3.41385">
        <ele>62.35</ele>
        <time>2021-06-20T07:12:08.000Z</time>
      </trkpt>
      <trkpt lat="50.73794" lon="3.41394">
        <ele>62.49</ele>
        <time>2021-06-20T07:12:09.000Z</time>
      </trkpt>
      <trkpt lat="50.73798" lon="3.41404">
        <ele>62.61</ele>
        <time>2021-06-20T07:12:10.000Z</time>
      </trkpt>
      <trkpt lat="50.73802" lon="3.41413">
        <ele>62.1</ele>
        <time>2021-06-20T07:12:11.000Z</time>
      </trkpt>
      <trkpt lat="50.73807" lon="3.41422">
        <ele>61.66</ele>
        <time>2021-06-20T07:12:12.000Z</time>
      </trkpt>
      <trkpt lat="50.73812" lon="3.41431">
        <ele>61.92</ele>
        <time>2021-06-20T07:12:13.000Z</time>
      </trkpt>
      <trkpt lat="50.73816" lon="3.4144">
        <ele>62.09</ele>
        <time>2021-06-20T07:12:14.000Z</time>
      </trkpt>
      <trkpt lat="50.73821" lon="3.41449">
        <ele>62.01</ele>
        <time>2021-06-20T07:12:15.000Z</time>
      </trkpt>
      <trkpt lat="50.73825" lon="3.41458">
        <ele>61.88</ele>
        <time>2021-06-20T07:12:16.000Z</time>
      </trkpt>
      <trkpt lat="50.73829" lon="3.41465">
        <ele>61.56</ele>
        <time>2021-06-20T07:12:17.000Z</time>
      </trkpt>
      <trkpt lat="50.73832" lon="3.41472">
        <ele>60.94</ele>
        <time>2021-06-20T07:12:18.000Z</time>
      </trkpt>
      <trkpt lat="50.73835" lon="3.41479">
        <ele>60.84</ele>
        <time>2021-06-20T07:12:19.000Z</time>
      </trkpt>
      <trkpt lat="50.73836" lon="3.41492">
        <ele>61.24</ele>
        <time>2021-06-20T07:12:21.000Z</time>
      </trkpt>
      <trkpt lat="50.73831" lon="3.41504">
        <ele>61.62</ele>
        <time>2021-06-20T07:12:23.000Z</time>
      </trkpt>
      <trkpt lat="50.73828" lon="3.41507">
        <ele>61.46</ele>
        <time>2021-06-20T07:12:24.000Z</time>
      </trkpt>
      <trkpt lat="50.73823" lon="3.41511">
        <ele>61.37</ele>
        <time>2021-06-20T07:12:25.000Z</time>
      </trkpt>
      <trkpt lat="50.73818" lon="3.41515">
        <ele>61.36</ele>
        <time>2021-06-20T07:12:26.000Z</time>
      </trkpt>
      <trkpt lat="50.73813" lon="3.41519">
        <ele>61.17</ele>
        <time>2021-06-20T07:12:27.000Z</time>
      </trkpt>
      <trkpt lat="50.73807" lon="3.41522">
        <ele>61.21</ele>
        <time>2021-06-20T07:12:28.000Z</time>
      </trkpt>
      <trkpt lat="50.73802" lon="3.41525">
        <ele>61.06</ele>
        <time>2021-06-20T07:12:29.000Z</time>
      </trkpt>
      <trkpt lat="50.73796" lon="3.41529">
        <ele>61.1</ele>
        <time>2021-06-20T07:12:30.000Z</time>
      </trkpt>
      <trkpt lat="50.7379" lon="3.41533">
        <ele>61.15</ele>
        <time>2021-06-20T07:12:31.000Z</time>
      </trkpt>
      <trkpt lat="50.73785" lon="3.41536">
        <ele>61.01</ele>
        <time>2021-06-20T07:12:32.000Z</time>
      </trkpt>
      <trkpt lat="50.73779" lon="3.41541">
        <ele>61.04</ele>
        <time>2021-06-20T07:12:33.000Z</time>
      </trkpt>
      <trkpt lat="50.73774" lon="3.41544">
        <ele>61</ele>
        <time>2021-06-20T07:12:34.000Z</time>
      </trkpt>
      <trkpt lat="50.73768" lon="3.41548">
        <ele>61.09</ele>
        <time>2021-06-20T07:12:35.000Z</time>
      </trkpt>
      <trkpt lat="50.73762" lon="3.41552">
        <ele>60.98</ele>
        <time>2021-06-20T07:12:36.000Z</time>
      </trkpt>
      <trkpt lat="50.73757" lon="3.41556">
        <ele>61.15</ele>
        <time>2021-06-20T07:12:37.000Z</time>
      </trkpt>
      <trkpt lat="50.73752" lon="3.41561">
        <ele>61.17</ele>
        <time>2021-06-20T07:12:38.000Z</time>
      </trkpt>
      <trkpt lat="50.73747" lon="3.41565">
        <ele>61.3</ele>
        <time>2021-06-20T07:12:39.000Z</time>
      </trkpt>
      <trkpt lat="50.73741" lon="3.4157">
        <ele>61.36</ele>
        <time>2021-06-20T07:12:40.000Z</time>
      </trkpt>
      <trkpt lat="50.73736" lon="3.41575">
        <ele>61.43</ele>
        <time>2021-06-20T07:12:41.000Z</time>
      </trkpt>
      <trkpt lat="50.73731" lon="3.4158">
        <ele>61.61</ele>
        <time>2021-06-20T07:12:42.000Z</time>
      </trkpt>
      <trkpt lat="50.73726" lon="3.41584">
        <ele>62.06</ele>
        <time>2021-06-20T07:12:43.000Z</time>
      </trkpt>
      <trkpt lat="50.73721" lon="3.41589">
        <ele>62.28</ele>
        <time>2021-06-20T07:12:44.000Z</time>
      </trkpt>
      <trkpt lat="50.73717" lon="3.41593">
        <ele>62.39</ele>
        <time>2021-06-20T07:12:45.000Z</time>
      </trkpt>
      <trkpt lat="50.73713" lon="3.41597">
        <ele>62.55</ele>
        <time>2021-06-20T07:12:46.000Z</time>
      </trkpt>
      <trkpt lat="50.73709" lon="3.41601">
        <ele>62.96</ele>
        <time>2021-06-20T07:12:47.000Z</time>
      </trkpt>
      <trkpt lat="50.73707" lon="3.41607">
        <ele>62.67</ele>
        <time>2021-06-20T07:12:48.000Z</time>
      </trkpt>
      <trkpt lat="50.73706" lon="3.41616">
        <ele>62.53</ele>
        <time>2021-06-20T07:12:49.000Z</time>
      </trkpt>
      <trkpt lat="50.73708" lon="3.41624">
        <ele>62.46</ele>
        <time>2021-06-20T07:12:50.000Z</time>
      </trkpt>
      <trkpt lat="50.73711" lon="3.41633">
        <ele>62.47</ele>
        <time>2021-06-20T07:12:51.000Z</time>
      </trkpt>
      <trkpt lat="50.73713" lon="3.41642">
        <ele>62.32</ele>
        <time>2021-06-20T07:12:52.000Z</time>
      </trkpt>
      <trkpt lat="50.73715" lon="3.41651">
        <ele>62.52</ele>
        <time>2021-06-20T07:12:53.000Z</time>
      </trkpt>
      <trkpt lat="50.73718" lon="3.41661">
        <ele>62.14</ele>
        <time>2021-06-20T07:12:54.000Z</time>
      </trkpt>
      <trkpt lat="50.7372" lon="3.41671">
        <ele>62.25</ele>
        <time>2021-06-20T07:12:55.000Z</time>
      </trkpt>
      <trkpt lat="50.73723" lon="3.41682">
        <ele>62.31</ele>
        <time>2021-06-20T07:12:56.000Z</time>
      </trkpt>
      <trkpt lat="50.73725" lon="3.41692">
        <ele>62.28</ele>
        <time>2021-06-20T07:12:57.000Z</time>
      </trkpt>
      <trkpt lat="50.73728" lon="3.41702">
        <ele>62.23</ele>
        <time>2021-06-20T07:12:58.000Z</time>
      </trkpt>
      <trkpt lat="50.73732" lon="3.41713">
        <ele>62.21</ele>
        <time>2021-06-20T07:12:59.000Z</time>
      </trkpt>
      <trkpt lat="50.73735" lon="3.41723">
        <ele>61.99</ele>
        <time>2021-06-20T07:13:00.000Z</time>
      </trkpt>
      <trkpt lat="50.73737" lon="3.41733">
        <ele>62.16</ele>
        <time>2021-06-20T07:13:01.000Z</time>
      </trkpt>
      <trkpt lat="50.7374" lon="3.41744">
        <ele>62.18</ele>
        <time>2021-06-20T07:13:02.000Z</time>
      </trkpt>
      <trkpt lat="50.73742" lon="3.41755">
        <ele>62.05</ele>
        <time>2021-06-20T07:13:03.000Z</time>
      </trkpt>
      <trkpt lat="50.73745" lon="3.41766">
        <ele>61.79</ele>
        <time>2021-06-20T07:13:04.000Z</time>
      </trkpt>
      <trkpt lat="50.73747" lon="3.41777">
        <ele>61.88</ele>
        <time>2021-06-20T07:13:05.000Z</time>
      </trkpt>
      <trkpt lat="50.73748" lon="3.41789">
        <ele>62.06</ele>
        <time>2021-06-20T07:13:06.000Z</time>
      </trkpt>
      <trkpt lat="50.7375" lon="3.41801">
        <ele>62.12</ele>
        <time>2021-06-20T07:13:07.000Z</time>
      </trkpt>
      <trkpt lat="50.73751" lon="3.41812">
        <ele>62.23</ele>
        <time>2021-06-20T07:13:08.000Z</time>
      </trkpt>
      <trkpt lat="50.73752" lon="3.41824">
        <ele>62.58</ele>
        <time>2021-06-20T07:13:09.000Z</time>
      </trkpt>
      <trkpt lat="50.73754" lon="3.41837">
        <ele>62.97</ele>
        <time>2021-06-20T07:13:10.000Z</time>
      </trkpt>
      <trkpt lat="50.73755" lon="3.41849">
        <ele>62.97</ele>
        <time>2021-06-20T07:13:11.000Z</time>
      </trkpt>
      <trkpt lat="50.73756" lon="3.41862">
        <ele>63.15</ele>
        <time>2021-06-20T07:13:12.000Z</time>
      </trkpt>
      <trkpt lat="50.73757" lon="3.41874">
        <ele>63.23</ele>
        <time>2021-06-20T07:13:13.000Z</time>
      </trkpt>
      <trkpt lat="50.73758" lon="3.41887">
        <ele>63.32</ele>
        <time>2021-06-20T07:13:14.000Z</time>
      </trkpt>
      <trkpt lat="50.7376" lon="3.41899">
        <ele>63.19</ele>
        <time>2021-06-20T07:13:15.000Z</time>
      </trkpt>
      <trkpt lat="50.73761" lon="3.41912">
        <ele>63.39</ele>
        <time>2021-06-20T07:13:16.000Z</time>
      </trkpt>
      <trkpt lat="50.73762" lon="3.41925">
        <ele>63.35</ele>
        <time>2021-06-20T07:13:17.000Z</time>
      </trkpt>
      <trkpt lat="50.73763" lon="3.41938">
        <ele>63.27</ele>
        <time>2021-06-20T07:13:18.000Z</time>
      </trkpt>
      <trkpt lat="50.73764" lon="3.41951">
        <ele>63.48</ele>
        <time>2021-06-20T07:13:19.000Z</time>
      </trkpt>
      <trkpt lat="50.73765" lon="3.41964">
        <ele>63.4</ele>
        <time>2021-06-20T07:13:20.000Z</time>
      </trkpt>
      <trkpt lat="50.73766" lon="3.41977">
        <ele>63.28</ele>
        <time>2021-06-20T07:13:21.000Z</time>
      </trkpt>
      <trkpt lat="50.73767" lon="3.4199">
        <ele>63.32</ele>
        <time>2021-06-20T07:13:22.000Z</time>
      </trkpt>
      <trkpt lat="50.73768" lon="3.42003">
        <ele>63.52</ele>
        <time>2021-06-20T07:13:23.000Z</time>
      </trkpt>
      <trkpt lat="50.7377" lon="3.42015">
        <ele>63.52</ele>
        <time>2021-06-20T07:13:24.000Z</time>
      </trkpt>
      <trkpt lat="50.73772" lon="3.42028">
        <ele>63.72</ele>
        <time>2021-06-20T07:13:25.000Z</time>
      </trkpt>
      <trkpt lat="50.73774" lon="3.42041">
        <ele>64.03</ele>
        <time>2021-06-20T07:13:26.000Z</time>
      </trkpt>
      <trkpt lat="50.73777" lon="3.42053">
        <ele>63.88</ele>
        <time>2021-06-20T07:13:27.000Z</time>
      </trkpt>
      <trkpt lat="50.7378" lon="3.42065">
        <ele>63.8</ele>
        <time>2021-06-20T07:13:28.000Z</time>
      </trkpt>
      <trkpt lat="50.73783" lon="3.42077">
        <ele>63.69</ele>
        <time>2021-06-20T07:13:29.000Z</time>
      </trkpt>
      <trkpt lat="50.73787" lon="3.42088">
        <ele>63.58</ele>
        <time>2021-06-20T07:13:30.000Z</time>
      </trkpt>
      <trkpt lat="50.73791" lon="3.421">
        <ele>63.63</ele>
        <time>2021-06-20T07:13:31.000Z</time>
      </trkpt>
      <trkpt lat="50.73795" lon="3.42112">
        <ele>63.84</ele>
        <time>2021-06-20T07:13:32.000Z</time>
      </trkpt>
      <trkpt lat="50.73799" lon="3.42123">
        <ele>63.8</ele>
        <time>2021-06-20T07:13:33.000Z</time>
      </trkpt>
      <trkpt lat="50.73803" lon="3.42135">
        <ele>63.86</ele>
        <time>2021-06-20T07:13:34.000Z</time>
      </trkpt>
      <trkpt lat="50.73808" lon="3.42146">
        <ele>63.8</ele>
        <time>2021-06-20T07:13:35.000Z</time>
      </trkpt>
      <trkpt lat="50.73812" lon="3.42158">
        <ele>63.85</ele>
        <time>2021-06-20T07:13:36.000Z</time>
      </trkpt>
      <trkpt lat="50.73816" lon="3.4217">
        <ele>63.92</ele>
        <time>2021-06-20T07:13:37.000Z</time>
      </trkpt>
      <trkpt lat="50.7382" lon="3.42182">
        <ele>64.07</ele>
        <time>2021-06-20T07:13:38.000Z</time>
      </trkpt>
      <trkpt lat="50.73824" lon="3.42193">
        <ele>64</ele>
        <time>2021-06-20T07:13:39.000Z</time>
      </trkpt>
      <trkpt lat="50.73829" lon="3.42205">
        <ele>63.81</ele>
        <time>2021-06-20T07:13:40.000Z</time>
      </trkpt>
      <trkpt lat="50.73833" lon="3.42217">
        <ele>63.88</ele>
        <time>2021-06-20T07:13:41.000Z</time>
      </trkpt>
      <trkpt lat="50.73837" lon="3.42229">
        <ele>63.91</ele>
        <time>2021-06-20T07:13:42.000Z</time>
      </trkpt>
      <trkpt lat="50.73841" lon="3.42241">
        <ele>63.85</ele>
        <time>2021-06-20T07:13:43.000Z</time>
      </trkpt>
      <trkpt lat="50.73845" lon="3.42253">
        <ele>63.81</ele>
        <time>2021-06-20T07:13:44.000Z</time>
      </trkpt>
      <trkpt lat="50.7385" lon="3.42265">
        <ele>63.76</ele>
        <time>2021-06-20T07:13:45.000Z</time>
      </trkpt>
      <trkpt lat="50.73854" lon="3.42277">
        <ele>63.51</ele>
        <time>2021-06-20T07:13:46.000Z</time>
      </trkpt>
      <trkpt lat="50.73858" lon="3.42289">
        <ele>63.54</ele>
        <time>2021-06-20T07:13:47.000Z</time>
      </trkpt>
      <trkpt lat="50.73862" lon="3.42301">
        <ele>63.37</ele>
        <time>2021-06-20T07:13:48.000Z</time>
      </trkpt>
      <trkpt lat="50.73866" lon="3.42313">
        <ele>63.58</ele>
        <time>2021-06-20T07:13:49.000Z</time>
      </trkpt>
      <trkpt lat="50.73871" lon="3.42324">
        <ele>63.72</ele>
        <time>2021-06-20T07:13:50.000Z</time>
      </trkpt>
      <trkpt lat="50.73875" lon="3.42336">
        <ele>63.64</ele>
        <time>2021-06-20T07:13:51.000Z</time>
      </trkpt>
      <trkpt lat="50.73879" lon="3.42347">
        <ele>63.94</ele>
        <time>2021-06-20T07:13:52.000Z</time>
      </trkpt>
      <trkpt lat="50.73883" lon="3.4236">
        <ele>64.01</ele>
        <time>2021-06-20T07:13:53.000Z</time>
      </trkpt>
      <trkpt lat="50.73887" lon="3.42371">
        <ele>63.92</ele>
        <time>2021-06-20T07:13:54.000Z</time>
      </trkpt>
      <trkpt lat="50.73891" lon="3.42384">
        <ele>63.75</ele>
        <time>2021-06-20T07:13:55.000Z</time>
      </trkpt>
      <trkpt lat="50.73895" lon="3.42395">
        <ele>63.91</ele>
        <time>2021-06-20T07:13:56.000Z</time>
      </trkpt>
      <trkpt lat="50.73899" lon="3.42407">
        <ele>63.82</ele>
        <time>2021-06-20T07:13:57.000Z</time>
      </trkpt>
      <trkpt lat="50.73903" lon="3.42418">
        <ele>63.49</ele>
        <time>2021-06-20T07:13:58.000Z</time>
      </trkpt>
      <trkpt lat="50.73907" lon="3.42429">
        <ele>63.3</ele>
        <time>2021-06-20T07:13:59.000Z</time>
      </trkpt>
      <trkpt lat="50.7391" lon="3.4244">
        <ele>63.2</ele>
        <time>2021-06-20T07:14:00.000Z</time>
      </trkpt>
      <trkpt lat="50.73914" lon="3.4245">
        <ele>63.25</ele>
        <time>2021-06-20T07:14:01.000Z</time>
      </trkpt>
      <trkpt lat="50.73918" lon="3.4246">
        <ele>63.25</ele>
        <time>2021-06-20T07:14:02.000Z</time>
      </trkpt>
      <trkpt lat="50.73922" lon="3.4247">
        <ele>63.34</ele>
        <time>2021-06-20T07:14:03.000Z</time>
      </trkpt>
      <trkpt lat="50.73925" lon="3.42478">
        <ele>63.35</ele>
        <time>2021-06-20T07:14:04.000Z</time>
      </trkpt>
      <trkpt lat="50.73928" lon="3.42487">
        <ele>63.25</ele>
        <time>2021-06-20T07:14:05.000Z</time>
      </trkpt>
      <trkpt lat="50.73928" lon="3.42497">
        <ele>63.25</ele>
        <time>2021-06-20T07:14:06.000Z</time>
      </trkpt>
      <trkpt lat="50.73926" lon="3.42506">
        <ele>63.27</ele>
        <time>2021-06-20T07:14:07.000Z</time>
      </trkpt>
      <trkpt lat="50.73922" lon="3.42513">
        <ele>63.37</ele>
        <time>2021-06-20T07:14:08.000Z</time>
      </trkpt>
      <trkpt lat="50.73916" lon="3.42517">
        <ele>63.32</ele>
        <time>2021-06-20T07:14:09.000Z</time>
      </trkpt>
      <trkpt lat="50.7391" lon="3.4252">
        <ele>63.3</ele>
        <time>2021-06-20T07:14:10.000Z</time>
      </trkpt>
      <trkpt lat="50.73904" lon="3.42524">
        <ele>63.47</ele>
        <time>2021-06-20T07:14:11.000Z</time>
      </trkpt>
      <trkpt lat="50.73897" lon="3.42528">
        <ele>63.37</ele>
        <time>2021-06-20T07:14:12.000Z</time>
      </trkpt>
      <trkpt lat="50.73891" lon="3.42532">
        <ele>63.5</ele>
        <time>2021-06-20T07:14:13.000Z</time>
      </trkpt>
      <trkpt lat="50.73884" lon="3.42535">
        <ele>63.62</ele>
        <time>2021-06-20T07:14:14.000Z</time>
      </trkpt>
      <trkpt lat="50.73878" lon="3.42539">
        <ele>63.63</ele>
        <time>2021-06-20T07:14:15.000Z</time>
      </trkpt>
      <trkpt lat="50.73871" lon="3.42543">
        <ele>63.72</ele>
        <time>2021-06-20T07:14:16.000Z</time>
      </trkpt>
      <trkpt lat="50.73865" lon="3.42547">
        <ele>63.68</ele>
        <time>2021-06-20T07:14:17.000Z</time>
      </trkpt>
      <trkpt lat="50.73858" lon="3.42552">
        <ele>63.9</ele>
        <time>2021-06-20T07:14:18.000Z</time>
      </trkpt>
      <trkpt lat="50.73851" lon="3.42555">
        <ele>64.15</ele>
        <time>2021-06-20T07:14:19.000Z</time>
      </trkpt>
      <trkpt lat="50.73845" lon="3.4256">
        <ele>64.25</ele>
        <time>2021-06-20T07:14:20.000Z</time>
      </trkpt>
      <trkpt lat="50.73838" lon="3.42564">
        <ele>64.24</ele>
        <time>2021-06-20T07:14:21.000Z</time>
      </trkpt>
      <trkpt lat="50.73832" lon="3.42567">
        <ele>64.12</ele>
        <time>2021-06-20T07:14:22.000Z</time>
      </trkpt>
      <trkpt lat="50.73825" lon="3.42571">
        <ele>64.31</ele>
        <time>2021-06-20T07:14:23.000Z</time>
      </trkpt>
      <trkpt lat="50.73819" lon="3.42575">
        <ele>64.59</ele>
        <time>2021-06-20T07:14:24.000Z</time>
      </trkpt>
      <trkpt lat="50.73812" lon="3.42579">
        <ele>64.79</ele>
        <time>2021-06-20T07:14:25.000Z</time>
      </trkpt>
      <trkpt lat="50.73806" lon="3.42583">
        <ele>65.01</ele>
        <time>2021-06-20T07:14:26.000Z</time>
      </trkpt>
      <trkpt lat="50.738" lon="3.42587">
        <ele>65</ele>
        <time>2021-06-20T07:14:27.000Z</time>
      </trkpt>
      <trkpt lat="50.73795" lon="3.42591">
        <ele>65.08</ele>
        <time>2021-06-20T07:14:28.000Z</time>
      </trkpt>
      <trkpt lat="50.73789" lon="3.42594">
        <ele>64.87</ele>
        <time>2021-06-20T07:14:29.000Z</time>
      </trkpt>
      <trkpt lat="50.73785" lon="3.42598">
        <ele>65.09</ele>
        <time>2021-06-20T07:14:30.000Z</time>
      </trkpt>
      <trkpt lat="50.73781" lon="3.42602">
        <ele>65.01</ele>
        <time>2021-06-20T07:14:31.000Z</time>
      </trkpt>
      <trkpt lat="50.73776" lon="3.42605">
        <ele>65.16</ele>
        <time>2021-06-20T07:14:32.000Z</time>
      </trkpt>
      <trkpt lat="50.73771" lon="3.42608">
        <ele>64.96</ele>
        <time>2021-06-20T07:14:33.000Z</time>
      </trkpt>
      <trkpt lat="50.73766" lon="3.4261">
        <ele>65.11</ele>
        <time>2021-06-20T07:14:34.000Z</time>
      </trkpt>
      <trkpt lat="50.73761" lon="3.42614">
        <ele>65.23</ele>
        <time>2021-06-20T07:14:35.000Z</time>
      </trkpt>
      <trkpt lat="50.73755" lon="3.42617">
        <ele>65.22</ele>
        <time>2021-06-20T07:14:36.000Z</time>
      </trkpt>
      <trkpt lat="50.73749" lon="3.4262">
        <ele>65.19</ele>
        <time>2021-06-20T07:14:37.000Z</time>
      </trkpt>
      <trkpt lat="50.73743" lon="3.42624">
        <ele>65.58</ele>
        <time>2021-06-20T07:14:38.000Z</time>
      </trkpt>
      <trkpt lat="50.73736" lon="3.42628">
        <ele>65.45</ele>
        <time>2021-06-20T07:14:39.000Z</time>
      </trkpt>
      <trkpt lat="50.7373" lon="3.42631">
        <ele>65.19</ele>
        <time>2021-06-20T07:14:40.000Z</time>
      </trkpt>
      <trkpt lat="50.73723" lon="3.42634">
        <ele>65.17</ele>
        <time>2021-06-20T07:14:41.000Z</time>
      </trkpt>
      <trkpt lat="50.73716" lon="3.42639">
        <ele>65.19</ele>
        <time>2021-06-20T07:14:42.000Z</time>
      </trkpt>
      <trkpt lat="50.73709" lon="3.42642">
        <ele>65.29</ele>
        <time>2021-06-20T07:14:43.000Z</time>
      </trkpt>
      <trkpt lat="50.73703" lon="3.42647">
        <ele>65.2</ele>
        <time>2021-06-20T07:14:44.000Z</time>
      </trkpt>
      <trkpt lat="50.73696" lon="3.42651">
        <ele>65.3</ele>
        <time>2021-06-20T07:14:45.000Z</time>
      </trkpt>
      <trkpt lat="50.73689" lon="3.42654">
        <ele>65.04</ele>
        <time>2021-06-20T07:14:46.000Z</time>
      </trkpt>
      <trkpt lat="50.73682" lon="3.42658">
        <ele>64.89</ele>
        <time>2021-06-20T07:14:47.000Z</time>
      </trkpt>
      <trkpt lat="50.73676" lon="3.42662">
        <ele>64.81</ele>
        <time>2021-06-20T07:14:48.000Z</time>
      </trkpt>
      <trkpt lat="50.73669" lon="3.42666">
        <ele>64.86</ele>
        <time>2021-06-20T07:14:49.000Z</time>
      </trkpt>
      <trkpt lat="50.73663" lon="3.4267">
        <ele>64.94</ele>
        <time>2021-06-20T07:14:50.000Z</time>
      </trkpt>
      <trkpt lat="50.73656" lon="3.42674">
        <ele>65.09</ele>
        <time>2021-06-20T07:14:51.000Z</time>
      </trkpt>
      <trkpt lat="50.7365" lon="3.42677">
        <ele>65.05</ele>
        <time>2021-06-20T07:14:52.000Z</time>
      </trkpt>
      <trkpt lat="50.73644" lon="3.42681">
        <ele>65.06</ele>
        <time>2021-06-20T07:14:53.000Z</time>
      </trkpt>
      <trkpt lat="50.73638" lon="3.42684">
        <ele>65.11</ele>
        <time>2021-06-20T07:14:54.000Z</time>
      </trkpt>
      <trkpt lat="50.73631" lon="3.42687">
        <ele>65.34</ele>
        <time>2021-06-20T07:14:55.000Z</time>
      </trkpt>
      <trkpt lat="50.73625" lon="3.42691">
        <ele>65.34</ele>
        <time>2021-06-20T07:14:56.000Z</time>
      </trkpt>
      <trkpt lat="50.73619" lon="3.42694">
        <ele>65.25</ele>
        <time>2021-06-20T07:14:57.000Z</time>
      </trkpt>
      <trkpt lat="50.73613" lon="3.42697">
        <ele>65.37</ele>
        <time>2021-06-20T07:14:58.000Z</time>
      </trkpt>
      <trkpt lat="50.73607" lon="3.42701">
        <ele>65.56</ele>
        <time>2021-06-20T07:14:59.000Z</time>
      </trkpt>
      <trkpt lat="50.736" lon="3.42705">
        <ele>65.67</ele>
        <time>2021-06-20T07:15:00.000Z</time>
      </trkpt>
      <trkpt lat="50.73593" lon="3.42708">
        <ele>65.65</ele>
        <time>2021-06-20T07:15:01.000Z</time>
      </trkpt>
      <trkpt lat="50.73586" lon="3.42712">
        <ele>65.66</ele>
        <time>2021-06-20T07:15:02.000Z</time>
      </trkpt>
      <trkpt lat="50.73579" lon="3.42715">
        <ele>65.46</ele>
        <time>2021-06-20T07:15:03.000Z</time>
      </trkpt>
      <trkpt lat="50.73572" lon="3.4272">
        <ele>65.46</ele>
        <time>2021-06-20T07:15:04.000Z</time>
      </trkpt>
      <trkpt lat="50.73566" lon="3.42725">
        <ele>65.31</ele>
        <time>2021-06-20T07:15:05.000Z</time>
      </trkpt>
      <trkpt lat="50.73559" lon="3.42729">
        <ele>65.55</ele>
        <time>2021-06-20T07:15:06.000Z</time>
      </trkpt>
      <trkpt lat="50.73552" lon="3.42733">
        <ele>65.26</ele>
        <time>2021-06-20T07:15:07.000Z</time>
      </trkpt>
      <trkpt lat="50.73546" lon="3.42738">
        <ele>65.12</ele>
        <time>2021-06-20T07:15:08.000Z</time>
      </trkpt>
      <trkpt lat="50.73539" lon="3.42742">
        <ele>65.43</ele>
        <time>2021-06-20T07:15:09.000Z</time>
      </trkpt>
      <trkpt lat="50.73532" lon="3.42747">
        <ele>65.35</ele>
        <time>2021-06-20T07:15:10.000Z</time>
      </trkpt>
      <trkpt lat="50.73526" lon="3.4275">
        <ele>65.27</ele>
        <time>2021-06-20T07:15:11.000Z</time>
      </trkpt>
      <trkpt lat="50.73519" lon="3.42755">
        <ele>65.2</ele>
        <time>2021-06-20T07:15:12.000Z</time>
      </trkpt>
      <trkpt lat="50.73513" lon="3.4276">
        <ele>65.28</ele>
        <time>2021-06-20T07:15:13.000Z</time>
      </trkpt>
      <trkpt lat="50.73507" lon="3.42764">
        <ele>65.25</ele>
        <time>2021-06-20T07:15:14.000Z</time>
      </trkpt>
      <trkpt lat="50.73501" lon="3.42768">
        <ele>65.36</ele>
        <time>2021-06-20T07:15:15.000Z</time>
      </trkpt>
      <trkpt lat="50.73495" lon="3.42769">
        <ele>65.34</ele>
        <time>2021-06-20T07:15:16.000Z</time>
      </trkpt>
      <trkpt lat="50.73489" lon="3.42769">
        <ele>65.15</ele>
        <time>2021-06-20T07:15:18.000Z</time>
      </trkpt>
      <trkpt lat="50.73484" lon="3.42765">
        <ele>64.96</ele>
        <time>2021-06-20T07:15:20.000Z</time>
      </trkpt>
      <trkpt lat="50.73481" lon="3.4276">
        <ele>64.92</ele>
        <time>2021-06-20T07:15:24.000Z</time>
      </trkpt>
      <trkpt lat="50.73477" lon="3.42752">
        <ele>64.55</ele>
        <time>2021-06-20T07:15:27.000Z</time>
      </trkpt>
      <trkpt lat="50.73473" lon="3.42747">
        <ele>64.88</ele>
        <time>2021-06-20T07:15:29.000Z</time>
      </trkpt>
      <trkpt lat="50.7347" lon="3.42739">
        <ele>64.55</ele>
        <time>2021-06-20T07:15:31.000Z</time>
      </trkpt>
      <trkpt lat="50.73465" lon="3.42729">
        <ele>64.4</ele>
        <time>2021-06-20T07:15:33.000Z</time>
      </trkpt>
      <trkpt lat="50.7346" lon="3.42718">
        <ele>64.28</ele>
        <time>2021-06-20T07:15:35.000Z</time>
      </trkpt>
      <trkpt lat="50.73455" lon="3.42706">
        <ele>64.57</ele>
        <time>2021-06-20T07:15:37.000Z</time>
      </trkpt>
      <trkpt lat="50.73452" lon="3.427">
        <ele>64.78</ele>
        <time>2021-06-20T07:15:38.000Z</time>
      </trkpt>
      <trkpt lat="50.73449" lon="3.42694">
        <ele>65</ele>
        <time>2021-06-20T07:15:39.000Z</time>
      </trkpt>
      <trkpt lat="50.73446" lon="3.42687">
        <ele>64.95</ele>
        <time>2021-06-20T07:15:40.000Z</time>
      </trkpt>
      <trkpt lat="50.73443" lon="3.42681">
        <ele>65.06</ele>
        <time>2021-06-20T07:15:41.000Z</time>
      </trkpt>
      <trkpt lat="50.7344" lon="3.42674">
        <ele>65.05</ele>
        <time>2021-06-20T07:15:42.000Z</time>
      </trkpt>
      <trkpt lat="50.73437" lon="3.42667">
        <ele>65.19</ele>
        <time>2021-06-20T07:15:43.000Z</time>
      </trkpt>
      <trkpt lat="50.73434" lon="3.4266">
        <ele>65.11</ele>
        <time>2021-06-20T07:15:44.000Z</time>
      </trkpt>
      <trkpt lat="50.73431" lon="3.42653">
        <ele>65.06</ele>
        <time>2021-06-20T07:15:45.000Z</time>
      </trkpt>
      <trkpt lat="50.73428" lon="3.42646">
        <ele>65.08</ele>
        <time>2021-06-20T07:15:46.000Z</time>
      </trkpt>
      <trkpt lat="50.73425" lon="3.4264">
        <ele>65.3</ele>
        <time>2021-06-20T07:15:47.000Z</time>
      </trkpt>
      <trkpt lat="50.73422" lon="3.42634">
        <ele>65.32</ele>
        <time>2021-06-20T07:15:48.000Z</time>
      </trkpt>
      <trkpt lat="50.73417" lon="3.42623">
        <ele>65.51</ele>
        <time>2021-06-20T07:15:50.000Z</time>
      </trkpt>
      <trkpt lat="50.73412" lon="3.42611">
        <ele>65.62</ele>
        <time>2021-06-20T07:15:52.000Z</time>
      </trkpt>
      <trkpt lat="50.73409" lon="3.42605">
        <ele>65.12</ele>
        <time>2021-06-20T07:15:53.000Z</time>
      </trkpt>
      <trkpt lat="50.73406" lon="3.42598">
        <ele>64.97</ele>
        <time>2021-06-20T07:15:54.000Z</time>
      </trkpt>
      <trkpt lat="50.73403" lon="3.42591">
        <ele>64.76</ele>
        <time>2021-06-20T07:15:55.000Z</time>
      </trkpt>
      <trkpt lat="50.73401" lon="3.42583">
        <ele>64.47</ele>
        <time>2021-06-20T07:15:56.000Z</time>
      </trkpt>
      <trkpt lat="50.73398" lon="3.42576">
        <ele>64.05</ele>
        <time>2021-06-20T07:15:57.000Z</time>
      </trkpt>
      <trkpt lat="50.73396" lon="3.42569">
        <ele>63.92</ele>
        <time>2021-06-20T07:15:58.000Z</time>
      </trkpt>
      <trkpt lat="50.73394" lon="3.42562">
        <ele>63.84</ele>
        <time>2021-06-20T07:15:59.000Z</time>
      </trkpt>
      <trkpt lat="50.73392" lon="3.42556">
        <ele>63.97</ele>
        <time>2021-06-20T07:16:00.000Z</time>
      </trkpt>
      <trkpt lat="50.73385" lon="3.42551">
        <ele>63.84</ele>
        <time>2021-06-20T07:16:02.000Z</time>
      </trkpt>
      <trkpt lat="50.7338" lon="3.42551">
        <ele>63.7</ele>
        <time>2021-06-20T07:16:03.000Z</time>
      </trkpt>
      <trkpt lat="50.73371" lon="3.42557">
        <ele>63.65</ele>
        <time>2021-06-20T07:16:05.000Z</time>
      </trkpt>
      <trkpt lat="50.73367" lon="3.42561">
        <ele>63.7</ele>
        <time>2021-06-20T07:16:06.000Z</time>
      </trkpt>
      <trkpt lat="50.73362" lon="3.42566">
        <ele>63.76</ele>
        <time>2021-06-20T07:16:07.000Z</time>
      </trkpt>
      <trkpt lat="50.73358" lon="3.42571">
        <ele>63.51</ele>
        <time>2021-06-20T07:16:08.000Z</time>
      </trkpt>
      <trkpt lat="50.73353" lon="3.42575">
        <ele>63.56</ele>
        <time>2021-06-20T07:16:09.000Z</time>
      </trkpt>
      <trkpt lat="50.73349" lon="3.4258">
        <ele>63.3</ele>
        <time>2021-06-20T07:16:10.000Z</time>
      </trkpt>
      <trkpt lat="50.73344" lon="3.42585">
        <ele>63.32</ele>
        <time>2021-06-20T07:16:11.000Z</time>
      </trkpt>
      <trkpt lat="50.73339" lon="3.42589">
        <ele>63.12</ele>
        <time>2021-06-20T07:16:12.000Z</time>
      </trkpt>
      <trkpt lat="50.73334" lon="3.42594">
        <ele>63.2</ele>
        <time>2021-06-20T07:16:13.000Z</time>
      </trkpt>
      <trkpt lat="50.7333" lon="3.42599">
        <ele>63.3</ele>
        <time>2021-06-20T07:16:14.000Z</time>
      </trkpt>
      <trkpt lat="50.73325" lon="3.42604">
        <ele>62.21</ele>
        <time>2021-06-20T07:16:15.000Z</time>
      </trkpt>
      <trkpt lat="50.73321" lon="3.42611">
        <ele>62.35</ele>
        <time>2021-06-20T07:16:16.000Z</time>
      </trkpt>
      <trkpt lat="50.73316" lon="3.42617">
        <ele>63.03</ele>
        <time>2021-06-20T07:16:17.000Z</time>
      </trkpt>
      <trkpt lat="50.73311" lon="3.42623">
        <ele>62.78</ele>
        <time>2021-06-20T07:16:18.000Z</time>
      </trkpt>
      <trkpt lat="50.73306" lon="3.42628">
        <ele>62.78</ele>
        <time>2021-06-20T07:16:19.000Z</time>
      </trkpt>
      <trkpt lat="50.73301" lon="3.42633">
        <ele>62.74</ele>
        <time>2021-06-20T07:16:20.000Z</time>
      </trkpt>
      <trkpt lat="50.73296" lon="3.4264">
        <ele>61.76</ele>
        <time>2021-06-20T07:16:21.000Z</time>
      </trkpt>
      <trkpt lat="50.73291" lon="3.42646">
        <ele>61.82</ele>
        <time>2021-06-20T07:16:22.000Z</time>
      </trkpt>
      <trkpt lat="50.73286" lon="3.42652">
        <ele>61.99</ele>
        <time>2021-06-20T07:16:23.000Z</time>
      </trkpt>
      <trkpt lat="50.73281" lon="3.42659">
        <ele>62.39</ele>
        <time>2021-06-20T07:16:24.000Z</time>
      </trkpt>
      <trkpt lat="50.73276" lon="3.42665">
        <ele>62.52</ele>
        <time>2021-06-20T07:16:25.000Z</time>
      </trkpt>
      <trkpt lat="50.7327" lon="3.42671">
        <ele>62.43</ele>
        <time>2021-06-20T07:16:26.000Z</time>
      </trkpt>
      <trkpt lat="50.73265" lon="3.42676">
        <ele>62.47</ele>
        <time>2021-06-20T07:16:27.000Z</time>
      </trkpt>
      <trkpt lat="50.7326" lon="3.42682">
        <ele>62.25</ele>
        <time>2021-06-20T07:16:28.000Z</time>
      </trkpt>
      <trkpt lat="50.73255" lon="3.42689">
        <ele>62.49</ele>
        <time>2021-06-20T07:16:29.000Z</time>
      </trkpt>
      <trkpt lat="50.73249" lon="3.42695">
        <ele>62.75</ele>
        <time>2021-06-20T07:16:30.000Z</time>
      </trkpt>
      <trkpt lat="50.73244" lon="3.42702">
        <ele>62.92</ele>
        <time>2021-06-20T07:16:31.000Z</time>
      </trkpt>
      <trkpt lat="50.73239" lon="3.42708">
        <ele>62.98</ele>
        <time>2021-06-20T07:16:32.000Z</time>
      </trkpt>
      <trkpt lat="50.73234" lon="3.42714">
        <ele>62.93</ele>
        <time>2021-06-20T07:16:33.000Z</time>
      </trkpt>
      <trkpt lat="50.73228" lon="3.4272">
        <ele>62.92</ele>
        <time>2021-06-20T07:16:34.000Z</time>
      </trkpt>
      <trkpt lat="50.73223" lon="3.42727">
        <ele>63.37</ele>
        <time>2021-06-20T07:16:35.000Z</time>
      </trkpt>
      <trkpt lat="50.73218" lon="3.42734">
        <ele>63.4</ele>
        <time>2021-06-20T07:16:36.000Z</time>
      </trkpt>
      <trkpt lat="50.73213" lon="3.4274">
        <ele>63.42</ele>
        <time>2021-06-20T07:16:37.000Z</time>
      </trkpt>
      <trkpt lat="50.73208" lon="3.42747">
        <ele>63.54</ele>
        <time>2021-06-20T07:16:38.000Z</time>
      </trkpt>
      <trkpt lat="50.73203" lon="3.42754">
        <ele>63.45</ele>
        <time>2021-06-20T07:16:39.000Z</time>
      </trkpt>
      <trkpt lat="50.73198" lon="3.4276">
        <ele>63.58</ele>
        <time>2021-06-20T07:16:40.000Z</time>
      </trkpt>
      <trkpt lat="50.73192" lon="3.42766">
        <ele>63.58</ele>
        <time>2021-06-20T07:16:41.000Z</time>
      </trkpt>
      <trkpt lat="50.73187" lon="3.42773">
        <ele>63.64</ele>
        <time>2021-06-20T07:16:42.000Z</time>
      </trkpt>
      <trkpt lat="50.73182" lon="3.42779">
        <ele>63.64</ele>
        <time>2021-06-20T07:16:43.000Z</time>
      </trkpt>
      <trkpt lat="50.73177" lon="3.42785">
        <ele>63.75</ele>
        <time>2021-06-20T07:16:44.000Z</time>
      </trkpt>
      <trkpt lat="50.73172" lon="3.42791">
        <ele>63.6</ele>
        <time>2021-06-20T07:16:45.000Z</time>
      </trkpt>
      <trkpt lat="50.73168" lon="3.42798">
        <ele>63.76</ele>
        <time>2021-06-20T07:16:46.000Z</time>
      </trkpt>
      <trkpt lat="50.73162" lon="3.42803">
        <ele>64.07</ele>
        <time>2021-06-20T07:16:47.000Z</time>
      </trkpt>
      <trkpt lat="50.73157" lon="3.4281">
        <ele>63.87</ele>
        <time>2021-06-20T07:16:48.000Z</time>
      </trkpt>
      <trkpt lat="50.73152" lon="3.42816">
        <ele>63.83</ele>
        <time>2021-06-20T07:16:49.000Z</time>
      </trkpt>
      <trkpt lat="50.73147" lon="3.42823">
        <ele>63.75</ele>
        <time>2021-06-20T07:16:50.000Z</time>
      </trkpt>
      <trkpt lat="50.73142" lon="3.42829">
        <ele>63.32</ele>
        <time>2021-06-20T07:16:51.000Z</time>
      </trkpt>
      <trkpt lat="50.73138" lon="3.42836">
        <ele>63.44</ele>
        <time>2021-06-20T07:16:52.000Z</time>
      </trkpt>
      <trkpt lat="50.73136" lon="3.42845">
        <ele>63.7</ele>
        <time>2021-06-20T07:16:53.000Z</time>
      </trkpt>
      <trkpt lat="50.73136" lon="3.42854">
        <ele>63.68</ele>
        <time>2021-06-20T07:16:54.000Z</time>
      </trkpt>
      <trkpt lat="50.73138" lon="3.42863">
        <ele>62.99</ele>
        <time>2021-06-20T07:16:55.000Z</time>
      </trkpt>
      <trkpt lat="50.73143" lon="3.42871">
        <ele>63.41</ele>
        <time>2021-06-20T07:16:56.000Z</time>
      </trkpt>
      <trkpt lat="50.73146" lon="3.42879">
        <ele>62.89</ele>
        <time>2021-06-20T07:16:57.000Z</time>
      </trkpt>
      <trkpt lat="50.7315" lon="3.42888">
        <ele>62.69</ele>
        <time>2021-06-20T07:16:58.000Z</time>
      </trkpt>
      <trkpt lat="50.73154" lon="3.42897">
        <ele>62.51</ele>
        <time>2021-06-20T07:16:59.000Z</time>
      </trkpt>
      <trkpt lat="50.73158" lon="3.42906">
        <ele>62.07</ele>
        <time>2021-06-20T07:17:00.000Z</time>
      </trkpt>
      <trkpt lat="50.73162" lon="3.42916">
        <ele>61.76</ele>
        <time>2021-06-20T07:17:01.000Z</time>
      </trkpt>
      <trkpt lat="50.73166" lon="3.42924">
        <ele>61.4</ele>
        <time>2021-06-20T07:17:02.000Z</time>
      </trkpt>
      <trkpt lat="50.7317" lon="3.42934">
        <ele>61.54</ele>
        <time>2021-06-20T07:17:03.000Z</time>
      </trkpt>
      <trkpt lat="50.73175" lon="3.42944">
        <ele>61.29</ele>
        <time>2021-06-20T07:17:04.000Z</time>
      </trkpt>
      <trkpt lat="50.73179" lon="3.42954">
        <ele>60.99</ele>
        <time>2021-06-20T07:17:05.000Z</time>
      </trkpt>
      <trkpt lat="50.73183" lon="3.42964">
        <ele>60.98</ele>
        <time>2021-06-20T07:17:06.000Z</time>
      </trkpt>
      <trkpt lat="50.73187" lon="3.42974">
        <ele>60.45</ele>
        <time>2021-06-20T07:17:07.000Z</time>
      </trkpt>
      <trkpt lat="50.73192" lon="3.42984">
        <ele>60.28</ele>
        <time>2021-06-20T07:17:08.000Z</time>
      </trkpt>
      <trkpt lat="50.73196" lon="3.42994">
        <ele>60.23</ele>
        <time>2021-06-20T07:17:09.000Z</time>
      </trkpt>
      <trkpt lat="50.73201" lon="3.43004">
        <ele>60.12</ele>
        <time>2021-06-20T07:17:10.000Z</time>
      </trkpt>
      <trkpt lat="50.73206" lon="3.43014">
        <ele>60.23</ele>
        <time>2021-06-20T07:17:11.000Z</time>
      </trkpt>
      <trkpt lat="50.7321" lon="3.43023">
        <ele>60.13</ele>
        <time>2021-06-20T07:17:12.000Z</time>
      </trkpt>
      <trkpt lat="50.73215" lon="3.43033">
        <ele>60.03</ele>
        <time>2021-06-20T07:17:13.000Z</time>
      </trkpt>
      <trkpt lat="50.73219" lon="3.43043">
        <ele>59.97</ele>
        <time>2021-06-20T07:17:14.000Z</time>
      </trkpt>
      <trkpt lat="50.73224" lon="3.43053">
        <ele>59.96</ele>
        <time>2021-06-20T07:17:15.000Z</time>
      </trkpt>
      <trkpt lat="50.73228" lon="3.43063">
        <ele>59.55</ele>
        <time>2021-06-20T07:17:16.000Z</time>
      </trkpt>
      <trkpt lat="50.73233" lon="3.43073">
        <ele>59.37</ele>
        <time>2021-06-20T07:17:17.000Z</time>
      </trkpt>
      <trkpt lat="50.73237" lon="3.43084">
        <ele>59.52</ele>
        <time>2021-06-20T07:17:18.000Z</time>
      </trkpt>
      <trkpt lat="50.73242" lon="3.43094">
        <ele>59.52</ele>
        <time>2021-06-20T07:17:19.000Z</time>
      </trkpt>
      <trkpt lat="50.73247" lon="3.43104">
        <ele>59.57</ele>
        <time>2021-06-20T07:17:20.000Z</time>
      </trkpt>
      <trkpt lat="50.73253" lon="3.43113">
        <ele>59.62</ele>
        <time>2021-06-20T07:17:21.000Z</time>
      </trkpt>
      <trkpt lat="50.73258" lon="3.43122">
        <ele>59.84</ele>
        <time>2021-06-20T07:17:22.000Z</time>
      </trkpt>
      <trkpt lat="50.73264" lon="3.4313">
        <ele>60</ele>
        <time>2021-06-20T07:17:23.000Z</time>
      </trkpt>
      <trkpt lat="50.7327" lon="3.43139">
        <ele>60.21</ele>
        <time>2021-06-20T07:17:24.000Z</time>
      </trkpt>
      <trkpt lat="50.73277" lon="3.43146">
        <ele>60.41</ele>
        <time>2021-06-20T07:17:25.000Z</time>
      </trkpt>
      <trkpt lat="50.73283" lon="3.43153">
        <ele>60.6</ele>
        <time>2021-06-20T07:17:26.000Z</time>
      </trkpt>
      <trkpt lat="50.73288" lon="3.4316">
        <ele>60.54</ele>
        <time>2021-06-20T07:17:27.000Z</time>
      </trkpt>
      <trkpt lat="50.73292" lon="3.43166">
        <ele>60.79</ele>
        <time>2021-06-20T07:17:28.000Z</time>
      </trkpt>
      <trkpt lat="50.73295" lon="3.43171">
        <ele>60.94</ele>
        <time>2021-06-20T07:17:29.000Z</time>
      </trkpt>
      <trkpt lat="50.73298" lon="3.43179">
        <ele>61.1</ele>
        <time>2021-06-20T07:17:31.000Z</time>
      </trkpt>
      <trkpt lat="50.73302" lon="3.43185">
        <ele>61.5</ele>
        <time>2021-06-20T07:17:34.000Z</time>
      </trkpt>
      <trkpt lat="50.73307" lon="3.43189">
        <ele>61.41</ele>
        <time>2021-06-20T07:17:36.000Z</time>
      </trkpt>
      <trkpt lat="50.73314" lon="3.43193">
        <ele>61.64</ele>
        <time>2021-06-20T07:17:38.000Z</time>
      </trkpt>
      <trkpt lat="50.73318" lon="3.43194">
        <ele>61.69</ele>
        <time>2021-06-20T07:17:39.000Z</time>
      </trkpt>
      <trkpt lat="50.73324" lon="3.43195">
        <ele>61.73</ele>
        <time>2021-06-20T07:17:40.000Z</time>
      </trkpt>
      <trkpt lat="50.73329" lon="3.43196">
        <ele>62.04</ele>
        <time>2021-06-20T07:17:41.000Z</time>
      </trkpt>
      <trkpt lat="50.73334" lon="3.43198">
        <ele>62.05</ele>
        <time>2021-06-20T07:17:42.000Z</time>
      </trkpt>
      <trkpt lat="50.7334" lon="3.432">
        <ele>62.23</ele>
        <time>2021-06-20T07:17:43.000Z</time>
      </trkpt>
      <trkpt lat="50.73346" lon="3.43201">
        <ele>62.49</ele>
        <time>2021-06-20T07:17:44.000Z</time>
      </trkpt>
      <trkpt lat="50.73352" lon="3.43203">
        <ele>62.67</ele>
        <time>2021-06-20T07:17:45.000Z</time>
      </trkpt>
      <trkpt lat="50.73358" lon="3.43205">
        <ele>62.72</ele>
        <time>2021-06-20T07:17:46.000Z</time>
      </trkpt>
      <trkpt lat="50.73364" lon="3.43207">
        <ele>62.46</ele>
        <time>2021-06-20T07:17:47.000Z</time>
      </trkpt>
      <trkpt lat="50.7337" lon="3.43209">
        <ele>62.35</ele>
        <time>2021-06-20T07:17:48.000Z</time>
      </trkpt>
      <trkpt lat="50.73377" lon="3.4321">
        <ele>62.03</ele>
        <time>2021-06-20T07:17:49.000Z</time>
      </trkpt>
      <trkpt lat="50.73383" lon="3.43212">
        <ele>61.94</ele>
        <time>2021-06-20T07:17:50.000Z</time>
      </trkpt>
      <trkpt lat="50.7339" lon="3.43214">
        <ele>61.84</ele>
        <time>2021-06-20T07:17:51.000Z</time>
      </trkpt>
      <trkpt lat="50.73396" lon="3.43216">
        <ele>61.81</ele>
        <time>2021-06-20T07:17:52.000Z</time>
      </trkpt>
      <trkpt lat="50.73402" lon="3.43217">
        <ele>61.83</ele>
        <time>2021-06-20T07:17:53.000Z</time>
      </trkpt>
      <trkpt lat="50.73409" lon="3.43219">
        <ele>61.67</ele>
        <time>2021-06-20T07:17:54.000Z</time>
      </trkpt>
      <trkpt lat="50.73416" lon="3.43221">
        <ele>61.56</ele>
        <time>2021-06-20T07:17:55.000Z</time>
      </trkpt>
      <trkpt lat="50.73422" lon="3.43223">
        <ele>61.42</ele>
        <time>2021-06-20T07:17:56.000Z</time>
      </trkpt>
      <trkpt lat="50.73429" lon="3.43225">
        <ele>61.67</ele>
        <time>2021-06-20T07:17:57.000Z</time>
      </trkpt>
      <trkpt lat="50.73436" lon="3.43228">
        <ele>61.94</ele>
        <time>2021-06-20T07:17:58.000Z</time>
      </trkpt>
      <trkpt lat="50.73443" lon="3.43229">
        <ele>61.9</ele>
        <time>2021-06-20T07:17:59.000Z</time>
      </trkpt>
      <trkpt lat="50.7345" lon="3.43231">
        <ele>62.17</ele>
        <time>2021-06-20T07:18:00.000Z</time>
      </trkpt>
      <trkpt lat="50.73457" lon="3.43233">
        <ele>62.2</ele>
        <time>2021-06-20T07:18:01.000Z</time>
      </trkpt>
      <trkpt lat="50.73464" lon="3.43234">
        <ele>62.11</ele>
        <time>2021-06-20T07:18:02.000Z</time>
      </trkpt>
      <trkpt lat="50.73471" lon="3.43236">
        <ele>62.07</ele>
        <time>2021-06-20T07:18:03.000Z</time>
      </trkpt>
      <trkpt lat="50.73478" lon="3.43238">
        <ele>62.05</ele>
        <time>2021-06-20T07:18:04.000Z</time>
      </trkpt>
      <trkpt lat="50.73485" lon="3.4324">
        <ele>61.97</ele>
        <time>2021-06-20T07:18:05.000Z</time>
      </trkpt>
      <trkpt lat="50.73493" lon="3.43242">
        <ele>61.69</ele>
        <time>2021-06-20T07:18:06.000Z</time>
      </trkpt>
      <trkpt lat="50.735" lon="3.43244">
        <ele>61.49</ele>
        <time>2021-06-20T07:18:07.000Z</time>
      </trkpt>
      <trkpt lat="50.73507" lon="3.43246">
        <ele>61.42</ele>
        <time>2021-06-20T07:18:08.000Z</time>
      </trkpt>
      <trkpt lat="50.73515" lon="3.43248">
        <ele>61.39</ele>
        <time>2021-06-20T07:18:09.000Z</time>
      </trkpt>
      <trkpt lat="50.73523" lon="3.4325">
        <ele>61.36</ele>
        <time>2021-06-20T07:18:10.000Z</time>
      </trkpt>
      <trkpt lat="50.7353" lon="3.43252">
        <ele>61.38</ele>
        <time>2021-06-20T07:18:11.000Z</time>
      </trkpt>
      <trkpt lat="50.73538" lon="3.43254">
        <ele>61.2</ele>
        <time>2021-06-20T07:18:12.000Z</time>
      </trkpt>
      <trkpt lat="50.73545" lon="3.43257">
        <ele>61.24</ele>
        <time>2021-06-20T07:18:13.000Z</time>
      </trkpt>
      <trkpt lat="50.73553" lon="3.43259">
        <ele>61.37</ele>
        <time>2021-06-20T07:18:14.000Z</time>
      </trkpt>
      <trkpt lat="50.73561" lon="3.43261">
        <ele>61.58</ele>
        <time>2021-06-20T07:18:15.000Z</time>
      </trkpt>
      <trkpt lat="50.73569" lon="3.43263">
        <ele>61.38</ele>
        <time>2021-06-20T07:18:16.000Z</time>
      </trkpt>
      <trkpt lat="50.73577" lon="3.43265">
        <ele>61.56</ele>
        <time>2021-06-20T07:18:17.000Z</time>
      </trkpt>
      <trkpt lat="50.73585" lon="3.43267">
        <ele>61.49</ele>
        <time>2021-06-20T07:18:18.000Z</time>
      </trkpt>
      <trkpt lat="50.73593" lon="3.43269">
        <ele>61.5</ele>
        <time>2021-06-20T07:18:19.000Z</time>
      </trkpt>
      <trkpt lat="50.73601" lon="3.4327">
        <ele>61.25</ele>
        <time>2021-06-20T07:18:20.000Z</time>
      </trkpt>
      <trkpt lat="50.73609" lon="3.43272">
        <ele>61.26</ele>
        <time>2021-06-20T07:18:21.000Z</time>
      </trkpt>
      <trkpt lat="50.73617" lon="3.43274">
        <ele>61.3</ele>
        <time>2021-06-20T07:18:22.000Z</time>
      </trkpt>
      <trkpt lat="50.73625" lon="3.43277">
        <ele>61.47</ele>
        <time>2021-06-20T07:18:23.000Z</time>
      </trkpt>
      <trkpt lat="50.73633" lon="3.4328">
        <ele>61.53</ele>
        <time>2021-06-20T07:18:24.000Z</time>
      </trkpt>
      <trkpt lat="50.7364" lon="3.43283">
        <ele>61.53</ele>
        <time>2021-06-20T07:18:25.000Z</time>
      </trkpt>
      <trkpt lat="50.73648" lon="3.43287">
        <ele>61.5</ele>
        <time>2021-06-20T07:18:26.000Z</time>
      </trkpt>
      <trkpt lat="50.73656" lon="3.43293">
        <ele>61.6</ele>
        <time>2021-06-20T07:18:27.000Z</time>
      </trkpt>
      <trkpt lat="50.73663" lon="3.43298">
        <ele>61.69</ele>
        <time>2021-06-20T07:18:28.000Z</time>
      </trkpt>
      <trkpt lat="50.73671" lon="3.43303">
        <ele>61.85</ele>
        <time>2021-06-20T07:18:29.000Z</time>
      </trkpt>
      <trkpt lat="50.73678" lon="3.43309">
        <ele>61.7</ele>
        <time>2021-06-20T07:18:30.000Z</time>
      </trkpt>
      <trkpt lat="50.73685" lon="3.43314">
        <ele>61.56</ele>
        <time>2021-06-20T07:18:31.000Z</time>
      </trkpt>
      <trkpt lat="50.73692" lon="3.43319">
        <ele>61.68</ele>
        <time>2021-06-20T07:18:32.000Z</time>
      </trkpt>
      <trkpt lat="50.73699" lon="3.43324">
        <ele>62.46</ele>
        <time>2021-06-20T07:18:33.000Z</time>
      </trkpt>
      <trkpt lat="50.73706" lon="3.43329">
        <ele>62.01</ele>
        <time>2021-06-20T07:18:34.000Z</time>
      </trkpt>
      <trkpt lat="50.73713" lon="3.43334">
        <ele>61.75</ele>
        <time>2021-06-20T07:18:35.000Z</time>
      </trkpt>
      <trkpt lat="50.73719" lon="3.43339">
        <ele>61.62</ele>
        <time>2021-06-20T07:18:36.000Z</time>
      </trkpt>
      <trkpt lat="50.73725" lon="3.43344">
        <ele>61.42</ele>
        <time>2021-06-20T07:18:37.000Z</time>
      </trkpt>
      <trkpt lat="50.7373" lon="3.43353">
        <ele>61.33</ele>
        <time>2021-06-20T07:18:38.000Z</time>
      </trkpt>
      <trkpt lat="50.73732" lon="3.43362">
        <ele>61.18</ele>
        <time>2021-06-20T07:18:39.000Z</time>
      </trkpt>
      <trkpt lat="50.73734" lon="3.4337">
        <ele>61.24</ele>
        <time>2021-06-20T07:18:40.000Z</time>
      </trkpt>
      <trkpt lat="50.73735" lon="3.43378">
        <ele>61.05</ele>
        <time>2021-06-20T07:18:41.000Z</time>
      </trkpt>
      <trkpt lat="50.73737" lon="3.43391">
        <ele>61.33</ele>
        <time>2021-06-20T07:18:43.000Z</time>
      </trkpt>
      <trkpt lat="50.73737" lon="3.43402">
        <ele>61.62</ele>
        <time>2021-06-20T07:18:45.000Z</time>
      </trkpt>
      <trkpt lat="50.73739" lon="3.43414">
        <ele>61.42</ele>
        <time>2021-06-20T07:18:47.000Z</time>
      </trkpt>
      <trkpt lat="50.7374" lon="3.43426">
        <ele>61.68</ele>
        <time>2021-06-20T07:18:49.000Z</time>
      </trkpt>
      <trkpt lat="50.7374" lon="3.43439">
        <ele>61.83</ele>
        <time>2021-06-20T07:18:51.000Z</time>
      </trkpt>
      <trkpt lat="50.73738" lon="3.43447">
        <ele>61.96</ele>
        <time>2021-06-20T07:18:52.000Z</time>
      </trkpt>
      <trkpt lat="50.73737" lon="3.43454">
        <ele>61.82</ele>
        <time>2021-06-20T07:18:53.000Z</time>
      </trkpt>
      <trkpt lat="50.73735" lon="3.43462">
        <ele>61.93</ele>
        <time>2021-06-20T07:18:54.000Z</time>
      </trkpt>
      <trkpt lat="50.73733" lon="3.43469">
        <ele>62.03</ele>
        <time>2021-06-20T07:18:55.000Z</time>
      </trkpt>
      <trkpt lat="50.73731" lon="3.43477">
        <ele>62.17</ele>
        <time>2021-06-20T07:18:56.000Z</time>
      </trkpt>
      <trkpt lat="50.73729" lon="3.43485">
        <ele>62.08</ele>
        <time>2021-06-20T07:18:57.000Z</time>
      </trkpt>
      <trkpt lat="50.73727" lon="3.43493">
        <ele>62.26</ele>
        <time>2021-06-20T07:18:58.000Z</time>
      </trkpt>
      <trkpt lat="50.73724" lon="3.43501">
        <ele>62.71</ele>
        <time>2021-06-20T07:18:59.000Z</time>
      </trkpt>
      <trkpt lat="50.73723" lon="3.43509">
        <ele>62.85</ele>
        <time>2021-06-20T07:19:00.000Z</time>
      </trkpt>
      <trkpt lat="50.73721" lon="3.43517">
        <ele>62.8</ele>
        <time>2021-06-20T07:19:01.000Z</time>
      </trkpt>
      <trkpt lat="50.73719" lon="3.43525">
        <ele>62.94</ele>
        <time>2021-06-20T07:19:02.000Z</time>
      </trkpt>
      <trkpt lat="50.73717" lon="3.43534">
        <ele>63.41</ele>
        <time>2021-06-20T07:19:03.000Z</time>
      </trkpt>
      <trkpt lat="50.73715" lon="3.43542">
        <ele>63.43</ele>
        <time>2021-06-20T07:19:04.000Z</time>
      </trkpt>
      <trkpt lat="50.73714" lon="3.43551">
        <ele>63.35</ele>
        <time>2021-06-20T07:19:05.000Z</time>
      </trkpt>
      <trkpt lat="50.73712" lon="3.4356">
        <ele>63.75</ele>
        <time>2021-06-20T07:19:06.000Z</time>
      </trkpt>
      <trkpt lat="50.73711" lon="3.43569">
        <ele>63.84</ele>
        <time>2021-06-20T07:19:07.000Z</time>
      </trkpt>
      <trkpt lat="50.73709" lon="3.4358">
        <ele>64.44</ele>
        <time>2021-06-20T07:19:08.000Z</time>
      </trkpt>
      <trkpt lat="50.73708" lon="3.43589">
        <ele>64.51</ele>
        <time>2021-06-20T07:19:09.000Z</time>
      </trkpt>
      <trkpt lat="50.73707" lon="3.436">
        <ele>64.36</ele>
        <time>2021-06-20T07:19:10.000Z</time>
      </trkpt>
      <trkpt lat="50.73707" lon="3.43609">
        <ele>64.02</ele>
        <time>2021-06-20T07:19:11.000Z</time>
      </trkpt>
      <trkpt lat="50.73707" lon="3.4362">
        <ele>64.34</ele>
        <time>2021-06-20T07:19:12.000Z</time>
      </trkpt>
      <trkpt lat="50.73706" lon="3.4363">
        <ele>64.23</ele>
        <time>2021-06-20T07:19:13.000Z</time>
      </trkpt>
      <trkpt lat="50.73705" lon="3.43641">
        <ele>64.1</ele>
        <time>2021-06-20T07:19:14.000Z</time>
      </trkpt>
      <trkpt lat="50.73705" lon="3.43651">
        <ele>64.12</ele>
        <time>2021-06-20T07:19:15.000Z</time>
      </trkpt>
      <trkpt lat="50.73704" lon="3.43661">
        <ele>64.11</ele>
        <time>2021-06-20T07:19:16.000Z</time>
      </trkpt>
      <trkpt lat="50.73703" lon="3.43671">
        <ele>63.96</ele>
        <time>2021-06-20T07:19:17.000Z</time>
      </trkpt>
      <trkpt lat="50.73703" lon="3.43682">
        <ele>63.61</ele>
        <time>2021-06-20T07:19:18.000Z</time>
      </trkpt>
      <trkpt lat="50.73703" lon="3.43692">
        <ele>63.72</ele>
        <time>2021-06-20T07:19:19.000Z</time>
      </trkpt>
      <trkpt lat="50.73701" lon="3.43703">
        <ele>63.77</ele>
        <time>2021-06-20T07:19:20.000Z</time>
      </trkpt>
      <trkpt lat="50.73701" lon="3.43714">
        <ele>63.79</ele>
        <time>2021-06-20T07:19:21.000Z</time>
      </trkpt>
      <trkpt lat="50.737" lon="3.43724">
        <ele>63.62</ele>
        <time>2021-06-20T07:19:22.000Z</time>
      </trkpt>
      <trkpt lat="50.73699" lon="3.43735">
        <ele>63.45</ele>
        <time>2021-06-20T07:19:23.000Z</time>
      </trkpt>
      <trkpt lat="50.73699" lon="3.43745">
        <ele>63.54</ele>
        <time>2021-06-20T07:19:24.000Z</time>
      </trkpt>
      <trkpt lat="50.73698" lon="3.43756">
        <ele>63.56</ele>
        <time>2021-06-20T07:19:25.000Z</time>
      </trkpt>
      <trkpt lat="50.73698" lon="3.43767">
        <ele>63.35</ele>
        <time>2021-06-20T07:19:26.000Z</time>
      </trkpt>
      <trkpt lat="50.73697" lon="3.43777">
        <ele>63.28</ele>
        <time>2021-06-20T07:19:27.000Z</time>
      </trkpt>
      <trkpt lat="50.73697" lon="3.43788">
        <ele>63.37</ele>
        <time>2021-06-20T07:19:28.000Z</time>
      </trkpt>
      <trkpt lat="50.73696" lon="3.43799">
        <ele>63.69</ele>
        <time>2021-06-20T07:19:29.000Z</time>
      </trkpt>
      <trkpt lat="50.73696" lon="3.4381">
        <ele>63.77</ele>
        <time>2021-06-20T07:19:30.000Z</time>
      </trkpt>
      <trkpt lat="50.73695" lon="3.43821">
        <ele>63.79</ele>
        <time>2021-06-20T07:19:31.000Z</time>
      </trkpt>
      <trkpt lat="50.73694" lon="3.43832">
        <ele>63.64</ele>
        <time>2021-06-20T07:19:32.000Z</time>
      </trkpt>
      <trkpt lat="50.73694" lon="3.43843">
        <ele>63.79</ele>
        <time>2021-06-20T07:19:33.000Z</time>
      </trkpt>
      <trkpt lat="50.73693" lon="3.43854">
        <ele>63.84</ele>
        <time>2021-06-20T07:19:34.000Z</time>
      </trkpt>
      <trkpt lat="50.73693" lon="3.43865">
        <ele>63.68</ele>
        <time>2021-06-20T07:19:35.000Z</time>
      </trkpt>
      <trkpt lat="50.73692" lon="3.43876">
        <ele>63.48</ele>
        <time>2021-06-20T07:19:36.000Z</time>
      </trkpt>
      <trkpt lat="50.73692" lon="3.43887">
        <ele>63.41</ele>
        <time>2021-06-20T07:19:37.000Z</time>
      </trkpt>
      <trkpt lat="50.73692" lon="3.43899">
        <ele>63.12</ele>
        <time>2021-06-20T07:19:38.000Z</time>
      </trkpt>
      <trkpt lat="50.73692" lon="3.43911">
        <ele>63.03</ele>
        <time>2021-06-20T07:19:39.000Z</time>
      </trkpt>
      <trkpt lat="50.73692" lon="3.43923">
        <ele>63.11</ele>
        <time>2021-06-20T07:19:40.000Z</time>
      </trkpt>
      <trkpt lat="50.73693" lon="3.43935">
        <ele>62.99</ele>
        <time>2021-06-20T07:19:41.000Z</time>
      </trkpt>
      <trkpt lat="50.73693" lon="3.43947">
        <ele>62.78</ele>
        <time>2021-06-20T07:19:42.000Z</time>
      </trkpt>
      <trkpt lat="50.73694" lon="3.43959">
        <ele>62.56</ele>
        <time>2021-06-20T07:19:43.000Z</time>
      </trkpt>
      <trkpt lat="50.73694" lon="3.43971">
        <ele>62.42</ele>
        <time>2021-06-20T07:19:44.000Z</time>
      </trkpt>
      <trkpt lat="50.73695" lon="3.43983">
        <ele>62.38</ele>
        <time>2021-06-20T07:19:45.000Z</time>
      </trkpt>
      <trkpt lat="50.73695" lon="3.43995">
        <ele>62.3</ele>
        <time>2021-06-20T07:19:46.000Z</time>
      </trkpt>
      <trkpt lat="50.73696" lon="3.44007">
        <ele>62.14</ele>
        <time>2021-06-20T07:19:47.000Z</time>
      </trkpt>
      <trkpt lat="50.73696" lon="3.4402">
        <ele>62.16</ele>
        <time>2021-06-20T07:19:48.000Z</time>
      </trkpt>
      <trkpt lat="50.73697" lon="3.44032">
        <ele>62.2</ele>
        <time>2021-06-20T07:19:49.000Z</time>
      </trkpt>
      <trkpt lat="50.73698" lon="3.44045">
        <ele>62.05</ele>
        <time>2021-06-20T07:19:50.000Z</time>
      </trkpt>
      <trkpt lat="50.73699" lon="3.44057">
        <ele>61.93</ele>
        <time>2021-06-20T07:19:51.000Z</time>
      </trkpt>
      <trkpt lat="50.73699" lon="3.44069">
        <ele>61.63</ele>
        <time>2021-06-20T07:19:52.000Z</time>
      </trkpt>
      <trkpt lat="50.737" lon="3.44081">
        <ele>61.42</ele>
        <time>2021-06-20T07:19:53.000Z</time>
      </trkpt>
      <trkpt lat="50.73701" lon="3.44094">
        <ele>61.27</ele>
        <time>2021-06-20T07:19:54.000Z</time>
      </trkpt>
      <trkpt lat="50.73701" lon="3.44106">
        <ele>61.24</ele>
        <time>2021-06-20T07:19:55.000Z</time>
      </trkpt>
      <trkpt lat="50.73701" lon="3.44118">
        <ele>61.44</ele>
        <time>2021-06-20T07:19:56.000Z</time>
      </trkpt>
      <trkpt lat="50.73702" lon="3.4413">
        <ele>61.78</ele>
        <time>2021-06-20T07:19:57.000Z</time>
      </trkpt>
      <trkpt lat="50.73703" lon="3.44142">
        <ele>61.86</ele>
        <time>2021-06-20T07:19:58.000Z</time>
      </trkpt>
      <trkpt lat="50.73705" lon="3.44155">
        <ele>61.67</ele>
        <time>2021-06-20T07:19:59.000Z</time>
      </trkpt>
      <trkpt lat="50.73707" lon="3.44167">
        <ele>61.57</ele>
        <time>2021-06-20T07:20:00.000Z</time>
      </trkpt>
      <trkpt lat="50.73709" lon="3.4418">
        <ele>61.59</ele>
        <time>2021-06-20T07:20:01.000Z</time>
      </trkpt>
      <trkpt lat="50.73712" lon="3.44192">
        <ele>61.5</ele>
        <time>2021-06-20T07:20:02.000Z</time>
      </trkpt>
      <trkpt lat="50.73715" lon="3.44204">
        <ele>61.1</ele>
        <time>2021-06-20T07:20:03.000Z</time>
      </trkpt>
      <trkpt lat="50.73719" lon="3.44216">
        <ele>60.85</ele>
        <time>2021-06-20T07:20:04.000Z</time>
      </trkpt>
      <trkpt lat="50.73721" lon="3.44228">
        <ele>60.76</ele>
        <time>2021-06-20T07:20:05.000Z</time>
      </trkpt>
      <trkpt lat="50.73725" lon="3.44239">
        <ele>60.45</ele>
        <time>2021-06-20T07:20:06.000Z</time>
      </trkpt>
      <trkpt lat="50.73728" lon="3.44252">
        <ele>60.18</ele>
        <time>2021-06-20T07:20:07.000Z</time>
      </trkpt>
      <trkpt lat="50.73731" lon="3.44264">
        <ele>59.99</ele>
        <time>2021-06-20T07:20:08.000Z</time>
      </trkpt>
      <trkpt lat="50.73734" lon="3.44276">
        <ele>59.93</ele>
        <time>2021-06-20T07:20:09.000Z</time>
      </trkpt>
      <trkpt lat="50.73737" lon="3.44288">
        <ele>59.93</ele>
        <time>2021-06-20T07:20:10.000Z</time>
      </trkpt>
      <trkpt lat="50.73741" lon="3.44301">
        <ele>59.84</ele>
        <time>2021-06-20T07:20:11.000Z</time>
      </trkpt>
      <trkpt lat="50.73743" lon="3.44313">
        <ele>59.47</ele>
        <time>2021-06-20T07:20:12.000Z</time>
      </trkpt>
      <trkpt lat="50.73747" lon="3.44325">
        <ele>60.69</ele>
        <time>2021-06-20T07:20:13.000Z</time>
      </trkpt>
      <trkpt lat="50.7375" lon="3.44337">
        <ele>60.39</ele>
        <time>2021-06-20T07:20:14.000Z</time>
      </trkpt>
      <trkpt lat="50.73753" lon="3.44349">
        <ele>60.24</ele>
        <time>2021-06-20T07:20:15.000Z</time>
      </trkpt>
      <trkpt lat="50.73756" lon="3.44361">
        <ele>60.27</ele>
        <time>2021-06-20T07:20:16.000Z</time>
      </trkpt>
      <trkpt lat="50.7376" lon="3.44372">
        <ele>59.91</ele>
        <time>2021-06-20T07:20:17.000Z</time>
      </trkpt>
      <trkpt lat="50.73765" lon="3.44383">
        <ele>59.33</ele>
        <time>2021-06-20T07:20:18.000Z</time>
      </trkpt>
      <trkpt lat="50.7377" lon="3.44393">
        <ele>59.19</ele>
        <time>2021-06-20T07:20:19.000Z</time>
      </trkpt>
      <trkpt lat="50.73775" lon="3.44404">
        <ele>59.66</ele>
        <time>2021-06-20T07:20:20.000Z</time>
      </trkpt>
      <trkpt lat="50.73782" lon="3.44413">
        <ele>59.59</ele>
        <time>2021-06-20T07:20:21.000Z</time>
      </trkpt>
      <trkpt lat="50.73788" lon="3.4442">
        <ele>59.56</ele>
        <time>2021-06-20T07:20:22.000Z</time>
      </trkpt>
      <trkpt lat="50.73795" lon="3.44428">
        <ele>59.31</ele>
        <time>2021-06-20T07:20:23.000Z</time>
      </trkpt>
      <trkpt lat="50.73802" lon="3.44436">
        <ele>59.07</ele>
        <time>2021-06-20T07:20:24.000Z</time>
      </trkpt>
      <trkpt lat="50.73809" lon="3.44444">
        <ele>59.62</ele>
        <time>2021-06-20T07:20:25.000Z</time>
      </trkpt>
      <trkpt lat="50.73816" lon="3.44451">
        <ele>59.75</ele>
        <time>2021-06-20T07:20:26.000Z</time>
      </trkpt>
      <trkpt lat="50.73823" lon="3.44459">
        <ele>59.68</ele>
        <time>2021-06-20T07:20:27.000Z</time>
      </trkpt>
      <trkpt lat="50.7383" lon="3.44466">
        <ele>59.99</ele>
        <time>2021-06-20T07:20:28.000Z</time>
      </trkpt>
      <trkpt lat="50.73837" lon="3.44473">
        <ele>60.33</ele>
        <time>2021-06-20T07:20:29.000Z</time>
      </trkpt>
      <trkpt lat="50.73844" lon="3.4448">
        <ele>61.11</ele>
        <time>2021-06-20T07:20:30.000Z</time>
      </trkpt>
      <trkpt lat="50.73851" lon="3.44487">
        <ele>60.91</ele>
        <time>2021-06-20T07:20:31.000Z</time>
      </trkpt>
      <trkpt lat="50.73858" lon="3.44495">
        <ele>61.16</ele>
        <time>2021-06-20T07:20:32.000Z</time>
      </trkpt>
      <trkpt lat="50.73864" lon="3.44501">
        <ele>60.58</ele>
        <time>2021-06-20T07:20:33.000Z</time>
      </trkpt>
      <trkpt lat="50.73871" lon="3.44508">
        <ele>60.54</ele>
        <time>2021-06-20T07:20:34.000Z</time>
      </trkpt>
      <trkpt lat="50.73877" lon="3.44515">
        <ele>60.44</ele>
        <time>2021-06-20T07:20:35.000Z</time>
      </trkpt>
      <trkpt lat="50.73883" lon="3.44521">
        <ele>60.1</ele>
        <time>2021-06-20T07:20:36.000Z</time>
      </trkpt>
      <trkpt lat="50.73889" lon="3.4453">
        <ele>59.93</ele>
        <time>2021-06-20T07:20:37.000Z</time>
      </trkpt>
      <trkpt lat="50.73892" lon="3.4454">
        <ele>59.76</ele>
        <time>2021-06-20T07:20:38.000Z</time>
      </trkpt>
      <trkpt lat="50.73894" lon="3.44551">
        <ele>59.91</ele>
        <time>2021-06-20T07:20:39.000Z</time>
      </trkpt>
      <trkpt lat="50.73894" lon="3.44562">
        <ele>60.23</ele>
        <time>2021-06-20T07:20:40.000Z</time>
      </trkpt>
      <trkpt lat="50.73893" lon="3.44574">
        <ele>60.57</ele>
        <time>2021-06-20T07:20:41.000Z</time>
      </trkpt>
      <trkpt lat="50.73891" lon="3.44586">
        <ele>60.75</ele>
        <time>2021-06-20T07:20:42.000Z</time>
      </trkpt>
      <trkpt lat="50.73889" lon="3.44598">
        <ele>61.15</ele>
        <time>2021-06-20T07:20:43.000Z</time>
      </trkpt>
      <trkpt lat="50.73887" lon="3.4461">
        <ele>61.18</ele>
        <time>2021-06-20T07:20:44.000Z</time>
      </trkpt>
      <trkpt lat="50.73885" lon="3.44621">
        <ele>61.28</ele>
        <time>2021-06-20T07:20:45.000Z</time>
      </trkpt>
      <trkpt lat="50.73883" lon="3.44634">
        <ele>61.1</ele>
        <time>2021-06-20T07:20:46.000Z</time>
      </trkpt>
      <trkpt lat="50.73881" lon="3.44646">
        <ele>61.18</ele>
        <time>2021-06-20T07:20:47.000Z</time>
      </trkpt>
      <trkpt lat="50.7388" lon="3.44659">
        <ele>61.54</ele>
        <time>2021-06-20T07:20:48.000Z</time>
      </trkpt>
      <trkpt lat="50.7388" lon="3.44671">
        <ele>62.05</ele>
        <time>2021-06-20T07:20:49.000Z</time>
      </trkpt>
      <trkpt lat="50.73881" lon="3.44683">
        <ele>61.76</ele>
        <time>2021-06-20T07:20:50.000Z</time>
      </trkpt>
      <trkpt lat="50.73883" lon="3.44695">
        <ele>62.15</ele>
        <time>2021-06-20T07:20:51.000Z</time>
      </trkpt>
      <trkpt lat="50.73885" lon="3.44706">
        <ele>62.47</ele>
        <time>2021-06-20T07:20:52.000Z</time>
      </trkpt>
      <trkpt lat="50.73887" lon="3.44718">
        <ele>62.72</ele>
        <time>2021-06-20T07:20:53.000Z</time>
      </trkpt>
      <trkpt lat="50.73889" lon="3.4473">
        <ele>62.52</ele>
        <time>2021-06-20T07:20:54.000Z</time>
      </trkpt>
      <trkpt lat="50.73891" lon="3.44741">
        <ele>62.77</ele>
        <time>2021-06-20T07:20:55.000Z</time>
      </trkpt>
      <trkpt lat="50.73893" lon="3.44753">
        <ele>62.87</ele>
        <time>2021-06-20T07:20:56.000Z</time>
      </trkpt>
      <trkpt lat="50.73895" lon="3.44765">
        <ele>62.94</ele>
        <time>2021-06-20T07:20:57.000Z</time>
      </trkpt>
      <trkpt lat="50.73897" lon="3.44777">
        <ele>62.66</ele>
        <time>2021-06-20T07:20:58.000Z</time>
      </trkpt>
      <trkpt lat="50.73898" lon="3.44789">
        <ele>62.7</ele>
        <time>2021-06-20T07:20:59.000Z</time>
      </trkpt>
      <trkpt lat="50.739" lon="3.448">
        <ele>62.68</ele>
        <time>2021-06-20T07:21:00.000Z</time>
      </trkpt>
      <trkpt lat="50.73902" lon="3.44812">
        <ele>62.92</ele>
        <time>2021-06-20T07:21:01.000Z</time>
      </trkpt>
      <trkpt lat="50.73903" lon="3.44824">
        <ele>63.24</ele>
        <time>2021-06-20T07:21:02.000Z</time>
      </trkpt>
      <trkpt lat="50.73903" lon="3.44835">
        <ele>63.46</ele>
        <time>2021-06-20T07:21:03.000Z</time>
      </trkpt>
      <trkpt lat="50.73901" lon="3.44846">
        <ele>63.57</ele>
        <time>2021-06-20T07:21:04.000Z</time>
      </trkpt>
      <trkpt lat="50.73899" lon="3.44858">
        <ele>63.32</ele>
        <time>2021-06-20T07:21:05.000Z</time>
      </trkpt>
      <trkpt lat="50.73897" lon="3.44868">
        <ele>63.41</ele>
        <time>2021-06-20T07:21:06.000Z</time>
      </trkpt>
      <trkpt lat="50.73895" lon="3.44879">
        <ele>63.3</ele>
        <time>2021-06-20T07:21:07.000Z</time>
      </trkpt>
      <trkpt lat="50.73895" lon="3.4489">
        <ele>63.25</ele>
        <time>2021-06-20T07:21:08.000Z</time>
      </trkpt>
      <trkpt lat="50.73896" lon="3.44902">
        <ele>63.33</ele>
        <time>2021-06-20T07:21:09.000Z</time>
      </trkpt>
      <trkpt lat="50.73898" lon="3.44913">
        <ele>63.59</ele>
        <time>2021-06-20T07:21:10.000Z</time>
      </trkpt>
      <trkpt lat="50.739" lon="3.44924">
        <ele>63.11</ele>
        <time>2021-06-20T07:21:11.000Z</time>
      </trkpt>
      <trkpt lat="50.73902" lon="3.44934">
        <ele>63.06</ele>
        <time>2021-06-20T07:21:12.000Z</time>
      </trkpt>
      <trkpt lat="50.73904" lon="3.44945">
        <ele>62.67</ele>
        <time>2021-06-20T07:21:13.000Z</time>
      </trkpt>
      <trkpt lat="50.73906" lon="3.44957">
        <ele>62.72</ele>
        <time>2021-06-20T07:21:14.000Z</time>
      </trkpt>
      <trkpt lat="50.73905" lon="3.44969">
        <ele>63.04</ele>
        <time>2021-06-20T07:21:15.000Z</time>
      </trkpt>
      <trkpt lat="50.73903" lon="3.4498">
        <ele>63.23</ele>
        <time>2021-06-20T07:21:16.000Z</time>
      </trkpt>
      <trkpt lat="50.73902" lon="3.44991">
        <ele>63.41</ele>
        <time>2021-06-20T07:21:17.000Z</time>
      </trkpt>
      <trkpt lat="50.739" lon="3.45002">
        <ele>63.47</ele>
        <time>2021-06-20T07:21:18.000Z</time>
      </trkpt>
      <trkpt lat="50.73897" lon="3.45012">
        <ele>63.42</ele>
        <time>2021-06-20T07:21:19.000Z</time>
      </trkpt>
      <trkpt lat="50.73895" lon="3.45023">
        <ele>63.57</ele>
        <time>2021-06-20T07:21:20.000Z</time>
      </trkpt>
      <trkpt lat="50.73893" lon="3.45034">
        <ele>63.45</ele>
        <time>2021-06-20T07:21:21.000Z</time>
      </trkpt>
      <trkpt lat="50.73891" lon="3.45043">
        <ele>63.43</ele>
        <time>2021-06-20T07:21:22.000Z</time>
      </trkpt>
      <trkpt lat="50.7389" lon="3.45052">
        <ele>63.9</ele>
        <time>2021-06-20T07:21:23.000Z</time>
      </trkpt>
      <trkpt lat="50.73888" lon="3.45061">
        <ele>63.89</ele>
        <time>2021-06-20T07:21:24.000Z</time>
      </trkpt>
      <trkpt lat="50.73887" lon="3.4507">
        <ele>64.25</ele>
        <time>2021-06-20T07:21:25.000Z</time>
      </trkpt>
      <trkpt lat="50.73885" lon="3.45078">
        <ele>64.62</ele>
        <time>2021-06-20T07:21:26.000Z</time>
      </trkpt>
      <trkpt lat="50.73883" lon="3.45086">
        <ele>64.85</ele>
        <time>2021-06-20T07:21:27.000Z</time>
      </trkpt>
      <trkpt lat="50.73882" lon="3.45093">
        <ele>64.67</ele>
        <time>2021-06-20T07:21:28.000Z</time>
      </trkpt>
      <trkpt lat="50.7388" lon="3.451">
        <ele>64.69</ele>
        <time>2021-06-20T07:21:29.000Z</time>
      </trkpt>
      <trkpt lat="50.73875" lon="3.45111">
        <ele>64.68</ele>
        <time>2021-06-20T07:21:31.000Z</time>
      </trkpt>
      <trkpt lat="50.73869" lon="3.45121">
        <ele>64.76</ele>
        <time>2021-06-20T07:21:33.000Z</time>
      </trkpt>
      <trkpt lat="50.73866" lon="3.45127">
        <ele>64.64</ele>
        <time>2021-06-20T07:21:34.000Z</time>
      </trkpt>
      <trkpt lat="50.73864" lon="3.45134">
        <ele>64.48</ele>
        <time>2021-06-20T07:21:35.000Z</time>
      </trkpt>
      <trkpt lat="50.73863" lon="3.45143">
        <ele>64.42</ele>
        <time>2021-06-20T07:21:36.000Z</time>
      </trkpt>
      <trkpt lat="50.73862" lon="3.45151">
        <ele>64.17</ele>
        <time>2021-06-20T07:21:37.000Z</time>
      </trkpt>
      <trkpt lat="50.73861" lon="3.4516">
        <ele>64.02</ele>
        <time>2021-06-20T07:21:38.000Z</time>
      </trkpt>
      <trkpt lat="50.73861" lon="3.4517">
        <ele>63.95</ele>
        <time>2021-06-20T07:21:39.000Z</time>
      </trkpt>
      <trkpt lat="50.7386" lon="3.4518">
        <ele>64.02</ele>
        <time>2021-06-20T07:21:40.000Z</time>
      </trkpt>
      <trkpt lat="50.73858" lon="3.4519">
        <ele>64.25</ele>
        <time>2021-06-20T07:21:41.000Z</time>
      </trkpt>
      <trkpt lat="50.73857" lon="3.45201">
        <ele>64.19</ele>
        <time>2021-06-20T07:21:42.000Z</time>
      </trkpt>
      <trkpt lat="50.73856" lon="3.45212">
        <ele>64.35</ele>
        <time>2021-06-20T07:21:43.000Z</time>
      </trkpt>
      <trkpt lat="50.73855" lon="3.45222">
        <ele>64.37</ele>
        <time>2021-06-20T07:21:44.000Z</time>
      </trkpt>
      <trkpt lat="50.73854" lon="3.45232">
        <ele>64.65</ele>
        <time>2021-06-20T07:21:45.000Z</time>
      </trkpt>
      <trkpt lat="50.73853" lon="3.45243">
        <ele>64.6</ele>
        <time>2021-06-20T07:21:46.000Z</time>
      </trkpt>
      <trkpt lat="50.73851" lon="3.45254">
        <ele>64.51</ele>
        <time>2021-06-20T07:21:47.000Z</time>
      </trkpt>
      <trkpt lat="50.7385" lon="3.45265">
        <ele>64.61</ele>
        <time>2021-06-20T07:21:48.000Z</time>
      </trkpt>
      <trkpt lat="50.73848" lon="3.45277">
        <ele>64.89</ele>
        <time>2021-06-20T07:21:49.000Z</time>
      </trkpt>
      <trkpt lat="50.73848" lon="3.45288">
        <ele>64.96</ele>
        <time>2021-06-20T07:21:50.000Z</time>
      </trkpt>
      <trkpt lat="50.73847" lon="3.453">
        <ele>64.58</ele>
        <time>2021-06-20T07:21:51.000Z</time>
      </trkpt>
      <trkpt lat="50.73847" lon="3.45311">
        <ele>64.34</ele>
        <time>2021-06-20T07:21:52.000Z</time>
      </trkpt>
      <trkpt lat="50.73847" lon="3.45323">
        <ele>64.06</ele>
        <time>2021-06-20T07:21:53.000Z</time>
      </trkpt>
      <trkpt lat="50.73848" lon="3.45334">
        <ele>63.74</ele>
        <time>2021-06-20T07:21:54.000Z</time>
      </trkpt>
      <trkpt lat="50.73849" lon="3.45345">
        <ele>63.48</ele>
        <time>2021-06-20T07:21:55.000Z</time>
      </trkpt>
      <trkpt lat="50.73851" lon="3.45356">
        <ele>63.28</ele>
        <time>2021-06-20T07:21:56.000Z</time>
      </trkpt>
      <trkpt lat="50.73855" lon="3.45367">
        <ele>63.26</ele>
        <time>2021-06-20T07:21:57.000Z</time>
      </trkpt>
      <trkpt lat="50.73859" lon="3.45376">
        <ele>62.92</ele>
        <time>2021-06-20T07:21:58.000Z</time>
      </trkpt>
      <trkpt lat="50.73864" lon="3.45386">
        <ele>63.12</ele>
        <time>2021-06-20T07:21:59.000Z</time>
      </trkpt>
      <trkpt lat="50.73868" lon="3.45396">
        <ele>63.8</ele>
        <time>2021-06-20T07:22:00.000Z</time>
      </trkpt>
      <trkpt lat="50.73873" lon="3.45405">
        <ele>63.69</ele>
        <time>2021-06-20T07:22:01.000Z</time>
      </trkpt>
      <trkpt lat="50.73878" lon="3.45413">
        <ele>63.19</ele>
        <time>2021-06-20T07:22:02.000Z</time>
      </trkpt>
      <trkpt lat="50.73882" lon="3.45422">
        <ele>63.07</ele>
        <time>2021-06-20T07:22:03.000Z</time>
      </trkpt>
      <trkpt lat="50.73887" lon="3.45431">
        <ele>63.19</ele>
        <time>2021-06-20T07:22:04.000Z</time>
      </trkpt>
      <trkpt lat="50.73892" lon="3.4544">
        <ele>63.64</ele>
        <time>2021-06-20T07:22:05.000Z</time>
      </trkpt>
      <trkpt lat="50.73897" lon="3.45449">
        <ele>63.64</ele>
        <time>2021-06-20T07:22:06.000Z</time>
      </trkpt>
      <trkpt lat="50.73902" lon="3.45458">
        <ele>63.62</ele>
        <time>2021-06-20T07:22:07.000Z</time>
      </trkpt>
      <trkpt lat="50.73907" lon="3.45467">
        <ele>63.2</ele>
        <time>2021-06-20T07:22:08.000Z</time>
      </trkpt>
      <trkpt lat="50.73912" lon="3.45475">
        <ele>63.13</ele>
        <time>2021-06-20T07:22:09.000Z</time>
      </trkpt>
      <trkpt lat="50.73917" lon="3.45485">
        <ele>63.29</ele>
        <time>2021-06-20T07:22:10.000Z</time>
      </trkpt>
      <trkpt lat="50.73921" lon="3.45495">
        <ele>63.17</ele>
        <time>2021-06-20T07:22:11.000Z</time>
      </trkpt>
      <trkpt lat="50.73925" lon="3.45505">
        <ele>63.24</ele>
        <time>2021-06-20T07:22:12.000Z</time>
      </trkpt>
      <trkpt lat="50.73928" lon="3.45516">
        <ele>63.27</ele>
        <time>2021-06-20T07:22:13.000Z</time>
      </trkpt>
      <trkpt lat="50.73931" lon="3.45528">
        <ele>63.3</ele>
        <time>2021-06-20T07:22:14.000Z</time>
      </trkpt>
      <trkpt lat="50.73932" lon="3.4554">
        <ele>63.39</ele>
        <time>2021-06-20T07:22:15.000Z</time>
      </trkpt>
      <trkpt lat="50.73932" lon="3.45553">
        <ele>63.66</ele>
        <time>2021-06-20T07:22:16.000Z</time>
      </trkpt>
      <trkpt lat="50.73932" lon="3.45565">
        <ele>64.13</ele>
        <time>2021-06-20T07:22:17.000Z</time>
      </trkpt>
      <trkpt lat="50.73932" lon="3.45577">
        <ele>64.53</ele>
        <time>2021-06-20T07:22:18.000Z</time>
      </trkpt>
      <trkpt lat="50.73931" lon="3.4559">
        <ele>64.77</ele>
        <time>2021-06-20T07:22:19.000Z</time>
      </trkpt>
      <trkpt lat="50.7393" lon="3.45602">
        <ele>64.77</ele>
        <time>2021-06-20T07:22:20.000Z</time>
      </trkpt>
      <trkpt lat="50.73929" lon="3.45614">
        <ele>65.11</ele>
        <time>2021-06-20T07:22:21.000Z</time>
      </trkpt>
      <trkpt lat="50.73928" lon="3.45626">
        <ele>65.25</ele>
        <time>2021-06-20T07:22:22.000Z</time>
      </trkpt>
      <trkpt lat="50.73927" lon="3.45638">
        <ele>65.55</ele>
        <time>2021-06-20T07:22:23.000Z</time>
      </trkpt>
      <trkpt lat="50.73926" lon="3.4565">
        <ele>65.46</ele>
        <time>2021-06-20T07:22:24.000Z</time>
      </trkpt>
      <trkpt lat="50.73925" lon="3.45662">
        <ele>65.64</ele>
        <time>2021-06-20T07:22:25.000Z</time>
      </trkpt>
      <trkpt lat="50.73924" lon="3.45674">
        <ele>65.18</ele>
        <time>2021-06-20T07:22:26.000Z</time>
      </trkpt>
      <trkpt lat="50.73923" lon="3.45686">
        <ele>65.07</ele>
        <time>2021-06-20T07:22:27.000Z</time>
      </trkpt>
      <trkpt lat="50.73924" lon="3.45698">
        <ele>64.98</ele>
        <time>2021-06-20T07:22:28.000Z</time>
      </trkpt>
      <trkpt lat="50.73925" lon="3.45711">
        <ele>64.79</ele>
        <time>2021-06-20T07:22:29.000Z</time>
      </trkpt>
      <trkpt lat="50.73927" lon="3.45724">
        <ele>64.8</ele>
        <time>2021-06-20T07:22:30.000Z</time>
      </trkpt>
      <trkpt lat="50.73931" lon="3.45734">
        <ele>64.57</ele>
        <time>2021-06-20T07:22:31.000Z</time>
      </trkpt>
      <trkpt lat="50.73934" lon="3.45745">
        <ele>64.36</ele>
        <time>2021-06-20T07:22:32.000Z</time>
      </trkpt>
      <trkpt lat="50.73938" lon="3.45756">
        <ele>63.98</ele>
        <time>2021-06-20T07:22:33.000Z</time>
      </trkpt>
      <trkpt lat="50.73942" lon="3.45767">
        <ele>63.67</ele>
        <time>2021-06-20T07:22:34.000Z</time>
      </trkpt>
      <trkpt lat="50.73946" lon="3.45777">
        <ele>63.49</ele>
        <time>2021-06-20T07:22:35.000Z</time>
      </trkpt>
      <trkpt lat="50.7395" lon="3.45788">
        <ele>63.28</ele>
        <time>2021-06-20T07:22:36.000Z</time>
      </trkpt>
      <trkpt lat="50.73954" lon="3.45798">
        <ele>63.4</ele>
        <time>2021-06-20T07:22:37.000Z</time>
      </trkpt>
      <trkpt lat="50.73958" lon="3.45809">
        <ele>63.25</ele>
        <time>2021-06-20T07:22:38.000Z</time>
      </trkpt>
      <trkpt lat="50.73962" lon="3.45819">
        <ele>63.3</ele>
        <time>2021-06-20T07:22:39.000Z</time>
      </trkpt>
      <trkpt lat="50.73967" lon="3.4583">
        <ele>62.99</ele>
        <time>2021-06-20T07:22:40.000Z</time>
      </trkpt>
      <trkpt lat="50.73971" lon="3.45839">
        <ele>63.02</ele>
        <time>2021-06-20T07:22:41.000Z</time>
      </trkpt>
      <trkpt lat="50.73975" lon="3.45849">
        <ele>62.7</ele>
        <time>2021-06-20T07:22:42.000Z</time>
      </trkpt>
      <trkpt lat="50.7398" lon="3.4586">
        <ele>62.85</ele>
        <time>2021-06-20T07:22:43.000Z</time>
      </trkpt>
      <trkpt lat="50.73984" lon="3.4587">
        <ele>62.78</ele>
        <time>2021-06-20T07:22:44.000Z</time>
      </trkpt>
      <trkpt lat="50.73987" lon="3.45881">
        <ele>62.56</ele>
        <time>2021-06-20T07:22:45.000Z</time>
      </trkpt>
      <trkpt lat="50.7399" lon="3.45893">
        <ele>62.56</ele>
        <time>2021-06-20T07:22:46.000Z</time>
      </trkpt>
      <trkpt lat="50.73993" lon="3.45905">
        <ele>62.33</ele>
        <time>2021-06-20T07:22:47.000Z</time>
      </trkpt>
      <trkpt lat="50.73995" lon="3.45917">
        <ele>62.15</ele>
        <time>2021-06-20T07:22:48.000Z</time>
      </trkpt>
      <trkpt lat="50.73997" lon="3.45929">
        <ele>61.97</ele>
        <time>2021-06-20T07:22:49.000Z</time>
      </trkpt>
      <trkpt lat="50.73998" lon="3.45941">
        <ele>62.25</ele>
        <time>2021-06-20T07:22:50.000Z</time>
      </trkpt>
      <trkpt lat="50.73999" lon="3.45953">
        <ele>62.75</ele>
        <time>2021-06-20T07:22:51.000Z</time>
      </trkpt>
      <trkpt lat="50.74" lon="3.45966">
        <ele>62.87</ele>
        <time>2021-06-20T07:22:52.000Z</time>
      </trkpt>
      <trkpt lat="50.74002" lon="3.45978">
        <ele>62.87</ele>
        <time>2021-06-20T07:22:53.000Z</time>
      </trkpt>
      <trkpt lat="50.74003" lon="3.45991">
        <ele>63.01</ele>
        <time>2021-06-20T07:22:54.000Z</time>
      </trkpt>
      <trkpt lat="50.74004" lon="3.46003">
        <ele>63.05</ele>
        <time>2021-06-20T07:22:55.000Z</time>
      </trkpt>
      <trkpt lat="50.74006" lon="3.46016">
        <ele>63.28</ele>
        <time>2021-06-20T07:22:56.000Z</time>
      </trkpt>
      <trkpt lat="50.74007" lon="3.46029">
        <ele>63.45</ele>
        <time>2021-06-20T07:22:57.000Z</time>
      </trkpt>
      <trkpt lat="50.74009" lon="3.46041">
        <ele>63.31</ele>
        <time>2021-06-20T07:22:58.000Z</time>
      </trkpt>
      <trkpt lat="50.74011" lon="3.46053">
        <ele>63.36</ele>
        <time>2021-06-20T07:22:59.000Z</time>
      </trkpt>
      <trkpt lat="50.74012" lon="3.46065">
        <ele>63.07</ele>
        <time>2021-06-20T07:23:00.000Z</time>
      </trkpt>
      <trkpt lat="50.74014" lon="3.46077">
        <ele>63.02</ele>
        <time>2021-06-20T07:23:01.000Z</time>
      </trkpt>
      <trkpt lat="50.74016" lon="3.46089">
        <ele>62.95</ele>
        <time>2021-06-20T07:23:02.000Z</time>
      </trkpt>
      <trkpt lat="50.74017" lon="3.46102">
        <ele>63.27</ele>
        <time>2021-06-20T07:23:03.000Z</time>
      </trkpt>
      <trkpt lat="50.74018" lon="3.46115">
        <ele>63.36</ele>
        <time>2021-06-20T07:23:04.000Z</time>
      </trkpt>
      <trkpt lat="50.74019" lon="3.46127">
        <ele>63.59</ele>
        <time>2021-06-20T07:23:05.000Z</time>
      </trkpt>
      <trkpt lat="50.74019" lon="3.4614">
        <ele>63.84</ele>
        <time>2021-06-20T07:23:06.000Z</time>
      </trkpt>
      <trkpt lat="50.74017" lon="3.46153">
        <ele>64.02</ele>
        <time>2021-06-20T07:23:07.000Z</time>
      </trkpt>
      <trkpt lat="50.74016" lon="3.46165">
        <ele>64.31</ele>
        <time>2021-06-20T07:23:08.000Z</time>
      </trkpt>
      <trkpt lat="50.74014" lon="3.46178">
        <ele>64.38</ele>
        <time>2021-06-20T07:23:09.000Z</time>
      </trkpt>
      <trkpt lat="50.74011" lon="3.4619">
        <ele>64.37</ele>
        <time>2021-06-20T07:23:10.000Z</time>
      </trkpt>
      <trkpt lat="50.74009" lon="3.46202">
        <ele>64.64</ele>
        <time>2021-06-20T07:23:11.000Z</time>
      </trkpt>
      <trkpt lat="50.74007" lon="3.46213">
        <ele>64.8</ele>
        <time>2021-06-20T07:23:12.000Z</time>
      </trkpt>
      <trkpt lat="50.74005" lon="3.46226">
        <ele>64.88</ele>
        <time>2021-06-20T07:23:13.000Z</time>
      </trkpt>
      <trkpt lat="50.74004" lon="3.46239">
        <ele>64.91</ele>
        <time>2021-06-20T07:23:14.000Z</time>
      </trkpt>
      <trkpt lat="50.74005" lon="3.46252">
        <ele>64.83</ele>
        <time>2021-06-20T07:23:15.000Z</time>
      </trkpt>
      <trkpt lat="50.74007" lon="3.46264">
        <ele>64.59</ele>
        <time>2021-06-20T07:23:16.000Z</time>
      </trkpt>
      <trkpt lat="50.7401" lon="3.46276">
        <ele>64.49</ele>
        <time>2021-06-20T07:23:17.000Z</time>
      </trkpt>
      <trkpt lat="50.74013" lon="3.46287">
        <ele>64.12</ele>
        <time>2021-06-20T07:23:18.000Z</time>
      </trkpt>
      <trkpt lat="50.74017" lon="3.46299">
        <ele>63.95</ele>
        <time>2021-06-20T07:23:19.000Z</time>
      </trkpt>
      <trkpt lat="50.74021" lon="3.46311">
        <ele>63.79</ele>
        <time>2021-06-20T07:23:20.000Z</time>
      </trkpt>
      <trkpt lat="50.74024" lon="3.46323">
        <ele>63.85</ele>
        <time>2021-06-20T07:23:21.000Z</time>
      </trkpt>
      <trkpt lat="50.74027" lon="3.46336">
        <ele>64.11</ele>
        <time>2021-06-20T07:23:22.000Z</time>
      </trkpt>
      <trkpt lat="50.74028" lon="3.4635">
        <ele>64.36</ele>
        <time>2021-06-20T07:23:23.000Z</time>
      </trkpt>
      <trkpt lat="50.74027" lon="3.46363">
        <ele>64.51</ele>
        <time>2021-06-20T07:23:24.000Z</time>
      </trkpt>
      <trkpt lat="50.74025" lon="3.46375">
        <ele>64.3</ele>
        <time>2021-06-20T07:23:25.000Z</time>
      </trkpt>
      <trkpt lat="50.74022" lon="3.46386">
        <ele>64.26</ele>
        <time>2021-06-20T07:23:26.000Z</time>
      </trkpt>
      <trkpt lat="50.7402" lon="3.46397">
        <ele>64.15</ele>
        <time>2021-06-20T07:23:27.000Z</time>
      </trkpt>
      <trkpt lat="50.74021" lon="3.46408">
        <ele>63.64</ele>
        <time>2021-06-20T07:23:28.000Z</time>
      </trkpt>
      <trkpt lat="50.74024" lon="3.46418">
        <ele>63.4</ele>
        <time>2021-06-20T07:23:29.000Z</time>
      </trkpt>
      <trkpt lat="50.74028" lon="3.46427">
        <ele>63.44</ele>
        <time>2021-06-20T07:23:30.000Z</time>
      </trkpt>
      <trkpt lat="50.74033" lon="3.46436">
        <ele>63.51</ele>
        <time>2021-06-20T07:23:31.000Z</time>
      </trkpt>
      <trkpt lat="50.74038" lon="3.46445">
        <ele>63.22</ele>
        <time>2021-06-20T07:23:32.000Z</time>
      </trkpt>
      <trkpt lat="50.74042" lon="3.46454">
        <ele>63.07</ele>
        <time>2021-06-20T07:23:33.000Z</time>
      </trkpt>
      <trkpt lat="50.74047" lon="3.46463">
        <ele>62.93</ele>
        <time>2021-06-20T07:23:34.000Z</time>
      </trkpt>
      <trkpt lat="50.74051" lon="3.46473">
        <ele>62.39</ele>
        <time>2021-06-20T07:23:35.000Z</time>
      </trkpt>
      <trkpt lat="50.74055" lon="3.46482">
        <ele>61.99</ele>
        <time>2021-06-20T07:23:36.000Z</time>
      </trkpt>
      <trkpt lat="50.7406" lon="3.46491">
        <ele>61.48</ele>
        <time>2021-06-20T07:23:37.000Z</time>
      </trkpt>
      <trkpt lat="50.74065" lon="3.465">
        <ele>61.52</ele>
        <time>2021-06-20T07:23:38.000Z</time>
      </trkpt>
      <trkpt lat="50.74071" lon="3.46508">
        <ele>61.38</ele>
        <time>2021-06-20T07:23:39.000Z</time>
      </trkpt>
      <trkpt lat="50.74076" lon="3.46515">
        <ele>61.24</ele>
        <time>2021-06-20T07:23:40.000Z</time>
      </trkpt>
      <trkpt lat="50.74083" lon="3.46522">
        <ele>60.94</ele>
        <time>2021-06-20T07:23:41.000Z</time>
      </trkpt>
      <trkpt lat="50.74088" lon="3.46529">
        <ele>60.82</ele>
        <time>2021-06-20T07:23:42.000Z</time>
      </trkpt>
      <trkpt lat="50.74094" lon="3.46536">
        <ele>60.85</ele>
        <time>2021-06-20T07:23:43.000Z</time>
      </trkpt>
      <trkpt lat="50.741" lon="3.46543">
        <ele>60.69</ele>
        <time>2021-06-20T07:23:44.000Z</time>
      </trkpt>
      <trkpt lat="50.74106" lon="3.4655">
        <ele>60.59</ele>
        <time>2021-06-20T07:23:45.000Z</time>
      </trkpt>
      <trkpt lat="50.74111" lon="3.46558">
        <ele>60.53</ele>
        <time>2021-06-20T07:23:46.000Z</time>
      </trkpt>
      <trkpt lat="50.74115" lon="3.46567">
        <ele>60.2</ele>
        <time>2021-06-20T07:23:47.000Z</time>
      </trkpt>
      <trkpt lat="50.74117" lon="3.46578">
        <ele>60.43</ele>
        <time>2021-06-20T07:23:48.000Z</time>
      </trkpt>
      <trkpt lat="50.74118" lon="3.46589">
        <ele>60.86</ele>
        <time>2021-06-20T07:23:49.000Z</time>
      </trkpt>
      <trkpt lat="50.7412" lon="3.466">
        <ele>60.9</ele>
        <time>2021-06-20T07:23:50.000Z</time>
      </trkpt>
      <trkpt lat="50.74124" lon="3.4661">
        <ele>60.65</ele>
        <time>2021-06-20T07:23:51.000Z</time>
      </trkpt>
      <trkpt lat="50.7413" lon="3.46617">
        <ele>60.52</ele>
        <time>2021-06-20T07:23:52.000Z</time>
      </trkpt>
      <trkpt lat="50.74136" lon="3.46623">
        <ele>60.35</ele>
        <time>2021-06-20T07:23:53.000Z</time>
      </trkpt>
      <trkpt lat="50.74142" lon="3.46629">
        <ele>60.53</ele>
        <time>2021-06-20T07:23:54.000Z</time>
      </trkpt>
      <trkpt lat="50.74149" lon="3.46635">
        <ele>60.65</ele>
        <time>2021-06-20T07:23:55.000Z</time>
      </trkpt>
      <trkpt lat="50.74156" lon="3.4664">
        <ele>60.89</ele>
        <time>2021-06-20T07:23:56.000Z</time>
      </trkpt>
      <trkpt lat="50.74163" lon="3.46646">
        <ele>61.31</ele>
        <time>2021-06-20T07:23:57.000Z</time>
      </trkpt>
      <trkpt lat="50.74169" lon="3.46652">
        <ele>61.66</ele>
        <time>2021-06-20T07:23:58.000Z</time>
      </trkpt>
      <trkpt lat="50.74176" lon="3.46657">
        <ele>61.58</ele>
        <time>2021-06-20T07:23:59.000Z</time>
      </trkpt>
      <trkpt lat="50.74182" lon="3.46662">
        <ele>61.63</ele>
        <time>2021-06-20T07:24:00.000Z</time>
      </trkpt>
      <trkpt lat="50.74188" lon="3.46666">
        <ele>61.5</ele>
        <time>2021-06-20T07:24:01.000Z</time>
      </trkpt>
      <trkpt lat="50.74194" lon="3.46671">
        <ele>61.56</ele>
        <time>2021-06-20T07:24:02.000Z</time>
      </trkpt>
      <trkpt lat="50.742" lon="3.46675">
        <ele>61.32</ele>
        <time>2021-06-20T07:24:03.000Z</time>
      </trkpt>
      <trkpt lat="50.74205" lon="3.46681">
        <ele>61.37</ele>
        <time>2021-06-20T07:24:04.000Z</time>
      </trkpt>
      <trkpt lat="50.7421" lon="3.46687">
        <ele>61.48</ele>
        <time>2021-06-20T07:24:05.000Z</time>
      </trkpt>
      <trkpt lat="50.74213" lon="3.46695">
        <ele>61.46</ele>
        <time>2021-06-20T07:24:06.000Z</time>
      </trkpt>
      <trkpt lat="50.74214" lon="3.46704">
        <ele>61.23</ele>
        <time>2021-06-20T07:24:07.000Z</time>
      </trkpt>
      <trkpt lat="50.74215" lon="3.46714">
        <ele>61.48</ele>
        <time>2021-06-20T07:24:08.000Z</time>
      </trkpt>
      <trkpt lat="50.74215" lon="3.46725">
        <ele>61.75</ele>
        <time>2021-06-20T07:24:09.000Z</time>
      </trkpt>
      <trkpt lat="50.74215" lon="3.46735">
        <ele>62.24</ele>
        <time>2021-06-20T07:24:10.000Z</time>
      </trkpt>
      <trkpt lat="50.74215" lon="3.46746">
        <ele>62.04</ele>
        <time>2021-06-20T07:24:11.000Z</time>
      </trkpt>
      <trkpt lat="50.74215" lon="3.46757">
        <ele>62.09</ele>
        <time>2021-06-20T07:24:12.000Z</time>
      </trkpt>
      <trkpt lat="50.74214" lon="3.46768">
        <ele>62.06</ele>
        <time>2021-06-20T07:24:13.000Z</time>
      </trkpt>
      <trkpt lat="50.74213" lon="3.46779">
        <ele>62.36</ele>
        <time>2021-06-20T07:24:14.000Z</time>
      </trkpt>
      <trkpt lat="50.74212" lon="3.4679">
        <ele>62.3</ele>
        <time>2021-06-20T07:24:15.000Z</time>
      </trkpt>
      <trkpt lat="50.74211" lon="3.46802">
        <ele>62.54</ele>
        <time>2021-06-20T07:24:16.000Z</time>
      </trkpt>
      <trkpt lat="50.74209" lon="3.46813">
        <ele>62.73</ele>
        <time>2021-06-20T07:24:17.000Z</time>
      </trkpt>
      <trkpt lat="50.74207" lon="3.46825">
        <ele>62.55</ele>
        <time>2021-06-20T07:24:18.000Z</time>
      </trkpt>
      <trkpt lat="50.74204" lon="3.46836">
        <ele>62.88</ele>
        <time>2021-06-20T07:24:19.000Z</time>
      </trkpt>
      <trkpt lat="50.74202" lon="3.46847">
        <ele>62.71</ele>
        <time>2021-06-20T07:24:20.000Z</time>
      </trkpt>
      <trkpt lat="50.742" lon="3.46859">
        <ele>63</ele>
        <time>2021-06-20T07:24:21.000Z</time>
      </trkpt>
      <trkpt lat="50.74197" lon="3.4687">
        <ele>63.22</ele>
        <time>2021-06-20T07:24:22.000Z</time>
      </trkpt>
      <trkpt lat="50.74195" lon="3.46881">
        <ele>63.43</ele>
        <time>2021-06-20T07:24:23.000Z</time>
      </trkpt>
      <trkpt lat="50.74193" lon="3.46892">
        <ele>63.16</ele>
        <time>2021-06-20T07:24:24.000Z</time>
      </trkpt>
      <trkpt lat="50.7419" lon="3.46903">
        <ele>63.21</ele>
        <time>2021-06-20T07:24:25.000Z</time>
      </trkpt>
      <trkpt lat="50.74188" lon="3.46915">
        <ele>63.1</ele>
        <time>2021-06-20T07:24:26.000Z</time>
      </trkpt>
      <trkpt lat="50.74185" lon="3.46926">
        <ele>63.15</ele>
        <time>2021-06-20T07:24:27.000Z</time>
      </trkpt>
      <trkpt lat="50.74182" lon="3.46938">
        <ele>63.39</ele>
        <time>2021-06-20T07:24:28.000Z</time>
      </trkpt>
      <trkpt lat="50.74178" lon="3.46949">
        <ele>63.49</ele>
        <time>2021-06-20T07:24:29.000Z</time>
      </trkpt>
      <trkpt lat="50.74174" lon="3.4696">
        <ele>63.54</ele>
        <time>2021-06-20T07:24:30.000Z</time>
      </trkpt>
      <trkpt lat="50.74171" lon="3.4697">
        <ele>63.54</ele>
        <time>2021-06-20T07:24:31.000Z</time>
      </trkpt>
      <trkpt lat="50.74166" lon="3.46981">
        <ele>63.8</ele>
        <time>2021-06-20T07:24:32.000Z</time>
      </trkpt>
      <trkpt lat="50.74162" lon="3.46991">
        <ele>63.79</ele>
        <time>2021-06-20T07:24:33.000Z</time>
      </trkpt>
      <trkpt lat="50.74156" lon="3.47">
        <ele>64.02</ele>
        <time>2021-06-20T07:24:34.000Z</time>
      </trkpt>
      <trkpt lat="50.74151" lon="3.4701">
        <ele>63.97</ele>
        <time>2021-06-20T07:24:35.000Z</time>
      </trkpt>
      <trkpt lat="50.74146" lon="3.47018">
        <ele>63.94</ele>
        <time>2021-06-20T07:24:36.000Z</time>
      </trkpt>
      <trkpt lat="50.7414" lon="3.47026">
        <ele>63.87</ele>
        <time>2021-06-20T07:24:37.000Z</time>
      </trkpt>
      <trkpt lat="50.74135" lon="3.47033">
        <ele>63.87</ele>
        <time>2021-06-20T07:24:38.000Z</time>
      </trkpt>
      <trkpt lat="50.74129" lon="3.4704">
        <ele>64.07</ele>
        <time>2021-06-20T07:24:39.000Z</time>
      </trkpt>
      <trkpt lat="50.74125" lon="3.47047">
        <ele>64.3</ele>
        <time>2021-06-20T07:24:40.000Z</time>
      </trkpt>
      <trkpt lat="50.74119" lon="3.47055">
        <ele>64.7</ele>
        <time>2021-06-20T07:24:41.000Z</time>
      </trkpt>
      <trkpt lat="50.74114" lon="3.47063">
        <ele>64.96</ele>
        <time>2021-06-20T07:24:42.000Z</time>
      </trkpt>
      <trkpt lat="50.74109" lon="3.4707">
        <ele>64.91</ele>
        <time>2021-06-20T07:24:43.000Z</time>
      </trkpt>
      <trkpt lat="50.74105" lon="3.47079">
        <ele>65.14</ele>
        <time>2021-06-20T07:24:44.000Z</time>
      </trkpt>
      <trkpt lat="50.741" lon="3.47088">
        <ele>65.29</ele>
        <time>2021-06-20T07:24:45.000Z</time>
      </trkpt>
      <trkpt lat="50.74096" lon="3.47097">
        <ele>65.24</ele>
        <time>2021-06-20T07:24:46.000Z</time>
      </trkpt>
      <trkpt lat="50.74091" lon="3.47105">
        <ele>65.3</ele>
        <time>2021-06-20T07:24:47.000Z</time>
      </trkpt>
      <trkpt lat="50.74086" lon="3.47114">
        <ele>65.47</ele>
        <time>2021-06-20T07:24:48.000Z</time>
      </trkpt>
      <trkpt lat="50.74082" lon="3.47121">
        <ele>65.23</ele>
        <time>2021-06-20T07:24:49.000Z</time>
      </trkpt>
      <trkpt lat="50.74078" lon="3.47128">
        <ele>65.44</ele>
        <time>2021-06-20T07:24:50.000Z</time>
      </trkpt>
      <trkpt lat="50.74074" lon="3.47133">
        <ele>65.39</ele>
        <time>2021-06-20T07:24:51.000Z</time>
      </trkpt>
      <trkpt lat="50.74069" lon="3.47138">
        <ele>65.71</ele>
        <time>2021-06-20T07:24:52.000Z</time>
      </trkpt>
      <trkpt lat="50.74065" lon="3.47141">
        <ele>66.05</ele>
        <time>2021-06-20T07:24:53.000Z</time>
      </trkpt>
      <trkpt lat="50.7406" lon="3.47144">
        <ele>66.34</ele>
        <time>2021-06-20T07:24:54.000Z</time>
      </trkpt>
      <trkpt lat="50.74055" lon="3.47145">
        <ele>66.18</ele>
        <time>2021-06-20T07:24:55.000Z</time>
      </trkpt>
      <trkpt lat="50.74049" lon="3.47146">
        <ele>66.09</ele>
        <time>2021-06-20T07:24:56.000Z</time>
      </trkpt>
      <trkpt lat="50.74044" lon="3.47148">
        <ele>66.02</ele>
        <time>2021-06-20T07:24:57.000Z</time>
      </trkpt>
      <trkpt lat="50.74038" lon="3.47149">
        <ele>66.2</ele>
        <time>2021-06-20T07:24:58.000Z</time>
      </trkpt>
      <trkpt lat="50.74032" lon="3.47149">
        <ele>65.89</ele>
        <time>2021-06-20T07:24:59.000Z</time>
      </trkpt>
      <trkpt lat="50.74025" lon="3.4715">
        <ele>65.82</ele>
        <time>2021-06-20T07:25:00.000Z</time>
      </trkpt>
      <trkpt lat="50.74019" lon="3.47153">
        <ele>65.86</ele>
        <time>2021-06-20T07:25:01.000Z</time>
      </trkpt>
      <trkpt lat="50.74014" lon="3.47156">
        <ele>65.8</ele>
        <time>2021-06-20T07:25:02.000Z</time>
      </trkpt>
      <trkpt lat="50.74008" lon="3.47159">
        <ele>65.46</ele>
        <time>2021-06-20T07:25:03.000Z</time>
      </trkpt>
      <trkpt lat="50.74002" lon="3.47163">
        <ele>65.41</ele>
        <time>2021-06-20T07:25:04.000Z</time>
      </trkpt>
      <trkpt lat="50.73998" lon="3.47167">
        <ele>65.21</ele>
        <time>2021-06-20T07:25:05.000Z</time>
      </trkpt>
      <trkpt lat="50.73993" lon="3.47172">
        <ele>65.11</ele>
        <time>2021-06-20T07:25:06.000Z</time>
      </trkpt>
      <trkpt lat="50.73989" lon="3.47176">
        <ele>64.94</ele>
        <time>2021-06-20T07:25:07.000Z</time>
      </trkpt>
      <trkpt lat="50.73988" lon="3.47187">
        <ele>63.98</ele>
        <time>2021-06-20T07:25:09.000Z</time>
      </trkpt>
      <trkpt lat="50.73993" lon="3.47189">
        <ele>63.36</ele>
        <time>2021-06-20T07:25:10.000Z</time>
      </trkpt>
      <trkpt lat="50.73996" lon="3.47194">
        <ele>63.18</ele>
        <time>2021-06-20T07:25:11.000Z</time>
      </trkpt>
      <trkpt lat="50.74" lon="3.47199">
        <ele>63.27</ele>
        <time>2021-06-20T07:25:12.000Z</time>
      </trkpt>
      <trkpt lat="50.74004" lon="3.47205">
        <ele>63.32</ele>
        <time>2021-06-20T07:25:13.000Z</time>
      </trkpt>
      <trkpt lat="50.74009" lon="3.4721">
        <ele>63.16</ele>
        <time>2021-06-20T07:25:14.000Z</time>
      </trkpt>
      <trkpt lat="50.74014" lon="3.47216">
        <ele>63.39</ele>
        <time>2021-06-20T07:25:15.000Z</time>
      </trkpt>
      <trkpt lat="50.74018" lon="3.47222">
        <ele>63.04</ele>
        <time>2021-06-20T07:25:16.000Z</time>
      </trkpt>
      <trkpt lat="50.74023" lon="3.47229">
        <ele>62.98</ele>
        <time>2021-06-20T07:25:17.000Z</time>
      </trkpt>
      <trkpt lat="50.74027" lon="3.47235">
        <ele>62.43</ele>
        <time>2021-06-20T07:25:18.000Z</time>
      </trkpt>
      <trkpt lat="50.74033" lon="3.47241">
        <ele>62.24</ele>
        <time>2021-06-20T07:25:19.000Z</time>
      </trkpt>
      <trkpt lat="50.74038" lon="3.47247">
        <ele>62.45</ele>
        <time>2021-06-20T07:25:20.000Z</time>
      </trkpt>
      <trkpt lat="50.74044" lon="3.47252">
        <ele>62.54</ele>
        <time>2021-06-20T07:25:21.000Z</time>
      </trkpt>
      <trkpt lat="50.74049" lon="3.47259">
        <ele>62.44</ele>
        <time>2021-06-20T07:25:22.000Z</time>
      </trkpt>
      <trkpt lat="50.74054" lon="3.47266">
        <ele>62.83</ele>
        <time>2021-06-20T07:25:23.000Z</time>
      </trkpt>
      <trkpt lat="50.74059" lon="3.47271">
        <ele>62.06</ele>
        <time>2021-06-20T07:25:24.000Z</time>
      </trkpt>
      <trkpt lat="50.74065" lon="3.47277">
        <ele>62.16</ele>
        <time>2021-06-20T07:25:25.000Z</time>
      </trkpt>
      <trkpt lat="50.7407" lon="3.47283">
        <ele>61.56</ele>
        <time>2021-06-20T07:25:26.000Z</time>
      </trkpt>
      <trkpt lat="50.74075" lon="3.47289">
        <ele>62.07</ele>
        <time>2021-06-20T07:25:27.000Z</time>
      </trkpt>
      <trkpt lat="50.7408" lon="3.47295">
        <ele>61.49</ele>
        <time>2021-06-20T07:25:28.000Z</time>
      </trkpt>
      <trkpt lat="50.74085" lon="3.47302">
        <ele>61.67</ele>
        <time>2021-06-20T07:25:29.000Z</time>
      </trkpt>
      <trkpt lat="50.74091" lon="3.47309">
        <ele>61.86</ele>
        <time>2021-06-20T07:25:30.000Z</time>
      </trkpt>
      <trkpt lat="50.74096" lon="3.47315">
        <ele>61.63</ele>
        <time>2021-06-20T07:25:31.000Z</time>
      </trkpt>
      <trkpt lat="50.74102" lon="3.47321">
        <ele>61.33</ele>
        <time>2021-06-20T07:25:32.000Z</time>
      </trkpt>
      <trkpt lat="50.74107" lon="3.47328">
        <ele>60.88</ele>
        <time>2021-06-20T07:25:33.000Z</time>
      </trkpt>
      <trkpt lat="50.74113" lon="3.47335">
        <ele>60.55</ele>
        <time>2021-06-20T07:25:34.000Z</time>
      </trkpt>
      <trkpt lat="50.74118" lon="3.47342">
        <ele>60.8</ele>
        <time>2021-06-20T07:25:35.000Z</time>
      </trkpt>
      <trkpt lat="50.74124" lon="3.47348">
        <ele>60.9</ele>
        <time>2021-06-20T07:25:36.000Z</time>
      </trkpt>
      <trkpt lat="50.74129" lon="3.47355">
        <ele>60.26</ele>
        <time>2021-06-20T07:25:37.000Z</time>
      </trkpt>
      <trkpt lat="50.74135" lon="3.47361">
        <ele>60.2</ele>
        <time>2021-06-20T07:25:38.000Z</time>
      </trkpt>
      <trkpt lat="50.7414" lon="3.47368">
        <ele>60.13</ele>
        <time>2021-06-20T07:25:39.000Z</time>
      </trkpt>
      <trkpt lat="50.74145" lon="3.47374">
        <ele>59.64</ele>
        <time>2021-06-20T07:25:40.000Z</time>
      </trkpt>
      <trkpt lat="50.7415" lon="3.47381">
        <ele>59.29</ele>
        <time>2021-06-20T07:25:41.000Z</time>
      </trkpt>
      <trkpt lat="50.74155" lon="3.47388">
        <ele>59.58</ele>
        <time>2021-06-20T07:25:42.000Z</time>
      </trkpt>
      <trkpt lat="50.74161" lon="3.47394">
        <ele>59.62</ele>
        <time>2021-06-20T07:25:43.000Z</time>
      </trkpt>
      <trkpt lat="50.74166" lon="3.474">
        <ele>59.67</ele>
        <time>2021-06-20T07:25:44.000Z</time>
      </trkpt>
      <trkpt lat="50.74171" lon="3.47406">
        <ele>59.69</ele>
        <time>2021-06-20T07:25:45.000Z</time>
      </trkpt>
      <trkpt lat="50.74176" lon="3.47413">
        <ele>60.15</ele>
        <time>2021-06-20T07:25:46.000Z</time>
      </trkpt>
      <trkpt lat="50.74181" lon="3.47419">
        <ele>60.11</ele>
        <time>2021-06-20T07:25:47.000Z</time>
      </trkpt>
      <trkpt lat="50.74186" lon="3.47425">
        <ele>59.8</ele>
        <time>2021-06-20T07:25:48.000Z</time>
      </trkpt>
      <trkpt lat="50.74191" lon="3.47431">
        <ele>60.03</ele>
        <time>2021-06-20T07:25:49.000Z</time>
      </trkpt>
      <trkpt lat="50.74197" lon="3.47436">
        <ele>59.27</ele>
        <time>2021-06-20T07:25:50.000Z</time>
      </trkpt>
      <trkpt lat="50.74202" lon="3.47442">
        <ele>59.5</ele>
        <time>2021-06-20T07:25:51.000Z</time>
      </trkpt>
      <trkpt lat="50.74206" lon="3.47448">
        <ele>59.09</ele>
        <time>2021-06-20T07:25:52.000Z</time>
      </trkpt>
      <trkpt lat="50.74211" lon="3.47453">
        <ele>58.87</ele>
        <time>2021-06-20T07:25:53.000Z</time>
      </trkpt>
      <trkpt lat="50.74216" lon="3.4746">
        <ele>58.78</ele>
        <time>2021-06-20T07:25:54.000Z</time>
      </trkpt>
      <trkpt lat="50.74221" lon="3.47466">
        <ele>58.68</ele>
        <time>2021-06-20T07:25:55.000Z</time>
      </trkpt>
      <trkpt lat="50.74225" lon="3.47473">
        <ele>58.72</ele>
        <time>2021-06-20T07:25:56.000Z</time>
      </trkpt>
      <trkpt lat="50.7423" lon="3.4748">
        <ele>58.66</ele>
        <time>2021-06-20T07:25:57.000Z</time>
      </trkpt>
      <trkpt lat="50.74234" lon="3.47486">
        <ele>59.99</ele>
        <time>2021-06-20T07:25:58.000Z</time>
      </trkpt>
      <trkpt lat="50.74238" lon="3.47491">
        <ele>59.92</ele>
        <time>2021-06-20T07:25:59.000Z</time>
      </trkpt>
      <trkpt lat="50.74243" lon="3.47496">
        <ele>59.32</ele>
        <time>2021-06-20T07:26:00.000Z</time>
      </trkpt>
      <trkpt lat="50.74248" lon="3.47502">
        <ele>59.63</ele>
        <time>2021-06-20T07:26:01.000Z</time>
      </trkpt>
      <trkpt lat="50.74252" lon="3.47508">
        <ele>59.67</ele>
        <time>2021-06-20T07:26:02.000Z</time>
      </trkpt>
      <trkpt lat="50.74257" lon="3.47513">
        <ele>59.4</ele>
        <time>2021-06-20T07:26:03.000Z</time>
      </trkpt>
      <trkpt lat="50.74261" lon="3.47518">
        <ele>60.26</ele>
        <time>2021-06-20T07:26:04.000Z</time>
      </trkpt>
      <trkpt lat="50.74265" lon="3.47524">
        <ele>60.73</ele>
        <time>2021-06-20T07:26:05.000Z</time>
      </trkpt>
      <trkpt lat="50.7427" lon="3.47528">
        <ele>61.53</ele>
        <time>2021-06-20T07:26:06.000Z</time>
      </trkpt>
      <trkpt lat="50.74275" lon="3.47534">
        <ele>61.03</ele>
        <time>2021-06-20T07:26:07.000Z</time>
      </trkpt>
      <trkpt lat="50.74279" lon="3.47541">
        <ele>61.69</ele>
        <time>2021-06-20T07:26:08.000Z</time>
      </trkpt>
      <trkpt lat="50.74283" lon="3.47547">
        <ele>61.76</ele>
        <time>2021-06-20T07:26:09.000Z</time>
      </trkpt>
      <trkpt lat="50.74287" lon="3.47552">
        <ele>61.72</ele>
        <time>2021-06-20T07:26:10.000Z</time>
      </trkpt>
      <trkpt lat="50.74292" lon="3.47559">
        <ele>62.06</ele>
        <time>2021-06-20T07:26:11.000Z</time>
      </trkpt>
      <trkpt lat="50.74296" lon="3.47565">
        <ele>62.23</ele>
        <time>2021-06-20T07:26:12.000Z</time>
      </trkpt>
      <trkpt lat="50.74302" lon="3.4757">
        <ele>62.15</ele>
        <time>2021-06-20T07:26:13.000Z</time>
      </trkpt>
      <trkpt lat="50.74306" lon="3.47576">
        <ele>61.99</ele>
        <time>2021-06-20T07:26:14.000Z</time>
      </trkpt>
      <trkpt lat="50.7431" lon="3.47583">
        <ele>61.77</ele>
        <time>2021-06-20T07:26:15.000Z</time>
      </trkpt>
      <trkpt lat="50.74315" lon="3.4759">
        <ele>61.72</ele>
        <time>2021-06-20T07:26:16.000Z</time>
      </trkpt>
      <trkpt lat="50.74319" lon="3.47597">
        <ele>60.93</ele>
        <time>2021-06-20T07:26:17.000Z</time>
      </trkpt>
      <trkpt lat="50.74322" lon="3.47605">
        <ele>60.79</ele>
        <time>2021-06-20T07:26:18.000Z</time>
      </trkpt>
      <trkpt lat="50.74327" lon="3.47612">
        <ele>61.2</ele>
        <time>2021-06-20T07:26:19.000Z</time>
      </trkpt>
      <trkpt lat="50.7433" lon="3.47619">
        <ele>61.28</ele>
        <time>2021-06-20T07:26:20.000Z</time>
      </trkpt>
      <trkpt lat="50.74334" lon="3.47626">
        <ele>61.79</ele>
        <time>2021-06-20T07:26:21.000Z</time>
      </trkpt>
      <trkpt lat="50.74337" lon="3.47633">
        <ele>61.5</ele>
        <time>2021-06-20T07:26:22.000Z</time>
      </trkpt>
      <trkpt lat="50.74341" lon="3.47641">
        <ele>62.29</ele>
        <time>2021-06-20T07:26:23.000Z</time>
      </trkpt>
      <trkpt lat="50.74345" lon="3.47648">
        <ele>62.55</ele>
        <time>2021-06-20T07:26:24.000Z</time>
      </trkpt>
      <trkpt lat="50.74349" lon="3.47657">
        <ele>62.92</ele>
        <time>2021-06-20T07:26:25.000Z</time>
      </trkpt>
      <trkpt lat="50.74353" lon="3.47664">
        <ele>63.04</ele>
        <time>2021-06-20T07:26:26.000Z</time>
      </trkpt>
      <trkpt lat="50.74357" lon="3.47672">
        <ele>62.63</ele>
        <time>2021-06-20T07:26:27.000Z</time>
      </trkpt>
      <trkpt lat="50.7436" lon="3.4768">
        <ele>62.52</ele>
        <time>2021-06-20T07:26:28.000Z</time>
      </trkpt>
      <trkpt lat="50.74364" lon="3.47688">
        <ele>61.31</ele>
        <time>2021-06-20T07:26:29.000Z</time>
      </trkpt>
      <trkpt lat="50.74367" lon="3.47697">
        <ele>61.76</ele>
        <time>2021-06-20T07:26:30.000Z</time>
      </trkpt>
      <trkpt lat="50.7437" lon="3.47704">
        <ele>60.61</ele>
        <time>2021-06-20T07:26:31.000Z</time>
      </trkpt>
      <trkpt lat="50.74374" lon="3.47713">
        <ele>60.51</ele>
        <time>2021-06-20T07:26:32.000Z</time>
      </trkpt>
      <trkpt lat="50.74377" lon="3.47722">
        <ele>60.65</ele>
        <time>2021-06-20T07:26:33.000Z</time>
      </trkpt>
      <trkpt lat="50.7438" lon="3.4773">
        <ele>60.96</ele>
        <time>2021-06-20T07:26:34.000Z</time>
      </trkpt>
      <trkpt lat="50.74383" lon="3.47739">
        <ele>60.69</ele>
        <time>2021-06-20T07:26:35.000Z</time>
      </trkpt>
      <trkpt lat="50.74386" lon="3.47748">
        <ele>60.8</ele>
        <time>2021-06-20T07:26:36.000Z</time>
      </trkpt>
      <trkpt lat="50.74389" lon="3.47757">
        <ele>60.85</ele>
        <time>2021-06-20T07:26:37.000Z</time>
      </trkpt>
      <trkpt lat="50.74392" lon="3.47765">
        <ele>60.89</ele>
        <time>2021-06-20T07:26:38.000Z</time>
      </trkpt>
      <trkpt lat="50.74395" lon="3.47773">
        <ele>60.56</ele>
        <time>2021-06-20T07:26:39.000Z</time>
      </trkpt>
      <trkpt lat="50.74398" lon="3.47781">
        <ele>60.51</ele>
        <time>2021-06-20T07:26:40.000Z</time>
      </trkpt>
      <trkpt lat="50.74401" lon="3.47788">
        <ele>60.87</ele>
        <time>2021-06-20T07:26:41.000Z</time>
      </trkpt>
      <trkpt lat="50.74402" lon="3.47796">
        <ele>61.34</ele>
        <time>2021-06-20T07:26:42.000Z</time>
      </trkpt>
      <trkpt lat="50.74407" lon="3.47808">
        <ele>60.66</ele>
        <time>2021-06-20T07:26:44.000Z</time>
      </trkpt>
      <trkpt lat="50.74409" lon="3.47814">
        <ele>60.88</ele>
        <time>2021-06-20T07:26:45.000Z</time>
      </trkpt>
      <trkpt lat="50.74411" lon="3.47822">
        <ele>61.41</ele>
        <time>2021-06-20T07:26:46.000Z</time>
      </trkpt>
      <trkpt lat="50.74413" lon="3.47828">
        <ele>61.08</ele>
        <time>2021-06-20T07:26:47.000Z</time>
      </trkpt>
      <trkpt lat="50.74414" lon="3.47841">
        <ele>60.88</ele>
        <time>2021-06-20T07:26:49.000Z</time>
      </trkpt>
      <trkpt lat="50.74416" lon="3.47848">
        <ele>61.73</ele>
        <time>2021-06-20T07:26:50.000Z</time>
      </trkpt>
      <trkpt lat="50.74418" lon="3.47861">
        <ele>61.19</ele>
        <time>2021-06-20T07:26:52.000Z</time>
      </trkpt>
      <trkpt lat="50.74422" lon="3.47873">
        <ele>60.61</ele>
        <time>2021-06-20T07:26:54.000Z</time>
      </trkpt>
      <trkpt lat="50.74425" lon="3.4788">
        <ele>60.38</ele>
        <time>2021-06-20T07:26:55.000Z</time>
      </trkpt>
      <trkpt lat="50.74427" lon="3.47886">
        <ele>60.81</ele>
        <time>2021-06-20T07:26:56.000Z</time>
      </trkpt>
      <trkpt lat="50.74429" lon="3.47898">
        <ele>60.83</ele>
        <time>2021-06-20T07:26:58.000Z</time>
      </trkpt>
      <trkpt lat="50.7443" lon="3.4791">
        <ele>61.41</ele>
        <time>2021-06-20T07:27:00.000Z</time>
      </trkpt>
      <trkpt lat="50.7443" lon="3.47921">
        <ele>61.42</ele>
        <time>2021-06-20T07:27:02.000Z</time>
      </trkpt>
      <trkpt lat="50.74431" lon="3.47933">
        <ele>61.78</ele>
        <time>2021-06-20T07:27:04.000Z</time>
      </trkpt>
      <trkpt lat="50.74432" lon="3.47944">
        <ele>60.56</ele>
        <time>2021-06-20T07:27:06.000Z</time>
      </trkpt>
      <trkpt lat="50.74434" lon="3.47957">
        <ele>59.46</ele>
        <time>2021-06-20T07:27:08.000Z</time>
      </trkpt>
      <trkpt lat="50.74436" lon="3.47969">
        <ele>60.73</ele>
        <time>2021-06-20T07:27:10.000Z</time>
      </trkpt>
      <trkpt lat="50.74437" lon="3.4798">
        <ele>61.12</ele>
        <time>2021-06-20T07:27:12.000Z</time>
      </trkpt>
      <trkpt lat="50.74438" lon="3.47992">
        <ele>61.22</ele>
        <time>2021-06-20T07:27:14.000Z</time>
      </trkpt>
      <trkpt lat="50.74438" lon="3.48">
        <ele>61.19</ele>
        <time>2021-06-20T07:27:16.000Z</time>
      </trkpt>
      <trkpt lat="50.74439" lon="3.4801">
        <ele>61.87</ele>
        <time>2021-06-20T07:27:18.000Z</time>
      </trkpt>
      <trkpt lat="50.7444" lon="3.48022">
        <ele>61.31</ele>
        <time>2021-06-20T07:27:20.000Z</time>
      </trkpt>
      <trkpt lat="50.74441" lon="3.48032">
        <ele>60.99</ele>
        <time>2021-06-20T07:27:22.000Z</time>
      </trkpt>
      <trkpt lat="50.74441" lon="3.48041">
        <ele>58.93</ele>
        <time>2021-06-20T07:27:24.000Z</time>
      </trkpt>
      <trkpt lat="50.74439" lon="3.48053">
        <ele>58.29</ele>
        <time>2021-06-20T07:27:26.000Z</time>
      </trkpt>
      <trkpt lat="50.7444" lon="3.48063">
        <ele>59.58</ele>
        <time>2021-06-20T07:27:28.000Z</time>
      </trkpt>
      <trkpt lat="50.74441" lon="3.48071">
        <ele>59.49</ele>
        <time>2021-06-20T07:27:30.000Z</time>
      </trkpt>
      <trkpt lat="50.7444" lon="3.48081">
        <ele>59.34</ele>
        <time>2021-06-20T07:27:32.000Z</time>
      </trkpt>
      <trkpt lat="50.74442" lon="3.4809">
        <ele>59.97</ele>
        <time>2021-06-20T07:27:34.000Z</time>
      </trkpt>
      <trkpt lat="50.74442" lon="3.481">
        <ele>61</ele>
        <time>2021-06-20T07:27:36.000Z</time>
      </trkpt>
      <trkpt lat="50.74442" lon="3.48111">
        <ele>59.62</ele>
        <time>2021-06-20T07:27:38.000Z</time>
      </trkpt>
      <trkpt lat="50.7444" lon="3.48122">
        <ele>59.62</ele>
        <time>2021-06-20T07:27:40.000Z</time>
      </trkpt>
      <trkpt lat="50.74442" lon="3.48138">
        <ele>60.41</ele>
        <time>2021-06-20T07:27:42.000Z</time>
      </trkpt>
      <trkpt lat="50.74443" lon="3.48153">
        <ele>61.07</ele>
        <time>2021-06-20T07:27:44.000Z</time>
      </trkpt>
      <trkpt lat="50.74443" lon="3.4816">
        <ele>61.28</ele>
        <time>2021-06-20T07:27:45.000Z</time>
      </trkpt>
      <trkpt lat="50.74443" lon="3.48168">
        <ele>62.91</ele>
        <time>2021-06-20T07:27:46.000Z</time>
      </trkpt>
      <trkpt lat="50.74442" lon="3.48177">
        <ele>62.61</ele>
        <time>2021-06-20T07:27:47.000Z</time>
      </trkpt>
      <trkpt lat="50.74442" lon="3.48186">
        <ele>62.8</ele>
        <time>2021-06-20T07:27:48.000Z</time>
      </trkpt>
      <trkpt lat="50.74442" lon="3.48193">
        <ele>63.01</ele>
        <time>2021-06-20T07:27:49.000Z</time>
      </trkpt>
      <trkpt lat="50.74441" lon="3.48202">
        <ele>62.88</ele>
        <time>2021-06-20T07:27:50.000Z</time>
      </trkpt>
      <trkpt lat="50.74442" lon="3.48209">
        <ele>63.81</ele>
        <time>2021-06-20T07:27:51.000Z</time>
      </trkpt>
      <trkpt lat="50.74441" lon="3.48217">
        <ele>64.27</ele>
        <time>2021-06-20T07:27:52.000Z</time>
      </trkpt>
      <trkpt lat="50.7444" lon="3.48229">
        <ele>64.01</ele>
        <time>2021-06-20T07:27:54.000Z</time>
      </trkpt>
      <trkpt lat="50.7444" lon="3.48241">
        <ele>64.23</ele>
        <time>2021-06-20T07:27:56.000Z</time>
      </trkpt>
      <trkpt lat="50.74438" lon="3.48252">
        <ele>64.44</ele>
        <time>2021-06-20T07:27:58.000Z</time>
      </trkpt>
      <trkpt lat="50.74436" lon="3.48264">
        <ele>64.24</ele>
        <time>2021-06-20T07:28:00.000Z</time>
      </trkpt>
      <trkpt lat="50.74438" lon="3.48273">
        <ele>63.98</ele>
        <time>2021-06-20T07:28:02.000Z</time>
      </trkpt>
      <trkpt lat="50.74443" lon="3.48276">
        <ele>63.92</ele>
        <time>2021-06-20T07:28:04.000Z</time>
      </trkpt>
      <trkpt lat="50.7445" lon="3.48279">
        <ele>63.95</ele>
        <time>2021-06-20T07:28:06.000Z</time>
      </trkpt>
      <trkpt lat="50.74457" lon="3.48282">
        <ele>63.57</ele>
        <time>2021-06-20T07:28:08.000Z</time>
      </trkpt>
      <trkpt lat="50.74465" lon="3.48285">
        <ele>63.77</ele>
        <time>2021-06-20T07:28:10.000Z</time>
      </trkpt>
      <trkpt lat="50.74465" lon="3.48285">
        <ele>63.77</ele>
        <time>2021-06-20T07:28:10.001Z</time>
      </trkpt>
      <trkpt lat="50.7447" lon="3.48286">
        <ele>62.35</ele>
        <time>2021-06-20T07:28:41.000Z</time>
      </trkpt>
      <trkpt lat="50.74477" lon="3.48288">
        <ele>62.54</ele>
        <time>2021-06-20T07:28:44.000Z</time>
      </trkpt>
      <trkpt lat="50.74484" lon="3.48291">
        <ele>62.79</ele>
        <time>2021-06-20T07:28:46.000Z</time>
      </trkpt>
      <trkpt lat="50.74488" lon="3.48295">
        <ele>62.95</ele>
        <time>2021-06-20T07:28:47.000Z</time>
      </trkpt>
      <trkpt lat="50.74497" lon="3.483">
        <ele>62.9</ele>
        <time>2021-06-20T07:28:49.000Z</time>
      </trkpt>
      <trkpt lat="50.74502" lon="3.48302">
        <ele>63.1</ele>
        <time>2021-06-20T07:28:50.000Z</time>
      </trkpt>
      <trkpt lat="50.74507" lon="3.48305">
        <ele>63.17</ele>
        <time>2021-06-20T07:28:51.000Z</time>
      </trkpt>
      <trkpt lat="50.74511" lon="3.48308">
        <ele>63.08</ele>
        <time>2021-06-20T07:28:52.000Z</time>
      </trkpt>
      <trkpt lat="50.74516" lon="3.48312">
        <ele>63</ele>
        <time>2021-06-20T07:28:53.000Z</time>
      </trkpt>
      <trkpt lat="50.7452" lon="3.48317">
        <ele>63.17</ele>
        <time>2021-06-20T07:28:54.000Z</time>
      </trkpt>
      <trkpt lat="50.74525" lon="3.48323">
        <ele>63.23</ele>
        <time>2021-06-20T07:28:55.000Z</time>
      </trkpt>
      <trkpt lat="50.74528" lon="3.48329">
        <ele>63.39</ele>
        <time>2021-06-20T07:28:56.000Z</time>
      </trkpt>
      <trkpt lat="50.7453" lon="3.48336">
        <ele>63.51</ele>
        <time>2021-06-20T07:28:57.000Z</time>
      </trkpt>
      <trkpt lat="50.74529" lon="3.48345">
        <ele>64.03</ele>
        <time>2021-06-20T07:28:58.000Z</time>
      </trkpt>
      <trkpt lat="50.74528" lon="3.48353">
        <ele>64.05</ele>
        <time>2021-06-20T07:28:59.000Z</time>
      </trkpt>
      <trkpt lat="50.74527" lon="3.48362">
        <ele>63.85</ele>
        <time>2021-06-20T07:29:00.000Z</time>
      </trkpt>
      <trkpt lat="50.74525" lon="3.48369">
        <ele>63.67</ele>
        <time>2021-06-20T07:29:01.000Z</time>
      </trkpt>
      <trkpt lat="50.74524" lon="3.48378">
        <ele>63.73</ele>
        <time>2021-06-20T07:29:02.000Z</time>
      </trkpt>
      <trkpt lat="50.74522" lon="3.48386">
        <ele>63.91</ele>
        <time>2021-06-20T07:29:03.000Z</time>
      </trkpt>
      <trkpt lat="50.74521" lon="3.48394">
        <ele>63.97</ele>
        <time>2021-06-20T07:29:04.000Z</time>
      </trkpt>
      <trkpt lat="50.74521" lon="3.48403">
        <ele>63.87</ele>
        <time>2021-06-20T07:29:05.000Z</time>
      </trkpt>
      <trkpt lat="50.74523" lon="3.48411">
        <ele>63.77</ele>
        <time>2021-06-20T07:29:06.000Z</time>
      </trkpt>
      <trkpt lat="50.74526" lon="3.48418">
        <ele>64.15</ele>
        <time>2021-06-20T07:29:07.000Z</time>
      </trkpt>
      <trkpt lat="50.74531" lon="3.48423">
        <ele>63.95</ele>
        <time>2021-06-20T07:29:08.000Z</time>
      </trkpt>
      <trkpt lat="50.74536" lon="3.48427">
        <ele>64.03</ele>
        <time>2021-06-20T07:29:09.000Z</time>
      </trkpt>
      <trkpt lat="50.74542" lon="3.48431">
        <ele>63.94</ele>
        <time>2021-06-20T07:29:10.000Z</time>
      </trkpt>
      <trkpt lat="50.74547" lon="3.48435">
        <ele>63.79</ele>
        <time>2021-06-20T07:29:11.000Z</time>
      </trkpt>
      <trkpt lat="50.74552" lon="3.48439">
        <ele>63.68</ele>
        <time>2021-06-20T07:29:12.000Z</time>
      </trkpt>
      <trkpt lat="50.74557" lon="3.48443">
        <ele>63.61</ele>
        <time>2021-06-20T07:29:13.000Z</time>
      </trkpt>
      <trkpt lat="50.74563" lon="3.48447">
        <ele>63.59</ele>
        <time>2021-06-20T07:29:14.000Z</time>
      </trkpt>
      <trkpt lat="50.74568" lon="3.48451">
        <ele>63.93</ele>
        <time>2021-06-20T07:29:15.000Z</time>
      </trkpt>
      <trkpt lat="50.74574" lon="3.48455">
        <ele>64.04</ele>
        <time>2021-06-20T07:29:16.000Z</time>
      </trkpt>
      <trkpt lat="50.74579" lon="3.48459">
        <ele>64.29</ele>
        <time>2021-06-20T07:29:17.000Z</time>
      </trkpt>
      <trkpt lat="50.74585" lon="3.48464">
        <ele>64.14</ele>
        <time>2021-06-20T07:29:18.000Z</time>
      </trkpt>
      <trkpt lat="50.7459" lon="3.48468">
        <ele>64.01</ele>
        <time>2021-06-20T07:29:19.000Z</time>
      </trkpt>
      <trkpt lat="50.74596" lon="3.48472">
        <ele>63.95</ele>
        <time>2021-06-20T07:29:20.000Z</time>
      </trkpt>
      <trkpt lat="50.74601" lon="3.48476">
        <ele>63.95</ele>
        <time>2021-06-20T07:29:21.000Z</time>
      </trkpt>
      <trkpt lat="50.74607" lon="3.4848">
        <ele>63.69</ele>
        <time>2021-06-20T07:29:22.000Z</time>
      </trkpt>
      <trkpt lat="50.74612" lon="3.48484">
        <ele>63.8</ele>
        <time>2021-06-20T07:29:23.000Z</time>
      </trkpt>
      <trkpt lat="50.74617" lon="3.48488">
        <ele>63.89</ele>
        <time>2021-06-20T07:29:24.000Z</time>
      </trkpt>
      <trkpt lat="50.74623" lon="3.48492">
        <ele>64.15</ele>
        <time>2021-06-20T07:29:25.000Z</time>
      </trkpt>
      <trkpt lat="50.74628" lon="3.48496">
        <ele>64.7</ele>
        <time>2021-06-20T07:29:26.000Z</time>
      </trkpt>
      <trkpt lat="50.74633" lon="3.48499">
        <ele>64.86</ele>
        <time>2021-06-20T07:29:27.000Z</time>
      </trkpt>
      <trkpt lat="50.74638" lon="3.48503">
        <ele>65.34</ele>
        <time>2021-06-20T07:29:28.000Z</time>
      </trkpt>
      <trkpt lat="50.74643" lon="3.48507">
        <ele>65.66</ele>
        <time>2021-06-20T07:29:29.000Z</time>
      </trkpt>
      <trkpt lat="50.74649" lon="3.48511">
        <ele>65.44</ele>
        <time>2021-06-20T07:29:30.000Z</time>
      </trkpt>
      <trkpt lat="50.74654" lon="3.48514">
        <ele>65.61</ele>
        <time>2021-06-20T07:29:31.000Z</time>
      </trkpt>
      <trkpt lat="50.7466" lon="3.48518">
        <ele>65.47</ele>
        <time>2021-06-20T07:29:32.000Z</time>
      </trkpt>
      <trkpt lat="50.74665" lon="3.48522">
        <ele>65.66</ele>
        <time>2021-06-20T07:29:33.000Z</time>
      </trkpt>
      <trkpt lat="50.7467" lon="3.48526">
        <ele>65.46</ele>
        <time>2021-06-20T07:29:34.000Z</time>
      </trkpt>
      <trkpt lat="50.74674" lon="3.4853">
        <ele>65.08</ele>
        <time>2021-06-20T07:29:35.000Z</time>
      </trkpt>
      <trkpt lat="50.74679" lon="3.48534">
        <ele>65.59</ele>
        <time>2021-06-20T07:29:36.000Z</time>
      </trkpt>
      <trkpt lat="50.74684" lon="3.48537">
        <ele>65.72</ele>
        <time>2021-06-20T07:29:37.000Z</time>
      </trkpt>
      <trkpt lat="50.74689" lon="3.4854">
        <ele>66.04</ele>
        <time>2021-06-20T07:29:38.000Z</time>
      </trkpt>
      <trkpt lat="50.74694" lon="3.48547">
        <ele>66.32</ele>
        <time>2021-06-20T07:29:40.000Z</time>
      </trkpt>
      <trkpt lat="50.74701" lon="3.48553">
        <ele>66.91</ele>
        <time>2021-06-20T07:29:42.000Z</time>
      </trkpt>
      <trkpt lat="50.74709" lon="3.48556">
        <ele>67.63</ele>
        <time>2021-06-20T07:29:44.000Z</time>
      </trkpt>
      <trkpt lat="50.74717" lon="3.48562">
        <ele>68.14</ele>
        <time>2021-06-20T07:29:46.000Z</time>
      </trkpt>
      <trkpt lat="50.74726" lon="3.48564">
        <ele>68.44</ele>
        <time>2021-06-20T07:29:48.000Z</time>
      </trkpt>
      <trkpt lat="50.7473" lon="3.48566">
        <ele>68.67</ele>
        <time>2021-06-20T07:29:49.000Z</time>
      </trkpt>
      <trkpt lat="50.74735" lon="3.48569">
        <ele>68.78</ele>
        <time>2021-06-20T07:29:50.000Z</time>
      </trkpt>
      <trkpt lat="50.7474" lon="3.48572">
        <ele>68.88</ele>
        <time>2021-06-20T07:29:51.000Z</time>
      </trkpt>
      <trkpt lat="50.74745" lon="3.48574">
        <ele>68.78</ele>
        <time>2021-06-20T07:29:52.000Z</time>
      </trkpt>
      <trkpt lat="50.7475" lon="3.48576">
        <ele>68.84</ele>
        <time>2021-06-20T07:29:53.000Z</time>
      </trkpt>
      <trkpt lat="50.74755" lon="3.48578">
        <ele>69</ele>
        <time>2021-06-20T07:29:54.000Z</time>
      </trkpt>
      <trkpt lat="50.74761" lon="3.4858">
        <ele>69.8</ele>
        <time>2021-06-20T07:29:55.000Z</time>
      </trkpt>
      <trkpt lat="50.74766" lon="3.48582">
        <ele>69.7</ele>
        <time>2021-06-20T07:29:56.000Z</time>
      </trkpt>
      <trkpt lat="50.74771" lon="3.48584">
        <ele>70.05</ele>
        <time>2021-06-20T07:29:57.000Z</time>
      </trkpt>
      <trkpt lat="50.74776" lon="3.48586">
        <ele>69.88</ele>
        <time>2021-06-20T07:29:58.000Z</time>
      </trkpt>
      <trkpt lat="50.74781" lon="3.48588">
        <ele>69.95</ele>
        <time>2021-06-20T07:29:59.000Z</time>
      </trkpt>
      <trkpt lat="50.74786" lon="3.4859">
        <ele>70.35</ele>
        <time>2021-06-20T07:30:00.000Z</time>
      </trkpt>
      <trkpt lat="50.74791" lon="3.48592">
        <ele>70.86</ele>
        <time>2021-06-20T07:30:01.000Z</time>
      </trkpt>
      <trkpt lat="50.74796" lon="3.48594">
        <ele>71.55</ele>
        <time>2021-06-20T07:30:02.000Z</time>
      </trkpt>
      <trkpt lat="50.74801" lon="3.48597">
        <ele>72.11</ele>
        <time>2021-06-20T07:30:03.000Z</time>
      </trkpt>
      <trkpt lat="50.74807" lon="3.48599">
        <ele>72.24</ele>
        <time>2021-06-20T07:30:04.000Z</time>
      </trkpt>
      <trkpt lat="50.74812" lon="3.48601">
        <ele>72.45</ele>
        <time>2021-06-20T07:30:05.000Z</time>
      </trkpt>
      <trkpt lat="50.74817" lon="3.48603">
        <ele>72.93</ele>
        <time>2021-06-20T07:30:06.000Z</time>
      </trkpt>
      <trkpt lat="50.74822" lon="3.48604">
        <ele>73.18</ele>
        <time>2021-06-20T07:30:07.000Z</time>
      </trkpt>
      <trkpt lat="50.74827" lon="3.48606">
        <ele>73.25</ele>
        <time>2021-06-20T07:30:08.000Z</time>
      </trkpt>
      <trkpt lat="50.74832" lon="3.48607">
        <ele>73.62</ele>
        <time>2021-06-20T07:30:09.000Z</time>
      </trkpt>
      <trkpt lat="50.74837" lon="3.48607">
        <ele>74.02</ele>
        <time>2021-06-20T07:30:10.000Z</time>
      </trkpt>
      <trkpt lat="50.74842" lon="3.48608">
        <ele>74.27</ele>
        <time>2021-06-20T07:30:11.000Z</time>
      </trkpt>
      <trkpt lat="50.74847" lon="3.48608">
        <ele>74.39</ele>
        <time>2021-06-20T07:30:12.000Z</time>
      </trkpt>
      <trkpt lat="50.74853" lon="3.48608">
        <ele>74.79</ele>
        <time>2021-06-20T07:30:13.000Z</time>
      </trkpt>
      <trkpt lat="50.74858" lon="3.48607">
        <ele>74.99</ele>
        <time>2021-06-20T07:30:14.000Z</time>
      </trkpt>
      <trkpt lat="50.74866" lon="3.48607">
        <ele>76.12</ele>
        <time>2021-06-20T07:30:16.000Z</time>
      </trkpt>
      <trkpt lat="50.74871" lon="3.48606">
        <ele>76.27</ele>
        <time>2021-06-20T07:30:17.000Z</time>
      </trkpt>
      <trkpt lat="50.74876" lon="3.48606">
        <ele>76.58</ele>
        <time>2021-06-20T07:30:18.000Z</time>
      </trkpt>
      <trkpt lat="50.7488" lon="3.48605">
        <ele>77.17</ele>
        <time>2021-06-20T07:30:19.000Z</time>
      </trkpt>
      <trkpt lat="50.74889" lon="3.48605">
        <ele>77.98</ele>
        <time>2021-06-20T07:30:21.000Z</time>
      </trkpt>
      <trkpt lat="50.74898" lon="3.48604">
        <ele>78.63</ele>
        <time>2021-06-20T07:30:23.000Z</time>
      </trkpt>
      <trkpt lat="50.74907" lon="3.48604">
        <ele>79.42</ele>
        <time>2021-06-20T07:30:25.000Z</time>
      </trkpt>
      <trkpt lat="50.74911" lon="3.48603">
        <ele>79.6</ele>
        <time>2021-06-20T07:30:26.000Z</time>
      </trkpt>
      <trkpt lat="50.74916" lon="3.48603">
        <ele>80</ele>
        <time>2021-06-20T07:30:27.000Z</time>
      </trkpt>
      <trkpt lat="50.74925" lon="3.48602">
        <ele>81.01</ele>
        <time>2021-06-20T07:30:29.000Z</time>
      </trkpt>
      <trkpt lat="50.7493" lon="3.48601">
        <ele>81.68</ele>
        <time>2021-06-20T07:30:30.000Z</time>
      </trkpt>
      <trkpt lat="50.74938" lon="3.48596">
        <ele>82.67</ele>
        <time>2021-06-20T07:30:32.000Z</time>
      </trkpt>
      <trkpt lat="50.74942" lon="3.48586">
        <ele>83.16</ele>
        <time>2021-06-20T07:30:34.000Z</time>
      </trkpt>
      <trkpt lat="50.74945" lon="3.48573">
        <ele>83.38</ele>
        <time>2021-06-20T07:30:36.000Z</time>
      </trkpt>
      <trkpt lat="50.74947" lon="3.48566">
        <ele>83.4</ele>
        <time>2021-06-20T07:30:37.000Z</time>
      </trkpt>
      <trkpt lat="50.74949" lon="3.48559">
        <ele>83.59</ele>
        <time>2021-06-20T07:30:38.000Z</time>
      </trkpt>
      <trkpt lat="50.74951" lon="3.48552">
        <ele>83.66</ele>
        <time>2021-06-20T07:30:39.000Z</time>
      </trkpt>
      <trkpt lat="50.74953" lon="3.48545">
        <ele>83.47</ele>
        <time>2021-06-20T07:30:40.000Z</time>
      </trkpt>
      <trkpt lat="50.74954" lon="3.48538">
        <ele>83.57</ele>
        <time>2021-06-20T07:30:41.000Z</time>
      </trkpt>
      <trkpt lat="50.74955" lon="3.4853">
        <ele>83.43</ele>
        <time>2021-06-20T07:30:42.000Z</time>
      </trkpt>
      <trkpt lat="50.74957" lon="3.48521">
        <ele>82.93</ele>
        <time>2021-06-20T07:30:43.000Z</time>
      </trkpt>
      <trkpt lat="50.74958" lon="3.48513">
        <ele>82.71</ele>
        <time>2021-06-20T07:30:44.000Z</time>
      </trkpt>
      <trkpt lat="50.7496" lon="3.48505">
        <ele>82.7</ele>
        <time>2021-06-20T07:30:45.000Z</time>
      </trkpt>
      <trkpt lat="50.74961" lon="3.48497">
        <ele>82.58</ele>
        <time>2021-06-20T07:30:46.000Z</time>
      </trkpt>
      <trkpt lat="50.74963" lon="3.48488">
        <ele>82.38</ele>
        <time>2021-06-20T07:30:47.000Z</time>
      </trkpt>
      <trkpt lat="50.74964" lon="3.4848">
        <ele>82.02</ele>
        <time>2021-06-20T07:30:48.000Z</time>
      </trkpt>
      <trkpt lat="50.74966" lon="3.48472">
        <ele>82.24</ele>
        <time>2021-06-20T07:30:49.000Z</time>
      </trkpt>
      <trkpt lat="50.74967" lon="3.48464">
        <ele>81.81</ele>
        <time>2021-06-20T07:30:50.000Z</time>
      </trkpt>
      <trkpt lat="50.74969" lon="3.48455">
        <ele>81.59</ele>
        <time>2021-06-20T07:30:51.000Z</time>
      </trkpt>
      <trkpt lat="50.74971" lon="3.48447">
        <ele>80.73</ele>
        <time>2021-06-20T07:30:52.000Z</time>
      </trkpt>
      <trkpt lat="50.74973" lon="3.48439">
        <ele>81.08</ele>
        <time>2021-06-20T07:30:53.000Z</time>
      </trkpt>
      <trkpt lat="50.74975" lon="3.48432">
        <ele>81.19</ele>
        <time>2021-06-20T07:30:54.000Z</time>
      </trkpt>
      <trkpt lat="50.74978" lon="3.48425">
        <ele>81.39</ele>
        <time>2021-06-20T07:30:55.000Z</time>
      </trkpt>
      <trkpt lat="50.74982" lon="3.48415">
        <ele>81.14</ele>
        <time>2021-06-20T07:30:57.000Z</time>
      </trkpt>
      <trkpt lat="50.74986" lon="3.48411">
        <ele>81.37</ele>
        <time>2021-06-20T07:30:59.000Z</time>
      </trkpt>
      <trkpt lat="50.74992" lon="3.48415">
        <ele>81.69</ele>
        <time>2021-06-20T07:31:02.000Z</time>
      </trkpt>
      <trkpt lat="50.74998" lon="3.48419">
        <ele>81.47</ele>
        <time>2021-06-20T07:31:04.000Z</time>
      </trkpt>
      <trkpt lat="50.75006" lon="3.48423">
        <ele>81.85</ele>
        <time>2021-06-20T07:31:06.000Z</time>
      </trkpt>
      <trkpt lat="50.75011" lon="3.48426">
        <ele>81.91</ele>
        <time>2021-06-20T07:31:07.000Z</time>
      </trkpt>
      <trkpt lat="50.75016" lon="3.48428">
        <ele>82.39</ele>
        <time>2021-06-20T07:31:08.000Z</time>
      </trkpt>
      <trkpt lat="50.75021" lon="3.4843">
        <ele>82.7</ele>
        <time>2021-06-20T07:31:09.000Z</time>
      </trkpt>
      <trkpt lat="50.75026" lon="3.48433">
        <ele>83.34</ele>
        <time>2021-06-20T07:31:10.000Z</time>
      </trkpt>
      <trkpt lat="50.75031" lon="3.48436">
        <ele>83.87</ele>
        <time>2021-06-20T07:31:11.000Z</time>
      </trkpt>
      <trkpt lat="50.75036" lon="3.48439">
        <ele>84.15</ele>
        <time>2021-06-20T07:31:12.000Z</time>
      </trkpt>
      <trkpt lat="50.75041" lon="3.48442">
        <ele>84.5</ele>
        <time>2021-06-20T07:31:13.000Z</time>
      </trkpt>
      <trkpt lat="50.75045" lon="3.48446">
        <ele>84.73</ele>
        <time>2021-06-20T07:31:14.000Z</time>
      </trkpt>
      <trkpt lat="50.7505" lon="3.48451">
        <ele>85.3</ele>
        <time>2021-06-20T07:31:15.000Z</time>
      </trkpt>
      <trkpt lat="50.75054" lon="3.48456">
        <ele>85.46</ele>
        <time>2021-06-20T07:31:16.000Z</time>
      </trkpt>
      <trkpt lat="50.75058" lon="3.48462">
        <ele>85.69</ele>
        <time>2021-06-20T07:31:17.000Z</time>
      </trkpt>
      <trkpt lat="50.75062" lon="3.48467">
        <ele>86.13</ele>
        <time>2021-06-20T07:31:18.000Z</time>
      </trkpt>
      <trkpt lat="50.75065" lon="3.48472">
        <ele>86.14</ele>
        <time>2021-06-20T07:31:19.000Z</time>
      </trkpt>
      <trkpt lat="50.75069" lon="3.48477">
        <ele>86.26</ele>
        <time>2021-06-20T07:31:20.000Z</time>
      </trkpt>
      <trkpt lat="50.75073" lon="3.48482">
        <ele>86.02</ele>
        <time>2021-06-20T07:31:21.000Z</time>
      </trkpt>
      <trkpt lat="50.75077" lon="3.48487">
        <ele>86.35</ele>
        <time>2021-06-20T07:31:22.000Z</time>
      </trkpt>
      <trkpt lat="50.75081" lon="3.48492">
        <ele>86.45</ele>
        <time>2021-06-20T07:31:23.000Z</time>
      </trkpt>
      <trkpt lat="50.75086" lon="3.48497">
        <ele>86.9</ele>
        <time>2021-06-20T07:31:24.000Z</time>
      </trkpt>
      <trkpt lat="50.7509" lon="3.48501">
        <ele>86.94</ele>
        <time>2021-06-20T07:31:25.000Z</time>
      </trkpt>
      <trkpt lat="50.75095" lon="3.48506">
        <ele>87.11</ele>
        <time>2021-06-20T07:31:26.000Z</time>
      </trkpt>
      <trkpt lat="50.75099" lon="3.48509">
        <ele>87.44</ele>
        <time>2021-06-20T07:31:27.000Z</time>
      </trkpt>
      <trkpt lat="50.75103" lon="3.48513">
        <ele>87.54</ele>
        <time>2021-06-20T07:31:28.000Z</time>
      </trkpt>
      <trkpt lat="50.75107" lon="3.48516">
        <ele>87.73</ele>
        <time>2021-06-20T07:31:29.000Z</time>
      </trkpt>
      <trkpt lat="50.75112" lon="3.48519">
        <ele>87.63</ele>
        <time>2021-06-20T07:31:30.000Z</time>
      </trkpt>
      <trkpt lat="50.75116" lon="3.48522">
        <ele>87.85</ele>
        <time>2021-06-20T07:31:31.000Z</time>
      </trkpt>
      <trkpt lat="50.75121" lon="3.48525">
        <ele>87.56</ele>
        <time>2021-06-20T07:31:32.000Z</time>
      </trkpt>
      <trkpt lat="50.75126" lon="3.48528">
        <ele>87.32</ele>
        <time>2021-06-20T07:31:33.000Z</time>
      </trkpt>
      <trkpt lat="50.7513" lon="3.48531">
        <ele>87.29</ele>
        <time>2021-06-20T07:31:34.000Z</time>
      </trkpt>
      <trkpt lat="50.75135" lon="3.48534">
        <ele>87.29</ele>
        <time>2021-06-20T07:31:35.000Z</time>
      </trkpt>
      <trkpt lat="50.75139" lon="3.48537">
        <ele>87.83</ele>
        <time>2021-06-20T07:31:36.000Z</time>
      </trkpt>
      <trkpt lat="50.75147" lon="3.48543">
        <ele>88.33</ele>
        <time>2021-06-20T07:31:38.000Z</time>
      </trkpt>
      <trkpt lat="50.75152" lon="3.48545">
        <ele>88.47</ele>
        <time>2021-06-20T07:31:39.000Z</time>
      </trkpt>
      <trkpt lat="50.75156" lon="3.48548">
        <ele>88.99</ele>
        <time>2021-06-20T07:31:40.000Z</time>
      </trkpt>
      <trkpt lat="50.75161" lon="3.4855">
        <ele>89.47</ele>
        <time>2021-06-20T07:31:41.000Z</time>
      </trkpt>
      <trkpt lat="50.75165" lon="3.48553">
        <ele>89.22</ele>
        <time>2021-06-20T07:31:42.000Z</time>
      </trkpt>
      <trkpt lat="50.7517" lon="3.48555">
        <ele>89.74</ele>
        <time>2021-06-20T07:31:43.000Z</time>
      </trkpt>
      <trkpt lat="50.75175" lon="3.48557">
        <ele>90.06</ele>
        <time>2021-06-20T07:31:44.000Z</time>
      </trkpt>
      <trkpt lat="50.7518" lon="3.48559">
        <ele>89.92</ele>
        <time>2021-06-20T07:31:45.000Z</time>
      </trkpt>
      <trkpt lat="50.75184" lon="3.48562">
        <ele>90.51</ele>
        <time>2021-06-20T07:31:46.000Z</time>
      </trkpt>
      <trkpt lat="50.75189" lon="3.48564">
        <ele>90.51</ele>
        <time>2021-06-20T07:31:47.000Z</time>
      </trkpt>
      <trkpt lat="50.75193" lon="3.48567">
        <ele>91.01</ele>
        <time>2021-06-20T07:31:48.000Z</time>
      </trkpt>
      <trkpt lat="50.75198" lon="3.48569">
        <ele>90.82</ele>
        <time>2021-06-20T07:31:49.000Z</time>
      </trkpt>
      <trkpt lat="50.75203" lon="3.48571">
        <ele>90.96</ele>
        <time>2021-06-20T07:31:50.000Z</time>
      </trkpt>
      <trkpt lat="50.75207" lon="3.48574">
        <ele>91.45</ele>
        <time>2021-06-20T07:31:51.000Z</time>
      </trkpt>
      <trkpt lat="50.75212" lon="3.48576">
        <ele>91.69</ele>
        <time>2021-06-20T07:31:52.000Z</time>
      </trkpt>
      <trkpt lat="50.75217" lon="3.48578">
        <ele>92.12</ele>
        <time>2021-06-20T07:31:53.000Z</time>
      </trkpt>
      <trkpt lat="50.75222" lon="3.48581">
        <ele>92.26</ele>
        <time>2021-06-20T07:31:54.000Z</time>
      </trkpt>
      <trkpt lat="50.75227" lon="3.48582">
        <ele>92.67</ele>
        <time>2021-06-20T07:31:55.000Z</time>
      </trkpt>
      <trkpt lat="50.75231" lon="3.48584">
        <ele>93.09</ele>
        <time>2021-06-20T07:31:56.000Z</time>
      </trkpt>
      <trkpt lat="50.75236" lon="3.48586">
        <ele>93.4</ele>
        <time>2021-06-20T07:31:57.000Z</time>
      </trkpt>
      <trkpt lat="50.7524" lon="3.48589">
        <ele>93.65</ele>
        <time>2021-06-20T07:31:58.000Z</time>
      </trkpt>
      <trkpt lat="50.75245" lon="3.48591">
        <ele>93.91</ele>
        <time>2021-06-20T07:31:59.000Z</time>
      </trkpt>
      <trkpt lat="50.7525" lon="3.48592">
        <ele>94.47</ele>
        <time>2021-06-20T07:32:00.000Z</time>
      </trkpt>
      <trkpt lat="50.75255" lon="3.48595">
        <ele>94.68</ele>
        <time>2021-06-20T07:32:01.000Z</time>
      </trkpt>
      <trkpt lat="50.75259" lon="3.48596">
        <ele>95.09</ele>
        <time>2021-06-20T07:32:02.000Z</time>
      </trkpt>
      <trkpt lat="50.75264" lon="3.48599">
        <ele>95.57</ele>
        <time>2021-06-20T07:32:03.000Z</time>
      </trkpt>
      <trkpt lat="50.75269" lon="3.486">
        <ele>95.88</ele>
        <time>2021-06-20T07:32:04.000Z</time>
      </trkpt>
      <trkpt lat="50.75273" lon="3.48602">
        <ele>96.11</ele>
        <time>2021-06-20T07:32:05.000Z</time>
      </trkpt>
      <trkpt lat="50.75278" lon="3.48605">
        <ele>96.51</ele>
        <time>2021-06-20T07:32:06.000Z</time>
      </trkpt>
      <trkpt lat="50.75283" lon="3.48608">
        <ele>96.8</ele>
        <time>2021-06-20T07:32:07.000Z</time>
      </trkpt>
      <trkpt lat="50.75288" lon="3.4861">
        <ele>96.78</ele>
        <time>2021-06-20T07:32:08.000Z</time>
      </trkpt>
      <trkpt lat="50.75293" lon="3.48613">
        <ele>97.1</ele>
        <time>2021-06-20T07:32:09.000Z</time>
      </trkpt>
      <trkpt lat="50.75298" lon="3.48615">
        <ele>97.61</ele>
        <time>2021-06-20T07:32:10.000Z</time>
      </trkpt>
      <trkpt lat="50.75303" lon="3.48618">
        <ele>97.99</ele>
        <time>2021-06-20T07:32:11.000Z</time>
      </trkpt>
      <trkpt lat="50.75308" lon="3.4862">
        <ele>98.28</ele>
        <time>2021-06-20T07:32:12.000Z</time>
      </trkpt>
      <trkpt lat="50.75313" lon="3.48622">
        <ele>98.69</ele>
        <time>2021-06-20T07:32:13.000Z</time>
      </trkpt>
      <trkpt lat="50.75318" lon="3.48625">
        <ele>98.73</ele>
        <time>2021-06-20T07:32:14.000Z</time>
      </trkpt>
      <trkpt lat="50.75323" lon="3.48627">
        <ele>99.01</ele>
        <time>2021-06-20T07:32:15.000Z</time>
      </trkpt>
      <trkpt lat="50.75328" lon="3.48629">
        <ele>99.02</ele>
        <time>2021-06-20T07:32:16.000Z</time>
      </trkpt>
      <trkpt lat="50.75333" lon="3.48629">
        <ele>98.88</ele>
        <time>2021-06-20T07:32:17.000Z</time>
      </trkpt>
      <trkpt lat="50.75339" lon="3.48629">
        <ele>99.11</ele>
        <time>2021-06-20T07:32:18.000Z</time>
      </trkpt>
      <trkpt lat="50.75344" lon="3.48629">
        <ele>99.14</ele>
        <time>2021-06-20T07:32:19.000Z</time>
      </trkpt>
      <trkpt lat="50.75349" lon="3.48627">
        <ele>99.57</ele>
        <time>2021-06-20T07:32:20.000Z</time>
      </trkpt>
      <trkpt lat="50.75354" lon="3.48627">
        <ele>99.59</ele>
        <time>2021-06-20T07:32:21.000Z</time>
      </trkpt>
      <trkpt lat="50.7536" lon="3.48626">
        <ele>99.85</ele>
        <time>2021-06-20T07:32:22.000Z</time>
      </trkpt>
      <trkpt lat="50.75365" lon="3.48626">
        <ele>100.24</ele>
        <time>2021-06-20T07:32:23.000Z</time>
      </trkpt>
      <trkpt lat="50.7537" lon="3.48626">
        <ele>100.62</ele>
        <time>2021-06-20T07:32:24.000Z</time>
      </trkpt>
      <trkpt lat="50.75375" lon="3.48626">
        <ele>100.8</ele>
        <time>2021-06-20T07:32:25.000Z</time>
      </trkpt>
      <trkpt lat="50.7538" lon="3.48626">
        <ele>101.51</ele>
        <time>2021-06-20T07:32:26.000Z</time>
      </trkpt>
      <trkpt lat="50.75384" lon="3.48626">
        <ele>102.01</ele>
        <time>2021-06-20T07:32:27.000Z</time>
      </trkpt>
      <trkpt lat="50.75389" lon="3.48626">
        <ele>102.48</ele>
        <time>2021-06-20T07:32:28.000Z</time>
      </trkpt>
      <trkpt lat="50.75394" lon="3.48625">
        <ele>103.04</ele>
        <time>2021-06-20T07:32:29.000Z</time>
      </trkpt>
      <trkpt lat="50.75399" lon="3.48624">
        <ele>103.39</ele>
        <time>2021-06-20T07:32:30.000Z</time>
      </trkpt>
      <trkpt lat="50.75403" lon="3.48623">
        <ele>104.29</ele>
        <time>2021-06-20T07:32:31.000Z</time>
      </trkpt>
      <trkpt lat="50.75412" lon="3.48621">
        <ele>104.71</ele>
        <time>2021-06-20T07:32:33.000Z</time>
      </trkpt>
      <trkpt lat="50.75417" lon="3.4862">
        <ele>104.87</ele>
        <time>2021-06-20T07:32:34.000Z</time>
      </trkpt>
      <trkpt lat="50.75426" lon="3.4862">
        <ele>105.82</ele>
        <time>2021-06-20T07:32:36.000Z</time>
      </trkpt>
      <trkpt lat="50.75435" lon="3.48622">
        <ele>106.95</ele>
        <time>2021-06-20T07:32:38.000Z</time>
      </trkpt>
      <trkpt lat="50.75443" lon="3.48626">
        <ele>108</ele>
        <time>2021-06-20T07:32:40.000Z</time>
      </trkpt>
      <trkpt lat="50.75451" lon="3.4863">
        <ele>109.43</ele>
        <time>2021-06-20T07:32:42.000Z</time>
      </trkpt>
      <trkpt lat="50.75459" lon="3.48635">
        <ele>110.08</ele>
        <time>2021-06-20T07:32:44.000Z</time>
      </trkpt>
      <trkpt lat="50.75465" lon="3.48641">
        <ele>111.5</ele>
        <time>2021-06-20T07:32:46.000Z</time>
      </trkpt>
      <trkpt lat="50.75471" lon="3.48649">
        <ele>111.96</ele>
        <time>2021-06-20T07:32:48.000Z</time>
      </trkpt>
      <trkpt lat="50.75476" lon="3.48655">
        <ele>112.43</ele>
        <time>2021-06-20T07:32:50.000Z</time>
      </trkpt>
      <trkpt lat="50.7548" lon="3.48661">
        <ele>112.87</ele>
        <time>2021-06-20T07:32:52.000Z</time>
      </trkpt>
      <trkpt lat="50.75484" lon="3.48665">
        <ele>111.97</ele>
        <time>2021-06-20T07:32:54.000Z</time>
      </trkpt>
      <trkpt lat="50.75491" lon="3.4867">
        <ele>112.46</ele>
        <time>2021-06-20T07:32:56.000Z</time>
      </trkpt>
      <trkpt lat="50.75497" lon="3.48673">
        <ele>111.56</ele>
        <time>2021-06-20T07:32:58.000Z</time>
      </trkpt>
      <trkpt lat="50.75503" lon="3.48677">
        <ele>112.35</ele>
        <time>2021-06-20T07:33:00.000Z</time>
      </trkpt>
      <trkpt lat="50.75507" lon="3.48685">
        <ele>112.82</ele>
        <time>2021-06-20T07:33:02.000Z</time>
      </trkpt>
      <trkpt lat="50.75513" lon="3.48691">
        <ele>113.39</ele>
        <time>2021-06-20T07:33:04.000Z</time>
      </trkpt>
      <trkpt lat="50.75525" lon="3.48698">
        <ele>114.29</ele>
        <time>2021-06-20T07:33:06.000Z</time>
      </trkpt>
      <trkpt lat="50.7553" lon="3.48701">
        <ele>116.62</ele>
        <time>2021-06-20T07:33:07.000Z</time>
      </trkpt>
      <trkpt lat="50.75535" lon="3.48705">
        <ele>118.05</ele>
        <time>2021-06-20T07:33:08.000Z</time>
      </trkpt>
      <trkpt lat="50.7554" lon="3.48708">
        <ele>118.23</ele>
        <time>2021-06-20T07:33:09.000Z</time>
      </trkpt>
      <trkpt lat="50.75545" lon="3.48712">
        <ele>119.48</ele>
        <time>2021-06-20T07:33:10.000Z</time>
      </trkpt>
      <trkpt lat="50.75549" lon="3.48713">
        <ele>119.63</ele>
        <time>2021-06-20T07:33:11.000Z</time>
      </trkpt>
      <trkpt lat="50.75554" lon="3.48717">
        <ele>120.29</ele>
        <time>2021-06-20T07:33:12.000Z</time>
      </trkpt>
      <trkpt lat="50.75558" lon="3.48721">
        <ele>120.84</ele>
        <time>2021-06-20T07:33:13.000Z</time>
      </trkpt>
      <trkpt lat="50.75563" lon="3.48724">
        <ele>121.6</ele>
        <time>2021-06-20T07:33:14.000Z</time>
      </trkpt>
      <trkpt lat="50.75567" lon="3.48728">
        <ele>122.44</ele>
        <time>2021-06-20T07:33:15.000Z</time>
      </trkpt>
      <trkpt lat="50.75575" lon="3.48736">
        <ele>122.87</ele>
        <time>2021-06-20T07:33:17.000Z</time>
      </trkpt>
      <trkpt lat="50.75579" lon="3.48741">
        <ele>123.93</ele>
        <time>2021-06-20T07:33:18.000Z</time>
      </trkpt>
      <trkpt lat="50.75582" lon="3.48747">
        <ele>124.12</ele>
        <time>2021-06-20T07:33:19.000Z</time>
      </trkpt>
      <trkpt lat="50.75587" lon="3.48759">
        <ele>125.38</ele>
        <time>2021-06-20T07:33:21.000Z</time>
      </trkpt>
      <trkpt lat="50.75589" lon="3.4877">
        <ele>125.44</ele>
        <time>2021-06-20T07:33:23.000Z</time>
      </trkpt>
      <trkpt lat="50.75594" lon="3.48781">
        <ele>125.89</ele>
        <time>2021-06-20T07:33:25.000Z</time>
      </trkpt>
      <trkpt lat="50.75598" lon="3.48791">
        <ele>126.5</ele>
        <time>2021-06-20T07:33:27.000Z</time>
      </trkpt>
      <trkpt lat="50.75602" lon="3.48802">
        <ele>127.91</ele>
        <time>2021-06-20T07:33:29.000Z</time>
      </trkpt>
      <trkpt lat="50.75603" lon="3.48811">
        <ele>128.89</ele>
        <time>2021-06-20T07:33:31.000Z</time>
      </trkpt>
      <trkpt lat="50.75599" lon="3.48818">
        <ele>129.72</ele>
        <time>2021-06-20T07:33:33.000Z</time>
      </trkpt>
      <trkpt lat="50.75593" lon="3.48822">
        <ele>130</ele>
        <time>2021-06-20T07:33:35.000Z</time>
      </trkpt>
      <trkpt lat="50.75589" lon="3.48828">
        <ele>130.97</ele>
        <time>2021-06-20T07:33:37.000Z</time>
      </trkpt>
      <trkpt lat="50.75583" lon="3.48834">
        <ele>132.09</ele>
        <time>2021-06-20T07:33:39.000Z</time>
      </trkpt>
      <trkpt lat="50.75579" lon="3.48843">
        <ele>132.81</ele>
        <time>2021-06-20T07:33:41.000Z</time>
      </trkpt>
      <trkpt lat="50.75573" lon="3.48851">
        <ele>132.97</ele>
        <time>2021-06-20T07:33:43.000Z</time>
      </trkpt>
      <trkpt lat="50.75568" lon="3.48861">
        <ele>133.77</ele>
        <time>2021-06-20T07:33:45.000Z</time>
      </trkpt>
      <trkpt lat="50.75563" lon="3.48869">
        <ele>134.54</ele>
        <time>2021-06-20T07:33:47.000Z</time>
      </trkpt>
      <trkpt lat="50.75558" lon="3.48877">
        <ele>135.86</ele>
        <time>2021-06-20T07:33:49.000Z</time>
      </trkpt>
      <trkpt lat="50.75553" lon="3.48885">
        <ele>136.1</ele>
        <time>2021-06-20T07:33:51.000Z</time>
      </trkpt>
      <trkpt lat="50.75548" lon="3.48894">
        <ele>136.26</ele>
        <time>2021-06-20T07:33:53.000Z</time>
      </trkpt>
      <trkpt lat="50.75542" lon="3.48903">
        <ele>136.76</ele>
        <time>2021-06-20T07:33:55.000Z</time>
      </trkpt>
      <trkpt lat="50.75537" lon="3.48915">
        <ele>136.92</ele>
        <time>2021-06-20T07:33:57.000Z</time>
      </trkpt>
      <trkpt lat="50.75535" lon="3.48922">
        <ele>137.31</ele>
        <time>2021-06-20T07:33:58.000Z</time>
      </trkpt>
      <trkpt lat="50.75533" lon="3.48929">
        <ele>137.67</ele>
        <time>2021-06-20T07:33:59.000Z</time>
      </trkpt>
      <trkpt lat="50.75531" lon="3.48936">
        <ele>137.81</ele>
        <time>2021-06-20T07:34:00.000Z</time>
      </trkpt>
      <trkpt lat="50.75529" lon="3.48943">
        <ele>137.64</ele>
        <time>2021-06-20T07:34:01.000Z</time>
      </trkpt>
      <trkpt lat="50.75528" lon="3.4895">
        <ele>137.62</ele>
        <time>2021-06-20T07:34:02.000Z</time>
      </trkpt>
      <trkpt lat="50.75526" lon="3.48957">
        <ele>137.88</ele>
        <time>2021-06-20T07:34:03.000Z</time>
      </trkpt>
      <trkpt lat="50.75524" lon="3.48964">
        <ele>137.5</ele>
        <time>2021-06-20T07:34:04.000Z</time>
      </trkpt>
      <trkpt lat="50.75522" lon="3.48971">
        <ele>137.93</ele>
        <time>2021-06-20T07:34:05.000Z</time>
      </trkpt>
      <trkpt lat="50.7552" lon="3.48978">
        <ele>138.01</ele>
        <time>2021-06-20T07:34:06.000Z</time>
      </trkpt>
      <trkpt lat="50.75519" lon="3.48984">
        <ele>138.01</ele>
        <time>2021-06-20T07:34:07.000Z</time>
      </trkpt>
      <trkpt lat="50.75517" lon="3.48991">
        <ele>137.82</ele>
        <time>2021-06-20T07:34:08.000Z</time>
      </trkpt>
      <trkpt lat="50.75515" lon="3.48998">
        <ele>137.69</ele>
        <time>2021-06-20T07:34:09.000Z</time>
      </trkpt>
      <trkpt lat="50.75513" lon="3.49005">
        <ele>137.58</ele>
        <time>2021-06-20T07:34:10.000Z</time>
      </trkpt>
      <trkpt lat="50.75508" lon="3.49016">
        <ele>137.63</ele>
        <time>2021-06-20T07:34:12.000Z</time>
      </trkpt>
      <trkpt lat="50.75504" lon="3.49021">
        <ele>137.31</ele>
        <time>2021-06-20T07:34:13.000Z</time>
      </trkpt>
      <trkpt lat="50.75499" lon="3.49025">
        <ele>136.72</ele>
        <time>2021-06-20T07:34:14.000Z</time>
      </trkpt>
      <trkpt lat="50.75494" lon="3.49029">
        <ele>136.07</ele>
        <time>2021-06-20T07:34:15.000Z</time>
      </trkpt>
      <trkpt lat="50.75489" lon="3.49033">
        <ele>135.49</ele>
        <time>2021-06-20T07:34:16.000Z</time>
      </trkpt>
      <trkpt lat="50.75484" lon="3.49038">
        <ele>134.9</ele>
        <time>2021-06-20T07:34:17.000Z</time>
      </trkpt>
      <trkpt lat="50.75479" lon="3.49042">
        <ele>134.33</ele>
        <time>2021-06-20T07:34:18.000Z</time>
      </trkpt>
      <trkpt lat="50.75473" lon="3.49047">
        <ele>134.11</ele>
        <time>2021-06-20T07:34:19.000Z</time>
      </trkpt>
      <trkpt lat="50.75468" lon="3.49052">
        <ele>133.32</ele>
        <time>2021-06-20T07:34:20.000Z</time>
      </trkpt>
      <trkpt lat="50.75462" lon="3.49058">
        <ele>133.13</ele>
        <time>2021-06-20T07:34:21.000Z</time>
      </trkpt>
      <trkpt lat="50.75458" lon="3.49065">
        <ele>132.65</ele>
        <time>2021-06-20T07:34:22.000Z</time>
      </trkpt>
      <trkpt lat="50.75453" lon="3.49074">
        <ele>132.47</ele>
        <time>2021-06-20T07:34:23.000Z</time>
      </trkpt>
      <trkpt lat="50.75449" lon="3.49082">
        <ele>132.03</ele>
        <time>2021-06-20T07:34:24.000Z</time>
      </trkpt>
      <trkpt lat="50.75444" lon="3.4909">
        <ele>131.85</ele>
        <time>2021-06-20T07:34:25.000Z</time>
      </trkpt>
      <trkpt lat="50.7544" lon="3.49098">
        <ele>131.89</ele>
        <time>2021-06-20T07:34:26.000Z</time>
      </trkpt>
      <trkpt lat="50.75435" lon="3.49104">
        <ele>131.45</ele>
        <time>2021-06-20T07:34:27.000Z</time>
      </trkpt>
      <trkpt lat="50.7543" lon="3.49108">
        <ele>130.46</ele>
        <time>2021-06-20T07:34:28.000Z</time>
      </trkpt>
      <trkpt lat="50.75425" lon="3.49111">
        <ele>130.82</ele>
        <time>2021-06-20T07:34:29.000Z</time>
      </trkpt>
      <trkpt lat="50.75422" lon="3.49116">
        <ele>130.2</ele>
        <time>2021-06-20T07:34:30.000Z</time>
      </trkpt>
      <trkpt lat="50.7542" lon="3.49124">
        <ele>130.43</ele>
        <time>2021-06-20T07:34:31.000Z</time>
      </trkpt>
      <trkpt lat="50.75421" lon="3.49132">
        <ele>131.02</ele>
        <time>2021-06-20T07:34:32.000Z</time>
      </trkpt>
      <trkpt lat="50.75421" lon="3.49139">
        <ele>130.82</ele>
        <time>2021-06-20T07:34:33.000Z</time>
      </trkpt>
      <trkpt lat="50.75423" lon="3.49146">
        <ele>131.36</ele>
        <time>2021-06-20T07:34:34.000Z</time>
      </trkpt>
      <trkpt lat="50.75425" lon="3.49154">
        <ele>131.33</ele>
        <time>2021-06-20T07:34:35.000Z</time>
      </trkpt>
      <trkpt lat="50.75428" lon="3.49161">
        <ele>131.93</ele>
        <time>2021-06-20T07:34:36.000Z</time>
      </trkpt>
      <trkpt lat="50.75431" lon="3.49168">
        <ele>132.54</ele>
        <time>2021-06-20T07:34:37.000Z</time>
      </trkpt>
      <trkpt lat="50.75433" lon="3.49175">
        <ele>132.53</ele>
        <time>2021-06-20T07:34:38.000Z</time>
      </trkpt>
      <trkpt lat="50.75436" lon="3.49182">
        <ele>133.38</ele>
        <time>2021-06-20T07:34:39.000Z</time>
      </trkpt>
      <trkpt lat="50.75439" lon="3.49188">
        <ele>133.62</ele>
        <time>2021-06-20T07:34:40.000Z</time>
      </trkpt>
      <trkpt lat="50.75445" lon="3.49199">
        <ele>133.27</ele>
        <time>2021-06-20T07:34:42.000Z</time>
      </trkpt>
      <trkpt lat="50.75449" lon="3.49205">
        <ele>132.89</ele>
        <time>2021-06-20T07:34:43.000Z</time>
      </trkpt>
      <trkpt lat="50.75455" lon="3.49215">
        <ele>133.22</ele>
        <time>2021-06-20T07:34:45.000Z</time>
      </trkpt>
      <trkpt lat="50.7546" lon="3.49219">
        <ele>133.13</ele>
        <time>2021-06-20T07:34:46.000Z</time>
      </trkpt>
      <trkpt lat="50.75465" lon="3.49223">
        <ele>133.45</ele>
        <time>2021-06-20T07:34:47.000Z</time>
      </trkpt>
      <trkpt lat="50.75469" lon="3.49227">
        <ele>133.49</ele>
        <time>2021-06-20T07:34:48.000Z</time>
      </trkpt>
      <trkpt lat="50.75476" lon="3.49233">
        <ele>134.74</ele>
        <time>2021-06-20T07:34:50.000Z</time>
      </trkpt>
      <trkpt lat="50.75484" lon="3.4924">
        <ele>136.25</ele>
        <time>2021-06-20T07:34:52.000Z</time>
      </trkpt>
      <trkpt lat="50.75489" lon="3.49242">
        <ele>137.04</ele>
        <time>2021-06-20T07:34:53.000Z</time>
      </trkpt>
      <trkpt lat="50.75497" lon="3.49247">
        <ele>139.15</ele>
        <time>2021-06-20T07:34:55.000Z</time>
      </trkpt>
      <trkpt lat="50.75505" lon="3.49251">
        <ele>140.27</ele>
        <time>2021-06-20T07:34:57.000Z</time>
      </trkpt>
      <trkpt lat="50.75514" lon="3.49255">
        <ele>142.6</ele>
        <time>2021-06-20T07:34:59.000Z</time>
      </trkpt>
      <trkpt lat="50.75518" lon="3.49256">
        <ele>143.23</ele>
        <time>2021-06-20T07:35:00.000Z</time>
      </trkpt>
      <trkpt lat="50.75527" lon="3.4926">
        <ele>143.76</ele>
        <time>2021-06-20T07:35:02.000Z</time>
      </trkpt>
      <trkpt lat="50.75531" lon="3.49263">
        <ele>144.72</ele>
        <time>2021-06-20T07:35:03.000Z</time>
      </trkpt>
      <trkpt lat="50.7554" lon="3.49268">
        <ele>144.88</ele>
        <time>2021-06-20T07:35:05.000Z</time>
      </trkpt>
      <trkpt lat="50.75544" lon="3.49271">
        <ele>144.51</ele>
        <time>2021-06-20T07:35:06.000Z</time>
      </trkpt>
      <trkpt lat="50.75551" lon="3.49276">
        <ele>144.41</ele>
        <time>2021-06-20T07:35:08.000Z</time>
      </trkpt>
      <trkpt lat="50.75557" lon="3.49284">
        <ele>145.15</ele>
        <time>2021-06-20T07:35:10.000Z</time>
      </trkpt>
      <trkpt lat="50.75564" lon="3.49293">
        <ele>146.88</ele>
        <time>2021-06-20T07:35:12.000Z</time>
      </trkpt>
      <trkpt lat="50.75568" lon="3.49303">
        <ele>148.64</ele>
        <time>2021-06-20T07:35:14.000Z</time>
      </trkpt>
      <trkpt lat="50.7557" lon="3.4931">
        <ele>149.55</ele>
        <time>2021-06-20T07:35:15.000Z</time>
      </trkpt>
      <trkpt lat="50.75572" lon="3.49323">
        <ele>150.08</ele>
        <time>2021-06-20T07:35:17.000Z</time>
      </trkpt>
      <trkpt lat="50.75573" lon="3.4933">
        <ele>150.27</ele>
        <time>2021-06-20T07:35:18.000Z</time>
      </trkpt>
      <trkpt lat="50.75573" lon="3.49337">
        <ele>131.27</ele>
        <time>2021-06-20T07:35:19.000Z</time>
      </trkpt>
      <trkpt lat="50.75574" lon="3.49344">
        <ele>138.48</ele>
        <time>2021-06-20T07:35:20.000Z</time>
      </trkpt>
      <trkpt lat="50.75577" lon="3.49355">
        <ele>145.33</ele>
        <time>2021-06-20T07:35:22.000Z</time>
      </trkpt>
      <trkpt lat="50.75579" lon="3.49361">
        <ele>147.12</ele>
        <time>2021-06-20T07:35:23.000Z</time>
      </trkpt>
      <trkpt lat="50.75582" lon="3.49374">
        <ele>149.86</ele>
        <time>2021-06-20T07:35:25.000Z</time>
      </trkpt>
      <trkpt lat="50.75585" lon="3.49385">
        <ele>151.22</ele>
        <time>2021-06-20T07:35:27.000Z</time>
      </trkpt>
      <trkpt lat="50.75587" lon="3.4939">
        <ele>153.19</ele>
        <time>2021-06-20T07:35:28.000Z</time>
      </trkpt>
      <trkpt lat="50.75592" lon="3.49402">
        <ele>152.51</ele>
        <time>2021-06-20T07:35:30.000Z</time>
      </trkpt>
      <trkpt lat="50.75597" lon="3.49413">
        <ele>151.34</ele>
        <time>2021-06-20T07:35:32.000Z</time>
      </trkpt>
      <trkpt lat="50.75602" lon="3.4942">
        <ele>151.68</ele>
        <time>2021-06-20T07:35:34.000Z</time>
      </trkpt>
      <trkpt lat="50.75608" lon="3.49424">
        <ele>152.71</ele>
        <time>2021-06-20T07:35:37.000Z</time>
      </trkpt>
      <trkpt lat="50.75614" lon="3.49425">
        <ele>153.54</ele>
        <time>2021-06-20T07:35:39.000Z</time>
      </trkpt>
      <trkpt lat="50.7562" lon="3.49424">
        <ele>153.45</ele>
        <time>2021-06-20T07:35:41.000Z</time>
      </trkpt>
      <trkpt lat="50.75624" lon="3.49423">
        <ele>154.78</ele>
        <time>2021-06-20T07:35:43.000Z</time>
      </trkpt>
      <trkpt lat="50.75632" lon="3.49422">
        <ele>156.48</ele>
        <time>2021-06-20T07:35:45.000Z</time>
      </trkpt>
      <trkpt lat="50.75637" lon="3.49421">
        <ele>157.49</ele>
        <time>2021-06-20T07:35:46.000Z</time>
      </trkpt>
      <trkpt lat="50.75645" lon="3.49424">
        <ele>158.61</ele>
        <time>2021-06-20T07:35:48.000Z</time>
      </trkpt>
      <trkpt lat="50.75651" lon="3.49429">
        <ele>158.48</ele>
        <time>2021-06-20T07:35:50.000Z</time>
      </trkpt>
      <trkpt lat="50.75657" lon="3.49437">
        <ele>159.17</ele>
        <time>2021-06-20T07:35:52.000Z</time>
      </trkpt>
      <trkpt lat="50.75663" lon="3.49446">
        <ele>161.33</ele>
        <time>2021-06-20T07:35:54.000Z</time>
      </trkpt>
      <trkpt lat="50.75665" lon="3.49452">
        <ele>162.06</ele>
        <time>2021-06-20T07:35:55.000Z</time>
      </trkpt>
      <trkpt lat="50.75667" lon="3.49465">
        <ele>161.95</ele>
        <time>2021-06-20T07:35:57.000Z</time>
      </trkpt>
      <trkpt lat="50.75668" lon="3.49475">
        <ele>160.47</ele>
        <time>2021-06-20T07:35:59.000Z</time>
      </trkpt>
      <trkpt lat="50.75669" lon="3.49483">
        <ele>160</ele>
        <time>2021-06-20T07:36:01.000Z</time>
      </trkpt>
      <trkpt lat="50.75666" lon="3.4949">
        <ele>154.93</ele>
        <time>2021-06-20T07:36:04.000Z</time>
      </trkpt>
      <trkpt lat="50.7566" lon="3.49493">
        <ele>152.69</ele>
        <time>2021-06-20T07:36:08.000Z</time>
      </trkpt>
      <trkpt lat="50.75654" lon="3.49498">
        <ele>152.6</ele>
        <time>2021-06-20T07:36:12.000Z</time>
      </trkpt>
      <trkpt lat="50.75646" lon="3.495">
        <ele>151.06</ele>
        <time>2021-06-20T07:36:14.000Z</time>
      </trkpt>
      <trkpt lat="50.75639" lon="3.49503">
        <ele>150.24</ele>
        <time>2021-06-20T07:36:16.000Z</time>
      </trkpt>
      <trkpt lat="50.75634" lon="3.49505">
        <ele>149.23</ele>
        <time>2021-06-20T07:36:17.000Z</time>
      </trkpt>
      <trkpt lat="50.7563" lon="3.49511">
        <ele>147.74</ele>
        <time>2021-06-20T07:36:19.000Z</time>
      </trkpt>
      <trkpt lat="50.75627" lon="3.49519">
        <ele>147.81</ele>
        <time>2021-06-20T07:36:22.000Z</time>
      </trkpt>
      <trkpt lat="50.75624" lon="3.49524">
        <ele>148.35</ele>
        <time>2021-06-20T07:36:24.000Z</time>
      </trkpt>
      <trkpt lat="50.75619" lon="3.49529">
        <ele>151.29</ele>
        <time>2021-06-20T07:36:28.000Z</time>
      </trkpt>
      <trkpt lat="50.75614" lon="3.4953">
        <ele>153.33</ele>
        <time>2021-06-20T07:36:30.000Z</time>
      </trkpt>
      <trkpt lat="50.75608" lon="3.49526">
        <ele>152.27</ele>
        <time>2021-06-20T07:36:34.000Z</time>
      </trkpt>
      <trkpt lat="50.75602" lon="3.49527">
        <ele>149.45</ele>
        <time>2021-06-20T07:36:36.000Z</time>
      </trkpt>
      <trkpt lat="50.75597" lon="3.49535">
        <ele>150.57</ele>
        <time>2021-06-20T07:36:38.000Z</time>
      </trkpt>
      <trkpt lat="50.75595" lon="3.49545">
        <ele>143.99</ele>
        <time>2021-06-20T07:36:40.000Z</time>
      </trkpt>
      <trkpt lat="50.75595" lon="3.49555">
        <ele>147.4</ele>
        <time>2021-06-20T07:36:42.000Z</time>
      </trkpt>
      <trkpt lat="50.75596" lon="3.49564">
        <ele>150.81</ele>
        <time>2021-06-20T07:36:44.000Z</time>
      </trkpt>
      <trkpt lat="50.75595" lon="3.49573">
        <ele>153.52</ele>
        <time>2021-06-20T07:36:47.000Z</time>
      </trkpt>
      <trkpt lat="50.75592" lon="3.4958">
        <ele>153.89</ele>
        <time>2021-06-20T07:36:50.000Z</time>
      </trkpt>
      <trkpt lat="50.75591" lon="3.49587">
        <ele>154.82</ele>
        <time>2021-06-20T07:36:52.000Z</time>
      </trkpt>
      <trkpt lat="50.7559" lon="3.49596">
        <ele>155.85</ele>
        <time>2021-06-20T07:36:54.000Z</time>
      </trkpt>
      <trkpt lat="50.75591" lon="3.49606">
        <ele>156.93</ele>
        <time>2021-06-20T07:36:56.000Z</time>
      </trkpt>
      <trkpt lat="50.75591" lon="3.49616">
        <ele>158.6</ele>
        <time>2021-06-20T07:36:58.000Z</time>
      </trkpt>
      <trkpt lat="50.75591" lon="3.49626">
        <ele>158.97</ele>
        <time>2021-06-20T07:37:00.000Z</time>
      </trkpt>
      <trkpt lat="50.75591" lon="3.49638">
        <ele>160.02</ele>
        <time>2021-06-20T07:37:02.000Z</time>
      </trkpt>
      <trkpt lat="50.75592" lon="3.49652">
        <ele>159.7</ele>
        <time>2021-06-20T07:37:04.000Z</time>
      </trkpt>
      <trkpt lat="50.75592" lon="3.49659">
        <ele>159.71</ele>
        <time>2021-06-20T07:37:05.000Z</time>
      </trkpt>
      <trkpt lat="50.75591" lon="3.49671">
        <ele>158.83</ele>
        <time>2021-06-20T07:37:07.000Z</time>
      </trkpt>
      <trkpt lat="50.75597" lon="3.49707">
        <ele>166.84</ele>
        <time>2021-06-20T07:37:12.000Z</time>
      </trkpt>
      <trkpt lat="50.75601" lon="3.49715">
        <ele>168.18</ele>
        <time>2021-06-20T07:37:13.000Z</time>
      </trkpt>
      <trkpt lat="50.75605" lon="3.49726">
        <ele>168.71</ele>
        <time>2021-06-20T07:37:15.000Z</time>
      </trkpt>
      <trkpt lat="50.75606" lon="3.49733">
        <ele>166.99</ele>
        <time>2021-06-20T07:37:16.000Z</time>
      </trkpt>
      <trkpt lat="50.75608" lon="3.4974">
        <ele>167.32</ele>
        <time>2021-06-20T07:37:17.000Z</time>
      </trkpt>
      <trkpt lat="50.75611" lon="3.49748">
        <ele>169.07</ele>
        <time>2021-06-20T07:37:18.000Z</time>
      </trkpt>
      <trkpt lat="50.75612" lon="3.49755">
        <ele>168.55</ele>
        <time>2021-06-20T07:37:19.000Z</time>
      </trkpt>
      <trkpt lat="50.75616" lon="3.49767">
        <ele>169.64</ele>
        <time>2021-06-20T07:37:21.000Z</time>
      </trkpt>
      <trkpt lat="50.75621" lon="3.49774">
        <ele>169.87</ele>
        <time>2021-06-20T07:37:23.000Z</time>
      </trkpt>
      <trkpt lat="50.75626" lon="3.49783">
        <ele>170.97</ele>
        <time>2021-06-20T07:37:25.000Z</time>
      </trkpt>
      <trkpt lat="50.75632" lon="3.49789">
        <ele>169.6</ele>
        <time>2021-06-20T07:37:27.000Z</time>
      </trkpt>
      <trkpt lat="50.75638" lon="3.49794">
        <ele>168.3</ele>
        <time>2021-06-20T07:37:29.000Z</time>
      </trkpt>
      <trkpt lat="50.75643" lon="3.49799">
        <ele>166.56</ele>
        <time>2021-06-20T07:37:31.000Z</time>
      </trkpt>
      <trkpt lat="50.75646" lon="3.49805">
        <ele>166.77</ele>
        <time>2021-06-20T07:37:33.000Z</time>
      </trkpt>
      <trkpt lat="50.75649" lon="3.49811">
        <ele>163.46</ele>
        <time>2021-06-20T07:37:35.000Z</time>
      </trkpt>
      <trkpt lat="50.75652" lon="3.49825">
        <ele>162.52</ele>
        <time>2021-06-20T07:37:37.000Z</time>
      </trkpt>
      <trkpt lat="50.75652" lon="3.49834">
        <ele>162.37</ele>
        <time>2021-06-20T07:37:38.000Z</time>
      </trkpt>
      <trkpt lat="50.75652" lon="3.49847">
        <ele>160.45</ele>
        <time>2021-06-20T07:37:40.000Z</time>
      </trkpt>
      <trkpt lat="50.75655" lon="3.49866">
        <ele>159.06</ele>
        <time>2021-06-20T07:37:42.000Z</time>
      </trkpt>
      <trkpt lat="50.75657" lon="3.49875">
        <ele>159.66</ele>
        <time>2021-06-20T07:37:43.000Z</time>
      </trkpt>
      <trkpt lat="50.75657" lon="3.49884">
        <ele>160.1</ele>
        <time>2021-06-20T07:37:44.000Z</time>
      </trkpt>
      <trkpt lat="50.75657" lon="3.49892">
        <ele>159.46</ele>
        <time>2021-06-20T07:37:45.000Z</time>
      </trkpt>
      <trkpt lat="50.75657" lon="3.49903">
        <ele>157.12</ele>
        <time>2021-06-20T07:37:47.000Z</time>
      </trkpt>
      <trkpt lat="50.75658" lon="3.49913">
        <ele>157.42</ele>
        <time>2021-06-20T07:37:49.000Z</time>
      </trkpt>
      <trkpt lat="50.75662" lon="3.4993">
        <ele>158.19</ele>
        <time>2021-06-20T07:37:51.000Z</time>
      </trkpt>
      <trkpt lat="50.75664" lon="3.49936">
        <ele>158.12</ele>
        <time>2021-06-20T07:37:52.000Z</time>
      </trkpt>
      <trkpt lat="50.75667" lon="3.49947">
        <ele>157.7</ele>
        <time>2021-06-20T07:37:54.000Z</time>
      </trkpt>
      <trkpt lat="50.75669" lon="3.4996">
        <ele>153.63</ele>
        <time>2021-06-20T07:37:56.000Z</time>
      </trkpt>
      <trkpt lat="50.75669" lon="3.49967">
        <ele>152.58</ele>
        <time>2021-06-20T07:37:57.000Z</time>
      </trkpt>
      <trkpt lat="50.75671" lon="3.49986">
        <ele>154.32</ele>
        <time>2021-06-20T07:37:59.000Z</time>
      </trkpt>
      <trkpt lat="50.75674" lon="3.49994">
        <ele>155.17</ele>
        <time>2021-06-20T07:38:00.000Z</time>
      </trkpt>
      <trkpt lat="50.75677" lon="3.50002">
        <ele>156.44</ele>
        <time>2021-06-20T07:38:01.000Z</time>
      </trkpt>
      <trkpt lat="50.75679" lon="3.50008">
        <ele>156.51</ele>
        <time>2021-06-20T07:38:02.000Z</time>
      </trkpt>
      <trkpt lat="50.75679" lon="3.50019">
        <ele>155.48</ele>
        <time>2021-06-20T07:38:04.000Z</time>
      </trkpt>
      <trkpt lat="50.75679" lon="3.50019">
        <ele>155.48</ele>
        <time>2021-06-20T07:38:04.001Z</time>
      </trkpt>
      <trkpt lat="50.75684" lon="3.5002">
        <ele>156.56</ele>
        <time>2021-06-20T07:38:15.000Z</time>
      </trkpt>
      <trkpt lat="50.7569" lon="3.50016">
        <ele>153.57</ele>
        <time>2021-06-20T07:39:12.000Z</time>
      </trkpt>
      <trkpt lat="50.75697" lon="3.50018">
        <ele>151.6</ele>
        <time>2021-06-20T07:39:14.000Z</time>
      </trkpt>
      <trkpt lat="50.75713" lon="3.50024">
        <ele>151.05</ele>
        <time>2021-06-20T07:39:17.000Z</time>
      </trkpt>
      <trkpt lat="50.75719" lon="3.50028">
        <ele>150.73</ele>
        <time>2021-06-20T07:39:19.000Z</time>
      </trkpt>
      <trkpt lat="50.75727" lon="3.50033">
        <ele>152.08</ele>
        <time>2021-06-20T07:39:21.000Z</time>
      </trkpt>
      <trkpt lat="50.75734" lon="3.5004">
        <ele>151.96</ele>
        <time>2021-06-20T07:39:23.000Z</time>
      </trkpt>
      <trkpt lat="50.75742" lon="3.50045">
        <ele>151.93</ele>
        <time>2021-06-20T07:39:25.000Z</time>
      </trkpt>
      <trkpt lat="50.75746" lon="3.50049">
        <ele>152.82</ele>
        <time>2021-06-20T07:39:26.000Z</time>
      </trkpt>
      <trkpt lat="50.75753" lon="3.50058">
        <ele>153.12</ele>
        <time>2021-06-20T07:39:28.000Z</time>
      </trkpt>
      <trkpt lat="50.75756" lon="3.50063">
        <ele>153.93</ele>
        <time>2021-06-20T07:39:29.000Z</time>
      </trkpt>
      <trkpt lat="50.75759" lon="3.50068">
        <ele>153.52</ele>
        <time>2021-06-20T07:39:30.000Z</time>
      </trkpt>
      <trkpt lat="50.75769" lon="3.50074">
        <ele>154.79</ele>
        <time>2021-06-20T07:39:32.000Z</time>
      </trkpt>
      <trkpt lat="50.75774" lon="3.50077">
        <ele>155.65</ele>
        <time>2021-06-20T07:39:33.000Z</time>
      </trkpt>
      <trkpt lat="50.75778" lon="3.50081">
        <ele>157.16</ele>
        <time>2021-06-20T07:39:34.000Z</time>
      </trkpt>
      <trkpt lat="50.75787" lon="3.50087">
        <ele>158.37</ele>
        <time>2021-06-20T07:39:36.000Z</time>
      </trkpt>
      <trkpt lat="50.75794" lon="3.50092">
        <ele>157.4</ele>
        <time>2021-06-20T07:39:38.000Z</time>
      </trkpt>
      <trkpt lat="50.75801" lon="3.50099">
        <ele>158.53</ele>
        <time>2021-06-20T07:39:40.000Z</time>
      </trkpt>
      <trkpt lat="50.75807" lon="3.50099">
        <ele>157.76</ele>
        <time>2021-06-20T07:39:42.000Z</time>
      </trkpt>
      <trkpt lat="50.75813" lon="3.50098">
        <ele>159.1</ele>
        <time>2021-06-20T07:39:44.000Z</time>
      </trkpt>
      <trkpt lat="50.75819" lon="3.50104">
        <ele>161.65</ele>
        <time>2021-06-20T07:39:46.000Z</time>
      </trkpt>
      <trkpt lat="50.75824" lon="3.50111">
        <ele>162.43</ele>
        <time>2021-06-20T07:39:48.000Z</time>
      </trkpt>
      <trkpt lat="50.75828" lon="3.50116">
        <ele>164.08</ele>
        <time>2021-06-20T07:39:49.000Z</time>
      </trkpt>
      <trkpt lat="50.75831" lon="3.50122">
        <ele>164.3</ele>
        <time>2021-06-20T07:39:50.000Z</time>
      </trkpt>
      <trkpt lat="50.75834" lon="3.50129">
        <ele>164.25</ele>
        <time>2021-06-20T07:39:51.000Z</time>
      </trkpt>
      <trkpt lat="50.75836" lon="3.50136">
        <ele>164.63</ele>
        <time>2021-06-20T07:39:52.000Z</time>
      </trkpt>
      <trkpt lat="50.75839" lon="3.50149">
        <ele>163.79</ele>
        <time>2021-06-20T07:39:54.000Z</time>
      </trkpt>
      <trkpt lat="50.7584" lon="3.50159">
        <ele>161.17</ele>
        <time>2021-06-20T07:39:56.000Z</time>
      </trkpt>
      <trkpt lat="50.75838" lon="3.50172">
        <ele>159.29</ele>
        <time>2021-06-20T07:39:58.000Z</time>
      </trkpt>
      <trkpt lat="50.75837" lon="3.50179">
        <ele>155.83</ele>
        <time>2021-06-20T07:40:00.000Z</time>
      </trkpt>
      <trkpt lat="50.75835" lon="3.50191">
        <ele>157.31</ele>
        <time>2021-06-20T07:40:02.000Z</time>
      </trkpt>
      <trkpt lat="50.75835" lon="3.50198">
        <ele>156</ele>
        <time>2021-06-20T07:40:03.000Z</time>
      </trkpt>
      <trkpt lat="50.75832" lon="3.5021">
        <ele>156.47</ele>
        <time>2021-06-20T07:40:05.000Z</time>
      </trkpt>
      <trkpt lat="50.7583" lon="3.50222">
        <ele>155.29</ele>
        <time>2021-06-20T07:40:07.000Z</time>
      </trkpt>
      <trkpt lat="50.75827" lon="3.50233">
        <ele>157.25</ele>
        <time>2021-06-20T07:40:09.000Z</time>
      </trkpt>
      <trkpt lat="50.75823" lon="3.50268">
        <ele>156.94</ele>
        <time>2021-06-20T07:40:14.000Z</time>
      </trkpt>
      <trkpt lat="50.75823" lon="3.50277">
        <ele>157.84</ele>
        <time>2021-06-20T07:40:15.000Z</time>
      </trkpt>
      <trkpt lat="50.75825" lon="3.50285">
        <ele>158.27</ele>
        <time>2021-06-20T07:40:16.000Z</time>
      </trkpt>
      <trkpt lat="50.75827" lon="3.50292">
        <ele>158.72</ele>
        <time>2021-06-20T07:40:17.000Z</time>
      </trkpt>
      <trkpt lat="50.75827" lon="3.50304">
        <ele>159.56</ele>
        <time>2021-06-20T07:40:19.000Z</time>
      </trkpt>
      <trkpt lat="50.75827" lon="3.50312">
        <ele>159.96</ele>
        <time>2021-06-20T07:40:21.000Z</time>
      </trkpt>
      <trkpt lat="50.7583" lon="3.50324">
        <ele>160.31</ele>
        <time>2021-06-20T07:40:23.000Z</time>
      </trkpt>
      <trkpt lat="50.75836" lon="3.50367">
        <ele>163.9</ele>
        <time>2021-06-20T07:40:27.000Z</time>
      </trkpt>
      <trkpt lat="50.75837" lon="3.50376">
        <ele>164.26</ele>
        <time>2021-06-20T07:40:28.000Z</time>
      </trkpt>
      <trkpt lat="50.75838" lon="3.50386">
        <ele>164.39</ele>
        <time>2021-06-20T07:40:29.000Z</time>
      </trkpt>
      <trkpt lat="50.7584" lon="3.50396">
        <ele>165.53</ele>
        <time>2021-06-20T07:40:30.000Z</time>
      </trkpt>
      <trkpt lat="50.75841" lon="3.50404">
        <ele>166.17</ele>
        <time>2021-06-20T07:40:31.000Z</time>
      </trkpt>
      <trkpt lat="50.75843" lon="3.50412">
        <ele>166.25</ele>
        <time>2021-06-20T07:40:32.000Z</time>
      </trkpt>
      <trkpt lat="50.75844" lon="3.50427">
        <ele>169.24</ele>
        <time>2021-06-20T07:40:34.000Z</time>
      </trkpt>
      <trkpt lat="50.75849" lon="3.50437">
        <ele>170.13</ele>
        <time>2021-06-20T07:40:36.000Z</time>
      </trkpt>
      <trkpt lat="50.75853" lon="3.50446">
        <ele>169.44</ele>
        <time>2021-06-20T07:40:38.000Z</time>
      </trkpt>
      <trkpt lat="50.75856" lon="3.50457">
        <ele>168</ele>
        <time>2021-06-20T07:40:40.000Z</time>
      </trkpt>
      <trkpt lat="50.75857" lon="3.50469">
        <ele>161.65</ele>
        <time>2021-06-20T07:40:42.000Z</time>
      </trkpt>
      <trkpt lat="50.7586" lon="3.50478">
        <ele>165.8</ele>
        <time>2021-06-20T07:40:44.000Z</time>
      </trkpt>
      <trkpt lat="50.7586" lon="3.50485">
        <ele>165.11</ele>
        <time>2021-06-20T07:40:46.000Z</time>
      </trkpt>
      <trkpt lat="50.75858" lon="3.50495">
        <ele>166.57</ele>
        <time>2021-06-20T07:40:48.000Z</time>
      </trkpt>
      <trkpt lat="50.75857" lon="3.50503">
        <ele>166.15</ele>
        <time>2021-06-20T07:40:50.000Z</time>
      </trkpt>
      <trkpt lat="50.75854" lon="3.50512">
        <ele>167.63</ele>
        <time>2021-06-20T07:40:52.000Z</time>
      </trkpt>
      <trkpt lat="50.75852" lon="3.50519">
        <ele>168</ele>
        <time>2021-06-20T07:40:54.000Z</time>
      </trkpt>
      <trkpt lat="50.75851" lon="3.50529">
        <ele>169.04</ele>
        <time>2021-06-20T07:40:56.000Z</time>
      </trkpt>
      <trkpt lat="50.75851" lon="3.50539">
        <ele>171.48</ele>
        <time>2021-06-20T07:40:58.000Z</time>
      </trkpt>
      <trkpt lat="50.75852" lon="3.50552">
        <ele>172.9</ele>
        <time>2021-06-20T07:41:00.000Z</time>
      </trkpt>
      <trkpt lat="50.75854" lon="3.50564">
        <ele>175.27</ele>
        <time>2021-06-20T07:41:02.000Z</time>
      </trkpt>
      <trkpt lat="50.75856" lon="3.50577">
        <ele>174.59</ele>
        <time>2021-06-20T07:41:04.000Z</time>
      </trkpt>
      <trkpt lat="50.7586" lon="3.50586">
        <ele>174.71</ele>
        <time>2021-06-20T07:41:06.000Z</time>
      </trkpt>
      <trkpt lat="50.75864" lon="3.50588">
        <ele>174.14</ele>
        <time>2021-06-20T07:41:08.000Z</time>
      </trkpt>
      <trkpt lat="50.75864" lon="3.50588">
        <ele>174.14</ele>
        <time>2021-06-20T07:41:08.001Z</time>
      </trkpt>
      <trkpt lat="50.75869" lon="3.50583">
        <ele>173.53</ele>
        <time>2021-06-20T07:41:34.000Z</time>
      </trkpt>
      <trkpt lat="50.75873" lon="3.50577">
        <ele>173.88</ele>
        <time>2021-06-20T07:41:36.000Z</time>
      </trkpt>
      <trkpt lat="50.75877" lon="3.50572">
        <ele>166.66</ele>
        <time>2021-06-20T07:41:38.000Z</time>
      </trkpt>
      <trkpt lat="50.75881" lon="3.50563">
        <ele>167.41</ele>
        <time>2021-06-20T07:41:40.000Z</time>
      </trkpt>
      <trkpt lat="50.75883" lon="3.50555">
        <ele>166.47</ele>
        <time>2021-06-20T07:41:42.000Z</time>
      </trkpt>
      <trkpt lat="50.75885" lon="3.50545">
        <ele>165.49</ele>
        <time>2021-06-20T07:41:44.000Z</time>
      </trkpt>
      <trkpt lat="50.75937" lon="3.50471">
        <ele>169.95</ele>
        <time>2021-06-20T07:41:55.000Z</time>
      </trkpt>
      <trkpt lat="50.75942" lon="3.50464">
        <ele>169.99</ele>
        <time>2021-06-20T07:41:56.000Z</time>
      </trkpt>
      <trkpt lat="50.75947" lon="3.50458">
        <ele>170.81</ele>
        <time>2021-06-20T07:41:57.000Z</time>
      </trkpt>
      <trkpt lat="50.75951" lon="3.50453">
        <ele>171.58</ele>
        <time>2021-06-20T07:41:58.000Z</time>
      </trkpt>
      <trkpt lat="50.75956" lon="3.50449">
        <ele>172.29</ele>
        <time>2021-06-20T07:41:59.000Z</time>
      </trkpt>
      <trkpt lat="50.75961" lon="3.50447">
        <ele>173.6</ele>
        <time>2021-06-20T07:42:00.000Z</time>
      </trkpt>
      <trkpt lat="50.75967" lon="3.50447">
        <ele>172.78</ele>
        <time>2021-06-20T07:42:01.000Z</time>
      </trkpt>
      <trkpt lat="50.75972" lon="3.50444">
        <ele>169.8</ele>
        <time>2021-06-20T07:42:02.000Z</time>
      </trkpt>
      <trkpt lat="50.75977" lon="3.50443">
        <ele>169.08</ele>
        <time>2021-06-20T07:42:03.000Z</time>
      </trkpt>
      <trkpt lat="50.75983" lon="3.50439">
        <ele>168.25</ele>
        <time>2021-06-20T07:42:04.000Z</time>
      </trkpt>
      <trkpt lat="50.75987" lon="3.50437">
        <ele>167.92</ele>
        <time>2021-06-20T07:42:05.000Z</time>
      </trkpt>
      <trkpt lat="50.75994" lon="3.50434">
        <ele>167.83</ele>
        <time>2021-06-20T07:42:06.000Z</time>
      </trkpt>
      <trkpt lat="50.75999" lon="3.50429">
        <ele>167.59</ele>
        <time>2021-06-20T07:42:07.000Z</time>
      </trkpt>
      <trkpt lat="50.76001" lon="3.50422">
        <ele>164.41</ele>
        <time>2021-06-20T07:42:08.000Z</time>
      </trkpt>
      <trkpt lat="50.76005" lon="3.50417">
        <ele>163.28</ele>
        <time>2021-06-20T07:42:09.000Z</time>
      </trkpt>
      <trkpt lat="50.76009" lon="3.50407">
        <ele>161.98</ele>
        <time>2021-06-20T07:42:11.000Z</time>
      </trkpt>
      <trkpt lat="50.76011" lon="3.50397">
        <ele>160.44</ele>
        <time>2021-06-20T07:42:13.000Z</time>
      </trkpt>
      <trkpt lat="50.76016" lon="3.50391">
        <ele>158.77</ele>
        <time>2021-06-20T07:42:15.000Z</time>
      </trkpt>
      <trkpt lat="50.76019" lon="3.50386">
        <ele>157.7</ele>
        <time>2021-06-20T07:42:17.000Z</time>
      </trkpt>
      <trkpt lat="50.76022" lon="3.50379">
        <ele>155.99</ele>
        <time>2021-06-20T07:42:19.000Z</time>
      </trkpt>
      <trkpt lat="50.76025" lon="3.50371">
        <ele>157.17</ele>
        <time>2021-06-20T07:42:21.000Z</time>
      </trkpt>
      <trkpt lat="50.76029" lon="3.50365">
        <ele>157.65</ele>
        <time>2021-06-20T07:42:23.000Z</time>
      </trkpt>
      <trkpt lat="50.76034" lon="3.50359">
        <ele>157.8</ele>
        <time>2021-06-20T07:42:25.000Z</time>
      </trkpt>
      <trkpt lat="50.7604" lon="3.50354">
        <ele>158.2</ele>
        <time>2021-06-20T07:42:27.000Z</time>
      </trkpt>
      <trkpt lat="50.76045" lon="3.50347">
        <ele>159.75</ele>
        <time>2021-06-20T07:42:29.000Z</time>
      </trkpt>
      <trkpt lat="50.7605" lon="3.5034">
        <ele>160.3</ele>
        <time>2021-06-20T07:42:31.000Z</time>
      </trkpt>
      <trkpt lat="50.76054" lon="3.50333">
        <ele>160.23</ele>
        <time>2021-06-20T07:42:33.000Z</time>
      </trkpt>
      <trkpt lat="50.76059" lon="3.50324">
        <ele>160.13</ele>
        <time>2021-06-20T07:42:35.000Z</time>
      </trkpt>
      <trkpt lat="50.76075" lon="3.50304">
        <ele>161.13</ele>
        <time>2021-06-20T07:42:39.000Z</time>
      </trkpt>
      <trkpt lat="50.76081" lon="3.50295">
        <ele>160.96</ele>
        <time>2021-06-20T07:42:41.000Z</time>
      </trkpt>
      <trkpt lat="50.76085" lon="3.50284">
        <ele>158.58</ele>
        <time>2021-06-20T07:42:43.000Z</time>
      </trkpt>
      <trkpt lat="50.76089" lon="3.50281">
        <ele>159.19</ele>
        <time>2021-06-20T07:42:44.000Z</time>
      </trkpt>
      <trkpt lat="50.76096" lon="3.50275">
        <ele>160.23</ele>
        <time>2021-06-20T07:42:46.000Z</time>
      </trkpt>
      <trkpt lat="50.76104" lon="3.50272">
        <ele>161.59</ele>
        <time>2021-06-20T07:42:48.000Z</time>
      </trkpt>
      <trkpt lat="50.7611" lon="3.50267">
        <ele>160.48</ele>
        <time>2021-06-20T07:42:50.000Z</time>
      </trkpt>
      <trkpt lat="50.76116" lon="3.50261">
        <ele>159.78</ele>
        <time>2021-06-20T07:42:52.000Z</time>
      </trkpt>
      <trkpt lat="50.76122" lon="3.50257">
        <ele>159.66</ele>
        <time>2021-06-20T07:42:54.000Z</time>
      </trkpt>
      <trkpt lat="50.76129" lon="3.50254">
        <ele>160.42</ele>
        <time>2021-06-20T07:42:56.000Z</time>
      </trkpt>
      <trkpt lat="50.76133" lon="3.50253">
        <ele>160.02</ele>
        <time>2021-06-20T07:42:57.000Z</time>
      </trkpt>
      <trkpt lat="50.76139" lon="3.50248">
        <ele>154.34</ele>
        <time>2021-06-20T07:42:59.000Z</time>
      </trkpt>
      <trkpt lat="50.76144" lon="3.50243">
        <ele>153.44</ele>
        <time>2021-06-20T07:43:01.000Z</time>
      </trkpt>
      <trkpt lat="50.76149" lon="3.50236">
        <ele>153.44</ele>
        <time>2021-06-20T07:43:03.000Z</time>
      </trkpt>
      <trkpt lat="50.76153" lon="3.50229">
        <ele>144.99</ele>
        <time>2021-06-20T07:43:05.000Z</time>
      </trkpt>
      <trkpt lat="50.76186" lon="3.50208">
        <ele>152.34</ele>
        <time>2021-06-20T07:43:11.000Z</time>
      </trkpt>
      <trkpt lat="50.76192" lon="3.50204">
        <ele>151.72</ele>
        <time>2021-06-20T07:43:13.000Z</time>
      </trkpt>
      <trkpt lat="50.76201" lon="3.50204">
        <ele>149.72</ele>
        <time>2021-06-20T07:43:15.000Z</time>
      </trkpt>
      <trkpt lat="50.76208" lon="3.50206">
        <ele>147.07</ele>
        <time>2021-06-20T07:43:18.000Z</time>
      </trkpt>
      <trkpt lat="50.76212" lon="3.50207">
        <ele>147.46</ele>
        <time>2021-06-20T07:43:24.000Z</time>
      </trkpt>
      <trkpt lat="50.76219" lon="3.50207">
        <ele>144.42</ele>
        <time>2021-06-20T07:43:27.000Z</time>
      </trkpt>
      <trkpt lat="50.76225" lon="3.50202">
        <ele>141.37</ele>
        <time>2021-06-20T07:43:29.000Z</time>
      </trkpt>
      <trkpt lat="50.76234" lon="3.50199">
        <ele>141.01</ele>
        <time>2021-06-20T07:43:31.000Z</time>
      </trkpt>
      <trkpt lat="50.76238" lon="3.50191">
        <ele>137.64</ele>
        <time>2021-06-20T07:43:33.000Z</time>
      </trkpt>
      <trkpt lat="50.76239" lon="3.50181">
        <ele>135.7</ele>
        <time>2021-06-20T07:43:35.000Z</time>
      </trkpt>
      <trkpt lat="50.7624" lon="3.50169">
        <ele>132.62</ele>
        <time>2021-06-20T07:43:37.000Z</time>
      </trkpt>
      <trkpt lat="50.76243" lon="3.5016">
        <ele>133.48</ele>
        <time>2021-06-20T07:43:39.000Z</time>
      </trkpt>
      <trkpt lat="50.76246" lon="3.50153">
        <ele>136.95</ele>
        <time>2021-06-20T07:43:41.000Z</time>
      </trkpt>
      <trkpt lat="50.76249" lon="3.50132">
        <ele>139.13</ele>
        <time>2021-06-20T07:43:43.000Z</time>
      </trkpt>
      <trkpt lat="50.76252" lon="3.50123">
        <ele>139.94</ele>
        <time>2021-06-20T07:43:44.000Z</time>
      </trkpt>
      <trkpt lat="50.76254" lon="3.50116">
        <ele>140.08</ele>
        <time>2021-06-20T07:43:45.000Z</time>
      </trkpt>
      <trkpt lat="50.76254" lon="3.50106">
        <ele>141.05</ele>
        <time>2021-06-20T07:43:46.000Z</time>
      </trkpt>
      <trkpt lat="50.76255" lon="3.50097">
        <ele>141.38</ele>
        <time>2021-06-20T07:43:47.000Z</time>
      </trkpt>
      <trkpt lat="50.76256" lon="3.50088">
        <ele>141.32</ele>
        <time>2021-06-20T07:43:48.000Z</time>
      </trkpt>
      <trkpt lat="50.76261" lon="3.50084">
        <ele>140.32</ele>
        <time>2021-06-20T07:43:49.000Z</time>
      </trkpt>
      <trkpt lat="50.76262" lon="3.50076">
        <ele>140.53</ele>
        <time>2021-06-20T07:43:50.000Z</time>
      </trkpt>
      <trkpt lat="50.76261" lon="3.50068">
        <ele>141.12</ele>
        <time>2021-06-20T07:43:51.000Z</time>
      </trkpt>
      <trkpt lat="50.76264" lon="3.50061">
        <ele>140.68</ele>
        <time>2021-06-20T07:43:52.000Z</time>
      </trkpt>
      <trkpt lat="50.76269" lon="3.50055">
        <ele>140.45</ele>
        <time>2021-06-20T07:43:53.000Z</time>
      </trkpt>
      <trkpt lat="50.76272" lon="3.5005">
        <ele>141.21</ele>
        <time>2021-06-20T07:43:54.000Z</time>
      </trkpt>
      <trkpt lat="50.76275" lon="3.50043">
        <ele>141.01</ele>
        <time>2021-06-20T07:43:55.000Z</time>
      </trkpt>
      <trkpt lat="50.76274" lon="3.50034">
        <ele>142.35</ele>
        <time>2021-06-20T07:43:56.000Z</time>
      </trkpt>
      <trkpt lat="50.76274" lon="3.50024">
        <ele>168.12</ele>
        <time>2021-06-20T07:43:57.000Z</time>
      </trkpt>
      <trkpt lat="50.76276" lon="3.50018">
        <ele>164.75</ele>
        <time>2021-06-20T07:43:58.000Z</time>
      </trkpt>
      <trkpt lat="50.76282" lon="3.50014">
        <ele>160.36</ele>
        <time>2021-06-20T07:43:59.000Z</time>
      </trkpt>
      <trkpt lat="50.76285" lon="3.50002">
        <ele>139.34</ele>
        <time>2021-06-20T07:44:02.000Z</time>
      </trkpt>
      <trkpt lat="50.76294" lon="3.49995">
        <ele>135.09</ele>
        <time>2021-06-20T07:44:04.000Z</time>
      </trkpt>
      <trkpt lat="50.76298" lon="3.49988">
        <ele>131.61</ele>
        <time>2021-06-20T07:44:06.000Z</time>
      </trkpt>
      <trkpt lat="50.76301" lon="3.49982">
        <ele>129.67</ele>
        <time>2021-06-20T07:44:07.000Z</time>
      </trkpt>
      <trkpt lat="50.76304" lon="3.49976">
        <ele>128.88</ele>
        <time>2021-06-20T07:44:08.000Z</time>
      </trkpt>
      <trkpt lat="50.76308" lon="3.49963">
        <ele>127.89</ele>
        <time>2021-06-20T07:44:10.000Z</time>
      </trkpt>
      <trkpt lat="50.76308" lon="3.49952">
        <ele>127.37</ele>
        <time>2021-06-20T07:44:11.000Z</time>
      </trkpt>
      <trkpt lat="50.76309" lon="3.49941">
        <ele>126.6</ele>
        <time>2021-06-20T07:44:12.000Z</time>
      </trkpt>
      <trkpt lat="50.76311" lon="3.49933">
        <ele>125.19</ele>
        <time>2021-06-20T07:44:13.000Z</time>
      </trkpt>
      <trkpt lat="50.76321" lon="3.49921">
        <ele>124.67</ele>
        <time>2021-06-20T07:44:15.000Z</time>
      </trkpt>
      <trkpt lat="50.76325" lon="3.49919">
        <ele>123.91</ele>
        <time>2021-06-20T07:44:16.000Z</time>
      </trkpt>
      <trkpt lat="50.76331" lon="3.49912">
        <ele>120.72</ele>
        <time>2021-06-20T07:44:18.000Z</time>
      </trkpt>
      <trkpt lat="50.76329" lon="3.49902">
        <ele>120.24</ele>
        <time>2021-06-20T07:44:20.000Z</time>
      </trkpt>
      <trkpt lat="50.76325" lon="3.49894">
        <ele>119.99</ele>
        <time>2021-06-20T07:44:22.000Z</time>
      </trkpt>
      <trkpt lat="50.76322" lon="3.49884">
        <ele>119.78</ele>
        <time>2021-06-20T07:44:24.000Z</time>
      </trkpt>
      <trkpt lat="50.76317" lon="3.49872">
        <ele>120.05</ele>
        <time>2021-06-20T07:44:26.000Z</time>
      </trkpt>
      <trkpt lat="50.76314" lon="3.49865">
        <ele>119.56</ele>
        <time>2021-06-20T07:44:28.000Z</time>
      </trkpt>
      <trkpt lat="50.76288" lon="3.49828">
        <ele>120.15</ele>
        <time>2021-06-20T07:44:33.000Z</time>
      </trkpt>
      <trkpt lat="50.76285" lon="3.49822">
        <ele>119.65</ele>
        <time>2021-06-20T07:44:34.000Z</time>
      </trkpt>
      <trkpt lat="50.76283" lon="3.49816">
        <ele>121.28</ele>
        <time>2021-06-20T07:44:35.000Z</time>
      </trkpt>
      <trkpt lat="50.76283" lon="3.49809">
        <ele>121.77</ele>
        <time>2021-06-20T07:44:37.000Z</time>
      </trkpt>
      <trkpt lat="50.76279" lon="3.49799">
        <ele>122.95</ele>
        <time>2021-06-20T07:44:39.000Z</time>
      </trkpt>
      <trkpt lat="50.76279" lon="3.49789">
        <ele>122.33</ele>
        <time>2021-06-20T07:44:41.000Z</time>
      </trkpt>
      <trkpt lat="50.7628" lon="3.49782">
        <ele>122.01</ele>
        <time>2021-06-20T07:44:43.000Z</time>
      </trkpt>
      <trkpt lat="50.76279" lon="3.49772">
        <ele>121.38</ele>
        <time>2021-06-20T07:44:45.000Z</time>
      </trkpt>
      <trkpt lat="50.76277" lon="3.49765">
        <ele>122.5</ele>
        <time>2021-06-20T07:44:48.000Z</time>
      </trkpt>
      <trkpt lat="50.7627" lon="3.49761">
        <ele>123.53</ele>
        <time>2021-06-20T07:44:50.000Z</time>
      </trkpt>
      <trkpt lat="50.76262" lon="3.4976">
        <ele>124.43</ele>
        <time>2021-06-20T07:44:52.000Z</time>
      </trkpt>
      <trkpt lat="50.76253" lon="3.49758">
        <ele>125.36</ele>
        <time>2021-06-20T07:44:54.000Z</time>
      </trkpt>
      <trkpt lat="50.76245" lon="3.49754">
        <ele>125.94</ele>
        <time>2021-06-20T07:44:56.000Z</time>
      </trkpt>
      <trkpt lat="50.76224" lon="3.49749">
        <ele>128.92</ele>
        <time>2021-06-20T07:45:01.000Z</time>
      </trkpt>
      <trkpt lat="50.76219" lon="3.4975">
        <ele>129.61</ele>
        <time>2021-06-20T07:45:02.000Z</time>
      </trkpt>
      <trkpt lat="50.76214" lon="3.4975">
        <ele>129.94</ele>
        <time>2021-06-20T07:45:03.000Z</time>
      </trkpt>
      <trkpt lat="50.7621" lon="3.49749">
        <ele>132.2</ele>
        <time>2021-06-20T07:45:05.000Z</time>
      </trkpt>
      <trkpt lat="50.76203" lon="3.49749">
        <ele>132.77</ele>
        <time>2021-06-20T07:45:07.000Z</time>
      </trkpt>
      <trkpt lat="50.76198" lon="3.49744">
        <ele>132.71</ele>
        <time>2021-06-20T07:45:10.000Z</time>
      </trkpt>
      <trkpt lat="50.76196" lon="3.49738">
        <ele>132.99</ele>
        <time>2021-06-20T07:45:12.000Z</time>
      </trkpt>
      <trkpt lat="50.76191" lon="3.49736">
        <ele>132.7</ele>
        <time>2021-06-20T07:45:15.000Z</time>
      </trkpt>
      <trkpt lat="50.76186" lon="3.49733">
        <ele>135.31</ele>
        <time>2021-06-20T07:45:21.000Z</time>
      </trkpt>
      <trkpt lat="50.76184" lon="3.49741">
        <ele>131.06</ele>
        <time>2021-06-20T07:45:25.000Z</time>
      </trkpt>
      <trkpt lat="50.76189" lon="3.4975">
        <ele>129.93</ele>
        <time>2021-06-20T07:45:28.000Z</time>
      </trkpt>
      <trkpt lat="50.76197" lon="3.49754">
        <ele>129.22</ele>
        <time>2021-06-20T07:45:30.000Z</time>
      </trkpt>
      <trkpt lat="50.76203" lon="3.49752">
        <ele>128.49</ele>
        <time>2021-06-20T07:45:32.000Z</time>
      </trkpt>
      <trkpt lat="50.7621" lon="3.49749">
        <ele>128.35</ele>
        <time>2021-06-20T07:45:34.000Z</time>
      </trkpt>
      <trkpt lat="50.76217" lon="3.49749">
        <ele>128.27</ele>
        <time>2021-06-20T07:45:36.000Z</time>
      </trkpt>
      <trkpt lat="50.76223" lon="3.49747">
        <ele>124.6</ele>
        <time>2021-06-20T07:45:38.000Z</time>
      </trkpt>
      <trkpt lat="50.76229" lon="3.49746">
        <ele>123.91</ele>
        <time>2021-06-20T07:45:40.000Z</time>
      </trkpt>
      <trkpt lat="50.76233" lon="3.49744">
        <ele>120.97</ele>
        <time>2021-06-20T07:45:42.000Z</time>
      </trkpt>
      <trkpt lat="50.76238" lon="3.49742">
        <ele>119.08</ele>
        <time>2021-06-20T07:45:45.000Z</time>
      </trkpt>
      <trkpt lat="50.76244" lon="3.49748">
        <ele>119.61</ele>
        <time>2021-06-20T07:45:48.000Z</time>
      </trkpt>
      <trkpt lat="50.76249" lon="3.49752">
        <ele>135.56</ele>
        <time>2021-06-20T07:45:50.000Z</time>
      </trkpt>
      <trkpt lat="50.76256" lon="3.49749">
        <ele>124.41</ele>
        <time>2021-06-20T07:45:53.000Z</time>
      </trkpt>
      <trkpt lat="50.76261" lon="3.49745">
        <ele>121.52</ele>
        <time>2021-06-20T07:45:55.000Z</time>
      </trkpt>
      <trkpt lat="50.76265" lon="3.49738">
        <ele>121.73</ele>
        <time>2021-06-20T07:45:57.000Z</time>
      </trkpt>
      <trkpt lat="50.76268" lon="3.49732">
        <ele>119.52</ele>
        <time>2021-06-20T07:45:59.000Z</time>
      </trkpt>
      <trkpt lat="50.76271" lon="3.49724">
        <ele>116.91</ele>
        <time>2021-06-20T07:46:01.000Z</time>
      </trkpt>
      <trkpt lat="50.76273" lon="3.49716">
        <ele>115.66</ele>
        <time>2021-06-20T07:46:03.000Z</time>
      </trkpt>
      <trkpt lat="50.76274" lon="3.49709">
        <ele>114.71</ele>
        <time>2021-06-20T07:46:05.000Z</time>
      </trkpt>
      <trkpt lat="50.76276" lon="3.497">
        <ele>113.49</ele>
        <time>2021-06-20T07:46:07.000Z</time>
      </trkpt>
      <trkpt lat="50.76277" lon="3.49689">
        <ele>113.28</ele>
        <time>2021-06-20T07:46:09.000Z</time>
      </trkpt>
      <trkpt lat="50.76278" lon="3.49681">
        <ele>112.6</ele>
        <time>2021-06-20T07:46:11.000Z</time>
      </trkpt>
      <trkpt lat="50.76278" lon="3.49671">
        <ele>111.95</ele>
        <time>2021-06-20T07:46:13.000Z</time>
      </trkpt>
      <trkpt lat="50.76278" lon="3.49659">
        <ele>110.67</ele>
        <time>2021-06-20T07:46:15.000Z</time>
      </trkpt>
      <trkpt lat="50.76278" lon="3.49646">
        <ele>112.21</ele>
        <time>2021-06-20T07:46:17.000Z</time>
      </trkpt>
      <trkpt lat="50.7629" lon="3.49613">
        <ele>114.2</ele>
        <time>2021-06-20T07:46:23.000Z</time>
      </trkpt>
      <trkpt lat="50.76294" lon="3.49608">
        <ele>115.04</ele>
        <time>2021-06-20T07:46:24.000Z</time>
      </trkpt>
      <trkpt lat="50.763" lon="3.49599">
        <ele>115.66</ele>
        <time>2021-06-20T07:46:26.000Z</time>
      </trkpt>
      <trkpt lat="50.76302" lon="3.49593">
        <ele>116.35</ele>
        <time>2021-06-20T07:46:27.000Z</time>
      </trkpt>
      <trkpt lat="50.76303" lon="3.49586">
        <ele>116.19</ele>
        <time>2021-06-20T07:46:28.000Z</time>
      </trkpt>
      <trkpt lat="50.76306" lon="3.49579">
        <ele>117.17</ele>
        <time>2021-06-20T07:46:29.000Z</time>
      </trkpt>
      <trkpt lat="50.76308" lon="3.49573">
        <ele>115.09</ele>
        <time>2021-06-20T07:46:30.000Z</time>
      </trkpt>
      <trkpt lat="50.76311" lon="3.49564">
        <ele>115.36</ele>
        <time>2021-06-20T07:46:31.000Z</time>
      </trkpt>
      <trkpt lat="50.76317" lon="3.49554">
        <ele>115.75</ele>
        <time>2021-06-20T07:46:33.000Z</time>
      </trkpt>
      <trkpt lat="50.7632" lon="3.49549">
        <ele>115.73</ele>
        <time>2021-06-20T07:46:34.000Z</time>
      </trkpt>
      <trkpt lat="50.76324" lon="3.49535">
        <ele>113.76</ele>
        <time>2021-06-20T07:46:36.000Z</time>
      </trkpt>
      <trkpt lat="50.76326" lon="3.49528">
        <ele>115.09</ele>
        <time>2021-06-20T07:46:37.000Z</time>
      </trkpt>
      <trkpt lat="50.76329" lon="3.49522">
        <ele>115.54</ele>
        <time>2021-06-20T07:46:38.000Z</time>
      </trkpt>
      <trkpt lat="50.76332" lon="3.49516">
        <ele>116.3</ele>
        <time>2021-06-20T07:46:39.000Z</time>
      </trkpt>
      <trkpt lat="50.76333" lon="3.49508">
        <ele>115.57</ele>
        <time>2021-06-20T07:46:40.000Z</time>
      </trkpt>
      <trkpt lat="50.76338" lon="3.49494">
        <ele>141.14</ele>
        <time>2021-06-20T07:46:42.000Z</time>
      </trkpt>
      <trkpt lat="50.76345" lon="3.49483">
        <ele>129.01</ele>
        <time>2021-06-20T07:46:44.000Z</time>
      </trkpt>
      <trkpt lat="50.76348" lon="3.49475">
        <ele>124.59</ele>
        <time>2021-06-20T07:46:45.000Z</time>
      </trkpt>
      <trkpt lat="50.7635" lon="3.49469">
        <ele>122.15</ele>
        <time>2021-06-20T07:46:46.000Z</time>
      </trkpt>
      <trkpt lat="50.76354" lon="3.49464">
        <ele>118.84</ele>
        <time>2021-06-20T07:46:47.000Z</time>
      </trkpt>
      <trkpt lat="50.76358" lon="3.49458">
        <ele>117.43</ele>
        <time>2021-06-20T07:46:48.000Z</time>
      </trkpt>
      <trkpt lat="50.76359" lon="3.4945">
        <ele>112.81</ele>
        <time>2021-06-20T07:46:49.000Z</time>
      </trkpt>
      <trkpt lat="50.76362" lon="3.49444">
        <ele>114.29</ele>
        <time>2021-06-20T07:46:50.000Z</time>
      </trkpt>
      <trkpt lat="50.76364" lon="3.49437">
        <ele>111.1</ele>
        <time>2021-06-20T07:46:51.000Z</time>
      </trkpt>
      <trkpt lat="50.76368" lon="3.49429">
        <ele>109.12</ele>
        <time>2021-06-20T07:46:53.000Z</time>
      </trkpt>
      <trkpt lat="50.76373" lon="3.49425">
        <ele>107.96</ele>
        <time>2021-06-20T07:46:54.000Z</time>
      </trkpt>
      <trkpt lat="50.76377" lon="3.4942">
        <ele>107.73</ele>
        <time>2021-06-20T07:46:55.000Z</time>
      </trkpt>
      <trkpt lat="50.76382" lon="3.49414">
        <ele>107.72</ele>
        <time>2021-06-20T07:46:56.000Z</time>
      </trkpt>
      <trkpt lat="50.7639" lon="3.49409">
        <ele>106.46</ele>
        <time>2021-06-20T07:46:57.000Z</time>
      </trkpt>
      <trkpt lat="50.76433" lon="3.49354">
        <ele>102.15</ele>
        <time>2021-06-20T07:47:03.000Z</time>
      </trkpt>
      <trkpt lat="50.76439" lon="3.49342">
        <ele>102.62</ele>
        <time>2021-06-20T07:47:04.000Z</time>
      </trkpt>
      <trkpt lat="50.76446" lon="3.49334">
        <ele>102.44</ele>
        <time>2021-06-20T07:47:05.000Z</time>
      </trkpt>
      <trkpt lat="50.76452" lon="3.49328">
        <ele>102.07</ele>
        <time>2021-06-20T07:47:06.000Z</time>
      </trkpt>
      <trkpt lat="50.76458" lon="3.49319">
        <ele>102.84</ele>
        <time>2021-06-20T07:47:07.000Z</time>
      </trkpt>
      <trkpt lat="50.76464" lon="3.49314">
        <ele>103.59</ele>
        <time>2021-06-20T07:47:08.000Z</time>
      </trkpt>
      <trkpt lat="50.76469" lon="3.49309">
        <ele>103.4</ele>
        <time>2021-06-20T07:47:09.000Z</time>
      </trkpt>
      <trkpt lat="50.76472" lon="3.49302">
        <ele>101.15</ele>
        <time>2021-06-20T07:47:10.000Z</time>
      </trkpt>
      <trkpt lat="50.76475" lon="3.49293">
        <ele>99.03</ele>
        <time>2021-06-20T07:47:12.000Z</time>
      </trkpt>
      <trkpt lat="50.76479" lon="3.49289">
        <ele>94.53</ele>
        <time>2021-06-20T07:47:15.000Z</time>
      </trkpt>
      <trkpt lat="50.76484" lon="3.49279">
        <ele>93.19</ele>
        <time>2021-06-20T07:47:18.000Z</time>
      </trkpt>
      <trkpt lat="50.76488" lon="3.49273">
        <ele>92.99</ele>
        <time>2021-06-20T07:47:19.000Z</time>
      </trkpt>
      <trkpt lat="50.76491" lon="3.49267">
        <ele>92.62</ele>
        <time>2021-06-20T07:47:20.000Z</time>
      </trkpt>
      <trkpt lat="50.76495" lon="3.49261">
        <ele>91.87</ele>
        <time>2021-06-20T07:47:21.000Z</time>
      </trkpt>
      <trkpt lat="50.765" lon="3.49255">
        <ele>92.3</ele>
        <time>2021-06-20T07:47:22.000Z</time>
      </trkpt>
      <trkpt lat="50.76505" lon="3.49249">
        <ele>91.81</ele>
        <time>2021-06-20T07:47:23.000Z</time>
      </trkpt>
      <trkpt lat="50.7651" lon="3.49243">
        <ele>91.66</ele>
        <time>2021-06-20T07:47:24.000Z</time>
      </trkpt>
      <trkpt lat="50.76515" lon="3.49236">
        <ele>91.27</ele>
        <time>2021-06-20T07:47:25.000Z</time>
      </trkpt>
      <trkpt lat="50.76522" lon="3.4923">
        <ele>91.51</ele>
        <time>2021-06-20T07:47:26.000Z</time>
      </trkpt>
      <trkpt lat="50.76528" lon="3.49225">
        <ele>91.65</ele>
        <time>2021-06-20T07:47:27.000Z</time>
      </trkpt>
      <trkpt lat="50.76534" lon="3.49219">
        <ele>92.36</ele>
        <time>2021-06-20T07:47:28.000Z</time>
      </trkpt>
      <trkpt lat="50.76541" lon="3.49212">
        <ele>93.18</ele>
        <time>2021-06-20T07:47:29.000Z</time>
      </trkpt>
      <trkpt lat="50.76548" lon="3.49206">
        <ele>93.42</ele>
        <time>2021-06-20T07:47:30.000Z</time>
      </trkpt>
      <trkpt lat="50.76554" lon="3.49199">
        <ele>93.42</ele>
        <time>2021-06-20T07:47:31.000Z</time>
      </trkpt>
      <trkpt lat="50.76562" lon="3.49192">
        <ele>93.63</ele>
        <time>2021-06-20T07:47:32.000Z</time>
      </trkpt>
      <trkpt lat="50.76568" lon="3.49185">
        <ele>93.8</ele>
        <time>2021-06-20T07:47:33.000Z</time>
      </trkpt>
      <trkpt lat="50.76575" lon="3.49178">
        <ele>93.49</ele>
        <time>2021-06-20T07:47:34.000Z</time>
      </trkpt>
      <trkpt lat="50.76581" lon="3.49172">
        <ele>93.13</ele>
        <time>2021-06-20T07:47:35.000Z</time>
      </trkpt>
      <trkpt lat="50.76589" lon="3.49165">
        <ele>93.72</ele>
        <time>2021-06-20T07:47:36.000Z</time>
      </trkpt>
      <trkpt lat="50.76596" lon="3.49158">
        <ele>93.21</ele>
        <time>2021-06-20T07:47:37.000Z</time>
      </trkpt>
      <trkpt lat="50.76603" lon="3.49152">
        <ele>92.95</ele>
        <time>2021-06-20T07:47:38.000Z</time>
      </trkpt>
      <trkpt lat="50.76609" lon="3.49145">
        <ele>93.5</ele>
        <time>2021-06-20T07:47:39.000Z</time>
      </trkpt>
      <trkpt lat="50.76616" lon="3.4914">
        <ele>93.68</ele>
        <time>2021-06-20T07:47:40.000Z</time>
      </trkpt>
      <trkpt lat="50.76621" lon="3.49136">
        <ele>93.48</ele>
        <time>2021-06-20T07:47:41.000Z</time>
      </trkpt>
      <trkpt lat="50.76626" lon="3.49133">
        <ele>93.19</ele>
        <time>2021-06-20T07:47:42.000Z</time>
      </trkpt>
      <trkpt lat="50.7663" lon="3.4913">
        <ele>93.43</ele>
        <time>2021-06-20T07:47:43.000Z</time>
      </trkpt>
      <trkpt lat="50.76634" lon="3.49125">
        <ele>93.48</ele>
        <time>2021-06-20T07:47:44.000Z</time>
      </trkpt>
      <trkpt lat="50.76633" lon="3.49111">
        <ele>92.91</ele>
        <time>2021-06-20T07:47:46.000Z</time>
      </trkpt>
      <trkpt lat="50.76631" lon="3.49104">
        <ele>93</ele>
        <time>2021-06-20T07:47:47.000Z</time>
      </trkpt>
      <trkpt lat="50.76628" lon="3.49097">
        <ele>92.8</ele>
        <time>2021-06-20T07:47:48.000Z</time>
      </trkpt>
      <trkpt lat="50.76625" lon="3.49091">
        <ele>92.79</ele>
        <time>2021-06-20T07:47:49.000Z</time>
      </trkpt>
      <trkpt lat="50.76621" lon="3.49084">
        <ele>92.62</ele>
        <time>2021-06-20T07:47:50.000Z</time>
      </trkpt>
      <trkpt lat="50.76618" lon="3.49077">
        <ele>92.49</ele>
        <time>2021-06-20T07:47:51.000Z</time>
      </trkpt>
      <trkpt lat="50.76615" lon="3.4907">
        <ele>92.24</ele>
        <time>2021-06-20T07:47:52.000Z</time>
      </trkpt>
      <trkpt lat="50.76611" lon="3.49063">
        <ele>92.05</ele>
        <time>2021-06-20T07:47:53.000Z</time>
      </trkpt>
      <trkpt lat="50.76608" lon="3.49056">
        <ele>91.65</ele>
        <time>2021-06-20T07:47:54.000Z</time>
      </trkpt>
      <trkpt lat="50.76604" lon="3.49049">
        <ele>91.46</ele>
        <time>2021-06-20T07:47:55.000Z</time>
      </trkpt>
      <trkpt lat="50.76601" lon="3.49041">
        <ele>91.43</ele>
        <time>2021-06-20T07:47:56.000Z</time>
      </trkpt>
      <trkpt lat="50.76597" lon="3.49034">
        <ele>91.33</ele>
        <time>2021-06-20T07:47:57.000Z</time>
      </trkpt>
      <trkpt lat="50.76594" lon="3.49026">
        <ele>90.89</ele>
        <time>2021-06-20T07:47:58.000Z</time>
      </trkpt>
      <trkpt lat="50.76591" lon="3.49019">
        <ele>90.47</ele>
        <time>2021-06-20T07:47:59.000Z</time>
      </trkpt>
      <trkpt lat="50.76587" lon="3.49008">
        <ele>89.82</ele>
        <time>2021-06-20T07:48:01.000Z</time>
      </trkpt>
      <trkpt lat="50.76584" lon="3.48998">
        <ele>89.61</ele>
        <time>2021-06-20T07:48:03.000Z</time>
      </trkpt>
      <trkpt lat="50.76585" lon="3.48989">
        <ele>88.57</ele>
        <time>2021-06-20T07:48:05.000Z</time>
      </trkpt>
      <trkpt lat="50.76584" lon="3.4898">
        <ele>88.11</ele>
        <time>2021-06-20T07:48:07.000Z</time>
      </trkpt>
      <trkpt lat="50.76578" lon="3.48972">
        <ele>87.66</ele>
        <time>2021-06-20T07:48:09.000Z</time>
      </trkpt>
      <trkpt lat="50.76571" lon="3.48962">
        <ele>86.98</ele>
        <time>2021-06-20T07:48:11.000Z</time>
      </trkpt>
      <trkpt lat="50.76567" lon="3.48956">
        <ele>86.88</ele>
        <time>2021-06-20T07:48:12.000Z</time>
      </trkpt>
      <trkpt lat="50.76563" lon="3.48951">
        <ele>86.72</ele>
        <time>2021-06-20T07:48:13.000Z</time>
      </trkpt>
      <trkpt lat="50.7656" lon="3.48946">
        <ele>86.82</ele>
        <time>2021-06-20T07:48:14.000Z</time>
      </trkpt>
      <trkpt lat="50.76554" lon="3.48937">
        <ele>86.48</ele>
        <time>2021-06-20T07:48:16.000Z</time>
      </trkpt>
      <trkpt lat="50.76549" lon="3.48929">
        <ele>86.87</ele>
        <time>2021-06-20T07:48:18.000Z</time>
      </trkpt>
      <trkpt lat="50.76546" lon="3.48922">
        <ele>86.64</ele>
        <time>2021-06-20T07:48:21.000Z</time>
      </trkpt>
      <trkpt lat="50.76544" lon="3.48913">
        <ele>86.59</ele>
        <time>2021-06-20T07:48:23.000Z</time>
      </trkpt>
      <trkpt lat="50.76548" lon="3.48911">
        <ele>86.51</ele>
        <time>2021-06-20T07:48:26.000Z</time>
      </trkpt>
      <trkpt lat="50.76547" lon="3.48918">
        <ele>87.42</ele>
        <time>2021-06-20T07:48:28.000Z</time>
      </trkpt>
      <trkpt lat="50.76544" lon="3.48924">
        <ele>88.29</ele>
        <time>2021-06-20T07:48:30.000Z</time>
      </trkpt>
      <trkpt lat="50.76539" lon="3.48931">
        <ele>88.77</ele>
        <time>2021-06-20T07:48:32.000Z</time>
      </trkpt>
      <trkpt lat="50.76535" lon="3.48937">
        <ele>89.29</ele>
        <time>2021-06-20T07:48:34.000Z</time>
      </trkpt>
      <trkpt lat="50.7653" lon="3.48943">
        <ele>89.89</ele>
        <time>2021-06-20T07:48:36.000Z</time>
      </trkpt>
      <trkpt lat="50.76526" lon="3.48949">
        <ele>90.48</ele>
        <time>2021-06-20T07:48:38.000Z</time>
      </trkpt>
      <trkpt lat="50.76521" lon="3.48955">
        <ele>90.45</ele>
        <time>2021-06-20T07:48:40.000Z</time>
      </trkpt>
      <trkpt lat="50.76516" lon="3.48961">
        <ele>91.07</ele>
        <time>2021-06-20T07:48:42.000Z</time>
      </trkpt>
      <trkpt lat="50.76511" lon="3.48967">
        <ele>91.85</ele>
        <time>2021-06-20T07:48:44.000Z</time>
      </trkpt>
      <trkpt lat="50.76506" lon="3.48973">
        <ele>92.46</ele>
        <time>2021-06-20T07:48:46.000Z</time>
      </trkpt>
      <trkpt lat="50.76501" lon="3.4898">
        <ele>92.77</ele>
        <time>2021-06-20T07:48:48.000Z</time>
      </trkpt>
      <trkpt lat="50.76495" lon="3.48985">
        <ele>93.53</ele>
        <time>2021-06-20T07:48:50.000Z</time>
      </trkpt>
      <trkpt lat="50.76488" lon="3.48989">
        <ele>94.2</ele>
        <time>2021-06-20T07:48:52.000Z</time>
      </trkpt>
      <trkpt lat="50.76481" lon="3.48992">
        <ele>94.99</ele>
        <time>2021-06-20T07:48:54.000Z</time>
      </trkpt>
      <trkpt lat="50.76474" lon="3.48995">
        <ele>95.27</ele>
        <time>2021-06-20T07:48:56.000Z</time>
      </trkpt>
      <trkpt lat="50.76467" lon="3.48996">
        <ele>95.69</ele>
        <time>2021-06-20T07:48:58.000Z</time>
      </trkpt>
      <trkpt lat="50.7646" lon="3.48998">
        <ele>96</ele>
        <time>2021-06-20T07:49:00.000Z</time>
      </trkpt>
      <trkpt lat="50.76453" lon="3.49">
        <ele>97</ele>
        <time>2021-06-20T07:49:02.000Z</time>
      </trkpt>
      <trkpt lat="50.76447" lon="3.49004">
        <ele>97.67</ele>
        <time>2021-06-20T07:49:04.000Z</time>
      </trkpt>
      <trkpt lat="50.76442" lon="3.4901">
        <ele>98.37</ele>
        <time>2021-06-20T07:49:06.000Z</time>
      </trkpt>
      <trkpt lat="50.76437" lon="3.49017">
        <ele>98.61</ele>
        <time>2021-06-20T07:49:08.000Z</time>
      </trkpt>
      <trkpt lat="50.76431" lon="3.49024">
        <ele>99.49</ele>
        <time>2021-06-20T07:49:10.000Z</time>
      </trkpt>
      <trkpt lat="50.76426" lon="3.49031">
        <ele>100.3</ele>
        <time>2021-06-20T07:49:12.000Z</time>
      </trkpt>
      <trkpt lat="50.76421" lon="3.49038">
        <ele>101.08</ele>
        <time>2021-06-20T07:49:14.000Z</time>
      </trkpt>
      <trkpt lat="50.76416" lon="3.49046">
        <ele>101.85</ele>
        <time>2021-06-20T07:49:16.000Z</time>
      </trkpt>
      <trkpt lat="50.76412" lon="3.49053">
        <ele>102.41</ele>
        <time>2021-06-20T07:49:18.000Z</time>
      </trkpt>
      <trkpt lat="50.76406" lon="3.49053">
        <ele>103.11</ele>
        <time>2021-06-20T07:49:21.000Z</time>
      </trkpt>
      <trkpt lat="50.76402" lon="3.49045">
        <ele>102.91</ele>
        <time>2021-06-20T07:49:23.000Z</time>
      </trkpt>
      <trkpt lat="50.76397" lon="3.49035">
        <ele>102.45</ele>
        <time>2021-06-20T07:49:25.000Z</time>
      </trkpt>
      <trkpt lat="50.76393" lon="3.4903">
        <ele>102.35</ele>
        <time>2021-06-20T07:49:26.000Z</time>
      </trkpt>
      <trkpt lat="50.7639" lon="3.49025">
        <ele>102.2</ele>
        <time>2021-06-20T07:49:27.000Z</time>
      </trkpt>
      <trkpt lat="50.76386" lon="3.4902">
        <ele>102.01</ele>
        <time>2021-06-20T07:49:28.000Z</time>
      </trkpt>
      <trkpt lat="50.76383" lon="3.49014">
        <ele>102.03</ele>
        <time>2021-06-20T07:49:29.000Z</time>
      </trkpt>
      <trkpt lat="50.76379" lon="3.49009">
        <ele>101.85</ele>
        <time>2021-06-20T07:49:30.000Z</time>
      </trkpt>
      <trkpt lat="50.76376" lon="3.49004">
        <ele>101.29</ele>
        <time>2021-06-20T07:49:31.000Z</time>
      </trkpt>
      <trkpt lat="50.76373" lon="3.48998">
        <ele>100.83</ele>
        <time>2021-06-20T07:49:32.000Z</time>
      </trkpt>
      <trkpt lat="50.76367" lon="3.4899">
        <ele>99.91</ele>
        <time>2021-06-20T07:49:34.000Z</time>
      </trkpt>
      <trkpt lat="50.76362" lon="3.4898">
        <ele>98.6</ele>
        <time>2021-06-20T07:49:36.000Z</time>
      </trkpt>
      <trkpt lat="50.76359" lon="3.48973">
        <ele>98.06</ele>
        <time>2021-06-20T07:49:37.000Z</time>
      </trkpt>
      <trkpt lat="50.76355" lon="3.48967">
        <ele>97.07</ele>
        <time>2021-06-20T07:49:38.000Z</time>
      </trkpt>
      <trkpt lat="50.76352" lon="3.48961">
        <ele>95.46</ele>
        <time>2021-06-20T07:49:39.000Z</time>
      </trkpt>
      <trkpt lat="50.76348" lon="3.48954">
        <ele>93.87</ele>
        <time>2021-06-20T07:49:40.000Z</time>
      </trkpt>
      <trkpt lat="50.76344" lon="3.48947">
        <ele>92.51</ele>
        <time>2021-06-20T07:49:41.000Z</time>
      </trkpt>
      <trkpt lat="50.76339" lon="3.48939">
        <ele>91.82</ele>
        <time>2021-06-20T07:49:42.000Z</time>
      </trkpt>
      <trkpt lat="50.76335" lon="3.48931">
        <ele>91.49</ele>
        <time>2021-06-20T07:49:43.000Z</time>
      </trkpt>
      <trkpt lat="50.76331" lon="3.48924">
        <ele>91.85</ele>
        <time>2021-06-20T07:49:44.000Z</time>
      </trkpt>
      <trkpt lat="50.76327" lon="3.48919">
        <ele>92.04</ele>
        <time>2021-06-20T07:49:45.000Z</time>
      </trkpt>
      <trkpt lat="50.76323" lon="3.48914">
        <ele>92.23</ele>
        <time>2021-06-20T07:49:46.000Z</time>
      </trkpt>
      <trkpt lat="50.76318" lon="3.48904">
        <ele>92.17</ele>
        <time>2021-06-20T07:49:48.000Z</time>
      </trkpt>
      <trkpt lat="50.76313" lon="3.48895">
        <ele>93.43</ele>
        <time>2021-06-20T07:49:50.000Z</time>
      </trkpt>
      <trkpt lat="50.76307" lon="3.48884">
        <ele>93.84</ele>
        <time>2021-06-20T07:49:52.000Z</time>
      </trkpt>
      <trkpt lat="50.76301" lon="3.48875">
        <ele>93.8</ele>
        <time>2021-06-20T07:49:54.000Z</time>
      </trkpt>
      <trkpt lat="50.76296" lon="3.48864">
        <ele>94.93</ele>
        <time>2021-06-20T07:49:56.000Z</time>
      </trkpt>
      <trkpt lat="50.76293" lon="3.48859">
        <ele>94.04</ele>
        <time>2021-06-20T07:49:57.000Z</time>
      </trkpt>
      <trkpt lat="50.7629" lon="3.48853">
        <ele>93.97</ele>
        <time>2021-06-20T07:49:58.000Z</time>
      </trkpt>
      <trkpt lat="50.76287" lon="3.48847">
        <ele>93.89</ele>
        <time>2021-06-20T07:49:59.000Z</time>
      </trkpt>
      <trkpt lat="50.76284" lon="3.4884">
        <ele>93.95</ele>
        <time>2021-06-20T07:50:00.000Z</time>
      </trkpt>
      <trkpt lat="50.76275" lon="3.48828">
        <ele>92.78</ele>
        <time>2021-06-20T07:50:02.000Z</time>
      </trkpt>
      <trkpt lat="50.76271" lon="3.48823">
        <ele>92.66</ele>
        <time>2021-06-20T07:50:03.000Z</time>
      </trkpt>
      <trkpt lat="50.76266" lon="3.48818">
        <ele>92.99</ele>
        <time>2021-06-20T07:50:04.000Z</time>
      </trkpt>
      <trkpt lat="50.76261" lon="3.48813">
        <ele>93.33</ele>
        <time>2021-06-20T07:50:05.000Z</time>
      </trkpt>
      <trkpt lat="50.76258" lon="3.48808">
        <ele>93.04</ele>
        <time>2021-06-20T07:50:06.000Z</time>
      </trkpt>
      <trkpt lat="50.76253" lon="3.48805">
        <ele>93.62</ele>
        <time>2021-06-20T07:50:08.000Z</time>
      </trkpt>
      <trkpt lat="50.76247" lon="3.48809">
        <ele>94.28</ele>
        <time>2021-06-20T07:50:10.000Z</time>
      </trkpt>
      <trkpt lat="50.76244" lon="3.48817">
        <ele>95.9</ele>
        <time>2021-06-20T07:50:12.000Z</time>
      </trkpt>
      <trkpt lat="50.76239" lon="3.48822">
        <ele>96.46</ele>
        <time>2021-06-20T07:50:14.000Z</time>
      </trkpt>
      <trkpt lat="50.76233" lon="3.48828">
        <ele>97.74</ele>
        <time>2021-06-20T07:50:16.000Z</time>
      </trkpt>
      <trkpt lat="50.76228" lon="3.48834">
        <ele>99.48</ele>
        <time>2021-06-20T07:50:18.000Z</time>
      </trkpt>
      <trkpt lat="50.76223" lon="3.48842">
        <ele>98.16</ele>
        <time>2021-06-20T07:50:20.000Z</time>
      </trkpt>
      <trkpt lat="50.76217" lon="3.48848">
        <ele>98.74</ele>
        <time>2021-06-20T07:50:22.000Z</time>
      </trkpt>
      <trkpt lat="50.76212" lon="3.48854">
        <ele>99.35</ele>
        <time>2021-06-20T07:50:24.000Z</time>
      </trkpt>
      <trkpt lat="50.76205" lon="3.48862">
        <ele>100.57</ele>
        <time>2021-06-20T07:50:26.000Z</time>
      </trkpt>
      <trkpt lat="50.76201" lon="3.48874">
        <ele>102.08</ele>
        <time>2021-06-20T07:50:28.000Z</time>
      </trkpt>
      <trkpt lat="50.762" lon="3.48887">
        <ele>101.73</ele>
        <time>2021-06-20T07:50:30.000Z</time>
      </trkpt>
      <trkpt lat="50.76201" lon="3.48901">
        <ele>99.82</ele>
        <time>2021-06-20T07:50:32.000Z</time>
      </trkpt>
      <trkpt lat="50.76203" lon="3.48907">
        <ele>100.18</ele>
        <time>2021-06-20T07:50:33.000Z</time>
      </trkpt>
      <trkpt lat="50.76205" lon="3.48914">
        <ele>100.61</ele>
        <time>2021-06-20T07:50:34.000Z</time>
      </trkpt>
      <trkpt lat="50.76207" lon="3.48921">
        <ele>100.93</ele>
        <time>2021-06-20T07:50:35.000Z</time>
      </trkpt>
      <trkpt lat="50.76211" lon="3.48933">
        <ele>101.3</ele>
        <time>2021-06-20T07:50:37.000Z</time>
      </trkpt>
      <trkpt lat="50.76214" lon="3.4894">
        <ele>101.38</ele>
        <time>2021-06-20T07:50:38.000Z</time>
      </trkpt>
      <trkpt lat="50.76218" lon="3.48952">
        <ele>101.96</ele>
        <time>2021-06-20T07:50:40.000Z</time>
      </trkpt>
      <trkpt lat="50.7622" lon="3.48959">
        <ele>102.67</ele>
        <time>2021-06-20T07:50:41.000Z</time>
      </trkpt>
      <trkpt lat="50.76222" lon="3.48966">
        <ele>102.87</ele>
        <time>2021-06-20T07:50:42.000Z</time>
      </trkpt>
      <trkpt lat="50.76222" lon="3.48974">
        <ele>103.24</ele>
        <time>2021-06-20T07:50:43.000Z</time>
      </trkpt>
      <trkpt lat="50.76222" lon="3.48981">
        <ele>102.49</ele>
        <time>2021-06-20T07:50:44.000Z</time>
      </trkpt>
      <trkpt lat="50.76222" lon="3.48988">
        <ele>102.52</ele>
        <time>2021-06-20T07:50:45.000Z</time>
      </trkpt>
      <trkpt lat="50.76223" lon="3.48995">
        <ele>103.38</ele>
        <time>2021-06-20T07:50:46.000Z</time>
      </trkpt>
      <trkpt lat="50.76222" lon="3.49008">
        <ele>103.51</ele>
        <time>2021-06-20T07:50:48.000Z</time>
      </trkpt>
      <trkpt lat="50.76221" lon="3.49015">
        <ele>103.87</ele>
        <time>2021-06-20T07:50:49.000Z</time>
      </trkpt>
      <trkpt lat="50.7622" lon="3.49022">
        <ele>104.38</ele>
        <time>2021-06-20T07:50:50.000Z</time>
      </trkpt>
      <trkpt lat="50.76218" lon="3.49036">
        <ele>104.57</ele>
        <time>2021-06-20T07:50:52.000Z</time>
      </trkpt>
      <trkpt lat="50.76214" lon="3.49046">
        <ele>104.56</ele>
        <time>2021-06-20T07:50:54.000Z</time>
      </trkpt>
      <trkpt lat="50.76207" lon="3.49052">
        <ele>107.22</ele>
        <time>2021-06-20T07:50:56.000Z</time>
      </trkpt>
      <trkpt lat="50.76199" lon="3.49055">
        <ele>108.96</ele>
        <time>2021-06-20T07:50:58.000Z</time>
      </trkpt>
      <trkpt lat="50.76192" lon="3.49055">
        <ele>109.56</ele>
        <time>2021-06-20T07:51:00.000Z</time>
      </trkpt>
      <trkpt lat="50.76185" lon="3.49055">
        <ele>110.05</ele>
        <time>2021-06-20T07:51:02.000Z</time>
      </trkpt>
      <trkpt lat="50.76177" lon="3.49055">
        <ele>110.09</ele>
        <time>2021-06-20T07:51:04.000Z</time>
      </trkpt>
      <trkpt lat="50.7617" lon="3.49055">
        <ele>110.34</ele>
        <time>2021-06-20T07:51:06.000Z</time>
      </trkpt>
      <trkpt lat="50.76163" lon="3.49055">
        <ele>112.04</ele>
        <time>2021-06-20T07:51:08.000Z</time>
      </trkpt>
      <trkpt lat="50.76157" lon="3.49054">
        <ele>113.01</ele>
        <time>2021-06-20T07:51:10.000Z</time>
      </trkpt>
      <trkpt lat="50.7615" lon="3.49053">
        <ele>115.11</ele>
        <time>2021-06-20T07:51:12.000Z</time>
      </trkpt>
      <trkpt lat="50.76142" lon="3.49052">
        <ele>116.13</ele>
        <time>2021-06-20T07:51:14.000Z</time>
      </trkpt>
      <trkpt lat="50.76135" lon="3.49052">
        <ele>117.34</ele>
        <time>2021-06-20T07:51:16.000Z</time>
      </trkpt>
      <trkpt lat="50.76128" lon="3.49053">
        <ele>118.43</ele>
        <time>2021-06-20T07:51:18.000Z</time>
      </trkpt>
      <trkpt lat="50.76122" lon="3.49053">
        <ele>118.16</ele>
        <time>2021-06-20T07:51:20.000Z</time>
      </trkpt>
      <trkpt lat="50.76116" lon="3.49054">
        <ele>116.91</ele>
        <time>2021-06-20T07:51:22.000Z</time>
      </trkpt>
      <trkpt lat="50.76109" lon="3.49056">
        <ele>117.6</ele>
        <time>2021-06-20T07:51:24.000Z</time>
      </trkpt>
      <trkpt lat="50.76104" lon="3.49052">
        <ele>117.7</ele>
        <time>2021-06-20T07:51:26.000Z</time>
      </trkpt>
      <trkpt lat="50.761" lon="3.49043">
        <ele>117.5</ele>
        <time>2021-06-20T07:51:28.000Z</time>
      </trkpt>
      <trkpt lat="50.76096" lon="3.49034">
        <ele>117.44</ele>
        <time>2021-06-20T07:51:30.000Z</time>
      </trkpt>
      <trkpt lat="50.76094" lon="3.49023">
        <ele>116.88</ele>
        <time>2021-06-20T07:51:32.000Z</time>
      </trkpt>
      <trkpt lat="50.76093" lon="3.49013">
        <ele>117.75</ele>
        <time>2021-06-20T07:51:34.000Z</time>
      </trkpt>
      <trkpt lat="50.76089" lon="3.49">
        <ele>119.1</ele>
        <time>2021-06-20T07:51:36.000Z</time>
      </trkpt>
      <trkpt lat="50.76084" lon="3.4899">
        <ele>121.85</ele>
        <time>2021-06-20T07:51:38.000Z</time>
      </trkpt>
      <trkpt lat="50.7608" lon="3.48986">
        <ele>122.64</ele>
        <time>2021-06-20T07:51:39.000Z</time>
      </trkpt>
      <trkpt lat="50.76076" lon="3.48982">
        <ele>123.4</ele>
        <time>2021-06-20T07:51:40.000Z</time>
      </trkpt>
      <trkpt lat="50.76068" lon="3.48975">
        <ele>124.01</ele>
        <time>2021-06-20T07:51:42.000Z</time>
      </trkpt>
      <trkpt lat="50.76061" lon="3.48969">
        <ele>124.16</ele>
        <time>2021-06-20T07:51:44.000Z</time>
      </trkpt>
      <trkpt lat="50.76053" lon="3.48963">
        <ele>126.08</ele>
        <time>2021-06-20T07:51:46.000Z</time>
      </trkpt>
      <trkpt lat="50.76045" lon="3.48956">
        <ele>127.73</ele>
        <time>2021-06-20T07:51:48.000Z</time>
      </trkpt>
      <trkpt lat="50.76038" lon="3.48948">
        <ele>129.02</ele>
        <time>2021-06-20T07:51:50.000Z</time>
      </trkpt>
      <trkpt lat="50.76034" lon="3.48938">
        <ele>129.33</ele>
        <time>2021-06-20T07:51:52.000Z</time>
      </trkpt>
      <trkpt lat="50.76032" lon="3.48927">
        <ele>130.08</ele>
        <time>2021-06-20T07:51:54.000Z</time>
      </trkpt>
      <trkpt lat="50.76029" lon="3.48911">
        <ele>131.63</ele>
        <time>2021-06-20T07:51:56.000Z</time>
      </trkpt>
      <trkpt lat="50.76026" lon="3.48904">
        <ele>132.59</ele>
        <time>2021-06-20T07:51:57.000Z</time>
      </trkpt>
      <trkpt lat="50.76024" lon="3.4889">
        <ele>126.53</ele>
        <time>2021-06-20T07:51:59.000Z</time>
      </trkpt>
      <trkpt lat="50.76022" lon="3.48883">
        <ele>128.94</ele>
        <time>2021-06-20T07:52:00.000Z</time>
      </trkpt>
      <trkpt lat="50.76019" lon="3.48877">
        <ele>131.36</ele>
        <time>2021-06-20T07:52:01.000Z</time>
      </trkpt>
      <trkpt lat="50.76016" lon="3.48864">
        <ele>133.13</ele>
        <time>2021-06-20T07:52:03.000Z</time>
      </trkpt>
      <trkpt lat="50.76013" lon="3.48857">
        <ele>133.79</ele>
        <time>2021-06-20T07:52:04.000Z</time>
      </trkpt>
      <trkpt lat="50.76012" lon="3.4885">
        <ele>134.36</ele>
        <time>2021-06-20T07:52:05.000Z</time>
      </trkpt>
      <trkpt lat="50.7601" lon="3.48843">
        <ele>134.85</ele>
        <time>2021-06-20T07:52:06.000Z</time>
      </trkpt>
      <trkpt lat="50.76008" lon="3.48836">
        <ele>135.55</ele>
        <time>2021-06-20T07:52:07.000Z</time>
      </trkpt>
      <trkpt lat="50.76007" lon="3.48823">
        <ele>130.9</ele>
        <time>2021-06-20T07:52:09.000Z</time>
      </trkpt>
      <trkpt lat="50.76005" lon="3.48812">
        <ele>134.6</ele>
        <time>2021-06-20T07:52:11.000Z</time>
      </trkpt>
      <trkpt lat="50.76004" lon="3.488">
        <ele>136.28</ele>
        <time>2021-06-20T07:52:13.000Z</time>
      </trkpt>
      <trkpt lat="50.76003" lon="3.48787">
        <ele>136.6</ele>
        <time>2021-06-20T07:52:15.000Z</time>
      </trkpt>
      <trkpt lat="50.76002" lon="3.4878">
        <ele>136.99</ele>
        <time>2021-06-20T07:52:16.000Z</time>
      </trkpt>
      <trkpt lat="50.76001" lon="3.48766">
        <ele>137.64</ele>
        <time>2021-06-20T07:52:18.000Z</time>
      </trkpt>
      <trkpt lat="50.76" lon="3.48757">
        <ele>138.43</ele>
        <time>2021-06-20T07:52:19.000Z</time>
      </trkpt>
      <trkpt lat="50.76" lon="3.48749">
        <ele>139.18</ele>
        <time>2021-06-20T07:52:20.000Z</time>
      </trkpt>
      <trkpt lat="50.76" lon="3.48742">
        <ele>138.83</ele>
        <time>2021-06-20T07:52:21.000Z</time>
      </trkpt>
      <trkpt lat="50.76001" lon="3.48733">
        <ele>139.8</ele>
        <time>2021-06-20T07:52:22.000Z</time>
      </trkpt>
      <trkpt lat="50.76002" lon="3.48725">
        <ele>138.39</ele>
        <time>2021-06-20T07:52:23.000Z</time>
      </trkpt>
      <trkpt lat="50.76002" lon="3.48717">
        <ele>137.91</ele>
        <time>2021-06-20T07:52:24.000Z</time>
      </trkpt>
      <trkpt lat="50.76003" lon="3.48707">
        <ele>137.24</ele>
        <time>2021-06-20T07:52:25.000Z</time>
      </trkpt>
      <trkpt lat="50.76004" lon="3.48697">
        <ele>135.79</ele>
        <time>2021-06-20T07:52:26.000Z</time>
      </trkpt>
      <trkpt lat="50.76005" lon="3.48688">
        <ele>135.84</ele>
        <time>2021-06-20T07:52:27.000Z</time>
      </trkpt>
      <trkpt lat="50.76006" lon="3.48678">
        <ele>134.7</ele>
        <time>2021-06-20T07:52:28.000Z</time>
      </trkpt>
      <trkpt lat="50.76006" lon="3.48638">
        <ele>132.42</ele>
        <time>2021-06-20T07:52:32.000Z</time>
      </trkpt>
      <trkpt lat="50.76005" lon="3.48625">
        <ele>132.04</ele>
        <time>2021-06-20T07:52:34.000Z</time>
      </trkpt>
      <trkpt lat="50.75997" lon="3.48614">
        <ele>132.94</ele>
        <time>2021-06-20T07:52:36.000Z</time>
      </trkpt>
      <trkpt lat="50.75983" lon="3.486">
        <ele>134.01</ele>
        <time>2021-06-20T07:52:39.000Z</time>
      </trkpt>
      <trkpt lat="50.75964" lon="3.48582">
        <ele>136.57</ele>
        <time>2021-06-20T07:52:43.000Z</time>
      </trkpt>
      <trkpt lat="50.75959" lon="3.48578">
        <ele>135.16</ele>
        <time>2021-06-20T07:52:44.000Z</time>
      </trkpt>
      <trkpt lat="50.75953" lon="3.48574">
        <ele>135.74</ele>
        <time>2021-06-20T07:52:46.000Z</time>
      </trkpt>
      <trkpt lat="50.75947" lon="3.48568">
        <ele>133.55</ele>
        <time>2021-06-20T07:52:48.000Z</time>
      </trkpt>
      <trkpt lat="50.7594" lon="3.48564">
        <ele>135.05</ele>
        <time>2021-06-20T07:52:50.000Z</time>
      </trkpt>
      <trkpt lat="50.75933" lon="3.48558">
        <ele>133.15</ele>
        <time>2021-06-20T07:52:52.000Z</time>
      </trkpt>
      <trkpt lat="50.75927" lon="3.48552">
        <ele>133.94</ele>
        <time>2021-06-20T07:52:54.000Z</time>
      </trkpt>
      <trkpt lat="50.75921" lon="3.48546">
        <ele>134.48</ele>
        <time>2021-06-20T07:52:56.000Z</time>
      </trkpt>
      <trkpt lat="50.75916" lon="3.4854">
        <ele>135.05</ele>
        <time>2021-06-20T07:52:58.000Z</time>
      </trkpt>
      <trkpt lat="50.75912" lon="3.48535">
        <ele>136.06</ele>
        <time>2021-06-20T07:53:00.000Z</time>
      </trkpt>
      <trkpt lat="50.75907" lon="3.4853">
        <ele>136.99</ele>
        <time>2021-06-20T07:53:02.000Z</time>
      </trkpt>
      <trkpt lat="50.75901" lon="3.48524">
        <ele>137.98</ele>
        <time>2021-06-20T07:53:04.000Z</time>
      </trkpt>
      <trkpt lat="50.75898" lon="3.48516">
        <ele>138.42</ele>
        <time>2021-06-20T07:53:06.000Z</time>
      </trkpt>
      <trkpt lat="50.75895" lon="3.4851">
        <ele>138.96</ele>
        <time>2021-06-20T07:53:08.000Z</time>
      </trkpt>
      <trkpt lat="50.75895" lon="3.4851">
        <ele>138.96</ele>
        <time>2021-06-20T07:53:08.001Z</time>
      </trkpt>
      <trkpt lat="50.75893" lon="3.48517">
        <ele>139.06</ele>
        <time>2021-06-20T07:53:29.000Z</time>
      </trkpt>
      <trkpt lat="50.75894" lon="3.48525">
        <ele>139.2</ele>
        <time>2021-06-20T07:53:31.000Z</time>
      </trkpt>
      <trkpt lat="50.75893" lon="3.48533">
        <ele>138.48</ele>
        <time>2021-06-20T07:53:33.000Z</time>
      </trkpt>
      <trkpt lat="50.75891" lon="3.48543">
        <ele>139.19</ele>
        <time>2021-06-20T07:53:35.000Z</time>
      </trkpt>
      <trkpt lat="50.7589" lon="3.48556">
        <ele>138.45</ele>
        <time>2021-06-20T07:53:37.000Z</time>
      </trkpt>
      <trkpt lat="50.75889" lon="3.48568">
        <ele>138.54</ele>
        <time>2021-06-20T07:53:39.000Z</time>
      </trkpt>
      <trkpt lat="50.75888" lon="3.48576">
        <ele>139.04</ele>
        <time>2021-06-20T07:53:40.000Z</time>
      </trkpt>
      <trkpt lat="50.75888" lon="3.48585">
        <ele>139.76</ele>
        <time>2021-06-20T07:53:41.000Z</time>
      </trkpt>
      <trkpt lat="50.75886" lon="3.48593">
        <ele>141.24</ele>
        <time>2021-06-20T07:53:42.000Z</time>
      </trkpt>
      <trkpt lat="50.75886" lon="3.486">
        <ele>141.9</ele>
        <time>2021-06-20T07:53:43.000Z</time>
      </trkpt>
      <trkpt lat="50.75884" lon="3.48613">
        <ele>144.1</ele>
        <time>2021-06-20T07:53:45.000Z</time>
      </trkpt>
      <trkpt lat="50.75883" lon="3.48621">
        <ele>144.29</ele>
        <time>2021-06-20T07:53:46.000Z</time>
      </trkpt>
      <trkpt lat="50.75881" lon="3.48634">
        <ele>144.52</ele>
        <time>2021-06-20T07:53:48.000Z</time>
      </trkpt>
      <trkpt lat="50.75881" lon="3.48641">
        <ele>144.8</ele>
        <time>2021-06-20T07:53:49.000Z</time>
      </trkpt>
      <trkpt lat="50.7588" lon="3.4865">
        <ele>145.34</ele>
        <time>2021-06-20T07:53:50.000Z</time>
      </trkpt>
      <trkpt lat="50.7588" lon="3.48657">
        <ele>145.63</ele>
        <time>2021-06-20T07:53:51.000Z</time>
      </trkpt>
      <trkpt lat="50.75879" lon="3.4867">
        <ele>147.3</ele>
        <time>2021-06-20T07:53:53.000Z</time>
      </trkpt>
      <trkpt lat="50.75878" lon="3.48677">
        <ele>147.64</ele>
        <time>2021-06-20T07:53:54.000Z</time>
      </trkpt>
      <trkpt lat="50.75877" lon="3.4869">
        <ele>147.02</ele>
        <time>2021-06-20T07:53:56.000Z</time>
      </trkpt>
      <trkpt lat="50.75875" lon="3.48703">
        <ele>147.56</ele>
        <time>2021-06-20T07:53:58.000Z</time>
      </trkpt>
      <trkpt lat="50.75874" lon="3.48717">
        <ele>147.64</ele>
        <time>2021-06-20T07:54:00.000Z</time>
      </trkpt>
      <trkpt lat="50.75873" lon="3.48731">
        <ele>147.62</ele>
        <time>2021-06-20T07:54:02.000Z</time>
      </trkpt>
      <trkpt lat="50.75872" lon="3.48744">
        <ele>148.4</ele>
        <time>2021-06-20T07:54:04.000Z</time>
      </trkpt>
      <trkpt lat="50.7587" lon="3.48755">
        <ele>145.07</ele>
        <time>2021-06-20T07:54:06.000Z</time>
      </trkpt>
      <trkpt lat="50.75869" lon="3.48767">
        <ele>144.73</ele>
        <time>2021-06-20T07:54:08.000Z</time>
      </trkpt>
      <trkpt lat="50.75867" lon="3.48781">
        <ele>146.36</ele>
        <time>2021-06-20T07:54:10.000Z</time>
      </trkpt>
      <trkpt lat="50.75866" lon="3.48794">
        <ele>148.27</ele>
        <time>2021-06-20T07:54:12.000Z</time>
      </trkpt>
      <trkpt lat="50.75866" lon="3.48807">
        <ele>148.22</ele>
        <time>2021-06-20T07:54:14.000Z</time>
      </trkpt>
      <trkpt lat="50.75864" lon="3.48818">
        <ele>148.41</ele>
        <time>2021-06-20T07:54:16.000Z</time>
      </trkpt>
      <trkpt lat="50.75859" lon="3.48825">
        <ele>147.95</ele>
        <time>2021-06-20T07:54:18.000Z</time>
      </trkpt>
      <trkpt lat="50.75851" lon="3.48829">
        <ele>149.04</ele>
        <time>2021-06-20T07:54:20.000Z</time>
      </trkpt>
      <trkpt lat="50.75845" lon="3.48832">
        <ele>149.65</ele>
        <time>2021-06-20T07:54:22.000Z</time>
      </trkpt>
      <trkpt lat="50.75839" lon="3.48837">
        <ele>151.94</ele>
        <time>2021-06-20T07:54:24.000Z</time>
      </trkpt>
      <trkpt lat="50.75834" lon="3.48842">
        <ele>152.76</ele>
        <time>2021-06-20T07:54:26.000Z</time>
      </trkpt>
      <trkpt lat="50.75829" lon="3.48848">
        <ele>153.91</ele>
        <time>2021-06-20T07:54:28.000Z</time>
      </trkpt>
      <trkpt lat="50.75824" lon="3.48854">
        <ele>151.88</ele>
        <time>2021-06-20T07:54:30.000Z</time>
      </trkpt>
      <trkpt lat="50.75817" lon="3.48861">
        <ele>153.35</ele>
        <time>2021-06-20T07:54:32.000Z</time>
      </trkpt>
      <trkpt lat="50.75809" lon="3.48867">
        <ele>155.87</ele>
        <time>2021-06-20T07:54:34.000Z</time>
      </trkpt>
      <trkpt lat="50.75802" lon="3.48872">
        <ele>157.38</ele>
        <time>2021-06-20T07:54:36.000Z</time>
      </trkpt>
      <trkpt lat="50.75794" lon="3.48876">
        <ele>157.24</ele>
        <time>2021-06-20T07:54:38.000Z</time>
      </trkpt>
      <trkpt lat="50.75785" lon="3.48879">
        <ele>156.87</ele>
        <time>2021-06-20T07:54:40.000Z</time>
      </trkpt>
      <trkpt lat="50.75777" lon="3.4888">
        <ele>155.91</ele>
        <time>2021-06-20T07:54:42.000Z</time>
      </trkpt>
      <trkpt lat="50.75772" lon="3.48881">
        <ele>156.62</ele>
        <time>2021-06-20T07:54:43.000Z</time>
      </trkpt>
      <trkpt lat="50.75763" lon="3.48885">
        <ele>157.44</ele>
        <time>2021-06-20T07:54:45.000Z</time>
      </trkpt>
      <trkpt lat="50.75759" lon="3.48888">
        <ele>158.07</ele>
        <time>2021-06-20T07:54:46.000Z</time>
      </trkpt>
      <trkpt lat="50.75755" lon="3.48891">
        <ele>158.61</ele>
        <time>2021-06-20T07:54:47.000Z</time>
      </trkpt>
      <trkpt lat="50.75749" lon="3.48896">
        <ele>159.18</ele>
        <time>2021-06-20T07:54:48.000Z</time>
      </trkpt>
      <trkpt lat="50.75742" lon="3.48905">
        <ele>158.99</ele>
        <time>2021-06-20T07:54:50.000Z</time>
      </trkpt>
      <trkpt lat="50.75739" lon="3.48912">
        <ele>159.39</ele>
        <time>2021-06-20T07:54:51.000Z</time>
      </trkpt>
      <trkpt lat="50.75736" lon="3.48918">
        <ele>159.54</ele>
        <time>2021-06-20T07:54:52.000Z</time>
      </trkpt>
      <trkpt lat="50.7573" lon="3.48928">
        <ele>159.9</ele>
        <time>2021-06-20T07:54:54.000Z</time>
      </trkpt>
      <trkpt lat="50.75727" lon="3.48935">
        <ele>160.12</ele>
        <time>2021-06-20T07:54:55.000Z</time>
      </trkpt>
      <trkpt lat="50.75724" lon="3.48946">
        <ele>160.46</ele>
        <time>2021-06-20T07:54:57.000Z</time>
      </trkpt>
      <trkpt lat="50.75722" lon="3.48953">
        <ele>159.84</ele>
        <time>2021-06-20T07:54:58.000Z</time>
      </trkpt>
      <trkpt lat="50.75721" lon="3.4896">
        <ele>159.51</ele>
        <time>2021-06-20T07:54:59.000Z</time>
      </trkpt>
      <trkpt lat="50.75718" lon="3.48967">
        <ele>159.03</ele>
        <time>2021-06-20T07:55:00.000Z</time>
      </trkpt>
      <trkpt lat="50.75717" lon="3.48974">
        <ele>159.06</ele>
        <time>2021-06-20T07:55:01.000Z</time>
      </trkpt>
      <trkpt lat="50.75716" lon="3.48988">
        <ele>159.82</ele>
        <time>2021-06-20T07:55:03.000Z</time>
      </trkpt>
      <trkpt lat="50.75715" lon="3.48996">
        <ele>160.8</ele>
        <time>2021-06-20T07:55:04.000Z</time>
      </trkpt>
      <trkpt lat="50.75714" lon="3.49004">
        <ele>161.04</ele>
        <time>2021-06-20T07:55:05.000Z</time>
      </trkpt>
      <trkpt lat="50.75714" lon="3.49017">
        <ele>161.07</ele>
        <time>2021-06-20T07:55:07.000Z</time>
      </trkpt>
      <trkpt lat="50.75713" lon="3.49025">
        <ele>165</ele>
        <time>2021-06-20T07:55:08.000Z</time>
      </trkpt>
      <trkpt lat="50.75712" lon="3.49037">
        <ele>165.3</ele>
        <time>2021-06-20T07:55:10.000Z</time>
      </trkpt>
      <trkpt lat="50.75714" lon="3.49049">
        <ele>166.2</ele>
        <time>2021-06-20T07:55:12.000Z</time>
      </trkpt>
      <trkpt lat="50.75717" lon="3.49057">
        <ele>167.24</ele>
        <time>2021-06-20T07:55:14.000Z</time>
      </trkpt>
      <trkpt lat="50.75721" lon="3.49066">
        <ele>168.73</ele>
        <time>2021-06-20T07:55:16.000Z</time>
      </trkpt>
      <trkpt lat="50.75726" lon="3.49074">
        <ele>170.19</ele>
        <time>2021-06-20T07:55:18.000Z</time>
      </trkpt>
      <trkpt lat="50.75731" lon="3.49083">
        <ele>170.6</ele>
        <time>2021-06-20T07:55:20.000Z</time>
      </trkpt>
      <trkpt lat="50.75736" lon="3.49093">
        <ele>170.85</ele>
        <time>2021-06-20T07:55:22.000Z</time>
      </trkpt>
      <trkpt lat="50.75739" lon="3.49104">
        <ele>170.92</ele>
        <time>2021-06-20T07:55:24.000Z</time>
      </trkpt>
      <trkpt lat="50.75742" lon="3.49114">
        <ele>171.76</ele>
        <time>2021-06-20T07:55:26.000Z</time>
      </trkpt>
      <trkpt lat="50.75745" lon="3.49124">
        <ele>172.61</ele>
        <time>2021-06-20T07:55:28.000Z</time>
      </trkpt>
      <trkpt lat="50.75747" lon="3.49134">
        <ele>173.75</ele>
        <time>2021-06-20T07:55:30.000Z</time>
      </trkpt>
      <trkpt lat="50.75749" lon="3.49142">
        <ele>175.5</ele>
        <time>2021-06-20T07:55:32.000Z</time>
      </trkpt>
      <trkpt lat="50.75752" lon="3.49154">
        <ele>178.46</ele>
        <time>2021-06-20T07:55:34.000Z</time>
      </trkpt>
      <trkpt lat="50.75755" lon="3.49165">
        <ele>179.6</ele>
        <time>2021-06-20T07:55:36.000Z</time>
      </trkpt>
      <trkpt lat="50.75758" lon="3.49176">
        <ele>178.71</ele>
        <time>2021-06-20T07:55:38.000Z</time>
      </trkpt>
      <trkpt lat="50.75761" lon="3.49185">
        <ele>178.96</ele>
        <time>2021-06-20T07:55:40.000Z</time>
      </trkpt>
      <trkpt lat="50.75764" lon="3.49193">
        <ele>153.73</ele>
        <time>2021-06-20T07:55:42.000Z</time>
      </trkpt>
      <trkpt lat="50.75769" lon="3.49189">
        <ele>171.44</ele>
        <time>2021-06-20T07:55:45.000Z</time>
      </trkpt>
      <trkpt lat="50.75772" lon="3.49183">
        <ele>173.81</ele>
        <time>2021-06-20T07:55:47.000Z</time>
      </trkpt>
      <trkpt lat="50.75775" lon="3.49175">
        <ele>176.9</ele>
        <time>2021-06-20T07:55:50.000Z</time>
      </trkpt>
      <trkpt lat="50.75772" lon="3.49182">
        <ele>173.1</ele>
        <time>2021-06-20T07:56:00.000Z</time>
      </trkpt>
      <trkpt lat="50.75772" lon="3.49192">
        <ele>176.68</ele>
        <time>2021-06-20T07:56:04.000Z</time>
      </trkpt>
      <trkpt lat="50.75772" lon="3.49201">
        <ele>178.89</ele>
        <time>2021-06-20T07:56:06.000Z</time>
      </trkpt>
      <trkpt lat="50.75772" lon="3.49212">
        <ele>180.03</ele>
        <time>2021-06-20T07:56:08.000Z</time>
      </trkpt>
      <trkpt lat="50.75771" lon="3.49225">
        <ele>181.27</ele>
        <time>2021-06-20T07:56:10.000Z</time>
      </trkpt>
      <trkpt lat="50.7577" lon="3.49232">
        <ele>182.4</ele>
        <time>2021-06-20T07:56:11.000Z</time>
      </trkpt>
      <trkpt lat="50.75769" lon="3.4924">
        <ele>158.26</ele>
        <time>2021-06-20T07:56:12.000Z</time>
      </trkpt>
      <trkpt lat="50.75768" lon="3.49247">
        <ele>158.43</ele>
        <time>2021-06-20T07:56:13.000Z</time>
      </trkpt>
      <trkpt lat="50.75766" lon="3.49254">
        <ele>168.12</ele>
        <time>2021-06-20T07:56:14.000Z</time>
      </trkpt>
      <trkpt lat="50.75765" lon="3.49267">
        <ele>179.99</ele>
        <time>2021-06-20T07:56:16.000Z</time>
      </trkpt>
      <trkpt lat="50.75764" lon="3.4928">
        <ele>177.12</ele>
        <time>2021-06-20T07:56:18.000Z</time>
      </trkpt>
      <trkpt lat="50.75763" lon="3.49293">
        <ele>174.68</ele>
        <time>2021-06-20T07:56:20.000Z</time>
      </trkpt>
      <trkpt lat="50.75762" lon="3.49303">
        <ele>176.54</ele>
        <time>2021-06-20T07:56:22.000Z</time>
      </trkpt>
      <trkpt lat="50.75762" lon="3.49316">
        <ele>182.84</ele>
        <time>2021-06-20T07:56:24.000Z</time>
      </trkpt>
      <trkpt lat="50.75762" lon="3.49324">
        <ele>184.09</ele>
        <time>2021-06-20T07:56:25.000Z</time>
      </trkpt>
      <trkpt lat="50.75763" lon="3.49331">
        <ele>184.84</ele>
        <time>2021-06-20T07:56:26.000Z</time>
      </trkpt>
      <trkpt lat="50.75764" lon="3.4934">
        <ele>185.7</ele>
        <time>2021-06-20T07:56:27.000Z</time>
      </trkpt>
      <trkpt lat="50.75765" lon="3.49348">
        <ele>176.31</ele>
        <time>2021-06-20T07:56:28.000Z</time>
      </trkpt>
      <trkpt lat="50.75765" lon="3.49355">
        <ele>180.2</ele>
        <time>2021-06-20T07:56:29.000Z</time>
      </trkpt>
      <trkpt lat="50.75766" lon="3.49369">
        <ele>183.18</ele>
        <time>2021-06-20T07:56:31.000Z</time>
      </trkpt>
      <trkpt lat="50.75766" lon="3.49376">
        <ele>183.49</ele>
        <time>2021-06-20T07:56:32.000Z</time>
      </trkpt>
      <trkpt lat="50.75766" lon="3.49386">
        <ele>184.27</ele>
        <time>2021-06-20T07:56:33.000Z</time>
      </trkpt>
      <trkpt lat="50.75767" lon="3.49395">
        <ele>180.23</ele>
        <time>2021-06-20T07:56:34.000Z</time>
      </trkpt>
      <trkpt lat="50.75766" lon="3.49407">
        <ele>182.84</ele>
        <time>2021-06-20T07:56:35.000Z</time>
      </trkpt>
      <trkpt lat="50.75767" lon="3.49416">
        <ele>184.69</ele>
        <time>2021-06-20T07:56:36.000Z</time>
      </trkpt>
      <trkpt lat="50.75767" lon="3.49426">
        <ele>185.46</ele>
        <time>2021-06-20T07:56:37.000Z</time>
      </trkpt>
      <trkpt lat="50.75768" lon="3.49435">
        <ele>186.5</ele>
        <time>2021-06-20T07:56:38.000Z</time>
      </trkpt>
      <trkpt lat="50.75768" lon="3.49446">
        <ele>187.5</ele>
        <time>2021-06-20T07:56:39.000Z</time>
      </trkpt>
      <trkpt lat="50.75767" lon="3.49456">
        <ele>185.81</ele>
        <time>2021-06-20T07:56:40.000Z</time>
      </trkpt>
      <trkpt lat="50.75767" lon="3.49467">
        <ele>186.75</ele>
        <time>2021-06-20T07:56:41.000Z</time>
      </trkpt>
      <trkpt lat="50.75767" lon="3.49478">
        <ele>185.84</ele>
        <time>2021-06-20T07:56:42.000Z</time>
      </trkpt>
      <trkpt lat="50.75766" lon="3.49492">
        <ele>185.99</ele>
        <time>2021-06-20T07:56:43.000Z</time>
      </trkpt>
      <trkpt lat="50.75767" lon="3.49502">
        <ele>186.64</ele>
        <time>2021-06-20T07:56:44.000Z</time>
      </trkpt>
      <trkpt lat="50.75767" lon="3.49511">
        <ele>187.37</ele>
        <time>2021-06-20T07:56:45.000Z</time>
      </trkpt>
      <trkpt lat="50.75768" lon="3.49537">
        <ele>187.1</ele>
        <time>2021-06-20T07:56:47.000Z</time>
      </trkpt>
      <trkpt lat="50.75769" lon="3.49549">
        <ele>185.7</ele>
        <time>2021-06-20T07:56:48.000Z</time>
      </trkpt>
      <trkpt lat="50.75769" lon="3.49562">
        <ele>185.16</ele>
        <time>2021-06-20T07:56:49.000Z</time>
      </trkpt>
      <trkpt lat="50.75769" lon="3.49576">
        <ele>184.84</ele>
        <time>2021-06-20T07:56:50.000Z</time>
      </trkpt>
      <trkpt lat="50.75769" lon="3.49591">
        <ele>184.59</ele>
        <time>2021-06-20T07:56:51.000Z</time>
      </trkpt>
      <trkpt lat="50.75767" lon="3.49605">
        <ele>183.53</ele>
        <time>2021-06-20T07:56:52.000Z</time>
      </trkpt>
      <trkpt lat="50.75766" lon="3.49619">
        <ele>182.71</ele>
        <time>2021-06-20T07:56:53.000Z</time>
      </trkpt>
      <trkpt lat="50.75765" lon="3.49634">
        <ele>181.8</ele>
        <time>2021-06-20T07:56:54.000Z</time>
      </trkpt>
      <trkpt lat="50.75763" lon="3.49649">
        <ele>181.2</ele>
        <time>2021-06-20T07:56:55.000Z</time>
      </trkpt>
      <trkpt lat="50.75763" lon="3.49661">
        <ele>180.55</ele>
        <time>2021-06-20T07:56:56.000Z</time>
      </trkpt>
      <trkpt lat="50.75764" lon="3.49675">
        <ele>179.82</ele>
        <time>2021-06-20T07:56:57.000Z</time>
      </trkpt>
      <trkpt lat="50.75764" lon="3.49687">
        <ele>179.85</ele>
        <time>2021-06-20T07:56:58.000Z</time>
      </trkpt>
      <trkpt lat="50.75766" lon="3.49698">
        <ele>179.76</ele>
        <time>2021-06-20T07:56:59.000Z</time>
      </trkpt>
      <trkpt lat="50.75768" lon="3.49708">
        <ele>179.8</ele>
        <time>2021-06-20T07:57:00.000Z</time>
      </trkpt>
      <trkpt lat="50.75771" lon="3.49718">
        <ele>179.41</ele>
        <time>2021-06-20T07:57:01.000Z</time>
      </trkpt>
      <trkpt lat="50.75773" lon="3.4973">
        <ele>180.16</ele>
        <time>2021-06-20T07:57:02.000Z</time>
      </trkpt>
      <trkpt lat="50.75777" lon="3.49742">
        <ele>179.75</ele>
        <time>2021-06-20T07:57:03.000Z</time>
      </trkpt>
      <trkpt lat="50.7578" lon="3.49753">
        <ele>179.63</ele>
        <time>2021-06-20T07:57:04.000Z</time>
      </trkpt>
      <trkpt lat="50.75783" lon="3.49765">
        <ele>180.04</ele>
        <time>2021-06-20T07:57:05.000Z</time>
      </trkpt>
      <trkpt lat="50.75787" lon="3.49777">
        <ele>180.03</ele>
        <time>2021-06-20T07:57:06.000Z</time>
      </trkpt>
      <trkpt lat="50.7579" lon="3.49787">
        <ele>179.95</ele>
        <time>2021-06-20T07:57:07.000Z</time>
      </trkpt>
      <trkpt lat="50.75793" lon="3.498">
        <ele>179.56</ele>
        <time>2021-06-20T07:57:08.000Z</time>
      </trkpt>
      <trkpt lat="50.75793" lon="3.49814">
        <ele>178.28</ele>
        <time>2021-06-20T07:57:09.000Z</time>
      </trkpt>
      <trkpt lat="50.75797" lon="3.49827">
        <ele>178.4</ele>
        <time>2021-06-20T07:57:10.000Z</time>
      </trkpt>
      <trkpt lat="50.75799" lon="3.49843">
        <ele>177.02</ele>
        <time>2021-06-20T07:57:11.000Z</time>
      </trkpt>
      <trkpt lat="50.75804" lon="3.49856">
        <ele>176.18</ele>
        <time>2021-06-20T07:57:12.000Z</time>
      </trkpt>
      <trkpt lat="50.75809" lon="3.49869">
        <ele>175.65</ele>
        <time>2021-06-20T07:57:13.000Z</time>
      </trkpt>
      <trkpt lat="50.75814" lon="3.49884">
        <ele>176.37</ele>
        <time>2021-06-20T07:57:14.000Z</time>
      </trkpt>
      <trkpt lat="50.7582" lon="3.49896">
        <ele>177.01</ele>
        <time>2021-06-20T07:57:15.000Z</time>
      </trkpt>
      <trkpt lat="50.75824" lon="3.49908">
        <ele>176.91</ele>
        <time>2021-06-20T07:57:16.000Z</time>
      </trkpt>
      <trkpt lat="50.75833" lon="3.49919">
        <ele>176.02</ele>
        <time>2021-06-20T07:57:17.000Z</time>
      </trkpt>
      <trkpt lat="50.7584" lon="3.49931">
        <ele>175.91</ele>
        <time>2021-06-20T07:57:18.000Z</time>
      </trkpt>
      <trkpt lat="50.75849" lon="3.49943">
        <ele>177.55</ele>
        <time>2021-06-20T07:57:19.000Z</time>
      </trkpt>
      <trkpt lat="50.75854" lon="3.49954">
        <ele>174.61</ele>
        <time>2021-06-20T07:57:20.000Z</time>
      </trkpt>
      <trkpt lat="50.75861" lon="3.49966">
        <ele>174.36</ele>
        <time>2021-06-20T07:57:21.000Z</time>
      </trkpt>
      <trkpt lat="50.75867" lon="3.49978">
        <ele>173.44</ele>
        <time>2021-06-20T07:57:22.000Z</time>
      </trkpt>
      <trkpt lat="50.75873" lon="3.49993">
        <ele>173.96</ele>
        <time>2021-06-20T07:57:23.000Z</time>
      </trkpt>
      <trkpt lat="50.75878" lon="3.50006">
        <ele>174.4</ele>
        <time>2021-06-20T07:57:24.000Z</time>
      </trkpt>
      <trkpt lat="50.75883" lon="3.50018">
        <ele>165.49</ele>
        <time>2021-06-20T07:57:25.000Z</time>
      </trkpt>
      <trkpt lat="50.75887" lon="3.5003">
        <ele>168.38</ele>
        <time>2021-06-20T07:57:26.000Z</time>
      </trkpt>
      <trkpt lat="50.75891" lon="3.50045">
        <ele>169.97</ele>
        <time>2021-06-20T07:57:27.000Z</time>
      </trkpt>
      <trkpt lat="50.7589" lon="3.5006">
        <ele>170.02</ele>
        <time>2021-06-20T07:57:28.000Z</time>
      </trkpt>
      <trkpt lat="50.75892" lon="3.50075">
        <ele>165.8</ele>
        <time>2021-06-20T07:57:29.000Z</time>
      </trkpt>
      <trkpt lat="50.75894" lon="3.50089">
        <ele>167.54</ele>
        <time>2021-06-20T07:57:30.000Z</time>
      </trkpt>
      <trkpt lat="50.75895" lon="3.50103">
        <ele>169.2</ele>
        <time>2021-06-20T07:57:31.000Z</time>
      </trkpt>
      <trkpt lat="50.75896" lon="3.50117">
        <ele>170.17</ele>
        <time>2021-06-20T07:57:32.000Z</time>
      </trkpt>
      <trkpt lat="50.75895" lon="3.50133">
        <ele>170.72</ele>
        <time>2021-06-20T07:57:33.000Z</time>
      </trkpt>
      <trkpt lat="50.75895" lon="3.50142">
        <ele>170.96</ele>
        <time>2021-06-20T07:57:35.000Z</time>
      </trkpt>
      <trkpt lat="50.75894" lon="3.5015">
        <ele>172.03</ele>
        <time>2021-06-20T07:57:37.000Z</time>
      </trkpt>
      <trkpt lat="50.75895" lon="3.50159">
        <ele>172.53</ele>
        <time>2021-06-20T07:57:40.000Z</time>
      </trkpt>
      <trkpt lat="50.75897" lon="3.50168">
        <ele>173.66</ele>
        <time>2021-06-20T07:57:42.000Z</time>
      </trkpt>
      <trkpt lat="50.75898" lon="3.5018">
        <ele>173.81</ele>
        <time>2021-06-20T07:57:44.000Z</time>
      </trkpt>
      <trkpt lat="50.75895" lon="3.50195">
        <ele>171.83</ele>
        <time>2021-06-20T07:57:46.000Z</time>
      </trkpt>
      <trkpt lat="50.75894" lon="3.50203">
        <ele>171.38</ele>
        <time>2021-06-20T07:57:47.000Z</time>
      </trkpt>
      <trkpt lat="50.75894" lon="3.50211">
        <ele>171.43</ele>
        <time>2021-06-20T07:57:48.000Z</time>
      </trkpt>
      <trkpt lat="50.75893" lon="3.50218">
        <ele>171.94</ele>
        <time>2021-06-20T07:57:49.000Z</time>
      </trkpt>
      <trkpt lat="50.75893" lon="3.50225">
        <ele>172.73</ele>
        <time>2021-06-20T07:57:50.000Z</time>
      </trkpt>
      <trkpt lat="50.75892" lon="3.5024">
        <ele>171.7</ele>
        <time>2021-06-20T07:57:52.000Z</time>
      </trkpt>
      <trkpt lat="50.75891" lon="3.50247">
        <ele>172.46</ele>
        <time>2021-06-20T07:57:53.000Z</time>
      </trkpt>
      <trkpt lat="50.75891" lon="3.50254">
        <ele>173.41</ele>
        <time>2021-06-20T07:57:54.000Z</time>
      </trkpt>
      <trkpt lat="50.75892" lon="3.50264">
        <ele>173.98</ele>
        <time>2021-06-20T07:57:55.000Z</time>
      </trkpt>
      <trkpt lat="50.75893" lon="3.50271">
        <ele>173.57</ele>
        <time>2021-06-20T07:57:56.000Z</time>
      </trkpt>
      <trkpt lat="50.75893" lon="3.50278">
        <ele>174.14</ele>
        <time>2021-06-20T07:57:57.000Z</time>
      </trkpt>
      <trkpt lat="50.75894" lon="3.50286">
        <ele>173.12</ele>
        <time>2021-06-20T07:57:58.000Z</time>
      </trkpt>
      <trkpt lat="50.75893" lon="3.50298">
        <ele>172.07</ele>
        <time>2021-06-20T07:58:00.000Z</time>
      </trkpt>
      <trkpt lat="50.75892" lon="3.50306">
        <ele>172.59</ele>
        <time>2021-06-20T07:58:01.000Z</time>
      </trkpt>
      <trkpt lat="50.75895" lon="3.50314">
        <ele>173.43</ele>
        <time>2021-06-20T07:58:02.000Z</time>
      </trkpt>
      <trkpt lat="50.75896" lon="3.50321">
        <ele>173.71</ele>
        <time>2021-06-20T07:58:03.000Z</time>
      </trkpt>
      <trkpt lat="50.75897" lon="3.50329">
        <ele>173.87</ele>
        <time>2021-06-20T07:58:04.000Z</time>
      </trkpt>
      <trkpt lat="50.75898" lon="3.50336">
        <ele>174.77</ele>
        <time>2021-06-20T07:58:05.000Z</time>
      </trkpt>
      <trkpt lat="50.75898" lon="3.50345">
        <ele>175.16</ele>
        <time>2021-06-20T07:58:06.000Z</time>
      </trkpt>
      <trkpt lat="50.75898" lon="3.50352">
        <ele>175.59</ele>
        <time>2021-06-20T07:58:07.000Z</time>
      </trkpt>
      <trkpt lat="50.759" lon="3.50359">
        <ele>175.62</ele>
        <time>2021-06-20T07:58:08.000Z</time>
      </trkpt>
      <trkpt lat="50.75901" lon="3.50375">
        <ele>173.54</ele>
        <time>2021-06-20T07:58:10.000Z</time>
      </trkpt>
      <trkpt lat="50.75903" lon="3.50382">
        <ele>173.19</ele>
        <time>2021-06-20T07:58:11.000Z</time>
      </trkpt>
      <trkpt lat="50.75903" lon="3.50391">
        <ele>173.88</ele>
        <time>2021-06-20T07:58:12.000Z</time>
      </trkpt>
      <trkpt lat="50.75903" lon="3.50399">
        <ele>172.62</ele>
        <time>2021-06-20T07:58:13.000Z</time>
      </trkpt>
      <trkpt lat="50.75903" lon="3.50407">
        <ele>172.61</ele>
        <time>2021-06-20T07:58:14.000Z</time>
      </trkpt>
      <trkpt lat="50.75902" lon="3.50415">
        <ele>172.57</ele>
        <time>2021-06-20T07:58:15.000Z</time>
      </trkpt>
      <trkpt lat="50.75902" lon="3.50424">
        <ele>173.29</ele>
        <time>2021-06-20T07:58:16.000Z</time>
      </trkpt>
      <trkpt lat="50.759" lon="3.50433">
        <ele>173</ele>
        <time>2021-06-20T07:58:17.000Z</time>
      </trkpt>
      <trkpt lat="50.759" lon="3.50441">
        <ele>173.29</ele>
        <time>2021-06-20T07:58:18.000Z</time>
      </trkpt>
      <trkpt lat="50.75899" lon="3.5045">
        <ele>174.58</ele>
        <time>2021-06-20T07:58:19.000Z</time>
      </trkpt>
      <trkpt lat="50.75895" lon="3.50465">
        <ele>176.21</ele>
        <time>2021-06-20T07:58:21.000Z</time>
      </trkpt>
      <trkpt lat="50.75892" lon="3.50472">
        <ele>176.22</ele>
        <time>2021-06-20T07:58:22.000Z</time>
      </trkpt>
      <trkpt lat="50.7589" lon="3.5048">
        <ele>176.91</ele>
        <time>2021-06-20T07:58:23.000Z</time>
      </trkpt>
      <trkpt lat="50.75887" lon="3.50486">
        <ele>176.99</ele>
        <time>2021-06-20T07:58:24.000Z</time>
      </trkpt>
      <trkpt lat="50.75882" lon="3.50492">
        <ele>176.21</ele>
        <time>2021-06-20T07:58:25.000Z</time>
      </trkpt>
      <trkpt lat="50.7588" lon="3.50501">
        <ele>166.69</ele>
        <time>2021-06-20T07:58:26.000Z</time>
      </trkpt>
      <trkpt lat="50.75877" lon="3.50508">
        <ele>170.73</ele>
        <time>2021-06-20T07:58:27.000Z</time>
      </trkpt>
      <trkpt lat="50.75874" lon="3.50516">
        <ele>173.72</ele>
        <time>2021-06-20T07:58:28.000Z</time>
      </trkpt>
      <trkpt lat="50.75873" lon="3.50525">
        <ele>174.67</ele>
        <time>2021-06-20T07:58:29.000Z</time>
      </trkpt>
      <trkpt lat="50.7587" lon="3.50537">
        <ele>176.5</ele>
        <time>2021-06-20T07:58:31.000Z</time>
      </trkpt>
      <trkpt lat="50.75871" lon="3.50546">
        <ele>176.73</ele>
        <time>2021-06-20T07:58:33.000Z</time>
      </trkpt>
      <trkpt lat="50.75869" lon="3.50558">
        <ele>177.88</ele>
        <time>2021-06-20T07:58:35.000Z</time>
      </trkpt>
      <trkpt lat="50.75868" lon="3.50571">
        <ele>179.08</ele>
        <time>2021-06-20T07:58:37.000Z</time>
      </trkpt>
      <trkpt lat="50.75868" lon="3.50584">
        <ele>179.85</ele>
        <time>2021-06-20T07:58:39.000Z</time>
      </trkpt>
      <trkpt lat="50.75868" lon="3.50597">
        <ele>181.88</ele>
        <time>2021-06-20T07:58:41.000Z</time>
      </trkpt>
      <trkpt lat="50.7587" lon="3.5061">
        <ele>182.68</ele>
        <time>2021-06-20T07:58:43.000Z</time>
      </trkpt>
      <trkpt lat="50.75871" lon="3.50624">
        <ele>182.36</ele>
        <time>2021-06-20T07:58:45.000Z</time>
      </trkpt>
      <trkpt lat="50.75871" lon="3.50637">
        <ele>182.88</ele>
        <time>2021-06-20T07:58:47.000Z</time>
      </trkpt>
      <trkpt lat="50.75872" lon="3.50645">
        <ele>183.46</ele>
        <time>2021-06-20T07:58:48.000Z</time>
      </trkpt>
      <trkpt lat="50.75872" lon="3.50652">
        <ele>182.51</ele>
        <time>2021-06-20T07:58:49.000Z</time>
      </trkpt>
      <trkpt lat="50.75872" lon="3.50665">
        <ele>182.47</ele>
        <time>2021-06-20T07:58:51.000Z</time>
      </trkpt>
      <trkpt lat="50.75872" lon="3.50677">
        <ele>182.44</ele>
        <time>2021-06-20T07:58:53.000Z</time>
      </trkpt>
      <trkpt lat="50.75872" lon="3.50689">
        <ele>182.16</ele>
        <time>2021-06-20T07:58:55.000Z</time>
      </trkpt>
      <trkpt lat="50.75873" lon="3.507">
        <ele>182.41</ele>
        <time>2021-06-20T07:58:57.000Z</time>
      </trkpt>
      <trkpt lat="50.75875" lon="3.50709">
        <ele>183.33</ele>
        <time>2021-06-20T07:58:59.000Z</time>
      </trkpt>
      <trkpt lat="50.75876" lon="3.50719">
        <ele>182.79</ele>
        <time>2021-06-20T07:59:01.000Z</time>
      </trkpt>
      <trkpt lat="50.7588" lon="3.50724">
        <ele>180.59</ele>
        <time>2021-06-20T07:59:03.000Z</time>
      </trkpt>
      <trkpt lat="50.75885" lon="3.50725">
        <ele>171.79</ele>
        <time>2021-06-20T07:59:06.000Z</time>
      </trkpt>
      <trkpt lat="50.75891" lon="3.50727">
        <ele>177.5</ele>
        <time>2021-06-20T07:59:09.000Z</time>
      </trkpt>
      <trkpt lat="50.75887" lon="3.50722">
        <ele>175.53</ele>
        <time>2021-06-20T07:59:14.000Z</time>
      </trkpt>
      <trkpt lat="50.7588" lon="3.50723">
        <ele>177</ele>
        <time>2021-06-20T07:59:17.000Z</time>
      </trkpt>
      <trkpt lat="50.75875" lon="3.5072">
        <ele>178.84</ele>
        <time>2021-06-20T07:59:19.000Z</time>
      </trkpt>
      <trkpt lat="50.75873" lon="3.50711">
        <ele>179.56</ele>
        <time>2021-06-20T07:59:21.000Z</time>
      </trkpt>
      <trkpt lat="50.75871" lon="3.50703">
        <ele>178.34</ele>
        <time>2021-06-20T07:59:23.000Z</time>
      </trkpt>
      <trkpt lat="50.75871" lon="3.50696">
        <ele>178.47</ele>
        <time>2021-06-20T07:59:25.000Z</time>
      </trkpt>
      <trkpt lat="50.7587" lon="3.50689">
        <ele>178.48</ele>
        <time>2021-06-20T07:59:27.000Z</time>
      </trkpt>
      <trkpt lat="50.75871" lon="3.50679">
        <ele>177.09</ele>
        <time>2021-06-20T07:59:29.000Z</time>
      </trkpt>
      <trkpt lat="50.75871" lon="3.50671">
        <ele>175.83</ele>
        <time>2021-06-20T07:59:31.000Z</time>
      </trkpt>
      <trkpt lat="50.7587" lon="3.50663">
        <ele>175.1</ele>
        <time>2021-06-20T07:59:33.000Z</time>
      </trkpt>
      <trkpt lat="50.75869" lon="3.50655">
        <ele>174.07</ele>
        <time>2021-06-20T07:59:35.000Z</time>
      </trkpt>
      <trkpt lat="50.75869" lon="3.50645">
        <ele>175.63</ele>
        <time>2021-06-20T07:59:38.000Z</time>
      </trkpt>
      <trkpt lat="50.75871" lon="3.50636">
        <ele>176.39</ele>
        <time>2021-06-20T07:59:41.000Z</time>
      </trkpt>
      <trkpt lat="50.75871" lon="3.50627">
        <ele>175.92</ele>
        <time>2021-06-20T07:59:43.000Z</time>
      </trkpt>
      <trkpt lat="50.7587" lon="3.50619">
        <ele>178.18</ele>
        <time>2021-06-20T07:59:45.000Z</time>
      </trkpt>
      <trkpt lat="50.7587" lon="3.50611">
        <ele>178.79</ele>
        <time>2021-06-20T07:59:47.000Z</time>
      </trkpt>
      <trkpt lat="50.7587" lon="3.50601">
        <ele>177.31</ele>
        <time>2021-06-20T07:59:50.000Z</time>
      </trkpt>
      <trkpt lat="50.7587" lon="3.50591">
        <ele>175.96</ele>
        <time>2021-06-20T07:59:53.000Z</time>
      </trkpt>
      <trkpt lat="50.75872" lon="3.50559">
        <ele>173.63</ele>
        <time>2021-06-20T07:59:59.000Z</time>
      </trkpt>
      <trkpt lat="50.75873" lon="3.50549">
        <ele>172.01</ele>
        <time>2021-06-20T08:00:00.000Z</time>
      </trkpt>
      <trkpt lat="50.75874" lon="3.5054">
        <ele>170.87</ele>
        <time>2021-06-20T08:00:01.000Z</time>
      </trkpt>
      <trkpt lat="50.75875" lon="3.50529">
        <ele>170.08</ele>
        <time>2021-06-20T08:00:02.000Z</time>
      </trkpt>
      <trkpt lat="50.7588" lon="3.50518">
        <ele>169.27</ele>
        <time>2021-06-20T08:00:03.000Z</time>
      </trkpt>
      <trkpt lat="50.75882" lon="3.50508">
        <ele>168.73</ele>
        <time>2021-06-20T08:00:04.000Z</time>
      </trkpt>
      <trkpt lat="50.75887" lon="3.50501">
        <ele>168.62</ele>
        <time>2021-06-20T08:00:05.000Z</time>
      </trkpt>
      <trkpt lat="50.75893" lon="3.5049">
        <ele>166.17</ele>
        <time>2021-06-20T08:00:07.000Z</time>
      </trkpt>
      <trkpt lat="50.75896" lon="3.50481">
        <ele>165.48</ele>
        <time>2021-06-20T08:00:08.000Z</time>
      </trkpt>
      <trkpt lat="50.75898" lon="3.50474">
        <ele>164.62</ele>
        <time>2021-06-20T08:00:09.000Z</time>
      </trkpt>
      <trkpt lat="50.759" lon="3.50465">
        <ele>163.69</ele>
        <time>2021-06-20T08:00:10.000Z</time>
      </trkpt>
      <trkpt lat="50.75901" lon="3.50455">
        <ele>163.87</ele>
        <time>2021-06-20T08:00:11.000Z</time>
      </trkpt>
      <trkpt lat="50.75903" lon="3.50448">
        <ele>162.84</ele>
        <time>2021-06-20T08:00:12.000Z</time>
      </trkpt>
      <trkpt lat="50.75903" lon="3.50436">
        <ele>163.82</ele>
        <time>2021-06-20T08:00:13.000Z</time>
      </trkpt>
      <trkpt lat="50.759" lon="3.50426">
        <ele>164.42</ele>
        <time>2021-06-20T08:00:14.000Z</time>
      </trkpt>
      <trkpt lat="50.75899" lon="3.50417">
        <ele>165.59</ele>
        <time>2021-06-20T08:00:15.000Z</time>
      </trkpt>
      <trkpt lat="50.75899" lon="3.50402">
        <ele>167.47</ele>
        <time>2021-06-20T08:00:17.000Z</time>
      </trkpt>
      <trkpt lat="50.75898" lon="3.50393">
        <ele>167.98</ele>
        <time>2021-06-20T08:00:18.000Z</time>
      </trkpt>
      <trkpt lat="50.75897" lon="3.50384">
        <ele>167.7</ele>
        <time>2021-06-20T08:00:19.000Z</time>
      </trkpt>
      <trkpt lat="50.75898" lon="3.50375">
        <ele>169.05</ele>
        <time>2021-06-20T08:00:20.000Z</time>
      </trkpt>
      <trkpt lat="50.75898" lon="3.50367">
        <ele>170.5</ele>
        <time>2021-06-20T08:00:21.000Z</time>
      </trkpt>
      <trkpt lat="50.75897" lon="3.50357">
        <ele>171.8</ele>
        <time>2021-06-20T08:00:22.000Z</time>
      </trkpt>
      <trkpt lat="50.75897" lon="3.50347">
        <ele>172.21</ele>
        <time>2021-06-20T08:00:23.000Z</time>
      </trkpt>
      <trkpt lat="50.75897" lon="3.50339">
        <ele>172.12</ele>
        <time>2021-06-20T08:00:24.000Z</time>
      </trkpt>
      <trkpt lat="50.75894" lon="3.50331">
        <ele>172.67</ele>
        <time>2021-06-20T08:00:25.000Z</time>
      </trkpt>
      <trkpt lat="50.75894" lon="3.50321">
        <ele>171.73</ele>
        <time>2021-06-20T08:00:26.000Z</time>
      </trkpt>
      <trkpt lat="50.75893" lon="3.50313">
        <ele>172.38</ele>
        <time>2021-06-20T08:00:27.000Z</time>
      </trkpt>
      <trkpt lat="50.75891" lon="3.50302">
        <ele>173.23</ele>
        <time>2021-06-20T08:00:28.000Z</time>
      </trkpt>
      <trkpt lat="50.75891" lon="3.50284">
        <ele>171.85</ele>
        <time>2021-06-20T08:00:30.000Z</time>
      </trkpt>
      <trkpt lat="50.75891" lon="3.50276">
        <ele>173.24</ele>
        <time>2021-06-20T08:00:31.000Z</time>
      </trkpt>
      <trkpt lat="50.7589" lon="3.50265">
        <ele>173.32</ele>
        <time>2021-06-20T08:00:32.000Z</time>
      </trkpt>
      <trkpt lat="50.7589" lon="3.50256">
        <ele>174.59</ele>
        <time>2021-06-20T08:00:33.000Z</time>
      </trkpt>
      <trkpt lat="50.7589" lon="3.50247">
        <ele>171.53</ele>
        <time>2021-06-20T08:00:34.000Z</time>
      </trkpt>
      <trkpt lat="50.75892" lon="3.50238">
        <ele>169.78</ele>
        <time>2021-06-20T08:00:35.000Z</time>
      </trkpt>
      <trkpt lat="50.75892" lon="3.50228">
        <ele>168.35</ele>
        <time>2021-06-20T08:00:36.000Z</time>
      </trkpt>
      <trkpt lat="50.75892" lon="3.5022">
        <ele>168.26</ele>
        <time>2021-06-20T08:00:37.000Z</time>
      </trkpt>
      <trkpt lat="50.75892" lon="3.5021">
        <ele>167.8</ele>
        <time>2021-06-20T08:00:38.000Z</time>
      </trkpt>
      <trkpt lat="50.75894" lon="3.50203">
        <ele>167.81</ele>
        <time>2021-06-20T08:00:39.000Z</time>
      </trkpt>
      <trkpt lat="50.75895" lon="3.50194">
        <ele>167.58</ele>
        <time>2021-06-20T08:00:40.000Z</time>
      </trkpt>
      <trkpt lat="50.75897" lon="3.50186">
        <ele>167.32</ele>
        <time>2021-06-20T08:00:41.000Z</time>
      </trkpt>
      <trkpt lat="50.75898" lon="3.50171">
        <ele>168.4</ele>
        <time>2021-06-20T08:00:43.000Z</time>
      </trkpt>
      <trkpt lat="50.75896" lon="3.50161">
        <ele>167.44</ele>
        <time>2021-06-20T08:00:44.000Z</time>
      </trkpt>
      <trkpt lat="50.75895" lon="3.50153">
        <ele>168.29</ele>
        <time>2021-06-20T08:00:45.000Z</time>
      </trkpt>
      <trkpt lat="50.75895" lon="3.50144">
        <ele>168.62</ele>
        <time>2021-06-20T08:00:46.000Z</time>
      </trkpt>
      <trkpt lat="50.75893" lon="3.50136">
        <ele>168.97</ele>
        <time>2021-06-20T08:00:47.000Z</time>
      </trkpt>
      <trkpt lat="50.75892" lon="3.50126">
        <ele>168.72</ele>
        <time>2021-06-20T08:00:48.000Z</time>
      </trkpt>
      <trkpt lat="50.75893" lon="3.50117">
        <ele>168.69</ele>
        <time>2021-06-20T08:00:49.000Z</time>
      </trkpt>
      <trkpt lat="50.75893" lon="3.501">
        <ele>170.58</ele>
        <time>2021-06-20T08:00:51.000Z</time>
      </trkpt>
      <trkpt lat="50.75892" lon="3.5009">
        <ele>170.95</ele>
        <time>2021-06-20T08:00:52.000Z</time>
      </trkpt>
      <trkpt lat="50.75892" lon="3.50081">
        <ele>171.47</ele>
        <time>2021-06-20T08:00:53.000Z</time>
      </trkpt>
      <trkpt lat="50.75892" lon="3.50069">
        <ele>172.11</ele>
        <time>2021-06-20T08:00:54.000Z</time>
      </trkpt>
      <trkpt lat="50.75891" lon="3.50058">
        <ele>170.87</ele>
        <time>2021-06-20T08:00:55.000Z</time>
      </trkpt>
      <trkpt lat="50.75888" lon="3.50048">
        <ele>172.68</ele>
        <time>2021-06-20T08:00:56.000Z</time>
      </trkpt>
      <trkpt lat="50.75886" lon="3.50037">
        <ele>173.09</ele>
        <time>2021-06-20T08:00:57.000Z</time>
      </trkpt>
      <trkpt lat="50.75884" lon="3.50026">
        <ele>175.48</ele>
        <time>2021-06-20T08:00:58.000Z</time>
      </trkpt>
      <trkpt lat="50.75884" lon="3.50017">
        <ele>174.69</ele>
        <time>2021-06-20T08:00:59.000Z</time>
      </trkpt>
      <trkpt lat="50.75882" lon="3.50009">
        <ele>174.55</ele>
        <time>2021-06-20T08:01:00.000Z</time>
      </trkpt>
      <trkpt lat="50.75877" lon="3.50001">
        <ele>175.29</ele>
        <time>2021-06-20T08:01:01.000Z</time>
      </trkpt>
      <trkpt lat="50.75875" lon="3.49994">
        <ele>175.25</ele>
        <time>2021-06-20T08:01:02.000Z</time>
      </trkpt>
      <trkpt lat="50.75872" lon="3.49984">
        <ele>175.88</ele>
        <time>2021-06-20T08:01:03.000Z</time>
      </trkpt>
      <trkpt lat="50.75868" lon="3.49977">
        <ele>177.17</ele>
        <time>2021-06-20T08:01:04.000Z</time>
      </trkpt>
      <trkpt lat="50.75865" lon="3.49971">
        <ele>167.82</ele>
        <time>2021-06-20T08:01:05.000Z</time>
      </trkpt>
      <trkpt lat="50.75862" lon="3.49964">
        <ele>171.81</ele>
        <time>2021-06-20T08:01:06.000Z</time>
      </trkpt>
      <trkpt lat="50.75859" lon="3.49957">
        <ele>172.21</ele>
        <time>2021-06-20T08:01:07.000Z</time>
      </trkpt>
      <trkpt lat="50.75855" lon="3.49951">
        <ele>174.07</ele>
        <time>2021-06-20T08:01:08.000Z</time>
      </trkpt>
      <trkpt lat="50.7585" lon="3.49945">
        <ele>176.26</ele>
        <time>2021-06-20T08:01:09.000Z</time>
      </trkpt>
      <trkpt lat="50.75844" lon="3.49937">
        <ele>176.37</ele>
        <time>2021-06-20T08:01:10.000Z</time>
      </trkpt>
      <trkpt lat="50.7584" lon="3.49929">
        <ele>174.92</ele>
        <time>2021-06-20T08:01:11.000Z</time>
      </trkpt>
      <trkpt lat="50.75835" lon="3.49921">
        <ele>176.05</ele>
        <time>2021-06-20T08:01:12.000Z</time>
      </trkpt>
      <trkpt lat="50.75827" lon="3.49908">
        <ele>175.6</ele>
        <time>2021-06-20T08:01:14.000Z</time>
      </trkpt>
      <trkpt lat="50.75823" lon="3.49898">
        <ele>174.87</ele>
        <time>2021-06-20T08:01:15.000Z</time>
      </trkpt>
      <trkpt lat="50.75819" lon="3.49889">
        <ele>175.08</ele>
        <time>2021-06-20T08:01:16.000Z</time>
      </trkpt>
      <trkpt lat="50.75816" lon="3.49878">
        <ele>173.41</ele>
        <time>2021-06-20T08:01:17.000Z</time>
      </trkpt>
      <trkpt lat="50.75813" lon="3.49868">
        <ele>173.42</ele>
        <time>2021-06-20T08:01:18.000Z</time>
      </trkpt>
      <trkpt lat="50.7581" lon="3.49858">
        <ele>173.12</ele>
        <time>2021-06-20T08:01:19.000Z</time>
      </trkpt>
      <trkpt lat="50.75807" lon="3.49847">
        <ele>173.79</ele>
        <time>2021-06-20T08:01:20.000Z</time>
      </trkpt>
      <trkpt lat="50.75807" lon="3.49838">
        <ele>173.86</ele>
        <time>2021-06-20T08:01:21.000Z</time>
      </trkpt>
      <trkpt lat="50.75805" lon="3.49827">
        <ele>173.66</ele>
        <time>2021-06-20T08:01:22.000Z</time>
      </trkpt>
      <trkpt lat="50.75801" lon="3.49816">
        <ele>174.43</ele>
        <time>2021-06-20T08:01:23.000Z</time>
      </trkpt>
      <trkpt lat="50.75798" lon="3.49806">
        <ele>176.01</ele>
        <time>2021-06-20T08:01:24.000Z</time>
      </trkpt>
      <trkpt lat="50.75794" lon="3.49793">
        <ele>176.52</ele>
        <time>2021-06-20T08:01:25.000Z</time>
      </trkpt>
      <trkpt lat="50.75792" lon="3.49782">
        <ele>177.04</ele>
        <time>2021-06-20T08:01:26.000Z</time>
      </trkpt>
      <trkpt lat="50.75789" lon="3.4977">
        <ele>177.97</ele>
        <time>2021-06-20T08:01:27.000Z</time>
      </trkpt>
      <trkpt lat="50.75786" lon="3.49758">
        <ele>177.88</ele>
        <time>2021-06-20T08:01:28.000Z</time>
      </trkpt>
      <trkpt lat="50.75784" lon="3.49748">
        <ele>178.36</ele>
        <time>2021-06-20T08:01:29.000Z</time>
      </trkpt>
      <trkpt lat="50.75783" lon="3.49736">
        <ele>174.95</ele>
        <time>2021-06-20T08:01:30.000Z</time>
      </trkpt>
      <trkpt lat="50.7578" lon="3.49726">
        <ele>174.55</ele>
        <time>2021-06-20T08:01:31.000Z</time>
      </trkpt>
      <trkpt lat="50.75778" lon="3.49714">
        <ele>174.02</ele>
        <time>2021-06-20T08:01:32.000Z</time>
      </trkpt>
      <trkpt lat="50.75775" lon="3.49704">
        <ele>175.76</ele>
        <time>2021-06-20T08:01:33.000Z</time>
      </trkpt>
      <trkpt lat="50.75773" lon="3.49694">
        <ele>176.97</ele>
        <time>2021-06-20T08:01:34.000Z</time>
      </trkpt>
      <trkpt lat="50.75772" lon="3.49684">
        <ele>177.35</ele>
        <time>2021-06-20T08:01:35.000Z</time>
      </trkpt>
      <trkpt lat="50.75772" lon="3.49674">
        <ele>177.08</ele>
        <time>2021-06-20T08:01:36.000Z</time>
      </trkpt>
      <trkpt lat="50.75772" lon="3.49664">
        <ele>177.31</ele>
        <time>2021-06-20T08:01:37.000Z</time>
      </trkpt>
      <trkpt lat="50.75771" lon="3.49653">
        <ele>178.42</ele>
        <time>2021-06-20T08:01:38.000Z</time>
      </trkpt>
      <trkpt lat="50.75769" lon="3.49643">
        <ele>177.17</ele>
        <time>2021-06-20T08:01:39.000Z</time>
      </trkpt>
      <trkpt lat="50.75769" lon="3.49633">
        <ele>177.78</ele>
        <time>2021-06-20T08:01:40.000Z</time>
      </trkpt>
      <trkpt lat="50.75769" lon="3.49623">
        <ele>177.57</ele>
        <time>2021-06-20T08:01:41.000Z</time>
      </trkpt>
      <trkpt lat="50.75768" lon="3.49613">
        <ele>177.42</ele>
        <time>2021-06-20T08:01:42.000Z</time>
      </trkpt>
      <trkpt lat="50.75768" lon="3.49603">
        <ele>177.81</ele>
        <time>2021-06-20T08:01:43.000Z</time>
      </trkpt>
      <trkpt lat="50.75769" lon="3.49593">
        <ele>177.63</ele>
        <time>2021-06-20T08:01:44.000Z</time>
      </trkpt>
      <trkpt lat="50.7577" lon="3.49583">
        <ele>177.15</ele>
        <time>2021-06-20T08:01:45.000Z</time>
      </trkpt>
      <trkpt lat="50.7577" lon="3.49574">
        <ele>178.22</ele>
        <time>2021-06-20T08:01:46.000Z</time>
      </trkpt>
      <trkpt lat="50.7577" lon="3.49565">
        <ele>178.45</ele>
        <time>2021-06-20T08:01:47.000Z</time>
      </trkpt>
      <trkpt lat="50.7577" lon="3.49548">
        <ele>179.43</ele>
        <time>2021-06-20T08:01:49.000Z</time>
      </trkpt>
      <trkpt lat="50.7577" lon="3.49539">
        <ele>179.8</ele>
        <time>2021-06-20T08:01:50.000Z</time>
      </trkpt>
      <trkpt lat="50.7577" lon="3.4953">
        <ele>179.75</ele>
        <time>2021-06-20T08:01:51.000Z</time>
      </trkpt>
      <trkpt lat="50.75773" lon="3.49523">
        <ele>180.29</ele>
        <time>2021-06-20T08:01:52.000Z</time>
      </trkpt>
      <trkpt lat="50.75774" lon="3.49509">
        <ele>179.97</ele>
        <time>2021-06-20T08:01:54.000Z</time>
      </trkpt>
      <trkpt lat="50.75774" lon="3.49501">
        <ele>180.49</ele>
        <time>2021-06-20T08:01:55.000Z</time>
      </trkpt>
      <trkpt lat="50.75774" lon="3.49491">
        <ele>180.33</ele>
        <time>2021-06-20T08:01:56.000Z</time>
      </trkpt>
      <trkpt lat="50.75774" lon="3.49482">
        <ele>181.77</ele>
        <time>2021-06-20T08:01:57.000Z</time>
      </trkpt>
      <trkpt lat="50.75774" lon="3.49472">
        <ele>181.75</ele>
        <time>2021-06-20T08:01:58.000Z</time>
      </trkpt>
      <trkpt lat="50.75774" lon="3.49463">
        <ele>182.32</ele>
        <time>2021-06-20T08:01:59.000Z</time>
      </trkpt>
      <trkpt lat="50.75774" lon="3.49455">
        <ele>182.52</ele>
        <time>2021-06-20T08:02:00.000Z</time>
      </trkpt>
      <trkpt lat="50.75774" lon="3.49446">
        <ele>184.06</ele>
        <time>2021-06-20T08:02:01.000Z</time>
      </trkpt>
      <trkpt lat="50.75773" lon="3.49436">
        <ele>184.99</ele>
        <time>2021-06-20T08:02:02.000Z</time>
      </trkpt>
      <trkpt lat="50.75772" lon="3.49426">
        <ele>185.75</ele>
        <time>2021-06-20T08:02:03.000Z</time>
      </trkpt>
      <trkpt lat="50.75772" lon="3.49416">
        <ele>186.48</ele>
        <time>2021-06-20T08:02:04.000Z</time>
      </trkpt>
      <trkpt lat="50.75773" lon="3.49408">
        <ele>187.49</ele>
        <time>2021-06-20T08:02:05.000Z</time>
      </trkpt>
      <trkpt lat="50.75773" lon="3.49398">
        <ele>187.12</ele>
        <time>2021-06-20T08:02:06.000Z</time>
      </trkpt>
      <trkpt lat="50.75774" lon="3.49389">
        <ele>187.28</ele>
        <time>2021-06-20T08:02:07.000Z</time>
      </trkpt>
      <trkpt lat="50.75773" lon="3.4938">
        <ele>187.43</ele>
        <time>2021-06-20T08:02:08.000Z</time>
      </trkpt>
      <trkpt lat="50.75774" lon="3.49372">
        <ele>188.28</ele>
        <time>2021-06-20T08:02:09.000Z</time>
      </trkpt>
      <trkpt lat="50.75774" lon="3.49364">
        <ele>188.82</ele>
        <time>2021-06-20T08:02:10.000Z</time>
      </trkpt>
      <trkpt lat="50.75775" lon="3.49355">
        <ele>188.18</ele>
        <time>2021-06-20T08:02:11.000Z</time>
      </trkpt>
      <trkpt lat="50.75775" lon="3.49347">
        <ele>188.29</ele>
        <time>2021-06-20T08:02:12.000Z</time>
      </trkpt>
      <trkpt lat="50.75776" lon="3.49339">
        <ele>187.78</ele>
        <time>2021-06-20T08:02:13.000Z</time>
      </trkpt>
      <trkpt lat="50.75775" lon="3.4933">
        <ele>187.95</ele>
        <time>2021-06-20T08:02:14.000Z</time>
      </trkpt>
      <trkpt lat="50.75772" lon="3.49321">
        <ele>188.56</ele>
        <time>2021-06-20T08:02:15.000Z</time>
      </trkpt>
      <trkpt lat="50.75771" lon="3.49312">
        <ele>176</ele>
        <time>2021-06-20T08:02:16.000Z</time>
      </trkpt>
      <trkpt lat="50.75771" lon="3.49303">
        <ele>180.3</ele>
        <time>2021-06-20T08:02:17.000Z</time>
      </trkpt>
      <trkpt lat="50.75769" lon="3.49293">
        <ele>184.1</ele>
        <time>2021-06-20T08:02:18.000Z</time>
      </trkpt>
      <trkpt lat="50.75771" lon="3.4928">
        <ele>185.52</ele>
        <time>2021-06-20T08:02:20.000Z</time>
      </trkpt>
      <trkpt lat="50.75772" lon="3.49266">
        <ele>187.4</ele>
        <time>2021-06-20T08:02:22.000Z</time>
      </trkpt>
      <trkpt lat="50.75774" lon="3.49254">
        <ele>186.32</ele>
        <time>2021-06-20T08:02:24.000Z</time>
      </trkpt>
      <trkpt lat="50.75774" lon="3.49228">
        <ele>186.79</ele>
        <time>2021-06-20T08:02:27.000Z</time>
      </trkpt>
      <trkpt lat="50.75773" lon="3.49216">
        <ele>187.24</ele>
        <time>2021-06-20T08:02:28.000Z</time>
      </trkpt>
      <trkpt lat="50.75775" lon="3.49206">
        <ele>185.48</ele>
        <time>2021-06-20T08:02:29.000Z</time>
      </trkpt>
      <trkpt lat="50.75778" lon="3.49198">
        <ele>184.82</ele>
        <time>2021-06-20T08:02:30.000Z</time>
      </trkpt>
      <trkpt lat="50.7578" lon="3.49189">
        <ele>184.62</ele>
        <time>2021-06-20T08:02:31.000Z</time>
      </trkpt>
      <trkpt lat="50.75782" lon="3.49182">
        <ele>179.7</ele>
        <time>2021-06-20T08:02:32.000Z</time>
      </trkpt>
      <trkpt lat="50.75785" lon="3.49174">
        <ele>181.7</ele>
        <time>2021-06-20T08:02:33.000Z</time>
      </trkpt>
      <trkpt lat="50.75786" lon="3.49165">
        <ele>182.91</ele>
        <time>2021-06-20T08:02:34.000Z</time>
      </trkpt>
      <trkpt lat="50.75789" lon="3.49156">
        <ele>183</ele>
        <time>2021-06-20T08:02:35.000Z</time>
      </trkpt>
      <trkpt lat="50.7579" lon="3.49148">
        <ele>183.08</ele>
        <time>2021-06-20T08:02:36.000Z</time>
      </trkpt>
      <trkpt lat="50.7579" lon="3.4914">
        <ele>182.83</ele>
        <time>2021-06-20T08:02:37.000Z</time>
      </trkpt>
      <trkpt lat="50.75791" lon="3.49131">
        <ele>183.78</ele>
        <time>2021-06-20T08:02:38.000Z</time>
      </trkpt>
      <trkpt lat="50.75791" lon="3.49122">
        <ele>185.38</ele>
        <time>2021-06-20T08:02:39.000Z</time>
      </trkpt>
      <trkpt lat="50.7579" lon="3.49115">
        <ele>183.97</ele>
        <time>2021-06-20T08:02:40.000Z</time>
      </trkpt>
      <trkpt lat="50.75795" lon="3.49084">
        <ele>182.43</ele>
        <time>2021-06-20T08:02:44.000Z</time>
      </trkpt>
      <trkpt lat="50.75799" lon="3.49075">
        <ele>180.87</ele>
        <time>2021-06-20T08:02:46.000Z</time>
      </trkpt>
      <trkpt lat="50.75799" lon="3.49066">
        <ele>181.25</ele>
        <time>2021-06-20T08:02:48.000Z</time>
      </trkpt>
      <trkpt lat="50.75801" lon="3.49056">
        <ele>181.44</ele>
        <time>2021-06-20T08:02:51.000Z</time>
      </trkpt>
      <trkpt lat="50.75802" lon="3.49046">
        <ele>179.63</ele>
        <time>2021-06-20T08:02:53.000Z</time>
      </trkpt>
      <trkpt lat="50.75805" lon="3.49039">
        <ele>176.9</ele>
        <time>2021-06-20T08:02:55.000Z</time>
      </trkpt>
      <trkpt lat="50.75805" lon="3.4903">
        <ele>175.75</ele>
        <time>2021-06-20T08:02:57.000Z</time>
      </trkpt>
      <trkpt lat="50.75803" lon="3.49022">
        <ele>174.52</ele>
        <time>2021-06-20T08:02:59.000Z</time>
      </trkpt>
      <trkpt lat="50.75806" lon="3.49014">
        <ele>172.09</ele>
        <time>2021-06-20T08:03:02.000Z</time>
      </trkpt>
      <trkpt lat="50.7581" lon="3.49007">
        <ele>169.68</ele>
        <time>2021-06-20T08:03:05.000Z</time>
      </trkpt>
      <trkpt lat="50.75809" lon="3.48999">
        <ele>165.57</ele>
        <time>2021-06-20T08:03:08.000Z</time>
      </trkpt>
      <trkpt lat="50.75809" lon="3.48991">
        <ele>163.1</ele>
        <time>2021-06-20T08:03:11.000Z</time>
      </trkpt>
      <trkpt lat="50.75811" lon="3.48983">
        <ele>161.5</ele>
        <time>2021-06-20T08:03:14.000Z</time>
      </trkpt>
      <trkpt lat="50.75816" lon="3.4898">
        <ele>162.34</ele>
        <time>2021-06-20T08:03:16.000Z</time>
      </trkpt>
      <trkpt lat="50.75821" lon="3.48975">
        <ele>160.36</ele>
        <time>2021-06-20T08:03:18.000Z</time>
      </trkpt>
      <trkpt lat="50.75827" lon="3.48971">
        <ele>158.65</ele>
        <time>2021-06-20T08:03:20.000Z</time>
      </trkpt>
      <trkpt lat="50.75834" lon="3.48966">
        <ele>157.71</ele>
        <time>2021-06-20T08:03:22.000Z</time>
      </trkpt>
      <trkpt lat="50.75839" lon="3.48959">
        <ele>155.55</ele>
        <time>2021-06-20T08:03:24.000Z</time>
      </trkpt>
      <trkpt lat="50.75841" lon="3.48946">
        <ele>153.7</ele>
        <time>2021-06-20T08:03:26.000Z</time>
      </trkpt>
      <trkpt lat="50.75842" lon="3.48934">
        <ele>152.85</ele>
        <time>2021-06-20T08:03:28.000Z</time>
      </trkpt>
      <trkpt lat="50.75843" lon="3.48924">
        <ele>154.01</ele>
        <time>2021-06-20T08:03:30.000Z</time>
      </trkpt>
      <trkpt lat="50.75841" lon="3.48914">
        <ele>151.93</ele>
        <time>2021-06-20T08:03:32.000Z</time>
      </trkpt>
      <trkpt lat="50.75838" lon="3.48906">
        <ele>149.84</ele>
        <time>2021-06-20T08:03:34.000Z</time>
      </trkpt>
      <trkpt lat="50.75839" lon="3.48897">
        <ele>148.29</ele>
        <time>2021-06-20T08:03:38.000Z</time>
      </trkpt>
      <trkpt lat="50.75844" lon="3.48893">
        <ele>149.2</ele>
        <time>2021-06-20T08:03:41.000Z</time>
      </trkpt>
      <trkpt lat="50.75849" lon="3.48887">
        <ele>150.05</ele>
        <time>2021-06-20T08:03:43.000Z</time>
      </trkpt>
      <trkpt lat="50.75854" lon="3.48882">
        <ele>150.23</ele>
        <time>2021-06-20T08:03:46.000Z</time>
      </trkpt>
      <trkpt lat="50.75857" lon="3.48873">
        <ele>149.94</ele>
        <time>2021-06-20T08:03:49.000Z</time>
      </trkpt>
      <trkpt lat="50.7586" lon="3.48866">
        <ele>148.51</ele>
        <time>2021-06-20T08:03:51.000Z</time>
      </trkpt>
      <trkpt lat="50.75863" lon="3.48858">
        <ele>151.35</ele>
        <time>2021-06-20T08:03:53.000Z</time>
      </trkpt>
      <trkpt lat="50.75866" lon="3.48849">
        <ele>150.49</ele>
        <time>2021-06-20T08:03:55.000Z</time>
      </trkpt>
      <trkpt lat="50.75868" lon="3.48841">
        <ele>150.34</ele>
        <time>2021-06-20T08:03:57.000Z</time>
      </trkpt>
      <trkpt lat="50.75871" lon="3.48834">
        <ele>148.89</ele>
        <time>2021-06-20T08:03:59.000Z</time>
      </trkpt>
      <trkpt lat="50.75874" lon="3.48824">
        <ele>149.96</ele>
        <time>2021-06-20T08:04:00.000Z</time>
      </trkpt>
      <trkpt lat="50.75881" lon="3.48815">
        <ele>149.57</ele>
        <time>2021-06-20T08:04:02.000Z</time>
      </trkpt>
      <trkpt lat="50.75884" lon="3.4881">
        <ele>149.7</ele>
        <time>2021-06-20T08:04:03.000Z</time>
      </trkpt>
      <trkpt lat="50.75886" lon="3.48803">
        <ele>151.03</ele>
        <time>2021-06-20T08:04:04.000Z</time>
      </trkpt>
      <trkpt lat="50.75888" lon="3.48796">
        <ele>150.38</ele>
        <time>2021-06-20T08:04:05.000Z</time>
      </trkpt>
      <trkpt lat="50.7589" lon="3.48788">
        <ele>150.53</ele>
        <time>2021-06-20T08:04:06.000Z</time>
      </trkpt>
      <trkpt lat="50.75892" lon="3.48776">
        <ele>149.46</ele>
        <time>2021-06-20T08:04:08.000Z</time>
      </trkpt>
      <trkpt lat="50.75893" lon="3.48762">
        <ele>148.51</ele>
        <time>2021-06-20T08:04:10.000Z</time>
      </trkpt>
      <trkpt lat="50.75894" lon="3.48754">
        <ele>146.54</ele>
        <time>2021-06-20T08:04:11.000Z</time>
      </trkpt>
      <trkpt lat="50.75896" lon="3.48745">
        <ele>145.6</ele>
        <time>2021-06-20T08:04:12.000Z</time>
      </trkpt>
      <trkpt lat="50.75897" lon="3.48737">
        <ele>145.44</ele>
        <time>2021-06-20T08:04:13.000Z</time>
      </trkpt>
      <trkpt lat="50.75898" lon="3.48729">
        <ele>145.28</ele>
        <time>2021-06-20T08:04:14.000Z</time>
      </trkpt>
      <trkpt lat="50.759" lon="3.4872">
        <ele>145.27</ele>
        <time>2021-06-20T08:04:15.000Z</time>
      </trkpt>
      <trkpt lat="50.75903" lon="3.48713">
        <ele>145.24</ele>
        <time>2021-06-20T08:04:16.000Z</time>
      </trkpt>
      <trkpt lat="50.75907" lon="3.48705">
        <ele>144.52</ele>
        <time>2021-06-20T08:04:17.000Z</time>
      </trkpt>
      <trkpt lat="50.75908" lon="3.48696">
        <ele>144.56</ele>
        <time>2021-06-20T08:04:18.000Z</time>
      </trkpt>
      <trkpt lat="50.75911" lon="3.48687">
        <ele>144.09</ele>
        <time>2021-06-20T08:04:19.000Z</time>
      </trkpt>
      <trkpt lat="50.75914" lon="3.4868">
        <ele>144.16</ele>
        <time>2021-06-20T08:04:20.000Z</time>
      </trkpt>
      <trkpt lat="50.75917" lon="3.48673">
        <ele>143.31</ele>
        <time>2021-06-20T08:04:21.000Z</time>
      </trkpt>
      <trkpt lat="50.75919" lon="3.48666">
        <ele>142.86</ele>
        <time>2021-06-20T08:04:22.000Z</time>
      </trkpt>
      <trkpt lat="50.75921" lon="3.48655">
        <ele>142.36</ele>
        <time>2021-06-20T08:04:23.000Z</time>
      </trkpt>
      <trkpt lat="50.75922" lon="3.48641">
        <ele>142.06</ele>
        <time>2021-06-20T08:04:25.000Z</time>
      </trkpt>
      <trkpt lat="50.75922" lon="3.48633">
        <ele>142.64</ele>
        <time>2021-06-20T08:04:26.000Z</time>
      </trkpt>
      <trkpt lat="50.75925" lon="3.48622">
        <ele>141.03</ele>
        <time>2021-06-20T08:04:28.000Z</time>
      </trkpt>
      <trkpt lat="50.75927" lon="3.48614">
        <ele>141.08</ele>
        <time>2021-06-20T08:04:29.000Z</time>
      </trkpt>
      <trkpt lat="50.75928" lon="3.48607">
        <ele>141.06</ele>
        <time>2021-06-20T08:04:30.000Z</time>
      </trkpt>
      <trkpt lat="50.75939" lon="3.48595">
        <ele>136.41</ele>
        <time>2021-06-20T08:04:33.000Z</time>
      </trkpt>
      <trkpt lat="50.75943" lon="3.48591">
        <ele>135.37</ele>
        <time>2021-06-20T08:04:34.000Z</time>
      </trkpt>
      <trkpt lat="50.75947" lon="3.48587">
        <ele>134.74</ele>
        <time>2021-06-20T08:04:35.000Z</time>
      </trkpt>
      <trkpt lat="50.75951" lon="3.48577">
        <ele>134.21</ele>
        <time>2021-06-20T08:04:37.000Z</time>
      </trkpt>
      <trkpt lat="50.75952" lon="3.48566">
        <ele>131.22</ele>
        <time>2021-06-20T08:04:39.000Z</time>
      </trkpt>
      <trkpt lat="50.75953" lon="3.48559">
        <ele>131.04</ele>
        <time>2021-06-20T08:04:40.000Z</time>
      </trkpt>
      <trkpt lat="50.75953" lon="3.48551">
        <ele>131.02</ele>
        <time>2021-06-20T08:04:41.000Z</time>
      </trkpt>
      <trkpt lat="50.75954" lon="3.48536">
        <ele>134.12</ele>
        <time>2021-06-20T08:04:43.000Z</time>
      </trkpt>
      <trkpt lat="50.75954" lon="3.48529">
        <ele>133.53</ele>
        <time>2021-06-20T08:04:44.000Z</time>
      </trkpt>
      <trkpt lat="50.75955" lon="3.48521">
        <ele>133.4</ele>
        <time>2021-06-20T08:04:45.000Z</time>
      </trkpt>
      <trkpt lat="50.75955" lon="3.48514">
        <ele>133.59</ele>
        <time>2021-06-20T08:04:46.000Z</time>
      </trkpt>
      <trkpt lat="50.75956" lon="3.48505">
        <ele>133.15</ele>
        <time>2021-06-20T08:04:47.000Z</time>
      </trkpt>
      <trkpt lat="50.75956" lon="3.48498">
        <ele>133.61</ele>
        <time>2021-06-20T08:04:48.000Z</time>
      </trkpt>
      <trkpt lat="50.75957" lon="3.48491">
        <ele>133.97</ele>
        <time>2021-06-20T08:04:49.000Z</time>
      </trkpt>
      <trkpt lat="50.75956" lon="3.48483">
        <ele>108.71</ele>
        <time>2021-06-20T08:04:50.000Z</time>
      </trkpt>
      <trkpt lat="50.75955" lon="3.48476">
        <ele>119.04</ele>
        <time>2021-06-20T08:04:51.000Z</time>
      </trkpt>
      <trkpt lat="50.75953" lon="3.48469">
        <ele>124.38</ele>
        <time>2021-06-20T08:04:52.000Z</time>
      </trkpt>
      <trkpt lat="50.75951" lon="3.4846">
        <ele>129.16</ele>
        <time>2021-06-20T08:04:54.000Z</time>
      </trkpt>
      <trkpt lat="50.75949" lon="3.48452">
        <ele>130.84</ele>
        <time>2021-06-20T08:04:55.000Z</time>
      </trkpt>
      <trkpt lat="50.75947" lon="3.48445">
        <ele>132.93</ele>
        <time>2021-06-20T08:04:56.000Z</time>
      </trkpt>
      <trkpt lat="50.75946" lon="3.48437">
        <ele>131.54</ele>
        <time>2021-06-20T08:04:57.000Z</time>
      </trkpt>
      <trkpt lat="50.75943" lon="3.48429">
        <ele>132.04</ele>
        <time>2021-06-20T08:04:58.000Z</time>
      </trkpt>
      <trkpt lat="50.7594" lon="3.48423">
        <ele>132.65</ele>
        <time>2021-06-20T08:04:59.000Z</time>
      </trkpt>
      <trkpt lat="50.75935" lon="3.48414">
        <ele>132.96</ele>
        <time>2021-06-20T08:05:01.000Z</time>
      </trkpt>
      <trkpt lat="50.75929" lon="3.48409">
        <ele>133.83</ele>
        <time>2021-06-20T08:05:03.000Z</time>
      </trkpt>
      <trkpt lat="50.75922" lon="3.48405">
        <ele>135.14</ele>
        <time>2021-06-20T08:05:05.000Z</time>
      </trkpt>
      <trkpt lat="50.75917" lon="3.484">
        <ele>135.3</ele>
        <time>2021-06-20T08:05:07.000Z</time>
      </trkpt>
      <trkpt lat="50.75917" lon="3.484">
        <ele>135.3</ele>
        <time>2021-06-20T08:05:07.001Z</time>
      </trkpt>
      <trkpt lat="50.75913" lon="3.48395">
        <ele>136.75</ele>
        <time>2021-06-20T08:05:22.000Z</time>
      </trkpt>
      <trkpt lat="50.75908" lon="3.48396">
        <ele>137.43</ele>
        <time>2021-06-20T08:05:25.000Z</time>
      </trkpt>
      <trkpt lat="50.75903" lon="3.48399">
        <ele>138.29</ele>
        <time>2021-06-20T08:05:27.000Z</time>
      </trkpt>
      <trkpt lat="50.75901" lon="3.48407">
        <ele>138.15</ele>
        <time>2021-06-20T08:05:29.000Z</time>
      </trkpt>
      <trkpt lat="50.75899" lon="3.48418">
        <ele>138.35</ele>
        <time>2021-06-20T08:05:31.000Z</time>
      </trkpt>
      <trkpt lat="50.75898" lon="3.48431">
        <ele>138.72</ele>
        <time>2021-06-20T08:05:33.000Z</time>
      </trkpt>
      <trkpt lat="50.75897" lon="3.48445">
        <ele>139.22</ele>
        <time>2021-06-20T08:05:35.000Z</time>
      </trkpt>
      <trkpt lat="50.75897" lon="3.48459">
        <ele>139.77</ele>
        <time>2021-06-20T08:05:37.000Z</time>
      </trkpt>
      <trkpt lat="50.75896" lon="3.48472">
        <ele>139.95</ele>
        <time>2021-06-20T08:05:39.000Z</time>
      </trkpt>
      <trkpt lat="50.75896" lon="3.48485">
        <ele>139.67</ele>
        <time>2021-06-20T08:05:41.000Z</time>
      </trkpt>
      <trkpt lat="50.75895" lon="3.48498">
        <ele>140.24</ele>
        <time>2021-06-20T08:05:43.000Z</time>
      </trkpt>
      <trkpt lat="50.75894" lon="3.4851">
        <ele>140.19</ele>
        <time>2021-06-20T08:05:45.000Z</time>
      </trkpt>
      <trkpt lat="50.75893" lon="3.48522">
        <ele>139.92</ele>
        <time>2021-06-20T08:05:47.000Z</time>
      </trkpt>
      <trkpt lat="50.75886" lon="3.4853">
        <ele>139.27</ele>
        <time>2021-06-20T08:05:49.000Z</time>
      </trkpt>
      <trkpt lat="50.7588" lon="3.48531">
        <ele>139.1</ele>
        <time>2021-06-20T08:05:50.000Z</time>
      </trkpt>
      <trkpt lat="50.75874" lon="3.48533">
        <ele>139.3</ele>
        <time>2021-06-20T08:05:51.000Z</time>
      </trkpt>
      <trkpt lat="50.75869" lon="3.48535">
        <ele>139.34</ele>
        <time>2021-06-20T08:05:52.000Z</time>
      </trkpt>
      <trkpt lat="50.75864" lon="3.48538">
        <ele>139.15</ele>
        <time>2021-06-20T08:05:53.000Z</time>
      </trkpt>
      <trkpt lat="50.75858" lon="3.4854">
        <ele>128.87</ele>
        <time>2021-06-20T08:05:54.000Z</time>
      </trkpt>
      <trkpt lat="50.75853" lon="3.48543">
        <ele>132.6</ele>
        <time>2021-06-20T08:05:55.000Z</time>
      </trkpt>
      <trkpt lat="50.75848" lon="3.48545">
        <ele>134.5</ele>
        <time>2021-06-20T08:05:56.000Z</time>
      </trkpt>
      <trkpt lat="50.75843" lon="3.48547">
        <ele>136.29</ele>
        <time>2021-06-20T08:05:57.000Z</time>
      </trkpt>
      <trkpt lat="50.75837" lon="3.4855">
        <ele>137.14</ele>
        <time>2021-06-20T08:05:58.000Z</time>
      </trkpt>
      <trkpt lat="50.75831" lon="3.48552">
        <ele>137.85</ele>
        <time>2021-06-20T08:05:59.000Z</time>
      </trkpt>
      <trkpt lat="50.75825" lon="3.48555">
        <ele>138.42</ele>
        <time>2021-06-20T08:06:00.000Z</time>
      </trkpt>
      <trkpt lat="50.75819" lon="3.48559">
        <ele>138.51</ele>
        <time>2021-06-20T08:06:01.000Z</time>
      </trkpt>
      <trkpt lat="50.75814" lon="3.48562">
        <ele>139.07</ele>
        <time>2021-06-20T08:06:02.000Z</time>
      </trkpt>
      <trkpt lat="50.75808" lon="3.48566">
        <ele>139.14</ele>
        <time>2021-06-20T08:06:03.000Z</time>
      </trkpt>
      <trkpt lat="50.75802" lon="3.48572">
        <ele>138.07</ele>
        <time>2021-06-20T08:06:04.000Z</time>
      </trkpt>
      <trkpt lat="50.75796" lon="3.48579">
        <ele>138.02</ele>
        <time>2021-06-20T08:06:05.000Z</time>
      </trkpt>
      <trkpt lat="50.75791" lon="3.48586">
        <ele>137.61</ele>
        <time>2021-06-20T08:06:06.000Z</time>
      </trkpt>
      <trkpt lat="50.75786" lon="3.48594">
        <ele>137.3</ele>
        <time>2021-06-20T08:06:07.000Z</time>
      </trkpt>
      <trkpt lat="50.7578" lon="3.48603">
        <ele>136.83</ele>
        <time>2021-06-20T08:06:08.000Z</time>
      </trkpt>
      <trkpt lat="50.75775" lon="3.48611">
        <ele>136.56</ele>
        <time>2021-06-20T08:06:09.000Z</time>
      </trkpt>
      <trkpt lat="50.7577" lon="3.4862">
        <ele>136.16</ele>
        <time>2021-06-20T08:06:10.000Z</time>
      </trkpt>
      <trkpt lat="50.75765" lon="3.48628">
        <ele>136.09</ele>
        <time>2021-06-20T08:06:11.000Z</time>
      </trkpt>
      <trkpt lat="50.7576" lon="3.48635">
        <ele>135.61</ele>
        <time>2021-06-20T08:06:12.000Z</time>
      </trkpt>
      <trkpt lat="50.75754" lon="3.48643">
        <ele>134.87</ele>
        <time>2021-06-20T08:06:13.000Z</time>
      </trkpt>
      <trkpt lat="50.75748" lon="3.48651">
        <ele>134.31</ele>
        <time>2021-06-20T08:06:14.000Z</time>
      </trkpt>
      <trkpt lat="50.75743" lon="3.48658">
        <ele>134.12</ele>
        <time>2021-06-20T08:06:15.000Z</time>
      </trkpt>
      <trkpt lat="50.75736" lon="3.48666">
        <ele>134.1</ele>
        <time>2021-06-20T08:06:16.000Z</time>
      </trkpt>
      <trkpt lat="50.7573" lon="3.48673">
        <ele>134.21</ele>
        <time>2021-06-20T08:06:17.000Z</time>
      </trkpt>
      <trkpt lat="50.75724" lon="3.4868">
        <ele>133.75</ele>
        <time>2021-06-20T08:06:18.000Z</time>
      </trkpt>
      <trkpt lat="50.75718" lon="3.48687">
        <ele>133.59</ele>
        <time>2021-06-20T08:06:19.000Z</time>
      </trkpt>
      <trkpt lat="50.75712" lon="3.48694">
        <ele>133.85</ele>
        <time>2021-06-20T08:06:20.000Z</time>
      </trkpt>
      <trkpt lat="50.75706" lon="3.48702">
        <ele>133.92</ele>
        <time>2021-06-20T08:06:21.000Z</time>
      </trkpt>
      <trkpt lat="50.757" lon="3.4871">
        <ele>134.05</ele>
        <time>2021-06-20T08:06:22.000Z</time>
      </trkpt>
      <trkpt lat="50.75695" lon="3.48718">
        <ele>133.83</ele>
        <time>2021-06-20T08:06:23.000Z</time>
      </trkpt>
      <trkpt lat="50.75689" lon="3.48726">
        <ele>133.77</ele>
        <time>2021-06-20T08:06:24.000Z</time>
      </trkpt>
      <trkpt lat="50.75683" lon="3.48734">
        <ele>133.94</ele>
        <time>2021-06-20T08:06:25.000Z</time>
      </trkpt>
      <trkpt lat="50.75677" lon="3.48742">
        <ele>133.74</ele>
        <time>2021-06-20T08:06:26.000Z</time>
      </trkpt>
      <trkpt lat="50.7567" lon="3.48749">
        <ele>133.83</ele>
        <time>2021-06-20T08:06:27.000Z</time>
      </trkpt>
      <trkpt lat="50.75664" lon="3.48756">
        <ele>133.85</ele>
        <time>2021-06-20T08:06:28.000Z</time>
      </trkpt>
      <trkpt lat="50.75658" lon="3.48764">
        <ele>133.64</ele>
        <time>2021-06-20T08:06:29.000Z</time>
      </trkpt>
      <trkpt lat="50.75652" lon="3.48772">
        <ele>133.54</ele>
        <time>2021-06-20T08:06:30.000Z</time>
      </trkpt>
      <trkpt lat="50.75646" lon="3.48779">
        <ele>133.83</ele>
        <time>2021-06-20T08:06:31.000Z</time>
      </trkpt>
      <trkpt lat="50.7564" lon="3.48785">
        <ele>133.78</ele>
        <time>2021-06-20T08:06:32.000Z</time>
      </trkpt>
      <trkpt lat="50.75633" lon="3.4879">
        <ele>134.03</ele>
        <time>2021-06-20T08:06:33.000Z</time>
      </trkpt>
      <trkpt lat="50.75627" lon="3.48794">
        <ele>133.95</ele>
        <time>2021-06-20T08:06:34.000Z</time>
      </trkpt>
      <trkpt lat="50.75622" lon="3.48798">
        <ele>133.41</ele>
        <time>2021-06-20T08:06:35.000Z</time>
      </trkpt>
      <trkpt lat="50.75616" lon="3.48801">
        <ele>133.7</ele>
        <time>2021-06-20T08:06:36.000Z</time>
      </trkpt>
      <trkpt lat="50.75612" lon="3.48804">
        <ele>134.05</ele>
        <time>2021-06-20T08:06:37.000Z</time>
      </trkpt>
      <trkpt lat="50.75605" lon="3.48803">
        <ele>134.58</ele>
        <time>2021-06-20T08:06:39.000Z</time>
      </trkpt>
      <trkpt lat="50.75601" lon="3.48798">
        <ele>133.81</ele>
        <time>2021-06-20T08:06:40.000Z</time>
      </trkpt>
      <trkpt lat="50.75599" lon="3.4879">
        <ele>133.08</ele>
        <time>2021-06-20T08:06:41.000Z</time>
      </trkpt>
      <trkpt lat="50.75596" lon="3.48783">
        <ele>132.73</ele>
        <time>2021-06-20T08:06:42.000Z</time>
      </trkpt>
      <trkpt lat="50.75592" lon="3.48774">
        <ele>132.64</ele>
        <time>2021-06-20T08:06:43.000Z</time>
      </trkpt>
      <trkpt lat="50.75589" lon="3.48763">
        <ele>132.05</ele>
        <time>2021-06-20T08:06:44.000Z</time>
      </trkpt>
      <trkpt lat="50.75584" lon="3.48751">
        <ele>130.2</ele>
        <time>2021-06-20T08:06:45.000Z</time>
      </trkpt>
      <trkpt lat="50.75579" lon="3.48741">
        <ele>128.82</ele>
        <time>2021-06-20T08:06:46.000Z</time>
      </trkpt>
      <trkpt lat="50.75572" lon="3.48734">
        <ele>127.81</ele>
        <time>2021-06-20T08:06:47.000Z</time>
      </trkpt>
      <trkpt lat="50.75567" lon="3.48728">
        <ele>126.52</ele>
        <time>2021-06-20T08:06:48.000Z</time>
      </trkpt>
      <trkpt lat="50.75559" lon="3.48722">
        <ele>125.98</ele>
        <time>2021-06-20T08:06:49.000Z</time>
      </trkpt>
      <trkpt lat="50.75552" lon="3.48717">
        <ele>125.38</ele>
        <time>2021-06-20T08:06:50.000Z</time>
      </trkpt>
      <trkpt lat="50.75544" lon="3.48711">
        <ele>125.21</ele>
        <time>2021-06-20T08:06:51.000Z</time>
      </trkpt>
      <trkpt lat="50.75538" lon="3.48705">
        <ele>124.66</ele>
        <time>2021-06-20T08:06:52.000Z</time>
      </trkpt>
      <trkpt lat="50.75531" lon="3.487">
        <ele>124.23</ele>
        <time>2021-06-20T08:06:53.000Z</time>
      </trkpt>
      <trkpt lat="50.75525" lon="3.48695">
        <ele>123.77</ele>
        <time>2021-06-20T08:06:54.000Z</time>
      </trkpt>
      <trkpt lat="50.75517" lon="3.4869">
        <ele>123.86</ele>
        <time>2021-06-20T08:06:55.000Z</time>
      </trkpt>
      <trkpt lat="50.75513" lon="3.48687">
        <ele>122.97</ele>
        <time>2021-06-20T08:06:56.000Z</time>
      </trkpt>
      <trkpt lat="50.75507" lon="3.48682">
        <ele>122.07</ele>
        <time>2021-06-20T08:06:57.000Z</time>
      </trkpt>
      <trkpt lat="50.75501" lon="3.48674">
        <ele>121.89</ele>
        <time>2021-06-20T08:06:58.000Z</time>
      </trkpt>
      <trkpt lat="50.75494" lon="3.48669">
        <ele>122.38</ele>
        <time>2021-06-20T08:06:59.000Z</time>
      </trkpt>
      <trkpt lat="50.75489" lon="3.48667">
        <ele>119.92</ele>
        <time>2021-06-20T08:07:00.000Z</time>
      </trkpt>
      <trkpt lat="50.75484" lon="3.48663">
        <ele>119.32</ele>
        <time>2021-06-20T08:07:01.000Z</time>
      </trkpt>
      <trkpt lat="50.75479" lon="3.48659">
        <ele>118.17</ele>
        <time>2021-06-20T08:07:02.000Z</time>
      </trkpt>
      <trkpt lat="50.75474" lon="3.48653">
        <ele>117.5</ele>
        <time>2021-06-20T08:07:03.000Z</time>
      </trkpt>
      <trkpt lat="50.75468" lon="3.48646">
        <ele>116.74</ele>
        <time>2021-06-20T08:07:04.000Z</time>
      </trkpt>
      <trkpt lat="50.75463" lon="3.4864">
        <ele>114.95</ele>
        <time>2021-06-20T08:07:05.000Z</time>
      </trkpt>
      <trkpt lat="50.75458" lon="3.48635">
        <ele>111.99</ele>
        <time>2021-06-20T08:07:06.000Z</time>
      </trkpt>
      <trkpt lat="50.75451" lon="3.48631">
        <ele>111.71</ele>
        <time>2021-06-20T08:07:07.000Z</time>
      </trkpt>
      <trkpt lat="50.75445" lon="3.48628">
        <ele>110.29</ele>
        <time>2021-06-20T08:07:08.000Z</time>
      </trkpt>
      <trkpt lat="50.75438" lon="3.48625">
        <ele>109.08</ele>
        <time>2021-06-20T08:07:09.000Z</time>
      </trkpt>
      <trkpt lat="50.75432" lon="3.48622">
        <ele>106.36</ele>
        <time>2021-06-20T08:07:10.000Z</time>
      </trkpt>
      <trkpt lat="50.75425" lon="3.48621">
        <ele>106.24</ele>
        <time>2021-06-20T08:07:11.000Z</time>
      </trkpt>
      <trkpt lat="50.75417" lon="3.48621">
        <ele>105.49</ele>
        <time>2021-06-20T08:07:12.000Z</time>
      </trkpt>
      <trkpt lat="50.75409" lon="3.48623">
        <ele>105.09</ele>
        <time>2021-06-20T08:07:13.000Z</time>
      </trkpt>
      <trkpt lat="50.75401" lon="3.48625">
        <ele>104.14</ele>
        <time>2021-06-20T08:07:14.000Z</time>
      </trkpt>
      <trkpt lat="50.75392" lon="3.48626">
        <ele>104.27</ele>
        <time>2021-06-20T08:07:15.000Z</time>
      </trkpt>
      <trkpt lat="50.75383" lon="3.48627">
        <ele>103.43</ele>
        <time>2021-06-20T08:07:16.000Z</time>
      </trkpt>
      <trkpt lat="50.75375" lon="3.48628">
        <ele>102.3</ele>
        <time>2021-06-20T08:07:17.000Z</time>
      </trkpt>
      <trkpt lat="50.75366" lon="3.48627">
        <ele>102.59</ele>
        <time>2021-06-20T08:07:18.000Z</time>
      </trkpt>
      <trkpt lat="50.75358" lon="3.48626">
        <ele>102.17</ele>
        <time>2021-06-20T08:07:19.000Z</time>
      </trkpt>
      <trkpt lat="50.7535" lon="3.48628">
        <ele>101.65</ele>
        <time>2021-06-20T08:07:20.000Z</time>
      </trkpt>
      <trkpt lat="50.75342" lon="3.4863">
        <ele>101.07</ele>
        <time>2021-06-20T08:07:21.000Z</time>
      </trkpt>
      <trkpt lat="50.75334" lon="3.48631">
        <ele>100.83</ele>
        <time>2021-06-20T08:07:22.000Z</time>
      </trkpt>
      <trkpt lat="50.75327" lon="3.4863">
        <ele>100.97</ele>
        <time>2021-06-20T08:07:23.000Z</time>
      </trkpt>
      <trkpt lat="50.75319" lon="3.48627">
        <ele>100.56</ele>
        <time>2021-06-20T08:07:24.000Z</time>
      </trkpt>
      <trkpt lat="50.75312" lon="3.48624">
        <ele>100.36</ele>
        <time>2021-06-20T08:07:25.000Z</time>
      </trkpt>
      <trkpt lat="50.75304" lon="3.4862">
        <ele>100.42</ele>
        <time>2021-06-20T08:07:26.000Z</time>
      </trkpt>
      <trkpt lat="50.75295" lon="3.48616">
        <ele>100.34</ele>
        <time>2021-06-20T08:07:27.000Z</time>
      </trkpt>
      <trkpt lat="50.75286" lon="3.48611">
        <ele>100.26</ele>
        <time>2021-06-20T08:07:28.000Z</time>
      </trkpt>
      <trkpt lat="50.75277" lon="3.48607">
        <ele>99.76</ele>
        <time>2021-06-20T08:07:29.000Z</time>
      </trkpt>
      <trkpt lat="50.75267" lon="3.48603">
        <ele>99.25</ele>
        <time>2021-06-20T08:07:30.000Z</time>
      </trkpt>
      <trkpt lat="50.75258" lon="3.48598">
        <ele>98.78</ele>
        <time>2021-06-20T08:07:31.000Z</time>
      </trkpt>
      <trkpt lat="50.75247" lon="3.48594">
        <ele>97.93</ele>
        <time>2021-06-20T08:07:32.000Z</time>
      </trkpt>
      <trkpt lat="50.75237" lon="3.48589">
        <ele>97.27</ele>
        <time>2021-06-20T08:07:33.000Z</time>
      </trkpt>
      <trkpt lat="50.75226" lon="3.48584">
        <ele>96.66</ele>
        <time>2021-06-20T08:07:34.000Z</time>
      </trkpt>
      <trkpt lat="50.75217" lon="3.48579">
        <ele>95.88</ele>
        <time>2021-06-20T08:07:35.000Z</time>
      </trkpt>
      <trkpt lat="50.75208" lon="3.48575">
        <ele>94.88</ele>
        <time>2021-06-20T08:07:36.000Z</time>
      </trkpt>
      <trkpt lat="50.75199" lon="3.48572">
        <ele>94.57</ele>
        <time>2021-06-20T08:07:37.000Z</time>
      </trkpt>
      <trkpt lat="50.75191" lon="3.48567">
        <ele>94.48</ele>
        <time>2021-06-20T08:07:38.000Z</time>
      </trkpt>
      <trkpt lat="50.75183" lon="3.48562">
        <ele>94.49</ele>
        <time>2021-06-20T08:07:39.000Z</time>
      </trkpt>
      <trkpt lat="50.75175" lon="3.48558">
        <ele>94.29</ele>
        <time>2021-06-20T08:07:40.000Z</time>
      </trkpt>
      <trkpt lat="50.75166" lon="3.48554">
        <ele>93.68</ele>
        <time>2021-06-20T08:07:41.000Z</time>
      </trkpt>
      <trkpt lat="50.75158" lon="3.48549">
        <ele>92.93</ele>
        <time>2021-06-20T08:07:42.000Z</time>
      </trkpt>
      <trkpt lat="50.7515" lon="3.48544">
        <ele>92.68</ele>
        <time>2021-06-20T08:07:43.000Z</time>
      </trkpt>
      <trkpt lat="50.75142" lon="3.4854">
        <ele>92.47</ele>
        <time>2021-06-20T08:07:44.000Z</time>
      </trkpt>
      <trkpt lat="50.75134" lon="3.48535">
        <ele>92.03</ele>
        <time>2021-06-20T08:07:45.000Z</time>
      </trkpt>
      <trkpt lat="50.75127" lon="3.48529">
        <ele>91.74</ele>
        <time>2021-06-20T08:07:46.000Z</time>
      </trkpt>
      <trkpt lat="50.75119" lon="3.48525">
        <ele>91.47</ele>
        <time>2021-06-20T08:07:47.000Z</time>
      </trkpt>
      <trkpt lat="50.75111" lon="3.4852">
        <ele>91.32</ele>
        <time>2021-06-20T08:07:48.000Z</time>
      </trkpt>
      <trkpt lat="50.75104" lon="3.48514">
        <ele>91.02</ele>
        <time>2021-06-20T08:07:49.000Z</time>
      </trkpt>
      <trkpt lat="50.75096" lon="3.48508">
        <ele>90.59</ele>
        <time>2021-06-20T08:07:50.000Z</time>
      </trkpt>
      <trkpt lat="50.75089" lon="3.48501">
        <ele>90.01</ele>
        <time>2021-06-20T08:07:51.000Z</time>
      </trkpt>
      <trkpt lat="50.75013" lon="3.48427">
        <ele>84.5</ele>
        <time>2021-06-20T08:08:01.000Z</time>
      </trkpt>
      <trkpt lat="50.75005" lon="3.48424">
        <ele>84.46</ele>
        <time>2021-06-20T08:08:02.000Z</time>
      </trkpt>
      <trkpt lat="50.74999" lon="3.4842">
        <ele>84.07</ele>
        <time>2021-06-20T08:08:03.000Z</time>
      </trkpt>
      <trkpt lat="50.74994" lon="3.48417">
        <ele>83.6</ele>
        <time>2021-06-20T08:08:04.000Z</time>
      </trkpt>
      <trkpt lat="50.7499" lon="3.48414">
        <ele>83.51</ele>
        <time>2021-06-20T08:08:05.000Z</time>
      </trkpt>
      <trkpt lat="50.74983" lon="3.48413">
        <ele>83.24</ele>
        <time>2021-06-20T08:08:07.000Z</time>
      </trkpt>
      <trkpt lat="50.74979" lon="3.48421">
        <ele>82.74</ele>
        <time>2021-06-20T08:08:11.000Z</time>
      </trkpt>
      <trkpt lat="50.74976" lon="3.48429">
        <ele>82.79</ele>
        <time>2021-06-20T08:08:13.000Z</time>
      </trkpt>
      <trkpt lat="50.74972" lon="3.48441">
        <ele>82.65</ele>
        <time>2021-06-20T08:08:15.000Z</time>
      </trkpt>
      <trkpt lat="50.7497" lon="3.48448">
        <ele>82.7</ele>
        <time>2021-06-20T08:08:16.000Z</time>
      </trkpt>
      <trkpt lat="50.74968" lon="3.48456">
        <ele>83.09</ele>
        <time>2021-06-20T08:08:17.000Z</time>
      </trkpt>
      <trkpt lat="50.74967" lon="3.48464">
        <ele>83.15</ele>
        <time>2021-06-20T08:08:18.000Z</time>
      </trkpt>
      <trkpt lat="50.74965" lon="3.48471">
        <ele>83.2</ele>
        <time>2021-06-20T08:08:19.000Z</time>
      </trkpt>
      <trkpt lat="50.74963" lon="3.48479">
        <ele>83.27</ele>
        <time>2021-06-20T08:08:20.000Z</time>
      </trkpt>
      <trkpt lat="50.74961" lon="3.48486">
        <ele>83.25</ele>
        <time>2021-06-20T08:08:21.000Z</time>
      </trkpt>
      <trkpt lat="50.74959" lon="3.485">
        <ele>82.99</ele>
        <time>2021-06-20T08:08:23.000Z</time>
      </trkpt>
      <trkpt lat="50.74958" lon="3.48507">
        <ele>83.25</ele>
        <time>2021-06-20T08:08:24.000Z</time>
      </trkpt>
      <trkpt lat="50.74957" lon="3.48515">
        <ele>83.5</ele>
        <time>2021-06-20T08:08:25.000Z</time>
      </trkpt>
      <trkpt lat="50.74955" lon="3.48524">
        <ele>83.5</ele>
        <time>2021-06-20T08:08:26.000Z</time>
      </trkpt>
      <trkpt lat="50.74954" lon="3.48532">
        <ele>83.31</ele>
        <time>2021-06-20T08:08:27.000Z</time>
      </trkpt>
      <trkpt lat="50.74952" lon="3.48541">
        <ele>83.17</ele>
        <time>2021-06-20T08:08:28.000Z</time>
      </trkpt>
      <trkpt lat="50.7495" lon="3.4855">
        <ele>83.66</ele>
        <time>2021-06-20T08:08:29.000Z</time>
      </trkpt>
      <trkpt lat="50.74948" lon="3.48558">
        <ele>83.88</ele>
        <time>2021-06-20T08:08:30.000Z</time>
      </trkpt>
      <trkpt lat="50.74946" lon="3.48566">
        <ele>83.67</ele>
        <time>2021-06-20T08:08:31.000Z</time>
      </trkpt>
      <trkpt lat="50.74943" lon="3.48575">
        <ele>83.49</ele>
        <time>2021-06-20T08:08:32.000Z</time>
      </trkpt>
      <trkpt lat="50.74941" lon="3.48583">
        <ele>83.02</ele>
        <time>2021-06-20T08:08:33.000Z</time>
      </trkpt>
      <trkpt lat="50.74939" lon="3.48592">
        <ele>82.28</ele>
        <time>2021-06-20T08:08:34.000Z</time>
      </trkpt>
      <trkpt lat="50.74935" lon="3.48597">
        <ele>81.83</ele>
        <time>2021-06-20T08:08:35.000Z</time>
      </trkpt>
      <trkpt lat="50.7493" lon="3.48601">
        <ele>81.25</ele>
        <time>2021-06-20T08:08:36.000Z</time>
      </trkpt>
      <trkpt lat="50.74925" lon="3.48602">
        <ele>80.74</ele>
        <time>2021-06-20T08:08:37.000Z</time>
      </trkpt>
      <trkpt lat="50.74918" lon="3.48604">
        <ele>80.09</ele>
        <time>2021-06-20T08:08:38.000Z</time>
      </trkpt>
      <trkpt lat="50.74912" lon="3.48605">
        <ele>79.89</ele>
        <time>2021-06-20T08:08:39.000Z</time>
      </trkpt>
      <trkpt lat="50.74905" lon="3.48605">
        <ele>79.51</ele>
        <time>2021-06-20T08:08:40.000Z</time>
      </trkpt>
      <trkpt lat="50.74898" lon="3.48605">
        <ele>79.19</ele>
        <time>2021-06-20T08:08:41.000Z</time>
      </trkpt>
      <trkpt lat="50.74891" lon="3.48606">
        <ele>78.72</ele>
        <time>2021-06-20T08:08:42.000Z</time>
      </trkpt>
      <trkpt lat="50.74884" lon="3.48606">
        <ele>78.04</ele>
        <time>2021-06-20T08:08:43.000Z</time>
      </trkpt>
      <trkpt lat="50.74877" lon="3.48607">
        <ele>77.68</ele>
        <time>2021-06-20T08:08:44.000Z</time>
      </trkpt>
      <trkpt lat="50.7487" lon="3.48607">
        <ele>77.3</ele>
        <time>2021-06-20T08:08:45.000Z</time>
      </trkpt>
      <trkpt lat="50.74864" lon="3.48607">
        <ele>76.66</ele>
        <time>2021-06-20T08:08:46.000Z</time>
      </trkpt>
      <trkpt lat="50.74857" lon="3.48608">
        <ele>76.11</ele>
        <time>2021-06-20T08:08:47.000Z</time>
      </trkpt>
      <trkpt lat="50.74851" lon="3.48608">
        <ele>76.07</ele>
        <time>2021-06-20T08:08:48.000Z</time>
      </trkpt>
      <trkpt lat="50.74844" lon="3.48609">
        <ele>75.56</ele>
        <time>2021-06-20T08:08:49.000Z</time>
      </trkpt>
      <trkpt lat="50.74837" lon="3.48609">
        <ele>75.09</ele>
        <time>2021-06-20T08:08:50.000Z</time>
      </trkpt>
      <trkpt lat="50.7483" lon="3.48608">
        <ele>74.77</ele>
        <time>2021-06-20T08:08:51.000Z</time>
      </trkpt>
      <trkpt lat="50.74823" lon="3.48607">
        <ele>74.27</ele>
        <time>2021-06-20T08:08:52.000Z</time>
      </trkpt>
      <trkpt lat="50.74816" lon="3.48605">
        <ele>73.76</ele>
        <time>2021-06-20T08:08:53.000Z</time>
      </trkpt>
      <trkpt lat="50.74808" lon="3.48601">
        <ele>72.92</ele>
        <time>2021-06-20T08:08:54.000Z</time>
      </trkpt>
      <trkpt lat="50.74801" lon="3.48598">
        <ele>72.67</ele>
        <time>2021-06-20T08:08:55.000Z</time>
      </trkpt>
      <trkpt lat="50.74793" lon="3.48595">
        <ele>72.6</ele>
        <time>2021-06-20T08:08:56.000Z</time>
      </trkpt>
      <trkpt lat="50.74785" lon="3.48592">
        <ele>72.4</ele>
        <time>2021-06-20T08:08:57.000Z</time>
      </trkpt>
      <trkpt lat="50.74778" lon="3.48589">
        <ele>72.62</ele>
        <time>2021-06-20T08:08:58.000Z</time>
      </trkpt>
      <trkpt lat="50.7477" lon="3.48585">
        <ele>72.48</ele>
        <time>2021-06-20T08:08:59.000Z</time>
      </trkpt>
      <trkpt lat="50.74762" lon="3.48581">
        <ele>72.17</ele>
        <time>2021-06-20T08:09:00.000Z</time>
      </trkpt>
      <trkpt lat="50.74754" lon="3.48577">
        <ele>72</ele>
        <time>2021-06-20T08:09:01.000Z</time>
      </trkpt>
      <trkpt lat="50.74746" lon="3.48574">
        <ele>71.91</ele>
        <time>2021-06-20T08:09:02.000Z</time>
      </trkpt>
      <trkpt lat="50.74739" lon="3.4857">
        <ele>71.5</ele>
        <time>2021-06-20T08:09:03.000Z</time>
      </trkpt>
      <trkpt lat="50.74732" lon="3.48567">
        <ele>71.4</ele>
        <time>2021-06-20T08:09:04.000Z</time>
      </trkpt>
      <trkpt lat="50.74725" lon="3.48564">
        <ele>71.2</ele>
        <time>2021-06-20T08:09:05.000Z</time>
      </trkpt>
      <trkpt lat="50.74719" lon="3.48561">
        <ele>70.83</ele>
        <time>2021-06-20T08:09:06.000Z</time>
      </trkpt>
      <trkpt lat="50.74714" lon="3.48559">
        <ele>70.53</ele>
        <time>2021-06-20T08:09:07.000Z</time>
      </trkpt>
      <trkpt lat="50.74706" lon="3.48557">
        <ele>70.05</ele>
        <time>2021-06-20T08:09:09.000Z</time>
      </trkpt>
      <trkpt lat="50.74702" lon="3.48552">
        <ele>69.83</ele>
        <time>2021-06-20T08:09:11.000Z</time>
      </trkpt>
      <trkpt lat="50.74696" lon="3.48545">
        <ele>69.92</ele>
        <time>2021-06-20T08:09:13.000Z</time>
      </trkpt>
      <trkpt lat="50.74688" lon="3.48538">
        <ele>69.84</ele>
        <time>2021-06-20T08:09:15.000Z</time>
      </trkpt>
      <trkpt lat="50.74684" lon="3.48534">
        <ele>69.69</ele>
        <time>2021-06-20T08:09:16.000Z</time>
      </trkpt>
      <trkpt lat="50.74678" lon="3.48531">
        <ele>70.01</ele>
        <time>2021-06-20T08:09:17.000Z</time>
      </trkpt>
      <trkpt lat="50.74672" lon="3.48527">
        <ele>70.54</ele>
        <time>2021-06-20T08:09:18.000Z</time>
      </trkpt>
      <trkpt lat="50.74666" lon="3.48524">
        <ele>71.16</ele>
        <time>2021-06-20T08:09:19.000Z</time>
      </trkpt>
      <trkpt lat="50.74657" lon="3.48518">
        <ele>70.26</ele>
        <time>2021-06-20T08:09:20.000Z</time>
      </trkpt>
      <trkpt lat="50.7465" lon="3.48512">
        <ele>70.4</ele>
        <time>2021-06-20T08:09:21.000Z</time>
      </trkpt>
      <trkpt lat="50.74642" lon="3.48506">
        <ele>69.82</ele>
        <time>2021-06-20T08:09:22.000Z</time>
      </trkpt>
      <trkpt lat="50.74635" lon="3.48501">
        <ele>69.96</ele>
        <time>2021-06-20T08:09:23.000Z</time>
      </trkpt>
      <trkpt lat="50.74628" lon="3.48495">
        <ele>69.18</ele>
        <time>2021-06-20T08:09:24.000Z</time>
      </trkpt>
      <trkpt lat="50.74621" lon="3.48489">
        <ele>68.56</ele>
        <time>2021-06-20T08:09:25.000Z</time>
      </trkpt>
      <trkpt lat="50.74613" lon="3.48483">
        <ele>68.4</ele>
        <time>2021-06-20T08:09:26.000Z</time>
      </trkpt>
      <trkpt lat="50.74605" lon="3.48477">
        <ele>68.06</ele>
        <time>2021-06-20T08:09:27.000Z</time>
      </trkpt>
      <trkpt lat="50.74597" lon="3.48471">
        <ele>67.86</ele>
        <time>2021-06-20T08:09:28.000Z</time>
      </trkpt>
      <trkpt lat="50.74589" lon="3.48464">
        <ele>67.66</ele>
        <time>2021-06-20T08:09:29.000Z</time>
      </trkpt>
      <trkpt lat="50.74581" lon="3.48459">
        <ele>67.35</ele>
        <time>2021-06-20T08:09:30.000Z</time>
      </trkpt>
      <trkpt lat="50.74573" lon="3.48453">
        <ele>67.12</ele>
        <time>2021-06-20T08:09:31.000Z</time>
      </trkpt>
      <trkpt lat="50.74565" lon="3.48447">
        <ele>67.01</ele>
        <time>2021-06-20T08:09:32.000Z</time>
      </trkpt>
      <trkpt lat="50.74557" lon="3.48441">
        <ele>67.04</ele>
        <time>2021-06-20T08:09:33.000Z</time>
      </trkpt>
      <trkpt lat="50.7455" lon="3.48436">
        <ele>66.74</ele>
        <time>2021-06-20T08:09:34.000Z</time>
      </trkpt>
      <trkpt lat="50.74542" lon="3.48431">
        <ele>66.6</ele>
        <time>2021-06-20T08:09:35.000Z</time>
      </trkpt>
      <trkpt lat="50.74535" lon="3.48426">
        <ele>66.31</ele>
        <time>2021-06-20T08:09:36.000Z</time>
      </trkpt>
      <trkpt lat="50.74529" lon="3.48418">
        <ele>66.14</ele>
        <time>2021-06-20T08:09:37.000Z</time>
      </trkpt>
      <trkpt lat="50.74525" lon="3.48409">
        <ele>66.4</ele>
        <time>2021-06-20T08:09:38.000Z</time>
      </trkpt>
      <trkpt lat="50.74523" lon="3.48398">
        <ele>66.6</ele>
        <time>2021-06-20T08:09:39.000Z</time>
      </trkpt>
      <trkpt lat="50.74523" lon="3.48387">
        <ele>66.64</ele>
        <time>2021-06-20T08:09:40.000Z</time>
      </trkpt>
      <trkpt lat="50.74526" lon="3.48377">
        <ele>66.16</ele>
        <time>2021-06-20T08:09:41.000Z</time>
      </trkpt>
      <trkpt lat="50.74527" lon="3.48367">
        <ele>65.81</ele>
        <time>2021-06-20T08:09:42.000Z</time>
      </trkpt>
      <trkpt lat="50.74529" lon="3.48357">
        <ele>65.64</ele>
        <time>2021-06-20T08:09:43.000Z</time>
      </trkpt>
      <trkpt lat="50.7453" lon="3.48347">
        <ele>65.42</ele>
        <time>2021-06-20T08:09:44.000Z</time>
      </trkpt>
      <trkpt lat="50.7453" lon="3.48338">
        <ele>64.99</ele>
        <time>2021-06-20T08:09:45.000Z</time>
      </trkpt>
      <trkpt lat="50.74529" lon="3.48329">
        <ele>64.88</ele>
        <time>2021-06-20T08:09:46.000Z</time>
      </trkpt>
      <trkpt lat="50.74525" lon="3.48322">
        <ele>65.01</ele>
        <time>2021-06-20T08:09:47.000Z</time>
      </trkpt>
      <trkpt lat="50.74521" lon="3.48318">
        <ele>64.88</ele>
        <time>2021-06-20T08:09:48.000Z</time>
      </trkpt>
      <trkpt lat="50.74516" lon="3.48314">
        <ele>64.85</ele>
        <time>2021-06-20T08:09:49.000Z</time>
      </trkpt>
      <trkpt lat="50.74512" lon="3.48309">
        <ele>64.89</ele>
        <time>2021-06-20T08:09:50.000Z</time>
      </trkpt>
      <trkpt lat="50.74508" lon="3.48305">
        <ele>65.29</ele>
        <time>2021-06-20T08:09:51.000Z</time>
      </trkpt>
      <trkpt lat="50.74503" lon="3.48302">
        <ele>65.34</ele>
        <time>2021-06-20T08:09:52.000Z</time>
      </trkpt>
      <trkpt lat="50.74499" lon="3.48299">
        <ele>65.26</ele>
        <time>2021-06-20T08:09:53.000Z</time>
      </trkpt>
      <trkpt lat="50.74494" lon="3.48297">
        <ele>65.1</ele>
        <time>2021-06-20T08:09:54.000Z</time>
      </trkpt>
      <trkpt lat="50.74489" lon="3.48296">
        <ele>65.46</ele>
        <time>2021-06-20T08:09:55.000Z</time>
      </trkpt>
      <trkpt lat="50.74485" lon="3.48295">
        <ele>65.43</ele>
        <time>2021-06-20T08:09:56.000Z</time>
      </trkpt>
      <trkpt lat="50.74476" lon="3.48292">
        <ele>65.71</ele>
        <time>2021-06-20T08:09:58.000Z</time>
      </trkpt>
      <trkpt lat="50.74469" lon="3.4829">
        <ele>65.6</ele>
        <time>2021-06-20T08:10:00.000Z</time>
      </trkpt>
      <trkpt lat="50.74461" lon="3.48287">
        <ele>65.39</ele>
        <time>2021-06-20T08:10:02.000Z</time>
      </trkpt>
      <trkpt lat="50.74454" lon="3.48283">
        <ele>65.44</ele>
        <time>2021-06-20T08:10:04.000Z</time>
      </trkpt>
      <trkpt lat="50.74446" lon="3.4828">
        <ele>65.55</ele>
        <time>2021-06-20T08:10:06.000Z</time>
      </trkpt>
      <trkpt lat="50.74441" lon="3.48278">
        <ele>65.52</ele>
        <time>2021-06-20T08:10:08.000Z</time>
      </trkpt>
      <trkpt lat="50.74441" lon="3.48278">
        <ele>65.52</ele>
        <time>2021-06-20T08:10:08.001Z</time>
      </trkpt>
      <trkpt lat="50.74437" lon="3.48272">
        <ele>64.66</ele>
        <time>2021-06-20T08:10:21.000Z</time>
      </trkpt>
      <trkpt lat="50.74437" lon="3.48262">
        <ele>64.04</ele>
        <time>2021-06-20T08:10:23.000Z</time>
      </trkpt>
      <trkpt lat="50.7444" lon="3.4825">
        <ele>63.76</ele>
        <time>2021-06-20T08:10:25.000Z</time>
      </trkpt>
      <trkpt lat="50.7444" lon="3.48238">
        <ele>63.43</ele>
        <time>2021-06-20T08:10:27.000Z</time>
      </trkpt>
      <trkpt lat="50.74442" lon="3.48224">
        <ele>63.52</ele>
        <time>2021-06-20T08:10:29.000Z</time>
      </trkpt>
      <trkpt lat="50.74441" lon="3.48216">
        <ele>63.63</ele>
        <time>2021-06-20T08:10:30.000Z</time>
      </trkpt>
      <trkpt lat="50.74442" lon="3.48208">
        <ele>63.47</ele>
        <time>2021-06-20T08:10:31.000Z</time>
      </trkpt>
      <trkpt lat="50.74442" lon="3.482">
        <ele>63.41</ele>
        <time>2021-06-20T08:10:32.000Z</time>
      </trkpt>
      <trkpt lat="50.74442" lon="3.48192">
        <ele>62.88</ele>
        <time>2021-06-20T08:10:33.000Z</time>
      </trkpt>
      <trkpt lat="50.74443" lon="3.48184">
        <ele>62.34</ele>
        <time>2021-06-20T08:10:34.000Z</time>
      </trkpt>
      <trkpt lat="50.74443" lon="3.48174">
        <ele>62.74</ele>
        <time>2021-06-20T08:10:35.000Z</time>
      </trkpt>
      <trkpt lat="50.74443" lon="3.48166">
        <ele>62.18</ele>
        <time>2021-06-20T08:10:36.000Z</time>
      </trkpt>
      <trkpt lat="50.74443" lon="3.48159">
        <ele>62.02</ele>
        <time>2021-06-20T08:10:37.000Z</time>
      </trkpt>
      <trkpt lat="50.74443" lon="3.48151">
        <ele>62.08</ele>
        <time>2021-06-20T08:10:38.000Z</time>
      </trkpt>
      <trkpt lat="50.74444" lon="3.48144">
        <ele>60.64</ele>
        <time>2021-06-20T08:10:39.000Z</time>
      </trkpt>
      <trkpt lat="50.74443" lon="3.48134">
        <ele>60.46</ele>
        <time>2021-06-20T08:10:40.000Z</time>
      </trkpt>
      <trkpt lat="50.74442" lon="3.48118">
        <ele>60.47</ele>
        <time>2021-06-20T08:10:42.000Z</time>
      </trkpt>
      <trkpt lat="50.74442" lon="3.48111">
        <ele>61.36</ele>
        <time>2021-06-20T08:10:43.000Z</time>
      </trkpt>
      <trkpt lat="50.74443" lon="3.481">
        <ele>62.66</ele>
        <time>2021-06-20T08:10:44.000Z</time>
      </trkpt>
      <trkpt lat="50.74443" lon="3.48092">
        <ele>62.5</ele>
        <time>2021-06-20T08:10:45.000Z</time>
      </trkpt>
      <trkpt lat="50.74442" lon="3.48085">
        <ele>61.33</ele>
        <time>2021-06-20T08:10:46.000Z</time>
      </trkpt>
      <trkpt lat="50.74444" lon="3.48077">
        <ele>60.63</ele>
        <time>2021-06-20T08:10:47.000Z</time>
      </trkpt>
      <trkpt lat="50.74444" lon="3.48066">
        <ele>60.47</ele>
        <time>2021-06-20T08:10:49.000Z</time>
      </trkpt>
      <trkpt lat="50.74443" lon="3.4805">
        <ele>60.36</ele>
        <time>2021-06-20T08:10:51.000Z</time>
      </trkpt>
      <trkpt lat="50.74442" lon="3.48041">
        <ele>60.58</ele>
        <time>2021-06-20T08:10:52.000Z</time>
      </trkpt>
      <trkpt lat="50.74442" lon="3.48031">
        <ele>60.79</ele>
        <time>2021-06-20T08:10:54.000Z</time>
      </trkpt>
      <trkpt lat="50.74443" lon="3.48015">
        <ele>61.39</ele>
        <time>2021-06-20T08:10:56.000Z</time>
      </trkpt>
      <trkpt lat="50.74442" lon="3.48008">
        <ele>60.79</ele>
        <time>2021-06-20T08:10:57.000Z</time>
      </trkpt>
      <trkpt lat="50.74443" lon="3.48">
        <ele>59.58</ele>
        <time>2021-06-20T08:10:58.000Z</time>
      </trkpt>
      <trkpt lat="50.74441" lon="3.47988">
        <ele>58.36</ele>
        <time>2021-06-20T08:11:00.000Z</time>
      </trkpt>
      <trkpt lat="50.7444" lon="3.47981">
        <ele>58.96</ele>
        <time>2021-06-20T08:11:01.000Z</time>
      </trkpt>
      <trkpt lat="50.74438" lon="3.47968">
        <ele>59.3</ele>
        <time>2021-06-20T08:11:03.000Z</time>
      </trkpt>
      <trkpt lat="50.74437" lon="3.4796">
        <ele>58.43</ele>
        <time>2021-06-20T08:11:04.000Z</time>
      </trkpt>
      <trkpt lat="50.74435" lon="3.47946">
        <ele>58.95</ele>
        <time>2021-06-20T08:11:06.000Z</time>
      </trkpt>
      <trkpt lat="50.74433" lon="3.47939">
        <ele>59.12</ele>
        <time>2021-06-20T08:11:07.000Z</time>
      </trkpt>
      <trkpt lat="50.74433" lon="3.4793">
        <ele>59.36</ele>
        <time>2021-06-20T08:11:08.000Z</time>
      </trkpt>
      <trkpt lat="50.74433" lon="3.47923">
        <ele>57.95</ele>
        <time>2021-06-20T08:11:09.000Z</time>
      </trkpt>
      <trkpt lat="50.74431" lon="3.47915">
        <ele>59.21</ele>
        <time>2021-06-20T08:11:10.000Z</time>
      </trkpt>
      <trkpt lat="50.74431" lon="3.47907">
        <ele>59.4</ele>
        <time>2021-06-20T08:11:11.000Z</time>
      </trkpt>
      <trkpt lat="50.7443" lon="3.479">
        <ele>59.44</ele>
        <time>2021-06-20T08:11:12.000Z</time>
      </trkpt>
      <trkpt lat="50.74427" lon="3.47887">
        <ele>60.05</ele>
        <time>2021-06-20T08:11:14.000Z</time>
      </trkpt>
      <trkpt lat="50.74425" lon="3.4788">
        <ele>60.75</ele>
        <time>2021-06-20T08:11:15.000Z</time>
      </trkpt>
      <trkpt lat="50.74423" lon="3.47873">
        <ele>61.48</ele>
        <time>2021-06-20T08:11:16.000Z</time>
      </trkpt>
      <trkpt lat="50.74421" lon="3.47866">
        <ele>61.26</ele>
        <time>2021-06-20T08:11:17.000Z</time>
      </trkpt>
      <trkpt lat="50.7442" lon="3.47859">
        <ele>61.17</ele>
        <time>2021-06-20T08:11:18.000Z</time>
      </trkpt>
      <trkpt lat="50.74418" lon="3.47851">
        <ele>61.43</ele>
        <time>2021-06-20T08:11:19.000Z</time>
      </trkpt>
      <trkpt lat="50.74417" lon="3.47844">
        <ele>61.06</ele>
        <time>2021-06-20T08:11:20.000Z</time>
      </trkpt>
      <trkpt lat="50.74415" lon="3.47836">
        <ele>61.77</ele>
        <time>2021-06-20T08:11:21.000Z</time>
      </trkpt>
      <trkpt lat="50.74413" lon="3.47829">
        <ele>60.52</ele>
        <time>2021-06-20T08:11:22.000Z</time>
      </trkpt>
      <trkpt lat="50.74411" lon="3.47821">
        <ele>60.97</ele>
        <time>2021-06-20T08:11:23.000Z</time>
      </trkpt>
      <trkpt lat="50.74409" lon="3.47813">
        <ele>61.41</ele>
        <time>2021-06-20T08:11:24.000Z</time>
      </trkpt>
      <trkpt lat="50.74406" lon="3.47805">
        <ele>61.41</ele>
        <time>2021-06-20T08:11:25.000Z</time>
      </trkpt>
      <trkpt lat="50.74404" lon="3.47797">
        <ele>62.04</ele>
        <time>2021-06-20T08:11:26.000Z</time>
      </trkpt>
      <trkpt lat="50.74402" lon="3.47789">
        <ele>62.03</ele>
        <time>2021-06-20T08:11:27.000Z</time>
      </trkpt>
      <trkpt lat="50.74399" lon="3.47783">
        <ele>62.12</ele>
        <time>2021-06-20T08:11:28.000Z</time>
      </trkpt>
      <trkpt lat="50.74396" lon="3.47775">
        <ele>61.43</ele>
        <time>2021-06-20T08:11:29.000Z</time>
      </trkpt>
      <trkpt lat="50.74393" lon="3.47768">
        <ele>61.4</ele>
        <time>2021-06-20T08:11:30.000Z</time>
      </trkpt>
      <trkpt lat="50.7439" lon="3.4776">
        <ele>60.7</ele>
        <time>2021-06-20T08:11:31.000Z</time>
      </trkpt>
      <trkpt lat="50.74388" lon="3.47751">
        <ele>60.87</ele>
        <time>2021-06-20T08:11:32.000Z</time>
      </trkpt>
      <trkpt lat="50.74385" lon="3.47744">
        <ele>61.15</ele>
        <time>2021-06-20T08:11:33.000Z</time>
      </trkpt>
      <trkpt lat="50.74382" lon="3.47736">
        <ele>62.02</ele>
        <time>2021-06-20T08:11:34.000Z</time>
      </trkpt>
      <trkpt lat="50.74379" lon="3.47728">
        <ele>62.32</ele>
        <time>2021-06-20T08:11:35.000Z</time>
      </trkpt>
      <trkpt lat="50.74376" lon="3.47721">
        <ele>62.2</ele>
        <time>2021-06-20T08:11:36.000Z</time>
      </trkpt>
      <trkpt lat="50.74373" lon="3.47713">
        <ele>62.54</ele>
        <time>2021-06-20T08:11:37.000Z</time>
      </trkpt>
      <trkpt lat="50.7437" lon="3.47706">
        <ele>62.59</ele>
        <time>2021-06-20T08:11:38.000Z</time>
      </trkpt>
      <trkpt lat="50.74368" lon="3.47699">
        <ele>62.5</ele>
        <time>2021-06-20T08:11:39.000Z</time>
      </trkpt>
      <trkpt lat="50.74365" lon="3.47691">
        <ele>62.6</ele>
        <time>2021-06-20T08:11:40.000Z</time>
      </trkpt>
      <trkpt lat="50.74362" lon="3.47683">
        <ele>62.96</ele>
        <time>2021-06-20T08:11:41.000Z</time>
      </trkpt>
      <trkpt lat="50.74359" lon="3.47676">
        <ele>62.94</ele>
        <time>2021-06-20T08:11:42.000Z</time>
      </trkpt>
      <trkpt lat="50.74356" lon="3.47668">
        <ele>63.04</ele>
        <time>2021-06-20T08:11:43.000Z</time>
      </trkpt>
      <trkpt lat="50.74353" lon="3.47662">
        <ele>63.19</ele>
        <time>2021-06-20T08:11:44.000Z</time>
      </trkpt>
      <trkpt lat="50.7435" lon="3.47654">
        <ele>63.24</ele>
        <time>2021-06-20T08:11:45.000Z</time>
      </trkpt>
      <trkpt lat="50.74347" lon="3.47647">
        <ele>63.19</ele>
        <time>2021-06-20T08:11:46.000Z</time>
      </trkpt>
      <trkpt lat="50.74344" lon="3.4764">
        <ele>63</ele>
        <time>2021-06-20T08:11:47.000Z</time>
      </trkpt>
      <trkpt lat="50.7434" lon="3.47633">
        <ele>63.19</ele>
        <time>2021-06-20T08:11:48.000Z</time>
      </trkpt>
      <trkpt lat="50.74336" lon="3.47627">
        <ele>63.07</ele>
        <time>2021-06-20T08:11:49.000Z</time>
      </trkpt>
      <trkpt lat="50.74332" lon="3.4762">
        <ele>63.46</ele>
        <time>2021-06-20T08:11:50.000Z</time>
      </trkpt>
      <trkpt lat="50.74329" lon="3.47613">
        <ele>63.72</ele>
        <time>2021-06-20T08:11:51.000Z</time>
      </trkpt>
      <trkpt lat="50.74325" lon="3.47606">
        <ele>63.87</ele>
        <time>2021-06-20T08:11:52.000Z</time>
      </trkpt>
      <trkpt lat="50.74321" lon="3.47598">
        <ele>63.59</ele>
        <time>2021-06-20T08:11:53.000Z</time>
      </trkpt>
      <trkpt lat="50.74317" lon="3.47592">
        <ele>63.54</ele>
        <time>2021-06-20T08:11:54.000Z</time>
      </trkpt>
      <trkpt lat="50.74312" lon="3.47585">
        <ele>63.34</ele>
        <time>2021-06-20T08:11:55.000Z</time>
      </trkpt>
      <trkpt lat="50.74308" lon="3.47579">
        <ele>63.29</ele>
        <time>2021-06-20T08:11:56.000Z</time>
      </trkpt>
      <trkpt lat="50.74304" lon="3.47572">
        <ele>63.1</ele>
        <time>2021-06-20T08:11:57.000Z</time>
      </trkpt>
      <trkpt lat="50.74299" lon="3.47567">
        <ele>62.65</ele>
        <time>2021-06-20T08:11:58.000Z</time>
      </trkpt>
      <trkpt lat="50.74294" lon="3.47562">
        <ele>63.06</ele>
        <time>2021-06-20T08:11:59.000Z</time>
      </trkpt>
      <trkpt lat="50.7429" lon="3.47555">
        <ele>62.92</ele>
        <time>2021-06-20T08:12:00.000Z</time>
      </trkpt>
      <trkpt lat="50.74285" lon="3.4755">
        <ele>62.93</ele>
        <time>2021-06-20T08:12:01.000Z</time>
      </trkpt>
      <trkpt lat="50.74281" lon="3.47544">
        <ele>63.15</ele>
        <time>2021-06-20T08:12:02.000Z</time>
      </trkpt>
      <trkpt lat="50.74277" lon="3.47536">
        <ele>62.91</ele>
        <time>2021-06-20T08:12:03.000Z</time>
      </trkpt>
      <trkpt lat="50.74273" lon="3.4753">
        <ele>62.91</ele>
        <time>2021-06-20T08:12:04.000Z</time>
      </trkpt>
      <trkpt lat="50.74268" lon="3.47524">
        <ele>62.6</ele>
        <time>2021-06-20T08:12:05.000Z</time>
      </trkpt>
      <trkpt lat="50.74264" lon="3.47518">
        <ele>62.27</ele>
        <time>2021-06-20T08:12:06.000Z</time>
      </trkpt>
      <trkpt lat="50.74259" lon="3.47513">
        <ele>62.54</ele>
        <time>2021-06-20T08:12:07.000Z</time>
      </trkpt>
      <trkpt lat="50.74254" lon="3.47508">
        <ele>62.43</ele>
        <time>2021-06-20T08:12:08.000Z</time>
      </trkpt>
      <trkpt lat="50.74249" lon="3.47502">
        <ele>62.72</ele>
        <time>2021-06-20T08:12:09.000Z</time>
      </trkpt>
      <trkpt lat="50.74245" lon="3.47496">
        <ele>62.69</ele>
        <time>2021-06-20T08:12:10.000Z</time>
      </trkpt>
      <trkpt lat="50.7424" lon="3.47491">
        <ele>62.64</ele>
        <time>2021-06-20T08:12:11.000Z</time>
      </trkpt>
      <trkpt lat="50.74235" lon="3.47485">
        <ele>62.94</ele>
        <time>2021-06-20T08:12:12.000Z</time>
      </trkpt>
      <trkpt lat="50.7423" lon="3.4748">
        <ele>63.27</ele>
        <time>2021-06-20T08:12:13.000Z</time>
      </trkpt>
      <trkpt lat="50.74225" lon="3.47473">
        <ele>62.53</ele>
        <time>2021-06-20T08:12:14.000Z</time>
      </trkpt>
      <trkpt lat="50.74221" lon="3.47467">
        <ele>63.05</ele>
        <time>2021-06-20T08:12:15.000Z</time>
      </trkpt>
      <trkpt lat="50.74216" lon="3.47461">
        <ele>62.86</ele>
        <time>2021-06-20T08:12:16.000Z</time>
      </trkpt>
      <trkpt lat="50.74211" lon="3.47455">
        <ele>63.02</ele>
        <time>2021-06-20T08:12:17.000Z</time>
      </trkpt>
      <trkpt lat="50.74206" lon="3.4745">
        <ele>63.28</ele>
        <time>2021-06-20T08:12:18.000Z</time>
      </trkpt>
      <trkpt lat="50.74202" lon="3.47443">
        <ele>63.57</ele>
        <time>2021-06-20T08:12:19.000Z</time>
      </trkpt>
      <trkpt lat="50.74197" lon="3.47438">
        <ele>63.86</ele>
        <time>2021-06-20T08:12:20.000Z</time>
      </trkpt>
      <trkpt lat="50.74192" lon="3.47432">
        <ele>64.3</ele>
        <time>2021-06-20T08:12:21.000Z</time>
      </trkpt>
      <trkpt lat="50.74188" lon="3.47427">
        <ele>64.1</ele>
        <time>2021-06-20T08:12:22.000Z</time>
      </trkpt>
      <trkpt lat="50.74183" lon="3.47421">
        <ele>63.99</ele>
        <time>2021-06-20T08:12:23.000Z</time>
      </trkpt>
      <trkpt lat="50.74179" lon="3.47416">
        <ele>63.2</ele>
        <time>2021-06-20T08:12:24.000Z</time>
      </trkpt>
      <trkpt lat="50.74174" lon="3.4741">
        <ele>62.82</ele>
        <time>2021-06-20T08:12:25.000Z</time>
      </trkpt>
      <trkpt lat="50.7417" lon="3.47406">
        <ele>62.7</ele>
        <time>2021-06-20T08:12:26.000Z</time>
      </trkpt>
      <trkpt lat="50.74166" lon="3.474">
        <ele>62.82</ele>
        <time>2021-06-20T08:12:27.000Z</time>
      </trkpt>
      <trkpt lat="50.74161" lon="3.47394">
        <ele>62.64</ele>
        <time>2021-06-20T08:12:28.000Z</time>
      </trkpt>
      <trkpt lat="50.74156" lon="3.47388">
        <ele>62.56</ele>
        <time>2021-06-20T08:12:29.000Z</time>
      </trkpt>
      <trkpt lat="50.74151" lon="3.47381">
        <ele>62.52</ele>
        <time>2021-06-20T08:12:30.000Z</time>
      </trkpt>
      <trkpt lat="50.74147" lon="3.47375">
        <ele>62.14</ele>
        <time>2021-06-20T08:12:31.000Z</time>
      </trkpt>
      <trkpt lat="50.74142" lon="3.47369">
        <ele>61.9</ele>
        <time>2021-06-20T08:12:32.000Z</time>
      </trkpt>
      <trkpt lat="50.74138" lon="3.47364">
        <ele>61.65</ele>
        <time>2021-06-20T08:12:33.000Z</time>
      </trkpt>
      <trkpt lat="50.74134" lon="3.47359">
        <ele>61.82</ele>
        <time>2021-06-20T08:12:34.000Z</time>
      </trkpt>
      <trkpt lat="50.7413" lon="3.47354">
        <ele>61.9</ele>
        <time>2021-06-20T08:12:35.000Z</time>
      </trkpt>
      <trkpt lat="50.74125" lon="3.47348">
        <ele>62.16</ele>
        <time>2021-06-20T08:12:36.000Z</time>
      </trkpt>
      <trkpt lat="50.74121" lon="3.47343">
        <ele>61.71</ele>
        <time>2021-06-20T08:12:37.000Z</time>
      </trkpt>
      <trkpt lat="50.74116" lon="3.47338">
        <ele>62.24</ele>
        <time>2021-06-20T08:12:38.000Z</time>
      </trkpt>
      <trkpt lat="50.74111" lon="3.47332">
        <ele>62.8</ele>
        <time>2021-06-20T08:12:39.000Z</time>
      </trkpt>
      <trkpt lat="50.74106" lon="3.47326">
        <ele>62.72</ele>
        <time>2021-06-20T08:12:40.000Z</time>
      </trkpt>
      <trkpt lat="50.74101" lon="3.4732">
        <ele>62.68</ele>
        <time>2021-06-20T08:12:41.000Z</time>
      </trkpt>
      <trkpt lat="50.74096" lon="3.47315">
        <ele>62.51</ele>
        <time>2021-06-20T08:12:42.000Z</time>
      </trkpt>
      <trkpt lat="50.7409" lon="3.47308">
        <ele>62.86</ele>
        <time>2021-06-20T08:12:43.000Z</time>
      </trkpt>
      <trkpt lat="50.74085" lon="3.47302">
        <ele>62.98</ele>
        <time>2021-06-20T08:12:44.000Z</time>
      </trkpt>
      <trkpt lat="50.7408" lon="3.47296">
        <ele>63.15</ele>
        <time>2021-06-20T08:12:45.000Z</time>
      </trkpt>
      <trkpt lat="50.74075" lon="3.4729">
        <ele>63.16</ele>
        <time>2021-06-20T08:12:46.000Z</time>
      </trkpt>
      <trkpt lat="50.7407" lon="3.47283">
        <ele>63.09</ele>
        <time>2021-06-20T08:12:47.000Z</time>
      </trkpt>
      <trkpt lat="50.74065" lon="3.47277">
        <ele>63.33</ele>
        <time>2021-06-20T08:12:48.000Z</time>
      </trkpt>
      <trkpt lat="50.7406" lon="3.47271">
        <ele>63.52</ele>
        <time>2021-06-20T08:12:49.000Z</time>
      </trkpt>
      <trkpt lat="50.74055" lon="3.47266">
        <ele>63.92</ele>
        <time>2021-06-20T08:12:50.000Z</time>
      </trkpt>
      <trkpt lat="50.74049" lon="3.47259">
        <ele>63.93</ele>
        <time>2021-06-20T08:12:51.000Z</time>
      </trkpt>
      <trkpt lat="50.74044" lon="3.47253">
        <ele>64.14</ele>
        <time>2021-06-20T08:12:52.000Z</time>
      </trkpt>
      <trkpt lat="50.74039" lon="3.47247">
        <ele>64.11</ele>
        <time>2021-06-20T08:12:53.000Z</time>
      </trkpt>
      <trkpt lat="50.74035" lon="3.47242">
        <ele>64.09</ele>
        <time>2021-06-20T08:12:54.000Z</time>
      </trkpt>
      <trkpt lat="50.7403" lon="3.47237">
        <ele>63.94</ele>
        <time>2021-06-20T08:12:55.000Z</time>
      </trkpt>
      <trkpt lat="50.74025" lon="3.47231">
        <ele>64.03</ele>
        <time>2021-06-20T08:12:56.000Z</time>
      </trkpt>
      <trkpt lat="50.7402" lon="3.47225">
        <ele>64.09</ele>
        <time>2021-06-20T08:12:57.000Z</time>
      </trkpt>
      <trkpt lat="50.74015" lon="3.4722">
        <ele>64.22</ele>
        <time>2021-06-20T08:12:58.000Z</time>
      </trkpt>
      <trkpt lat="50.74011" lon="3.47214">
        <ele>64.12</ele>
        <time>2021-06-20T08:12:59.000Z</time>
      </trkpt>
      <trkpt lat="50.74007" lon="3.47209">
        <ele>64.31</ele>
        <time>2021-06-20T08:13:00.000Z</time>
      </trkpt>
      <trkpt lat="50.74002" lon="3.47204">
        <ele>64.72</ele>
        <time>2021-06-20T08:13:01.000Z</time>
      </trkpt>
      <trkpt lat="50.73998" lon="3.47199">
        <ele>64.59</ele>
        <time>2021-06-20T08:13:02.000Z</time>
      </trkpt>
      <trkpt lat="50.73994" lon="3.47194">
        <ele>64.43</ele>
        <time>2021-06-20T08:13:03.000Z</time>
      </trkpt>
      <trkpt lat="50.73991" lon="3.47189">
        <ele>64.22</ele>
        <time>2021-06-20T08:13:04.000Z</time>
      </trkpt>
      <trkpt lat="50.73991" lon="3.47178">
        <ele>63.96</ele>
        <time>2021-06-20T08:13:06.000Z</time>
      </trkpt>
      <trkpt lat="50.73996" lon="3.47172">
        <ele>64.13</ele>
        <time>2021-06-20T08:13:08.000Z</time>
      </trkpt>
      <trkpt lat="50.74002" lon="3.47166">
        <ele>63.88</ele>
        <time>2021-06-20T08:13:10.000Z</time>
      </trkpt>
      <trkpt lat="50.74009" lon="3.4716">
        <ele>63.46</ele>
        <time>2021-06-20T08:13:12.000Z</time>
      </trkpt>
      <trkpt lat="50.74013" lon="3.47157">
        <ele>63.2</ele>
        <time>2021-06-20T08:13:13.000Z</time>
      </trkpt>
      <trkpt lat="50.74018" lon="3.47155">
        <ele>63.41</ele>
        <time>2021-06-20T08:13:14.000Z</time>
      </trkpt>
      <trkpt lat="50.74027" lon="3.47153">
        <ele>63.45</ele>
        <time>2021-06-20T08:13:16.000Z</time>
      </trkpt>
      <trkpt lat="50.74032" lon="3.47152">
        <ele>63.33</ele>
        <time>2021-06-20T08:13:17.000Z</time>
      </trkpt>
      <trkpt lat="50.74036" lon="3.4715">
        <ele>63.29</ele>
        <time>2021-06-20T08:13:18.000Z</time>
      </trkpt>
      <trkpt lat="50.74041" lon="3.4715">
        <ele>63.1</ele>
        <time>2021-06-20T08:13:19.000Z</time>
      </trkpt>
      <trkpt lat="50.74046" lon="3.4715">
        <ele>62.82</ele>
        <time>2021-06-20T08:13:20.000Z</time>
      </trkpt>
      <trkpt lat="50.74051" lon="3.47149">
        <ele>62.51</ele>
        <time>2021-06-20T08:13:21.000Z</time>
      </trkpt>
      <trkpt lat="50.74056" lon="3.47148">
        <ele>62.42</ele>
        <time>2021-06-20T08:13:22.000Z</time>
      </trkpt>
      <trkpt lat="50.74062" lon="3.47147">
        <ele>62.26</ele>
        <time>2021-06-20T08:13:23.000Z</time>
      </trkpt>
      <trkpt lat="50.74067" lon="3.47144">
        <ele>61.98</ele>
        <time>2021-06-20T08:13:24.000Z</time>
      </trkpt>
      <trkpt lat="50.74073" lon="3.4714">
        <ele>61.75</ele>
        <time>2021-06-20T08:13:25.000Z</time>
      </trkpt>
      <trkpt lat="50.74077" lon="3.47134">
        <ele>61.59</ele>
        <time>2021-06-20T08:13:26.000Z</time>
      </trkpt>
      <trkpt lat="50.74082" lon="3.47126">
        <ele>61.31</ele>
        <time>2021-06-20T08:13:27.000Z</time>
      </trkpt>
      <trkpt lat="50.74086" lon="3.47118">
        <ele>61.44</ele>
        <time>2021-06-20T08:13:28.000Z</time>
      </trkpt>
      <trkpt lat="50.74091" lon="3.47111">
        <ele>61.41</ele>
        <time>2021-06-20T08:13:29.000Z</time>
      </trkpt>
      <trkpt lat="50.74095" lon="3.47102">
        <ele>61.28</ele>
        <time>2021-06-20T08:13:30.000Z</time>
      </trkpt>
      <trkpt lat="50.74099" lon="3.47093">
        <ele>61.07</ele>
        <time>2021-06-20T08:13:31.000Z</time>
      </trkpt>
      <trkpt lat="50.74103" lon="3.47085">
        <ele>60.77</ele>
        <time>2021-06-20T08:13:32.000Z</time>
      </trkpt>
      <trkpt lat="50.74108" lon="3.47078">
        <ele>60.6</ele>
        <time>2021-06-20T08:13:33.000Z</time>
      </trkpt>
      <trkpt lat="50.74112" lon="3.4707">
        <ele>60.34</ele>
        <time>2021-06-20T08:13:34.000Z</time>
      </trkpt>
      <trkpt lat="50.74117" lon="3.47061">
        <ele>60.32</ele>
        <time>2021-06-20T08:13:35.000Z</time>
      </trkpt>
      <trkpt lat="50.74122" lon="3.47054">
        <ele>59.98</ele>
        <time>2021-06-20T08:13:36.000Z</time>
      </trkpt>
      <trkpt lat="50.74127" lon="3.47046">
        <ele>59.92</ele>
        <time>2021-06-20T08:13:37.000Z</time>
      </trkpt>
      <trkpt lat="50.74132" lon="3.47039">
        <ele>59.96</ele>
        <time>2021-06-20T08:13:38.000Z</time>
      </trkpt>
      <trkpt lat="50.74137" lon="3.47031">
        <ele>60.17</ele>
        <time>2021-06-20T08:13:39.000Z</time>
      </trkpt>
      <trkpt lat="50.74143" lon="3.47025">
        <ele>60.39</ele>
        <time>2021-06-20T08:13:40.000Z</time>
      </trkpt>
      <trkpt lat="50.74148" lon="3.47018">
        <ele>60.54</ele>
        <time>2021-06-20T08:13:41.000Z</time>
      </trkpt>
      <trkpt lat="50.74153" lon="3.4701">
        <ele>60.56</ele>
        <time>2021-06-20T08:13:42.000Z</time>
      </trkpt>
      <trkpt lat="50.74157" lon="3.47002">
        <ele>60.91</ele>
        <time>2021-06-20T08:13:43.000Z</time>
      </trkpt>
      <trkpt lat="50.74162" lon="3.46993">
        <ele>60.85</ele>
        <time>2021-06-20T08:13:44.000Z</time>
      </trkpt>
      <trkpt lat="50.74166" lon="3.46984">
        <ele>60.59</ele>
        <time>2021-06-20T08:13:45.000Z</time>
      </trkpt>
      <trkpt lat="50.7417" lon="3.46975">
        <ele>60.57</ele>
        <time>2021-06-20T08:13:46.000Z</time>
      </trkpt>
      <trkpt lat="50.74174" lon="3.46965">
        <ele>60.5</ele>
        <time>2021-06-20T08:13:47.000Z</time>
      </trkpt>
      <trkpt lat="50.74177" lon="3.46956">
        <ele>60.72</ele>
        <time>2021-06-20T08:13:48.000Z</time>
      </trkpt>
      <trkpt lat="50.7418" lon="3.46946">
        <ele>60.78</ele>
        <time>2021-06-20T08:13:49.000Z</time>
      </trkpt>
      <trkpt lat="50.74183" lon="3.46936">
        <ele>60.66</ele>
        <time>2021-06-20T08:13:50.000Z</time>
      </trkpt>
      <trkpt lat="50.74186" lon="3.46926">
        <ele>60.69</ele>
        <time>2021-06-20T08:13:51.000Z</time>
      </trkpt>
      <trkpt lat="50.74189" lon="3.46916">
        <ele>60.8</ele>
        <time>2021-06-20T08:13:52.000Z</time>
      </trkpt>
      <trkpt lat="50.74191" lon="3.46907">
        <ele>60.97</ele>
        <time>2021-06-20T08:13:53.000Z</time>
      </trkpt>
      <trkpt lat="50.74193" lon="3.46897">
        <ele>60.77</ele>
        <time>2021-06-20T08:13:54.000Z</time>
      </trkpt>
      <trkpt lat="50.74195" lon="3.46887">
        <ele>60.78</ele>
        <time>2021-06-20T08:13:55.000Z</time>
      </trkpt>
      <trkpt lat="50.74198" lon="3.46878">
        <ele>61.05</ele>
        <time>2021-06-20T08:13:56.000Z</time>
      </trkpt>
      <trkpt lat="50.742" lon="3.46869">
        <ele>60.91</ele>
        <time>2021-06-20T08:13:57.000Z</time>
      </trkpt>
      <trkpt lat="50.74202" lon="3.46859">
        <ele>60.92</ele>
        <time>2021-06-20T08:13:58.000Z</time>
      </trkpt>
      <trkpt lat="50.74204" lon="3.4685">
        <ele>60.47</ele>
        <time>2021-06-20T08:13:59.000Z</time>
      </trkpt>
      <trkpt lat="50.74206" lon="3.46839">
        <ele>60.42</ele>
        <time>2021-06-20T08:14:00.000Z</time>
      </trkpt>
      <trkpt lat="50.74208" lon="3.46829">
        <ele>60.23</ele>
        <time>2021-06-20T08:14:01.000Z</time>
      </trkpt>
      <trkpt lat="50.7421" lon="3.46819">
        <ele>60.06</ele>
        <time>2021-06-20T08:14:02.000Z</time>
      </trkpt>
      <trkpt lat="50.74211" lon="3.46809">
        <ele>59.82</ele>
        <time>2021-06-20T08:14:03.000Z</time>
      </trkpt>
      <trkpt lat="50.74212" lon="3.46799">
        <ele>59.86</ele>
        <time>2021-06-20T08:14:04.000Z</time>
      </trkpt>
      <trkpt lat="50.74214" lon="3.46789">
        <ele>59.78</ele>
        <time>2021-06-20T08:14:05.000Z</time>
      </trkpt>
      <trkpt lat="50.74215" lon="3.46777">
        <ele>59.69</ele>
        <time>2021-06-20T08:14:06.000Z</time>
      </trkpt>
      <trkpt lat="50.74216" lon="3.46766">
        <ele>59.55</ele>
        <time>2021-06-20T08:14:07.000Z</time>
      </trkpt>
      <trkpt lat="50.74217" lon="3.46755">
        <ele>59.63</ele>
        <time>2021-06-20T08:14:08.000Z</time>
      </trkpt>
      <trkpt lat="50.74217" lon="3.46744">
        <ele>59.71</ele>
        <time>2021-06-20T08:14:09.000Z</time>
      </trkpt>
      <trkpt lat="50.74217" lon="3.46733">
        <ele>60.06</ele>
        <time>2021-06-20T08:14:10.000Z</time>
      </trkpt>
      <trkpt lat="50.74217" lon="3.46722">
        <ele>59.86</ele>
        <time>2021-06-20T08:14:11.000Z</time>
      </trkpt>
      <trkpt lat="50.74216" lon="3.46712">
        <ele>60.14</ele>
        <time>2021-06-20T08:14:12.000Z</time>
      </trkpt>
      <trkpt lat="50.74215" lon="3.46701">
        <ele>59.87</ele>
        <time>2021-06-20T08:14:13.000Z</time>
      </trkpt>
      <trkpt lat="50.74212" lon="3.46691">
        <ele>59.89</ele>
        <time>2021-06-20T08:14:14.000Z</time>
      </trkpt>
      <trkpt lat="50.74208" lon="3.46683">
        <ele>59.69</ele>
        <time>2021-06-20T08:14:15.000Z</time>
      </trkpt>
      <trkpt lat="50.74202" lon="3.46677">
        <ele>60.12</ele>
        <time>2021-06-20T08:14:16.000Z</time>
      </trkpt>
      <trkpt lat="50.74196" lon="3.46672">
        <ele>60.4</ele>
        <time>2021-06-20T08:14:17.000Z</time>
      </trkpt>
      <trkpt lat="50.7419" lon="3.46668">
        <ele>60.57</ele>
        <time>2021-06-20T08:14:18.000Z</time>
      </trkpt>
      <trkpt lat="50.74184" lon="3.46663">
        <ele>60.57</ele>
        <time>2021-06-20T08:14:19.000Z</time>
      </trkpt>
      <trkpt lat="50.74178" lon="3.46658">
        <ele>60.71</ele>
        <time>2021-06-20T08:14:20.000Z</time>
      </trkpt>
      <trkpt lat="50.74172" lon="3.46653">
        <ele>60.91</ele>
        <time>2021-06-20T08:14:21.000Z</time>
      </trkpt>
      <trkpt lat="50.74167" lon="3.46647">
        <ele>61.03</ele>
        <time>2021-06-20T08:14:22.000Z</time>
      </trkpt>
      <trkpt lat="50.74161" lon="3.46642">
        <ele>61.09</ele>
        <time>2021-06-20T08:14:23.000Z</time>
      </trkpt>
      <trkpt lat="50.74154" lon="3.46637">
        <ele>61.33</ele>
        <time>2021-06-20T08:14:24.000Z</time>
      </trkpt>
      <trkpt lat="50.74148" lon="3.46631">
        <ele>61.42</ele>
        <time>2021-06-20T08:14:25.000Z</time>
      </trkpt>
      <trkpt lat="50.74142" lon="3.46625">
        <ele>61.59</ele>
        <time>2021-06-20T08:14:26.000Z</time>
      </trkpt>
      <trkpt lat="50.74135" lon="3.4662">
        <ele>61.3</ele>
        <time>2021-06-20T08:14:27.000Z</time>
      </trkpt>
      <trkpt lat="50.7413" lon="3.46613">
        <ele>61.24</ele>
        <time>2021-06-20T08:14:28.000Z</time>
      </trkpt>
      <trkpt lat="50.74125" lon="3.46605">
        <ele>61.38</ele>
        <time>2021-06-20T08:14:29.000Z</time>
      </trkpt>
      <trkpt lat="50.74122" lon="3.46595">
        <ele>61.32</ele>
        <time>2021-06-20T08:14:30.000Z</time>
      </trkpt>
      <trkpt lat="50.74121" lon="3.46584">
        <ele>61.45</ele>
        <time>2021-06-20T08:14:31.000Z</time>
      </trkpt>
      <trkpt lat="50.74123" lon="3.46574">
        <ele>61.47</ele>
        <time>2021-06-20T08:14:32.000Z</time>
      </trkpt>
      <trkpt lat="50.74128" lon="3.46565">
        <ele>61.32</ele>
        <time>2021-06-20T08:14:33.000Z</time>
      </trkpt>
      <trkpt lat="50.74134" lon="3.46559">
        <ele>60.82</ele>
        <time>2021-06-20T08:14:34.000Z</time>
      </trkpt>
      <trkpt lat="50.74139" lon="3.46552">
        <ele>60.74</ele>
        <time>2021-06-20T08:14:35.000Z</time>
      </trkpt>
      <trkpt lat="50.74144" lon="3.46544">
        <ele>60.89</ele>
        <time>2021-06-20T08:14:36.000Z</time>
      </trkpt>
      <trkpt lat="50.74149" lon="3.46535">
        <ele>60.89</ele>
        <time>2021-06-20T08:14:37.000Z</time>
      </trkpt>
      <trkpt lat="50.74153" lon="3.46526">
        <ele>61.55</ele>
        <time>2021-06-20T08:14:38.000Z</time>
      </trkpt>
      <trkpt lat="50.74156" lon="3.46516">
        <ele>61.35</ele>
        <time>2021-06-20T08:14:39.000Z</time>
      </trkpt>
      <trkpt lat="50.74159" lon="3.46505">
        <ele>61.75</ele>
        <time>2021-06-20T08:14:40.000Z</time>
      </trkpt>
      <trkpt lat="50.74161" lon="3.46495">
        <ele>61.8</ele>
        <time>2021-06-20T08:14:41.000Z</time>
      </trkpt>
      <trkpt lat="50.74163" lon="3.46484">
        <ele>61.83</ele>
        <time>2021-06-20T08:14:42.000Z</time>
      </trkpt>
      <trkpt lat="50.74165" lon="3.46473">
        <ele>61.57</ele>
        <time>2021-06-20T08:14:43.000Z</time>
      </trkpt>
      <trkpt lat="50.74168" lon="3.46462">
        <ele>61.65</ele>
        <time>2021-06-20T08:14:44.000Z</time>
      </trkpt>
      <trkpt lat="50.7417" lon="3.46451">
        <ele>61.57</ele>
        <time>2021-06-20T08:14:45.000Z</time>
      </trkpt>
      <trkpt lat="50.74173" lon="3.4644">
        <ele>61.79</ele>
        <time>2021-06-20T08:14:46.000Z</time>
      </trkpt>
      <trkpt lat="50.74176" lon="3.46429">
        <ele>61.73</ele>
        <time>2021-06-20T08:14:47.000Z</time>
      </trkpt>
      <trkpt lat="50.74179" lon="3.46418">
        <ele>61.38</ele>
        <time>2021-06-20T08:14:48.000Z</time>
      </trkpt>
      <trkpt lat="50.74182" lon="3.46408">
        <ele>61.51</ele>
        <time>2021-06-20T08:14:49.000Z</time>
      </trkpt>
      <trkpt lat="50.74187" lon="3.46398">
        <ele>62</ele>
        <time>2021-06-20T08:14:50.000Z</time>
      </trkpt>
      <trkpt lat="50.74191" lon="3.46388">
        <ele>61.84</ele>
        <time>2021-06-20T08:14:51.000Z</time>
      </trkpt>
      <trkpt lat="50.74196" lon="3.46379">
        <ele>61.7</ele>
        <time>2021-06-20T08:14:52.000Z</time>
      </trkpt>
      <trkpt lat="50.74202" lon="3.46371">
        <ele>61.73</ele>
        <time>2021-06-20T08:14:53.000Z</time>
      </trkpt>
      <trkpt lat="50.74207" lon="3.46362">
        <ele>61.97</ele>
        <time>2021-06-20T08:14:54.000Z</time>
      </trkpt>
      <trkpt lat="50.74213" lon="3.46354">
        <ele>61.99</ele>
        <time>2021-06-20T08:14:55.000Z</time>
      </trkpt>
      <trkpt lat="50.74219" lon="3.46346">
        <ele>62.48</ele>
        <time>2021-06-20T08:14:56.000Z</time>
      </trkpt>
      <trkpt lat="50.74225" lon="3.46338">
        <ele>62.89</ele>
        <time>2021-06-20T08:14:57.000Z</time>
      </trkpt>
      <trkpt lat="50.74232" lon="3.46331">
        <ele>62.99</ele>
        <time>2021-06-20T08:14:58.000Z</time>
      </trkpt>
      <trkpt lat="50.74238" lon="3.46324">
        <ele>63.14</ele>
        <time>2021-06-20T08:14:59.000Z</time>
      </trkpt>
      <trkpt lat="50.74244" lon="3.46316">
        <ele>62.93</ele>
        <time>2021-06-20T08:15:00.000Z</time>
      </trkpt>
      <trkpt lat="50.7425" lon="3.46308">
        <ele>62.8</ele>
        <time>2021-06-20T08:15:01.000Z</time>
      </trkpt>
      <trkpt lat="50.74256" lon="3.463">
        <ele>62.74</ele>
        <time>2021-06-20T08:15:02.000Z</time>
      </trkpt>
      <trkpt lat="50.74262" lon="3.46293">
        <ele>62.9</ele>
        <time>2021-06-20T08:15:03.000Z</time>
      </trkpt>
      <trkpt lat="50.74268" lon="3.46286">
        <ele>63.07</ele>
        <time>2021-06-20T08:15:04.000Z</time>
      </trkpt>
      <trkpt lat="50.74274" lon="3.46279">
        <ele>63.09</ele>
        <time>2021-06-20T08:15:05.000Z</time>
      </trkpt>
      <trkpt lat="50.74281" lon="3.46273">
        <ele>62.8</ele>
        <time>2021-06-20T08:15:06.000Z</time>
      </trkpt>
      <trkpt lat="50.74287" lon="3.46267">
        <ele>62.97</ele>
        <time>2021-06-20T08:15:07.000Z</time>
      </trkpt>
      <trkpt lat="50.74294" lon="3.46261">
        <ele>62.99</ele>
        <time>2021-06-20T08:15:08.000Z</time>
      </trkpt>
      <trkpt lat="50.74301" lon="3.46256">
        <ele>63.11</ele>
        <time>2021-06-20T08:15:09.000Z</time>
      </trkpt>
      <trkpt lat="50.74307" lon="3.46249">
        <ele>62.8</ele>
        <time>2021-06-20T08:15:10.000Z</time>
      </trkpt>
      <trkpt lat="50.74314" lon="3.46242">
        <ele>62.51</ele>
        <time>2021-06-20T08:15:11.000Z</time>
      </trkpt>
      <trkpt lat="50.7432" lon="3.46234">
        <ele>62.55</ele>
        <time>2021-06-20T08:15:12.000Z</time>
      </trkpt>
      <trkpt lat="50.74326" lon="3.46226">
        <ele>62.53</ele>
        <time>2021-06-20T08:15:13.000Z</time>
      </trkpt>
      <trkpt lat="50.74332" lon="3.46217">
        <ele>62.42</ele>
        <time>2021-06-20T08:15:14.000Z</time>
      </trkpt>
      <trkpt lat="50.74338" lon="3.46208">
        <ele>62.32</ele>
        <time>2021-06-20T08:15:15.000Z</time>
      </trkpt>
      <trkpt lat="50.74343" lon="3.46199">
        <ele>62.42</ele>
        <time>2021-06-20T08:15:16.000Z</time>
      </trkpt>
      <trkpt lat="50.74348" lon="3.4619">
        <ele>62.44</ele>
        <time>2021-06-20T08:15:17.000Z</time>
      </trkpt>
      <trkpt lat="50.74354" lon="3.46181">
        <ele>62.02</ele>
        <time>2021-06-20T08:15:18.000Z</time>
      </trkpt>
      <trkpt lat="50.74359" lon="3.46172">
        <ele>61.9</ele>
        <time>2021-06-20T08:15:19.000Z</time>
      </trkpt>
      <trkpt lat="50.74364" lon="3.46163">
        <ele>61.98</ele>
        <time>2021-06-20T08:15:20.000Z</time>
      </trkpt>
      <trkpt lat="50.7437" lon="3.46154">
        <ele>61.94</ele>
        <time>2021-06-20T08:15:21.000Z</time>
      </trkpt>
      <trkpt lat="50.74375" lon="3.46144">
        <ele>62.27</ele>
        <time>2021-06-20T08:15:22.000Z</time>
      </trkpt>
      <trkpt lat="50.7438" lon="3.46135">
        <ele>62.32</ele>
        <time>2021-06-20T08:15:23.000Z</time>
      </trkpt>
      <trkpt lat="50.74384" lon="3.46126">
        <ele>62.04</ele>
        <time>2021-06-20T08:15:24.000Z</time>
      </trkpt>
      <trkpt lat="50.74389" lon="3.46117">
        <ele>62.43</ele>
        <time>2021-06-20T08:15:25.000Z</time>
      </trkpt>
      <trkpt lat="50.74394" lon="3.46107">
        <ele>62.35</ele>
        <time>2021-06-20T08:15:26.000Z</time>
      </trkpt>
      <trkpt lat="50.74398" lon="3.46097">
        <ele>62.31</ele>
        <time>2021-06-20T08:15:27.000Z</time>
      </trkpt>
      <trkpt lat="50.74402" lon="3.46087">
        <ele>62.34</ele>
        <time>2021-06-20T08:15:28.000Z</time>
      </trkpt>
      <trkpt lat="50.74407" lon="3.46077">
        <ele>62.3</ele>
        <time>2021-06-20T08:15:29.000Z</time>
      </trkpt>
      <trkpt lat="50.74411" lon="3.46066">
        <ele>62.21</ele>
        <time>2021-06-20T08:15:30.000Z</time>
      </trkpt>
      <trkpt lat="50.74415" lon="3.46056">
        <ele>62.23</ele>
        <time>2021-06-20T08:15:31.000Z</time>
      </trkpt>
      <trkpt lat="50.74419" lon="3.46045">
        <ele>62.13</ele>
        <time>2021-06-20T08:15:32.000Z</time>
      </trkpt>
      <trkpt lat="50.74424" lon="3.46035">
        <ele>61.87</ele>
        <time>2021-06-20T08:15:33.000Z</time>
      </trkpt>
      <trkpt lat="50.74428" lon="3.46024">
        <ele>62.11</ele>
        <time>2021-06-20T08:15:34.000Z</time>
      </trkpt>
      <trkpt lat="50.74432" lon="3.46014">
        <ele>61.9</ele>
        <time>2021-06-20T08:15:35.000Z</time>
      </trkpt>
      <trkpt lat="50.74436" lon="3.46003">
        <ele>61.78</ele>
        <time>2021-06-20T08:15:36.000Z</time>
      </trkpt>
      <trkpt lat="50.7444" lon="3.45993">
        <ele>61.62</ele>
        <time>2021-06-20T08:15:37.000Z</time>
      </trkpt>
      <trkpt lat="50.74444" lon="3.45982">
        <ele>61.83</ele>
        <time>2021-06-20T08:15:38.000Z</time>
      </trkpt>
      <trkpt lat="50.74448" lon="3.45972">
        <ele>61.81</ele>
        <time>2021-06-20T08:15:39.000Z</time>
      </trkpt>
      <trkpt lat="50.74453" lon="3.45962">
        <ele>61.73</ele>
        <time>2021-06-20T08:15:40.000Z</time>
      </trkpt>
      <trkpt lat="50.74457" lon="3.45952">
        <ele>61.53</ele>
        <time>2021-06-20T08:15:41.000Z</time>
      </trkpt>
      <trkpt lat="50.74461" lon="3.45941">
        <ele>61.54</ele>
        <time>2021-06-20T08:15:42.000Z</time>
      </trkpt>
      <trkpt lat="50.74464" lon="3.45929">
        <ele>61.47</ele>
        <time>2021-06-20T08:15:43.000Z</time>
      </trkpt>
      <trkpt lat="50.74464" lon="3.45917">
        <ele>61.53</ele>
        <time>2021-06-20T08:15:44.000Z</time>
      </trkpt>
      <trkpt lat="50.74462" lon="3.45905">
        <ele>61.6</ele>
        <time>2021-06-20T08:15:45.000Z</time>
      </trkpt>
      <trkpt lat="50.74459" lon="3.45894">
        <ele>61.91</ele>
        <time>2021-06-20T08:15:46.000Z</time>
      </trkpt>
      <trkpt lat="50.74454" lon="3.45883">
        <ele>62.54</ele>
        <time>2021-06-20T08:15:47.000Z</time>
      </trkpt>
      <trkpt lat="50.7445" lon="3.45874">
        <ele>62.04</ele>
        <time>2021-06-20T08:15:48.000Z</time>
      </trkpt>
      <trkpt lat="50.74445" lon="3.45865">
        <ele>62.09</ele>
        <time>2021-06-20T08:15:49.000Z</time>
      </trkpt>
      <trkpt lat="50.74441" lon="3.45856">
        <ele>62.35</ele>
        <time>2021-06-20T08:15:50.000Z</time>
      </trkpt>
      <trkpt lat="50.74436" lon="3.45848">
        <ele>62.39</ele>
        <time>2021-06-20T08:15:51.000Z</time>
      </trkpt>
      <trkpt lat="50.74431" lon="3.45839">
        <ele>62.58</ele>
        <time>2021-06-20T08:15:52.000Z</time>
      </trkpt>
      <trkpt lat="50.74426" lon="3.4583">
        <ele>62.93</ele>
        <time>2021-06-20T08:15:53.000Z</time>
      </trkpt>
      <trkpt lat="50.74422" lon="3.45821">
        <ele>62.89</ele>
        <time>2021-06-20T08:15:54.000Z</time>
      </trkpt>
      <trkpt lat="50.74417" lon="3.45812">
        <ele>62.79</ele>
        <time>2021-06-20T08:15:55.000Z</time>
      </trkpt>
      <trkpt lat="50.74413" lon="3.45803">
        <ele>62.58</ele>
        <time>2021-06-20T08:15:56.000Z</time>
      </trkpt>
      <trkpt lat="50.74408" lon="3.45794">
        <ele>62.59</ele>
        <time>2021-06-20T08:15:57.000Z</time>
      </trkpt>
      <trkpt lat="50.74404" lon="3.45785">
        <ele>62.69</ele>
        <time>2021-06-20T08:15:58.000Z</time>
      </trkpt>
      <trkpt lat="50.744" lon="3.45775">
        <ele>62.69</ele>
        <time>2021-06-20T08:15:59.000Z</time>
      </trkpt>
      <trkpt lat="50.74395" lon="3.45765">
        <ele>62.7</ele>
        <time>2021-06-20T08:16:00.000Z</time>
      </trkpt>
      <trkpt lat="50.74391" lon="3.45756">
        <ele>62.76</ele>
        <time>2021-06-20T08:16:01.000Z</time>
      </trkpt>
      <trkpt lat="50.74387" lon="3.45746">
        <ele>62.86</ele>
        <time>2021-06-20T08:16:02.000Z</time>
      </trkpt>
      <trkpt lat="50.74383" lon="3.45737">
        <ele>63.06</ele>
        <time>2021-06-20T08:16:03.000Z</time>
      </trkpt>
      <trkpt lat="50.74379" lon="3.45728">
        <ele>63.4</ele>
        <time>2021-06-20T08:16:04.000Z</time>
      </trkpt>
      <trkpt lat="50.74375" lon="3.45719">
        <ele>63.38</ele>
        <time>2021-06-20T08:16:05.000Z</time>
      </trkpt>
      <trkpt lat="50.74371" lon="3.4571">
        <ele>63.18</ele>
        <time>2021-06-20T08:16:06.000Z</time>
      </trkpt>
      <trkpt lat="50.74366" lon="3.45701">
        <ele>63.27</ele>
        <time>2021-06-20T08:16:07.000Z</time>
      </trkpt>
      <trkpt lat="50.74362" lon="3.45692">
        <ele>63.1</ele>
        <time>2021-06-20T08:16:08.000Z</time>
      </trkpt>
      <trkpt lat="50.74358" lon="3.45682">
        <ele>63.3</ele>
        <time>2021-06-20T08:16:09.000Z</time>
      </trkpt>
      <trkpt lat="50.74353" lon="3.45673">
        <ele>63.5</ele>
        <time>2021-06-20T08:16:10.000Z</time>
      </trkpt>
      <trkpt lat="50.7435" lon="3.45663">
        <ele>63.32</ele>
        <time>2021-06-20T08:16:11.000Z</time>
      </trkpt>
      <trkpt lat="50.74347" lon="3.45652">
        <ele>63.07</ele>
        <time>2021-06-20T08:16:12.000Z</time>
      </trkpt>
      <trkpt lat="50.74347" lon="3.45641">
        <ele>62.54</ele>
        <time>2021-06-20T08:16:13.000Z</time>
      </trkpt>
      <trkpt lat="50.74348" lon="3.45629">
        <ele>62.33</ele>
        <time>2021-06-20T08:16:14.000Z</time>
      </trkpt>
      <trkpt lat="50.7435" lon="3.45617">
        <ele>62.37</ele>
        <time>2021-06-20T08:16:15.000Z</time>
      </trkpt>
      <trkpt lat="50.74353" lon="3.45606">
        <ele>61.96</ele>
        <time>2021-06-20T08:16:16.000Z</time>
      </trkpt>
      <trkpt lat="50.74355" lon="3.45595">
        <ele>61.65</ele>
        <time>2021-06-20T08:16:17.000Z</time>
      </trkpt>
      <trkpt lat="50.74358" lon="3.45583">
        <ele>61.74</ele>
        <time>2021-06-20T08:16:18.000Z</time>
      </trkpt>
      <trkpt lat="50.7436" lon="3.45571">
        <ele>61.46</ele>
        <time>2021-06-20T08:16:19.000Z</time>
      </trkpt>
      <trkpt lat="50.74361" lon="3.45559">
        <ele>61.43</ele>
        <time>2021-06-20T08:16:20.000Z</time>
      </trkpt>
      <trkpt lat="50.74362" lon="3.45546">
        <ele>61.41</ele>
        <time>2021-06-20T08:16:21.000Z</time>
      </trkpt>
      <trkpt lat="50.74362" lon="3.45534">
        <ele>61.26</ele>
        <time>2021-06-20T08:16:22.000Z</time>
      </trkpt>
      <trkpt lat="50.74363" lon="3.45523">
        <ele>61.09</ele>
        <time>2021-06-20T08:16:23.000Z</time>
      </trkpt>
      <trkpt lat="50.74365" lon="3.45511">
        <ele>61.09</ele>
        <time>2021-06-20T08:16:24.000Z</time>
      </trkpt>
      <trkpt lat="50.74367" lon="3.455">
        <ele>61.06</ele>
        <time>2021-06-20T08:16:25.000Z</time>
      </trkpt>
      <trkpt lat="50.7437" lon="3.4549">
        <ele>61.24</ele>
        <time>2021-06-20T08:16:26.000Z</time>
      </trkpt>
      <trkpt lat="50.74373" lon="3.45479">
        <ele>61.24</ele>
        <time>2021-06-20T08:16:27.000Z</time>
      </trkpt>
      <trkpt lat="50.74377" lon="3.45468">
        <ele>61.2</ele>
        <time>2021-06-20T08:16:28.000Z</time>
      </trkpt>
      <trkpt lat="50.74381" lon="3.45458">
        <ele>61.23</ele>
        <time>2021-06-20T08:16:29.000Z</time>
      </trkpt>
      <trkpt lat="50.74385" lon="3.4545">
        <ele>60.95</ele>
        <time>2021-06-20T08:16:30.000Z</time>
      </trkpt>
      <trkpt lat="50.7439" lon="3.45442">
        <ele>60.88</ele>
        <time>2021-06-20T08:16:31.000Z</time>
      </trkpt>
      <trkpt lat="50.74396" lon="3.45435">
        <ele>61.18</ele>
        <time>2021-06-20T08:16:32.000Z</time>
      </trkpt>
      <trkpt lat="50.74403" lon="3.45429">
        <ele>61.22</ele>
        <time>2021-06-20T08:16:33.000Z</time>
      </trkpt>
      <trkpt lat="50.7441" lon="3.45425">
        <ele>61.31</ele>
        <time>2021-06-20T08:16:34.000Z</time>
      </trkpt>
      <trkpt lat="50.74417" lon="3.4542">
        <ele>61.17</ele>
        <time>2021-06-20T08:16:35.000Z</time>
      </trkpt>
      <trkpt lat="50.74424" lon="3.45416">
        <ele>61.35</ele>
        <time>2021-06-20T08:16:36.000Z</time>
      </trkpt>
      <trkpt lat="50.74432" lon="3.45413">
        <ele>61.34</ele>
        <time>2021-06-20T08:16:37.000Z</time>
      </trkpt>
      <trkpt lat="50.74439" lon="3.45412">
        <ele>61.14</ele>
        <time>2021-06-20T08:16:38.000Z</time>
      </trkpt>
      <trkpt lat="50.74447" lon="3.45411">
        <ele>61.02</ele>
        <time>2021-06-20T08:16:39.000Z</time>
      </trkpt>
      <trkpt lat="50.74454" lon="3.45411">
        <ele>60.82</ele>
        <time>2021-06-20T08:16:40.000Z</time>
      </trkpt>
      <trkpt lat="50.74462" lon="3.45412">
        <ele>60.82</ele>
        <time>2021-06-20T08:16:41.000Z</time>
      </trkpt>
      <trkpt lat="50.74469" lon="3.45412">
        <ele>60.7</ele>
        <time>2021-06-20T08:16:42.000Z</time>
      </trkpt>
      <trkpt lat="50.74477" lon="3.4541">
        <ele>60.78</ele>
        <time>2021-06-20T08:16:43.000Z</time>
      </trkpt>
      <trkpt lat="50.74484" lon="3.45406">
        <ele>60.49</ele>
        <time>2021-06-20T08:16:44.000Z</time>
      </trkpt>
      <trkpt lat="50.7449" lon="3.45399">
        <ele>60.32</ele>
        <time>2021-06-20T08:16:45.000Z</time>
      </trkpt>
      <trkpt lat="50.74496" lon="3.45392">
        <ele>60.3</ele>
        <time>2021-06-20T08:16:46.000Z</time>
      </trkpt>
      <trkpt lat="50.74502" lon="3.45384">
        <ele>60.35</ele>
        <time>2021-06-20T08:16:47.000Z</time>
      </trkpt>
      <trkpt lat="50.74508" lon="3.45376">
        <ele>60.34</ele>
        <time>2021-06-20T08:16:48.000Z</time>
      </trkpt>
      <trkpt lat="50.74514" lon="3.45368">
        <ele>60.21</ele>
        <time>2021-06-20T08:16:49.000Z</time>
      </trkpt>
      <trkpt lat="50.7452" lon="3.45361">
        <ele>60.33</ele>
        <time>2021-06-20T08:16:50.000Z</time>
      </trkpt>
      <trkpt lat="50.74525" lon="3.45353">
        <ele>60.43</ele>
        <time>2021-06-20T08:16:51.000Z</time>
      </trkpt>
      <trkpt lat="50.74531" lon="3.45345">
        <ele>60.61</ele>
        <time>2021-06-20T08:16:52.000Z</time>
      </trkpt>
      <trkpt lat="50.74537" lon="3.45337">
        <ele>60.41</ele>
        <time>2021-06-20T08:16:53.000Z</time>
      </trkpt>
      <trkpt lat="50.74542" lon="3.45329">
        <ele>60.23</ele>
        <time>2021-06-20T08:16:54.000Z</time>
      </trkpt>
      <trkpt lat="50.74548" lon="3.4532">
        <ele>60.42</ele>
        <time>2021-06-20T08:16:55.000Z</time>
      </trkpt>
      <trkpt lat="50.74553" lon="3.45312">
        <ele>60.36</ele>
        <time>2021-06-20T08:16:56.000Z</time>
      </trkpt>
      <trkpt lat="50.74559" lon="3.45304">
        <ele>60.77</ele>
        <time>2021-06-20T08:16:57.000Z</time>
      </trkpt>
      <trkpt lat="50.74564" lon="3.45295">
        <ele>60.94</ele>
        <time>2021-06-20T08:16:58.000Z</time>
      </trkpt>
      <trkpt lat="50.74569" lon="3.45287">
        <ele>61.08</ele>
        <time>2021-06-20T08:16:59.000Z</time>
      </trkpt>
      <trkpt lat="50.74574" lon="3.45278">
        <ele>61.21</ele>
        <time>2021-06-20T08:17:00.000Z</time>
      </trkpt>
      <trkpt lat="50.74579" lon="3.45269">
        <ele>61.23</ele>
        <time>2021-06-20T08:17:01.000Z</time>
      </trkpt>
      <trkpt lat="50.74583" lon="3.4526">
        <ele>61.07</ele>
        <time>2021-06-20T08:17:02.000Z</time>
      </trkpt>
      <trkpt lat="50.74588" lon="3.4525">
        <ele>61.05</ele>
        <time>2021-06-20T08:17:03.000Z</time>
      </trkpt>
      <trkpt lat="50.74592" lon="3.45241">
        <ele>61.11</ele>
        <time>2021-06-20T08:17:04.000Z</time>
      </trkpt>
      <trkpt lat="50.74596" lon="3.45231">
        <ele>61.08</ele>
        <time>2021-06-20T08:17:05.000Z</time>
      </trkpt>
      <trkpt lat="50.74601" lon="3.45222">
        <ele>60.93</ele>
        <time>2021-06-20T08:17:06.000Z</time>
      </trkpt>
      <trkpt lat="50.74606" lon="3.45214">
        <ele>60.85</ele>
        <time>2021-06-20T08:17:07.000Z</time>
      </trkpt>
      <trkpt lat="50.74612" lon="3.45205">
        <ele>60.95</ele>
        <time>2021-06-20T08:17:08.000Z</time>
      </trkpt>
      <trkpt lat="50.74618" lon="3.45198">
        <ele>61.24</ele>
        <time>2021-06-20T08:17:09.000Z</time>
      </trkpt>
      <trkpt lat="50.74624" lon="3.45192">
        <ele>61.08</ele>
        <time>2021-06-20T08:17:10.000Z</time>
      </trkpt>
      <trkpt lat="50.74631" lon="3.45186">
        <ele>61.13</ele>
        <time>2021-06-20T08:17:11.000Z</time>
      </trkpt>
      <trkpt lat="50.74638" lon="3.45181">
        <ele>61.09</ele>
        <time>2021-06-20T08:17:12.000Z</time>
      </trkpt>
      <trkpt lat="50.74645" lon="3.45176">
        <ele>61.08</ele>
        <time>2021-06-20T08:17:13.000Z</time>
      </trkpt>
      <trkpt lat="50.74652" lon="3.45173">
        <ele>60.81</ele>
        <time>2021-06-20T08:17:14.000Z</time>
      </trkpt>
      <trkpt lat="50.74659" lon="3.45169">
        <ele>60.77</ele>
        <time>2021-06-20T08:17:15.000Z</time>
      </trkpt>
      <trkpt lat="50.74666" lon="3.45166">
        <ele>61.08</ele>
        <time>2021-06-20T08:17:16.000Z</time>
      </trkpt>
      <trkpt lat="50.74672" lon="3.45163">
        <ele>61.05</ele>
        <time>2021-06-20T08:17:17.000Z</time>
      </trkpt>
      <trkpt lat="50.74679" lon="3.45159">
        <ele>61</ele>
        <time>2021-06-20T08:17:18.000Z</time>
      </trkpt>
      <trkpt lat="50.74685" lon="3.45156">
        <ele>61.34</ele>
        <time>2021-06-20T08:17:19.000Z</time>
      </trkpt>
      <trkpt lat="50.74691" lon="3.45154">
        <ele>61.51</ele>
        <time>2021-06-20T08:17:20.000Z</time>
      </trkpt>
      <trkpt lat="50.74697" lon="3.45151">
        <ele>61.42</ele>
        <time>2021-06-20T08:17:21.000Z</time>
      </trkpt>
      <trkpt lat="50.74703" lon="3.4515">
        <ele>61.41</ele>
        <time>2021-06-20T08:17:22.000Z</time>
      </trkpt>
      <trkpt lat="50.74708" lon="3.45149">
        <ele>61.37</ele>
        <time>2021-06-20T08:17:23.000Z</time>
      </trkpt>
      <trkpt lat="50.74714" lon="3.45147">
        <ele>61.38</ele>
        <time>2021-06-20T08:17:24.000Z</time>
      </trkpt>
      <trkpt lat="50.7472" lon="3.45147">
        <ele>61.32</ele>
        <time>2021-06-20T08:17:25.000Z</time>
      </trkpt>
      <trkpt lat="50.74726" lon="3.45149">
        <ele>61</ele>
        <time>2021-06-20T08:17:26.000Z</time>
      </trkpt>
      <trkpt lat="50.74732" lon="3.45151">
        <ele>61.05</ele>
        <time>2021-06-20T08:17:27.000Z</time>
      </trkpt>
      <trkpt lat="50.74739" lon="3.45153">
        <ele>60.97</ele>
        <time>2021-06-20T08:17:28.000Z</time>
      </trkpt>
      <trkpt lat="50.74746" lon="3.45156">
        <ele>61.08</ele>
        <time>2021-06-20T08:17:29.000Z</time>
      </trkpt>
      <trkpt lat="50.74753" lon="3.45159">
        <ele>61</ele>
        <time>2021-06-20T08:17:30.000Z</time>
      </trkpt>
      <trkpt lat="50.7476" lon="3.45163">
        <ele>61.19</ele>
        <time>2021-06-20T08:17:31.000Z</time>
      </trkpt>
      <trkpt lat="50.74767" lon="3.45168">
        <ele>61.28</ele>
        <time>2021-06-20T08:17:32.000Z</time>
      </trkpt>
      <trkpt lat="50.74774" lon="3.45173">
        <ele>61.27</ele>
        <time>2021-06-20T08:17:33.000Z</time>
      </trkpt>
      <trkpt lat="50.74781" lon="3.4518">
        <ele>61.32</ele>
        <time>2021-06-20T08:17:34.000Z</time>
      </trkpt>
      <trkpt lat="50.74788" lon="3.45187">
        <ele>61.41</ele>
        <time>2021-06-20T08:17:35.000Z</time>
      </trkpt>
      <trkpt lat="50.74795" lon="3.45194">
        <ele>61.13</ele>
        <time>2021-06-20T08:17:36.000Z</time>
      </trkpt>
      <trkpt lat="50.74801" lon="3.45201">
        <ele>60.86</ele>
        <time>2021-06-20T08:17:37.000Z</time>
      </trkpt>
      <trkpt lat="50.74807" lon="3.45209">
        <ele>61.03</ele>
        <time>2021-06-20T08:17:38.000Z</time>
      </trkpt>
      <trkpt lat="50.74814" lon="3.45216">
        <ele>61.24</ele>
        <time>2021-06-20T08:17:39.000Z</time>
      </trkpt>
      <trkpt lat="50.7482" lon="3.45223">
        <ele>60.97</ele>
        <time>2021-06-20T08:17:40.000Z</time>
      </trkpt>
      <trkpt lat="50.74826" lon="3.45231">
        <ele>60.91</ele>
        <time>2021-06-20T08:17:41.000Z</time>
      </trkpt>
      <trkpt lat="50.74832" lon="3.45238">
        <ele>61.1</ele>
        <time>2021-06-20T08:17:42.000Z</time>
      </trkpt>
      <trkpt lat="50.74838" lon="3.45245">
        <ele>60.93</ele>
        <time>2021-06-20T08:17:43.000Z</time>
      </trkpt>
      <trkpt lat="50.74844" lon="3.45252">
        <ele>60.45</ele>
        <time>2021-06-20T08:17:44.000Z</time>
      </trkpt>
      <trkpt lat="50.7485" lon="3.4526">
        <ele>60.22</ele>
        <time>2021-06-20T08:17:45.000Z</time>
      </trkpt>
      <trkpt lat="50.74856" lon="3.45267">
        <ele>60.05</ele>
        <time>2021-06-20T08:17:46.000Z</time>
      </trkpt>
      <trkpt lat="50.74863" lon="3.45274">
        <ele>60.01</ele>
        <time>2021-06-20T08:17:47.000Z</time>
      </trkpt>
      <trkpt lat="50.7487" lon="3.4528">
        <ele>60</ele>
        <time>2021-06-20T08:17:48.000Z</time>
      </trkpt>
      <trkpt lat="50.74876" lon="3.45287">
        <ele>59.81</ele>
        <time>2021-06-20T08:17:49.000Z</time>
      </trkpt>
      <trkpt lat="50.74883" lon="3.45294">
        <ele>59.87</ele>
        <time>2021-06-20T08:17:50.000Z</time>
      </trkpt>
      <trkpt lat="50.7489" lon="3.453">
        <ele>59.97</ele>
        <time>2021-06-20T08:17:51.000Z</time>
      </trkpt>
      <trkpt lat="50.74896" lon="3.45307">
        <ele>60.04</ele>
        <time>2021-06-20T08:17:52.000Z</time>
      </trkpt>
      <trkpt lat="50.74903" lon="3.45313">
        <ele>59.93</ele>
        <time>2021-06-20T08:17:53.000Z</time>
      </trkpt>
      <trkpt lat="50.7491" lon="3.45319">
        <ele>60.15</ele>
        <time>2021-06-20T08:17:54.000Z</time>
      </trkpt>
      <trkpt lat="50.74916" lon="3.45326">
        <ele>60.14</ele>
        <time>2021-06-20T08:17:55.000Z</time>
      </trkpt>
      <trkpt lat="50.74922" lon="3.45333">
        <ele>60.14</ele>
        <time>2021-06-20T08:17:56.000Z</time>
      </trkpt>
      <trkpt lat="50.74927" lon="3.4534">
        <ele>60.39</ele>
        <time>2021-06-20T08:17:57.000Z</time>
      </trkpt>
      <trkpt lat="50.74932" lon="3.45348">
        <ele>60.16</ele>
        <time>2021-06-20T08:17:58.000Z</time>
      </trkpt>
      <trkpt lat="50.74937" lon="3.45355">
        <ele>60.04</ele>
        <time>2021-06-20T08:17:59.000Z</time>
      </trkpt>
      <trkpt lat="50.74941" lon="3.45362">
        <ele>59.7</ele>
        <time>2021-06-20T08:18:00.000Z</time>
      </trkpt>
      <trkpt lat="50.74945" lon="3.45369">
        <ele>59.59</ele>
        <time>2021-06-20T08:18:01.000Z</time>
      </trkpt>
      <trkpt lat="50.74949" lon="3.45374">
        <ele>59.37</ele>
        <time>2021-06-20T08:18:02.000Z</time>
      </trkpt>
      <trkpt lat="50.74954" lon="3.45378">
        <ele>59.48</ele>
        <time>2021-06-20T08:18:03.000Z</time>
      </trkpt>
      <trkpt lat="50.74962" lon="3.45384">
        <ele>59.25</ele>
        <time>2021-06-20T08:18:05.000Z</time>
      </trkpt>
      <trkpt lat="50.7497" lon="3.45388">
        <ele>58.98</ele>
        <time>2021-06-20T08:18:07.000Z</time>
      </trkpt>
      <trkpt lat="50.74978" lon="3.45389">
        <ele>58.86</ele>
        <time>2021-06-20T08:18:09.000Z</time>
      </trkpt>
      <trkpt lat="50.74985" lon="3.45388">
        <ele>58.91</ele>
        <time>2021-06-20T08:18:11.000Z</time>
      </trkpt>
      <trkpt lat="50.74993" lon="3.45388">
        <ele>58.97</ele>
        <time>2021-06-20T08:18:13.000Z</time>
      </trkpt>
      <trkpt lat="50.75" lon="3.45387">
        <ele>58.75</ele>
        <time>2021-06-20T08:18:15.000Z</time>
      </trkpt>
      <trkpt lat="50.75007" lon="3.45388">
        <ele>58.7</ele>
        <time>2021-06-20T08:18:17.000Z</time>
      </trkpt>
      <trkpt lat="50.75012" lon="3.45393">
        <ele>58.75</ele>
        <time>2021-06-20T08:18:19.000Z</time>
      </trkpt>
      <trkpt lat="50.75015" lon="3.45389">
        <ele>58.58</ele>
        <time>2021-06-20T08:18:21.000Z</time>
      </trkpt>
      <trkpt lat="50.75013" lon="3.45381">
        <ele>59.33</ele>
        <time>2021-06-20T08:18:23.000Z</time>
      </trkpt>
      <trkpt lat="50.75007" lon="3.45378">
        <ele>60.16</ele>
        <time>2021-06-20T08:18:25.000Z</time>
      </trkpt>
      <trkpt lat="50.74996" lon="3.45384">
        <ele>60.32</ele>
        <time>2021-06-20T08:18:27.000Z</time>
      </trkpt>
      <trkpt lat="50.74991" lon="3.45385">
        <ele>59.92</ele>
        <time>2021-06-20T08:18:28.000Z</time>
      </trkpt>
      <trkpt lat="50.74986" lon="3.45385">
        <ele>59.84</ele>
        <time>2021-06-20T08:18:29.000Z</time>
      </trkpt>
      <trkpt lat="50.7498" lon="3.45385">
        <ele>59.7</ele>
        <time>2021-06-20T08:18:30.000Z</time>
      </trkpt>
      <trkpt lat="50.74975" lon="3.45385">
        <ele>59.56</ele>
        <time>2021-06-20T08:18:31.000Z</time>
      </trkpt>
      <trkpt lat="50.74969" lon="3.45385">
        <ele>59.86</ele>
        <time>2021-06-20T08:18:32.000Z</time>
      </trkpt>
      <trkpt lat="50.74963" lon="3.45383">
        <ele>60.07</ele>
        <time>2021-06-20T08:18:33.000Z</time>
      </trkpt>
      <trkpt lat="50.74958" lon="3.4538">
        <ele>60.1</ele>
        <time>2021-06-20T08:18:34.000Z</time>
      </trkpt>
      <trkpt lat="50.74953" lon="3.45375">
        <ele>60.09</ele>
        <time>2021-06-20T08:18:35.000Z</time>
      </trkpt>
      <trkpt lat="50.74948" lon="3.4537">
        <ele>59.84</ele>
        <time>2021-06-20T08:18:36.000Z</time>
      </trkpt>
      <trkpt lat="50.74944" lon="3.45365">
        <ele>59.67</ele>
        <time>2021-06-20T08:18:37.000Z</time>
      </trkpt>
      <trkpt lat="50.7494" lon="3.4536">
        <ele>60.25</ele>
        <time>2021-06-20T08:18:38.000Z</time>
      </trkpt>
      <trkpt lat="50.74937" lon="3.45354">
        <ele>60.67</ele>
        <time>2021-06-20T08:18:39.000Z</time>
      </trkpt>
      <trkpt lat="50.74932" lon="3.45347">
        <ele>60.2</ele>
        <time>2021-06-20T08:18:41.000Z</time>
      </trkpt>
      <trkpt lat="50.7493" lon="3.4534">
        <ele>59.96</ele>
        <time>2021-06-20T08:18:43.000Z</time>
      </trkpt>
      <trkpt lat="50.74932" lon="3.45331">
        <ele>58.98</ele>
        <time>2021-06-20T08:18:46.000Z</time>
      </trkpt>
      <trkpt lat="50.74936" lon="3.45322">
        <ele>58.81</ele>
        <time>2021-06-20T08:18:50.000Z</time>
      </trkpt>
      <trkpt lat="50.74939" lon="3.45312">
        <ele>58.94</ele>
        <time>2021-06-20T08:18:52.000Z</time>
      </trkpt>
      <trkpt lat="50.74944" lon="3.45299">
        <ele>59.19</ele>
        <time>2021-06-20T08:18:54.000Z</time>
      </trkpt>
      <trkpt lat="50.74946" lon="3.45292">
        <ele>59.21</ele>
        <time>2021-06-20T08:18:55.000Z</time>
      </trkpt>
      <trkpt lat="50.74949" lon="3.45285">
        <ele>59.4</ele>
        <time>2021-06-20T08:18:56.000Z</time>
      </trkpt>
      <trkpt lat="50.74952" lon="3.45277">
        <ele>59.48</ele>
        <time>2021-06-20T08:18:57.000Z</time>
      </trkpt>
      <trkpt lat="50.74954" lon="3.4527">
        <ele>59.75</ele>
        <time>2021-06-20T08:18:58.000Z</time>
      </trkpt>
      <trkpt lat="50.74957" lon="3.45262">
        <ele>59.87</ele>
        <time>2021-06-20T08:18:59.000Z</time>
      </trkpt>
      <trkpt lat="50.7496" lon="3.45255">
        <ele>59.79</ele>
        <time>2021-06-20T08:19:00.000Z</time>
      </trkpt>
      <trkpt lat="50.74963" lon="3.45247">
        <ele>59.72</ele>
        <time>2021-06-20T08:19:01.000Z</time>
      </trkpt>
      <trkpt lat="50.74966" lon="3.45239">
        <ele>60.01</ele>
        <time>2021-06-20T08:19:02.000Z</time>
      </trkpt>
      <trkpt lat="50.74969" lon="3.45231">
        <ele>60.04</ele>
        <time>2021-06-20T08:19:03.000Z</time>
      </trkpt>
      <trkpt lat="50.74972" lon="3.45223">
        <ele>60.18</ele>
        <time>2021-06-20T08:19:04.000Z</time>
      </trkpt>
      <trkpt lat="50.74975" lon="3.45215">
        <ele>60.33</ele>
        <time>2021-06-20T08:19:05.000Z</time>
      </trkpt>
      <trkpt lat="50.74978" lon="3.45208">
        <ele>60.47</ele>
        <time>2021-06-20T08:19:06.000Z</time>
      </trkpt>
      <trkpt lat="50.74981" lon="3.452">
        <ele>60.44</ele>
        <time>2021-06-20T08:19:07.000Z</time>
      </trkpt>
      <trkpt lat="50.74985" lon="3.45194">
        <ele>60.28</ele>
        <time>2021-06-20T08:19:08.000Z</time>
      </trkpt>
      <trkpt lat="50.74989" lon="3.45188">
        <ele>60.25</ele>
        <time>2021-06-20T08:19:09.000Z</time>
      </trkpt>
      <trkpt lat="50.74995" lon="3.45184">
        <ele>60.23</ele>
        <time>2021-06-20T08:19:10.000Z</time>
      </trkpt>
      <trkpt lat="50.75" lon="3.45179">
        <ele>60.32</ele>
        <time>2021-06-20T08:19:11.000Z</time>
      </trkpt>
      <trkpt lat="50.75006" lon="3.45175">
        <ele>60.43</ele>
        <time>2021-06-20T08:19:12.000Z</time>
      </trkpt>
      <trkpt lat="50.75011" lon="3.4517">
        <ele>60.45</ele>
        <time>2021-06-20T08:19:13.000Z</time>
      </trkpt>
      <trkpt lat="50.75017" lon="3.45166">
        <ele>60.48</ele>
        <time>2021-06-20T08:19:14.000Z</time>
      </trkpt>
      <trkpt lat="50.75023" lon="3.45162">
        <ele>60.46</ele>
        <time>2021-06-20T08:19:15.000Z</time>
      </trkpt>
      <trkpt lat="50.75028" lon="3.45157">
        <ele>60.86</ele>
        <time>2021-06-20T08:19:16.000Z</time>
      </trkpt>
      <trkpt lat="50.75034" lon="3.45152">
        <ele>61.26</ele>
        <time>2021-06-20T08:19:17.000Z</time>
      </trkpt>
      <trkpt lat="50.7504" lon="3.45148">
        <ele>61.31</ele>
        <time>2021-06-20T08:19:18.000Z</time>
      </trkpt>
      <trkpt lat="50.75046" lon="3.45144">
        <ele>61.36</ele>
        <time>2021-06-20T08:19:19.000Z</time>
      </trkpt>
      <trkpt lat="50.75051" lon="3.45139">
        <ele>61.49</ele>
        <time>2021-06-20T08:19:20.000Z</time>
      </trkpt>
      <trkpt lat="50.75056" lon="3.45135">
        <ele>61.34</ele>
        <time>2021-06-20T08:19:21.000Z</time>
      </trkpt>
      <trkpt lat="50.75062" lon="3.45131">
        <ele>61.11</ele>
        <time>2021-06-20T08:19:22.000Z</time>
      </trkpt>
      <trkpt lat="50.75067" lon="3.45127">
        <ele>61.01</ele>
        <time>2021-06-20T08:19:23.000Z</time>
      </trkpt>
      <trkpt lat="50.75072" lon="3.45124">
        <ele>60.8</ele>
        <time>2021-06-20T08:19:24.000Z</time>
      </trkpt>
      <trkpt lat="50.75078" lon="3.45119">
        <ele>60.94</ele>
        <time>2021-06-20T08:19:25.000Z</time>
      </trkpt>
      <trkpt lat="50.75083" lon="3.45116">
        <ele>61</ele>
        <time>2021-06-20T08:19:26.000Z</time>
      </trkpt>
      <trkpt lat="50.75088" lon="3.45111">
        <ele>61.24</ele>
        <time>2021-06-20T08:19:27.000Z</time>
      </trkpt>
      <trkpt lat="50.75093" lon="3.45108">
        <ele>61.18</ele>
        <time>2021-06-20T08:19:28.000Z</time>
      </trkpt>
      <trkpt lat="50.75097" lon="3.45105">
        <ele>61.54</ele>
        <time>2021-06-20T08:19:29.000Z</time>
      </trkpt>
      <trkpt lat="50.75102" lon="3.45101">
        <ele>61.31</ele>
        <time>2021-06-20T08:19:30.000Z</time>
      </trkpt>
      <trkpt lat="50.75109" lon="3.45095">
        <ele>61.34</ele>
        <time>2021-06-20T08:19:32.000Z</time>
      </trkpt>
      <trkpt lat="50.75113" lon="3.45092">
        <ele>61.35</ele>
        <time>2021-06-20T08:19:33.000Z</time>
      </trkpt>
      <trkpt lat="50.75121" lon="3.45086">
        <ele>61.43</ele>
        <time>2021-06-20T08:19:35.000Z</time>
      </trkpt>
      <trkpt lat="50.75126" lon="3.45083">
        <ele>61.46</ele>
        <time>2021-06-20T08:19:36.000Z</time>
      </trkpt>
      <trkpt lat="50.7513" lon="3.4508">
        <ele>61.57</ele>
        <time>2021-06-20T08:19:37.000Z</time>
      </trkpt>
      <trkpt lat="50.75134" lon="3.45077">
        <ele>61.92</ele>
        <time>2021-06-20T08:19:38.000Z</time>
      </trkpt>
      <trkpt lat="50.75138" lon="3.45074">
        <ele>61.83</ele>
        <time>2021-06-20T08:19:39.000Z</time>
      </trkpt>
      <trkpt lat="50.75142" lon="3.4507">
        <ele>62.1</ele>
        <time>2021-06-20T08:19:40.000Z</time>
      </trkpt>
      <trkpt lat="50.75146" lon="3.45066">
        <ele>62.38</ele>
        <time>2021-06-20T08:19:41.000Z</time>
      </trkpt>
      <trkpt lat="50.75151" lon="3.45063">
        <ele>62.57</ele>
        <time>2021-06-20T08:19:42.000Z</time>
      </trkpt>
      <trkpt lat="50.75155" lon="3.4506">
        <ele>62.68</ele>
        <time>2021-06-20T08:19:43.000Z</time>
      </trkpt>
      <trkpt lat="50.75159" lon="3.45057">
        <ele>62.77</ele>
        <time>2021-06-20T08:19:44.000Z</time>
      </trkpt>
      <trkpt lat="50.75167" lon="3.45051">
        <ele>62.81</ele>
        <time>2021-06-20T08:19:46.000Z</time>
      </trkpt>
      <trkpt lat="50.75175" lon="3.45045">
        <ele>62.72</ele>
        <time>2021-06-20T08:19:48.000Z</time>
      </trkpt>
      <trkpt lat="50.75182" lon="3.45039">
        <ele>62.94</ele>
        <time>2021-06-20T08:19:50.000Z</time>
      </trkpt>
      <trkpt lat="50.75191" lon="3.45032">
        <ele>62.95</ele>
        <time>2021-06-20T08:19:52.000Z</time>
      </trkpt>
      <trkpt lat="50.75195" lon="3.4503">
        <ele>63.12</ele>
        <time>2021-06-20T08:19:53.000Z</time>
      </trkpt>
      <trkpt lat="50.752" lon="3.45026">
        <ele>63.22</ele>
        <time>2021-06-20T08:19:54.000Z</time>
      </trkpt>
      <trkpt lat="50.75204" lon="3.45023">
        <ele>63.31</ele>
        <time>2021-06-20T08:19:55.000Z</time>
      </trkpt>
      <trkpt lat="50.75209" lon="3.45019">
        <ele>63.39</ele>
        <time>2021-06-20T08:19:56.000Z</time>
      </trkpt>
      <trkpt lat="50.75213" lon="3.45015">
        <ele>63.52</ele>
        <time>2021-06-20T08:19:57.000Z</time>
      </trkpt>
      <trkpt lat="50.75218" lon="3.45012">
        <ele>63.49</ele>
        <time>2021-06-20T08:19:58.000Z</time>
      </trkpt>
      <trkpt lat="50.75222" lon="3.45008">
        <ele>63.68</ele>
        <time>2021-06-20T08:19:59.000Z</time>
      </trkpt>
      <trkpt lat="50.75227" lon="3.45004">
        <ele>63.61</ele>
        <time>2021-06-20T08:20:00.000Z</time>
      </trkpt>
      <trkpt lat="50.75232" lon="3.45">
        <ele>63.81</ele>
        <time>2021-06-20T08:20:01.000Z</time>
      </trkpt>
      <trkpt lat="50.75236" lon="3.44997">
        <ele>63.6</ele>
        <time>2021-06-20T08:20:02.000Z</time>
      </trkpt>
      <trkpt lat="50.75241" lon="3.44993">
        <ele>63.64</ele>
        <time>2021-06-20T08:20:03.000Z</time>
      </trkpt>
      <trkpt lat="50.75245" lon="3.44989">
        <ele>63.16</ele>
        <time>2021-06-20T08:20:04.000Z</time>
      </trkpt>
      <trkpt lat="50.7525" lon="3.44986">
        <ele>62.74</ele>
        <time>2021-06-20T08:20:05.000Z</time>
      </trkpt>
      <trkpt lat="50.75255" lon="3.44982">
        <ele>62.93</ele>
        <time>2021-06-20T08:20:06.000Z</time>
      </trkpt>
      <trkpt lat="50.75259" lon="3.44978">
        <ele>63</ele>
        <time>2021-06-20T08:20:07.000Z</time>
      </trkpt>
      <trkpt lat="50.75263" lon="3.44975">
        <ele>62.6</ele>
        <time>2021-06-20T08:20:08.000Z</time>
      </trkpt>
      <trkpt lat="50.75268" lon="3.44971">
        <ele>62.7</ele>
        <time>2021-06-20T08:20:09.000Z</time>
      </trkpt>
      <trkpt lat="50.75273" lon="3.44968">
        <ele>62.48</ele>
        <time>2021-06-20T08:20:10.000Z</time>
      </trkpt>
      <trkpt lat="50.75278" lon="3.44964">
        <ele>62.56</ele>
        <time>2021-06-20T08:20:11.000Z</time>
      </trkpt>
      <trkpt lat="50.75282" lon="3.4496">
        <ele>62.3</ele>
        <time>2021-06-20T08:20:12.000Z</time>
      </trkpt>
      <trkpt lat="50.75287" lon="3.44957">
        <ele>62.15</ele>
        <time>2021-06-20T08:20:13.000Z</time>
      </trkpt>
      <trkpt lat="50.75291" lon="3.44953">
        <ele>61.9</ele>
        <time>2021-06-20T08:20:14.000Z</time>
      </trkpt>
      <trkpt lat="50.75296" lon="3.44949">
        <ele>61.51</ele>
        <time>2021-06-20T08:20:15.000Z</time>
      </trkpt>
      <trkpt lat="50.75301" lon="3.44946">
        <ele>61.45</ele>
        <time>2021-06-20T08:20:16.000Z</time>
      </trkpt>
      <trkpt lat="50.75305" lon="3.44943">
        <ele>61.76</ele>
        <time>2021-06-20T08:20:17.000Z</time>
      </trkpt>
      <trkpt lat="50.75309" lon="3.4494">
        <ele>61.7</ele>
        <time>2021-06-20T08:20:18.000Z</time>
      </trkpt>
      <trkpt lat="50.75315" lon="3.44935">
        <ele>61.33</ele>
        <time>2021-06-20T08:20:20.000Z</time>
      </trkpt>
      <trkpt lat="50.75319" lon="3.44931">
        <ele>61.16</ele>
        <time>2021-06-20T08:20:22.000Z</time>
      </trkpt>
      <trkpt lat="50.75321" lon="3.44924">
        <ele>60.69</ele>
        <time>2021-06-20T08:20:26.000Z</time>
      </trkpt>
      <trkpt lat="50.7532" lon="3.44916">
        <ele>60.65</ele>
        <time>2021-06-20T08:20:28.000Z</time>
      </trkpt>
      <trkpt lat="50.75312" lon="3.44895">
        <ele>59.99</ele>
        <time>2021-06-20T08:20:31.000Z</time>
      </trkpt>
      <trkpt lat="50.75309" lon="3.44888">
        <ele>59.96</ele>
        <time>2021-06-20T08:20:32.000Z</time>
      </trkpt>
      <trkpt lat="50.75307" lon="3.44881">
        <ele>59.98</ele>
        <time>2021-06-20T08:20:33.000Z</time>
      </trkpt>
      <trkpt lat="50.75305" lon="3.44874">
        <ele>59.88</ele>
        <time>2021-06-20T08:20:34.000Z</time>
      </trkpt>
      <trkpt lat="50.75304" lon="3.44866">
        <ele>59.87</ele>
        <time>2021-06-20T08:20:35.000Z</time>
      </trkpt>
      <trkpt lat="50.753" lon="3.44854">
        <ele>59.77</ele>
        <time>2021-06-20T08:20:37.000Z</time>
      </trkpt>
      <trkpt lat="50.75297" lon="3.44842">
        <ele>58.71</ele>
        <time>2021-06-20T08:20:39.000Z</time>
      </trkpt>
      <trkpt lat="50.75294" lon="3.44832">
        <ele>58.9</ele>
        <time>2021-06-20T08:20:41.000Z</time>
      </trkpt>
      <trkpt lat="50.75293" lon="3.44824">
        <ele>59.39</ele>
        <time>2021-06-20T08:20:44.000Z</time>
      </trkpt>
      <trkpt lat="50.75299" lon="3.44822">
        <ele>59.25</ele>
        <time>2021-06-20T08:20:47.000Z</time>
      </trkpt>
      <trkpt lat="50.75304" lon="3.4482">
        <ele>58.88</ele>
        <time>2021-06-20T08:20:49.000Z</time>
      </trkpt>
      <trkpt lat="50.75311" lon="3.44819">
        <ele>58.43</ele>
        <time>2021-06-20T08:20:51.000Z</time>
      </trkpt>
      <trkpt lat="50.7532" lon="3.44815">
        <ele>57.89</ele>
        <time>2021-06-20T08:20:53.000Z</time>
      </trkpt>
      <trkpt lat="50.75329" lon="3.44813">
        <ele>58.19</ele>
        <time>2021-06-20T08:20:55.000Z</time>
      </trkpt>
      <trkpt lat="50.75334" lon="3.44812">
        <ele>58.41</ele>
        <time>2021-06-20T08:20:56.000Z</time>
      </trkpt>
      <trkpt lat="50.75338" lon="3.44811">
        <ele>58.64</ele>
        <time>2021-06-20T08:20:57.000Z</time>
      </trkpt>
      <trkpt lat="50.75347" lon="3.4481">
        <ele>58.94</ele>
        <time>2021-06-20T08:20:59.000Z</time>
      </trkpt>
      <trkpt lat="50.75353" lon="3.4481">
        <ele>59.34</ele>
        <time>2021-06-20T08:21:01.000Z</time>
      </trkpt>
      <trkpt lat="50.75358" lon="3.4481">
        <ele>59.26</ele>
        <time>2021-06-20T08:21:03.000Z</time>
      </trkpt>
      <trkpt lat="50.75363" lon="3.44812">
        <ele>59.35</ele>
        <time>2021-06-20T08:21:06.000Z</time>
      </trkpt>
      <trkpt lat="50.75368" lon="3.44814">
        <ele>59.17</ele>
        <time>2021-06-20T08:21:10.000Z</time>
      </trkpt>
      <trkpt lat="50.75373" lon="3.44814">
        <ele>58.65</ele>
        <time>2021-06-20T08:21:14.000Z</time>
      </trkpt>
      <trkpt lat="50.75378" lon="3.44816">
        <ele>58.97</ele>
        <time>2021-06-20T08:21:16.000Z</time>
      </trkpt>
      <trkpt lat="50.75384" lon="3.4482">
        <ele>58.87</ele>
        <time>2021-06-20T08:21:18.000Z</time>
      </trkpt>
      <trkpt lat="50.75391" lon="3.4482">
        <ele>58.95</ele>
        <time>2021-06-20T08:21:20.000Z</time>
      </trkpt>
      <trkpt lat="50.75398" lon="3.44813">
        <ele>58.58</ele>
        <time>2021-06-20T08:21:22.000Z</time>
      </trkpt>
      <trkpt lat="50.75404" lon="3.44804">
        <ele>58.77</ele>
        <time>2021-06-20T08:21:24.000Z</time>
      </trkpt>
      <trkpt lat="50.75411" lon="3.44797">
        <ele>58.81</ele>
        <time>2021-06-20T08:21:26.000Z</time>
      </trkpt>
      <trkpt lat="50.75415" lon="3.44795">
        <ele>58.81</ele>
        <time>2021-06-20T08:21:27.000Z</time>
      </trkpt>
      <trkpt lat="50.75421" lon="3.44793">
        <ele>58.57</ele>
        <time>2021-06-20T08:21:28.000Z</time>
      </trkpt>
      <trkpt lat="50.75427" lon="3.44791">
        <ele>58.75</ele>
        <time>2021-06-20T08:21:29.000Z</time>
      </trkpt>
      <trkpt lat="50.75432" lon="3.44789">
        <ele>58.68</ele>
        <time>2021-06-20T08:21:30.000Z</time>
      </trkpt>
      <trkpt lat="50.75438" lon="3.44788">
        <ele>58.59</ele>
        <time>2021-06-20T08:21:31.000Z</time>
      </trkpt>
      <trkpt lat="50.75444" lon="3.44786">
        <ele>58.56</ele>
        <time>2021-06-20T08:21:32.000Z</time>
      </trkpt>
      <trkpt lat="50.7545" lon="3.44784">
        <ele>58.61</ele>
        <time>2021-06-20T08:21:33.000Z</time>
      </trkpt>
      <trkpt lat="50.75457" lon="3.44782">
        <ele>58.58</ele>
        <time>2021-06-20T08:21:34.000Z</time>
      </trkpt>
      <trkpt lat="50.75463" lon="3.4478">
        <ele>58.43</ele>
        <time>2021-06-20T08:21:35.000Z</time>
      </trkpt>
      <trkpt lat="50.7547" lon="3.44777">
        <ele>58.57</ele>
        <time>2021-06-20T08:21:36.000Z</time>
      </trkpt>
      <trkpt lat="50.75477" lon="3.44773">
        <ele>58.36</ele>
        <time>2021-06-20T08:21:37.000Z</time>
      </trkpt>
      <trkpt lat="50.75484" lon="3.44768">
        <ele>58.17</ele>
        <time>2021-06-20T08:21:38.000Z</time>
      </trkpt>
      <trkpt lat="50.75491" lon="3.44762">
        <ele>58.02</ele>
        <time>2021-06-20T08:21:39.000Z</time>
      </trkpt>
      <trkpt lat="50.75498" lon="3.44754">
        <ele>58.04</ele>
        <time>2021-06-20T08:21:40.000Z</time>
      </trkpt>
      <trkpt lat="50.75505" lon="3.44747">
        <ele>57.81</ele>
        <time>2021-06-20T08:21:41.000Z</time>
      </trkpt>
      <trkpt lat="50.75512" lon="3.44739">
        <ele>58.09</ele>
        <time>2021-06-20T08:21:42.000Z</time>
      </trkpt>
      <trkpt lat="50.75518" lon="3.44731">
        <ele>58.16</ele>
        <time>2021-06-20T08:21:43.000Z</time>
      </trkpt>
      <trkpt lat="50.75523" lon="3.44722">
        <ele>58.09</ele>
        <time>2021-06-20T08:21:44.000Z</time>
      </trkpt>
      <trkpt lat="50.75528" lon="3.44712">
        <ele>58.22</ele>
        <time>2021-06-20T08:21:45.000Z</time>
      </trkpt>
      <trkpt lat="50.75532" lon="3.44701">
        <ele>58.04</ele>
        <time>2021-06-20T08:21:46.000Z</time>
      </trkpt>
      <trkpt lat="50.75536" lon="3.4469">
        <ele>58.11</ele>
        <time>2021-06-20T08:21:47.000Z</time>
      </trkpt>
      <trkpt lat="50.7554" lon="3.44679">
        <ele>58.51</ele>
        <time>2021-06-20T08:21:48.000Z</time>
      </trkpt>
      <trkpt lat="50.75544" lon="3.44668">
        <ele>58.6</ele>
        <time>2021-06-20T08:21:49.000Z</time>
      </trkpt>
      <trkpt lat="50.75548" lon="3.44657">
        <ele>58.83</ele>
        <time>2021-06-20T08:21:50.000Z</time>
      </trkpt>
      <trkpt lat="50.75553" lon="3.44648">
        <ele>59.18</ele>
        <time>2021-06-20T08:21:51.000Z</time>
      </trkpt>
      <trkpt lat="50.75558" lon="3.44638">
        <ele>59.89</ele>
        <time>2021-06-20T08:21:52.000Z</time>
      </trkpt>
      <trkpt lat="50.75563" lon="3.4463">
        <ele>59.86</ele>
        <time>2021-06-20T08:21:53.000Z</time>
      </trkpt>
      <trkpt lat="50.75569" lon="3.44623">
        <ele>60.08</ele>
        <time>2021-06-20T08:21:54.000Z</time>
      </trkpt>
      <trkpt lat="50.75575" lon="3.44615">
        <ele>59.99</ele>
        <time>2021-06-20T08:21:55.000Z</time>
      </trkpt>
      <trkpt lat="50.75581" lon="3.44607">
        <ele>60.29</ele>
        <time>2021-06-20T08:21:56.000Z</time>
      </trkpt>
      <trkpt lat="50.75587" lon="3.44599">
        <ele>60.8</ele>
        <time>2021-06-20T08:21:57.000Z</time>
      </trkpt>
      <trkpt lat="50.75593" lon="3.44591">
        <ele>60.99</ele>
        <time>2021-06-20T08:21:58.000Z</time>
      </trkpt>
      <trkpt lat="50.75599" lon="3.44583">
        <ele>61.45</ele>
        <time>2021-06-20T08:21:59.000Z</time>
      </trkpt>
      <trkpt lat="50.75605" lon="3.44574">
        <ele>61.6</ele>
        <time>2021-06-20T08:22:00.000Z</time>
      </trkpt>
      <trkpt lat="50.75612" lon="3.44565">
        <ele>61.67</ele>
        <time>2021-06-20T08:22:01.000Z</time>
      </trkpt>
      <trkpt lat="50.75619" lon="3.44556">
        <ele>61.48</ele>
        <time>2021-06-20T08:22:02.000Z</time>
      </trkpt>
      <trkpt lat="50.75626" lon="3.44548">
        <ele>61.92</ele>
        <time>2021-06-20T08:22:03.000Z</time>
      </trkpt>
      <trkpt lat="50.75633" lon="3.44539">
        <ele>62.56</ele>
        <time>2021-06-20T08:22:04.000Z</time>
      </trkpt>
      <trkpt lat="50.75641" lon="3.44531">
        <ele>62.91</ele>
        <time>2021-06-20T08:22:05.000Z</time>
      </trkpt>
      <trkpt lat="50.75648" lon="3.44524">
        <ele>63.26</ele>
        <time>2021-06-20T08:22:06.000Z</time>
      </trkpt>
      <trkpt lat="50.75656" lon="3.44518">
        <ele>63.74</ele>
        <time>2021-06-20T08:22:07.000Z</time>
      </trkpt>
      <trkpt lat="50.75664" lon="3.44512">
        <ele>64.22</ele>
        <time>2021-06-20T08:22:08.000Z</time>
      </trkpt>
      <trkpt lat="50.75672" lon="3.44507">
        <ele>64.73</ele>
        <time>2021-06-20T08:22:09.000Z</time>
      </trkpt>
      <trkpt lat="50.7568" lon="3.44503">
        <ele>64.71</ele>
        <time>2021-06-20T08:22:10.000Z</time>
      </trkpt>
      <trkpt lat="50.75688" lon="3.44499">
        <ele>65.32</ele>
        <time>2021-06-20T08:22:11.000Z</time>
      </trkpt>
      <trkpt lat="50.75695" lon="3.44495">
        <ele>65.48</ele>
        <time>2021-06-20T08:22:12.000Z</time>
      </trkpt>
      <trkpt lat="50.75702" lon="3.44491">
        <ele>65.15</ele>
        <time>2021-06-20T08:22:13.000Z</time>
      </trkpt>
      <trkpt lat="50.75709" lon="3.44486">
        <ele>64.7</ele>
        <time>2021-06-20T08:22:14.000Z</time>
      </trkpt>
      <trkpt lat="50.75716" lon="3.44483">
        <ele>64.15</ele>
        <time>2021-06-20T08:22:15.000Z</time>
      </trkpt>
      <trkpt lat="50.75723" lon="3.44479">
        <ele>63.87</ele>
        <time>2021-06-20T08:22:16.000Z</time>
      </trkpt>
      <trkpt lat="50.7573" lon="3.44474">
        <ele>63.7</ele>
        <time>2021-06-20T08:22:17.000Z</time>
      </trkpt>
      <trkpt lat="50.75737" lon="3.4447">
        <ele>63.62</ele>
        <time>2021-06-20T08:22:18.000Z</time>
      </trkpt>
      <trkpt lat="50.75744" lon="3.44466">
        <ele>63.46</ele>
        <time>2021-06-20T08:22:19.000Z</time>
      </trkpt>
      <trkpt lat="50.75751" lon="3.44463">
        <ele>63.5</ele>
        <time>2021-06-20T08:22:20.000Z</time>
      </trkpt>
      <trkpt lat="50.75758" lon="3.44459">
        <ele>63.47</ele>
        <time>2021-06-20T08:22:21.000Z</time>
      </trkpt>
      <trkpt lat="50.75765" lon="3.44455">
        <ele>63.6</ele>
        <time>2021-06-20T08:22:22.000Z</time>
      </trkpt>
      <trkpt lat="50.75772" lon="3.44451">
        <ele>63.2</ele>
        <time>2021-06-20T08:22:23.000Z</time>
      </trkpt>
      <trkpt lat="50.75779" lon="3.44446">
        <ele>62.83</ele>
        <time>2021-06-20T08:22:24.000Z</time>
      </trkpt>
      <trkpt lat="50.75786" lon="3.44443">
        <ele>62.8</ele>
        <time>2021-06-20T08:22:25.000Z</time>
      </trkpt>
      <trkpt lat="50.75792" lon="3.44439">
        <ele>62.56</ele>
        <time>2021-06-20T08:22:26.000Z</time>
      </trkpt>
      <trkpt lat="50.75799" lon="3.44435">
        <ele>62.28</ele>
        <time>2021-06-20T08:22:27.000Z</time>
      </trkpt>
      <trkpt lat="50.75806" lon="3.44432">
        <ele>61.91</ele>
        <time>2021-06-20T08:22:28.000Z</time>
      </trkpt>
      <trkpt lat="50.75813" lon="3.44428">
        <ele>61.67</ele>
        <time>2021-06-20T08:22:29.000Z</time>
      </trkpt>
      <trkpt lat="50.75819" lon="3.44424">
        <ele>61.34</ele>
        <time>2021-06-20T08:22:30.000Z</time>
      </trkpt>
      <trkpt lat="50.75826" lon="3.44419">
        <ele>61.17</ele>
        <time>2021-06-20T08:22:31.000Z</time>
      </trkpt>
      <trkpt lat="50.75833" lon="3.44415">
        <ele>61.13</ele>
        <time>2021-06-20T08:22:32.000Z</time>
      </trkpt>
      <trkpt lat="50.75839" lon="3.44411">
        <ele>61.01</ele>
        <time>2021-06-20T08:22:33.000Z</time>
      </trkpt>
      <trkpt lat="50.75845" lon="3.44409">
        <ele>60.96</ele>
        <time>2021-06-20T08:22:34.000Z</time>
      </trkpt>
      <trkpt lat="50.7585" lon="3.44406">
        <ele>60.88</ele>
        <time>2021-06-20T08:22:35.000Z</time>
      </trkpt>
      <trkpt lat="50.75854" lon="3.44403">
        <ele>60.79</ele>
        <time>2021-06-20T08:22:36.000Z</time>
      </trkpt>
      <trkpt lat="50.75862" lon="3.444">
        <ele>60.69</ele>
        <time>2021-06-20T08:22:38.000Z</time>
      </trkpt>
      <trkpt lat="50.75862" lon="3.4439">
        <ele>60.29</ele>
        <time>2021-06-20T08:22:40.000Z</time>
      </trkpt>
      <trkpt lat="50.75856" lon="3.44387">
        <ele>60.53</ele>
        <time>2021-06-20T08:22:42.000Z</time>
      </trkpt>
      <trkpt lat="50.75851" lon="3.44392">
        <ele>60.57</ele>
        <time>2021-06-20T08:22:43.000Z</time>
      </trkpt>
      <trkpt lat="50.75846" lon="3.44394">
        <ele>60.49</ele>
        <time>2021-06-20T08:22:44.000Z</time>
      </trkpt>
      <trkpt lat="50.7584" lon="3.44397">
        <ele>60.29</ele>
        <time>2021-06-20T08:22:45.000Z</time>
      </trkpt>
      <trkpt lat="50.75835" lon="3.44399">
        <ele>60.35</ele>
        <time>2021-06-20T08:22:46.000Z</time>
      </trkpt>
      <trkpt lat="50.75829" lon="3.44402">
        <ele>60.19</ele>
        <time>2021-06-20T08:22:47.000Z</time>
      </trkpt>
      <trkpt lat="50.75822" lon="3.44405">
        <ele>59.92</ele>
        <time>2021-06-20T08:22:48.000Z</time>
      </trkpt>
      <trkpt lat="50.75816" lon="3.44408">
        <ele>59.54</ele>
        <time>2021-06-20T08:22:49.000Z</time>
      </trkpt>
      <trkpt lat="50.75809" lon="3.44411">
        <ele>59.47</ele>
        <time>2021-06-20T08:22:50.000Z</time>
      </trkpt>
      <trkpt lat="50.75803" lon="3.44414">
        <ele>59.34</ele>
        <time>2021-06-20T08:22:51.000Z</time>
      </trkpt>
      <trkpt lat="50.75796" lon="3.44418">
        <ele>59.16</ele>
        <time>2021-06-20T08:22:52.000Z</time>
      </trkpt>
      <trkpt lat="50.7579" lon="3.44421">
        <ele>58.63</ele>
        <time>2021-06-20T08:22:53.000Z</time>
      </trkpt>
      <trkpt lat="50.75783" lon="3.44424">
        <ele>58.63</ele>
        <time>2021-06-20T08:22:54.000Z</time>
      </trkpt>
      <trkpt lat="50.75777" lon="3.44428">
        <ele>58.91</ele>
        <time>2021-06-20T08:22:55.000Z</time>
      </trkpt>
      <trkpt lat="50.7577" lon="3.44431">
        <ele>59.12</ele>
        <time>2021-06-20T08:22:56.000Z</time>
      </trkpt>
      <trkpt lat="50.75764" lon="3.44434">
        <ele>58.82</ele>
        <time>2021-06-20T08:22:57.000Z</time>
      </trkpt>
      <trkpt lat="50.75757" lon="3.44437">
        <ele>59.09</ele>
        <time>2021-06-20T08:22:58.000Z</time>
      </trkpt>
      <trkpt lat="50.75751" lon="3.4444">
        <ele>58.93</ele>
        <time>2021-06-20T08:22:59.000Z</time>
      </trkpt>
      <trkpt lat="50.75745" lon="3.44444">
        <ele>58.77</ele>
        <time>2021-06-20T08:23:00.000Z</time>
      </trkpt>
      <trkpt lat="50.7574" lon="3.44447">
        <ele>58.81</ele>
        <time>2021-06-20T08:23:01.000Z</time>
      </trkpt>
      <trkpt lat="50.75735" lon="3.44448">
        <ele>58.92</ele>
        <time>2021-06-20T08:23:02.000Z</time>
      </trkpt>
      <trkpt lat="50.75729" lon="3.44447">
        <ele>58.91</ele>
        <time>2021-06-20T08:23:03.000Z</time>
      </trkpt>
      <trkpt lat="50.75726" lon="3.4444">
        <ele>58.92</ele>
        <time>2021-06-20T08:23:04.000Z</time>
      </trkpt>
      <trkpt lat="50.75724" lon="3.44433">
        <ele>58.63</ele>
        <time>2021-06-20T08:23:05.000Z</time>
      </trkpt>
      <trkpt lat="50.75722" lon="3.44426">
        <ele>58.53</ele>
        <time>2021-06-20T08:23:06.000Z</time>
      </trkpt>
      <trkpt lat="50.75719" lon="3.4442">
        <ele>58.9</ele>
        <time>2021-06-20T08:23:07.000Z</time>
      </trkpt>
      <trkpt lat="50.75717" lon="3.44413">
        <ele>58.95</ele>
        <time>2021-06-20T08:23:08.000Z</time>
      </trkpt>
      <trkpt lat="50.75714" lon="3.44407">
        <ele>58.68</ele>
        <time>2021-06-20T08:23:09.000Z</time>
      </trkpt>
      <trkpt lat="50.75712" lon="3.444">
        <ele>59.11</ele>
        <time>2021-06-20T08:23:10.000Z</time>
      </trkpt>
      <trkpt lat="50.75709" lon="3.44393">
        <ele>59.49</ele>
        <time>2021-06-20T08:23:11.000Z</time>
      </trkpt>
      <trkpt lat="50.75706" lon="3.44385">
        <ele>59.79</ele>
        <time>2021-06-20T08:23:12.000Z</time>
      </trkpt>
      <trkpt lat="50.75703" lon="3.44378">
        <ele>61.2</ele>
        <time>2021-06-20T08:23:13.000Z</time>
      </trkpt>
      <trkpt lat="50.757" lon="3.44369">
        <ele>60.42</ele>
        <time>2021-06-20T08:23:14.000Z</time>
      </trkpt>
      <trkpt lat="50.75698" lon="3.44363">
        <ele>60.32</ele>
        <time>2021-06-20T08:23:15.000Z</time>
      </trkpt>
      <trkpt lat="50.75698" lon="3.44363">
        <ele>60.32</ele>
        <time>2021-06-20T08:23:15.001Z</time>
      </trkpt>
      <trkpt lat="50.75694" lon="3.44355">
        <ele>59.84</ele>
        <time>2021-06-20T08:23:44.000Z</time>
      </trkpt>
      <trkpt lat="50.7569" lon="3.44346">
        <ele>59.61</ele>
        <time>2021-06-20T08:23:47.000Z</time>
      </trkpt>
      <trkpt lat="50.75686" lon="3.44336">
        <ele>59.54</ele>
        <time>2021-06-20T08:23:49.000Z</time>
      </trkpt>
      <trkpt lat="50.75682" lon="3.44326">
        <ele>59.39</ele>
        <time>2021-06-20T08:23:51.000Z</time>
      </trkpt>
      <trkpt lat="50.75679" lon="3.4432">
        <ele>59.37</ele>
        <time>2021-06-20T08:23:52.000Z</time>
      </trkpt>
      <trkpt lat="50.75676" lon="3.44313">
        <ele>59.42</ele>
        <time>2021-06-20T08:23:53.000Z</time>
      </trkpt>
      <trkpt lat="50.75673" lon="3.44307">
        <ele>59.45</ele>
        <time>2021-06-20T08:23:54.000Z</time>
      </trkpt>
      <trkpt lat="50.75669" lon="3.443">
        <ele>59.48</ele>
        <time>2021-06-20T08:23:55.000Z</time>
      </trkpt>
      <trkpt lat="50.75666" lon="3.44293">
        <ele>59.37</ele>
        <time>2021-06-20T08:23:56.000Z</time>
      </trkpt>
      <trkpt lat="50.75661" lon="3.44285">
        <ele>59.75</ele>
        <time>2021-06-20T08:23:57.000Z</time>
      </trkpt>
      <trkpt lat="50.75657" lon="3.44278">
        <ele>59.74</ele>
        <time>2021-06-20T08:23:58.000Z</time>
      </trkpt>
      <trkpt lat="50.75653" lon="3.4427">
        <ele>59.99</ele>
        <time>2021-06-20T08:23:59.000Z</time>
      </trkpt>
      <trkpt lat="50.75648" lon="3.44263">
        <ele>60.12</ele>
        <time>2021-06-20T08:24:00.000Z</time>
      </trkpt>
      <trkpt lat="50.75644" lon="3.44254">
        <ele>60.28</ele>
        <time>2021-06-20T08:24:01.000Z</time>
      </trkpt>
      <trkpt lat="50.75639" lon="3.44247">
        <ele>60.03</ele>
        <time>2021-06-20T08:24:02.000Z</time>
      </trkpt>
      <trkpt lat="50.75635" lon="3.44238">
        <ele>60.01</ele>
        <time>2021-06-20T08:24:03.000Z</time>
      </trkpt>
      <trkpt lat="50.7563" lon="3.4423">
        <ele>61.46</ele>
        <time>2021-06-20T08:24:04.000Z</time>
      </trkpt>
      <trkpt lat="50.75625" lon="3.4422">
        <ele>60.83</ele>
        <time>2021-06-20T08:24:05.000Z</time>
      </trkpt>
      <trkpt lat="50.75621" lon="3.44212">
        <ele>60.45</ele>
        <time>2021-06-20T08:24:06.000Z</time>
      </trkpt>
      <trkpt lat="50.75616" lon="3.44203">
        <ele>60.5</ele>
        <time>2021-06-20T08:24:07.000Z</time>
      </trkpt>
      <trkpt lat="50.75611" lon="3.44195">
        <ele>60.11</ele>
        <time>2021-06-20T08:24:08.000Z</time>
      </trkpt>
      <trkpt lat="50.75606" lon="3.44186">
        <ele>60.17</ele>
        <time>2021-06-20T08:24:09.000Z</time>
      </trkpt>
      <trkpt lat="50.75601" lon="3.44177">
        <ele>59.99</ele>
        <time>2021-06-20T08:24:10.000Z</time>
      </trkpt>
      <trkpt lat="50.75596" lon="3.44167">
        <ele>59.82</ele>
        <time>2021-06-20T08:24:11.000Z</time>
      </trkpt>
      <trkpt lat="50.75591" lon="3.44157">
        <ele>59.84</ele>
        <time>2021-06-20T08:24:12.000Z</time>
      </trkpt>
      <trkpt lat="50.75585" lon="3.44148">
        <ele>59.86</ele>
        <time>2021-06-20T08:24:13.000Z</time>
      </trkpt>
      <trkpt lat="50.7558" lon="3.44138">
        <ele>59.93</ele>
        <time>2021-06-20T08:24:14.000Z</time>
      </trkpt>
      <trkpt lat="50.75575" lon="3.44129">
        <ele>59.92</ele>
        <time>2021-06-20T08:24:15.000Z</time>
      </trkpt>
      <trkpt lat="50.75569" lon="3.44119">
        <ele>59.95</ele>
        <time>2021-06-20T08:24:16.000Z</time>
      </trkpt>
      <trkpt lat="50.75563" lon="3.4411">
        <ele>59.8</ele>
        <time>2021-06-20T08:24:17.000Z</time>
      </trkpt>
      <trkpt lat="50.75558" lon="3.441">
        <ele>59.98</ele>
        <time>2021-06-20T08:24:18.000Z</time>
      </trkpt>
      <trkpt lat="50.75553" lon="3.4409">
        <ele>59.9</ele>
        <time>2021-06-20T08:24:19.000Z</time>
      </trkpt>
      <trkpt lat="50.75547" lon="3.4408">
        <ele>61.78</ele>
        <time>2021-06-20T08:24:20.000Z</time>
      </trkpt>
      <trkpt lat="50.75542" lon="3.4407">
        <ele>60.79</ele>
        <time>2021-06-20T08:24:21.000Z</time>
      </trkpt>
      <trkpt lat="50.75536" lon="3.44061">
        <ele>60.54</ele>
        <time>2021-06-20T08:24:22.000Z</time>
      </trkpt>
      <trkpt lat="50.75531" lon="3.4405">
        <ele>60.15</ele>
        <time>2021-06-20T08:24:23.000Z</time>
      </trkpt>
      <trkpt lat="50.75525" lon="3.4404">
        <ele>59.92</ele>
        <time>2021-06-20T08:24:24.000Z</time>
      </trkpt>
      <trkpt lat="50.7552" lon="3.4403">
        <ele>59.52</ele>
        <time>2021-06-20T08:24:25.000Z</time>
      </trkpt>
      <trkpt lat="50.75514" lon="3.4402">
        <ele>59.78</ele>
        <time>2021-06-20T08:24:26.000Z</time>
      </trkpt>
      <trkpt lat="50.75509" lon="3.4401">
        <ele>59.54</ele>
        <time>2021-06-20T08:24:27.000Z</time>
      </trkpt>
      <trkpt lat="50.75503" lon="3.44">
        <ele>59.63</ele>
        <time>2021-06-20T08:24:28.000Z</time>
      </trkpt>
      <trkpt lat="50.75497" lon="3.43989">
        <ele>59.67</ele>
        <time>2021-06-20T08:24:29.000Z</time>
      </trkpt>
      <trkpt lat="50.75492" lon="3.43979">
        <ele>60.11</ele>
        <time>2021-06-20T08:24:30.000Z</time>
      </trkpt>
      <trkpt lat="50.75486" lon="3.43969">
        <ele>59.81</ele>
        <time>2021-06-20T08:24:31.000Z</time>
      </trkpt>
      <trkpt lat="50.7548" lon="3.43959">
        <ele>59.79</ele>
        <time>2021-06-20T08:24:32.000Z</time>
      </trkpt>
      <trkpt lat="50.75475" lon="3.43949">
        <ele>59.72</ele>
        <time>2021-06-20T08:24:33.000Z</time>
      </trkpt>
      <trkpt lat="50.75469" lon="3.43938">
        <ele>59.68</ele>
        <time>2021-06-20T08:24:34.000Z</time>
      </trkpt>
      <trkpt lat="50.75463" lon="3.43928">
        <ele>59.43</ele>
        <time>2021-06-20T08:24:35.000Z</time>
      </trkpt>
      <trkpt lat="50.75457" lon="3.43918">
        <ele>59.31</ele>
        <time>2021-06-20T08:24:36.000Z</time>
      </trkpt>
      <trkpt lat="50.75452" lon="3.43908">
        <ele>59.2</ele>
        <time>2021-06-20T08:24:37.000Z</time>
      </trkpt>
      <trkpt lat="50.75446" lon="3.43898">
        <ele>59.36</ele>
        <time>2021-06-20T08:24:38.000Z</time>
      </trkpt>
      <trkpt lat="50.75441" lon="3.43888">
        <ele>59.31</ele>
        <time>2021-06-20T08:24:39.000Z</time>
      </trkpt>
      <trkpt lat="50.75436" lon="3.43877">
        <ele>59.67</ele>
        <time>2021-06-20T08:24:40.000Z</time>
      </trkpt>
      <trkpt lat="50.7543" lon="3.43867">
        <ele>59.48</ele>
        <time>2021-06-20T08:24:41.000Z</time>
      </trkpt>
      <trkpt lat="50.75425" lon="3.43857">
        <ele>59.39</ele>
        <time>2021-06-20T08:24:42.000Z</time>
      </trkpt>
      <trkpt lat="50.75419" lon="3.43846">
        <ele>59.41</ele>
        <time>2021-06-20T08:24:43.000Z</time>
      </trkpt>
      <trkpt lat="50.75413" lon="3.43837">
        <ele>59.29</ele>
        <time>2021-06-20T08:24:44.000Z</time>
      </trkpt>
      <trkpt lat="50.75407" lon="3.43827">
        <ele>59.22</ele>
        <time>2021-06-20T08:24:45.000Z</time>
      </trkpt>
      <trkpt lat="50.75402" lon="3.43817">
        <ele>59.15</ele>
        <time>2021-06-20T08:24:46.000Z</time>
      </trkpt>
      <trkpt lat="50.75397" lon="3.43808">
        <ele>59.36</ele>
        <time>2021-06-20T08:24:47.000Z</time>
      </trkpt>
      <trkpt lat="50.75391" lon="3.43799">
        <ele>59.51</ele>
        <time>2021-06-20T08:24:48.000Z</time>
      </trkpt>
      <trkpt lat="50.75387" lon="3.4379">
        <ele>59.48</ele>
        <time>2021-06-20T08:24:49.000Z</time>
      </trkpt>
      <trkpt lat="50.75382" lon="3.43781">
        <ele>59.44</ele>
        <time>2021-06-20T08:24:50.000Z</time>
      </trkpt>
      <trkpt lat="50.75377" lon="3.43772">
        <ele>59.61</ele>
        <time>2021-06-20T08:24:51.000Z</time>
      </trkpt>
      <trkpt lat="50.75372" lon="3.43763">
        <ele>59.68</ele>
        <time>2021-06-20T08:24:52.000Z</time>
      </trkpt>
      <trkpt lat="50.75367" lon="3.43754">
        <ele>59.72</ele>
        <time>2021-06-20T08:24:53.000Z</time>
      </trkpt>
      <trkpt lat="50.75362" lon="3.43745">
        <ele>59.38</ele>
        <time>2021-06-20T08:24:54.000Z</time>
      </trkpt>
      <trkpt lat="50.75357" lon="3.43736">
        <ele>59.4</ele>
        <time>2021-06-20T08:24:55.000Z</time>
      </trkpt>
      <trkpt lat="50.75352" lon="3.43727">
        <ele>59.6</ele>
        <time>2021-06-20T08:24:56.000Z</time>
      </trkpt>
      <trkpt lat="50.75347" lon="3.43718">
        <ele>59.66</ele>
        <time>2021-06-20T08:24:57.000Z</time>
      </trkpt>
      <trkpt lat="50.75342" lon="3.43709">
        <ele>59.85</ele>
        <time>2021-06-20T08:24:58.000Z</time>
      </trkpt>
      <trkpt lat="50.75337" lon="3.437">
        <ele>60.04</ele>
        <time>2021-06-20T08:24:59.000Z</time>
      </trkpt>
      <trkpt lat="50.75331" lon="3.43691">
        <ele>60.02</ele>
        <time>2021-06-20T08:25:00.000Z</time>
      </trkpt>
      <trkpt lat="50.75326" lon="3.43682">
        <ele>60.24</ele>
        <time>2021-06-20T08:25:01.000Z</time>
      </trkpt>
      <trkpt lat="50.75321" lon="3.43673">
        <ele>60.14</ele>
        <time>2021-06-20T08:25:02.000Z</time>
      </trkpt>
      <trkpt lat="50.75316" lon="3.43665">
        <ele>60.02</ele>
        <time>2021-06-20T08:25:03.000Z</time>
      </trkpt>
      <trkpt lat="50.75311" lon="3.43655">
        <ele>59.9</ele>
        <time>2021-06-20T08:25:04.000Z</time>
      </trkpt>
      <trkpt lat="50.75306" lon="3.43647">
        <ele>59.52</ele>
        <time>2021-06-20T08:25:05.000Z</time>
      </trkpt>
      <trkpt lat="50.75301" lon="3.43638">
        <ele>59.7</ele>
        <time>2021-06-20T08:25:06.000Z</time>
      </trkpt>
      <trkpt lat="50.75296" lon="3.43628">
        <ele>59.59</ele>
        <time>2021-06-20T08:25:07.000Z</time>
      </trkpt>
      <trkpt lat="50.75291" lon="3.4362">
        <ele>59.7</ele>
        <time>2021-06-20T08:25:08.000Z</time>
      </trkpt>
      <trkpt lat="50.75286" lon="3.43611">
        <ele>59.73</ele>
        <time>2021-06-20T08:25:09.000Z</time>
      </trkpt>
      <trkpt lat="50.75281" lon="3.43602">
        <ele>59.88</ele>
        <time>2021-06-20T08:25:10.000Z</time>
      </trkpt>
      <trkpt lat="50.75276" lon="3.43593">
        <ele>60.08</ele>
        <time>2021-06-20T08:25:11.000Z</time>
      </trkpt>
      <trkpt lat="50.75271" lon="3.43583">
        <ele>60.01</ele>
        <time>2021-06-20T08:25:12.000Z</time>
      </trkpt>
      <trkpt lat="50.75265" lon="3.43575">
        <ele>60.86</ele>
        <time>2021-06-20T08:25:13.000Z</time>
      </trkpt>
      <trkpt lat="50.75261" lon="3.43566">
        <ele>60.75</ele>
        <time>2021-06-20T08:25:14.000Z</time>
      </trkpt>
      <trkpt lat="50.75255" lon="3.43557">
        <ele>60.46</ele>
        <time>2021-06-20T08:25:15.000Z</time>
      </trkpt>
      <trkpt lat="50.75251" lon="3.43548">
        <ele>60.08</ele>
        <time>2021-06-20T08:25:16.000Z</time>
      </trkpt>
      <trkpt lat="50.75246" lon="3.43539">
        <ele>59.84</ele>
        <time>2021-06-20T08:25:17.000Z</time>
      </trkpt>
      <trkpt lat="50.75241" lon="3.4353">
        <ele>59.89</ele>
        <time>2021-06-20T08:25:18.000Z</time>
      </trkpt>
      <trkpt lat="50.75236" lon="3.43521">
        <ele>59.52</ele>
        <time>2021-06-20T08:25:19.000Z</time>
      </trkpt>
      <trkpt lat="50.75231" lon="3.43513">
        <ele>59.24</ele>
        <time>2021-06-20T08:25:20.000Z</time>
      </trkpt>
      <trkpt lat="50.75226" lon="3.43504">
        <ele>59.62</ele>
        <time>2021-06-20T08:25:21.000Z</time>
      </trkpt>
      <trkpt lat="50.75221" lon="3.43495">
        <ele>59.55</ele>
        <time>2021-06-20T08:25:22.000Z</time>
      </trkpt>
      <trkpt lat="50.75216" lon="3.43486">
        <ele>59.58</ele>
        <time>2021-06-20T08:25:23.000Z</time>
      </trkpt>
      <trkpt lat="50.75212" lon="3.43478">
        <ele>60</ele>
        <time>2021-06-20T08:25:24.000Z</time>
      </trkpt>
      <trkpt lat="50.75206" lon="3.43469">
        <ele>59.84</ele>
        <time>2021-06-20T08:25:25.000Z</time>
      </trkpt>
      <trkpt lat="50.75201" lon="3.4346">
        <ele>59.95</ele>
        <time>2021-06-20T08:25:26.000Z</time>
      </trkpt>
      <trkpt lat="50.75196" lon="3.43452">
        <ele>60.05</ele>
        <time>2021-06-20T08:25:27.000Z</time>
      </trkpt>
      <trkpt lat="50.75191" lon="3.43443">
        <ele>60.11</ele>
        <time>2021-06-20T08:25:28.000Z</time>
      </trkpt>
      <trkpt lat="50.75186" lon="3.43434">
        <ele>60.17</ele>
        <time>2021-06-20T08:25:29.000Z</time>
      </trkpt>
      <trkpt lat="50.75181" lon="3.43424">
        <ele>60.42</ele>
        <time>2021-06-20T08:25:30.000Z</time>
      </trkpt>
      <trkpt lat="50.75175" lon="3.43415">
        <ele>60.5</ele>
        <time>2021-06-20T08:25:31.000Z</time>
      </trkpt>
      <trkpt lat="50.7517" lon="3.43406">
        <ele>60.26</ele>
        <time>2021-06-20T08:25:32.000Z</time>
      </trkpt>
      <trkpt lat="50.75165" lon="3.43396">
        <ele>60.1</ele>
        <time>2021-06-20T08:25:33.000Z</time>
      </trkpt>
      <trkpt lat="50.7516" lon="3.43387">
        <ele>60.13</ele>
        <time>2021-06-20T08:25:34.000Z</time>
      </trkpt>
      <trkpt lat="50.75155" lon="3.43377">
        <ele>60.26</ele>
        <time>2021-06-20T08:25:35.000Z</time>
      </trkpt>
      <trkpt lat="50.7515" lon="3.43368">
        <ele>60.45</ele>
        <time>2021-06-20T08:25:36.000Z</time>
      </trkpt>
      <trkpt lat="50.75145" lon="3.43358">
        <ele>60.44</ele>
        <time>2021-06-20T08:25:37.000Z</time>
      </trkpt>
      <trkpt lat="50.7514" lon="3.43349">
        <ele>60.42</ele>
        <time>2021-06-20T08:25:38.000Z</time>
      </trkpt>
      <trkpt lat="50.75134" lon="3.4334">
        <ele>60.4</ele>
        <time>2021-06-20T08:25:39.000Z</time>
      </trkpt>
      <trkpt lat="50.75129" lon="3.4333">
        <ele>60.43</ele>
        <time>2021-06-20T08:25:40.000Z</time>
      </trkpt>
      <trkpt lat="50.75124" lon="3.43321">
        <ele>60.28</ele>
        <time>2021-06-20T08:25:41.000Z</time>
      </trkpt>
      <trkpt lat="50.75118" lon="3.43312">
        <ele>60.47</ele>
        <time>2021-06-20T08:25:42.000Z</time>
      </trkpt>
      <trkpt lat="50.75113" lon="3.43303">
        <ele>60.26</ele>
        <time>2021-06-20T08:25:43.000Z</time>
      </trkpt>
      <trkpt lat="50.75108" lon="3.43294">
        <ele>60.26</ele>
        <time>2021-06-20T08:25:44.000Z</time>
      </trkpt>
      <trkpt lat="50.75103" lon="3.43285">
        <ele>60.15</ele>
        <time>2021-06-20T08:25:45.000Z</time>
      </trkpt>
      <trkpt lat="50.75098" lon="3.43275">
        <ele>60.04</ele>
        <time>2021-06-20T08:25:46.000Z</time>
      </trkpt>
      <trkpt lat="50.75093" lon="3.43266">
        <ele>60.43</ele>
        <time>2021-06-20T08:25:47.000Z</time>
      </trkpt>
      <trkpt lat="50.75088" lon="3.43258">
        <ele>60.2</ele>
        <time>2021-06-20T08:25:48.000Z</time>
      </trkpt>
      <trkpt lat="50.75083" lon="3.43248">
        <ele>60.39</ele>
        <time>2021-06-20T08:25:49.000Z</time>
      </trkpt>
      <trkpt lat="50.75078" lon="3.43239">
        <ele>60.41</ele>
        <time>2021-06-20T08:25:50.000Z</time>
      </trkpt>
      <trkpt lat="50.75073" lon="3.43231">
        <ele>60.33</ele>
        <time>2021-06-20T08:25:51.000Z</time>
      </trkpt>
      <trkpt lat="50.75068" lon="3.43222">
        <ele>60.13</ele>
        <time>2021-06-20T08:25:52.000Z</time>
      </trkpt>
      <trkpt lat="50.75063" lon="3.43213">
        <ele>60.19</ele>
        <time>2021-06-20T08:25:53.000Z</time>
      </trkpt>
      <trkpt lat="50.75059" lon="3.43204">
        <ele>60.28</ele>
        <time>2021-06-20T08:25:54.000Z</time>
      </trkpt>
      <trkpt lat="50.75054" lon="3.43195">
        <ele>60.25</ele>
        <time>2021-06-20T08:25:55.000Z</time>
      </trkpt>
      <trkpt lat="50.75049" lon="3.43187">
        <ele>60.02</ele>
        <time>2021-06-20T08:25:56.000Z</time>
      </trkpt>
      <trkpt lat="50.75044" lon="3.43177">
        <ele>59.91</ele>
        <time>2021-06-20T08:25:57.000Z</time>
      </trkpt>
      <trkpt lat="50.75039" lon="3.43168">
        <ele>59.8</ele>
        <time>2021-06-20T08:25:58.000Z</time>
      </trkpt>
      <trkpt lat="50.75034" lon="3.4316">
        <ele>59.5</ele>
        <time>2021-06-20T08:25:59.000Z</time>
      </trkpt>
      <trkpt lat="50.75029" lon="3.4315">
        <ele>59.73</ele>
        <time>2021-06-20T08:26:00.000Z</time>
      </trkpt>
      <trkpt lat="50.75024" lon="3.43141">
        <ele>60.01</ele>
        <time>2021-06-20T08:26:01.000Z</time>
      </trkpt>
      <trkpt lat="50.75018" lon="3.43133">
        <ele>60.18</ele>
        <time>2021-06-20T08:26:02.000Z</time>
      </trkpt>
      <trkpt lat="50.75013" lon="3.43123">
        <ele>60.14</ele>
        <time>2021-06-20T08:26:03.000Z</time>
      </trkpt>
      <trkpt lat="50.75008" lon="3.43114">
        <ele>60.18</ele>
        <time>2021-06-20T08:26:04.000Z</time>
      </trkpt>
      <trkpt lat="50.75003" lon="3.43105">
        <ele>60.17</ele>
        <time>2021-06-20T08:26:05.000Z</time>
      </trkpt>
      <trkpt lat="50.74998" lon="3.43096">
        <ele>59.96</ele>
        <time>2021-06-20T08:26:06.000Z</time>
      </trkpt>
      <trkpt lat="50.74993" lon="3.43087">
        <ele>60.07</ele>
        <time>2021-06-20T08:26:07.000Z</time>
      </trkpt>
      <trkpt lat="50.74987" lon="3.43079">
        <ele>60.5</ele>
        <time>2021-06-20T08:26:08.000Z</time>
      </trkpt>
      <trkpt lat="50.74982" lon="3.43069">
        <ele>60.6</ele>
        <time>2021-06-20T08:26:09.000Z</time>
      </trkpt>
      <trkpt lat="50.74977" lon="3.4306">
        <ele>60.31</ele>
        <time>2021-06-20T08:26:10.000Z</time>
      </trkpt>
      <trkpt lat="50.74972" lon="3.43051">
        <ele>60.21</ele>
        <time>2021-06-20T08:26:11.000Z</time>
      </trkpt>
      <trkpt lat="50.74967" lon="3.43042">
        <ele>60.07</ele>
        <time>2021-06-20T08:26:12.000Z</time>
      </trkpt>
      <trkpt lat="50.74962" lon="3.43033">
        <ele>59.79</ele>
        <time>2021-06-20T08:26:13.000Z</time>
      </trkpt>
      <trkpt lat="50.74958" lon="3.43024">
        <ele>60.05</ele>
        <time>2021-06-20T08:26:14.000Z</time>
      </trkpt>
      <trkpt lat="50.74952" lon="3.43015">
        <ele>59.8</ele>
        <time>2021-06-20T08:26:15.000Z</time>
      </trkpt>
      <trkpt lat="50.74948" lon="3.43006">
        <ele>59.47</ele>
        <time>2021-06-20T08:26:16.000Z</time>
      </trkpt>
      <trkpt lat="50.74943" lon="3.42997">
        <ele>59.31</ele>
        <time>2021-06-20T08:26:17.000Z</time>
      </trkpt>
      <trkpt lat="50.74938" lon="3.42989">
        <ele>58.99</ele>
        <time>2021-06-20T08:26:18.000Z</time>
      </trkpt>
      <trkpt lat="50.74933" lon="3.42979">
        <ele>59.22</ele>
        <time>2021-06-20T08:26:19.000Z</time>
      </trkpt>
      <trkpt lat="50.74928" lon="3.42971">
        <ele>59.46</ele>
        <time>2021-06-20T08:26:20.000Z</time>
      </trkpt>
      <trkpt lat="50.74923" lon="3.42962">
        <ele>59.38</ele>
        <time>2021-06-20T08:26:21.000Z</time>
      </trkpt>
      <trkpt lat="50.74917" lon="3.42953">
        <ele>59.65</ele>
        <time>2021-06-20T08:26:22.000Z</time>
      </trkpt>
      <trkpt lat="50.74912" lon="3.42944">
        <ele>59.63</ele>
        <time>2021-06-20T08:26:23.000Z</time>
      </trkpt>
      <trkpt lat="50.74907" lon="3.42935">
        <ele>59.97</ele>
        <time>2021-06-20T08:26:24.000Z</time>
      </trkpt>
      <trkpt lat="50.74902" lon="3.42925">
        <ele>59.38</ele>
        <time>2021-06-20T08:26:25.000Z</time>
      </trkpt>
      <trkpt lat="50.74897" lon="3.42916">
        <ele>59.66</ele>
        <time>2021-06-20T08:26:26.000Z</time>
      </trkpt>
      <trkpt lat="50.74892" lon="3.42907">
        <ele>59.93</ele>
        <time>2021-06-20T08:26:27.000Z</time>
      </trkpt>
      <trkpt lat="50.74887" lon="3.42897">
        <ele>60.11</ele>
        <time>2021-06-20T08:26:28.000Z</time>
      </trkpt>
      <trkpt lat="50.74882" lon="3.42888">
        <ele>60.25</ele>
        <time>2021-06-20T08:26:29.000Z</time>
      </trkpt>
      <trkpt lat="50.74877" lon="3.42878">
        <ele>60.43</ele>
        <time>2021-06-20T08:26:30.000Z</time>
      </trkpt>
      <trkpt lat="50.74872" lon="3.42869">
        <ele>60.19</ele>
        <time>2021-06-20T08:26:31.000Z</time>
      </trkpt>
      <trkpt lat="50.74866" lon="3.4286">
        <ele>60.21</ele>
        <time>2021-06-20T08:26:32.000Z</time>
      </trkpt>
      <trkpt lat="50.74861" lon="3.4285">
        <ele>60.51</ele>
        <time>2021-06-20T08:26:33.000Z</time>
      </trkpt>
      <trkpt lat="50.74856" lon="3.42841">
        <ele>60.37</ele>
        <time>2021-06-20T08:26:34.000Z</time>
      </trkpt>
      <trkpt lat="50.74851" lon="3.42831">
        <ele>60.1</ele>
        <time>2021-06-20T08:26:35.000Z</time>
      </trkpt>
      <trkpt lat="50.74846" lon="3.42822">
        <ele>60.31</ele>
        <time>2021-06-20T08:26:36.000Z</time>
      </trkpt>
      <trkpt lat="50.74841" lon="3.42813">
        <ele>60.2</ele>
        <time>2021-06-20T08:26:37.000Z</time>
      </trkpt>
      <trkpt lat="50.74836" lon="3.42804">
        <ele>60.36</ele>
        <time>2021-06-20T08:26:38.000Z</time>
      </trkpt>
      <trkpt lat="50.74831" lon="3.42795">
        <ele>60.53</ele>
        <time>2021-06-20T08:26:39.000Z</time>
      </trkpt>
      <trkpt lat="50.74825" lon="3.42786">
        <ele>60.48</ele>
        <time>2021-06-20T08:26:40.000Z</time>
      </trkpt>
      <trkpt lat="50.7482" lon="3.42776">
        <ele>60.8</ele>
        <time>2021-06-20T08:26:41.000Z</time>
      </trkpt>
      <trkpt lat="50.74815" lon="3.42767">
        <ele>60.65</ele>
        <time>2021-06-20T08:26:42.000Z</time>
      </trkpt>
      <trkpt lat="50.7481" lon="3.42757">
        <ele>61.08</ele>
        <time>2021-06-20T08:26:43.000Z</time>
      </trkpt>
      <trkpt lat="50.74804" lon="3.42748">
        <ele>60.99</ele>
        <time>2021-06-20T08:26:44.000Z</time>
      </trkpt>
      <trkpt lat="50.74799" lon="3.42739">
        <ele>61.15</ele>
        <time>2021-06-20T08:26:45.000Z</time>
      </trkpt>
      <trkpt lat="50.74794" lon="3.42731">
        <ele>61.31</ele>
        <time>2021-06-20T08:26:46.000Z</time>
      </trkpt>
      <trkpt lat="50.74789" lon="3.42721">
        <ele>61.29</ele>
        <time>2021-06-20T08:26:47.000Z</time>
      </trkpt>
      <trkpt lat="50.74783" lon="3.42711">
        <ele>61.09</ele>
        <time>2021-06-20T08:26:48.000Z</time>
      </trkpt>
      <trkpt lat="50.74778" lon="3.42702">
        <ele>60.98</ele>
        <time>2021-06-20T08:26:49.000Z</time>
      </trkpt>
      <trkpt lat="50.74773" lon="3.42693">
        <ele>61.11</ele>
        <time>2021-06-20T08:26:50.000Z</time>
      </trkpt>
      <trkpt lat="50.74768" lon="3.42683">
        <ele>61.23</ele>
        <time>2021-06-20T08:26:51.000Z</time>
      </trkpt>
      <trkpt lat="50.74764" lon="3.42673">
        <ele>60.85</ele>
        <time>2021-06-20T08:26:52.000Z</time>
      </trkpt>
      <trkpt lat="50.74759" lon="3.42663">
        <ele>60.48</ele>
        <time>2021-06-20T08:26:53.000Z</time>
      </trkpt>
      <trkpt lat="50.74754" lon="3.42653">
        <ele>60.78</ele>
        <time>2021-06-20T08:26:54.000Z</time>
      </trkpt>
      <trkpt lat="50.74749" lon="3.42643">
        <ele>60.46</ele>
        <time>2021-06-20T08:26:55.000Z</time>
      </trkpt>
      <trkpt lat="50.74745" lon="3.42632">
        <ele>60.54</ele>
        <time>2021-06-20T08:26:56.000Z</time>
      </trkpt>
      <trkpt lat="50.7474" lon="3.42622">
        <ele>60.48</ele>
        <time>2021-06-20T08:26:57.000Z</time>
      </trkpt>
      <trkpt lat="50.74736" lon="3.42612">
        <ele>60.68</ele>
        <time>2021-06-20T08:26:58.000Z</time>
      </trkpt>
      <trkpt lat="50.74731" lon="3.42601">
        <ele>60.75</ele>
        <time>2021-06-20T08:26:59.000Z</time>
      </trkpt>
      <trkpt lat="50.74727" lon="3.4259">
        <ele>60.76</ele>
        <time>2021-06-20T08:27:00.000Z</time>
      </trkpt>
      <trkpt lat="50.74723" lon="3.4258">
        <ele>61.16</ele>
        <time>2021-06-20T08:27:01.000Z</time>
      </trkpt>
      <trkpt lat="50.74719" lon="3.42569">
        <ele>60.8</ele>
        <time>2021-06-20T08:27:02.000Z</time>
      </trkpt>
      <trkpt lat="50.74715" lon="3.42558">
        <ele>60.77</ele>
        <time>2021-06-20T08:27:03.000Z</time>
      </trkpt>
      <trkpt lat="50.74711" lon="3.42546">
        <ele>60.51</ele>
        <time>2021-06-20T08:27:04.000Z</time>
      </trkpt>
      <trkpt lat="50.74707" lon="3.42535">
        <ele>60.06</ele>
        <time>2021-06-20T08:27:05.000Z</time>
      </trkpt>
      <trkpt lat="50.74703" lon="3.42524">
        <ele>59.95</ele>
        <time>2021-06-20T08:27:06.000Z</time>
      </trkpt>
      <trkpt lat="50.74699" lon="3.42513">
        <ele>60.28</ele>
        <time>2021-06-20T08:27:07.000Z</time>
      </trkpt>
      <trkpt lat="50.74696" lon="3.42502">
        <ele>59.9</ele>
        <time>2021-06-20T08:27:08.000Z</time>
      </trkpt>
      <trkpt lat="50.74692" lon="3.42491">
        <ele>59.55</ele>
        <time>2021-06-20T08:27:09.000Z</time>
      </trkpt>
      <trkpt lat="50.74689" lon="3.42479">
        <ele>59.88</ele>
        <time>2021-06-20T08:27:10.000Z</time>
      </trkpt>
      <trkpt lat="50.74685" lon="3.42468">
        <ele>59.6</ele>
        <time>2021-06-20T08:27:11.000Z</time>
      </trkpt>
      <trkpt lat="50.74682" lon="3.42456">
        <ele>59.66</ele>
        <time>2021-06-20T08:27:12.000Z</time>
      </trkpt>
      <trkpt lat="50.74678" lon="3.42445">
        <ele>59.78</ele>
        <time>2021-06-20T08:27:13.000Z</time>
      </trkpt>
      <trkpt lat="50.74675" lon="3.42433">
        <ele>59.83</ele>
        <time>2021-06-20T08:27:14.000Z</time>
      </trkpt>
      <trkpt lat="50.74672" lon="3.42421">
        <ele>59.53</ele>
        <time>2021-06-20T08:27:15.000Z</time>
      </trkpt>
      <trkpt lat="50.74669" lon="3.42409">
        <ele>59.63</ele>
        <time>2021-06-20T08:27:16.000Z</time>
      </trkpt>
      <trkpt lat="50.74666" lon="3.42398">
        <ele>60.07</ele>
        <time>2021-06-20T08:27:17.000Z</time>
      </trkpt>
      <trkpt lat="50.74663" lon="3.42385">
        <ele>59.83</ele>
        <time>2021-06-20T08:27:18.000Z</time>
      </trkpt>
      <trkpt lat="50.74661" lon="3.42373">
        <ele>59.43</ele>
        <time>2021-06-20T08:27:19.000Z</time>
      </trkpt>
      <trkpt lat="50.74658" lon="3.42362">
        <ele>59.48</ele>
        <time>2021-06-20T08:27:20.000Z</time>
      </trkpt>
      <trkpt lat="50.74656" lon="3.4235">
        <ele>59.07</ele>
        <time>2021-06-20T08:27:21.000Z</time>
      </trkpt>
      <trkpt lat="50.74653" lon="3.42338">
        <ele>58.76</ele>
        <time>2021-06-20T08:27:22.000Z</time>
      </trkpt>
      <trkpt lat="50.74651" lon="3.42326">
        <ele>58.6</ele>
        <time>2021-06-20T08:27:23.000Z</time>
      </trkpt>
      <trkpt lat="50.74648" lon="3.42314">
        <ele>58.59</ele>
        <time>2021-06-20T08:27:24.000Z</time>
      </trkpt>
      <trkpt lat="50.74646" lon="3.42302">
        <ele>58.77</ele>
        <time>2021-06-20T08:27:25.000Z</time>
      </trkpt>
      <trkpt lat="50.74644" lon="3.4229">
        <ele>58.6</ele>
        <time>2021-06-20T08:27:26.000Z</time>
      </trkpt>
      <trkpt lat="50.74642" lon="3.42277">
        <ele>58.6</ele>
        <time>2021-06-20T08:27:27.000Z</time>
      </trkpt>
      <trkpt lat="50.7464" lon="3.42265">
        <ele>58.19</ele>
        <time>2021-06-20T08:27:28.000Z</time>
      </trkpt>
      <trkpt lat="50.74639" lon="3.42253">
        <ele>58.34</ele>
        <time>2021-06-20T08:27:29.000Z</time>
      </trkpt>
      <trkpt lat="50.74637" lon="3.42241">
        <ele>58.72</ele>
        <time>2021-06-20T08:27:30.000Z</time>
      </trkpt>
      <trkpt lat="50.74635" lon="3.42228">
        <ele>58.14</ele>
        <time>2021-06-20T08:27:31.000Z</time>
      </trkpt>
      <trkpt lat="50.74633" lon="3.42216">
        <ele>58.1</ele>
        <time>2021-06-20T08:27:32.000Z</time>
      </trkpt>
      <trkpt lat="50.74632" lon="3.42204">
        <ele>57.99</ele>
        <time>2021-06-20T08:27:33.000Z</time>
      </trkpt>
      <trkpt lat="50.7463" lon="3.42191">
        <ele>57.82</ele>
        <time>2021-06-20T08:27:34.000Z</time>
      </trkpt>
      <trkpt lat="50.74629" lon="3.42178">
        <ele>58.14</ele>
        <time>2021-06-20T08:27:35.000Z</time>
      </trkpt>
      <trkpt lat="50.74627" lon="3.42166">
        <ele>58</ele>
        <time>2021-06-20T08:27:36.000Z</time>
      </trkpt>
      <trkpt lat="50.74626" lon="3.42153">
        <ele>57.62</ele>
        <time>2021-06-20T08:27:37.000Z</time>
      </trkpt>
      <trkpt lat="50.74625" lon="3.4214">
        <ele>57.75</ele>
        <time>2021-06-20T08:27:38.000Z</time>
      </trkpt>
      <trkpt lat="50.74624" lon="3.42127">
        <ele>57.71</ele>
        <time>2021-06-20T08:27:39.000Z</time>
      </trkpt>
      <trkpt lat="50.74623" lon="3.42114">
        <ele>57.85</ele>
        <time>2021-06-20T08:27:40.000Z</time>
      </trkpt>
      <trkpt lat="50.74623" lon="3.42102">
        <ele>58.01</ele>
        <time>2021-06-20T08:27:41.000Z</time>
      </trkpt>
      <trkpt lat="50.74622" lon="3.42089">
        <ele>58.28</ele>
        <time>2021-06-20T08:27:42.000Z</time>
      </trkpt>
      <trkpt lat="50.74622" lon="3.42076">
        <ele>58.11</ele>
        <time>2021-06-20T08:27:43.000Z</time>
      </trkpt>
      <trkpt lat="50.74621" lon="3.42064">
        <ele>57.69</ele>
        <time>2021-06-20T08:27:44.000Z</time>
      </trkpt>
      <trkpt lat="50.74621" lon="3.42052">
        <ele>57.48</ele>
        <time>2021-06-20T08:27:45.000Z</time>
      </trkpt>
      <trkpt lat="50.7462" lon="3.42039">
        <ele>57.75</ele>
        <time>2021-06-20T08:27:46.000Z</time>
      </trkpt>
      <trkpt lat="50.74621" lon="3.42027">
        <ele>57.74</ele>
        <time>2021-06-20T08:27:47.000Z</time>
      </trkpt>
      <trkpt lat="50.74621" lon="3.42015">
        <ele>57.92</ele>
        <time>2021-06-20T08:27:48.000Z</time>
      </trkpt>
      <trkpt lat="50.74621" lon="3.42002">
        <ele>58</ele>
        <time>2021-06-20T08:27:49.000Z</time>
      </trkpt>
      <trkpt lat="50.74621" lon="3.4199">
        <ele>58.3</ele>
        <time>2021-06-20T08:27:50.000Z</time>
      </trkpt>
      <trkpt lat="50.74621" lon="3.41978">
        <ele>58.12</ele>
        <time>2021-06-20T08:27:51.000Z</time>
      </trkpt>
      <trkpt lat="50.74621" lon="3.41966">
        <ele>58.19</ele>
        <time>2021-06-20T08:27:52.000Z</time>
      </trkpt>
      <trkpt lat="50.74622" lon="3.41954">
        <ele>58.62</ele>
        <time>2021-06-20T08:27:53.000Z</time>
      </trkpt>
      <trkpt lat="50.74622" lon="3.41942">
        <ele>58.83</ele>
        <time>2021-06-20T08:27:54.000Z</time>
      </trkpt>
      <trkpt lat="50.74623" lon="3.4193">
        <ele>59.07</ele>
        <time>2021-06-20T08:27:55.000Z</time>
      </trkpt>
      <trkpt lat="50.74624" lon="3.41918">
        <ele>58.91</ele>
        <time>2021-06-20T08:27:56.000Z</time>
      </trkpt>
      <trkpt lat="50.74624" lon="3.41905">
        <ele>59.1</ele>
        <time>2021-06-20T08:27:57.000Z</time>
      </trkpt>
      <trkpt lat="50.74625" lon="3.41893">
        <ele>59.29</ele>
        <time>2021-06-20T08:27:58.000Z</time>
      </trkpt>
      <trkpt lat="50.74626" lon="3.41882">
        <ele>59.56</ele>
        <time>2021-06-20T08:27:59.000Z</time>
      </trkpt>
      <trkpt lat="50.74627" lon="3.4187">
        <ele>59.53</ele>
        <time>2021-06-20T08:28:00.000Z</time>
      </trkpt>
      <trkpt lat="50.74628" lon="3.41858">
        <ele>59.65</ele>
        <time>2021-06-20T08:28:01.000Z</time>
      </trkpt>
      <trkpt lat="50.74629" lon="3.41846">
        <ele>59.71</ele>
        <time>2021-06-20T08:28:02.000Z</time>
      </trkpt>
      <trkpt lat="50.7463" lon="3.41834">
        <ele>59.46</ele>
        <time>2021-06-20T08:28:03.000Z</time>
      </trkpt>
      <trkpt lat="50.74631" lon="3.41822">
        <ele>59.37</ele>
        <time>2021-06-20T08:28:04.000Z</time>
      </trkpt>
      <trkpt lat="50.74632" lon="3.4181">
        <ele>59.51</ele>
        <time>2021-06-20T08:28:05.000Z</time>
      </trkpt>
      <trkpt lat="50.74633" lon="3.41798">
        <ele>59.46</ele>
        <time>2021-06-20T08:28:06.000Z</time>
      </trkpt>
      <trkpt lat="50.74634" lon="3.41786">
        <ele>59.5</ele>
        <time>2021-06-20T08:28:07.000Z</time>
      </trkpt>
      <trkpt lat="50.74635" lon="3.41775">
        <ele>59.53</ele>
        <time>2021-06-20T08:28:08.000Z</time>
      </trkpt>
      <trkpt lat="50.74636" lon="3.41763">
        <ele>59.65</ele>
        <time>2021-06-20T08:28:09.000Z</time>
      </trkpt>
      <trkpt lat="50.74637" lon="3.41751">
        <ele>59.58</ele>
        <time>2021-06-20T08:28:10.000Z</time>
      </trkpt>
      <trkpt lat="50.74638" lon="3.4174">
        <ele>61.02</ele>
        <time>2021-06-20T08:28:11.000Z</time>
      </trkpt>
      <trkpt lat="50.74639" lon="3.41728">
        <ele>60.63</ele>
        <time>2021-06-20T08:28:12.000Z</time>
      </trkpt>
      <trkpt lat="50.7464" lon="3.41717">
        <ele>60.17</ele>
        <time>2021-06-20T08:28:13.000Z</time>
      </trkpt>
      <trkpt lat="50.74641" lon="3.41705">
        <ele>59.89</ele>
        <time>2021-06-20T08:28:14.000Z</time>
      </trkpt>
      <trkpt lat="50.74642" lon="3.41693">
        <ele>59.73</ele>
        <time>2021-06-20T08:28:15.000Z</time>
      </trkpt>
      <trkpt lat="50.74643" lon="3.41682">
        <ele>59.75</ele>
        <time>2021-06-20T08:28:16.000Z</time>
      </trkpt>
      <trkpt lat="50.74644" lon="3.4167">
        <ele>59.4</ele>
        <time>2021-06-20T08:28:17.000Z</time>
      </trkpt>
      <trkpt lat="50.74645" lon="3.41658">
        <ele>59.11</ele>
        <time>2021-06-20T08:28:18.000Z</time>
      </trkpt>
      <trkpt lat="50.74646" lon="3.41647">
        <ele>59.55</ele>
        <time>2021-06-20T08:28:19.000Z</time>
      </trkpt>
      <trkpt lat="50.74647" lon="3.41636">
        <ele>59.09</ele>
        <time>2021-06-20T08:28:20.000Z</time>
      </trkpt>
      <trkpt lat="50.74648" lon="3.41626">
        <ele>59.1</ele>
        <time>2021-06-20T08:28:21.000Z</time>
      </trkpt>
      <trkpt lat="50.74649" lon="3.41615">
        <ele>58.68</ele>
        <time>2021-06-20T08:28:22.000Z</time>
      </trkpt>
      <trkpt lat="50.7465" lon="3.41605">
        <ele>58.92</ele>
        <time>2021-06-20T08:28:23.000Z</time>
      </trkpt>
      <trkpt lat="50.74651" lon="3.41595">
        <ele>59</ele>
        <time>2021-06-20T08:28:24.000Z</time>
      </trkpt>
      <trkpt lat="50.74653" lon="3.41586">
        <ele>59.12</ele>
        <time>2021-06-20T08:28:25.000Z</time>
      </trkpt>
      <trkpt lat="50.74656" lon="3.41577">
        <ele>59.24</ele>
        <time>2021-06-20T08:28:26.000Z</time>
      </trkpt>
      <trkpt lat="50.74661" lon="3.41569">
        <ele>59.45</ele>
        <time>2021-06-20T08:28:27.000Z</time>
      </trkpt>
      <trkpt lat="50.74665" lon="3.41561">
        <ele>59.33</ele>
        <time>2021-06-20T08:28:28.000Z</time>
      </trkpt>
      <trkpt lat="50.74669" lon="3.41552">
        <ele>59.59</ele>
        <time>2021-06-20T08:28:29.000Z</time>
      </trkpt>
      <trkpt lat="50.74673" lon="3.41543">
        <ele>59.72</ele>
        <time>2021-06-20T08:28:30.000Z</time>
      </trkpt>
      <trkpt lat="50.74678" lon="3.41534">
        <ele>59.7</ele>
        <time>2021-06-20T08:28:31.000Z</time>
      </trkpt>
      <trkpt lat="50.74682" lon="3.41526">
        <ele>59.77</ele>
        <time>2021-06-20T08:28:32.000Z</time>
      </trkpt>
      <trkpt lat="50.74686" lon="3.41516">
        <ele>59.82</ele>
        <time>2021-06-20T08:28:33.000Z</time>
      </trkpt>
      <trkpt lat="50.7469" lon="3.41508">
        <ele>60.33</ele>
        <time>2021-06-20T08:28:34.000Z</time>
      </trkpt>
      <trkpt lat="50.74694" lon="3.41499">
        <ele>60.31</ele>
        <time>2021-06-20T08:28:35.000Z</time>
      </trkpt>
      <trkpt lat="50.74699" lon="3.4149">
        <ele>60.3</ele>
        <time>2021-06-20T08:28:36.000Z</time>
      </trkpt>
      <trkpt lat="50.74703" lon="3.41482">
        <ele>60.24</ele>
        <time>2021-06-20T08:28:37.000Z</time>
      </trkpt>
      <trkpt lat="50.74707" lon="3.41473">
        <ele>60.03</ele>
        <time>2021-06-20T08:28:38.000Z</time>
      </trkpt>
      <trkpt lat="50.74711" lon="3.41465">
        <ele>59.74</ele>
        <time>2021-06-20T08:28:39.000Z</time>
      </trkpt>
      <trkpt lat="50.74715" lon="3.41457">
        <ele>59.69</ele>
        <time>2021-06-20T08:28:40.000Z</time>
      </trkpt>
      <trkpt lat="50.74719" lon="3.41448">
        <ele>59.59</ele>
        <time>2021-06-20T08:28:41.000Z</time>
      </trkpt>
      <trkpt lat="50.74724" lon="3.41439">
        <ele>59.75</ele>
        <time>2021-06-20T08:28:42.000Z</time>
      </trkpt>
      <trkpt lat="50.74728" lon="3.4143">
        <ele>59.89</ele>
        <time>2021-06-20T08:28:43.000Z</time>
      </trkpt>
      <trkpt lat="50.74732" lon="3.41422">
        <ele>60</ele>
        <time>2021-06-20T08:28:44.000Z</time>
      </trkpt>
      <trkpt lat="50.74736" lon="3.41414">
        <ele>59.93</ele>
        <time>2021-06-20T08:28:45.000Z</time>
      </trkpt>
      <trkpt lat="50.74741" lon="3.41405">
        <ele>59.96</ele>
        <time>2021-06-20T08:28:46.000Z</time>
      </trkpt>
      <trkpt lat="50.74745" lon="3.41396">
        <ele>60.93</ele>
        <time>2021-06-20T08:28:47.000Z</time>
      </trkpt>
      <trkpt lat="50.74749" lon="3.41388">
        <ele>60.54</ele>
        <time>2021-06-20T08:28:48.000Z</time>
      </trkpt>
      <trkpt lat="50.74753" lon="3.41379">
        <ele>60.18</ele>
        <time>2021-06-20T08:28:49.000Z</time>
      </trkpt>
      <trkpt lat="50.74757" lon="3.41371">
        <ele>59.76</ele>
        <time>2021-06-20T08:28:50.000Z</time>
      </trkpt>
      <trkpt lat="50.74762" lon="3.41363">
        <ele>59.49</ele>
        <time>2021-06-20T08:28:51.000Z</time>
      </trkpt>
      <trkpt lat="50.74766" lon="3.41355">
        <ele>59.37</ele>
        <time>2021-06-20T08:28:52.000Z</time>
      </trkpt>
      <trkpt lat="50.7477" lon="3.41346">
        <ele>59.43</ele>
        <time>2021-06-20T08:28:53.000Z</time>
      </trkpt>
      <trkpt lat="50.74774" lon="3.41339">
        <ele>59.65</ele>
        <time>2021-06-20T08:28:54.000Z</time>
      </trkpt>
      <trkpt lat="50.74779" lon="3.41332">
        <ele>59.48</ele>
        <time>2021-06-20T08:28:55.000Z</time>
      </trkpt>
      <trkpt lat="50.74785" lon="3.41326">
        <ele>59.28</ele>
        <time>2021-06-20T08:28:56.000Z</time>
      </trkpt>
      <trkpt lat="50.74791" lon="3.41321">
        <ele>59.62</ele>
        <time>2021-06-20T08:28:57.000Z</time>
      </trkpt>
      <trkpt lat="50.74797" lon="3.41316">
        <ele>59.37</ele>
        <time>2021-06-20T08:28:58.000Z</time>
      </trkpt>
      <trkpt lat="50.74804" lon="3.41312">
        <ele>59.04</ele>
        <time>2021-06-20T08:28:59.000Z</time>
      </trkpt>
      <trkpt lat="50.74811" lon="3.41309">
        <ele>59.19</ele>
        <time>2021-06-20T08:29:00.000Z</time>
      </trkpt>
      <trkpt lat="50.74818" lon="3.41305">
        <ele>59.59</ele>
        <time>2021-06-20T08:29:01.000Z</time>
      </trkpt>
      <trkpt lat="50.74824" lon="3.41302">
        <ele>60.06</ele>
        <time>2021-06-20T08:29:02.000Z</time>
      </trkpt>
      <trkpt lat="50.74831" lon="3.41298">
        <ele>60.43</ele>
        <time>2021-06-20T08:29:03.000Z</time>
      </trkpt>
      <trkpt lat="50.74837" lon="3.41295">
        <ele>60.8</ele>
        <time>2021-06-20T08:29:04.000Z</time>
      </trkpt>
      <trkpt lat="50.74843" lon="3.41293">
        <ele>61.1</ele>
        <time>2021-06-20T08:29:05.000Z</time>
      </trkpt>
      <trkpt lat="50.74849" lon="3.4129">
        <ele>61.28</ele>
        <time>2021-06-20T08:29:06.000Z</time>
      </trkpt>
      <trkpt lat="50.74855" lon="3.41287">
        <ele>61.55</ele>
        <time>2021-06-20T08:29:07.000Z</time>
      </trkpt>
      <trkpt lat="50.7486" lon="3.41284">
        <ele>61.36</ele>
        <time>2021-06-20T08:29:08.000Z</time>
      </trkpt>
      <trkpt lat="50.74866" lon="3.41282">
        <ele>61.5</ele>
        <time>2021-06-20T08:29:09.000Z</time>
      </trkpt>
      <trkpt lat="50.74872" lon="3.4128">
        <ele>61.68</ele>
        <time>2021-06-20T08:29:10.000Z</time>
      </trkpt>
      <trkpt lat="50.74877" lon="3.41277">
        <ele>62</ele>
        <time>2021-06-20T08:29:11.000Z</time>
      </trkpt>
      <trkpt lat="50.74882" lon="3.41274">
        <ele>62.22</ele>
        <time>2021-06-20T08:29:12.000Z</time>
      </trkpt>
      <trkpt lat="50.74887" lon="3.41272">
        <ele>62.13</ele>
        <time>2021-06-20T08:29:13.000Z</time>
      </trkpt>
      <trkpt lat="50.74892" lon="3.41269">
        <ele>62.14</ele>
        <time>2021-06-20T08:29:14.000Z</time>
      </trkpt>
      <trkpt lat="50.74897" lon="3.41267">
        <ele>62.94</ele>
        <time>2021-06-20T08:29:15.000Z</time>
      </trkpt>
      <trkpt lat="50.74901" lon="3.41265">
        <ele>63.06</ele>
        <time>2021-06-20T08:29:16.000Z</time>
      </trkpt>
      <trkpt lat="50.74909" lon="3.4126">
        <ele>63.26</ele>
        <time>2021-06-20T08:29:18.000Z</time>
      </trkpt>
      <trkpt lat="50.74913" lon="3.41248">
        <ele>63.88</ele>
        <time>2021-06-20T08:29:20.000Z</time>
      </trkpt>
      <trkpt lat="50.7491" lon="3.41235">
        <ele>63.99</ele>
        <time>2021-06-20T08:29:22.000Z</time>
      </trkpt>
      <trkpt lat="50.74905" lon="3.41229">
        <ele>64.63</ele>
        <time>2021-06-20T08:29:23.000Z</time>
      </trkpt>
      <trkpt lat="50.74902" lon="3.41223">
        <ele>64.68</ele>
        <time>2021-06-20T08:29:24.000Z</time>
      </trkpt>
      <trkpt lat="50.74898" lon="3.41216">
        <ele>64.9</ele>
        <time>2021-06-20T08:29:25.000Z</time>
      </trkpt>
      <trkpt lat="50.74895" lon="3.41209">
        <ele>65.56</ele>
        <time>2021-06-20T08:29:26.000Z</time>
      </trkpt>
      <trkpt lat="50.74891" lon="3.41202">
        <ele>65.5</ele>
        <time>2021-06-20T08:29:27.000Z</time>
      </trkpt>
      <trkpt lat="50.74888" lon="3.41194">
        <ele>66</ele>
        <time>2021-06-20T08:29:28.000Z</time>
      </trkpt>
      <trkpt lat="50.74885" lon="3.41187">
        <ele>65.87</ele>
        <time>2021-06-20T08:29:29.000Z</time>
      </trkpt>
      <trkpt lat="50.74881" lon="3.4118">
        <ele>65.77</ele>
        <time>2021-06-20T08:29:30.000Z</time>
      </trkpt>
      <trkpt lat="50.74877" lon="3.41173">
        <ele>65.47</ele>
        <time>2021-06-20T08:29:31.000Z</time>
      </trkpt>
      <trkpt lat="50.74874" lon="3.41166">
        <ele>65.45</ele>
        <time>2021-06-20T08:29:32.000Z</time>
      </trkpt>
      <trkpt lat="50.74871" lon="3.41159">
        <ele>65.7</ele>
        <time>2021-06-20T08:29:33.000Z</time>
      </trkpt>
      <trkpt lat="50.74868" lon="3.41152">
        <ele>65.74</ele>
        <time>2021-06-20T08:29:34.000Z</time>
      </trkpt>
      <trkpt lat="50.74864" lon="3.41147">
        <ele>65.77</ele>
        <time>2021-06-20T08:29:35.000Z</time>
      </trkpt>
      <trkpt lat="50.74859" lon="3.41146">
        <ele>65.82</ele>
        <time>2021-06-20T08:29:36.000Z</time>
      </trkpt>
      <trkpt lat="50.74854" lon="3.41148">
        <ele>65.58</ele>
        <time>2021-06-20T08:29:37.000Z</time>
      </trkpt>
      <trkpt lat="50.74849" lon="3.41148">
        <ele>65.7</ele>
        <time>2021-06-20T08:29:38.000Z</time>
      </trkpt>
      <trkpt lat="50.74845" lon="3.41145">
        <ele>64.99</ele>
        <time>2021-06-20T08:29:39.000Z</time>
      </trkpt>
      <trkpt lat="50.74842" lon="3.41137">
        <ele>63.69</ele>
        <time>2021-06-20T08:29:40.000Z</time>
      </trkpt>
      <trkpt lat="50.7484" lon="3.4113">
        <ele>64.12</ele>
        <time>2021-06-20T08:29:41.000Z</time>
      </trkpt>
      <trkpt lat="50.74838" lon="3.41122">
        <ele>64.38</ele>
        <time>2021-06-20T08:29:42.000Z</time>
      </trkpt>
      <trkpt lat="50.74837" lon="3.41114">
        <ele>64.49</ele>
        <time>2021-06-20T08:29:43.000Z</time>
      </trkpt>
      <trkpt lat="50.74834" lon="3.41108">
        <ele>64.1</ele>
        <time>2021-06-20T08:29:44.000Z</time>
      </trkpt>
      <trkpt lat="50.74829" lon="3.41105">
        <ele>63.79</ele>
        <time>2021-06-20T08:29:45.000Z</time>
      </trkpt>
      <trkpt lat="50.74823" lon="3.41107">
        <ele>63.8</ele>
        <time>2021-06-20T08:29:46.000Z</time>
      </trkpt>
      <trkpt lat="50.74818" lon="3.4111">
        <ele>63.26</ele>
        <time>2021-06-20T08:29:47.000Z</time>
      </trkpt>
      <trkpt lat="50.74812" lon="3.41114">
        <ele>63.69</ele>
        <time>2021-06-20T08:29:48.000Z</time>
      </trkpt>
      <trkpt lat="50.74806" lon="3.41117">
        <ele>63.45</ele>
        <time>2021-06-20T08:29:49.000Z</time>
      </trkpt>
      <trkpt lat="50.74801" lon="3.41119">
        <ele>63.48</ele>
        <time>2021-06-20T08:29:50.000Z</time>
      </trkpt>
      <trkpt lat="50.74796" lon="3.41121">
        <ele>64</ele>
        <time>2021-06-20T08:29:51.000Z</time>
      </trkpt>
      <trkpt lat="50.74791" lon="3.41124">
        <ele>63.72</ele>
        <time>2021-06-20T08:29:52.000Z</time>
      </trkpt>
      <trkpt lat="50.74787" lon="3.41126">
        <ele>63.21</ele>
        <time>2021-06-20T08:29:53.000Z</time>
      </trkpt>
      <trkpt lat="50.74782" lon="3.41129">
        <ele>62.9</ele>
        <time>2021-06-20T08:29:54.000Z</time>
      </trkpt>
      <trkpt lat="50.74778" lon="3.41132">
        <ele>62.64</ele>
        <time>2021-06-20T08:29:55.000Z</time>
      </trkpt>
      <trkpt lat="50.74773" lon="3.41134">
        <ele>62.67</ele>
        <time>2021-06-20T08:29:56.000Z</time>
      </trkpt>
      <trkpt lat="50.74765" lon="3.41137">
        <ele>62.72</ele>
        <time>2021-06-20T08:29:58.000Z</time>
      </trkpt>
      <trkpt lat="50.74758" lon="3.41139">
        <ele>62.72</ele>
        <time>2021-06-20T08:30:00.000Z</time>
      </trkpt>
      <trkpt lat="50.74758" lon="3.41139">
        <ele>62.72</ele>
        <time>2021-06-20T08:30:00.001Z</time>
      </trkpt>
      <trkpt lat="50.74754" lon="3.41134">
        <ele>60.92</ele>
        <time>2021-06-20T08:31:06.000Z</time>
      </trkpt>
      <trkpt lat="50.74759" lon="3.41137">
        <ele>63.67</ele>
        <time>2021-06-20T08:47:20.000Z</time>
      </trkpt>
      <trkpt lat="50.74764" lon="3.4114">
        <ele>59.73</ele>
        <time>2021-06-20T09:22:38.000Z</time>
      </trkpt>
      <trkpt lat="50.7477" lon="3.41138">
        <ele>59.27</ele>
        <time>2021-06-20T09:22:41.000Z</time>
      </trkpt>
      <trkpt lat="50.74775" lon="3.41135">
        <ele>61.63</ele>
        <time>2021-06-20T09:22:43.000Z</time>
      </trkpt>
      <trkpt lat="50.74782" lon="3.4113">
        <ele>58.83</ele>
        <time>2021-06-20T09:22:45.000Z</time>
      </trkpt>
      <trkpt lat="50.74787" lon="3.41124">
        <ele>59.7</ele>
        <time>2021-06-20T09:22:47.000Z</time>
      </trkpt>
      <trkpt lat="50.74794" lon="3.4112">
        <ele>60.33</ele>
        <time>2021-06-20T09:22:49.000Z</time>
      </trkpt>
      <trkpt lat="50.74801" lon="3.41117">
        <ele>61.5</ele>
        <time>2021-06-20T09:22:51.000Z</time>
      </trkpt>
      <trkpt lat="50.74809" lon="3.41115">
        <ele>62.2</ele>
        <time>2021-06-20T09:22:53.000Z</time>
      </trkpt>
      <trkpt lat="50.74817" lon="3.41111">
        <ele>62.53</ele>
        <time>2021-06-20T09:22:55.000Z</time>
      </trkpt>
      <trkpt lat="50.74825" lon="3.41109">
        <ele>63.14</ele>
        <time>2021-06-20T09:22:57.000Z</time>
      </trkpt>
      <trkpt lat="50.74832" lon="3.41108">
        <ele>63.57</ele>
        <time>2021-06-20T09:22:59.000Z</time>
      </trkpt>
      <trkpt lat="50.74838" lon="3.41106">
        <ele>63.88</ele>
        <time>2021-06-20T09:23:01.000Z</time>
      </trkpt>
      <trkpt lat="50.74844" lon="3.41104">
        <ele>64.79</ele>
        <time>2021-06-20T09:23:03.000Z</time>
      </trkpt>
      <trkpt lat="50.74847" lon="3.41098">
        <ele>65.06</ele>
        <time>2021-06-20T09:23:05.000Z</time>
      </trkpt>
      <trkpt lat="50.74845" lon="3.4109">
        <ele>64.14</ele>
        <time>2021-06-20T09:23:07.000Z</time>
      </trkpt>
      <trkpt lat="50.74842" lon="3.4108">
        <ele>64.43</ele>
        <time>2021-06-20T09:23:09.000Z</time>
      </trkpt>
      <trkpt lat="50.74841" lon="3.41069">
        <ele>64.43</ele>
        <time>2021-06-20T09:23:11.000Z</time>
      </trkpt>
      <trkpt lat="50.74838" lon="3.41055">
        <ele>64.19</ele>
        <time>2021-06-20T09:23:13.000Z</time>
      </trkpt>
      <trkpt lat="50.74836" lon="3.41048">
        <ele>63.65</ele>
        <time>2021-06-20T09:23:14.000Z</time>
      </trkpt>
      <trkpt lat="50.74834" lon="3.41041">
        <ele>63.7</ele>
        <time>2021-06-20T09:23:15.000Z</time>
      </trkpt>
      <trkpt lat="50.74832" lon="3.41032">
        <ele>63.47</ele>
        <time>2021-06-20T09:23:16.000Z</time>
      </trkpt>
      <trkpt lat="50.74829" lon="3.41024">
        <ele>63.33</ele>
        <time>2021-06-20T09:23:17.000Z</time>
      </trkpt>
      <trkpt lat="50.74827" lon="3.41016">
        <ele>63.11</ele>
        <time>2021-06-20T09:23:18.000Z</time>
      </trkpt>
      <trkpt lat="50.74825" lon="3.41008">
        <ele>62.9</ele>
        <time>2021-06-20T09:23:19.000Z</time>
      </trkpt>
      <trkpt lat="50.74824" lon="3.40999">
        <ele>62.67</ele>
        <time>2021-06-20T09:23:20.000Z</time>
      </trkpt>
      <trkpt lat="50.74822" lon="3.40989">
        <ele>62.54</ele>
        <time>2021-06-20T09:23:21.000Z</time>
      </trkpt>
      <trkpt lat="50.74821" lon="3.4098">
        <ele>62.48</ele>
        <time>2021-06-20T09:23:22.000Z</time>
      </trkpt>
      <trkpt lat="50.74819" lon="3.40971">
        <ele>62.73</ele>
        <time>2021-06-20T09:23:23.000Z</time>
      </trkpt>
      <trkpt lat="50.74818" lon="3.40961">
        <ele>62.31</ele>
        <time>2021-06-20T09:23:24.000Z</time>
      </trkpt>
      <trkpt lat="50.74817" lon="3.40952">
        <ele>62.34</ele>
        <time>2021-06-20T09:23:25.000Z</time>
      </trkpt>
      <trkpt lat="50.74817" lon="3.40942">
        <ele>61.97</ele>
        <time>2021-06-20T09:23:26.000Z</time>
      </trkpt>
      <trkpt lat="50.74816" lon="3.40932">
        <ele>61.7</ele>
        <time>2021-06-20T09:23:27.000Z</time>
      </trkpt>
      <trkpt lat="50.74816" lon="3.40923">
        <ele>61.62</ele>
        <time>2021-06-20T09:23:28.000Z</time>
      </trkpt>
      <trkpt lat="50.74815" lon="3.40913">
        <ele>61.84</ele>
        <time>2021-06-20T09:23:29.000Z</time>
      </trkpt>
      <trkpt lat="50.74815" lon="3.40903">
        <ele>61.96</ele>
        <time>2021-06-20T09:23:30.000Z</time>
      </trkpt>
      <trkpt lat="50.74815" lon="3.40893">
        <ele>61.53</ele>
        <time>2021-06-20T09:23:31.000Z</time>
      </trkpt>
      <trkpt lat="50.74815" lon="3.40884">
        <ele>61.51</ele>
        <time>2021-06-20T09:23:32.000Z</time>
      </trkpt>
      <trkpt lat="50.74815" lon="3.40874">
        <ele>60.99</ele>
        <time>2021-06-20T09:23:33.000Z</time>
      </trkpt>
      <trkpt lat="50.74815" lon="3.40863">
        <ele>61.11</ele>
        <time>2021-06-20T09:23:34.000Z</time>
      </trkpt>
      <trkpt lat="50.74814" lon="3.40853">
        <ele>61.11</ele>
        <time>2021-06-20T09:23:35.000Z</time>
      </trkpt>
      <trkpt lat="50.74814" lon="3.40843">
        <ele>61.06</ele>
        <time>2021-06-20T09:23:36.000Z</time>
      </trkpt>
      <trkpt lat="50.74814" lon="3.40832">
        <ele>60.99</ele>
        <time>2021-06-20T09:23:37.000Z</time>
      </trkpt>
      <trkpt lat="50.74814" lon="3.40822">
        <ele>61.03</ele>
        <time>2021-06-20T09:23:38.000Z</time>
      </trkpt>
      <trkpt lat="50.74814" lon="3.40811">
        <ele>60.86</ele>
        <time>2021-06-20T09:23:39.000Z</time>
      </trkpt>
      <trkpt lat="50.74814" lon="3.40801">
        <ele>60.69</ele>
        <time>2021-06-20T09:23:40.000Z</time>
      </trkpt>
      <trkpt lat="50.74814" lon="3.4079">
        <ele>60.81</ele>
        <time>2021-06-20T09:23:41.000Z</time>
      </trkpt>
      <trkpt lat="50.74813" lon="3.40779">
        <ele>60.46</ele>
        <time>2021-06-20T09:23:42.000Z</time>
      </trkpt>
      <trkpt lat="50.74813" lon="3.40769">
        <ele>60.41</ele>
        <time>2021-06-20T09:23:43.000Z</time>
      </trkpt>
      <trkpt lat="50.74812" lon="3.40758">
        <ele>60.2</ele>
        <time>2021-06-20T09:23:44.000Z</time>
      </trkpt>
      <trkpt lat="50.74812" lon="3.40747">
        <ele>60.13</ele>
        <time>2021-06-20T09:23:45.000Z</time>
      </trkpt>
      <trkpt lat="50.74812" lon="3.40737">
        <ele>60.03</ele>
        <time>2021-06-20T09:23:46.000Z</time>
      </trkpt>
      <trkpt lat="50.74812" lon="3.40726">
        <ele>60.05</ele>
        <time>2021-06-20T09:23:47.000Z</time>
      </trkpt>
      <trkpt lat="50.74812" lon="3.40715">
        <ele>59.83</ele>
        <time>2021-06-20T09:23:48.000Z</time>
      </trkpt>
      <trkpt lat="50.74811" lon="3.40705">
        <ele>60.01</ele>
        <time>2021-06-20T09:23:49.000Z</time>
      </trkpt>
      <trkpt lat="50.74811" lon="3.40694">
        <ele>59.75</ele>
        <time>2021-06-20T09:23:50.000Z</time>
      </trkpt>
      <trkpt lat="50.74811" lon="3.40683">
        <ele>59.63</ele>
        <time>2021-06-20T09:23:51.000Z</time>
      </trkpt>
      <trkpt lat="50.7481" lon="3.40673">
        <ele>59.37</ele>
        <time>2021-06-20T09:23:52.000Z</time>
      </trkpt>
      <trkpt lat="50.74809" lon="3.40662">
        <ele>59.28</ele>
        <time>2021-06-20T09:23:53.000Z</time>
      </trkpt>
      <trkpt lat="50.74808" lon="3.40652">
        <ele>59.58</ele>
        <time>2021-06-20T09:23:54.000Z</time>
      </trkpt>
      <trkpt lat="50.74807" lon="3.40642">
        <ele>59.47</ele>
        <time>2021-06-20T09:23:55.000Z</time>
      </trkpt>
      <trkpt lat="50.74805" lon="3.40632">
        <ele>58.92</ele>
        <time>2021-06-20T09:23:56.000Z</time>
      </trkpt>
      <trkpt lat="50.74801" lon="3.40623">
        <ele>59.16</ele>
        <time>2021-06-20T09:23:57.000Z</time>
      </trkpt>
      <trkpt lat="50.74798" lon="3.40614">
        <ele>59.51</ele>
        <time>2021-06-20T09:23:58.000Z</time>
      </trkpt>
      <trkpt lat="50.74794" lon="3.40606">
        <ele>58.95</ele>
        <time>2021-06-20T09:23:59.000Z</time>
      </trkpt>
      <trkpt lat="50.74789" lon="3.40597">
        <ele>58.32</ele>
        <time>2021-06-20T09:24:00.000Z</time>
      </trkpt>
      <trkpt lat="50.74785" lon="3.40589">
        <ele>58.57</ele>
        <time>2021-06-20T09:24:01.000Z</time>
      </trkpt>
      <trkpt lat="50.74781" lon="3.4058">
        <ele>58.3</ele>
        <time>2021-06-20T09:24:02.000Z</time>
      </trkpt>
      <trkpt lat="50.74777" lon="3.40571">
        <ele>58.07</ele>
        <time>2021-06-20T09:24:03.000Z</time>
      </trkpt>
      <trkpt lat="50.74774" lon="3.40562">
        <ele>57.97</ele>
        <time>2021-06-20T09:24:04.000Z</time>
      </trkpt>
      <trkpt lat="50.7477" lon="3.40552">
        <ele>58.26</ele>
        <time>2021-06-20T09:24:05.000Z</time>
      </trkpt>
      <trkpt lat="50.74767" lon="3.40541">
        <ele>58.06</ele>
        <time>2021-06-20T09:24:06.000Z</time>
      </trkpt>
      <trkpt lat="50.74763" lon="3.40531">
        <ele>58.11</ele>
        <time>2021-06-20T09:24:07.000Z</time>
      </trkpt>
      <trkpt lat="50.74759" lon="3.40521">
        <ele>57.95</ele>
        <time>2021-06-20T09:24:08.000Z</time>
      </trkpt>
      <trkpt lat="50.74756" lon="3.4051">
        <ele>57.9</ele>
        <time>2021-06-20T09:24:09.000Z</time>
      </trkpt>
      <trkpt lat="50.74753" lon="3.405">
        <ele>57.83</ele>
        <time>2021-06-20T09:24:10.000Z</time>
      </trkpt>
      <trkpt lat="50.74749" lon="3.4049">
        <ele>57.98</ele>
        <time>2021-06-20T09:24:11.000Z</time>
      </trkpt>
      <trkpt lat="50.74746" lon="3.40478">
        <ele>57.71</ele>
        <time>2021-06-20T09:24:12.000Z</time>
      </trkpt>
      <trkpt lat="50.74743" lon="3.40467">
        <ele>57.87</ele>
        <time>2021-06-20T09:24:13.000Z</time>
      </trkpt>
      <trkpt lat="50.7474" lon="3.40456">
        <ele>57.83</ele>
        <time>2021-06-20T09:24:14.000Z</time>
      </trkpt>
      <trkpt lat="50.74737" lon="3.40445">
        <ele>58.4</ele>
        <time>2021-06-20T09:24:15.000Z</time>
      </trkpt>
      <trkpt lat="50.74734" lon="3.40435">
        <ele>58.35</ele>
        <time>2021-06-20T09:24:16.000Z</time>
      </trkpt>
      <trkpt lat="50.7473" lon="3.40425">
        <ele>58.11</ele>
        <time>2021-06-20T09:24:17.000Z</time>
      </trkpt>
      <trkpt lat="50.74727" lon="3.40415">
        <ele>57.77</ele>
        <time>2021-06-20T09:24:18.000Z</time>
      </trkpt>
      <trkpt lat="50.74724" lon="3.40405">
        <ele>57.8</ele>
        <time>2021-06-20T09:24:19.000Z</time>
      </trkpt>
      <trkpt lat="50.74721" lon="3.40394">
        <ele>58.03</ele>
        <time>2021-06-20T09:24:20.000Z</time>
      </trkpt>
      <trkpt lat="50.74717" lon="3.40384">
        <ele>57.78</ele>
        <time>2021-06-20T09:24:21.000Z</time>
      </trkpt>
      <trkpt lat="50.74714" lon="3.40373">
        <ele>57.93</ele>
        <time>2021-06-20T09:24:22.000Z</time>
      </trkpt>
      <trkpt lat="50.7471" lon="3.40363">
        <ele>57.76</ele>
        <time>2021-06-20T09:24:23.000Z</time>
      </trkpt>
      <trkpt lat="50.74707" lon="3.40353">
        <ele>57.87</ele>
        <time>2021-06-20T09:24:24.000Z</time>
      </trkpt>
      <trkpt lat="50.74703" lon="3.40343">
        <ele>57.86</ele>
        <time>2021-06-20T09:24:25.000Z</time>
      </trkpt>
      <trkpt lat="50.74699" lon="3.40334">
        <ele>58.36</ele>
        <time>2021-06-20T09:24:26.000Z</time>
      </trkpt>
      <trkpt lat="50.74695" lon="3.40324">
        <ele>58.04</ele>
        <time>2021-06-20T09:24:27.000Z</time>
      </trkpt>
      <trkpt lat="50.74692" lon="3.40314">
        <ele>58.23</ele>
        <time>2021-06-20T09:24:28.000Z</time>
      </trkpt>
      <trkpt lat="50.74688" lon="3.40304">
        <ele>58.22</ele>
        <time>2021-06-20T09:24:29.000Z</time>
      </trkpt>
      <trkpt lat="50.74685" lon="3.40294">
        <ele>58.12</ele>
        <time>2021-06-20T09:24:30.000Z</time>
      </trkpt>
      <trkpt lat="50.74681" lon="3.40285">
        <ele>58.32</ele>
        <time>2021-06-20T09:24:31.000Z</time>
      </trkpt>
      <trkpt lat="50.74678" lon="3.40276">
        <ele>58.51</ele>
        <time>2021-06-20T09:24:32.000Z</time>
      </trkpt>
      <trkpt lat="50.74673" lon="3.40266">
        <ele>58.4</ele>
        <time>2021-06-20T09:24:33.000Z</time>
      </trkpt>
      <trkpt lat="50.74669" lon="3.40257">
        <ele>58.1</ele>
        <time>2021-06-20T09:24:34.000Z</time>
      </trkpt>
      <trkpt lat="50.74665" lon="3.40247">
        <ele>58.68</ele>
        <time>2021-06-20T09:24:35.000Z</time>
      </trkpt>
      <trkpt lat="50.7466" lon="3.40239">
        <ele>58.93</ele>
        <time>2021-06-20T09:24:36.000Z</time>
      </trkpt>
      <trkpt lat="50.74656" lon="3.4023">
        <ele>58.79</ele>
        <time>2021-06-20T09:24:37.000Z</time>
      </trkpt>
      <trkpt lat="50.7465" lon="3.40221">
        <ele>58.83</ele>
        <time>2021-06-20T09:24:38.000Z</time>
      </trkpt>
      <trkpt lat="50.74644" lon="3.40213">
        <ele>58.81</ele>
        <time>2021-06-20T09:24:39.000Z</time>
      </trkpt>
      <trkpt lat="50.74638" lon="3.40205">
        <ele>58.83</ele>
        <time>2021-06-20T09:24:40.000Z</time>
      </trkpt>
      <trkpt lat="50.74632" lon="3.40197">
        <ele>58.58</ele>
        <time>2021-06-20T09:24:41.000Z</time>
      </trkpt>
      <trkpt lat="50.74626" lon="3.4019">
        <ele>59.12</ele>
        <time>2021-06-20T09:24:42.000Z</time>
      </trkpt>
      <trkpt lat="50.7462" lon="3.40182">
        <ele>58.9</ele>
        <time>2021-06-20T09:24:43.000Z</time>
      </trkpt>
      <trkpt lat="50.74614" lon="3.40175">
        <ele>59.23</ele>
        <time>2021-06-20T09:24:44.000Z</time>
      </trkpt>
      <trkpt lat="50.74608" lon="3.40167">
        <ele>58.94</ele>
        <time>2021-06-20T09:24:45.000Z</time>
      </trkpt>
      <trkpt lat="50.74602" lon="3.40159">
        <ele>59.02</ele>
        <time>2021-06-20T09:24:46.000Z</time>
      </trkpt>
      <trkpt lat="50.74595" lon="3.40151">
        <ele>59.05</ele>
        <time>2021-06-20T09:24:47.000Z</time>
      </trkpt>
      <trkpt lat="50.74589" lon="3.40144">
        <ele>59.11</ele>
        <time>2021-06-20T09:24:48.000Z</time>
      </trkpt>
      <trkpt lat="50.74583" lon="3.40136">
        <ele>59.27</ele>
        <time>2021-06-20T09:24:49.000Z</time>
      </trkpt>
      <trkpt lat="50.74577" lon="3.40128">
        <ele>59.34</ele>
        <time>2021-06-20T09:24:50.000Z</time>
      </trkpt>
      <trkpt lat="50.74571" lon="3.40121">
        <ele>59.48</ele>
        <time>2021-06-20T09:24:51.000Z</time>
      </trkpt>
      <trkpt lat="50.74565" lon="3.40115">
        <ele>59.46</ele>
        <time>2021-06-20T09:24:52.000Z</time>
      </trkpt>
      <trkpt lat="50.7456" lon="3.40107">
        <ele>59.53</ele>
        <time>2021-06-20T09:24:53.000Z</time>
      </trkpt>
      <trkpt lat="50.74554" lon="3.401">
        <ele>59.55</ele>
        <time>2021-06-20T09:24:54.000Z</time>
      </trkpt>
      <trkpt lat="50.74549" lon="3.40094">
        <ele>59.95</ele>
        <time>2021-06-20T09:24:55.000Z</time>
      </trkpt>
      <trkpt lat="50.74544" lon="3.40086">
        <ele>59.83</ele>
        <time>2021-06-20T09:24:56.000Z</time>
      </trkpt>
      <trkpt lat="50.74541" lon="3.40078">
        <ele>59.89</ele>
        <time>2021-06-20T09:24:57.000Z</time>
      </trkpt>
      <trkpt lat="50.7454" lon="3.40069">
        <ele>60.04</ele>
        <time>2021-06-20T09:24:58.000Z</time>
      </trkpt>
      <trkpt lat="50.7454" lon="3.40059">
        <ele>60.32</ele>
        <time>2021-06-20T09:24:59.000Z</time>
      </trkpt>
      <trkpt lat="50.7454" lon="3.40049">
        <ele>60.17</ele>
        <time>2021-06-20T09:25:00.000Z</time>
      </trkpt>
      <trkpt lat="50.74542" lon="3.4004">
        <ele>60.47</ele>
        <time>2021-06-20T09:25:01.000Z</time>
      </trkpt>
      <trkpt lat="50.74543" lon="3.40029">
        <ele>60.35</ele>
        <time>2021-06-20T09:25:02.000Z</time>
      </trkpt>
      <trkpt lat="50.74543" lon="3.40018">
        <ele>61.21</ele>
        <time>2021-06-20T09:25:03.000Z</time>
      </trkpt>
      <trkpt lat="50.74544" lon="3.40007">
        <ele>60.77</ele>
        <time>2021-06-20T09:25:04.000Z</time>
      </trkpt>
      <trkpt lat="50.74545" lon="3.39995">
        <ele>60.13</ele>
        <time>2021-06-20T09:25:05.000Z</time>
      </trkpt>
      <trkpt lat="50.74546" lon="3.39984">
        <ele>60.09</ele>
        <time>2021-06-20T09:25:06.000Z</time>
      </trkpt>
      <trkpt lat="50.74546" lon="3.39972">
        <ele>59.84</ele>
        <time>2021-06-20T09:25:07.000Z</time>
      </trkpt>
      <trkpt lat="50.74547" lon="3.3996">
        <ele>59.79</ele>
        <time>2021-06-20T09:25:08.000Z</time>
      </trkpt>
      <trkpt lat="50.74547" lon="3.39948">
        <ele>59.97</ele>
        <time>2021-06-20T09:25:09.000Z</time>
      </trkpt>
      <trkpt lat="50.74547" lon="3.39936">
        <ele>59.67</ele>
        <time>2021-06-20T09:25:10.000Z</time>
      </trkpt>
      <trkpt lat="50.74548" lon="3.39924">
        <ele>60.92</ele>
        <time>2021-06-20T09:25:11.000Z</time>
      </trkpt>
      <trkpt lat="50.74548" lon="3.39911">
        <ele>60.41</ele>
        <time>2021-06-20T09:25:12.000Z</time>
      </trkpt>
      <trkpt lat="50.74548" lon="3.39899">
        <ele>59.61</ele>
        <time>2021-06-20T09:25:13.000Z</time>
      </trkpt>
      <trkpt lat="50.74547" lon="3.39887">
        <ele>59.68</ele>
        <time>2021-06-20T09:25:14.000Z</time>
      </trkpt>
      <trkpt lat="50.74546" lon="3.39874">
        <ele>59.67</ele>
        <time>2021-06-20T09:25:15.000Z</time>
      </trkpt>
      <trkpt lat="50.74546" lon="3.39862">
        <ele>59.42</ele>
        <time>2021-06-20T09:25:16.000Z</time>
      </trkpt>
      <trkpt lat="50.74544" lon="3.3985">
        <ele>59.17</ele>
        <time>2021-06-20T09:25:17.000Z</time>
      </trkpt>
      <trkpt lat="50.74543" lon="3.39838">
        <ele>59</ele>
        <time>2021-06-20T09:25:18.000Z</time>
      </trkpt>
      <trkpt lat="50.74542" lon="3.39826">
        <ele>58.91</ele>
        <time>2021-06-20T09:25:19.000Z</time>
      </trkpt>
      <trkpt lat="50.7454" lon="3.39814">
        <ele>58.78</ele>
        <time>2021-06-20T09:25:20.000Z</time>
      </trkpt>
      <trkpt lat="50.7454" lon="3.39801">
        <ele>58.88</ele>
        <time>2021-06-20T09:25:21.000Z</time>
      </trkpt>
      <trkpt lat="50.74539" lon="3.39789">
        <ele>58.76</ele>
        <time>2021-06-20T09:25:22.000Z</time>
      </trkpt>
      <trkpt lat="50.74538" lon="3.39777">
        <ele>59.06</ele>
        <time>2021-06-20T09:25:23.000Z</time>
      </trkpt>
      <trkpt lat="50.74538" lon="3.39764">
        <ele>58.84</ele>
        <time>2021-06-20T09:25:24.000Z</time>
      </trkpt>
      <trkpt lat="50.74538" lon="3.39752">
        <ele>58.99</ele>
        <time>2021-06-20T09:25:25.000Z</time>
      </trkpt>
      <trkpt lat="50.74539" lon="3.3974">
        <ele>59.55</ele>
        <time>2021-06-20T09:25:26.000Z</time>
      </trkpt>
      <trkpt lat="50.74539" lon="3.39728">
        <ele>59.75</ele>
        <time>2021-06-20T09:25:27.000Z</time>
      </trkpt>
      <trkpt lat="50.7454" lon="3.39716">
        <ele>60.13</ele>
        <time>2021-06-20T09:25:28.000Z</time>
      </trkpt>
      <trkpt lat="50.74541" lon="3.39704">
        <ele>60.41</ele>
        <time>2021-06-20T09:25:29.000Z</time>
      </trkpt>
      <trkpt lat="50.74542" lon="3.39692">
        <ele>60.4</ele>
        <time>2021-06-20T09:25:30.000Z</time>
      </trkpt>
      <trkpt lat="50.74543" lon="3.3968">
        <ele>60.51</ele>
        <time>2021-06-20T09:25:31.000Z</time>
      </trkpt>
      <trkpt lat="50.74545" lon="3.39668">
        <ele>60.62</ele>
        <time>2021-06-20T09:25:32.000Z</time>
      </trkpt>
      <trkpt lat="50.74547" lon="3.39656">
        <ele>60.7</ele>
        <time>2021-06-20T09:25:33.000Z</time>
      </trkpt>
      <trkpt lat="50.74549" lon="3.39644">
        <ele>60.74</ele>
        <time>2021-06-20T09:25:34.000Z</time>
      </trkpt>
      <trkpt lat="50.7455" lon="3.39633">
        <ele>60.43</ele>
        <time>2021-06-20T09:25:35.000Z</time>
      </trkpt>
      <trkpt lat="50.74552" lon="3.39621">
        <ele>60.35</ele>
        <time>2021-06-20T09:25:36.000Z</time>
      </trkpt>
      <trkpt lat="50.74554" lon="3.3961">
        <ele>60.15</ele>
        <time>2021-06-20T09:25:37.000Z</time>
      </trkpt>
      <trkpt lat="50.74556" lon="3.39599">
        <ele>60.06</ele>
        <time>2021-06-20T09:25:38.000Z</time>
      </trkpt>
      <trkpt lat="50.74558" lon="3.39587">
        <ele>60.23</ele>
        <time>2021-06-20T09:25:39.000Z</time>
      </trkpt>
      <trkpt lat="50.74561" lon="3.39576">
        <ele>60.31</ele>
        <time>2021-06-20T09:25:40.000Z</time>
      </trkpt>
      <trkpt lat="50.74564" lon="3.39564">
        <ele>60.06</ele>
        <time>2021-06-20T09:25:41.000Z</time>
      </trkpt>
      <trkpt lat="50.74567" lon="3.39553">
        <ele>59.99</ele>
        <time>2021-06-20T09:25:42.000Z</time>
      </trkpt>
      <trkpt lat="50.7457" lon="3.39542">
        <ele>59.91</ele>
        <time>2021-06-20T09:25:43.000Z</time>
      </trkpt>
      <trkpt lat="50.74574" lon="3.39532">
        <ele>59.82</ele>
        <time>2021-06-20T09:25:44.000Z</time>
      </trkpt>
      <trkpt lat="50.74579" lon="3.39522">
        <ele>59.23</ele>
        <time>2021-06-20T09:25:45.000Z</time>
      </trkpt>
      <trkpt lat="50.74583" lon="3.39512">
        <ele>59.29</ele>
        <time>2021-06-20T09:25:46.000Z</time>
      </trkpt>
      <trkpt lat="50.74588" lon="3.39503">
        <ele>59.35</ele>
        <time>2021-06-20T09:25:47.000Z</time>
      </trkpt>
      <trkpt lat="50.74592" lon="3.39493">
        <ele>59.07</ele>
        <time>2021-06-20T09:25:48.000Z</time>
      </trkpt>
      <trkpt lat="50.74598" lon="3.39484">
        <ele>58.88</ele>
        <time>2021-06-20T09:25:49.000Z</time>
      </trkpt>
      <trkpt lat="50.74603" lon="3.39475">
        <ele>58.55</ele>
        <time>2021-06-20T09:25:50.000Z</time>
      </trkpt>
      <trkpt lat="50.74608" lon="3.39467">
        <ele>58.31</ele>
        <time>2021-06-20T09:25:51.000Z</time>
      </trkpt>
      <trkpt lat="50.74613" lon="3.39458">
        <ele>58.11</ele>
        <time>2021-06-20T09:25:52.000Z</time>
      </trkpt>
      <trkpt lat="50.74617" lon="3.39449">
        <ele>58.01</ele>
        <time>2021-06-20T09:25:53.000Z</time>
      </trkpt>
      <trkpt lat="50.74622" lon="3.39441">
        <ele>58.34</ele>
        <time>2021-06-20T09:25:54.000Z</time>
      </trkpt>
      <trkpt lat="50.74627" lon="3.39432">
        <ele>58.55</ele>
        <time>2021-06-20T09:25:55.000Z</time>
      </trkpt>
      <trkpt lat="50.74631" lon="3.39424">
        <ele>58.52</ele>
        <time>2021-06-20T09:25:56.000Z</time>
      </trkpt>
      <trkpt lat="50.74634" lon="3.39414">
        <ele>58.57</ele>
        <time>2021-06-20T09:25:57.000Z</time>
      </trkpt>
      <trkpt lat="50.74635" lon="3.39405">
        <ele>58.36</ele>
        <time>2021-06-20T09:25:58.000Z</time>
      </trkpt>
      <trkpt lat="50.74634" lon="3.39395">
        <ele>58.82</ele>
        <time>2021-06-20T09:25:59.000Z</time>
      </trkpt>
      <trkpt lat="50.74633" lon="3.39386">
        <ele>58.4</ele>
        <time>2021-06-20T09:26:00.000Z</time>
      </trkpt>
      <trkpt lat="50.74632" lon="3.39377">
        <ele>58.52</ele>
        <time>2021-06-20T09:26:01.000Z</time>
      </trkpt>
      <trkpt lat="50.74631" lon="3.39369">
        <ele>58.51</ele>
        <time>2021-06-20T09:26:02.000Z</time>
      </trkpt>
      <trkpt lat="50.7463" lon="3.39361">
        <ele>58.18</ele>
        <time>2021-06-20T09:26:03.000Z</time>
      </trkpt>
      <trkpt lat="50.74629" lon="3.39352">
        <ele>58.25</ele>
        <time>2021-06-20T09:26:04.000Z</time>
      </trkpt>
      <trkpt lat="50.74628" lon="3.39342">
        <ele>58.3</ele>
        <time>2021-06-20T09:26:05.000Z</time>
      </trkpt>
      <trkpt lat="50.74627" lon="3.39333">
        <ele>58.15</ele>
        <time>2021-06-20T09:26:06.000Z</time>
      </trkpt>
      <trkpt lat="50.74627" lon="3.39323">
        <ele>59.72</ele>
        <time>2021-06-20T09:26:07.000Z</time>
      </trkpt>
      <trkpt lat="50.74626" lon="3.39313">
        <ele>59.5</ele>
        <time>2021-06-20T09:26:08.000Z</time>
      </trkpt>
      <trkpt lat="50.74625" lon="3.39303">
        <ele>59.27</ele>
        <time>2021-06-20T09:26:09.000Z</time>
      </trkpt>
      <trkpt lat="50.74624" lon="3.39293">
        <ele>59.25</ele>
        <time>2021-06-20T09:26:10.000Z</time>
      </trkpt>
      <trkpt lat="50.74624" lon="3.39283">
        <ele>59.15</ele>
        <time>2021-06-20T09:26:11.000Z</time>
      </trkpt>
      <trkpt lat="50.74624" lon="3.39273">
        <ele>59.19</ele>
        <time>2021-06-20T09:26:12.000Z</time>
      </trkpt>
      <trkpt lat="50.74625" lon="3.39264">
        <ele>59.03</ele>
        <time>2021-06-20T09:26:13.000Z</time>
      </trkpt>
      <trkpt lat="50.74625" lon="3.39253">
        <ele>59.08</ele>
        <time>2021-06-20T09:26:14.000Z</time>
      </trkpt>
      <trkpt lat="50.74625" lon="3.39242">
        <ele>59.07</ele>
        <time>2021-06-20T09:26:15.000Z</time>
      </trkpt>
      <trkpt lat="50.74623" lon="3.39233">
        <ele>58.88</ele>
        <time>2021-06-20T09:26:16.000Z</time>
      </trkpt>
      <trkpt lat="50.74621" lon="3.39223">
        <ele>58.97</ele>
        <time>2021-06-20T09:26:17.000Z</time>
      </trkpt>
      <trkpt lat="50.74619" lon="3.39214">
        <ele>58.89</ele>
        <time>2021-06-20T09:26:18.000Z</time>
      </trkpt>
      <trkpt lat="50.74615" lon="3.39204">
        <ele>58.79</ele>
        <time>2021-06-20T09:26:19.000Z</time>
      </trkpt>
      <trkpt lat="50.74612" lon="3.39195">
        <ele>58.44</ele>
        <time>2021-06-20T09:26:20.000Z</time>
      </trkpt>
      <trkpt lat="50.74609" lon="3.39186">
        <ele>58.25</ele>
        <time>2021-06-20T09:26:21.000Z</time>
      </trkpt>
      <trkpt lat="50.74606" lon="3.39176">
        <ele>58.08</ele>
        <time>2021-06-20T09:26:22.000Z</time>
      </trkpt>
      <trkpt lat="50.74603" lon="3.39167">
        <ele>58.45</ele>
        <time>2021-06-20T09:26:23.000Z</time>
      </trkpt>
      <trkpt lat="50.746" lon="3.39157">
        <ele>58.56</ele>
        <time>2021-06-20T09:26:24.000Z</time>
      </trkpt>
      <trkpt lat="50.74596" lon="3.39148">
        <ele>58.48</ele>
        <time>2021-06-20T09:26:25.000Z</time>
      </trkpt>
      <trkpt lat="50.74593" lon="3.39139">
        <ele>58.62</ele>
        <time>2021-06-20T09:26:26.000Z</time>
      </trkpt>
      <trkpt lat="50.7459" lon="3.3913">
        <ele>58.29</ele>
        <time>2021-06-20T09:26:27.000Z</time>
      </trkpt>
      <trkpt lat="50.74587" lon="3.3912">
        <ele>58.18</ele>
        <time>2021-06-20T09:26:28.000Z</time>
      </trkpt>
      <trkpt lat="50.74584" lon="3.39111">
        <ele>58.22</ele>
        <time>2021-06-20T09:26:29.000Z</time>
      </trkpt>
      <trkpt lat="50.74581" lon="3.39102">
        <ele>58.14</ele>
        <time>2021-06-20T09:26:30.000Z</time>
      </trkpt>
      <trkpt lat="50.74578" lon="3.39092">
        <ele>58.22</ele>
        <time>2021-06-20T09:26:31.000Z</time>
      </trkpt>
      <trkpt lat="50.74575" lon="3.39083">
        <ele>57.95</ele>
        <time>2021-06-20T09:26:32.000Z</time>
      </trkpt>
      <trkpt lat="50.74572" lon="3.39073">
        <ele>58.01</ele>
        <time>2021-06-20T09:26:33.000Z</time>
      </trkpt>
      <trkpt lat="50.74569" lon="3.39064">
        <ele>58.01</ele>
        <time>2021-06-20T09:26:34.000Z</time>
      </trkpt>
      <trkpt lat="50.74566" lon="3.39055">
        <ele>58.13</ele>
        <time>2021-06-20T09:26:35.000Z</time>
      </trkpt>
      <trkpt lat="50.74563" lon="3.39045">
        <ele>58.13</ele>
        <time>2021-06-20T09:26:36.000Z</time>
      </trkpt>
      <trkpt lat="50.7456" lon="3.39035">
        <ele>58.41</ele>
        <time>2021-06-20T09:26:37.000Z</time>
      </trkpt>
      <trkpt lat="50.74557" lon="3.39026">
        <ele>58.32</ele>
        <time>2021-06-20T09:26:38.000Z</time>
      </trkpt>
      <trkpt lat="50.74553" lon="3.39017">
        <ele>58.3</ele>
        <time>2021-06-20T09:26:39.000Z</time>
      </trkpt>
      <trkpt lat="50.7455" lon="3.39008">
        <ele>58.43</ele>
        <time>2021-06-20T09:26:40.000Z</time>
      </trkpt>
      <trkpt lat="50.74545" lon="3.39">
        <ele>58.55</ele>
        <time>2021-06-20T09:26:41.000Z</time>
      </trkpt>
      <trkpt lat="50.7454" lon="3.38993">
        <ele>58.77</ele>
        <time>2021-06-20T09:26:42.000Z</time>
      </trkpt>
      <trkpt lat="50.74536" lon="3.38985">
        <ele>59.24</ele>
        <time>2021-06-20T09:26:43.000Z</time>
      </trkpt>
      <trkpt lat="50.74531" lon="3.38978">
        <ele>59.51</ele>
        <time>2021-06-20T09:26:44.000Z</time>
      </trkpt>
      <trkpt lat="50.74528" lon="3.38971">
        <ele>59.23</ele>
        <time>2021-06-20T09:26:45.000Z</time>
      </trkpt>
      <trkpt lat="50.74524" lon="3.38964">
        <ele>59.11</ele>
        <time>2021-06-20T09:26:46.000Z</time>
      </trkpt>
      <trkpt lat="50.7452" lon="3.38958">
        <ele>59.17</ele>
        <time>2021-06-20T09:26:47.000Z</time>
      </trkpt>
      <trkpt lat="50.74516" lon="3.38951">
        <ele>60.75</ele>
        <time>2021-06-20T09:26:48.000Z</time>
      </trkpt>
      <trkpt lat="50.74515" lon="3.38939">
        <ele>59.95</ele>
        <time>2021-06-20T09:26:50.000Z</time>
      </trkpt>
      <trkpt lat="50.74521" lon="3.38933">
        <ele>59.9</ele>
        <time>2021-06-20T09:26:52.000Z</time>
      </trkpt>
      <trkpt lat="50.74528" lon="3.38928">
        <ele>60.4</ele>
        <time>2021-06-20T09:26:54.000Z</time>
      </trkpt>
      <trkpt lat="50.74533" lon="3.38926">
        <ele>60.71</ele>
        <time>2021-06-20T09:26:55.000Z</time>
      </trkpt>
      <trkpt lat="50.74537" lon="3.38923">
        <ele>61.24</ele>
        <time>2021-06-20T09:26:56.000Z</time>
      </trkpt>
      <trkpt lat="50.74542" lon="3.38921">
        <ele>61.42</ele>
        <time>2021-06-20T09:26:57.000Z</time>
      </trkpt>
      <trkpt lat="50.74547" lon="3.38918">
        <ele>61.41</ele>
        <time>2021-06-20T09:26:58.000Z</time>
      </trkpt>
      <trkpt lat="50.74552" lon="3.38916">
        <ele>61.33</ele>
        <time>2021-06-20T09:26:59.000Z</time>
      </trkpt>
      <trkpt lat="50.74557" lon="3.38913">
        <ele>61.32</ele>
        <time>2021-06-20T09:27:00.000Z</time>
      </trkpt>
      <trkpt lat="50.74562" lon="3.3891">
        <ele>61.61</ele>
        <time>2021-06-20T09:27:01.000Z</time>
      </trkpt>
      <trkpt lat="50.74567" lon="3.38907">
        <ele>61.57</ele>
        <time>2021-06-20T09:27:02.000Z</time>
      </trkpt>
      <trkpt lat="50.74572" lon="3.38905">
        <ele>61.84</ele>
        <time>2021-06-20T09:27:03.000Z</time>
      </trkpt>
      <trkpt lat="50.74578" lon="3.38902">
        <ele>62.72</ele>
        <time>2021-06-20T09:27:04.000Z</time>
      </trkpt>
      <trkpt lat="50.74583" lon="3.38898">
        <ele>61.57</ele>
        <time>2021-06-20T09:27:05.000Z</time>
      </trkpt>
      <trkpt lat="50.74589" lon="3.38895">
        <ele>61.94</ele>
        <time>2021-06-20T09:27:06.000Z</time>
      </trkpt>
      <trkpt lat="50.74595" lon="3.38891">
        <ele>61.99</ele>
        <time>2021-06-20T09:27:07.000Z</time>
      </trkpt>
      <trkpt lat="50.74601" lon="3.38888">
        <ele>62.11</ele>
        <time>2021-06-20T09:27:08.000Z</time>
      </trkpt>
      <trkpt lat="50.74606" lon="3.38883">
        <ele>62.25</ele>
        <time>2021-06-20T09:27:09.000Z</time>
      </trkpt>
      <trkpt lat="50.74611" lon="3.38877">
        <ele>62.22</ele>
        <time>2021-06-20T09:27:10.000Z</time>
      </trkpt>
      <trkpt lat="50.74614" lon="3.38868">
        <ele>61.85</ele>
        <time>2021-06-20T09:27:11.000Z</time>
      </trkpt>
      <trkpt lat="50.74617" lon="3.38859">
        <ele>61.96</ele>
        <time>2021-06-20T09:27:12.000Z</time>
      </trkpt>
      <trkpt lat="50.74618" lon="3.38849">
        <ele>62.2</ele>
        <time>2021-06-20T09:27:13.000Z</time>
      </trkpt>
      <trkpt lat="50.74618" lon="3.38839">
        <ele>61.75</ele>
        <time>2021-06-20T09:27:14.000Z</time>
      </trkpt>
      <trkpt lat="50.74618" lon="3.38828">
        <ele>61.56</ele>
        <time>2021-06-20T09:27:15.000Z</time>
      </trkpt>
      <trkpt lat="50.74617" lon="3.38818">
        <ele>61.58</ele>
        <time>2021-06-20T09:27:16.000Z</time>
      </trkpt>
      <trkpt lat="50.74617" lon="3.38808">
        <ele>61.71</ele>
        <time>2021-06-20T09:27:17.000Z</time>
      </trkpt>
      <trkpt lat="50.74616" lon="3.38798">
        <ele>61.38</ele>
        <time>2021-06-20T09:27:18.000Z</time>
      </trkpt>
      <trkpt lat="50.74615" lon="3.38788">
        <ele>61.32</ele>
        <time>2021-06-20T09:27:19.000Z</time>
      </trkpt>
      <trkpt lat="50.74615" lon="3.38777">
        <ele>61.24</ele>
        <time>2021-06-20T09:27:20.000Z</time>
      </trkpt>
      <trkpt lat="50.74614" lon="3.38767">
        <ele>61.13</ele>
        <time>2021-06-20T09:27:21.000Z</time>
      </trkpt>
      <trkpt lat="50.74614" lon="3.38757">
        <ele>61.2</ele>
        <time>2021-06-20T09:27:22.000Z</time>
      </trkpt>
      <trkpt lat="50.74614" lon="3.38746">
        <ele>61.32</ele>
        <time>2021-06-20T09:27:23.000Z</time>
      </trkpt>
      <trkpt lat="50.74614" lon="3.38735">
        <ele>61.56</ele>
        <time>2021-06-20T09:27:24.000Z</time>
      </trkpt>
      <trkpt lat="50.74615" lon="3.38724">
        <ele>61.43</ele>
        <time>2021-06-20T09:27:25.000Z</time>
      </trkpt>
      <trkpt lat="50.74616" lon="3.38714">
        <ele>61.61</ele>
        <time>2021-06-20T09:27:26.000Z</time>
      </trkpt>
      <trkpt lat="50.74618" lon="3.38703">
        <ele>61.79</ele>
        <time>2021-06-20T09:27:27.000Z</time>
      </trkpt>
      <trkpt lat="50.74619" lon="3.38693">
        <ele>61.86</ele>
        <time>2021-06-20T09:27:28.000Z</time>
      </trkpt>
      <trkpt lat="50.74621" lon="3.38682">
        <ele>62.08</ele>
        <time>2021-06-20T09:27:29.000Z</time>
      </trkpt>
      <trkpt lat="50.74622" lon="3.38671">
        <ele>62.04</ele>
        <time>2021-06-20T09:27:30.000Z</time>
      </trkpt>
      <trkpt lat="50.74624" lon="3.38661">
        <ele>62.25</ele>
        <time>2021-06-20T09:27:31.000Z</time>
      </trkpt>
      <trkpt lat="50.74626" lon="3.3865">
        <ele>62.23</ele>
        <time>2021-06-20T09:27:32.000Z</time>
      </trkpt>
      <trkpt lat="50.74628" lon="3.3864">
        <ele>62.49</ele>
        <time>2021-06-20T09:27:33.000Z</time>
      </trkpt>
      <trkpt lat="50.74629" lon="3.38629">
        <ele>62.81</ele>
        <time>2021-06-20T09:27:34.000Z</time>
      </trkpt>
      <trkpt lat="50.74631" lon="3.38618">
        <ele>63.13</ele>
        <time>2021-06-20T09:27:35.000Z</time>
      </trkpt>
      <trkpt lat="50.74632" lon="3.38608">
        <ele>63.42</ele>
        <time>2021-06-20T09:27:36.000Z</time>
      </trkpt>
      <trkpt lat="50.74634" lon="3.38597">
        <ele>63.55</ele>
        <time>2021-06-20T09:27:37.000Z</time>
      </trkpt>
      <trkpt lat="50.74636" lon="3.38586">
        <ele>63.51</ele>
        <time>2021-06-20T09:27:38.000Z</time>
      </trkpt>
      <trkpt lat="50.74637" lon="3.38575">
        <ele>63.56</ele>
        <time>2021-06-20T09:27:39.000Z</time>
      </trkpt>
      <trkpt lat="50.74639" lon="3.38563">
        <ele>63.62</ele>
        <time>2021-06-20T09:27:40.000Z</time>
      </trkpt>
      <trkpt lat="50.7464" lon="3.38552">
        <ele>63.52</ele>
        <time>2021-06-20T09:27:41.000Z</time>
      </trkpt>
      <trkpt lat="50.74642" lon="3.38541">
        <ele>63.71</ele>
        <time>2021-06-20T09:27:42.000Z</time>
      </trkpt>
      <trkpt lat="50.74644" lon="3.3853">
        <ele>63.79</ele>
        <time>2021-06-20T09:27:43.000Z</time>
      </trkpt>
      <trkpt lat="50.74646" lon="3.38519">
        <ele>63.88</ele>
        <time>2021-06-20T09:27:44.000Z</time>
      </trkpt>
      <trkpt lat="50.74648" lon="3.38508">
        <ele>64.01</ele>
        <time>2021-06-20T09:27:45.000Z</time>
      </trkpt>
      <trkpt lat="50.7465" lon="3.38497">
        <ele>63.89</ele>
        <time>2021-06-20T09:27:46.000Z</time>
      </trkpt>
      <trkpt lat="50.74651" lon="3.38485">
        <ele>63.96</ele>
        <time>2021-06-20T09:27:47.000Z</time>
      </trkpt>
      <trkpt lat="50.74653" lon="3.38474">
        <ele>64.1</ele>
        <time>2021-06-20T09:27:48.000Z</time>
      </trkpt>
      <trkpt lat="50.74655" lon="3.38463">
        <ele>64.08</ele>
        <time>2021-06-20T09:27:49.000Z</time>
      </trkpt>
      <trkpt lat="50.74656" lon="3.38451">
        <ele>64.05</ele>
        <time>2021-06-20T09:27:50.000Z</time>
      </trkpt>
      <trkpt lat="50.74658" lon="3.3844">
        <ele>63.75</ele>
        <time>2021-06-20T09:27:51.000Z</time>
      </trkpt>
      <trkpt lat="50.74659" lon="3.38429">
        <ele>63.56</ele>
        <time>2021-06-20T09:27:52.000Z</time>
      </trkpt>
      <trkpt lat="50.74661" lon="3.38417">
        <ele>63.72</ele>
        <time>2021-06-20T09:27:53.000Z</time>
      </trkpt>
      <trkpt lat="50.74663" lon="3.38405">
        <ele>63.55</ele>
        <time>2021-06-20T09:27:54.000Z</time>
      </trkpt>
      <trkpt lat="50.74664" lon="3.38394">
        <ele>63.88</ele>
        <time>2021-06-20T09:27:55.000Z</time>
      </trkpt>
      <trkpt lat="50.74666" lon="3.38383">
        <ele>63.83</ele>
        <time>2021-06-20T09:27:56.000Z</time>
      </trkpt>
      <trkpt lat="50.74667" lon="3.38371">
        <ele>63.62</ele>
        <time>2021-06-20T09:27:57.000Z</time>
      </trkpt>
      <trkpt lat="50.74669" lon="3.3836">
        <ele>63.92</ele>
        <time>2021-06-20T09:27:58.000Z</time>
      </trkpt>
      <trkpt lat="50.7467" lon="3.38349">
        <ele>64.05</ele>
        <time>2021-06-20T09:27:59.000Z</time>
      </trkpt>
      <trkpt lat="50.74672" lon="3.38337">
        <ele>63.9</ele>
        <time>2021-06-20T09:28:00.000Z</time>
      </trkpt>
      <trkpt lat="50.74674" lon="3.38326">
        <ele>63.64</ele>
        <time>2021-06-20T09:28:01.000Z</time>
      </trkpt>
      <trkpt lat="50.74675" lon="3.38315">
        <ele>63.72</ele>
        <time>2021-06-20T09:28:02.000Z</time>
      </trkpt>
      <trkpt lat="50.74677" lon="3.38303">
        <ele>63.58</ele>
        <time>2021-06-20T09:28:03.000Z</time>
      </trkpt>
      <trkpt lat="50.74679" lon="3.38292">
        <ele>63.84</ele>
        <time>2021-06-20T09:28:04.000Z</time>
      </trkpt>
      <trkpt lat="50.74681" lon="3.3828">
        <ele>63.59</ele>
        <time>2021-06-20T09:28:05.000Z</time>
      </trkpt>
      <trkpt lat="50.74683" lon="3.3827">
        <ele>63.99</ele>
        <time>2021-06-20T09:28:06.000Z</time>
      </trkpt>
      <trkpt lat="50.74684" lon="3.38258">
        <ele>63.94</ele>
        <time>2021-06-20T09:28:07.000Z</time>
      </trkpt>
      <trkpt lat="50.74686" lon="3.38246">
        <ele>63.77</ele>
        <time>2021-06-20T09:28:08.000Z</time>
      </trkpt>
      <trkpt lat="50.74687" lon="3.38235">
        <ele>64.05</ele>
        <time>2021-06-20T09:28:09.000Z</time>
      </trkpt>
      <trkpt lat="50.74687" lon="3.38224">
        <ele>64.05</ele>
        <time>2021-06-20T09:28:10.000Z</time>
      </trkpt>
      <trkpt lat="50.74688" lon="3.38211">
        <ele>64.23</ele>
        <time>2021-06-20T09:28:11.000Z</time>
      </trkpt>
      <trkpt lat="50.74687" lon="3.382">
        <ele>64.2</ele>
        <time>2021-06-20T09:28:12.000Z</time>
      </trkpt>
      <trkpt lat="50.74687" lon="3.38189">
        <ele>63.78</ele>
        <time>2021-06-20T09:28:13.000Z</time>
      </trkpt>
      <trkpt lat="50.74686" lon="3.38178">
        <ele>63.54</ele>
        <time>2021-06-20T09:28:14.000Z</time>
      </trkpt>
      <trkpt lat="50.74684" lon="3.38166">
        <ele>63.45</ele>
        <time>2021-06-20T09:28:15.000Z</time>
      </trkpt>
      <trkpt lat="50.74682" lon="3.38154">
        <ele>63.46</ele>
        <time>2021-06-20T09:28:16.000Z</time>
      </trkpt>
      <trkpt lat="50.7468" lon="3.38142">
        <ele>63.17</ele>
        <time>2021-06-20T09:28:17.000Z</time>
      </trkpt>
      <trkpt lat="50.74678" lon="3.38131">
        <ele>62.95</ele>
        <time>2021-06-20T09:28:18.000Z</time>
      </trkpt>
      <trkpt lat="50.74675" lon="3.38119">
        <ele>62.72</ele>
        <time>2021-06-20T09:28:19.000Z</time>
      </trkpt>
      <trkpt lat="50.74673" lon="3.38108">
        <ele>62.71</ele>
        <time>2021-06-20T09:28:20.000Z</time>
      </trkpt>
      <trkpt lat="50.74671" lon="3.38096">
        <ele>63.07</ele>
        <time>2021-06-20T09:28:21.000Z</time>
      </trkpt>
      <trkpt lat="50.74669" lon="3.38085">
        <ele>63.21</ele>
        <time>2021-06-20T09:28:22.000Z</time>
      </trkpt>
      <trkpt lat="50.74667" lon="3.38073">
        <ele>63.15</ele>
        <time>2021-06-20T09:28:23.000Z</time>
      </trkpt>
      <trkpt lat="50.74665" lon="3.38061">
        <ele>63</ele>
        <time>2021-06-20T09:28:24.000Z</time>
      </trkpt>
      <trkpt lat="50.74663" lon="3.38049">
        <ele>62.72</ele>
        <time>2021-06-20T09:28:25.000Z</time>
      </trkpt>
      <trkpt lat="50.74662" lon="3.38038">
        <ele>62.27</ele>
        <time>2021-06-20T09:28:26.000Z</time>
      </trkpt>
      <trkpt lat="50.7466" lon="3.38025">
        <ele>62.13</ele>
        <time>2021-06-20T09:28:27.000Z</time>
      </trkpt>
      <trkpt lat="50.74658" lon="3.38014">
        <ele>62.06</ele>
        <time>2021-06-20T09:28:28.000Z</time>
      </trkpt>
      <trkpt lat="50.74656" lon="3.38002">
        <ele>62.16</ele>
        <time>2021-06-20T09:28:29.000Z</time>
      </trkpt>
      <trkpt lat="50.74654" lon="3.3799">
        <ele>62.06</ele>
        <time>2021-06-20T09:28:30.000Z</time>
      </trkpt>
      <trkpt lat="50.74652" lon="3.37979">
        <ele>62.7</ele>
        <time>2021-06-20T09:28:31.000Z</time>
      </trkpt>
      <trkpt lat="50.7465" lon="3.37967">
        <ele>62.95</ele>
        <time>2021-06-20T09:28:32.000Z</time>
      </trkpt>
      <trkpt lat="50.74647" lon="3.37955">
        <ele>62.9</ele>
        <time>2021-06-20T09:28:33.000Z</time>
      </trkpt>
      <trkpt lat="50.74645" lon="3.37944">
        <ele>63.22</ele>
        <time>2021-06-20T09:28:34.000Z</time>
      </trkpt>
      <trkpt lat="50.74643" lon="3.37932">
        <ele>63.3</ele>
        <time>2021-06-20T09:28:35.000Z</time>
      </trkpt>
      <trkpt lat="50.74641" lon="3.37921">
        <ele>63.28</ele>
        <time>2021-06-20T09:28:36.000Z</time>
      </trkpt>
      <trkpt lat="50.7464" lon="3.3791">
        <ele>63.23</ele>
        <time>2021-06-20T09:28:37.000Z</time>
      </trkpt>
      <trkpt lat="50.74637" lon="3.37898">
        <ele>63.11</ele>
        <time>2021-06-20T09:28:38.000Z</time>
      </trkpt>
      <trkpt lat="50.74636" lon="3.37887">
        <ele>63.19</ele>
        <time>2021-06-20T09:28:39.000Z</time>
      </trkpt>
      <trkpt lat="50.74633" lon="3.37875">
        <ele>63.04</ele>
        <time>2021-06-20T09:28:40.000Z</time>
      </trkpt>
      <trkpt lat="50.7463" lon="3.37864">
        <ele>62.91</ele>
        <time>2021-06-20T09:28:41.000Z</time>
      </trkpt>
      <trkpt lat="50.74626" lon="3.37853">
        <ele>62.62</ele>
        <time>2021-06-20T09:28:42.000Z</time>
      </trkpt>
      <trkpt lat="50.74622" lon="3.37843">
        <ele>62.47</ele>
        <time>2021-06-20T09:28:43.000Z</time>
      </trkpt>
      <trkpt lat="50.74617" lon="3.37834">
        <ele>62.38</ele>
        <time>2021-06-20T09:28:44.000Z</time>
      </trkpt>
      <trkpt lat="50.74613" lon="3.37824">
        <ele>62.37</ele>
        <time>2021-06-20T09:28:45.000Z</time>
      </trkpt>
      <trkpt lat="50.74608" lon="3.37816">
        <ele>61.91</ele>
        <time>2021-06-20T09:28:46.000Z</time>
      </trkpt>
      <trkpt lat="50.74603" lon="3.37807">
        <ele>61.71</ele>
        <time>2021-06-20T09:28:47.000Z</time>
      </trkpt>
      <trkpt lat="50.74598" lon="3.37798">
        <ele>61.87</ele>
        <time>2021-06-20T09:28:48.000Z</time>
      </trkpt>
      <trkpt lat="50.74593" lon="3.37789">
        <ele>61.91</ele>
        <time>2021-06-20T09:28:49.000Z</time>
      </trkpt>
      <trkpt lat="50.74587" lon="3.37782">
        <ele>62.07</ele>
        <time>2021-06-20T09:28:50.000Z</time>
      </trkpt>
      <trkpt lat="50.74582" lon="3.37774">
        <ele>62.17</ele>
        <time>2021-06-20T09:28:51.000Z</time>
      </trkpt>
      <trkpt lat="50.74576" lon="3.37767">
        <ele>61.88</ele>
        <time>2021-06-20T09:28:52.000Z</time>
      </trkpt>
      <trkpt lat="50.7457" lon="3.37763">
        <ele>61.92</ele>
        <time>2021-06-20T09:28:53.000Z</time>
      </trkpt>
      <trkpt lat="50.74563" lon="3.37759">
        <ele>62.24</ele>
        <time>2021-06-20T09:28:54.000Z</time>
      </trkpt>
      <trkpt lat="50.74557" lon="3.37755">
        <ele>62.4</ele>
        <time>2021-06-20T09:28:55.000Z</time>
      </trkpt>
      <trkpt lat="50.74551" lon="3.37751">
        <ele>62.51</ele>
        <time>2021-06-20T09:28:56.000Z</time>
      </trkpt>
      <trkpt lat="50.74546" lon="3.37749">
        <ele>62.24</ele>
        <time>2021-06-20T09:28:57.000Z</time>
      </trkpt>
      <trkpt lat="50.74541" lon="3.37747">
        <ele>62.4</ele>
        <time>2021-06-20T09:28:58.000Z</time>
      </trkpt>
      <trkpt lat="50.74536" lon="3.37746">
        <ele>62.36</ele>
        <time>2021-06-20T09:28:59.000Z</time>
      </trkpt>
      <trkpt lat="50.74531" lon="3.37745">
        <ele>62.71</ele>
        <time>2021-06-20T09:29:00.000Z</time>
      </trkpt>
      <trkpt lat="50.74526" lon="3.37745">
        <ele>62.49</ele>
        <time>2021-06-20T09:29:01.000Z</time>
      </trkpt>
      <trkpt lat="50.7452" lon="3.37746">
        <ele>62.47</ele>
        <time>2021-06-20T09:29:02.000Z</time>
      </trkpt>
      <trkpt lat="50.74514" lon="3.37746">
        <ele>62.29</ele>
        <time>2021-06-20T09:29:03.000Z</time>
      </trkpt>
      <trkpt lat="50.74508" lon="3.37743">
        <ele>62.31</ele>
        <time>2021-06-20T09:29:04.000Z</time>
      </trkpt>
      <trkpt lat="50.74503" lon="3.37738">
        <ele>62.09</ele>
        <time>2021-06-20T09:29:05.000Z</time>
      </trkpt>
      <trkpt lat="50.74497" lon="3.37732">
        <ele>61.71</ele>
        <time>2021-06-20T09:29:06.000Z</time>
      </trkpt>
      <trkpt lat="50.74492" lon="3.37725">
        <ele>61.83</ele>
        <time>2021-06-20T09:29:07.000Z</time>
      </trkpt>
      <trkpt lat="50.74487" lon="3.37717">
        <ele>62.11</ele>
        <time>2021-06-20T09:29:08.000Z</time>
      </trkpt>
      <trkpt lat="50.74483" lon="3.37709">
        <ele>62.1</ele>
        <time>2021-06-20T09:29:09.000Z</time>
      </trkpt>
      <trkpt lat="50.74478" lon="3.37702">
        <ele>62.26</ele>
        <time>2021-06-20T09:29:10.000Z</time>
      </trkpt>
      <trkpt lat="50.74472" lon="3.37694">
        <ele>61.99</ele>
        <time>2021-06-20T09:29:11.000Z</time>
      </trkpt>
      <trkpt lat="50.74467" lon="3.37687">
        <ele>61.8</ele>
        <time>2021-06-20T09:29:12.000Z</time>
      </trkpt>
      <trkpt lat="50.74463" lon="3.37678">
        <ele>61.56</ele>
        <time>2021-06-20T09:29:13.000Z</time>
      </trkpt>
      <trkpt lat="50.7446" lon="3.37667">
        <ele>61.36</ele>
        <time>2021-06-20T09:29:14.000Z</time>
      </trkpt>
      <trkpt lat="50.74457" lon="3.37657">
        <ele>61.07</ele>
        <time>2021-06-20T09:29:15.000Z</time>
      </trkpt>
      <trkpt lat="50.74454" lon="3.37646">
        <ele>60.85</ele>
        <time>2021-06-20T09:29:16.000Z</time>
      </trkpt>
      <trkpt lat="50.74451" lon="3.37635">
        <ele>60.55</ele>
        <time>2021-06-20T09:29:17.000Z</time>
      </trkpt>
      <trkpt lat="50.74448" lon="3.37625">
        <ele>60.28</ele>
        <time>2021-06-20T09:29:18.000Z</time>
      </trkpt>
      <trkpt lat="50.74447" lon="3.37613">
        <ele>60.34</ele>
        <time>2021-06-20T09:29:19.000Z</time>
      </trkpt>
      <trkpt lat="50.74447" lon="3.37601">
        <ele>60.43</ele>
        <time>2021-06-20T09:29:20.000Z</time>
      </trkpt>
      <trkpt lat="50.74449" lon="3.3759">
        <ele>60.27</ele>
        <time>2021-06-20T09:29:21.000Z</time>
      </trkpt>
      <trkpt lat="50.74451" lon="3.37579">
        <ele>60.26</ele>
        <time>2021-06-20T09:29:22.000Z</time>
      </trkpt>
      <trkpt lat="50.74453" lon="3.37568">
        <ele>60.53</ele>
        <time>2021-06-20T09:29:23.000Z</time>
      </trkpt>
      <trkpt lat="50.74454" lon="3.37556">
        <ele>60.31</ele>
        <time>2021-06-20T09:29:24.000Z</time>
      </trkpt>
      <trkpt lat="50.74453" lon="3.37545">
        <ele>60.45</ele>
        <time>2021-06-20T09:29:25.000Z</time>
      </trkpt>
      <trkpt lat="50.7445" lon="3.37534">
        <ele>60.3</ele>
        <time>2021-06-20T09:29:26.000Z</time>
      </trkpt>
      <trkpt lat="50.74446" lon="3.37524">
        <ele>60.12</ele>
        <time>2021-06-20T09:29:27.000Z</time>
      </trkpt>
      <trkpt lat="50.74441" lon="3.37515">
        <ele>60.04</ele>
        <time>2021-06-20T09:29:28.000Z</time>
      </trkpt>
      <trkpt lat="50.74436" lon="3.37505">
        <ele>60.35</ele>
        <time>2021-06-20T09:29:29.000Z</time>
      </trkpt>
      <trkpt lat="50.74431" lon="3.37496">
        <ele>60.7</ele>
        <time>2021-06-20T09:29:30.000Z</time>
      </trkpt>
      <trkpt lat="50.74426" lon="3.37486">
        <ele>60.84</ele>
        <time>2021-06-20T09:29:31.000Z</time>
      </trkpt>
      <trkpt lat="50.74421" lon="3.37477">
        <ele>60.61</ele>
        <time>2021-06-20T09:29:32.000Z</time>
      </trkpt>
      <trkpt lat="50.74416" lon="3.37467">
        <ele>60.86</ele>
        <time>2021-06-20T09:29:33.000Z</time>
      </trkpt>
      <trkpt lat="50.74412" lon="3.37457">
        <ele>60.42</ele>
        <time>2021-06-20T09:29:34.000Z</time>
      </trkpt>
      <trkpt lat="50.74407" lon="3.37447">
        <ele>60.55</ele>
        <time>2021-06-20T09:29:35.000Z</time>
      </trkpt>
      <trkpt lat="50.74403" lon="3.37437">
        <ele>60.54</ele>
        <time>2021-06-20T09:29:36.000Z</time>
      </trkpt>
      <trkpt lat="50.74398" lon="3.37427">
        <ele>60.64</ele>
        <time>2021-06-20T09:29:37.000Z</time>
      </trkpt>
      <trkpt lat="50.74393" lon="3.37418">
        <ele>60.52</ele>
        <time>2021-06-20T09:29:38.000Z</time>
      </trkpt>
      <trkpt lat="50.74389" lon="3.37409">
        <ele>60.52</ele>
        <time>2021-06-20T09:29:39.000Z</time>
      </trkpt>
      <trkpt lat="50.74384" lon="3.37399">
        <ele>60.1</ele>
        <time>2021-06-20T09:29:40.000Z</time>
      </trkpt>
      <trkpt lat="50.7438" lon="3.3739">
        <ele>60.28</ele>
        <time>2021-06-20T09:29:41.000Z</time>
      </trkpt>
      <trkpt lat="50.7438" lon="3.3738">
        <ele>60.26</ele>
        <time>2021-06-20T09:29:42.000Z</time>
      </trkpt>
      <trkpt lat="50.74381" lon="3.3737">
        <ele>60.61</ele>
        <time>2021-06-20T09:29:43.000Z</time>
      </trkpt>
      <trkpt lat="50.74385" lon="3.37361">
        <ele>60.8</ele>
        <time>2021-06-20T09:29:44.000Z</time>
      </trkpt>
      <trkpt lat="50.74388" lon="3.37352">
        <ele>60.88</ele>
        <time>2021-06-20T09:29:45.000Z</time>
      </trkpt>
      <trkpt lat="50.74391" lon="3.37343">
        <ele>60.87</ele>
        <time>2021-06-20T09:29:46.000Z</time>
      </trkpt>
      <trkpt lat="50.74394" lon="3.37333">
        <ele>60.86</ele>
        <time>2021-06-20T09:29:47.000Z</time>
      </trkpt>
      <trkpt lat="50.74398" lon="3.37323">
        <ele>61.04</ele>
        <time>2021-06-20T09:29:48.000Z</time>
      </trkpt>
      <trkpt lat="50.74401" lon="3.37314">
        <ele>61.15</ele>
        <time>2021-06-20T09:29:49.000Z</time>
      </trkpt>
      <trkpt lat="50.74404" lon="3.37305">
        <ele>61.31</ele>
        <time>2021-06-20T09:29:50.000Z</time>
      </trkpt>
      <trkpt lat="50.74407" lon="3.37296">
        <ele>61.35</ele>
        <time>2021-06-20T09:29:51.000Z</time>
      </trkpt>
      <trkpt lat="50.74409" lon="3.37287">
        <ele>60.99</ele>
        <time>2021-06-20T09:29:52.000Z</time>
      </trkpt>
      <trkpt lat="50.74413" lon="3.37278">
        <ele>61.05</ele>
        <time>2021-06-20T09:29:53.000Z</time>
      </trkpt>
      <trkpt lat="50.74415" lon="3.37268">
        <ele>60.99</ele>
        <time>2021-06-20T09:29:54.000Z</time>
      </trkpt>
      <trkpt lat="50.74418" lon="3.37259">
        <ele>61.17</ele>
        <time>2021-06-20T09:29:55.000Z</time>
      </trkpt>
      <trkpt lat="50.74421" lon="3.3725">
        <ele>61.64</ele>
        <time>2021-06-20T09:29:56.000Z</time>
      </trkpt>
      <trkpt lat="50.74423" lon="3.37241">
        <ele>61.75</ele>
        <time>2021-06-20T09:29:57.000Z</time>
      </trkpt>
      <trkpt lat="50.74425" lon="3.37233">
        <ele>61.85</ele>
        <time>2021-06-20T09:29:58.000Z</time>
      </trkpt>
      <trkpt lat="50.74429" lon="3.37224">
        <ele>61.82</ele>
        <time>2021-06-20T09:29:59.000Z</time>
      </trkpt>
      <trkpt lat="50.74432" lon="3.37215">
        <ele>61.89</ele>
        <time>2021-06-20T09:30:00.000Z</time>
      </trkpt>
      <trkpt lat="50.74435" lon="3.37206">
        <ele>61.93</ele>
        <time>2021-06-20T09:30:01.000Z</time>
      </trkpt>
      <trkpt lat="50.74438" lon="3.37197">
        <ele>61.98</ele>
        <time>2021-06-20T09:30:02.000Z</time>
      </trkpt>
      <trkpt lat="50.74441" lon="3.37187">
        <ele>61.96</ele>
        <time>2021-06-20T09:30:03.000Z</time>
      </trkpt>
      <trkpt lat="50.74444" lon="3.37179">
        <ele>61.83</ele>
        <time>2021-06-20T09:30:04.000Z</time>
      </trkpt>
      <trkpt lat="50.74446" lon="3.3717">
        <ele>61.38</ele>
        <time>2021-06-20T09:30:05.000Z</time>
      </trkpt>
      <trkpt lat="50.74449" lon="3.37162">
        <ele>61.56</ele>
        <time>2021-06-20T09:30:06.000Z</time>
      </trkpt>
      <trkpt lat="50.7445" lon="3.37153">
        <ele>61.38</ele>
        <time>2021-06-20T09:30:07.000Z</time>
      </trkpt>
      <trkpt lat="50.74451" lon="3.37144">
        <ele>61.09</ele>
        <time>2021-06-20T09:30:08.000Z</time>
      </trkpt>
      <trkpt lat="50.74451" lon="3.37135">
        <ele>60.87</ele>
        <time>2021-06-20T09:30:09.000Z</time>
      </trkpt>
      <trkpt lat="50.7445" lon="3.37124">
        <ele>60.83</ele>
        <time>2021-06-20T09:30:10.000Z</time>
      </trkpt>
      <trkpt lat="50.7445" lon="3.37114">
        <ele>60.83</ele>
        <time>2021-06-20T09:30:11.000Z</time>
      </trkpt>
      <trkpt lat="50.74448" lon="3.37102">
        <ele>61.55</ele>
        <time>2021-06-20T09:30:12.000Z</time>
      </trkpt>
      <trkpt lat="50.74447" lon="3.37091">
        <ele>61.44</ele>
        <time>2021-06-20T09:30:13.000Z</time>
      </trkpt>
      <trkpt lat="50.74444" lon="3.37081">
        <ele>61.27</ele>
        <time>2021-06-20T09:30:14.000Z</time>
      </trkpt>
      <trkpt lat="50.74442" lon="3.37069">
        <ele>61.21</ele>
        <time>2021-06-20T09:30:15.000Z</time>
      </trkpt>
      <trkpt lat="50.7444" lon="3.37058">
        <ele>61.18</ele>
        <time>2021-06-20T09:30:16.000Z</time>
      </trkpt>
      <trkpt lat="50.74438" lon="3.37047">
        <ele>61.48</ele>
        <time>2021-06-20T09:30:17.000Z</time>
      </trkpt>
      <trkpt lat="50.74436" lon="3.37036">
        <ele>61.43</ele>
        <time>2021-06-20T09:30:18.000Z</time>
      </trkpt>
      <trkpt lat="50.74434" lon="3.37026">
        <ele>61.4</ele>
        <time>2021-06-20T09:30:19.000Z</time>
      </trkpt>
      <trkpt lat="50.74431" lon="3.37015">
        <ele>61.38</ele>
        <time>2021-06-20T09:30:20.000Z</time>
      </trkpt>
      <trkpt lat="50.74428" lon="3.37004">
        <ele>61.49</ele>
        <time>2021-06-20T09:30:21.000Z</time>
      </trkpt>
      <trkpt lat="50.74426" lon="3.36994">
        <ele>61.46</ele>
        <time>2021-06-20T09:30:22.000Z</time>
      </trkpt>
      <trkpt lat="50.74423" lon="3.36984">
        <ele>61.64</ele>
        <time>2021-06-20T09:30:23.000Z</time>
      </trkpt>
      <trkpt lat="50.7442" lon="3.36973">
        <ele>61.42</ele>
        <time>2021-06-20T09:30:24.000Z</time>
      </trkpt>
      <trkpt lat="50.74416" lon="3.36963">
        <ele>61.45</ele>
        <time>2021-06-20T09:30:25.000Z</time>
      </trkpt>
      <trkpt lat="50.74414" lon="3.36952">
        <ele>61.44</ele>
        <time>2021-06-20T09:30:26.000Z</time>
      </trkpt>
      <trkpt lat="50.7441" lon="3.36942">
        <ele>61.37</ele>
        <time>2021-06-20T09:30:27.000Z</time>
      </trkpt>
      <trkpt lat="50.74407" lon="3.36931">
        <ele>60.95</ele>
        <time>2021-06-20T09:30:28.000Z</time>
      </trkpt>
      <trkpt lat="50.74403" lon="3.3692">
        <ele>61.04</ele>
        <time>2021-06-20T09:30:29.000Z</time>
      </trkpt>
      <trkpt lat="50.744" lon="3.3691">
        <ele>60.9</ele>
        <time>2021-06-20T09:30:30.000Z</time>
      </trkpt>
      <trkpt lat="50.74396" lon="3.36899">
        <ele>61.03</ele>
        <time>2021-06-20T09:30:31.000Z</time>
      </trkpt>
      <trkpt lat="50.74393" lon="3.36889">
        <ele>61.13</ele>
        <time>2021-06-20T09:30:32.000Z</time>
      </trkpt>
      <trkpt lat="50.7439" lon="3.36878">
        <ele>60.99</ele>
        <time>2021-06-20T09:30:33.000Z</time>
      </trkpt>
      <trkpt lat="50.74386" lon="3.36867">
        <ele>60.84</ele>
        <time>2021-06-20T09:30:34.000Z</time>
      </trkpt>
      <trkpt lat="50.74383" lon="3.36856">
        <ele>60.65</ele>
        <time>2021-06-20T09:30:35.000Z</time>
      </trkpt>
      <trkpt lat="50.7438" lon="3.36845">
        <ele>60.64</ele>
        <time>2021-06-20T09:30:36.000Z</time>
      </trkpt>
      <trkpt lat="50.74377" lon="3.36834">
        <ele>60.53</ele>
        <time>2021-06-20T09:30:37.000Z</time>
      </trkpt>
      <trkpt lat="50.74373" lon="3.36822">
        <ele>60.54</ele>
        <time>2021-06-20T09:30:38.000Z</time>
      </trkpt>
      <trkpt lat="50.7437" lon="3.36811">
        <ele>60.06</ele>
        <time>2021-06-20T09:30:39.000Z</time>
      </trkpt>
      <trkpt lat="50.74367" lon="3.368">
        <ele>59.97</ele>
        <time>2021-06-20T09:30:40.000Z</time>
      </trkpt>
      <trkpt lat="50.74364" lon="3.36789">
        <ele>59.84</ele>
        <time>2021-06-20T09:30:41.000Z</time>
      </trkpt>
      <trkpt lat="50.74361" lon="3.36778">
        <ele>59.8</ele>
        <time>2021-06-20T09:30:42.000Z</time>
      </trkpt>
      <trkpt lat="50.74358" lon="3.36766">
        <ele>59.94</ele>
        <time>2021-06-20T09:30:43.000Z</time>
      </trkpt>
      <trkpt lat="50.74355" lon="3.36755">
        <ele>59.92</ele>
        <time>2021-06-20T09:30:44.000Z</time>
      </trkpt>
      <trkpt lat="50.74352" lon="3.36744">
        <ele>59.71</ele>
        <time>2021-06-20T09:30:45.000Z</time>
      </trkpt>
      <trkpt lat="50.74348" lon="3.36733">
        <ele>59.78</ele>
        <time>2021-06-20T09:30:46.000Z</time>
      </trkpt>
      <trkpt lat="50.74344" lon="3.36722">
        <ele>59.56</ele>
        <time>2021-06-20T09:30:47.000Z</time>
      </trkpt>
      <trkpt lat="50.7434" lon="3.36712">
        <ele>59.71</ele>
        <time>2021-06-20T09:30:48.000Z</time>
      </trkpt>
      <trkpt lat="50.74337" lon="3.36701">
        <ele>59.58</ele>
        <time>2021-06-20T09:30:49.000Z</time>
      </trkpt>
      <trkpt lat="50.74333" lon="3.36692">
        <ele>59.9</ele>
        <time>2021-06-20T09:30:50.000Z</time>
      </trkpt>
      <trkpt lat="50.74329" lon="3.36682">
        <ele>59.73</ele>
        <time>2021-06-20T09:30:51.000Z</time>
      </trkpt>
      <trkpt lat="50.74325" lon="3.36673">
        <ele>59.73</ele>
        <time>2021-06-20T09:30:52.000Z</time>
      </trkpt>
      <trkpt lat="50.74321" lon="3.36665">
        <ele>59.92</ele>
        <time>2021-06-20T09:30:53.000Z</time>
      </trkpt>
      <trkpt lat="50.74318" lon="3.36657">
        <ele>59.88</ele>
        <time>2021-06-20T09:30:54.000Z</time>
      </trkpt>
      <trkpt lat="50.74315" lon="3.36649">
        <ele>60.24</ele>
        <time>2021-06-20T09:30:55.000Z</time>
      </trkpt>
      <trkpt lat="50.74312" lon="3.36642">
        <ele>60.53</ele>
        <time>2021-06-20T09:30:56.000Z</time>
      </trkpt>
      <trkpt lat="50.74309" lon="3.36634">
        <ele>60.59</ele>
        <time>2021-06-20T09:30:57.000Z</time>
      </trkpt>
      <trkpt lat="50.74306" lon="3.36627">
        <ele>60.29</ele>
        <time>2021-06-20T09:30:58.000Z</time>
      </trkpt>
      <trkpt lat="50.74306" lon="3.36619">
        <ele>60.18</ele>
        <time>2021-06-20T09:30:59.000Z</time>
      </trkpt>
      <trkpt lat="50.74308" lon="3.36612">
        <ele>60.59</ele>
        <time>2021-06-20T09:31:00.000Z</time>
      </trkpt>
      <trkpt lat="50.74312" lon="3.36607">
        <ele>60.62</ele>
        <time>2021-06-20T09:31:01.000Z</time>
      </trkpt>
      <trkpt lat="50.74318" lon="3.36599">
        <ele>62.38</ele>
        <time>2021-06-20T09:31:03.000Z</time>
      </trkpt>
      <trkpt lat="50.74324" lon="3.3659">
        <ele>63.26</ele>
        <time>2021-06-20T09:31:05.000Z</time>
      </trkpt>
      <trkpt lat="50.74323" lon="3.36579">
        <ele>63.35</ele>
        <time>2021-06-20T09:31:07.000Z</time>
      </trkpt>
      <trkpt lat="50.7432" lon="3.36573">
        <ele>63.17</ele>
        <time>2021-06-20T09:31:08.000Z</time>
      </trkpt>
      <trkpt lat="50.74317" lon="3.36567">
        <ele>63.35</ele>
        <time>2021-06-20T09:31:09.000Z</time>
      </trkpt>
      <trkpt lat="50.74314" lon="3.3656">
        <ele>63.28</ele>
        <time>2021-06-20T09:31:10.000Z</time>
      </trkpt>
      <trkpt lat="50.74311" lon="3.36553">
        <ele>63.49</ele>
        <time>2021-06-20T09:31:11.000Z</time>
      </trkpt>
      <trkpt lat="50.74308" lon="3.36546">
        <ele>63.62</ele>
        <time>2021-06-20T09:31:12.000Z</time>
      </trkpt>
      <trkpt lat="50.74304" lon="3.36539">
        <ele>63.67</ele>
        <time>2021-06-20T09:31:13.000Z</time>
      </trkpt>
      <trkpt lat="50.74301" lon="3.36531">
        <ele>63.61</ele>
        <time>2021-06-20T09:31:14.000Z</time>
      </trkpt>
      <trkpt lat="50.74297" lon="3.36524">
        <ele>64.06</ele>
        <time>2021-06-20T09:31:15.000Z</time>
      </trkpt>
      <trkpt lat="50.74293" lon="3.36516">
        <ele>63.89</ele>
        <time>2021-06-20T09:31:16.000Z</time>
      </trkpt>
      <trkpt lat="50.7429" lon="3.36509">
        <ele>63.86</ele>
        <time>2021-06-20T09:31:17.000Z</time>
      </trkpt>
      <trkpt lat="50.74286" lon="3.36501">
        <ele>63.73</ele>
        <time>2021-06-20T09:31:18.000Z</time>
      </trkpt>
      <trkpt lat="50.74282" lon="3.36494">
        <ele>63.7</ele>
        <time>2021-06-20T09:31:19.000Z</time>
      </trkpt>
      <trkpt lat="50.74279" lon="3.36487">
        <ele>63.85</ele>
        <time>2021-06-20T09:31:20.000Z</time>
      </trkpt>
      <trkpt lat="50.74276" lon="3.3648">
        <ele>64.12</ele>
        <time>2021-06-20T09:31:21.000Z</time>
      </trkpt>
      <trkpt lat="50.74272" lon="3.36472">
        <ele>64.16</ele>
        <time>2021-06-20T09:31:22.000Z</time>
      </trkpt>
      <trkpt lat="50.74269" lon="3.36465">
        <ele>64.08</ele>
        <time>2021-06-20T09:31:23.000Z</time>
      </trkpt>
      <trkpt lat="50.74265" lon="3.36457">
        <ele>64.19</ele>
        <time>2021-06-20T09:31:24.000Z</time>
      </trkpt>
      <trkpt lat="50.74262" lon="3.36449">
        <ele>64.37</ele>
        <time>2021-06-20T09:31:25.000Z</time>
      </trkpt>
      <trkpt lat="50.74258" lon="3.36441">
        <ele>64.58</ele>
        <time>2021-06-20T09:31:26.000Z</time>
      </trkpt>
      <trkpt lat="50.74254" lon="3.36432">
        <ele>64.63</ele>
        <time>2021-06-20T09:31:27.000Z</time>
      </trkpt>
      <trkpt lat="50.74251" lon="3.36424">
        <ele>64.56</ele>
        <time>2021-06-20T09:31:28.000Z</time>
      </trkpt>
      <trkpt lat="50.74247" lon="3.36416">
        <ele>64.74</ele>
        <time>2021-06-20T09:31:29.000Z</time>
      </trkpt>
      <trkpt lat="50.74243" lon="3.36408">
        <ele>64.71</ele>
        <time>2021-06-20T09:31:30.000Z</time>
      </trkpt>
      <trkpt lat="50.74239" lon="3.36399">
        <ele>64.18</ele>
        <time>2021-06-20T09:31:31.000Z</time>
      </trkpt>
      <trkpt lat="50.74235" lon="3.36391">
        <ele>63.64</ele>
        <time>2021-06-20T09:31:32.000Z</time>
      </trkpt>
      <trkpt lat="50.74231" lon="3.36383">
        <ele>62.88</ele>
        <time>2021-06-20T09:31:33.000Z</time>
      </trkpt>
      <trkpt lat="50.74227" lon="3.36374">
        <ele>62.68</ele>
        <time>2021-06-20T09:31:34.000Z</time>
      </trkpt>
      <trkpt lat="50.74224" lon="3.36366">
        <ele>62.72</ele>
        <time>2021-06-20T09:31:35.000Z</time>
      </trkpt>
      <trkpt lat="50.7422" lon="3.36358">
        <ele>62.57</ele>
        <time>2021-06-20T09:31:36.000Z</time>
      </trkpt>
      <trkpt lat="50.74216" lon="3.3635">
        <ele>62.36</ele>
        <time>2021-06-20T09:31:37.000Z</time>
      </trkpt>
      <trkpt lat="50.74212" lon="3.36342">
        <ele>62.32</ele>
        <time>2021-06-20T09:31:38.000Z</time>
      </trkpt>
      <trkpt lat="50.74208" lon="3.36333">
        <ele>62.36</ele>
        <time>2021-06-20T09:31:39.000Z</time>
      </trkpt>
      <trkpt lat="50.74205" lon="3.36325">
        <ele>62.39</ele>
        <time>2021-06-20T09:31:40.000Z</time>
      </trkpt>
      <trkpt lat="50.74201" lon="3.36317">
        <ele>62.57</ele>
        <time>2021-06-20T09:31:41.000Z</time>
      </trkpt>
      <trkpt lat="50.74197" lon="3.36309">
        <ele>62.69</ele>
        <time>2021-06-20T09:31:42.000Z</time>
      </trkpt>
      <trkpt lat="50.74193" lon="3.36301">
        <ele>62.67</ele>
        <time>2021-06-20T09:31:43.000Z</time>
      </trkpt>
      <trkpt lat="50.74189" lon="3.36292">
        <ele>62.67</ele>
        <time>2021-06-20T09:31:44.000Z</time>
      </trkpt>
      <trkpt lat="50.74185" lon="3.36284">
        <ele>62.58</ele>
        <time>2021-06-20T09:31:45.000Z</time>
      </trkpt>
      <trkpt lat="50.74181" lon="3.36276">
        <ele>62.94</ele>
        <time>2021-06-20T09:31:46.000Z</time>
      </trkpt>
      <trkpt lat="50.74178" lon="3.36267">
        <ele>62.83</ele>
        <time>2021-06-20T09:31:47.000Z</time>
      </trkpt>
      <trkpt lat="50.74174" lon="3.36259">
        <ele>62.61</ele>
        <time>2021-06-20T09:31:48.000Z</time>
      </trkpt>
      <trkpt lat="50.7417" lon="3.3625">
        <ele>62.4</ele>
        <time>2021-06-20T09:31:49.000Z</time>
      </trkpt>
      <trkpt lat="50.74165" lon="3.36242">
        <ele>62.44</ele>
        <time>2021-06-20T09:31:50.000Z</time>
      </trkpt>
      <trkpt lat="50.74162" lon="3.36233">
        <ele>62.58</ele>
        <time>2021-06-20T09:31:51.000Z</time>
      </trkpt>
      <trkpt lat="50.74157" lon="3.36225">
        <ele>62.67</ele>
        <time>2021-06-20T09:31:52.000Z</time>
      </trkpt>
      <trkpt lat="50.74154" lon="3.36216">
        <ele>62.45</ele>
        <time>2021-06-20T09:31:53.000Z</time>
      </trkpt>
      <trkpt lat="50.7415" lon="3.36208">
        <ele>62.26</ele>
        <time>2021-06-20T09:31:54.000Z</time>
      </trkpt>
      <trkpt lat="50.74146" lon="3.362">
        <ele>62.03</ele>
        <time>2021-06-20T09:31:55.000Z</time>
      </trkpt>
      <trkpt lat="50.74142" lon="3.36191">
        <ele>61.91</ele>
        <time>2021-06-20T09:31:56.000Z</time>
      </trkpt>
      <trkpt lat="50.74138" lon="3.36183">
        <ele>61.94</ele>
        <time>2021-06-20T09:31:57.000Z</time>
      </trkpt>
      <trkpt lat="50.74134" lon="3.36174">
        <ele>61.71</ele>
        <time>2021-06-20T09:31:58.000Z</time>
      </trkpt>
      <trkpt lat="50.7413" lon="3.36166">
        <ele>61.66</ele>
        <time>2021-06-20T09:31:59.000Z</time>
      </trkpt>
      <trkpt lat="50.74126" lon="3.36157">
        <ele>61.75</ele>
        <time>2021-06-20T09:32:00.000Z</time>
      </trkpt>
      <trkpt lat="50.74122" lon="3.36148">
        <ele>61.98</ele>
        <time>2021-06-20T09:32:01.000Z</time>
      </trkpt>
      <trkpt lat="50.74118" lon="3.36139">
        <ele>62.26</ele>
        <time>2021-06-20T09:32:02.000Z</time>
      </trkpt>
      <trkpt lat="50.74113" lon="3.36131">
        <ele>62.17</ele>
        <time>2021-06-20T09:32:03.000Z</time>
      </trkpt>
      <trkpt lat="50.74109" lon="3.36122">
        <ele>61.85</ele>
        <time>2021-06-20T09:32:04.000Z</time>
      </trkpt>
      <trkpt lat="50.74105" lon="3.36113">
        <ele>61.67</ele>
        <time>2021-06-20T09:32:05.000Z</time>
      </trkpt>
      <trkpt lat="50.74101" lon="3.36105">
        <ele>61.54</ele>
        <time>2021-06-20T09:32:06.000Z</time>
      </trkpt>
      <trkpt lat="50.74097" lon="3.36096">
        <ele>61.22</ele>
        <time>2021-06-20T09:32:07.000Z</time>
      </trkpt>
      <trkpt lat="50.74093" lon="3.36087">
        <ele>61.36</ele>
        <time>2021-06-20T09:32:08.000Z</time>
      </trkpt>
      <trkpt lat="50.74089" lon="3.36078">
        <ele>61.33</ele>
        <time>2021-06-20T09:32:09.000Z</time>
      </trkpt>
      <trkpt lat="50.74085" lon="3.36069">
        <ele>61.22</ele>
        <time>2021-06-20T09:32:10.000Z</time>
      </trkpt>
      <trkpt lat="50.74081" lon="3.3606">
        <ele>61.33</ele>
        <time>2021-06-20T09:32:11.000Z</time>
      </trkpt>
      <trkpt lat="50.74076" lon="3.36051">
        <ele>61.22</ele>
        <time>2021-06-20T09:32:12.000Z</time>
      </trkpt>
      <trkpt lat="50.74072" lon="3.36042">
        <ele>61.33</ele>
        <time>2021-06-20T09:32:13.000Z</time>
      </trkpt>
      <trkpt lat="50.74068" lon="3.36032">
        <ele>61.72</ele>
        <time>2021-06-20T09:32:14.000Z</time>
      </trkpt>
      <trkpt lat="50.74063" lon="3.36023">
        <ele>61.69</ele>
        <time>2021-06-20T09:32:15.000Z</time>
      </trkpt>
      <trkpt lat="50.74059" lon="3.36014">
        <ele>61.47</ele>
        <time>2021-06-20T09:32:16.000Z</time>
      </trkpt>
      <trkpt lat="50.74055" lon="3.36005">
        <ele>61.66</ele>
        <time>2021-06-20T09:32:17.000Z</time>
      </trkpt>
      <trkpt lat="50.7405" lon="3.35996">
        <ele>61.65</ele>
        <time>2021-06-20T09:32:18.000Z</time>
      </trkpt>
      <trkpt lat="50.74046" lon="3.35987">
        <ele>61.86</ele>
        <time>2021-06-20T09:32:19.000Z</time>
      </trkpt>
      <trkpt lat="50.74042" lon="3.35978">
        <ele>61.71</ele>
        <time>2021-06-20T09:32:20.000Z</time>
      </trkpt>
      <trkpt lat="50.74037" lon="3.35969">
        <ele>61.38</ele>
        <time>2021-06-20T09:32:21.000Z</time>
      </trkpt>
      <trkpt lat="50.74033" lon="3.3596">
        <ele>61.31</ele>
        <time>2021-06-20T09:32:22.000Z</time>
      </trkpt>
      <trkpt lat="50.74029" lon="3.35951">
        <ele>61.01</ele>
        <time>2021-06-20T09:32:23.000Z</time>
      </trkpt>
      <trkpt lat="50.74025" lon="3.35941">
        <ele>61.26</ele>
        <time>2021-06-20T09:32:24.000Z</time>
      </trkpt>
      <trkpt lat="50.74021" lon="3.35932">
        <ele>61.17</ele>
        <time>2021-06-20T09:32:25.000Z</time>
      </trkpt>
      <trkpt lat="50.74016" lon="3.35922">
        <ele>61.16</ele>
        <time>2021-06-20T09:32:26.000Z</time>
      </trkpt>
      <trkpt lat="50.74012" lon="3.35913">
        <ele>61.17</ele>
        <time>2021-06-20T09:32:27.000Z</time>
      </trkpt>
      <trkpt lat="50.74008" lon="3.35904">
        <ele>61.22</ele>
        <time>2021-06-20T09:32:28.000Z</time>
      </trkpt>
      <trkpt lat="50.74004" lon="3.35895">
        <ele>61.33</ele>
        <time>2021-06-20T09:32:29.000Z</time>
      </trkpt>
      <trkpt lat="50.74" lon="3.35886">
        <ele>61.32</ele>
        <time>2021-06-20T09:32:30.000Z</time>
      </trkpt>
      <trkpt lat="50.73995" lon="3.35876">
        <ele>61.56</ele>
        <time>2021-06-20T09:32:31.000Z</time>
      </trkpt>
      <trkpt lat="50.73991" lon="3.35866">
        <ele>61.5</ele>
        <time>2021-06-20T09:32:32.000Z</time>
      </trkpt>
      <trkpt lat="50.73986" lon="3.35856">
        <ele>61.29</ele>
        <time>2021-06-20T09:32:33.000Z</time>
      </trkpt>
      <trkpt lat="50.73981" lon="3.35847">
        <ele>61.62</ele>
        <time>2021-06-20T09:32:34.000Z</time>
      </trkpt>
      <trkpt lat="50.73976" lon="3.35837">
        <ele>61.68</ele>
        <time>2021-06-20T09:32:35.000Z</time>
      </trkpt>
      <trkpt lat="50.73971" lon="3.35827">
        <ele>61.87</ele>
        <time>2021-06-20T09:32:36.000Z</time>
      </trkpt>
      <trkpt lat="50.73967" lon="3.35818">
        <ele>61.51</ele>
        <time>2021-06-20T09:32:37.000Z</time>
      </trkpt>
      <trkpt lat="50.73963" lon="3.35809">
        <ele>61.5</ele>
        <time>2021-06-20T09:32:38.000Z</time>
      </trkpt>
      <trkpt lat="50.73958" lon="3.35799">
        <ele>61.45</ele>
        <time>2021-06-20T09:32:39.000Z</time>
      </trkpt>
      <trkpt lat="50.73953" lon="3.35789">
        <ele>61.52</ele>
        <time>2021-06-20T09:32:40.000Z</time>
      </trkpt>
      <trkpt lat="50.73948" lon="3.35779">
        <ele>61.57</ele>
        <time>2021-06-20T09:32:41.000Z</time>
      </trkpt>
      <trkpt lat="50.73943" lon="3.3577">
        <ele>61.59</ele>
        <time>2021-06-20T09:32:42.000Z</time>
      </trkpt>
      <trkpt lat="50.73938" lon="3.3576">
        <ele>61.46</ele>
        <time>2021-06-20T09:32:43.000Z</time>
      </trkpt>
      <trkpt lat="50.73934" lon="3.35751">
        <ele>61.48</ele>
        <time>2021-06-20T09:32:44.000Z</time>
      </trkpt>
      <trkpt lat="50.73929" lon="3.35741">
        <ele>61.47</ele>
        <time>2021-06-20T09:32:45.000Z</time>
      </trkpt>
      <trkpt lat="50.73925" lon="3.35731">
        <ele>61.76</ele>
        <time>2021-06-20T09:32:46.000Z</time>
      </trkpt>
      <trkpt lat="50.7392" lon="3.35722">
        <ele>61.82</ele>
        <time>2021-06-20T09:32:47.000Z</time>
      </trkpt>
      <trkpt lat="50.73916" lon="3.35712">
        <ele>61.91</ele>
        <time>2021-06-20T09:32:48.000Z</time>
      </trkpt>
      <trkpt lat="50.73911" lon="3.35702">
        <ele>62.17</ele>
        <time>2021-06-20T09:32:49.000Z</time>
      </trkpt>
      <trkpt lat="50.73906" lon="3.35693">
        <ele>62.21</ele>
        <time>2021-06-20T09:32:50.000Z</time>
      </trkpt>
      <trkpt lat="50.73902" lon="3.35684">
        <ele>62.13</ele>
        <time>2021-06-20T09:32:51.000Z</time>
      </trkpt>
      <trkpt lat="50.73898" lon="3.35675">
        <ele>62.1</ele>
        <time>2021-06-20T09:32:52.000Z</time>
      </trkpt>
      <trkpt lat="50.73893" lon="3.35666">
        <ele>62.06</ele>
        <time>2021-06-20T09:32:53.000Z</time>
      </trkpt>
      <trkpt lat="50.73889" lon="3.35657">
        <ele>62.05</ele>
        <time>2021-06-20T09:32:54.000Z</time>
      </trkpt>
      <trkpt lat="50.73885" lon="3.35648">
        <ele>61.66</ele>
        <time>2021-06-20T09:32:55.000Z</time>
      </trkpt>
      <trkpt lat="50.7388" lon="3.35639">
        <ele>61.67</ele>
        <time>2021-06-20T09:32:56.000Z</time>
      </trkpt>
      <trkpt lat="50.73876" lon="3.35629">
        <ele>61.66</ele>
        <time>2021-06-20T09:32:57.000Z</time>
      </trkpt>
      <trkpt lat="50.73872" lon="3.3562">
        <ele>61.67</ele>
        <time>2021-06-20T09:32:58.000Z</time>
      </trkpt>
      <trkpt lat="50.73867" lon="3.35611">
        <ele>61.66</ele>
        <time>2021-06-20T09:32:59.000Z</time>
      </trkpt>
      <trkpt lat="50.73863" lon="3.35602">
        <ele>61.63</ele>
        <time>2021-06-20T09:33:00.000Z</time>
      </trkpt>
      <trkpt lat="50.73858" lon="3.35593">
        <ele>61.91</ele>
        <time>2021-06-20T09:33:01.000Z</time>
      </trkpt>
      <trkpt lat="50.73854" lon="3.35583">
        <ele>62.03</ele>
        <time>2021-06-20T09:33:02.000Z</time>
      </trkpt>
      <trkpt lat="50.7385" lon="3.35573">
        <ele>62.08</ele>
        <time>2021-06-20T09:33:03.000Z</time>
      </trkpt>
      <trkpt lat="50.73846" lon="3.35564">
        <ele>61.96</ele>
        <time>2021-06-20T09:33:04.000Z</time>
      </trkpt>
      <trkpt lat="50.73841" lon="3.35554">
        <ele>62.22</ele>
        <time>2021-06-20T09:33:05.000Z</time>
      </trkpt>
      <trkpt lat="50.73836" lon="3.35545">
        <ele>62.09</ele>
        <time>2021-06-20T09:33:06.000Z</time>
      </trkpt>
      <trkpt lat="50.73832" lon="3.35536">
        <ele>62.11</ele>
        <time>2021-06-20T09:33:07.000Z</time>
      </trkpt>
      <trkpt lat="50.73828" lon="3.35526">
        <ele>62.11</ele>
        <time>2021-06-20T09:33:08.000Z</time>
      </trkpt>
      <trkpt lat="50.73823" lon="3.35517">
        <ele>61.92</ele>
        <time>2021-06-20T09:33:09.000Z</time>
      </trkpt>
      <trkpt lat="50.73819" lon="3.35508">
        <ele>61.43</ele>
        <time>2021-06-20T09:33:10.000Z</time>
      </trkpt>
      <trkpt lat="50.73814" lon="3.35499">
        <ele>61.37</ele>
        <time>2021-06-20T09:33:11.000Z</time>
      </trkpt>
      <trkpt lat="50.7381" lon="3.35489">
        <ele>61.38</ele>
        <time>2021-06-20T09:33:12.000Z</time>
      </trkpt>
      <trkpt lat="50.73805" lon="3.3548">
        <ele>61.74</ele>
        <time>2021-06-20T09:33:13.000Z</time>
      </trkpt>
      <trkpt lat="50.738" lon="3.3547">
        <ele>62.01</ele>
        <time>2021-06-20T09:33:14.000Z</time>
      </trkpt>
      <trkpt lat="50.73796" lon="3.35462">
        <ele>61.94</ele>
        <time>2021-06-20T09:33:15.000Z</time>
      </trkpt>
      <trkpt lat="50.73791" lon="3.35453">
        <ele>61.51</ele>
        <time>2021-06-20T09:33:16.000Z</time>
      </trkpt>
      <trkpt lat="50.73787" lon="3.35444">
        <ele>61.6</ele>
        <time>2021-06-20T09:33:17.000Z</time>
      </trkpt>
      <trkpt lat="50.73782" lon="3.35434">
        <ele>61.83</ele>
        <time>2021-06-20T09:33:18.000Z</time>
      </trkpt>
      <trkpt lat="50.73777" lon="3.35425">
        <ele>62.06</ele>
        <time>2021-06-20T09:33:19.000Z</time>
      </trkpt>
      <trkpt lat="50.73773" lon="3.35416">
        <ele>62.12</ele>
        <time>2021-06-20T09:33:20.000Z</time>
      </trkpt>
      <trkpt lat="50.73768" lon="3.35407">
        <ele>61.76</ele>
        <time>2021-06-20T09:33:21.000Z</time>
      </trkpt>
      <trkpt lat="50.73763" lon="3.35398">
        <ele>61.68</ele>
        <time>2021-06-20T09:33:22.000Z</time>
      </trkpt>
      <trkpt lat="50.73759" lon="3.3539">
        <ele>61.79</ele>
        <time>2021-06-20T09:33:23.000Z</time>
      </trkpt>
      <trkpt lat="50.73754" lon="3.35381">
        <ele>61.81</ele>
        <time>2021-06-20T09:33:24.000Z</time>
      </trkpt>
      <trkpt lat="50.7375" lon="3.35372">
        <ele>61.86</ele>
        <time>2021-06-20T09:33:25.000Z</time>
      </trkpt>
      <trkpt lat="50.73745" lon="3.35363">
        <ele>61.96</ele>
        <time>2021-06-20T09:33:26.000Z</time>
      </trkpt>
      <trkpt lat="50.73741" lon="3.35355">
        <ele>62.04</ele>
        <time>2021-06-20T09:33:27.000Z</time>
      </trkpt>
      <trkpt lat="50.73737" lon="3.35346">
        <ele>62.01</ele>
        <time>2021-06-20T09:33:28.000Z</time>
      </trkpt>
      <trkpt lat="50.73732" lon="3.35337">
        <ele>61.98</ele>
        <time>2021-06-20T09:33:29.000Z</time>
      </trkpt>
      <trkpt lat="50.73728" lon="3.35328">
        <ele>62.36</ele>
        <time>2021-06-20T09:33:30.000Z</time>
      </trkpt>
      <trkpt lat="50.73723" lon="3.35319">
        <ele>62.11</ele>
        <time>2021-06-20T09:33:31.000Z</time>
      </trkpt>
      <trkpt lat="50.73719" lon="3.35311">
        <ele>62.18</ele>
        <time>2021-06-20T09:33:32.000Z</time>
      </trkpt>
      <trkpt lat="50.73715" lon="3.35303">
        <ele>62.35</ele>
        <time>2021-06-20T09:33:33.000Z</time>
      </trkpt>
      <trkpt lat="50.73711" lon="3.35295">
        <ele>62.3</ele>
        <time>2021-06-20T09:33:34.000Z</time>
      </trkpt>
      <trkpt lat="50.73707" lon="3.35287">
        <ele>61.96</ele>
        <time>2021-06-20T09:33:35.000Z</time>
      </trkpt>
      <trkpt lat="50.73702" lon="3.35278">
        <ele>61.94</ele>
        <time>2021-06-20T09:33:36.000Z</time>
      </trkpt>
      <trkpt lat="50.73698" lon="3.35269">
        <ele>62.09</ele>
        <time>2021-06-20T09:33:37.000Z</time>
      </trkpt>
      <trkpt lat="50.73693" lon="3.3526">
        <ele>62.26</ele>
        <time>2021-06-20T09:33:38.000Z</time>
      </trkpt>
      <trkpt lat="50.73689" lon="3.35251">
        <ele>62.06</ele>
        <time>2021-06-20T09:33:39.000Z</time>
      </trkpt>
      <trkpt lat="50.73685" lon="3.35242">
        <ele>62.06</ele>
        <time>2021-06-20T09:33:40.000Z</time>
      </trkpt>
      <trkpt lat="50.7368" lon="3.35234">
        <ele>62.2</ele>
        <time>2021-06-20T09:33:41.000Z</time>
      </trkpt>
      <trkpt lat="50.73676" lon="3.35225">
        <ele>62.22</ele>
        <time>2021-06-20T09:33:42.000Z</time>
      </trkpt>
      <trkpt lat="50.73672" lon="3.35216">
        <ele>62.22</ele>
        <time>2021-06-20T09:33:43.000Z</time>
      </trkpt>
      <trkpt lat="50.73668" lon="3.35208">
        <ele>62.09</ele>
        <time>2021-06-20T09:33:44.000Z</time>
      </trkpt>
      <trkpt lat="50.73663" lon="3.35199">
        <ele>62</ele>
        <time>2021-06-20T09:33:45.000Z</time>
      </trkpt>
      <trkpt lat="50.73659" lon="3.3519">
        <ele>62.19</ele>
        <time>2021-06-20T09:33:46.000Z</time>
      </trkpt>
      <trkpt lat="50.73654" lon="3.35182">
        <ele>62.09</ele>
        <time>2021-06-20T09:33:47.000Z</time>
      </trkpt>
      <trkpt lat="50.7365" lon="3.35173">
        <ele>61.94</ele>
        <time>2021-06-20T09:33:48.000Z</time>
      </trkpt>
      <trkpt lat="50.73646" lon="3.35164">
        <ele>61.89</ele>
        <time>2021-06-20T09:33:49.000Z</time>
      </trkpt>
      <trkpt lat="50.73642" lon="3.35156">
        <ele>62.03</ele>
        <time>2021-06-20T09:33:50.000Z</time>
      </trkpt>
      <trkpt lat="50.73638" lon="3.35148">
        <ele>61.99</ele>
        <time>2021-06-20T09:33:51.000Z</time>
      </trkpt>
      <trkpt lat="50.73634" lon="3.35141">
        <ele>61.83</ele>
        <time>2021-06-20T09:33:52.000Z</time>
      </trkpt>
      <trkpt lat="50.7363" lon="3.35133">
        <ele>61.4</ele>
        <time>2021-06-20T09:33:53.000Z</time>
      </trkpt>
      <trkpt lat="50.73626" lon="3.35125">
        <ele>61.16</ele>
        <time>2021-06-20T09:33:54.000Z</time>
      </trkpt>
      <trkpt lat="50.73622" lon="3.35117">
        <ele>61.64</ele>
        <time>2021-06-20T09:33:55.000Z</time>
      </trkpt>
      <trkpt lat="50.73618" lon="3.35109">
        <ele>61.43</ele>
        <time>2021-06-20T09:33:56.000Z</time>
      </trkpt>
      <trkpt lat="50.73614" lon="3.35101">
        <ele>61.12</ele>
        <time>2021-06-20T09:33:57.000Z</time>
      </trkpt>
      <trkpt lat="50.7361" lon="3.35093">
        <ele>61.12</ele>
        <time>2021-06-20T09:33:58.000Z</time>
      </trkpt>
      <trkpt lat="50.73607" lon="3.35085">
        <ele>61.01</ele>
        <time>2021-06-20T09:33:59.000Z</time>
      </trkpt>
      <trkpt lat="50.73603" lon="3.35078">
        <ele>61.21</ele>
        <time>2021-06-20T09:34:00.000Z</time>
      </trkpt>
      <trkpt lat="50.73599" lon="3.35069">
        <ele>61.38</ele>
        <time>2021-06-20T09:34:01.000Z</time>
      </trkpt>
      <trkpt lat="50.73595" lon="3.35061">
        <ele>61.36</ele>
        <time>2021-06-20T09:34:02.000Z</time>
      </trkpt>
      <trkpt lat="50.73591" lon="3.35053">
        <ele>61.37</ele>
        <time>2021-06-20T09:34:03.000Z</time>
      </trkpt>
      <trkpt lat="50.73587" lon="3.35045">
        <ele>61.26</ele>
        <time>2021-06-20T09:34:04.000Z</time>
      </trkpt>
      <trkpt lat="50.73583" lon="3.35038">
        <ele>61.22</ele>
        <time>2021-06-20T09:34:05.000Z</time>
      </trkpt>
      <trkpt lat="50.73579" lon="3.3503">
        <ele>61.32</ele>
        <time>2021-06-20T09:34:06.000Z</time>
      </trkpt>
      <trkpt lat="50.73575" lon="3.35022">
        <ele>61.35</ele>
        <time>2021-06-20T09:34:07.000Z</time>
      </trkpt>
      <trkpt lat="50.73571" lon="3.35013">
        <ele>61</ele>
        <time>2021-06-20T09:34:08.000Z</time>
      </trkpt>
      <trkpt lat="50.73567" lon="3.35006">
        <ele>60.82</ele>
        <time>2021-06-20T09:34:09.000Z</time>
      </trkpt>
      <trkpt lat="50.73563" lon="3.34998">
        <ele>60.82</ele>
        <time>2021-06-20T09:34:10.000Z</time>
      </trkpt>
      <trkpt lat="50.7356" lon="3.34989">
        <ele>60.97</ele>
        <time>2021-06-20T09:34:11.000Z</time>
      </trkpt>
      <trkpt lat="50.73555" lon="3.3498">
        <ele>61.01</ele>
        <time>2021-06-20T09:34:12.000Z</time>
      </trkpt>
      <trkpt lat="50.73551" lon="3.34972">
        <ele>61.15</ele>
        <time>2021-06-20T09:34:13.000Z</time>
      </trkpt>
      <trkpt lat="50.73547" lon="3.34963">
        <ele>60.91</ele>
        <time>2021-06-20T09:34:14.000Z</time>
      </trkpt>
      <trkpt lat="50.73543" lon="3.34955">
        <ele>60.61</ele>
        <time>2021-06-20T09:34:15.000Z</time>
      </trkpt>
      <trkpt lat="50.73539" lon="3.34946">
        <ele>60.79</ele>
        <time>2021-06-20T09:34:16.000Z</time>
      </trkpt>
      <trkpt lat="50.73535" lon="3.34937">
        <ele>60.88</ele>
        <time>2021-06-20T09:34:17.000Z</time>
      </trkpt>
      <trkpt lat="50.73532" lon="3.34927">
        <ele>60.98</ele>
        <time>2021-06-20T09:34:18.000Z</time>
      </trkpt>
      <trkpt lat="50.73527" lon="3.34919">
        <ele>60.96</ele>
        <time>2021-06-20T09:34:19.000Z</time>
      </trkpt>
      <trkpt lat="50.73523" lon="3.3491">
        <ele>60.89</ele>
        <time>2021-06-20T09:34:20.000Z</time>
      </trkpt>
      <trkpt lat="50.73519" lon="3.34902">
        <ele>61.02</ele>
        <time>2021-06-20T09:34:21.000Z</time>
      </trkpt>
      <trkpt lat="50.73515" lon="3.34893">
        <ele>61.24</ele>
        <time>2021-06-20T09:34:22.000Z</time>
      </trkpt>
      <trkpt lat="50.73511" lon="3.34885">
        <ele>61.09</ele>
        <time>2021-06-20T09:34:23.000Z</time>
      </trkpt>
      <trkpt lat="50.73507" lon="3.34876">
        <ele>61.26</ele>
        <time>2021-06-20T09:34:24.000Z</time>
      </trkpt>
      <trkpt lat="50.73502" lon="3.34868">
        <ele>61.6</ele>
        <time>2021-06-20T09:34:25.000Z</time>
      </trkpt>
      <trkpt lat="50.73498" lon="3.34859">
        <ele>61.55</ele>
        <time>2021-06-20T09:34:26.000Z</time>
      </trkpt>
      <trkpt lat="50.73494" lon="3.34851">
        <ele>61.53</ele>
        <time>2021-06-20T09:34:27.000Z</time>
      </trkpt>
      <trkpt lat="50.7349" lon="3.34843">
        <ele>61.25</ele>
        <time>2021-06-20T09:34:28.000Z</time>
      </trkpt>
      <trkpt lat="50.73486" lon="3.34834">
        <ele>61.52</ele>
        <time>2021-06-20T09:34:29.000Z</time>
      </trkpt>
      <trkpt lat="50.73482" lon="3.34825">
        <ele>61.71</ele>
        <time>2021-06-20T09:34:30.000Z</time>
      </trkpt>
      <trkpt lat="50.73478" lon="3.34816">
        <ele>61.65</ele>
        <time>2021-06-20T09:34:31.000Z</time>
      </trkpt>
      <trkpt lat="50.73474" lon="3.34808">
        <ele>61.56</ele>
        <time>2021-06-20T09:34:32.000Z</time>
      </trkpt>
      <trkpt lat="50.7347" lon="3.348">
        <ele>61.75</ele>
        <time>2021-06-20T09:34:33.000Z</time>
      </trkpt>
      <trkpt lat="50.73465" lon="3.34791">
        <ele>61.54</ele>
        <time>2021-06-20T09:34:34.000Z</time>
      </trkpt>
      <trkpt lat="50.73461" lon="3.34782">
        <ele>61.27</ele>
        <time>2021-06-20T09:34:35.000Z</time>
      </trkpt>
      <trkpt lat="50.73457" lon="3.34774">
        <ele>61.26</ele>
        <time>2021-06-20T09:34:36.000Z</time>
      </trkpt>
      <trkpt lat="50.73453" lon="3.34765">
        <ele>61.31</ele>
        <time>2021-06-20T09:34:37.000Z</time>
      </trkpt>
      <trkpt lat="50.73448" lon="3.34756">
        <ele>61.22</ele>
        <time>2021-06-20T09:34:38.000Z</time>
      </trkpt>
      <trkpt lat="50.73444" lon="3.34748">
        <ele>61.48</ele>
        <time>2021-06-20T09:34:39.000Z</time>
      </trkpt>
      <trkpt lat="50.7344" lon="3.34739">
        <ele>61.41</ele>
        <time>2021-06-20T09:34:40.000Z</time>
      </trkpt>
      <trkpt lat="50.73435" lon="3.34731">
        <ele>61.42</ele>
        <time>2021-06-20T09:34:41.000Z</time>
      </trkpt>
      <trkpt lat="50.73431" lon="3.34723">
        <ele>61.26</ele>
        <time>2021-06-20T09:34:42.000Z</time>
      </trkpt>
      <trkpt lat="50.73427" lon="3.34715">
        <ele>61</ele>
        <time>2021-06-20T09:34:43.000Z</time>
      </trkpt>
      <trkpt lat="50.73423" lon="3.34709">
        <ele>60.74</ele>
        <time>2021-06-20T09:34:44.000Z</time>
      </trkpt>
      <trkpt lat="50.73419" lon="3.34701">
        <ele>60.77</ele>
        <time>2021-06-20T09:34:45.000Z</time>
      </trkpt>
      <trkpt lat="50.73416" lon="3.34694">
        <ele>60.97</ele>
        <time>2021-06-20T09:34:46.000Z</time>
      </trkpt>
      <trkpt lat="50.73412" lon="3.34687">
        <ele>61.4</ele>
        <time>2021-06-20T09:34:47.000Z</time>
      </trkpt>
      <trkpt lat="50.73408" lon="3.3468">
        <ele>61.77</ele>
        <time>2021-06-20T09:34:48.000Z</time>
      </trkpt>
      <trkpt lat="50.73405" lon="3.34673">
        <ele>61.92</ele>
        <time>2021-06-20T09:34:49.000Z</time>
      </trkpt>
      <trkpt lat="50.73401" lon="3.34665">
        <ele>61.87</ele>
        <time>2021-06-20T09:34:50.000Z</time>
      </trkpt>
      <trkpt lat="50.73397" lon="3.34658">
        <ele>62.01</ele>
        <time>2021-06-20T09:34:51.000Z</time>
      </trkpt>
      <trkpt lat="50.73393" lon="3.3465">
        <ele>61.89</ele>
        <time>2021-06-20T09:34:52.000Z</time>
      </trkpt>
      <trkpt lat="50.73389" lon="3.34642">
        <ele>61.81</ele>
        <time>2021-06-20T09:34:53.000Z</time>
      </trkpt>
      <trkpt lat="50.73385" lon="3.34634">
        <ele>61.64</ele>
        <time>2021-06-20T09:34:54.000Z</time>
      </trkpt>
      <trkpt lat="50.73381" lon="3.34625">
        <ele>61.9</ele>
        <time>2021-06-20T09:34:55.000Z</time>
      </trkpt>
      <trkpt lat="50.73377" lon="3.34617">
        <ele>61.55</ele>
        <time>2021-06-20T09:34:56.000Z</time>
      </trkpt>
      <trkpt lat="50.73372" lon="3.34608">
        <ele>61.1</ele>
        <time>2021-06-20T09:34:57.000Z</time>
      </trkpt>
      <trkpt lat="50.73368" lon="3.346">
        <ele>60.91</ele>
        <time>2021-06-20T09:34:58.000Z</time>
      </trkpt>
      <trkpt lat="50.73363" lon="3.34591">
        <ele>61.23</ele>
        <time>2021-06-20T09:34:59.000Z</time>
      </trkpt>
      <trkpt lat="50.73359" lon="3.34583">
        <ele>61.51</ele>
        <time>2021-06-20T09:35:00.000Z</time>
      </trkpt>
      <trkpt lat="50.73355" lon="3.34574">
        <ele>61.48</ele>
        <time>2021-06-20T09:35:01.000Z</time>
      </trkpt>
      <trkpt lat="50.7335" lon="3.34565">
        <ele>61.43</ele>
        <time>2021-06-20T09:35:02.000Z</time>
      </trkpt>
      <trkpt lat="50.73346" lon="3.34556">
        <ele>61.05</ele>
        <time>2021-06-20T09:35:03.000Z</time>
      </trkpt>
      <trkpt lat="50.73342" lon="3.34547">
        <ele>60.76</ele>
        <time>2021-06-20T09:35:04.000Z</time>
      </trkpt>
      <trkpt lat="50.73337" lon="3.34538">
        <ele>61.24</ele>
        <time>2021-06-20T09:35:05.000Z</time>
      </trkpt>
      <trkpt lat="50.73332" lon="3.34529">
        <ele>61.92</ele>
        <time>2021-06-20T09:35:06.000Z</time>
      </trkpt>
      <trkpt lat="50.73328" lon="3.3452">
        <ele>61.92</ele>
        <time>2021-06-20T09:35:07.000Z</time>
      </trkpt>
      <trkpt lat="50.73324" lon="3.34511">
        <ele>61.62</ele>
        <time>2021-06-20T09:35:08.000Z</time>
      </trkpt>
      <trkpt lat="50.73319" lon="3.34501">
        <ele>61.24</ele>
        <time>2021-06-20T09:35:09.000Z</time>
      </trkpt>
      <trkpt lat="50.73315" lon="3.34491">
        <ele>60.96</ele>
        <time>2021-06-20T09:35:10.000Z</time>
      </trkpt>
      <trkpt lat="50.73311" lon="3.34482">
        <ele>61.01</ele>
        <time>2021-06-20T09:35:11.000Z</time>
      </trkpt>
      <trkpt lat="50.73306" lon="3.34473">
        <ele>61.11</ele>
        <time>2021-06-20T09:35:12.000Z</time>
      </trkpt>
      <trkpt lat="50.73301" lon="3.34465">
        <ele>61.34</ele>
        <time>2021-06-20T09:35:13.000Z</time>
      </trkpt>
      <trkpt lat="50.73296" lon="3.34455">
        <ele>61.68</ele>
        <time>2021-06-20T09:35:14.000Z</time>
      </trkpt>
      <trkpt lat="50.73292" lon="3.34447">
        <ele>61.61</ele>
        <time>2021-06-20T09:35:15.000Z</time>
      </trkpt>
      <trkpt lat="50.73287" lon="3.34438">
        <ele>61.4</ele>
        <time>2021-06-20T09:35:16.000Z</time>
      </trkpt>
      <trkpt lat="50.73283" lon="3.34429">
        <ele>61.61</ele>
        <time>2021-06-20T09:35:17.000Z</time>
      </trkpt>
      <trkpt lat="50.73278" lon="3.3442">
        <ele>61.83</ele>
        <time>2021-06-20T09:35:18.000Z</time>
      </trkpt>
      <trkpt lat="50.73273" lon="3.3441">
        <ele>62.1</ele>
        <time>2021-06-20T09:35:19.000Z</time>
      </trkpt>
      <trkpt lat="50.73269" lon="3.34401">
        <ele>61.95</ele>
        <time>2021-06-20T09:35:20.000Z</time>
      </trkpt>
      <trkpt lat="50.73264" lon="3.34392">
        <ele>61.17</ele>
        <time>2021-06-20T09:35:21.000Z</time>
      </trkpt>
      <trkpt lat="50.73259" lon="3.34383">
        <ele>61.02</ele>
        <time>2021-06-20T09:35:22.000Z</time>
      </trkpt>
      <trkpt lat="50.73255" lon="3.34373">
        <ele>60.95</ele>
        <time>2021-06-20T09:35:23.000Z</time>
      </trkpt>
      <trkpt lat="50.7325" lon="3.34363">
        <ele>60.83</ele>
        <time>2021-06-20T09:35:24.000Z</time>
      </trkpt>
      <trkpt lat="50.73246" lon="3.34353">
        <ele>60.78</ele>
        <time>2021-06-20T09:35:25.000Z</time>
      </trkpt>
      <trkpt lat="50.73241" lon="3.34343">
        <ele>61.49</ele>
        <time>2021-06-20T09:35:26.000Z</time>
      </trkpt>
      <trkpt lat="50.73236" lon="3.34333">
        <ele>61.12</ele>
        <time>2021-06-20T09:35:27.000Z</time>
      </trkpt>
      <trkpt lat="50.73231" lon="3.34324">
        <ele>61.09</ele>
        <time>2021-06-20T09:35:28.000Z</time>
      </trkpt>
      <trkpt lat="50.73227" lon="3.34314">
        <ele>60.95</ele>
        <time>2021-06-20T09:35:29.000Z</time>
      </trkpt>
      <trkpt lat="50.73222" lon="3.34304">
        <ele>60.69</ele>
        <time>2021-06-20T09:35:30.000Z</time>
      </trkpt>
      <trkpt lat="50.73217" lon="3.34295">
        <ele>60.83</ele>
        <time>2021-06-20T09:35:31.000Z</time>
      </trkpt>
      <trkpt lat="50.73212" lon="3.34285">
        <ele>61</ele>
        <time>2021-06-20T09:35:32.000Z</time>
      </trkpt>
      <trkpt lat="50.73208" lon="3.34276">
        <ele>60.99</ele>
        <time>2021-06-20T09:35:33.000Z</time>
      </trkpt>
      <trkpt lat="50.73203" lon="3.34267">
        <ele>61.27</ele>
        <time>2021-06-20T09:35:34.000Z</time>
      </trkpt>
      <trkpt lat="50.73199" lon="3.34258">
        <ele>61.23</ele>
        <time>2021-06-20T09:35:35.000Z</time>
      </trkpt>
      <trkpt lat="50.73194" lon="3.34249">
        <ele>61.28</ele>
        <time>2021-06-20T09:35:36.000Z</time>
      </trkpt>
      <trkpt lat="50.73189" lon="3.3424">
        <ele>61.26</ele>
        <time>2021-06-20T09:35:37.000Z</time>
      </trkpt>
      <trkpt lat="50.73185" lon="3.34231">
        <ele>61.12</ele>
        <time>2021-06-20T09:35:38.000Z</time>
      </trkpt>
      <trkpt lat="50.7318" lon="3.34222">
        <ele>61.13</ele>
        <time>2021-06-20T09:35:39.000Z</time>
      </trkpt>
      <trkpt lat="50.73176" lon="3.34213">
        <ele>61.52</ele>
        <time>2021-06-20T09:35:40.000Z</time>
      </trkpt>
      <trkpt lat="50.73172" lon="3.34205">
        <ele>61.55</ele>
        <time>2021-06-20T09:35:41.000Z</time>
      </trkpt>
      <trkpt lat="50.73167" lon="3.34196">
        <ele>61.82</ele>
        <time>2021-06-20T09:35:42.000Z</time>
      </trkpt>
      <trkpt lat="50.73163" lon="3.34186">
        <ele>61.95</ele>
        <time>2021-06-20T09:35:43.000Z</time>
      </trkpt>
      <trkpt lat="50.73158" lon="3.34177">
        <ele>61.89</ele>
        <time>2021-06-20T09:35:44.000Z</time>
      </trkpt>
      <trkpt lat="50.73154" lon="3.34167">
        <ele>61.96</ele>
        <time>2021-06-20T09:35:45.000Z</time>
      </trkpt>
      <trkpt lat="50.73149" lon="3.34158">
        <ele>61.76</ele>
        <time>2021-06-20T09:35:46.000Z</time>
      </trkpt>
      <trkpt lat="50.73144" lon="3.34149">
        <ele>61.62</ele>
        <time>2021-06-20T09:35:47.000Z</time>
      </trkpt>
      <trkpt lat="50.7314" lon="3.34139">
        <ele>61.53</ele>
        <time>2021-06-20T09:35:48.000Z</time>
      </trkpt>
      <trkpt lat="50.73135" lon="3.34129">
        <ele>61.84</ele>
        <time>2021-06-20T09:35:49.000Z</time>
      </trkpt>
      <trkpt lat="50.7313" lon="3.3412">
        <ele>61.83</ele>
        <time>2021-06-20T09:35:50.000Z</time>
      </trkpt>
      <trkpt lat="50.73125" lon="3.34111">
        <ele>61.44</ele>
        <time>2021-06-20T09:35:51.000Z</time>
      </trkpt>
      <trkpt lat="50.7312" lon="3.34102">
        <ele>61.77</ele>
        <time>2021-06-20T09:35:52.000Z</time>
      </trkpt>
      <trkpt lat="50.73115" lon="3.34092">
        <ele>61.77</ele>
        <time>2021-06-20T09:35:53.000Z</time>
      </trkpt>
      <trkpt lat="50.73111" lon="3.34083">
        <ele>62.08</ele>
        <time>2021-06-20T09:35:54.000Z</time>
      </trkpt>
      <trkpt lat="50.73106" lon="3.34074">
        <ele>62.24</ele>
        <time>2021-06-20T09:35:55.000Z</time>
      </trkpt>
      <trkpt lat="50.73102" lon="3.34065">
        <ele>62.28</ele>
        <time>2021-06-20T09:35:56.000Z</time>
      </trkpt>
      <trkpt lat="50.73098" lon="3.34056">
        <ele>62.53</ele>
        <time>2021-06-20T09:35:57.000Z</time>
      </trkpt>
      <trkpt lat="50.73093" lon="3.34046">
        <ele>62.59</ele>
        <time>2021-06-20T09:35:58.000Z</time>
      </trkpt>
      <trkpt lat="50.73088" lon="3.34037">
        <ele>62.58</ele>
        <time>2021-06-20T09:35:59.000Z</time>
      </trkpt>
      <trkpt lat="50.73084" lon="3.34028">
        <ele>62.54</ele>
        <time>2021-06-20T09:36:00.000Z</time>
      </trkpt>
      <trkpt lat="50.73079" lon="3.34019">
        <ele>62.04</ele>
        <time>2021-06-20T09:36:01.000Z</time>
      </trkpt>
      <trkpt lat="50.73075" lon="3.34009">
        <ele>62.2</ele>
        <time>2021-06-20T09:36:02.000Z</time>
      </trkpt>
      <trkpt lat="50.7307" lon="3.33999">
        <ele>63.14</ele>
        <time>2021-06-20T09:36:03.000Z</time>
      </trkpt>
      <trkpt lat="50.73066" lon="3.3399">
        <ele>63.14</ele>
        <time>2021-06-20T09:36:04.000Z</time>
      </trkpt>
      <trkpt lat="50.73061" lon="3.3398">
        <ele>63.37</ele>
        <time>2021-06-20T09:36:05.000Z</time>
      </trkpt>
      <trkpt lat="50.73056" lon="3.3397">
        <ele>63.36</ele>
        <time>2021-06-20T09:36:06.000Z</time>
      </trkpt>
      <trkpt lat="50.73051" lon="3.33961">
        <ele>63.03</ele>
        <time>2021-06-20T09:36:07.000Z</time>
      </trkpt>
      <trkpt lat="50.73047" lon="3.33952">
        <ele>62.84</ele>
        <time>2021-06-20T09:36:08.000Z</time>
      </trkpt>
      <trkpt lat="50.73042" lon="3.33943">
        <ele>62.92</ele>
        <time>2021-06-20T09:36:09.000Z</time>
      </trkpt>
      <trkpt lat="50.73037" lon="3.33933">
        <ele>62.91</ele>
        <time>2021-06-20T09:36:10.000Z</time>
      </trkpt>
      <trkpt lat="50.73033" lon="3.33923">
        <ele>63.15</ele>
        <time>2021-06-20T09:36:11.000Z</time>
      </trkpt>
      <trkpt lat="50.73029" lon="3.33913">
        <ele>63.19</ele>
        <time>2021-06-20T09:36:12.000Z</time>
      </trkpt>
      <trkpt lat="50.73024" lon="3.33904">
        <ele>63.38</ele>
        <time>2021-06-20T09:36:13.000Z</time>
      </trkpt>
      <trkpt lat="50.7302" lon="3.33894">
        <ele>62.92</ele>
        <time>2021-06-20T09:36:14.000Z</time>
      </trkpt>
      <trkpt lat="50.73015" lon="3.33884">
        <ele>62.62</ele>
        <time>2021-06-20T09:36:15.000Z</time>
      </trkpt>
      <trkpt lat="50.73011" lon="3.33875">
        <ele>62.35</ele>
        <time>2021-06-20T09:36:16.000Z</time>
      </trkpt>
      <trkpt lat="50.73006" lon="3.33865">
        <ele>62.38</ele>
        <time>2021-06-20T09:36:17.000Z</time>
      </trkpt>
      <trkpt lat="50.73001" lon="3.33855">
        <ele>62.48</ele>
        <time>2021-06-20T09:36:18.000Z</time>
      </trkpt>
      <trkpt lat="50.72997" lon="3.33845">
        <ele>62.4</ele>
        <time>2021-06-20T09:36:19.000Z</time>
      </trkpt>
      <trkpt lat="50.72992" lon="3.33836">
        <ele>62.23</ele>
        <time>2021-06-20T09:36:20.000Z</time>
      </trkpt>
      <trkpt lat="50.72988" lon="3.33826">
        <ele>62.09</ele>
        <time>2021-06-20T09:36:21.000Z</time>
      </trkpt>
      <trkpt lat="50.72983" lon="3.33815">
        <ele>62.06</ele>
        <time>2021-06-20T09:36:22.000Z</time>
      </trkpt>
      <trkpt lat="50.72979" lon="3.33805">
        <ele>61.91</ele>
        <time>2021-06-20T09:36:23.000Z</time>
      </trkpt>
      <trkpt lat="50.72974" lon="3.33794">
        <ele>61.81</ele>
        <time>2021-06-20T09:36:24.000Z</time>
      </trkpt>
      <trkpt lat="50.7297" lon="3.33784">
        <ele>61.62</ele>
        <time>2021-06-20T09:36:25.000Z</time>
      </trkpt>
      <trkpt lat="50.72966" lon="3.33774">
        <ele>61.58</ele>
        <time>2021-06-20T09:36:26.000Z</time>
      </trkpt>
      <trkpt lat="50.72961" lon="3.33764">
        <ele>61.62</ele>
        <time>2021-06-20T09:36:27.000Z</time>
      </trkpt>
      <trkpt lat="50.72957" lon="3.33754">
        <ele>61.55</ele>
        <time>2021-06-20T09:36:28.000Z</time>
      </trkpt>
      <trkpt lat="50.72953" lon="3.33744">
        <ele>61.68</ele>
        <time>2021-06-20T09:36:29.000Z</time>
      </trkpt>
      <trkpt lat="50.72949" lon="3.33735">
        <ele>61.01</ele>
        <time>2021-06-20T09:36:30.000Z</time>
      </trkpt>
      <trkpt lat="50.72945" lon="3.33725">
        <ele>61.44</ele>
        <time>2021-06-20T09:36:31.000Z</time>
      </trkpt>
      <trkpt lat="50.7294" lon="3.33716">
        <ele>61.87</ele>
        <time>2021-06-20T09:36:32.000Z</time>
      </trkpt>
      <trkpt lat="50.72936" lon="3.33707">
        <ele>61.86</ele>
        <time>2021-06-20T09:36:33.000Z</time>
      </trkpt>
      <trkpt lat="50.72933" lon="3.33698">
        <ele>61.73</ele>
        <time>2021-06-20T09:36:34.000Z</time>
      </trkpt>
      <trkpt lat="50.72929" lon="3.3369">
        <ele>61.64</ele>
        <time>2021-06-20T09:36:35.000Z</time>
      </trkpt>
      <trkpt lat="50.72926" lon="3.33681">
        <ele>61.59</ele>
        <time>2021-06-20T09:36:36.000Z</time>
      </trkpt>
      <trkpt lat="50.72922" lon="3.33673">
        <ele>61.48</ele>
        <time>2021-06-20T09:36:37.000Z</time>
      </trkpt>
      <trkpt lat="50.72919" lon="3.33664">
        <ele>61.48</ele>
        <time>2021-06-20T09:36:38.000Z</time>
      </trkpt>
      <trkpt lat="50.72915" lon="3.33654">
        <ele>61.36</ele>
        <time>2021-06-20T09:36:39.000Z</time>
      </trkpt>
      <trkpt lat="50.72911" lon="3.33645">
        <ele>61.49</ele>
        <time>2021-06-20T09:36:40.000Z</time>
      </trkpt>
      <trkpt lat="50.72907" lon="3.33637">
        <ele>61.61</ele>
        <time>2021-06-20T09:36:41.000Z</time>
      </trkpt>
      <trkpt lat="50.72903" lon="3.33627">
        <ele>61.6</ele>
        <time>2021-06-20T09:36:42.000Z</time>
      </trkpt>
      <trkpt lat="50.72899" lon="3.33618">
        <ele>61.6</ele>
        <time>2021-06-20T09:36:43.000Z</time>
      </trkpt>
      <trkpt lat="50.72895" lon="3.33608">
        <ele>61.14</ele>
        <time>2021-06-20T09:36:44.000Z</time>
      </trkpt>
      <trkpt lat="50.72891" lon="3.33599">
        <ele>61.07</ele>
        <time>2021-06-20T09:36:45.000Z</time>
      </trkpt>
      <trkpt lat="50.72887" lon="3.3359">
        <ele>60.83</ele>
        <time>2021-06-20T09:36:46.000Z</time>
      </trkpt>
      <trkpt lat="50.72884" lon="3.33581">
        <ele>60.83</ele>
        <time>2021-06-20T09:36:47.000Z</time>
      </trkpt>
      <trkpt lat="50.72879" lon="3.3357">
        <ele>61.08</ele>
        <time>2021-06-20T09:36:48.000Z</time>
      </trkpt>
      <trkpt lat="50.72876" lon="3.33561">
        <ele>60.95</ele>
        <time>2021-06-20T09:36:49.000Z</time>
      </trkpt>
      <trkpt lat="50.72872" lon="3.33552">
        <ele>61.1</ele>
        <time>2021-06-20T09:36:50.000Z</time>
      </trkpt>
      <trkpt lat="50.72868" lon="3.33543">
        <ele>61.34</ele>
        <time>2021-06-20T09:36:51.000Z</time>
      </trkpt>
      <trkpt lat="50.72865" lon="3.33535">
        <ele>62.2</ele>
        <time>2021-06-20T09:36:52.000Z</time>
      </trkpt>
      <trkpt lat="50.72862" lon="3.33528">
        <ele>62.18</ele>
        <time>2021-06-20T09:36:53.000Z</time>
      </trkpt>
      <trkpt lat="50.72858" lon="3.33521">
        <ele>61.77</ele>
        <time>2021-06-20T09:36:54.000Z</time>
      </trkpt>
      <trkpt lat="50.72855" lon="3.33515">
        <ele>61.79</ele>
        <time>2021-06-20T09:36:55.000Z</time>
      </trkpt>
      <trkpt lat="50.72852" lon="3.33509">
        <ele>62.12</ele>
        <time>2021-06-20T09:36:56.000Z</time>
      </trkpt>
      <trkpt lat="50.7285" lon="3.33503">
        <ele>62.04</ele>
        <time>2021-06-20T09:36:57.000Z</time>
      </trkpt>
      <trkpt lat="50.72847" lon="3.33497">
        <ele>61.35</ele>
        <time>2021-06-20T09:36:58.000Z</time>
      </trkpt>
      <trkpt lat="50.72843" lon="3.33485">
        <ele>60.82</ele>
        <time>2021-06-20T09:37:00.000Z</time>
      </trkpt>
      <trkpt lat="50.72839" lon="3.33475">
        <ele>60.81</ele>
        <time>2021-06-20T09:37:02.000Z</time>
      </trkpt>
      <trkpt lat="50.72838" lon="3.33462">
        <ele>60.81</ele>
        <time>2021-06-20T09:37:04.000Z</time>
      </trkpt>
      <trkpt lat="50.72839" lon="3.33454">
        <ele>60.95</ele>
        <time>2021-06-20T09:37:05.000Z</time>
      </trkpt>
      <trkpt lat="50.7284" lon="3.33447">
        <ele>61.02</ele>
        <time>2021-06-20T09:37:06.000Z</time>
      </trkpt>
      <trkpt lat="50.72842" lon="3.33439">
        <ele>61.27</ele>
        <time>2021-06-20T09:37:07.000Z</time>
      </trkpt>
      <trkpt lat="50.72845" lon="3.3343">
        <ele>62.12</ele>
        <time>2021-06-20T09:37:08.000Z</time>
      </trkpt>
      <trkpt lat="50.72847" lon="3.33422">
        <ele>62.27</ele>
        <time>2021-06-20T09:37:09.000Z</time>
      </trkpt>
      <trkpt lat="50.7285" lon="3.33413">
        <ele>62.25</ele>
        <time>2021-06-20T09:37:10.000Z</time>
      </trkpt>
      <trkpt lat="50.72852" lon="3.33404">
        <ele>62.09</ele>
        <time>2021-06-20T09:37:11.000Z</time>
      </trkpt>
      <trkpt lat="50.72854" lon="3.33394">
        <ele>62.09</ele>
        <time>2021-06-20T09:37:12.000Z</time>
      </trkpt>
      <trkpt lat="50.72856" lon="3.33384">
        <ele>62.25</ele>
        <time>2021-06-20T09:37:13.000Z</time>
      </trkpt>
      <trkpt lat="50.72859" lon="3.33374">
        <ele>62.33</ele>
        <time>2021-06-20T09:37:14.000Z</time>
      </trkpt>
      <trkpt lat="50.72861" lon="3.33364">
        <ele>62.4</ele>
        <time>2021-06-20T09:37:15.000Z</time>
      </trkpt>
      <trkpt lat="50.72862" lon="3.33354">
        <ele>62.61</ele>
        <time>2021-06-20T09:37:16.000Z</time>
      </trkpt>
      <trkpt lat="50.72864" lon="3.33344">
        <ele>62.68</ele>
        <time>2021-06-20T09:37:17.000Z</time>
      </trkpt>
      <trkpt lat="50.72866" lon="3.33334">
        <ele>62.93</ele>
        <time>2021-06-20T09:37:18.000Z</time>
      </trkpt>
      <trkpt lat="50.72868" lon="3.33324">
        <ele>62.61</ele>
        <time>2021-06-20T09:37:19.000Z</time>
      </trkpt>
      <trkpt lat="50.7287" lon="3.33314">
        <ele>62.72</ele>
        <time>2021-06-20T09:37:20.000Z</time>
      </trkpt>
      <trkpt lat="50.72872" lon="3.33304">
        <ele>62.78</ele>
        <time>2021-06-20T09:37:21.000Z</time>
      </trkpt>
      <trkpt lat="50.72874" lon="3.33294">
        <ele>63.17</ele>
        <time>2021-06-20T09:37:22.000Z</time>
      </trkpt>
      <trkpt lat="50.72875" lon="3.33284">
        <ele>63.06</ele>
        <time>2021-06-20T09:37:23.000Z</time>
      </trkpt>
      <trkpt lat="50.72877" lon="3.33274">
        <ele>63.25</ele>
        <time>2021-06-20T09:37:24.000Z</time>
      </trkpt>
      <trkpt lat="50.7288" lon="3.33265">
        <ele>63.51</ele>
        <time>2021-06-20T09:37:25.000Z</time>
      </trkpt>
      <trkpt lat="50.72883" lon="3.33256">
        <ele>63.47</ele>
        <time>2021-06-20T09:37:26.000Z</time>
      </trkpt>
      <trkpt lat="50.72886" lon="3.33247">
        <ele>63.16</ele>
        <time>2021-06-20T09:37:27.000Z</time>
      </trkpt>
      <trkpt lat="50.72889" lon="3.33237">
        <ele>63.17</ele>
        <time>2021-06-20T09:37:28.000Z</time>
      </trkpt>
      <trkpt lat="50.72891" lon="3.33226">
        <ele>63.13</ele>
        <time>2021-06-20T09:37:29.000Z</time>
      </trkpt>
      <trkpt lat="50.72893" lon="3.33215">
        <ele>63.37</ele>
        <time>2021-06-20T09:37:30.000Z</time>
      </trkpt>
      <trkpt lat="50.72895" lon="3.33204">
        <ele>63.12</ele>
        <time>2021-06-20T09:37:31.000Z</time>
      </trkpt>
      <trkpt lat="50.72897" lon="3.33193">
        <ele>62.98</ele>
        <time>2021-06-20T09:37:32.000Z</time>
      </trkpt>
      <trkpt lat="50.72899" lon="3.33183">
        <ele>62.96</ele>
        <time>2021-06-20T09:37:33.000Z</time>
      </trkpt>
      <trkpt lat="50.72901" lon="3.33171">
        <ele>63.04</ele>
        <time>2021-06-20T09:37:34.000Z</time>
      </trkpt>
      <trkpt lat="50.72903" lon="3.3316">
        <ele>62.89</ele>
        <time>2021-06-20T09:37:35.000Z</time>
      </trkpt>
      <trkpt lat="50.72904" lon="3.33149">
        <ele>62.67</ele>
        <time>2021-06-20T09:37:36.000Z</time>
      </trkpt>
      <trkpt lat="50.72906" lon="3.33138">
        <ele>62.73</ele>
        <time>2021-06-20T09:37:37.000Z</time>
      </trkpt>
      <trkpt lat="50.72908" lon="3.33127">
        <ele>62.63</ele>
        <time>2021-06-20T09:37:38.000Z</time>
      </trkpt>
      <trkpt lat="50.72909" lon="3.33115">
        <ele>62.52</ele>
        <time>2021-06-20T09:37:39.000Z</time>
      </trkpt>
      <trkpt lat="50.72911" lon="3.33103">
        <ele>62.46</ele>
        <time>2021-06-20T09:37:40.000Z</time>
      </trkpt>
      <trkpt lat="50.72911" lon="3.33092">
        <ele>62.86</ele>
        <time>2021-06-20T09:37:41.000Z</time>
      </trkpt>
      <trkpt lat="50.72913" lon="3.33081">
        <ele>62.85</ele>
        <time>2021-06-20T09:37:42.000Z</time>
      </trkpt>
      <trkpt lat="50.72915" lon="3.33071">
        <ele>62.8</ele>
        <time>2021-06-20T09:37:43.000Z</time>
      </trkpt>
      <trkpt lat="50.72917" lon="3.33061">
        <ele>62.59</ele>
        <time>2021-06-20T09:37:44.000Z</time>
      </trkpt>
      <trkpt lat="50.72919" lon="3.33051">
        <ele>62.3</ele>
        <time>2021-06-20T09:37:45.000Z</time>
      </trkpt>
      <trkpt lat="50.7292" lon="3.3304">
        <ele>62.21</ele>
        <time>2021-06-20T09:37:46.000Z</time>
      </trkpt>
      <trkpt lat="50.72922" lon="3.33029">
        <ele>62.17</ele>
        <time>2021-06-20T09:37:47.000Z</time>
      </trkpt>
      <trkpt lat="50.72924" lon="3.33018">
        <ele>61.81</ele>
        <time>2021-06-20T09:37:48.000Z</time>
      </trkpt>
      <trkpt lat="50.72925" lon="3.33008">
        <ele>61.76</ele>
        <time>2021-06-20T09:37:49.000Z</time>
      </trkpt>
      <trkpt lat="50.72927" lon="3.32997">
        <ele>61.68</ele>
        <time>2021-06-20T09:37:50.000Z</time>
      </trkpt>
      <trkpt lat="50.72928" lon="3.32987">
        <ele>61.38</ele>
        <time>2021-06-20T09:37:51.000Z</time>
      </trkpt>
      <trkpt lat="50.7293" lon="3.32976">
        <ele>61.49</ele>
        <time>2021-06-20T09:37:52.000Z</time>
      </trkpt>
      <trkpt lat="50.72932" lon="3.32964">
        <ele>61.73</ele>
        <time>2021-06-20T09:37:53.000Z</time>
      </trkpt>
      <trkpt lat="50.72934" lon="3.32953">
        <ele>62.09</ele>
        <time>2021-06-20T09:37:54.000Z</time>
      </trkpt>
      <trkpt lat="50.72936" lon="3.32941">
        <ele>61.8</ele>
        <time>2021-06-20T09:37:55.000Z</time>
      </trkpt>
      <trkpt lat="50.72936" lon="3.32929">
        <ele>61.81</ele>
        <time>2021-06-20T09:37:56.000Z</time>
      </trkpt>
      <trkpt lat="50.72937" lon="3.32916">
        <ele>61.78</ele>
        <time>2021-06-20T09:37:57.000Z</time>
      </trkpt>
      <trkpt lat="50.72938" lon="3.32903">
        <ele>61.94</ele>
        <time>2021-06-20T09:37:58.000Z</time>
      </trkpt>
      <trkpt lat="50.72939" lon="3.32892">
        <ele>61.97</ele>
        <time>2021-06-20T09:37:59.000Z</time>
      </trkpt>
      <trkpt lat="50.7294" lon="3.32881">
        <ele>62.03</ele>
        <time>2021-06-20T09:38:00.000Z</time>
      </trkpt>
      <trkpt lat="50.72941" lon="3.32869">
        <ele>61.95</ele>
        <time>2021-06-20T09:38:01.000Z</time>
      </trkpt>
      <trkpt lat="50.72942" lon="3.32858">
        <ele>62.35</ele>
        <time>2021-06-20T09:38:02.000Z</time>
      </trkpt>
      <trkpt lat="50.72942" lon="3.32845">
        <ele>62.52</ele>
        <time>2021-06-20T09:38:03.000Z</time>
      </trkpt>
      <trkpt lat="50.72943" lon="3.32833">
        <ele>62.51</ele>
        <time>2021-06-20T09:38:04.000Z</time>
      </trkpt>
      <trkpt lat="50.72945" lon="3.32821">
        <ele>62.34</ele>
        <time>2021-06-20T09:38:05.000Z</time>
      </trkpt>
      <trkpt lat="50.72949" lon="3.32811">
        <ele>62.2</ele>
        <time>2021-06-20T09:38:06.000Z</time>
      </trkpt>
      <trkpt lat="50.72956" lon="3.32803">
        <ele>62.32</ele>
        <time>2021-06-20T09:38:07.000Z</time>
      </trkpt>
      <trkpt lat="50.72963" lon="3.32799">
        <ele>62.38</ele>
        <time>2021-06-20T09:38:08.000Z</time>
      </trkpt>
      <trkpt lat="50.72972" lon="3.32796">
        <ele>62.51</ele>
        <time>2021-06-20T09:38:09.000Z</time>
      </trkpt>
      <trkpt lat="50.7298" lon="3.32791">
        <ele>62.25</ele>
        <time>2021-06-20T09:38:10.000Z</time>
      </trkpt>
      <trkpt lat="50.72987" lon="3.32784">
        <ele>61.76</ele>
        <time>2021-06-20T09:38:11.000Z</time>
      </trkpt>
      <trkpt lat="50.72993" lon="3.32774">
        <ele>61.76</ele>
        <time>2021-06-20T09:38:12.000Z</time>
      </trkpt>
      <trkpt lat="50.72998" lon="3.32765">
        <ele>61.26</ele>
        <time>2021-06-20T09:38:13.000Z</time>
      </trkpt>
      <trkpt lat="50.73004" lon="3.32755">
        <ele>61</ele>
        <time>2021-06-20T09:38:14.000Z</time>
      </trkpt>
      <trkpt lat="50.7301" lon="3.32745">
        <ele>61.14</ele>
        <time>2021-06-20T09:38:15.000Z</time>
      </trkpt>
      <trkpt lat="50.73015" lon="3.32735">
        <ele>60.76</ele>
        <time>2021-06-20T09:38:16.000Z</time>
      </trkpt>
      <trkpt lat="50.73021" lon="3.32726">
        <ele>60.65</ele>
        <time>2021-06-20T09:38:17.000Z</time>
      </trkpt>
      <trkpt lat="50.73027" lon="3.32716">
        <ele>60.35</ele>
        <time>2021-06-20T09:38:18.000Z</time>
      </trkpt>
      <trkpt lat="50.73032" lon="3.32707">
        <ele>60.68</ele>
        <time>2021-06-20T09:38:19.000Z</time>
      </trkpt>
      <trkpt lat="50.73037" lon="3.32698">
        <ele>60.59</ele>
        <time>2021-06-20T09:38:20.000Z</time>
      </trkpt>
      <trkpt lat="50.73042" lon="3.32688">
        <ele>60.76</ele>
        <time>2021-06-20T09:38:21.000Z</time>
      </trkpt>
      <trkpt lat="50.73047" lon="3.32679">
        <ele>60.89</ele>
        <time>2021-06-20T09:38:22.000Z</time>
      </trkpt>
      <trkpt lat="50.73051" lon="3.32668">
        <ele>61.34</ele>
        <time>2021-06-20T09:38:23.000Z</time>
      </trkpt>
      <trkpt lat="50.73053" lon="3.32656">
        <ele>61.92</ele>
        <time>2021-06-20T09:38:24.000Z</time>
      </trkpt>
      <trkpt lat="50.73054" lon="3.32644">
        <ele>61.88</ele>
        <time>2021-06-20T09:38:25.000Z</time>
      </trkpt>
      <trkpt lat="50.73054" lon="3.32631">
        <ele>61.77</ele>
        <time>2021-06-20T09:38:26.000Z</time>
      </trkpt>
      <trkpt lat="50.73054" lon="3.32618">
        <ele>61.53</ele>
        <time>2021-06-20T09:38:27.000Z</time>
      </trkpt>
      <trkpt lat="50.7305" lon="3.32606">
        <ele>61.45</ele>
        <time>2021-06-20T09:38:28.000Z</time>
      </trkpt>
      <trkpt lat="50.73048" lon="3.32594">
        <ele>61.04</ele>
        <time>2021-06-20T09:38:29.000Z</time>
      </trkpt>
      <trkpt lat="50.73045" lon="3.32581">
        <ele>61.11</ele>
        <time>2021-06-20T09:38:30.000Z</time>
      </trkpt>
      <trkpt lat="50.73043" lon="3.32568">
        <ele>60.96</ele>
        <time>2021-06-20T09:38:31.000Z</time>
      </trkpt>
      <trkpt lat="50.73042" lon="3.32556">
        <ele>60.37</ele>
        <time>2021-06-20T09:38:32.000Z</time>
      </trkpt>
      <trkpt lat="50.7304" lon="3.32543">
        <ele>60.71</ele>
        <time>2021-06-20T09:38:33.000Z</time>
      </trkpt>
      <trkpt lat="50.73038" lon="3.3253">
        <ele>60.56</ele>
        <time>2021-06-20T09:38:34.000Z</time>
      </trkpt>
      <trkpt lat="50.73037" lon="3.32517">
        <ele>60.6</ele>
        <time>2021-06-20T09:38:35.000Z</time>
      </trkpt>
      <trkpt lat="50.73037" lon="3.32504">
        <ele>60.81</ele>
        <time>2021-06-20T09:38:36.000Z</time>
      </trkpt>
      <trkpt lat="50.73039" lon="3.32491">
        <ele>61.1</ele>
        <time>2021-06-20T09:38:37.000Z</time>
      </trkpt>
      <trkpt lat="50.73044" lon="3.3248">
        <ele>60.67</ele>
        <time>2021-06-20T09:38:38.000Z</time>
      </trkpt>
      <trkpt lat="50.7305" lon="3.32472">
        <ele>61.83</ele>
        <time>2021-06-20T09:38:39.000Z</time>
      </trkpt>
      <trkpt lat="50.73058" lon="3.32465">
        <ele>61.74</ele>
        <time>2021-06-20T09:38:40.000Z</time>
      </trkpt>
      <trkpt lat="50.73065" lon="3.32459">
        <ele>61.82</ele>
        <time>2021-06-20T09:38:41.000Z</time>
      </trkpt>
      <trkpt lat="50.73073" lon="3.32453">
        <ele>62.06</ele>
        <time>2021-06-20T09:38:42.000Z</time>
      </trkpt>
      <trkpt lat="50.73081" lon="3.32445">
        <ele>62.68</ele>
        <time>2021-06-20T09:38:43.000Z</time>
      </trkpt>
      <trkpt lat="50.73088" lon="3.32438">
        <ele>62.43</ele>
        <time>2021-06-20T09:38:44.000Z</time>
      </trkpt>
      <trkpt lat="50.73097" lon="3.32432">
        <ele>62</ele>
        <time>2021-06-20T09:38:45.000Z</time>
      </trkpt>
      <trkpt lat="50.73105" lon="3.32426">
        <ele>62.27</ele>
        <time>2021-06-20T09:38:46.000Z</time>
      </trkpt>
      <trkpt lat="50.73112" lon="3.3242">
        <ele>62.27</ele>
        <time>2021-06-20T09:38:47.000Z</time>
      </trkpt>
      <trkpt lat="50.73119" lon="3.32413">
        <ele>62.38</ele>
        <time>2021-06-20T09:38:48.000Z</time>
      </trkpt>
      <trkpt lat="50.73126" lon="3.32407">
        <ele>62.36</ele>
        <time>2021-06-20T09:38:49.000Z</time>
      </trkpt>
      <trkpt lat="50.73133" lon="3.32401">
        <ele>62.38</ele>
        <time>2021-06-20T09:38:50.000Z</time>
      </trkpt>
      <trkpt lat="50.73139" lon="3.32394">
        <ele>62.08</ele>
        <time>2021-06-20T09:38:51.000Z</time>
      </trkpt>
      <trkpt lat="50.73144" lon="3.32385">
        <ele>62.03</ele>
        <time>2021-06-20T09:38:52.000Z</time>
      </trkpt>
      <trkpt lat="50.73148" lon="3.32374">
        <ele>62.03</ele>
        <time>2021-06-20T09:38:53.000Z</time>
      </trkpt>
      <trkpt lat="50.73151" lon="3.32362">
        <ele>61.84</ele>
        <time>2021-06-20T09:38:54.000Z</time>
      </trkpt>
      <trkpt lat="50.73151" lon="3.32349">
        <ele>61.69</ele>
        <time>2021-06-20T09:38:55.000Z</time>
      </trkpt>
      <trkpt lat="50.73151" lon="3.32336">
        <ele>61.99</ele>
        <time>2021-06-20T09:38:56.000Z</time>
      </trkpt>
      <trkpt lat="50.73151" lon="3.32323">
        <ele>62.06</ele>
        <time>2021-06-20T09:38:57.000Z</time>
      </trkpt>
      <trkpt lat="50.7315" lon="3.32309">
        <ele>62.09</ele>
        <time>2021-06-20T09:38:58.000Z</time>
      </trkpt>
      <trkpt lat="50.7315" lon="3.32296">
        <ele>62.16</ele>
        <time>2021-06-20T09:38:59.000Z</time>
      </trkpt>
      <trkpt lat="50.73149" lon="3.32283">
        <ele>62.13</ele>
        <time>2021-06-20T09:39:00.000Z</time>
      </trkpt>
      <trkpt lat="50.73148" lon="3.3227">
        <ele>62.17</ele>
        <time>2021-06-20T09:39:01.000Z</time>
      </trkpt>
      <trkpt lat="50.73146" lon="3.32257">
        <ele>62.4</ele>
        <time>2021-06-20T09:39:02.000Z</time>
      </trkpt>
      <trkpt lat="50.73144" lon="3.32244">
        <ele>62.65</ele>
        <time>2021-06-20T09:39:03.000Z</time>
      </trkpt>
      <trkpt lat="50.73142" lon="3.32232">
        <ele>62.72</ele>
        <time>2021-06-20T09:39:04.000Z</time>
      </trkpt>
      <trkpt lat="50.73139" lon="3.32219">
        <ele>62.67</ele>
        <time>2021-06-20T09:39:05.000Z</time>
      </trkpt>
      <trkpt lat="50.73136" lon="3.32206">
        <ele>62.79</ele>
        <time>2021-06-20T09:39:06.000Z</time>
      </trkpt>
      <trkpt lat="50.73134" lon="3.32194">
        <ele>63</ele>
        <time>2021-06-20T09:39:07.000Z</time>
      </trkpt>
      <trkpt lat="50.73131" lon="3.32181">
        <ele>63.11</ele>
        <time>2021-06-20T09:39:08.000Z</time>
      </trkpt>
      <trkpt lat="50.73127" lon="3.32169">
        <ele>63.45</ele>
        <time>2021-06-20T09:39:09.000Z</time>
      </trkpt>
      <trkpt lat="50.73125" lon="3.32157">
        <ele>63.41</ele>
        <time>2021-06-20T09:39:10.000Z</time>
      </trkpt>
      <trkpt lat="50.73122" lon="3.32145">
        <ele>63.45</ele>
        <time>2021-06-20T09:39:11.000Z</time>
      </trkpt>
      <trkpt lat="50.73119" lon="3.32133">
        <ele>63.32</ele>
        <time>2021-06-20T09:39:12.000Z</time>
      </trkpt>
      <trkpt lat="50.73116" lon="3.32121">
        <ele>63.19</ele>
        <time>2021-06-20T09:39:13.000Z</time>
      </trkpt>
      <trkpt lat="50.73113" lon="3.32109">
        <ele>63.33</ele>
        <time>2021-06-20T09:39:14.000Z</time>
      </trkpt>
      <trkpt lat="50.73109" lon="3.32097">
        <ele>63.66</ele>
        <time>2021-06-20T09:39:15.000Z</time>
      </trkpt>
      <trkpt lat="50.73106" lon="3.32086">
        <ele>63.56</ele>
        <time>2021-06-20T09:39:16.000Z</time>
      </trkpt>
      <trkpt lat="50.73103" lon="3.32075">
        <ele>63.2</ele>
        <time>2021-06-20T09:39:17.000Z</time>
      </trkpt>
      <trkpt lat="50.731" lon="3.32064">
        <ele>63.46</ele>
        <time>2021-06-20T09:39:18.000Z</time>
      </trkpt>
      <trkpt lat="50.73097" lon="3.32052">
        <ele>63.6</ele>
        <time>2021-06-20T09:39:19.000Z</time>
      </trkpt>
      <trkpt lat="50.73093" lon="3.3204">
        <ele>63.75</ele>
        <time>2021-06-20T09:39:20.000Z</time>
      </trkpt>
      <trkpt lat="50.7309" lon="3.32028">
        <ele>63.85</ele>
        <time>2021-06-20T09:39:21.000Z</time>
      </trkpt>
      <trkpt lat="50.73088" lon="3.32017">
        <ele>63.66</ele>
        <time>2021-06-20T09:39:22.000Z</time>
      </trkpt>
      <trkpt lat="50.73086" lon="3.32005">
        <ele>63.65</ele>
        <time>2021-06-20T09:39:23.000Z</time>
      </trkpt>
      <trkpt lat="50.73086" lon="3.31992">
        <ele>64.19</ele>
        <time>2021-06-20T09:39:24.000Z</time>
      </trkpt>
      <trkpt lat="50.73086" lon="3.31979">
        <ele>64.36</ele>
        <time>2021-06-20T09:39:25.000Z</time>
      </trkpt>
      <trkpt lat="50.73088" lon="3.31967">
        <ele>64.37</ele>
        <time>2021-06-20T09:39:26.000Z</time>
      </trkpt>
      <trkpt lat="50.73089" lon="3.31955">
        <ele>64.56</ele>
        <time>2021-06-20T09:39:27.000Z</time>
      </trkpt>
      <trkpt lat="50.73091" lon="3.31943">
        <ele>64.68</ele>
        <time>2021-06-20T09:39:28.000Z</time>
      </trkpt>
      <trkpt lat="50.73092" lon="3.3193">
        <ele>64.69</ele>
        <time>2021-06-20T09:39:29.000Z</time>
      </trkpt>
      <trkpt lat="50.73094" lon="3.31918">
        <ele>65.01</ele>
        <time>2021-06-20T09:39:30.000Z</time>
      </trkpt>
      <trkpt lat="50.73095" lon="3.31906">
        <ele>65.02</ele>
        <time>2021-06-20T09:39:31.000Z</time>
      </trkpt>
      <trkpt lat="50.73096" lon="3.31895">
        <ele>65.2</ele>
        <time>2021-06-20T09:39:32.000Z</time>
      </trkpt>
      <trkpt lat="50.73098" lon="3.31883">
        <ele>65.31</ele>
        <time>2021-06-20T09:39:33.000Z</time>
      </trkpt>
      <trkpt lat="50.73099" lon="3.31871">
        <ele>65.72</ele>
        <time>2021-06-20T09:39:34.000Z</time>
      </trkpt>
      <trkpt lat="50.73101" lon="3.31859">
        <ele>65.54</ele>
        <time>2021-06-20T09:39:35.000Z</time>
      </trkpt>
      <trkpt lat="50.73102" lon="3.31848">
        <ele>65.35</ele>
        <time>2021-06-20T09:39:36.000Z</time>
      </trkpt>
      <trkpt lat="50.73104" lon="3.31836">
        <ele>65.41</ele>
        <time>2021-06-20T09:39:37.000Z</time>
      </trkpt>
      <trkpt lat="50.73106" lon="3.31825">
        <ele>65.49</ele>
        <time>2021-06-20T09:39:38.000Z</time>
      </trkpt>
      <trkpt lat="50.73109" lon="3.31814">
        <ele>65.56</ele>
        <time>2021-06-20T09:39:39.000Z</time>
      </trkpt>
      <trkpt lat="50.73113" lon="3.31803">
        <ele>65.75</ele>
        <time>2021-06-20T09:39:40.000Z</time>
      </trkpt>
      <trkpt lat="50.73115" lon="3.31792">
        <ele>65.23</ele>
        <time>2021-06-20T09:39:41.000Z</time>
      </trkpt>
      <trkpt lat="50.73117" lon="3.3178">
        <ele>65.37</ele>
        <time>2021-06-20T09:39:42.000Z</time>
      </trkpt>
      <trkpt lat="50.73117" lon="3.31768">
        <ele>65.54</ele>
        <time>2021-06-20T09:39:43.000Z</time>
      </trkpt>
      <trkpt lat="50.73114" lon="3.31756">
        <ele>65.66</ele>
        <time>2021-06-20T09:39:44.000Z</time>
      </trkpt>
      <trkpt lat="50.73111" lon="3.31745">
        <ele>65.68</ele>
        <time>2021-06-20T09:39:45.000Z</time>
      </trkpt>
      <trkpt lat="50.73107" lon="3.31735">
        <ele>65.52</ele>
        <time>2021-06-20T09:39:46.000Z</time>
      </trkpt>
      <trkpt lat="50.73102" lon="3.31725">
        <ele>65.64</ele>
        <time>2021-06-20T09:39:47.000Z</time>
      </trkpt>
      <trkpt lat="50.73097" lon="3.31716">
        <ele>66.03</ele>
        <time>2021-06-20T09:39:48.000Z</time>
      </trkpt>
      <trkpt lat="50.73093" lon="3.31706">
        <ele>66.49</ele>
        <time>2021-06-20T09:39:49.000Z</time>
      </trkpt>
      <trkpt lat="50.73088" lon="3.31697">
        <ele>67</ele>
        <time>2021-06-20T09:39:50.000Z</time>
      </trkpt>
      <trkpt lat="50.73084" lon="3.31688">
        <ele>67.14</ele>
        <time>2021-06-20T09:39:51.000Z</time>
      </trkpt>
      <trkpt lat="50.7308" lon="3.31678">
        <ele>67.16</ele>
        <time>2021-06-20T09:39:52.000Z</time>
      </trkpt>
      <trkpt lat="50.73076" lon="3.31668">
        <ele>67.11</ele>
        <time>2021-06-20T09:39:53.000Z</time>
      </trkpt>
      <trkpt lat="50.73073" lon="3.31657">
        <ele>66.99</ele>
        <time>2021-06-20T09:39:54.000Z</time>
      </trkpt>
      <trkpt lat="50.73072" lon="3.31645">
        <ele>67.05</ele>
        <time>2021-06-20T09:39:55.000Z</time>
      </trkpt>
      <trkpt lat="50.73071" lon="3.31634">
        <ele>67.21</ele>
        <time>2021-06-20T09:39:56.000Z</time>
      </trkpt>
      <trkpt lat="50.7307" lon="3.31622">
        <ele>67.22</ele>
        <time>2021-06-20T09:39:57.000Z</time>
      </trkpt>
      <trkpt lat="50.7307" lon="3.3161">
        <ele>67.09</ele>
        <time>2021-06-20T09:39:58.000Z</time>
      </trkpt>
      <trkpt lat="50.73069" lon="3.31598">
        <ele>67.07</ele>
        <time>2021-06-20T09:39:59.000Z</time>
      </trkpt>
      <trkpt lat="50.73068" lon="3.31586">
        <ele>67.04</ele>
        <time>2021-06-20T09:40:00.000Z</time>
      </trkpt>
      <trkpt lat="50.73068" lon="3.31574">
        <ele>66.97</ele>
        <time>2021-06-20T09:40:01.000Z</time>
      </trkpt>
      <trkpt lat="50.73068" lon="3.31563">
        <ele>67.17</ele>
        <time>2021-06-20T09:40:02.000Z</time>
      </trkpt>
      <trkpt lat="50.73067" lon="3.31551">
        <ele>67.19</ele>
        <time>2021-06-20T09:40:03.000Z</time>
      </trkpt>
      <trkpt lat="50.73067" lon="3.31539">
        <ele>67.43</ele>
        <time>2021-06-20T09:40:04.000Z</time>
      </trkpt>
      <trkpt lat="50.73067" lon="3.31528">
        <ele>67.52</ele>
        <time>2021-06-20T09:40:05.000Z</time>
      </trkpt>
      <trkpt lat="50.73066" lon="3.31516">
        <ele>67.69</ele>
        <time>2021-06-20T09:40:06.000Z</time>
      </trkpt>
      <trkpt lat="50.73066" lon="3.31504">
        <ele>67.83</ele>
        <time>2021-06-20T09:40:07.000Z</time>
      </trkpt>
      <trkpt lat="50.73065" lon="3.31492">
        <ele>68.27</ele>
        <time>2021-06-20T09:40:08.000Z</time>
      </trkpt>
      <trkpt lat="50.73064" lon="3.3148">
        <ele>67.91</ele>
        <time>2021-06-20T09:40:09.000Z</time>
      </trkpt>
      <trkpt lat="50.73064" lon="3.31468">
        <ele>68.08</ele>
        <time>2021-06-20T09:40:10.000Z</time>
      </trkpt>
      <trkpt lat="50.73064" lon="3.31456">
        <ele>68.39</ele>
        <time>2021-06-20T09:40:11.000Z</time>
      </trkpt>
      <trkpt lat="50.73064" lon="3.31444">
        <ele>68.73</ele>
        <time>2021-06-20T09:40:12.000Z</time>
      </trkpt>
      <trkpt lat="50.73063" lon="3.31432">
        <ele>68.71</ele>
        <time>2021-06-20T09:40:13.000Z</time>
      </trkpt>
      <trkpt lat="50.73062" lon="3.3142">
        <ele>68.61</ele>
        <time>2021-06-20T09:40:14.000Z</time>
      </trkpt>
      <trkpt lat="50.73062" lon="3.31408">
        <ele>66.66</ele>
        <time>2021-06-20T09:40:15.000Z</time>
      </trkpt>
      <trkpt lat="50.73062" lon="3.31395">
        <ele>67.9</ele>
        <time>2021-06-20T09:40:16.000Z</time>
      </trkpt>
      <trkpt lat="50.73061" lon="3.31381">
        <ele>68.4</ele>
        <time>2021-06-20T09:40:17.000Z</time>
      </trkpt>
      <trkpt lat="50.73061" lon="3.31368">
        <ele>68.86</ele>
        <time>2021-06-20T09:40:18.000Z</time>
      </trkpt>
      <trkpt lat="50.7306" lon="3.31356">
        <ele>69.38</ele>
        <time>2021-06-20T09:40:19.000Z</time>
      </trkpt>
      <trkpt lat="50.7306" lon="3.31343">
        <ele>69.62</ele>
        <time>2021-06-20T09:40:20.000Z</time>
      </trkpt>
      <trkpt lat="50.73059" lon="3.31331">
        <ele>68.65</ele>
        <time>2021-06-20T09:40:21.000Z</time>
      </trkpt>
      <trkpt lat="50.73059" lon="3.31318">
        <ele>69.24</ele>
        <time>2021-06-20T09:40:22.000Z</time>
      </trkpt>
      <trkpt lat="50.73058" lon="3.31305">
        <ele>69.56</ele>
        <time>2021-06-20T09:40:23.000Z</time>
      </trkpt>
      <trkpt lat="50.73058" lon="3.31293">
        <ele>68.93</ele>
        <time>2021-06-20T09:40:24.000Z</time>
      </trkpt>
      <trkpt lat="50.73058" lon="3.3128">
        <ele>69.61</ele>
        <time>2021-06-20T09:40:25.000Z</time>
      </trkpt>
      <trkpt lat="50.73057" lon="3.31268">
        <ele>69.53</ele>
        <time>2021-06-20T09:40:26.000Z</time>
      </trkpt>
      <trkpt lat="50.73057" lon="3.31255">
        <ele>69.33</ele>
        <time>2021-06-20T09:40:27.000Z</time>
      </trkpt>
      <trkpt lat="50.73056" lon="3.31243">
        <ele>69.11</ele>
        <time>2021-06-20T09:40:28.000Z</time>
      </trkpt>
      <trkpt lat="50.73056" lon="3.31232">
        <ele>67.86</ele>
        <time>2021-06-20T09:40:29.000Z</time>
      </trkpt>
      <trkpt lat="50.73055" lon="3.3122">
        <ele>68.13</ele>
        <time>2021-06-20T09:40:30.000Z</time>
      </trkpt>
      <trkpt lat="50.73054" lon="3.31209">
        <ele>68.51</ele>
        <time>2021-06-20T09:40:31.000Z</time>
      </trkpt>
      <trkpt lat="50.73052" lon="3.31199">
        <ele>68.53</ele>
        <time>2021-06-20T09:40:32.000Z</time>
      </trkpt>
      <trkpt lat="50.73049" lon="3.31188">
        <ele>68.75</ele>
        <time>2021-06-20T09:40:33.000Z</time>
      </trkpt>
      <trkpt lat="50.73045" lon="3.31177">
        <ele>66.86</ele>
        <time>2021-06-20T09:40:34.000Z</time>
      </trkpt>
      <trkpt lat="50.7304" lon="3.31167">
        <ele>68.17</ele>
        <time>2021-06-20T09:40:35.000Z</time>
      </trkpt>
      <trkpt lat="50.73035" lon="3.31158">
        <ele>68.99</ele>
        <time>2021-06-20T09:40:36.000Z</time>
      </trkpt>
      <trkpt lat="50.73029" lon="3.3115">
        <ele>68.98</ele>
        <time>2021-06-20T09:40:37.000Z</time>
      </trkpt>
      <trkpt lat="50.73023" lon="3.31143">
        <ele>69.8</ele>
        <time>2021-06-20T09:40:38.000Z</time>
      </trkpt>
      <trkpt lat="50.73018" lon="3.31135">
        <ele>70.41</ele>
        <time>2021-06-20T09:40:39.000Z</time>
      </trkpt>
      <trkpt lat="50.73012" lon="3.31126">
        <ele>70.92</ele>
        <time>2021-06-20T09:40:40.000Z</time>
      </trkpt>
      <trkpt lat="50.73007" lon="3.31119">
        <ele>70.93</ele>
        <time>2021-06-20T09:40:41.000Z</time>
      </trkpt>
      <trkpt lat="50.73002" lon="3.31111">
        <ele>71.33</ele>
        <time>2021-06-20T09:40:42.000Z</time>
      </trkpt>
      <trkpt lat="50.72996" lon="3.31104">
        <ele>71.59</ele>
        <time>2021-06-20T09:40:43.000Z</time>
      </trkpt>
      <trkpt lat="50.72991" lon="3.31097">
        <ele>71.94</ele>
        <time>2021-06-20T09:40:44.000Z</time>
      </trkpt>
      <trkpt lat="50.72985" lon="3.31089">
        <ele>72</ele>
        <time>2021-06-20T09:40:45.000Z</time>
      </trkpt>
      <trkpt lat="50.7298" lon="3.31082">
        <ele>71.63</ele>
        <time>2021-06-20T09:40:46.000Z</time>
      </trkpt>
      <trkpt lat="50.72975" lon="3.31074">
        <ele>71.67</ele>
        <time>2021-06-20T09:40:47.000Z</time>
      </trkpt>
      <trkpt lat="50.7297" lon="3.31066">
        <ele>71.26</ele>
        <time>2021-06-20T09:40:48.000Z</time>
      </trkpt>
      <trkpt lat="50.72966" lon="3.31059">
        <ele>70.87</ele>
        <time>2021-06-20T09:40:49.000Z</time>
      </trkpt>
      <trkpt lat="50.72962" lon="3.31052">
        <ele>71.09</ele>
        <time>2021-06-20T09:40:50.000Z</time>
      </trkpt>
      <trkpt lat="50.72957" lon="3.31046">
        <ele>70.92</ele>
        <time>2021-06-20T09:40:51.000Z</time>
      </trkpt>
      <trkpt lat="50.72953" lon="3.3104">
        <ele>70.68</ele>
        <time>2021-06-20T09:40:52.000Z</time>
      </trkpt>
      <trkpt lat="50.72952" lon="3.31031">
        <ele>70.85</ele>
        <time>2021-06-20T09:40:53.000Z</time>
      </trkpt>
      <trkpt lat="50.72954" lon="3.31022">
        <ele>71.26</ele>
        <time>2021-06-20T09:40:54.000Z</time>
      </trkpt>
      <trkpt lat="50.72958" lon="3.31014">
        <ele>71.49</ele>
        <time>2021-06-20T09:40:55.000Z</time>
      </trkpt>
      <trkpt lat="50.72963" lon="3.31008">
        <ele>71.51</ele>
        <time>2021-06-20T09:40:56.000Z</time>
      </trkpt>
      <trkpt lat="50.72968" lon="3.31001">
        <ele>71.42</ele>
        <time>2021-06-20T09:40:57.000Z</time>
      </trkpt>
      <trkpt lat="50.72974" lon="3.30994">
        <ele>71.61</ele>
        <time>2021-06-20T09:40:58.000Z</time>
      </trkpt>
      <trkpt lat="50.72979" lon="3.30987">
        <ele>71.96</ele>
        <time>2021-06-20T09:40:59.000Z</time>
      </trkpt>
    </trkseg>
  </trk>
</gpx>